<?xml version="1.0" encoding="UTF-8"?>
<gpx version="1.1" creator="https://www.youtrack.es" xsi:schemaLocation="http://www.topografix.com/GPX/1/1 http://www.topografix.com/GPX/1/1/gpx.xsd http://www.garmin.com/xmlschemas/GpxExtensions/v3 http://www.garmin.com/xmlschemas/GpxExtensionsv3.xsd http://www.garmin.com/xmlschemas/TrackPointExtension/v1 http://www.garmin.com/xmlschemas/TrackPointExtensionv1.xsd" xmlns:gpxtpx="http://www.garmin.com/xmlschemas/TrackPointExtension/v1" xmlns:gpxx="http://www.garmin.com/xmlschemas/GpxExtensions/v3" xmlns:xsi="http://www.w3.org/2001/XMLSchema-instance">
  <metadata>
    <author>
      <name>Fausto Neto</name>
      <email id="macseven79" domain="gmail.com"/>
    </author>
    <link href="https://www.youtrack.es">
      <text>YouTrack.es</text>
    </link>
    <time>2026-05-08T12:31:33Z</time>
  </metadata>
  <trk>
    <src>https://www.youtrack.es</src>
    <link href="https://www.youtrack.es/ruta/14102-fatima-total">
      <text>YouTrack.es</text>
    </link>
    <trkseg>
      <trkpt lat="40.22551573812962" lon="-8.442650344222761">
        <ele>17.79473114013672</ele>
        <time>2020-07-10T09:27:09.000Z</time>
      </trkpt>
      <trkpt lat="40.22562503814697" lon="-8.442692756652832">
        <ele>17.25619125366211</ele>
        <time>2020-07-10T09:27:09.005Z</time>
      </trkpt>
      <trkpt lat="40.22567868232727" lon="-8.442606925964355">
        <ele>17.312416076660156</ele>
        <time>2020-07-10T09:27:09.013Z</time>
      </trkpt>
      <trkpt lat="40.22575386799872" lon="-8.442864418029785">
        <ele>16.174602508544922</ele>
        <time>2020-07-10T09:27:09.029Z</time>
      </trkpt>
      <trkpt lat="40.224616611376405" lon="-8.442403078079224">
        <ele>16.30953025817871</ele>
        <time>2020-07-10T09:27:09.093Z</time>
      </trkpt>
      <trkpt lat="40.224584424868226" lon="-8.442349433898926">
        <ele>16.41250991821289</ele>
        <time>2020-07-10T09:27:09.159Z</time>
      </trkpt>
      <trkpt lat="40.224584341049194" lon="-8.442349433898926">
        <ele>16.41261100769043</ele>
        <time>2020-07-10T09:27:09.225Z</time>
      </trkpt>
      <trkpt lat="40.22448778152466" lon="-8.442349433898926">
        <ele>16.52846336364746</ele>
        <time>2020-07-10T09:27:09.295Z</time>
      </trkpt>
      <trkpt lat="40.224326848983765" lon="-8.442167043685913">
        <ele>16.94038200378418</ele>
        <time>2020-07-10T09:27:09.373Z</time>
      </trkpt>
      <trkpt lat="40.22416591644287" lon="-8.44174861907959">
        <ele>17.357694625854492</ele>
        <time>2020-07-10T09:27:09.466Z</time>
      </trkpt>
      <trkpt lat="40.224090898409486" lon="-8.441780805587769">
        <ele>17.203224182128906</ele>
        <time>2020-07-10T09:27:09.562Z</time>
      </trkpt>
      <trkpt lat="40.22401579655707" lon="-8.441780805587769">
        <ele>17.203224182128906</ele>
        <time>2020-07-10T09:27:09.661Z</time>
      </trkpt>
      <trkpt lat="40.22401571273804" lon="-8.441780805587769">
        <ele>17.203224182128906</ele>
        <time>2020-07-10T09:27:09.760Z</time>
      </trkpt>
      <trkpt lat="40.22400498390198" lon="-8.441523313522339">
        <ele>18.14227294921875</ele>
        <time>2020-07-10T09:27:09.867Z</time>
      </trkpt>
      <trkpt lat="40.223865592852235" lon="-8.44075083732605">
        <ele>19.23409080505371</ele>
        <time>2020-07-10T09:27:09.998Z</time>
      </trkpt>
      <trkpt lat="40.2238655090332" lon="-8.44075083732605">
        <ele>19.233688354492188</ele>
        <time>2020-07-10T09:27:10.129Z</time>
      </trkpt>
      <trkpt lat="40.22388696670532" lon="-8.440117835998535">
        <ele>21.384906768798828</ele>
        <time>2020-07-10T09:27:10.280Z</time>
      </trkpt>
      <trkpt lat="40.22362947463989" lon="-8.43973159790039">
        <ele>20.111167907714844</ele>
        <time>2020-07-10T09:27:10.446Z</time>
      </trkpt>
      <trkpt lat="40.223597371950746" lon="-8.439699411392212">
        <ele>19.995515823364258</ele>
        <time>2020-07-10T09:27:10.614Z</time>
      </trkpt>
      <trkpt lat="40.2232111338526" lon="-8.439613580703735">
        <ele>21.364349365234375</ele>
        <time>2020-07-10T09:27:10.798Z</time>
      </trkpt>
      <trkpt lat="40.22299655713141" lon="-8.439613580703735">
        <ele>22.651596069335938</ele>
        <time>2020-07-10T09:27:10.990Z</time>
      </trkpt>
      <trkpt lat="40.22299647331238" lon="-8.439613580703735">
        <ele>22.652099609375</ele>
        <time>2020-07-10T09:27:11.182Z</time>
      </trkpt>
      <trkpt lat="40.22154816426337" lon="-8.439345359802246">
        <ele>25.490570068359375</ele>
        <time>2020-07-10T09:27:11.433Z</time>
      </trkpt>
      <trkpt lat="40.220646942034364" lon="-8.439141511917114">
        <ele>25.623777389526367</ele>
        <time>2020-07-10T09:27:11.720Z</time>
      </trkpt>
      <trkpt lat="40.220400178804994" lon="-8.439087867736816">
        <ele>22.408964157104492</ele>
        <time>2020-07-10T09:27:12.017Z</time>
      </trkpt>
      <trkpt lat="40.219627702608705" lon="-8.438884019851685">
        <ele>21.04490089416504</ele>
        <time>2020-07-10T09:27:12.346Z</time>
      </trkpt>
      <trkpt lat="40.2194344997406" lon="-8.438830375671387">
        <ele>21.0</ele>
        <time>2020-07-10T09:27:12.683Z</time>
      </trkpt>
      <trkpt lat="40.219295024871826" lon="-8.438787460327148">
        <ele>20.902833938598633</ele>
        <time>2020-07-10T09:27:13.025Z</time>
      </trkpt>
      <trkpt lat="40.218887412920594" lon="-8.438647985458374">
        <ele>18.933650970458984</ele>
        <time>2020-07-10T09:27:13.384Z</time>
      </trkpt>
      <trkpt lat="40.21888732910156" lon="-8.438647985458374">
        <ele>18.933347702026367</ele>
        <time>2020-07-10T09:27:13.743Z</time>
      </trkpt>
      <trkpt lat="40.21855481900275" lon="-8.43848705291748">
        <ele>18.559181213378906</ele>
        <time>2020-07-10T09:27:14.116Z</time>
      </trkpt>
      <trkpt lat="40.21823295392096" lon="-8.438390493392944">
        <ele>19.4473819732666</ele>
        <time>2020-07-10T09:27:14.503Z</time>
      </trkpt>
      <trkpt lat="40.21799691952765" lon="-8.438197374343872">
        <ele>20.841154098510742</ele>
        <time>2020-07-10T09:27:14.901Z</time>
      </trkpt>
      <trkpt lat="40.21747120656073" lon="-8.437714576721191">
        <ele>22.788402557373047</ele>
        <time>2020-07-10T09:27:15.324Z</time>
      </trkpt>
      <trkpt lat="40.21742829121649" lon="-8.437671661376953">
        <ele>22.942873001098633</ele>
        <time>2020-07-10T09:27:15.750Z</time>
      </trkpt>
      <trkpt lat="40.21740683354437" lon="-8.437650203704834">
        <ele>23.02010726928711</ele>
        <time>2020-07-10T09:27:16.177Z</time>
      </trkpt>
      <trkpt lat="40.217084968462586" lon="-8.437328338623047">
        <ele>26.10121726989746</ele>
        <time>2020-07-10T09:27:16.620Z</time>
      </trkpt>
      <trkpt lat="40.217084884643555" lon="-8.437328338623047">
        <ele>26.101116180419922</ele>
        <time>2020-07-10T09:27:17.063Z</time>
      </trkpt>
      <trkpt lat="40.215593576431274" lon="-8.435847759246826">
        <ele>31.702245712280273</ele>
        <time>2020-07-10T09:27:17.581Z</time>
      </trkpt>
      <trkpt lat="40.21554001607001" lon="-8.435858488082886">
        <ele>30.776836395263672</ele>
        <time>2020-07-10T09:27:18.101Z</time>
      </trkpt>
      <trkpt lat="40.21546491421759" lon="-8.435794115066528">
        <ele>29.6698055267334</ele>
        <time>2020-07-10T09:27:18.625Z</time>
      </trkpt>
      <trkpt lat="40.21544337272644" lon="-8.435686826705933">
        <ele>29.71334457397461</ele>
        <time>2020-07-10T09:27:19.152Z</time>
      </trkpt>
      <trkpt lat="40.21344780921936" lon="-8.433787822723389">
        <ele>27.907114028930664</ele>
        <time>2020-07-10T09:27:19.778Z</time>
      </trkpt>
      <trkpt lat="40.2129864692688" lon="-8.433315753936768">
        <ele>26.37352180480957</ele>
        <time>2020-07-10T09:27:20.427Z</time>
      </trkpt>
      <trkpt lat="40.212643230333924" lon="-8.433197736740112">
        <ele>27.810514450073242</ele>
        <time>2020-07-10T09:27:21.090Z</time>
      </trkpt>
      <trkpt lat="40.21248229779303" lon="-8.433122634887695">
        <ele>28.567033767700195</ele>
        <time>2020-07-10T09:27:21.760Z</time>
      </trkpt>
      <trkpt lat="40.21143087185919" lon="-8.43252182006836">
        <ele>29.520788192749023</ele>
        <time>2020-07-10T09:27:22.476Z</time>
      </trkpt>
      <trkpt lat="40.21079787053168" lon="-8.432178497314453">
        <ele>26.971614837646484</ele>
        <time>2020-07-10T09:27:23.219Z</time>
      </trkpt>
      <trkpt lat="40.21050819195807" lon="-8.43202829360962">
        <ele>25.375431060791016</ele>
        <time>2020-07-10T09:27:23.975Z</time>
      </trkpt>
      <trkpt lat="40.21050810813904" lon="-8.43202829360962">
        <ele>25.375228881835938</ele>
        <time>2020-07-10T09:27:24.731Z</time>
      </trkpt>
      <trkpt lat="40.21043309010565" lon="-8.43198537826538">
        <ele>24.915050506591797</ele>
        <time>2020-07-10T09:27:25.490Z</time>
      </trkpt>
      <trkpt lat="40.21029361523688" lon="-8.431910276412964">
        <ele>24.21306610107422</ele>
        <time>2020-07-10T09:27:26.255Z</time>
      </trkpt>
      <trkpt lat="40.21029353141785" lon="-8.431910276412964">
        <ele>24.21306610107422</ele>
        <time>2020-07-10T09:27:27.020Z</time>
      </trkpt>
      <trkpt lat="40.21004685200751" lon="-8.43177080154419">
        <ele>23.939189910888672</ele>
        <time>2020-07-10T09:27:27.796Z</time>
      </trkpt>
      <trkpt lat="40.20980008877814" lon="-8.431631326675415">
        <ele>23.802875518798828</ele>
        <time>2020-07-10T09:27:28.583Z</time>
      </trkpt>
      <trkpt lat="40.20967125892639" lon="-8.431566953659058">
        <ele>24.421056747436523</ele>
        <time>2020-07-10T09:27:29.375Z</time>
      </trkpt>
      <trkpt lat="40.20953178405762" lon="-8.431609869003296">
        <ele>24.611894607543945</ele>
        <time>2020-07-10T09:27:30.173Z</time>
      </trkpt>
      <trkpt lat="40.20933874882758" lon="-8.432167768478394">
        <ele>23.488115310668945</ele>
        <time>2020-07-10T09:27:30.990Z</time>
      </trkpt>
      <trkpt lat="40.20927429199219" lon="-8.432178497314453">
        <ele>23.204519271850586</ele>
        <time>2020-07-10T09:27:31.809Z</time>
      </trkpt>
      <trkpt lat="40.2088987827301" lon="-8.431727886199951">
        <ele>25.088176727294922</ele>
        <time>2020-07-10T09:27:32.649Z</time>
      </trkpt>
      <trkpt lat="40.20873785018921" lon="-8.431802988052368">
        <ele>24.953245162963867</ele>
        <time>2020-07-10T09:27:33.496Z</time>
      </trkpt>
      <trkpt lat="40.20850189961493" lon="-8.432049751281738">
        <ele>23.498859405517578</ele>
        <time>2020-07-10T09:27:34.355Z</time>
      </trkpt>
      <trkpt lat="40.2085018157959" lon="-8.432049751281738">
        <ele>23.4986572265625</ele>
        <time>2020-07-10T09:27:35.214Z</time>
      </trkpt>
      <trkpt lat="40.2083945274353" lon="-8.432039022445679">
        <ele>23.27982521057129</ele>
        <time>2020-07-10T09:27:36.077Z</time>
      </trkpt>
      <trkpt lat="40.20822294987738" lon="-8.431835174560547">
        <ele>23.601839065551758</ele>
        <time>2020-07-10T09:27:36.949Z</time>
      </trkpt>
      <trkpt lat="40.20822286605835" lon="-8.431835174560547">
        <ele>23.60163688659668</ele>
        <time>2020-07-10T09:27:37.821Z</time>
      </trkpt>
      <trkpt lat="40.20798691548407" lon="-8.431556224822998">
        <ele>24.315397262573242</ele>
        <time>2020-07-10T09:27:38.706Z</time>
      </trkpt>
      <trkpt lat="40.20798683166504" lon="-8.431556224822998">
        <ele>24.315296173095703</ele>
        <time>2020-07-10T09:27:39.591Z</time>
      </trkpt>
      <trkpt lat="40.20777225494385" lon="-8.431341648101807">
        <ele>24.657270431518555</ele>
        <time>2020-07-10T09:27:40.487Z</time>
      </trkpt>
      <trkpt lat="40.20746111869812" lon="-8.430837392807007">
        <ele>24.418987274169922</ele>
        <time>2020-07-10T09:27:41.403Z</time>
      </trkpt>
      <trkpt lat="40.207375371828675" lon="-8.430558443069458">
        <ele>24.98748779296875</ele>
        <time>2020-07-10T09:27:42.328Z</time>
      </trkpt>
      <trkpt lat="40.207375288009644" lon="-8.430558443069458">
        <ele>24.987186431884766</ele>
        <time>2020-07-10T09:27:43.253Z</time>
      </trkpt>
      <trkpt lat="40.2073431853205" lon="-8.430290222167969">
        <ele>26.15888214111328</ele>
        <time>2020-07-10T09:27:44.186Z</time>
      </trkpt>
      <trkpt lat="40.207117795944214" lon="-8.429818153381348">
        <ele>30.033527374267578</ele>
        <time>2020-07-10T09:27:45.136Z</time>
      </trkpt>
      <trkpt lat="40.206828117370605" lon="-8.42976450920105">
        <ele>28.591812133789062</ele>
        <time>2020-07-10T09:27:46.098Z</time>
      </trkpt>
      <trkpt lat="40.20672082901001" lon="-8.429861068725586">
        <ele>26.66094398498535</ele>
        <time>2020-07-10T09:27:47.065Z</time>
      </trkpt>
      <trkpt lat="40.20530462265015" lon="-8.431191444396973">
        <ele>19.123336791992188</ele>
        <time>2020-07-10T09:27:48.102Z</time>
      </trkpt>
      <trkpt lat="40.20517587661743" lon="-8.431309461593628">
        <ele>20.037281036376953</ele>
        <time>2020-07-10T09:27:49.145Z</time>
      </trkpt>
      <trkpt lat="40.20517596043646" lon="-8.431309461593628">
        <ele>20.03677749633789</ele>
        <time>2020-07-10T09:27:50.188Z</time>
      </trkpt>
      <trkpt lat="40.205079317092896" lon="-8.431384563446045">
        <ele>20.706647872924805</ele>
        <time>2020-07-10T09:27:51.236Z</time>
      </trkpt>
      <trkpt lat="40.20496129989624" lon="-8.43149185180664">
        <ele>21.543357849121094</ele>
        <time>2020-07-10T09:27:52.289Z</time>
      </trkpt>
      <trkpt lat="40.20496138371527" lon="-8.43149185180664">
        <ele>21.542856216430664</ele>
        <time>2020-07-10T09:27:53.342Z</time>
      </trkpt>
      <trkpt lat="40.204864824190736" lon="-8.431566953659058">
        <ele>22.20331573486328</ele>
        <time>2020-07-10T09:27:54.400Z</time>
      </trkpt>
      <trkpt lat="40.20455360412598" lon="-8.431856632232666">
        <ele>23.95783042907715</ele>
        <time>2020-07-10T09:27:55.473Z</time>
      </trkpt>
      <trkpt lat="40.20423173904419" lon="-8.432393074035645">
        <ele>23.091510772705078</ele>
        <time>2020-07-10T09:27:56.567Z</time>
      </trkpt>
      <trkpt lat="40.2039098739624" lon="-8.43273639678955">
        <ele>22.75156021118164</ele>
        <time>2020-07-10T09:27:57.678Z</time>
      </trkpt>
      <trkpt lat="40.2038133982569" lon="-8.432908058166504">
        <ele>22.661352157592773</ele>
        <time>2020-07-10T09:27:58.795Z</time>
      </trkpt>
      <trkpt lat="40.20379194058478" lon="-8.432950973510742">
        <ele>22.63560676574707</ele>
        <time>2020-07-10T09:27:59.914Z</time>
      </trkpt>
      <trkpt lat="40.203352058306336" lon="-8.434034585952759">
        <ele>23.037076950073242</ele>
        <time>2020-07-10T09:28:01.070Z</time>
      </trkpt>
      <trkpt lat="40.203351974487305" lon="-8.434034585952759">
        <ele>23.037277221679688</ele>
        <time>2020-07-10T09:28:02.226Z</time>
      </trkpt>
      <trkpt lat="40.20331987179816" lon="-8.434163331985474">
        <ele>23.11431121826172</ele>
        <time>2020-07-10T09:28:03.386Z</time>
      </trkpt>
      <trkpt lat="40.20329833030701" lon="-8.434528112411499">
        <ele>23.908239364624023</ele>
        <time>2020-07-10T09:28:04.558Z</time>
      </trkpt>
      <trkpt lat="40.20338416099548" lon="-8.43473196029663">
        <ele>24.400108337402344</ele>
        <time>2020-07-10T09:28:05.737Z</time>
      </trkpt>
      <trkpt lat="40.20343788899481" lon="-8.434785604476929">
        <ele>24.07779312133789</ele>
        <time>2020-07-10T09:28:06.919Z</time>
      </trkpt>
      <trkpt lat="40.20346999168396" lon="-8.434978723526001">
        <ele>23.885210037231445</ele>
        <time>2020-07-10T09:28:08.107Z</time>
      </trkpt>
      <trkpt lat="40.203394973650575" lon="-8.435118198394775">
        <ele>24.335243225097656</ele>
        <time>2020-07-10T09:28:09.300Z</time>
      </trkpt>
      <trkpt lat="40.203341245651245" lon="-8.435150384902954">
        <ele>24.657556533813477</ele>
        <time>2020-07-10T09:28:10.495Z</time>
      </trkpt>
      <trkpt lat="40.20292282104492" lon="-8.4354829788208">
        <ele>29.885578155517578</ele>
        <time>2020-07-10T09:28:11.710Z</time>
      </trkpt>
      <trkpt lat="40.2026975993067" lon="-8.435536623001099">
        <ele>31.4169979095459</ele>
        <time>2020-07-10T09:28:12.934Z</time>
      </trkpt>
      <trkpt lat="40.20268687047064" lon="-8.435536623001099">
        <ele>31.468486785888672</ele>
        <time>2020-07-10T09:28:14.158Z</time>
      </trkpt>
      <trkpt lat="40.20268678665161" lon="-8.435536623001099">
        <ele>31.468889236450195</ele>
        <time>2020-07-10T09:28:15.382Z</time>
      </trkpt>
      <trkpt lat="40.202161157503724" lon="-8.435633182525635">
        <ele>33.3060302734375</ele>
        <time>2020-07-10T09:28:16.628Z</time>
      </trkpt>
      <trkpt lat="40.20207532681525" lon="-8.435633182525635">
        <ele>33.40675354003906</ele>
        <time>2020-07-10T09:28:17.877Z</time>
      </trkpt>
      <trkpt lat="40.20198949612677" lon="-8.435643911361694">
        <ele>33.754310607910156</ele>
        <time>2020-07-10T09:28:19.129Z</time>
      </trkpt>
      <trkpt lat="40.201635444536805" lon="-8.435697555541992">
        <ele>35.3118782043457</ele>
        <time>2020-07-10T09:28:20.396Z</time>
      </trkpt>
      <trkpt lat="40.20163536071777" lon="-8.435697555541992">
        <ele>35.312076568603516</ele>
        <time>2020-07-10T09:28:21.663Z</time>
      </trkpt>
      <trkpt lat="40.200637662783265" lon="-8.435890674591064">
        <ele>42.46292495727539</ele>
        <time>2020-07-10T09:28:22.970Z</time>
      </trkpt>
      <trkpt lat="40.19995101727545" lon="-8.435804843902588">
        <ele>46.039852142333984</ele>
        <time>2020-07-10T09:28:24.305Z</time>
      </trkpt>
      <trkpt lat="40.1992214564234" lon="-8.435622453689575">
        <ele>46.5453987121582</ele>
        <time>2020-07-10T09:28:25.669Z</time>
      </trkpt>
      <trkpt lat="40.19878149032593" lon="-8.435633182525635">
        <ele>48.038787841796875</ele>
        <time>2020-07-10T09:28:27.051Z</time>
      </trkpt>
      <trkpt lat="40.19779452122748" lon="-8.43601942062378">
        <ele>57.65726089477539</ele>
        <time>2020-07-10T09:28:28.474Z</time>
      </trkpt>
      <trkpt lat="40.19747257232666" lon="-8.436158895492554">
        <ele>61.119850158691406</ele>
        <time>2020-07-10T09:28:29.911Z</time>
      </trkpt>
      <trkpt lat="40.197343826293945" lon="-8.436287641525269">
        <ele>64.51818084716797</ele>
        <time>2020-07-10T09:28:31.354Z</time>
      </trkpt>
      <trkpt lat="40.197322368621826" lon="-8.436394929885864">
        <ele>67.4531021118164</ele>
        <time>2020-07-10T09:28:32.800Z</time>
      </trkpt>
      <trkpt lat="40.19725799560547" lon="-8.4364914894104">
        <ele>70.04046630859375</ele>
        <time>2020-07-10T09:28:34.250Z</time>
      </trkpt>
      <trkpt lat="40.19718297757208" lon="-8.4364914894104">
        <ele>69.9504623413086</ele>
        <time>2020-07-10T09:28:35.703Z</time>
      </trkpt>
      <trkpt lat="40.19715070724487" lon="-8.436470031738281">
        <ele>69.31961059570312</ele>
        <time>2020-07-10T09:28:37.158Z</time>
      </trkpt>
      <trkpt lat="40.196850299835205" lon="-8.436566591262817">
        <ele>69.70768737792969</ele>
        <time>2020-07-10T09:28:38.625Z</time>
      </trkpt>
      <trkpt lat="40.1965606212616" lon="-8.436877727508545">
        <ele>75.86072540283203</ele>
        <time>2020-07-10T09:28:40.107Z</time>
      </trkpt>
      <trkpt lat="40.19619584083557" lon="-8.436942100524902">
        <ele>75.20088958740234</ele>
        <time>2020-07-10T09:28:41.604Z</time>
      </trkpt>
      <trkpt lat="40.19597053527832" lon="-8.436813354492188">
        <ele>72.92034149169922</ele>
        <time>2020-07-10T09:28:43.111Z</time>
      </trkpt>
      <trkpt lat="40.1954448223114" lon="-8.43626618385315">
        <ele>64.425537109375</ele>
        <time>2020-07-10T09:28:44.645Z</time>
      </trkpt>
      <trkpt lat="40.195176685228944" lon="-8.436148166656494">
        <ele>66.99739837646484</ele>
        <time>2020-07-10T09:28:46.190Z</time>
      </trkpt>
      <trkpt lat="40.194876194000244" lon="-8.436148166656494">
        <ele>70.96321868896484</ele>
        <time>2020-07-10T09:28:47.747Z</time>
      </trkpt>
      <trkpt lat="40.19399642944336" lon="-8.436706066131592">
        <ele>87.56172180175781</ele>
        <time>2020-07-10T09:28:49.343Z</time>
      </trkpt>
      <trkpt lat="40.19356727600098" lon="-8.436695337295532">
        <ele>88.50289916992188</ele>
        <time>2020-07-10T09:28:50.956Z</time>
      </trkpt>
      <trkpt lat="40.193384885787964" lon="-8.436534404754639">
        <ele>85.95415496826172</ele>
        <time>2020-07-10T09:28:52.578Z</time>
      </trkpt>
      <trkpt lat="40.19322395324707" lon="-8.436609506607056">
        <ele>88.9148178100586</ele>
        <time>2020-07-10T09:28:54.207Z</time>
      </trkpt>
      <trkpt lat="40.192880714312196" lon="-8.437135219573975">
        <ele>101.0322494506836</ele>
        <time>2020-07-10T09:28:55.857Z</time>
      </trkpt>
      <trkpt lat="40.19268751144409" lon="-8.437371253967285">
        <ele>106.69723510742188</ele>
        <time>2020-07-10T09:28:57.518Z</time>
      </trkpt>
      <trkpt lat="40.192387104034424" lon="-8.437596559524536">
        <ele>113.63549041748047</ele>
        <time>2020-07-10T09:28:59.192Z</time>
      </trkpt>
      <trkpt lat="40.192086696624756" lon="-8.437703847885132">
        <ele>118.64727783203125</ele>
        <time>2020-07-10T09:29:00.879Z</time>
      </trkpt>
      <trkpt lat="40.19150742329657" lon="-8.43775749206543">
        <ele>129.06800842285156</ele>
        <time>2020-07-10T09:29:02.589Z</time>
      </trkpt>
      <trkpt lat="40.19150733947754" lon="-8.43775749206543">
        <ele>129.0695037841797</ele>
        <time>2020-07-10T09:29:04.299Z</time>
      </trkpt>
      <trkpt lat="40.191389322280884" lon="-8.437843322753906">
        <ele>131.29644775390625</ele>
        <time>2020-07-10T09:29:06.015Z</time>
      </trkpt>
      <trkpt lat="40.191367864608765" lon="-8.437950611114502">
        <ele>131.81134033203125</ele>
        <time>2020-07-10T09:29:07.734Z</time>
      </trkpt>
      <trkpt lat="40.19172191619873" lon="-8.438390493392944">
        <ele>127.19458770751953</ele>
        <time>2020-07-10T09:29:09.473Z</time>
      </trkpt>
      <trkpt lat="40.19175410270691" lon="-8.438605070114136">
        <ele>128.5946502685547</ele>
        <time>2020-07-10T09:29:11.218Z</time>
      </trkpt>
      <trkpt lat="40.19168972969055" lon="-8.438862562179565">
        <ele>132.61085510253906</ele>
        <time>2020-07-10T09:29:12.972Z</time>
      </trkpt>
      <trkpt lat="40.19155033864081" lon="-8.439130783081055">
        <ele>138.01878356933594</ele>
        <time>2020-07-10T09:29:14.735Z</time>
      </trkpt>
      <trkpt lat="40.19100316800177" lon="-8.439635038375854">
        <ele>146.62290954589844</ele>
        <time>2020-07-10T09:29:16.525Z</time>
      </trkpt>
      <trkpt lat="40.19068121910095" lon="-8.439677953720093">
        <ele>149.04708862304688</ele>
        <time>2020-07-10T09:29:18.328Z</time>
      </trkpt>
      <trkpt lat="40.18949031829834" lon="-8.440643548965454">
        <ele>158.40554809570312</ele>
        <time>2020-07-10T09:29:20.187Z</time>
      </trkpt>
      <trkpt lat="40.188878774642944" lon="-8.440858125686646">
        <ele>163.9821319580078</ele>
        <time>2020-07-10T09:29:22.072Z</time>
      </trkpt>
      <trkpt lat="40.18809565342963" lon="-8.44075083732605">
        <ele>173.48158264160156</ele>
        <time>2020-07-10T09:29:23.988Z</time>
      </trkpt>
      <trkpt lat="40.18775224685669" lon="-8.440772294998169">
        <ele>174.8000946044922</ele>
        <time>2020-07-10T09:29:25.918Z</time>
      </trkpt>
      <trkpt lat="40.187387466430664" lon="-8.440901041030884">
        <ele>174.31094360351562</ele>
        <time>2020-07-10T09:29:27.863Z</time>
      </trkpt>
      <trkpt lat="40.1860249042511" lon="-8.441705703735352">
        <ele>166.7036590576172</ele>
        <time>2020-07-10T09:29:29.868Z</time>
      </trkpt>
      <trkpt lat="40.185863971710205" lon="-8.44172716140747">
        <ele>167.77206420898438</ele>
        <time>2020-07-10T09:29:31.879Z</time>
      </trkpt>
      <trkpt lat="40.185649394989014" lon="-8.441630601882935">
        <ele>170.8485870361328</ele>
        <time>2020-07-10T09:29:33.899Z</time>
      </trkpt>
      <trkpt lat="40.185391902923584" lon="-8.44199538230896">
        <ele>169.91714477539062</ele>
        <time>2020-07-10T09:29:35.934Z</time>
      </trkpt>
      <trkpt lat="40.18482335843146" lon="-8.442467451095581">
        <ele>173.6750946044922</ele>
        <time>2020-07-10T09:29:37.996Z</time>
      </trkpt>
      <trkpt lat="40.184394121170044" lon="-8.442821502685547">
        <ele>176.1869354248047</ele>
        <time>2020-07-10T09:29:40.079Z</time>
      </trkpt>
      <trkpt lat="40.1839542388916" lon="-8.443390130996704">
        <ele>180.0163116455078</ele>
        <time>2020-07-10T09:29:42.186Z</time>
      </trkpt>
      <trkpt lat="40.18333196640015" lon="-8.44474196434021">
        <ele>179.89561462402344</ele>
        <time>2020-07-10T09:29:44.342Z</time>
      </trkpt>
      <trkpt lat="40.18318176269531" lon="-8.445546627044678">
        <ele>179.7496795654297</ele>
        <time>2020-07-10T09:29:46.523Z</time>
      </trkpt>
      <trkpt lat="40.18301010131836" lon="-8.447155952453613">
        <ele>167.5878448486328</ele>
        <time>2020-07-10T09:29:48.754Z</time>
      </trkpt>
      <trkpt lat="40.18270969390869" lon="-8.447713851928711">
        <ele>162.30877685546875</ele>
        <time>2020-07-10T09:29:51.006Z</time>
      </trkpt>
      <trkpt lat="40.18270977772772" lon="-8.447713851928711">
        <ele>162.30886840820312</ele>
        <time>2020-07-10T09:29:53.258Z</time>
      </trkpt>
      <trkpt lat="40.18220543861389" lon="-8.448368310928345">
        <ele>156.99244689941406</ele>
        <time>2020-07-10T09:29:55.538Z</time>
      </trkpt>
      <trkpt lat="40.182141065597534" lon="-8.448572158813477">
        <ele>155.9673309326172</ele>
        <time>2020-07-10T09:29:57.825Z</time>
      </trkpt>
      <trkpt lat="40.18208750523627" lon="-8.44874382019043">
        <ele>156.7338409423828</ele>
        <time>2020-07-10T09:30:00.118Z</time>
      </trkpt>
      <trkpt lat="40.18204458989203" lon="-8.448765277862549">
        <ele>156.9912872314453</ele>
        <time>2020-07-10T09:30:02.413Z</time>
      </trkpt>
      <trkpt lat="40.18195867538452" lon="-8.44875454902649">
        <ele>157.37786865234375</ele>
        <time>2020-07-10T09:30:04.711Z</time>
      </trkpt>
      <trkpt lat="40.18178701400757" lon="-8.448797464370728">
        <ele>158.08419799804688</ele>
        <time>2020-07-10T09:30:07.016Z</time>
      </trkpt>
      <trkpt lat="40.18121838569641" lon="-8.44900131225586">
        <ele>158.10853576660156</ele>
        <time>2020-07-10T09:30:09.345Z</time>
      </trkpt>
      <trkpt lat="40.18068194389343" lon="-8.449033498764038">
        <ele>161.48277282714844</ele>
        <time>2020-07-10T09:30:11.695Z</time>
      </trkpt>
      <trkpt lat="40.180682027712464" lon="-8.449033498764038">
        <ele>161.482666015625</ele>
        <time>2020-07-10T09:30:14.045Z</time>
      </trkpt>
      <trkpt lat="40.17974853515625" lon="-8.449355363845825">
        <ele>166.6448974609375</ele>
        <time>2020-07-10T09:30:16.434Z</time>
      </trkpt>
      <trkpt lat="40.178643465042114" lon="-8.450095653533936">
        <ele>167.70172119140625</ele>
        <time>2020-07-10T09:30:18.872Z</time>
      </trkpt>
      <trkpt lat="40.17798908986151" lon="-8.450771570205688">
        <ele>174.46507263183594</ele>
        <time>2020-07-10T09:30:21.344Z</time>
      </trkpt>
      <trkpt lat="40.177881717681885" lon="-8.450900316238403">
        <ele>175.98568725585938</ele>
        <time>2020-07-10T09:30:23.822Z</time>
      </trkpt>
      <trkpt lat="40.17781742848456" lon="-8.451018333435059">
        <ele>177.18736267089844</ele>
        <time>2020-07-10T09:30:26.304Z</time>
      </trkpt>
      <trkpt lat="40.177624225616455" lon="-8.45124363899231">
        <ele>177.6894989013672</ele>
        <time>2020-07-10T09:30:28.796Z</time>
      </trkpt>
      <trkpt lat="40.17759212292731" lon="-8.451318740844727">
        <ele>177.818115234375</ele>
        <time>2020-07-10T09:30:31.291Z</time>
      </trkpt>
      <trkpt lat="40.17749547958374" lon="-8.45174789428711">
        <ele>183.57919311523438</ele>
        <time>2020-07-10T09:30:33.800Z</time>
      </trkpt>
      <trkpt lat="40.17747402191162" lon="-8.45271348953247">
        <ele>179.7307586669922</ele>
        <time>2020-07-10T09:30:36.338Z</time>
      </trkpt>
      <trkpt lat="40.17758131027222" lon="-8.452949523925781">
        <ele>180.11692810058594</ele>
        <time>2020-07-10T09:30:38.885Z</time>
      </trkpt>
      <trkpt lat="40.177656495943666" lon="-8.45321774482727">
        <ele>180.74024963378906</ele>
        <time>2020-07-10T09:30:41.440Z</time>
      </trkpt>
      <trkpt lat="40.17758131027222" lon="-8.453346490859985">
        <ele>178.8977813720703</ele>
        <time>2020-07-10T09:30:44.000Z</time>
      </trkpt>
      <trkpt lat="40.17747402191162" lon="-8.453378677368164">
        <ele>176.63223266601562</ele>
        <time>2020-07-10T09:30:46.565Z</time>
      </trkpt>
      <trkpt lat="40.17729163169861" lon="-8.45349669456482">
        <ele>172.68215942382812</ele>
        <time>2020-07-10T09:30:49.138Z</time>
      </trkpt>
      <trkpt lat="40.17717361450195" lon="-8.453679084777832">
        <ele>171.8068389892578</ele>
        <time>2020-07-10T09:30:51.718Z</time>
      </trkpt>
      <trkpt lat="40.17693758010864" lon="-8.453850746154785">
        <ele>170.32992553710938</ele>
        <time>2020-07-10T09:30:54.309Z</time>
      </trkpt>
      <trkpt lat="40.17670154571533" lon="-8.453882932662964">
        <ele>168.31019592285156</ele>
        <time>2020-07-10T09:30:56.910Z</time>
      </trkpt>
      <trkpt lat="40.17562874592841" lon="-8.453786373138428">
        <ele>157.00753784179688</ele>
        <time>2020-07-10T09:30:59.554Z</time>
      </trkpt>
      <trkpt lat="40.17482399940491" lon="-8.453797101974487">
        <ele>150.0001678466797</ele>
        <time>2020-07-10T09:31:02.230Z</time>
      </trkpt>
      <trkpt lat="40.17399796284735" lon="-8.454194068908691">
        <ele>145.99734497070312</ele>
        <time>2020-07-10T09:31:04.941Z</time>
      </trkpt>
      <trkpt lat="40.17368674278259" lon="-8.45423698425293">
        <ele>144.8839111328125</ele>
        <time>2020-07-10T09:31:07.664Z</time>
      </trkpt>
      <trkpt lat="40.172613859176636" lon="-8.454172611236572">
        <ele>141.59019470214844</ele>
        <time>2020-07-10T09:31:10.430Z</time>
      </trkpt>
      <trkpt lat="40.17229207791388" lon="-8.454312086105347">
        <ele>139.87855529785156</ele>
        <time>2020-07-10T09:31:13.210Z</time>
      </trkpt>
      <trkpt lat="40.17175555229187" lon="-8.454805612564087">
        <ele>136.8768310546875</ele>
        <time>2020-07-10T09:31:16.016Z</time>
      </trkpt>
      <trkpt lat="40.1717556361109" lon="-8.454805612564087">
        <ele>136.8777313232422</ele>
        <time>2020-07-10T09:31:18.822Z</time>
      </trkpt>
      <trkpt lat="40.17149814404547" lon="-8.455020189285278">
        <ele>134.86962890625</ele>
        <time>2020-07-10T09:31:21.640Z</time>
      </trkpt>
      <trkpt lat="40.16988881863654" lon="-8.456382751464844">
        <ele>123.05957794189453</ele>
        <time>2020-07-10T09:31:24.535Z</time>
      </trkpt>
      <trkpt lat="40.16974934376776" lon="-8.456447124481201">
        <ele>122.40308380126953</ele>
        <time>2020-07-10T09:31:27.436Z</time>
      </trkpt>
      <trkpt lat="40.16921281814575" lon="-8.456876277923584">
        <ele>120.15674591064453</ele>
        <time>2020-07-10T09:31:30.362Z</time>
      </trkpt>
      <trkpt lat="40.16700267791748" lon="-8.459322452545166">
        <ele>110.54812622070312</ele>
        <time>2020-07-10T09:31:33.404Z</time>
      </trkpt>
      <trkpt lat="40.1665198802948" lon="-8.459558486938477">
        <ele>110.05058288574219</ele>
        <time>2020-07-10T09:31:36.467Z</time>
      </trkpt>
      <trkpt lat="40.16651996411383" lon="-8.459558486938477">
        <ele>110.05017852783203</ele>
        <time>2020-07-10T09:31:39.530Z</time>
      </trkpt>
      <trkpt lat="40.165683114901185" lon="-8.459783792495728">
        <ele>109.66207122802734</ele>
        <time>2020-07-10T09:31:42.627Z</time>
      </trkpt>
      <trkpt lat="40.16558647155762" lon="-8.459826707839966">
        <ele>109.1082534790039</ele>
        <time>2020-07-10T09:31:45.728Z</time>
      </trkpt>
      <trkpt lat="40.165425539016724" lon="-8.4599769115448">
        <ele>107.92202758789062</ele>
        <time>2020-07-10T09:31:48.837Z</time>
      </trkpt>
      <trkpt lat="40.165361166000366" lon="-8.460062742233276">
        <ele>107.6645736694336</ele>
        <time>2020-07-10T09:31:51.950Z</time>
      </trkpt>
      <trkpt lat="40.16527533531189" lon="-8.460062742233276">
        <ele>107.87053680419922</ele>
        <time>2020-07-10T09:31:55.066Z</time>
      </trkpt>
      <trkpt lat="40.16521096229553" lon="-8.4599769115448">
        <ele>108.43692016601562</ele>
        <time>2020-07-10T09:31:58.186Z</time>
      </trkpt>
      <trkpt lat="40.16507148742676" lon="-8.459923267364502">
        <ele>109.02906036376953</ele>
        <time>2020-07-10T09:32:01.311Z</time>
      </trkpt>
      <trkpt lat="40.16458877362311" lon="-8.459912538528442">
        <ele>110.40157318115234</ele>
        <time>2020-07-10T09:32:04.456Z</time>
      </trkpt>
      <trkpt lat="40.16453504562378" lon="-8.459901809692383">
        <ele>110.27255249023438</ele>
        <time>2020-07-10T09:32:07.603Z</time>
      </trkpt>
      <trkpt lat="40.16433119773865" lon="-8.459923267364502">
        <ele>109.41009521484375</ele>
        <time>2020-07-10T09:32:10.758Z</time>
      </trkpt>
      <trkpt lat="40.16430974006653" lon="-8.459944725036621">
        <ele>109.20413208007812</ele>
        <time>2020-07-10T09:32:13.914Z</time>
      </trkpt>
      <trkpt lat="40.164170265197754" lon="-8.459912538528442">
        <ele>108.89519500732422</ele>
        <time>2020-07-10T09:32:17.076Z</time>
      </trkpt>
      <trkpt lat="40.1640522480011" lon="-8.459891080856323">
        <ele>108.59912872314453</ele>
        <time>2020-07-10T09:32:20.243Z</time>
      </trkpt>
      <trkpt lat="40.16332268714905" lon="-8.460116386413574">
        <ele>105.11554718017578</ele>
        <time>2020-07-10T09:32:23.440Z</time>
      </trkpt>
      <trkpt lat="40.16288288868964" lon="-8.46049189567566">
        <ele>102.80371856689453</ele>
        <time>2020-07-10T09:32:26.658Z</time>
      </trkpt>
      <trkpt lat="40.1622820738703" lon="-8.461039066314697">
        <ele>100.83423614501953</ele>
        <time>2020-07-10T09:32:29.905Z</time>
      </trkpt>
      <trkpt lat="40.1615309715271" lon="-8.462047576904297">
        <ele>99.12569427490234</ele>
        <time>2020-07-10T09:32:33.195Z</time>
      </trkpt>
      <trkpt lat="40.1608229521662" lon="-8.462412357330322">
        <ele>102.56684112548828</ele>
        <time>2020-07-10T09:32:36.515Z</time>
      </trkpt>
      <trkpt lat="40.16035079956055" lon="-8.462562561035156">
        <ele>105.10063934326172</ele>
        <time>2020-07-10T09:32:39.855Z</time>
      </trkpt>
      <trkpt lat="40.15914925374091" lon="-8.462744951248169">
        <ele>109.96512603759766</ele>
        <time>2020-07-10T09:32:43.243Z</time>
      </trkpt>
      <trkpt lat="40.158419609069824" lon="-8.462991714477539">
        <ele>114.42794036865234</ele>
        <time>2020-07-10T09:32:46.661Z</time>
      </trkpt>
      <trkpt lat="40.157690132036805" lon="-8.463345766067505">
        <ele>121.12602996826172</ele>
        <time>2020-07-10T09:32:50.110Z</time>
      </trkpt>
      <trkpt lat="40.15706785954535" lon="-8.463646173477173">
        <ele>127.002685546875</ele>
        <time>2020-07-10T09:32:53.586Z</time>
      </trkpt>
      <trkpt lat="40.15699275769293" lon="-8.463678359985352">
        <ele>127.92950439453125</ele>
        <time>2020-07-10T09:32:57.065Z</time>
      </trkpt>
      <trkpt lat="40.15674599446356" lon="-8.463807106018066">
        <ele>131.65896606445312</ele>
        <time>2020-07-10T09:33:00.555Z</time>
      </trkpt>
      <trkpt lat="40.15629538334906" lon="-8.463989496231079">
        <ele>140.3993682861328</ele>
        <time>2020-07-10T09:33:04.064Z</time>
      </trkpt>
      <trkpt lat="40.15604862011969" lon="-8.464043140411377">
        <ele>143.38844299316406</ele>
        <time>2020-07-10T09:33:07.583Z</time>
      </trkpt>
      <trkpt lat="40.155383348464966" lon="-8.464086055755615">
        <ele>151.45452880859375</ele>
        <time>2020-07-10T09:33:11.128Z</time>
      </trkpt>
      <trkpt lat="40.15509366989136" lon="-8.46397876739502">
        <ele>153.17942810058594</ele>
        <time>2020-07-10T09:33:14.685Z</time>
      </trkpt>
      <trkpt lat="40.15424617566168" lon="-8.463335037231445">
        <ele>139.15663146972656</ele>
        <time>2020-07-10T09:33:18.282Z</time>
      </trkpt>
      <trkpt lat="40.15380629338324" lon="-8.463292121887207">
        <ele>131.76290893554688</ele>
        <time>2020-07-10T09:33:21.896Z</time>
      </trkpt>
      <trkpt lat="40.15289434231818" lon="-8.46372127532959">
        <ele>125.22109985351562</ele>
        <time>2020-07-10T09:33:25.549Z</time>
      </trkpt>
      <trkpt lat="40.152894258499146" lon="-8.46372127532959">
        <ele>125.21989440917969</ele>
        <time>2020-07-10T09:33:29.202Z</time>
      </trkpt>
      <trkpt lat="40.15148878097534" lon="-8.464246988296509">
        <ele>111.82369995117188</ele>
        <time>2020-07-10T09:33:32.913Z</time>
      </trkpt>
      <trkpt lat="40.150383710861206" lon="-8.465137481689453">
        <ele>106.35789489746094</ele>
        <time>2020-07-10T09:33:36.676Z</time>
      </trkpt>
      <trkpt lat="40.149922370910645" lon="-8.465437889099121">
        <ele>103.3440170288086</ele>
        <time>2020-07-10T09:33:40.460Z</time>
      </trkpt>
      <trkpt lat="40.14923572540283" lon="-8.46572756767273">
        <ele>97.24891662597656</ele>
        <time>2020-07-10T09:33:44.273Z</time>
      </trkpt>
      <trkpt lat="40.1471221446991" lon="-8.466768264770508">
        <ele>92.7829818725586</ele>
        <time>2020-07-10T09:33:48.176Z</time>
      </trkpt>
      <trkpt lat="40.14684319496155" lon="-8.4669828414917">
        <ele>93.53404998779297</ele>
        <time>2020-07-10T09:33:52.092Z</time>
      </trkpt>
      <trkpt lat="40.14652132987976" lon="-8.467369079589844">
        <ele>94.92427825927734</ele>
        <time>2020-07-10T09:33:56.026Z</time>
      </trkpt>
      <trkpt lat="40.14596343040466" lon="-8.467658758163452">
        <ele>99.3656234741211</ele>
        <time>2020-07-10T09:33:59.984Z</time>
      </trkpt>
      <trkpt lat="40.14508366584778" lon="-8.467497825622559">
        <ele>107.10688018798828</ele>
        <time>2020-07-10T09:34:03.977Z</time>
      </trkpt>
      <trkpt lat="40.14433264732361" lon="-8.467562198638916">
        <ele>111.47817993164062</ele>
        <time>2020-07-10T09:34:08.000Z</time>
      </trkpt>
      <trkpt lat="40.14409669674933" lon="-8.467637300491333">
        <ele>112.26289367675781</ele>
        <time>2020-07-10T09:34:12.033Z</time>
      </trkpt>
      <trkpt lat="40.143967950716615" lon="-8.467669486999512">
        <ele>112.82752990722656</ele>
        <time>2020-07-10T09:34:16.071Z</time>
      </trkpt>
      <trkpt lat="40.143742645159364" lon="-8.46773386001587">
        <ele>113.83650207519531</ele>
        <time>2020-07-10T09:34:20.118Z</time>
      </trkpt>
      <trkpt lat="40.14300235547125" lon="-8.467873334884644">
        <ele>111.89276123046875</ele>
        <time>2020-07-10T09:34:24.195Z</time>
      </trkpt>
      <trkpt lat="40.141940200701356" lon="-8.468130826950073">
        <ele>108.5990219116211</ele>
        <time>2020-07-10T09:34:28.315Z</time>
      </trkpt>
      <trkpt lat="40.141704166308045" lon="-8.468173742294312">
        <ele>108.03263854980469</ele>
        <time>2020-07-10T09:34:32.445Z</time>
      </trkpt>
      <trkpt lat="40.140663385391235" lon="-8.46821665763855">
        <ele>104.40264129638672</ele>
        <time>2020-07-10T09:34:36.617Z</time>
      </trkpt>
      <trkpt lat="40.14050245285034" lon="-8.468248844146729">
        <ele>103.47582244873047</ele>
        <time>2020-07-10T09:34:40.795Z</time>
      </trkpt>
      <trkpt lat="40.140416622161865" lon="-8.468238115310669">
        <ele>103.25777435302734</ele>
        <time>2020-07-10T09:34:44.976Z</time>
      </trkpt>
      <trkpt lat="40.14033079147339" lon="-8.46820592880249">
        <ele>103.51522827148438</ele>
        <time>2020-07-10T09:34:49.161Z</time>
      </trkpt>
      <trkpt lat="40.13997673988342" lon="-8.468302488327026">
        <ele>103.47660827636719</ele>
        <time>2020-07-10T09:34:53.361Z</time>
      </trkpt>
      <trkpt lat="40.139676332473755" lon="-8.46847414970398">
        <ele>103.01319885253906</ele>
        <time>2020-07-10T09:34:57.574Z</time>
      </trkpt>
      <trkpt lat="40.138700008392334" lon="-8.469353914260864">
        <ele>104.99383544921875</ele>
        <time>2020-07-10T09:35:01.834Z</time>
      </trkpt>
      <trkpt lat="40.13859272003174" lon="-8.469504117965698">
        <ele>104.58191680908203</ele>
        <time>2020-07-10T09:35:06.100Z</time>
      </trkpt>
      <trkpt lat="40.13848543167114" lon="-8.469482660293579">
        <ele>104.78787994384766</ele>
        <time>2020-07-10T09:35:10.371Z</time>
      </trkpt>
      <trkpt lat="40.138142108917236" lon="-8.469525575637817">
        <ele>105.04532623291016</ele>
        <time>2020-07-10T09:35:14.655Z</time>
      </trkpt>
      <trkpt lat="40.13756283558905" lon="-8.469836711883545">
        <ele>105.07288360595703</ele>
        <time>2020-07-10T09:35:18.965Z</time>
      </trkpt>
      <trkpt lat="40.13727307319641" lon="-8.469901084899902">
        <ele>105.31209564208984</ele>
        <time>2020-07-10T09:35:23.286Z</time>
      </trkpt>
      <trkpt lat="40.13713359832764" lon="-8.46996545791626">
        <ele>105.23485565185547</ele>
        <time>2020-07-10T09:35:27.613Z</time>
      </trkpt>
      <trkpt lat="40.13680108822882" lon="-8.470383882522583">
        <ele>105.36639404296875</ele>
        <time>2020-07-10T09:35:31.959Z</time>
      </trkpt>
      <trkpt lat="40.13680100440979" lon="-8.470383882522583">
        <ele>105.36649322509766</ele>
        <time>2020-07-10T09:35:36.305Z</time>
      </trkpt>
      <trkpt lat="40.13635039329529" lon="-8.470920324325562">
        <ele>105.8852310180664</ele>
        <time>2020-07-10T09:35:40.675Z</time>
      </trkpt>
      <trkpt lat="40.136146545410156" lon="-8.471070528030396">
        <ele>105.75727844238281</ele>
        <time>2020-07-10T09:35:45.054Z</time>
      </trkpt>
      <trkpt lat="40.13554573059082" lon="-8.4714674949646">
        <ele>104.56014251708984</ele>
        <time>2020-07-10T09:35:49.460Z</time>
      </trkpt>
      <trkpt lat="40.13488054275513" lon="-8.4719717502594">
        <ele>104.49837493896484</ele>
        <time>2020-07-10T09:35:53.897Z</time>
      </trkpt>
      <trkpt lat="40.13434410095215" lon="-8.472830057144165">
        <ele>103.91011047363281</ele>
        <time>2020-07-10T09:35:58.368Z</time>
      </trkpt>
      <trkpt lat="40.13427972793579" lon="-8.473044633865356">
        <ele>103.60847473144531</ele>
        <time>2020-07-10T09:36:02.846Z</time>
      </trkpt>
      <trkpt lat="40.13425827026367" lon="-8.473881483078003">
        <ele>103.4900894165039</ele>
        <time>2020-07-10T09:36:07.350Z</time>
      </trkpt>
      <trkpt lat="40.13432264328003" lon="-8.474010229110718">
        <ele>103.10391998291016</ele>
        <time>2020-07-10T09:36:11.859Z</time>
      </trkpt>
      <trkpt lat="40.13430126942694" lon="-8.474106788635254">
        <ele>102.89785766601562</ele>
        <time>2020-07-10T09:36:16.371Z</time>
      </trkpt>
      <trkpt lat="40.13414025306702" lon="-8.474149703979492">
        <ele>102.98806762695312</ele>
        <time>2020-07-10T09:36:20.889Z</time>
      </trkpt>
      <trkpt lat="40.13408660888672" lon="-8.474010229110718">
        <ele>103.37677001953125</ele>
        <time>2020-07-10T09:36:25.412Z</time>
      </trkpt>
      <trkpt lat="40.133957862854004" lon="-8.473988771438599">
        <ele>103.22230529785156</ele>
        <time>2020-07-10T09:36:29.940Z</time>
      </trkpt>
      <trkpt lat="40.13373255729675" lon="-8.473795652389526">
        <ele>102.7599105834961</ele>
        <time>2020-07-10T09:36:34.479Z</time>
      </trkpt>
      <trkpt lat="40.13351798057556" lon="-8.473430871963501">
        <ele>102.23770904541016</ele>
        <time>2020-07-10T09:36:39.032Z</time>
      </trkpt>
      <trkpt lat="40.13336777687073" lon="-8.472905158996582">
        <ele>103.15205383300781</ele>
        <time>2020-07-10T09:36:43.602Z</time>
      </trkpt>
      <trkpt lat="40.13357162475586" lon="-8.472003936767578">
        <ele>105.33708190917969</ele>
        <time>2020-07-10T09:36:48.201Z</time>
      </trkpt>
      <trkpt lat="40.133163928985596" lon="-8.472025394439697">
        <ele>104.79644012451172</ele>
        <time>2020-07-10T09:36:52.816Z</time>
      </trkpt>
      <trkpt lat="40.13316401280463" lon="-8.472025394439697">
        <ele>104.79653930664062</ele>
        <time>2020-07-10T09:36:57.431Z</time>
      </trkpt>
      <trkpt lat="40.13159760273993" lon="-8.472046852111816">
        <ele>103.73760223388672</ele>
        <time>2020-07-10T09:37:02.109Z</time>
      </trkpt>
      <trkpt lat="40.13132929801941" lon="-8.47196102142334">
        <ele>103.84058380126953</ele>
        <time>2020-07-10T09:37:06.798Z</time>
      </trkpt>
      <trkpt lat="40.13107180595398" lon="-8.471682071685791">
        <ele>103.0384521484375</ele>
        <time>2020-07-10T09:37:11.500Z</time>
      </trkpt>
      <trkpt lat="40.13088941574097" lon="-8.471682071685791">
        <ele>102.16312408447266</ele>
        <time>2020-07-10T09:37:16.210Z</time>
      </trkpt>
      <trkpt lat="40.13066419400275" lon="-8.471778631210327">
        <ele>101.08223724365234</ele>
        <time>2020-07-10T09:37:20.929Z</time>
      </trkpt>
      <trkpt lat="40.13062119483948" lon="-8.471832275390625">
        <ele>100.85113525390625</ele>
        <time>2020-07-10T09:37:25.651Z</time>
      </trkpt>
      <trkpt lat="40.12962341308594" lon="-8.47095251083374">
        <ele>96.42657470703125</ele>
        <time>2020-07-10T09:37:30.421Z</time>
      </trkpt>
      <trkpt lat="40.12879737652838" lon="-8.470909595489502">
        <ele>90.78717803955078</ele>
        <time>2020-07-10T09:37:35.224Z</time>
      </trkpt>
      <trkpt lat="40.12863636016846" lon="-8.47121000289917">
        <ele>88.3833999633789</ele>
        <time>2020-07-10T09:37:40.038Z</time>
      </trkpt>
      <trkpt lat="40.1285719871521" lon="-8.471671342849731">
        <ele>85.46134948730469</ele>
        <time>2020-07-10T09:37:44.866Z</time>
      </trkpt>
      <trkpt lat="40.12833595275879" lon="-8.472068309783936">
        <ele>83.37798309326172</ele>
        <time>2020-07-10T09:37:49.710Z</time>
      </trkpt>
      <trkpt lat="40.12758501805365" lon="-8.474750518798828">
        <ele>71.7034683227539</ele>
        <time>2020-07-10T09:37:54.641Z</time>
      </trkpt>
      <trkpt lat="40.12758493423462" lon="-8.474750518798828">
        <ele>71.70316314697266</ele>
        <time>2020-07-10T09:37:59.572Z</time>
      </trkpt>
      <trkpt lat="40.12739181518555" lon="-8.475083112716675">
        <ele>69.411865234375</ele>
        <time>2020-07-10T09:38:04.516Z</time>
      </trkpt>
      <trkpt lat="40.12704849243164" lon="-8.47545862197876">
        <ele>68.5899887084961</ele>
        <time>2020-07-10T09:38:09.478Z</time>
      </trkpt>
      <trkpt lat="40.12707003392279" lon="-8.476016521453857">
        <ele>67.68482208251953</ele>
        <time>2020-07-10T09:38:14.457Z</time>
      </trkpt>
      <trkpt lat="40.12706995010376" lon="-8.476359844207764">
        <ele>68.93859100341797</ele>
        <time>2020-07-10T09:38:19.447Z</time>
      </trkpt>
      <trkpt lat="40.126909017562866" lon="-8.477014303207397">
        <ele>73.52352142333984</ele>
        <time>2020-07-10T09:38:24.458Z</time>
      </trkpt>
      <trkpt lat="40.126941204071045" lon="-8.477271795272827">
        <ele>74.6192626953125</ele>
        <time>2020-07-10T09:38:29.477Z</time>
      </trkpt>
      <trkpt lat="40.12678027153015" lon="-8.477540016174316">
        <ele>78.15918731689453</ele>
        <time>2020-07-10T09:38:34.506Z</time>
      </trkpt>
      <trkpt lat="40.12637257575989" lon="-8.477400541305542">
        <ele>83.17786407470703</ele>
        <time>2020-07-10T09:38:39.552Z</time>
      </trkpt>
      <trkpt lat="40.12607216835022" lon="-8.4774649143219">
        <ele>86.67266845703125</ele>
        <time>2020-07-10T09:38:44.610Z</time>
      </trkpt>
      <trkpt lat="40.125685930252075" lon="-8.477851152420044">
        <ele>89.46373748779297</ele>
        <time>2020-07-10T09:38:49.688Z</time>
      </trkpt>
      <trkpt lat="40.12438774108887" lon="-8.478012084960938">
        <ele>94.26140594482422</ele>
        <time>2020-07-10T09:38:54.818Z</time>
      </trkpt>
      <trkpt lat="40.1235294342041" lon="-8.477754592895508">
        <ele>98.64808654785156</ele>
        <time>2020-07-10T09:38:59.983Z</time>
      </trkpt>
      <trkpt lat="40.12279987335205" lon="-8.477658033370972">
        <ele>101.8411865234375</ele>
        <time>2020-07-10T09:39:05.178Z</time>
      </trkpt>
      <trkpt lat="40.1225209236145" lon="-8.477518558502197">
        <ele>104.01663208007812</ele>
        <time>2020-07-10T09:39:10.384Z</time>
      </trkpt>
      <trkpt lat="40.12203820981085" lon="-8.477014303207397">
        <ele>106.07889556884766</ele>
        <time>2020-07-10T09:39:15.615Z</time>
      </trkpt>
      <trkpt lat="40.121952379122376" lon="-8.47693920135498">
        <ele>106.13224029541016</ele>
        <time>2020-07-10T09:39:20.850Z</time>
      </trkpt>
      <trkpt lat="40.12131929397583" lon="-8.476520776748657">
        <ele>106.36978912353516</ele>
        <time>2020-07-10T09:39:26.114Z</time>
      </trkpt>
      <trkpt lat="40.12117990292609" lon="-8.4764564037323">
        <ele>106.77310180664062</ele>
        <time>2020-07-10T09:39:31.384Z</time>
      </trkpt>
      <trkpt lat="40.12057900428772" lon="-8.476155996322632">
        <ele>108.02220153808594</ele>
        <time>2020-07-10T09:39:36.679Z</time>
      </trkpt>
      <trkpt lat="40.118712186813354" lon="-8.474578857421875">
        <ele>112.63024139404297</ele>
        <time>2020-07-10T09:39:42.063Z</time>
      </trkpt>
      <trkpt lat="40.11742481030524" lon="-8.473784923553467">
        <ele>106.38594818115234</ele>
        <time>2020-07-10T09:39:47.504Z</time>
      </trkpt>
      <trkpt lat="40.117424726486206" lon="-8.473784923553467">
        <ele>106.38584899902344</ele>
        <time>2020-07-10T09:39:52.945Z</time>
      </trkpt>
      <trkpt lat="40.11656641960144" lon="-8.474181890487671">
        <ele>104.06814575195312</ele>
        <time>2020-07-10T09:39:58.423Z</time>
      </trkpt>
      <trkpt lat="40.115729570388794" lon="-8.474761247634888">
        <ele>103.12887573242188</ele>
        <time>2020-07-10T09:40:03.939Z</time>
      </trkpt>
      <trkpt lat="40.114935636520386" lon="-8.475083112716675">
        <ele>103.69525909423828</ele>
        <time>2020-07-10T09:40:09.488Z</time>
      </trkpt>
      <trkpt lat="40.114249074831605" lon="-8.475823402404785">
        <ele>105.27290344238281</ele>
        <time>2020-07-10T09:40:15.072Z</time>
      </trkpt>
      <trkpt lat="40.11418470181525" lon="-8.476059436798096">
        <ele>105.58130645751953</ele>
        <time>2020-07-10T09:40:20.664Z</time>
      </trkpt>
      <trkpt lat="40.113240564242005" lon="-8.47646713256836">
        <ele>108.33708953857422</ele>
        <time>2020-07-10T09:40:26.296Z</time>
      </trkpt>
      <trkpt lat="40.113015258684754" lon="-8.476778268814087">
        <ele>108.84378814697266</ele>
        <time>2020-07-10T09:40:31.941Z</time>
      </trkpt>
      <trkpt lat="40.112457275390625" lon="-8.477089405059814">
        <ele>109.52330017089844</ele>
        <time>2020-07-10T09:40:37.610Z</time>
      </trkpt>
      <trkpt lat="40.11062264442444" lon="-8.477722406387329">
        <ele>107.3978042602539</ele>
        <time>2020-07-10T09:40:43.355Z</time>
      </trkpt>
      <trkpt lat="40.108959674835205" lon="-8.478280305862427">
        <ele>108.22947692871094</ele>
        <time>2020-07-10T09:40:49.169Z</time>
      </trkpt>
      <trkpt lat="40.10863780975342" lon="-8.478580713272095">
        <ele>108.62678527832031</ele>
        <time>2020-07-10T09:40:54.999Z</time>
      </trkpt>
      <trkpt lat="40.10826230049133" lon="-8.47870945930481">
        <ele>110.4289321899414</ele>
        <time>2020-07-10T09:41:00.844Z</time>
      </trkpt>
      <trkpt lat="40.107983434572816" lon="-8.47894549369812">
        <ele>111.76726531982422</ele>
        <time>2020-07-10T09:41:06.702Z</time>
      </trkpt>
      <trkpt lat="40.10794051922858" lon="-8.478988409042358">
        <ele>111.97322845458984</ele>
        <time>2020-07-10T09:41:12.563Z</time>
      </trkpt>
      <trkpt lat="40.10685682296753" lon="-8.479878902435303">
        <ele>117.95281982421875</ele>
        <time>2020-07-10T09:41:18.475Z</time>
      </trkpt>
      <trkpt lat="40.10653495788574" lon="-8.480544090270996">
        <ele>118.67969512939453</ele>
        <time>2020-07-10T09:41:24.411Z</time>
      </trkpt>
      <trkpt lat="40.106481313705444" lon="-8.48142385482788">
        <ele>119.51397705078125</ele>
        <time>2020-07-10T09:41:30.374Z</time>
      </trkpt>
      <trkpt lat="40.10509737767279" lon="-8.481037616729736">
        <ele>116.53052520751953</ele>
        <time>2020-07-10T09:41:36.394Z</time>
      </trkpt>
      <trkpt lat="40.10485053062439" lon="-8.483011722564697">
        <ele>122.43475341796875</ele>
        <time>2020-07-10T09:41:42.475Z</time>
      </trkpt>
      <trkpt lat="40.10460376739502" lon="-8.484352827072144">
        <ele>123.09435272216797</ele>
        <time>2020-07-10T09:41:48.598Z</time>
      </trkpt>
      <trkpt lat="40.10426044464111" lon="-8.48567247390747">
        <ele>124.5825424194336</ele>
        <time>2020-07-10T09:41:54.764Z</time>
      </trkpt>
      <trkpt lat="40.10380983352661" lon="-8.486112356185913">
        <ele>125.07359313964844</ele>
        <time>2020-07-10T09:42:00.953Z</time>
      </trkpt>
      <trkpt lat="40.10362752713263" lon="-8.486616611480713">
        <ele>125.98228454589844</ele>
        <time>2020-07-10T09:42:07.159Z</time>
      </trkpt>
      <trkpt lat="40.103209018707275" lon="-8.487657308578491">
        <ele>123.03270721435547</ele>
        <time>2020-07-10T09:42:13.401Z</time>
      </trkpt>
      <trkpt lat="40.102962255477905" lon="-8.487550020217896">
        <ele>123.23822021484375</ele>
        <time>2020-07-10T09:42:19.653Z</time>
      </trkpt>
      <trkpt lat="40.102940797805786" lon="-8.48767876625061">
        <ele>123.0</ele>
        <time>2020-07-10T09:42:25.909Z</time>
      </trkpt>
      <trkpt lat="40.10232933796942" lon="-8.488633632659912">
        <ele>121.05914306640625</ele>
        <time>2020-07-10T09:42:32.203Z</time>
      </trkpt>
      <trkpt lat="40.102254152297974" lon="-8.488805294036865">
        <ele>120.26084899902344</ele>
        <time>2020-07-10T09:42:38.503Z</time>
      </trkpt>
      <trkpt lat="40.102232694625854" lon="-8.489041328430176">
        <ele>119.35977935791016</ele>
        <time>2020-07-10T09:42:44.811Z</time>
      </trkpt>
      <trkpt lat="40.101943016052246" lon="-8.489212989807129">
        <ele>118.42501068115234</ele>
        <time>2020-07-10T09:42:51.131Z</time>
      </trkpt>
      <trkpt lat="40.10194309987128" lon="-8.489212989807129">
        <ele>118.42501068115234</ele>
        <time>2020-07-10T09:42:57.451Z</time>
      </trkpt>
      <trkpt lat="40.1018036250025" lon="-8.48943829536438">
        <ele>117.7426986694336</ele>
        <time>2020-07-10T09:43:03.780Z</time>
      </trkpt>
      <trkpt lat="40.10079503059387" lon="-8.490961790084839">
        <ele>110.47444915771484</ele>
        <time>2020-07-10T09:43:10.171Z</time>
      </trkpt>
      <trkpt lat="40.100194215774536" lon="-8.491766452789307">
        <ele>109.9219741821289</ele>
        <time>2020-07-10T09:43:16.597Z</time>
      </trkpt>
      <trkpt lat="40.099990367889404" lon="-8.491863012313843">
        <ele>109.88652038574219</ele>
        <time>2020-07-10T09:43:23.031Z</time>
      </trkpt>
      <trkpt lat="40.09965777397156" lon="-8.492077589035034">
        <ele>109.11417388916016</ele>
        <time>2020-07-10T09:43:29.480Z</time>
      </trkpt>
      <trkpt lat="40.09956129826605" lon="-8.492292165756226">
        <ele>108.43521881103516</ele>
        <time>2020-07-10T09:43:35.937Z</time>
      </trkpt>
      <trkpt lat="40.09980797767639" lon="-8.492560386657715">
        <ele>107.87162017822266</ele>
        <time>2020-07-10T09:43:42.407Z</time>
      </trkpt>
      <trkpt lat="40.09980797767639" lon="-8.492807149887085">
        <ele>107.99707794189453</ele>
        <time>2020-07-10T09:43:48.884Z</time>
      </trkpt>
      <trkpt lat="40.099711418151855" lon="-8.493053913116455">
        <ele>107.5336685180664</ele>
        <time>2020-07-10T09:43:55.370Z</time>
      </trkpt>
      <trkpt lat="40.09967923164368" lon="-8.493332862854004">
        <ele>107.37920379638672</ele>
        <time>2020-07-10T09:44:01.864Z</time>
      </trkpt>
      <trkpt lat="40.09978652000427" lon="-8.493568897247314">
        <ele>107.50148010253906</ele>
        <time>2020-07-10T09:44:08.367Z</time>
      </trkpt>
      <trkpt lat="40.10003328323364" lon="-8.493762016296387">
        <ele>107.92626953125</ele>
        <time>2020-07-10T09:44:14.881Z</time>
      </trkpt>
      <trkpt lat="40.10035514831543" lon="-8.493558168411255">
        <ele>109.57394409179688</ele>
        <time>2020-07-10T09:44:21.409Z</time>
      </trkpt>
      <trkpt lat="40.10040879249573" lon="-8.493590354919434">
        <ele>109.77021789550781</ele>
        <time>2020-07-10T09:44:27.940Z</time>
      </trkpt>
      <trkpt lat="40.100698471069336" lon="-8.494062423706055">
        <ele>109.95868682861328</ele>
        <time>2020-07-10T09:44:34.489Z</time>
      </trkpt>
      <trkpt lat="40.10102033615112" lon="-8.494319915771484">
        <ele>110.4220962524414</ele>
        <time>2020-07-10T09:44:41.053Z</time>
      </trkpt>
      <trkpt lat="40.101234912872314" lon="-8.494877815246582">
        <ele>110.19023895263672</ele>
        <time>2020-07-10T09:44:47.637Z</time>
      </trkpt>
      <trkpt lat="40.101449489593506" lon="-8.495017290115356">
        <ele>110.83393859863281</ele>
        <time>2020-07-10T09:44:54.230Z</time>
      </trkpt>
      <trkpt lat="40.1015567779541" lon="-8.49492073059082">
        <ele>111.33596801757812</ele>
        <time>2020-07-10T09:45:00.828Z</time>
      </trkpt>
      <trkpt lat="40.10157221518287" lon="-8.494852806784671">
        <ele>111.4730224609375</ele>
        <time>2020-07-10T09:45:07.429Z</time>
      </trkpt>
      <trkpt lat="40.10157228447497" lon="-8.494852501899004">
        <ele>111.47364044189453</ele>
        <time>2020-07-10T09:45:14.030Z</time>
      </trkpt>
      <trkpt lat="40.10157689452171" lon="-8.494854010641575">
        <ele>111.4884262084961</ele>
        <time>2020-07-10T09:45:20.631Z</time>
      </trkpt>
      <trkpt lat="40.10148335248232" lon="-8.494904637336731">
        <ele>111.09098815917969</ele>
        <time>2020-07-10T09:45:27.236Z</time>
      </trkpt>
      <trkpt lat="40.101441694423556" lon="-8.494905894622207">
        <ele>110.93952941894531</ele>
        <time>2020-07-10T09:45:33.843Z</time>
      </trkpt>
      <trkpt lat="40.10129727423191" lon="-8.494844119995832">
        <ele>110.49382781982422</ele>
        <time>2020-07-10T09:45:40.456Z</time>
      </trkpt>
      <trkpt lat="40.10116492398083" lon="-8.494706908240914">
        <ele>110.05940246582031</ele>
        <time>2020-07-10T09:45:47.075Z</time>
      </trkpt>
      <trkpt lat="40.101051768288016" lon="-8.494322765618563">
        <ele>110.49410247802734</ele>
        <time>2020-07-10T09:45:53.707Z</time>
      </trkpt>
      <trkpt lat="40.10095361620188" lon="-8.494220087304711">
        <ele>110.38176727294922</ele>
        <time>2020-07-10T09:46:00.344Z</time>
      </trkpt>
      <trkpt lat="40.10072403587401" lon="-8.49405781365931">
        <ele>110.02556610107422</ele>
        <time>2020-07-10T09:46:06.991Z</time>
      </trkpt>
      <trkpt lat="40.10040409862995" lon="-8.493555653840303">
        <ele>109.7893295288086</ele>
        <time>2020-07-10T09:46:13.659Z</time>
      </trkpt>
      <trkpt lat="40.100304521620274" lon="-8.493566969409585">
        <ele>109.37059783935547</ele>
        <time>2020-07-10T09:46:20.331Z</time>
      </trkpt>
      <trkpt lat="40.10011089965701" lon="-8.493714155629277">
        <ele>108.32048797607422</ele>
        <time>2020-07-10T09:46:27.011Z</time>
      </trkpt>
      <trkpt lat="40.10002532042563" lon="-8.49375237710774">
        <ele>107.92073822021484</ele>
        <time>2020-07-10T09:46:33.695Z</time>
      </trkpt>
      <trkpt lat="40.09993588551879" lon="-8.4937181789428">
        <ele>107.68089294433594</ele>
        <time>2020-07-10T09:46:40.383Z</time>
      </trkpt>
      <trkpt lat="40.099741676822305" lon="-8.493487006053329">
        <ele>107.52287292480469</ele>
        <time>2020-07-10T09:46:47.081Z</time>
      </trkpt>
      <trkpt lat="40.09968241676688" lon="-8.493330180644989">
        <ele>107.39448547363281</ele>
        <time>2020-07-10T09:46:53.785Z</time>
      </trkpt>
      <trkpt lat="40.09968216530979" lon="-8.493125326931477">
        <ele>107.39328002929688</ele>
        <time>2020-07-10T09:47:00.495Z</time>
      </trkpt>
      <trkpt lat="40.099806720390916" lon="-8.492781417444348">
        <ele>107.99104309082031</ele>
        <time>2020-07-10T09:47:07.217Z</time>
      </trkpt>
      <trkpt lat="40.09981535375118" lon="-8.492565918713808">
        <ele>107.91365051269531</ele>
        <time>2020-07-10T09:47:13.945Z</time>
      </trkpt>
      <trkpt lat="40.09976296685636" lon="-8.492460306733847">
        <ele>107.73661804199219</ele>
        <time>2020-07-10T09:47:20.677Z</time>
      </trkpt>
      <trkpt lat="40.0996211450547" lon="-8.492366261780262">
        <ele>108.07511901855469</ele>
        <time>2020-07-10T09:47:27.415Z</time>
      </trkpt>
      <trkpt lat="40.09955132380128" lon="-8.492300631478429">
        <ele>108.42868041992188</ele>
        <time>2020-07-10T09:47:34.157Z</time>
      </trkpt>
      <trkpt lat="40.099490052089095" lon="-8.49218881689012">
        <ele>108.9781723022461</ele>
        <time>2020-07-10T09:47:40.903Z</time>
      </trkpt>
      <trkpt lat="40.09946406818926" lon="-8.492081025615335">
        <ele>109.42850494384766</ele>
        <time>2020-07-10T09:47:47.653Z</time>
      </trkpt>
      <trkpt lat="40.0993135292083" lon="-8.491946998983622">
        <ele>110.06678009033203</ele>
        <time>2020-07-10T09:47:54.410Z</time>
      </trkpt>
      <trkpt lat="40.098972637206316" lon="-8.491850020363927">
        <ele>110.70849609375</ele>
        <time>2020-07-10T09:48:01.181Z</time>
      </trkpt>
      <trkpt lat="40.09864943102002" lon="-8.491841135546565">
        <ele>110.06283569335938</ele>
        <time>2020-07-10T09:48:07.965Z</time>
      </trkpt>
      <trkpt lat="40.09858153760433" lon="-8.491864269599319">
        <ele>109.35203552246094</ele>
        <time>2020-07-10T09:48:14.752Z</time>
      </trkpt>
      <trkpt lat="40.09860349819064" lon="-8.492383360862732">
        <ele>107.32534790039062</ele>
        <time>2020-07-10T09:48:21.555Z</time>
      </trkpt>
      <trkpt lat="40.09852294810116" lon="-8.492396855726838">
        <ele>106.13323211669922</ele>
        <time>2020-07-10T09:48:28.361Z</time>
      </trkpt>
      <trkpt lat="40.09842555038631" lon="-8.492189403623343">
        <ele>105.22874450683594</ele>
        <time>2020-07-10T09:48:35.174Z</time>
      </trkpt>
      <trkpt lat="40.09827945381403" lon="-8.49200114607811">
        <ele>105.86360168457031</ele>
        <time>2020-07-10T09:48:41.995Z</time>
      </trkpt>
      <trkpt lat="40.09805037640035" lon="-8.49165036343038">
        <ele>107.17308807373047</ele>
        <time>2020-07-10T09:48:48.831Z</time>
      </trkpt>
      <trkpt lat="40.09791945107281" lon="-8.491373676806688">
        <ele>110.57569885253906</ele>
        <time>2020-07-10T09:48:55.677Z</time>
      </trkpt>
      <trkpt lat="40.097790118306875" lon="-8.491427907720208">
        <ele>110.70089721679688</ele>
        <time>2020-07-10T09:49:02.528Z</time>
      </trkpt>
      <trkpt lat="40.09772599674761" lon="-8.491555815562606">
        <ele>109.5509262084961</ele>
        <time>2020-07-10T09:49:09.384Z</time>
      </trkpt>
      <trkpt lat="40.0977040361613" lon="-8.491652878001332">
        <ele>108.51811218261719</ele>
        <time>2020-07-10T09:49:16.243Z</time>
      </trkpt>
      <trkpt lat="40.09775902144611" lon="-8.491886900737882">
        <ele>105.64640808105469</ele>
        <time>2020-07-10T09:49:23.109Z</time>
      </trkpt>
      <trkpt lat="40.09777796454728" lon="-8.492171885445714">
        <ele>103.03707122802734</ele>
        <time>2020-07-10T09:49:29.984Z</time>
      </trkpt>
      <trkpt lat="40.09766195900738" lon="-8.492418816313148">
        <ele>101.6412124633789</ele>
        <time>2020-07-10T09:49:36.868Z</time>
      </trkpt>
      <trkpt lat="40.09753438644111" lon="-8.492505988106132">
        <ele>101.87593841552734</ele>
        <time>2020-07-10T09:49:43.758Z</time>
      </trkpt>
      <trkpt lat="40.09665185585618" lon="-8.492842521518469">
        <ele>108.95803833007812</ele>
        <time>2020-07-10T09:49:50.685Z</time>
      </trkpt>
      <trkpt lat="40.096001168712974" lon="-8.49299943074584">
        <ele>115.09972381591797</ele>
        <time>2020-07-10T09:49:57.638Z</time>
      </trkpt>
      <trkpt lat="40.09590729139745" lon="-8.492505988106132">
        <ele>119.63691711425781</ele>
        <time>2020-07-10T09:50:04.607Z</time>
      </trkpt>
      <trkpt lat="40.095804780721664" lon="-8.492334829643369">
        <ele>120.82621002197266</ele>
        <time>2020-07-10T09:50:11.582Z</time>
      </trkpt>
      <trkpt lat="40.095743173733354" lon="-8.492143722251058">
        <ele>121.6468276977539</ele>
        <time>2020-07-10T09:50:18.564Z</time>
      </trkpt>
      <trkpt lat="40.09563345462084" lon="-8.492015395313501">
        <ele>122.85392761230469</ele>
        <time>2020-07-10T09:50:25.551Z</time>
      </trkpt>
      <trkpt lat="40.09548727422953" lon="-8.4919498488307">
        <ele>124.33566284179688</ele>
        <time>2020-07-10T09:50:32.545Z</time>
      </trkpt>
      <trkpt lat="40.09538912214339" lon="-8.491944149136543">
        <ele>125.07471466064453</ele>
        <time>2020-07-10T09:50:39.543Z</time>
      </trkpt>
      <trkpt lat="40.095269177109" lon="-8.491867119446397">
        <ele>126.81816864013672</ele>
        <time>2020-07-10T09:50:46.546Z</time>
      </trkpt>
      <trkpt lat="40.09518401697278" lon="-8.491761591285467">
        <ele>128.3679962158203</ele>
        <time>2020-07-10T09:50:53.554Z</time>
      </trkpt>
      <trkpt lat="40.094938930124044" lon="-8.491311902180314">
        <ele>131.7101287841797</ele>
        <time>2020-07-10T09:51:00.579Z</time>
      </trkpt>
      <trkpt lat="40.0946459826082" lon="-8.491152813658118">
        <ele>134.68255615234375</ele>
        <time>2020-07-10T09:51:07.616Z</time>
      </trkpt>
      <trkpt lat="40.09435295127332" lon="-8.491146778687835">
        <ele>137.18687438964844</ele>
        <time>2020-07-10T09:51:14.665Z</time>
      </trkpt>
      <trkpt lat="40.09419503621757" lon="-8.491019876673818">
        <ele>138.8548583984375</ele>
        <time>2020-07-10T09:51:21.721Z</time>
      </trkpt>
      <trkpt lat="40.093907034024596" lon="-8.491138899698853">
        <ele>141.47642517089844</ele>
        <time>2020-07-10T09:51:28.789Z</time>
      </trkpt>
      <trkpt lat="40.09366395883262" lon="-8.491000765934587">
        <ele>143.97198486328125</ele>
        <time>2020-07-10T09:51:35.868Z</time>
      </trkpt>
      <trkpt lat="40.0934389885515" lon="-8.490845868363976">
        <ele>145.59031677246094</ele>
        <time>2020-07-10T09:51:42.957Z</time>
      </trkpt>
      <trkpt lat="40.09280255064368" lon="-8.489958979189396">
        <ele>151.98663330078125</ele>
        <time>2020-07-10T09:51:50.084Z</time>
      </trkpt>
      <trkpt lat="40.09257095865905" lon="-8.489829814061522">
        <ele>154.67445373535156</ele>
        <time>2020-07-10T09:51:57.221Z</time>
      </trkpt>
      <trkpt lat="40.092203579843044" lon="-8.489750772714615">
        <ele>159.22705078125</ele>
        <time>2020-07-10T09:52:04.372Z</time>
      </trkpt>
      <trkpt lat="40.09212722070515" lon="-8.48970802500844">
        <ele>160.399658203125</ele>
        <time>2020-07-10T09:52:11.527Z</time>
      </trkpt>
      <trkpt lat="40.09187794290483" lon="-8.489229837432504">
        <ele>164.30364990234375</ele>
        <time>2020-07-10T09:52:18.700Z</time>
      </trkpt>
      <trkpt lat="40.09139992296696" lon="-8.48864478059113">
        <ele>168.00167846679688</ele>
        <time>2020-07-10T09:52:25.899Z</time>
      </trkpt>
      <trkpt lat="40.091323144733906" lon="-8.488267678767443">
        <ele>165.8956298828125</ele>
        <time>2020-07-10T09:52:33.110Z</time>
      </trkpt>
      <trkpt lat="40.09110446088016" lon="-8.487725788727403">
        <ele>160.36473083496094</ele>
        <time>2020-07-10T09:52:40.340Z</time>
      </trkpt>
      <trkpt lat="40.09095383808017" lon="-8.487631659954786">
        <ele>159.7556610107422</ele>
        <time>2020-07-10T09:52:47.576Z</time>
      </trkpt>
      <trkpt lat="40.090647395700216" lon="-8.487494783475995">
        <ele>158.1060791015625</ele>
        <time>2020-07-10T09:52:54.825Z</time>
      </trkpt>
      <trkpt lat="40.090341875329614" lon="-8.487317925319076">
        <ele>155.05165100097656</ele>
        <time>2020-07-10T09:53:02.088Z</time>
      </trkpt>
      <trkpt lat="40.089957397431135" lon="-8.487283308058977">
        <ele>159.15945434570312</ele>
        <time>2020-07-10T09:53:09.366Z</time>
      </trkpt>
      <trkpt lat="40.08874403312802" lon="-8.486564978957176">
        <ele>156.60243225097656</ele>
        <time>2020-07-10T09:53:16.697Z</time>
      </trkpt>
      <trkpt lat="40.08846919052303" lon="-8.48636532202363">
        <ele>154.1508331298828</ele>
        <time>2020-07-10T09:53:24.041Z</time>
      </trkpt>
      <trkpt lat="40.0881892349571" lon="-8.486248394474387">
        <ele>152.9743194580078</ele>
        <time>2020-07-10T09:53:31.397Z</time>
      </trkpt>
      <trkpt lat="40.08774742484093" lon="-8.486143285408616">
        <ele>153.82069396972656</ele>
        <time>2020-07-10T09:53:38.770Z</time>
      </trkpt>
      <trkpt lat="40.08732195943594" lon="-8.485817648470402">
        <ele>157.7564239501953</ele>
        <time>2020-07-10T09:53:46.163Z</time>
      </trkpt>
      <trkpt lat="40.086720725521445" lon="-8.485153131186962">
        <ele>153.1506805419922</ele>
        <time>2020-07-10T09:53:53.588Z</time>
      </trkpt>
      <trkpt lat="40.08651562035084" lon="-8.484699670225382">
        <ele>152.72283935546875</ele>
        <time>2020-07-10T09:54:01.029Z</time>
      </trkpt>
      <trkpt lat="40.086251087486744" lon="-8.484240425750613">
        <ele>143.91102600097656</ele>
        <time>2020-07-10T09:54:08.488Z</time>
      </trkpt>
      <trkpt lat="40.0861288793385" lon="-8.483943790197372">
        <ele>145.56654357910156</ele>
        <time>2020-07-10T09:54:15.957Z</time>
      </trkpt>
      <trkpt lat="40.08598915301263" lon="-8.483672887086868">
        <ele>146.3560333251953</ele>
        <time>2020-07-10T09:54:23.436Z</time>
      </trkpt>
      <trkpt lat="40.08582277223468" lon="-8.483441798016429">
        <ele>145.10134887695312</ele>
        <time>2020-07-10T09:54:30.925Z</time>
      </trkpt>
      <trkpt lat="40.08554139174521" lon="-8.483330570161343">
        <ele>147.4634552001953</ele>
        <time>2020-07-10T09:54:38.425Z</time>
      </trkpt>
      <trkpt lat="40.08530946448445" lon="-8.483313471078873">
        <ele>145.40921020507812</ele>
        <time>2020-07-10T09:54:45.935Z</time>
      </trkpt>
      <trkpt lat="40.08468199521303" lon="-8.483335180208087">
        <ele>144.57249450683594</ele>
        <time>2020-07-10T09:54:53.470Z</time>
      </trkpt>
      <trkpt lat="40.08449926972389" lon="-8.483392763882875">
        <ele>144.79396057128906</ele>
        <time>2020-07-10T09:55:01.012Z</time>
      </trkpt>
      <trkpt lat="40.084322495386004" lon="-8.483594935387373">
        <ele>146.1966094970703</ele>
        <time>2020-07-10T09:55:08.564Z</time>
      </trkpt>
      <trkpt lat="40.08411856368184" lon="-8.483918141573668">
        <ele>148.6063690185547</ele>
        <time>2020-07-10T09:55:16.128Z</time>
      </trkpt>
      <trkpt lat="40.08380156010389" lon="-8.484308905899525">
        <ele>151.2428741455078</ele>
        <time>2020-07-10T09:55:23.710Z</time>
      </trkpt>
      <trkpt lat="40.08359427563846" lon="-8.484497163444757">
        <ele>154.76885986328125</ele>
        <time>2020-07-10T09:55:31.302Z</time>
      </trkpt>
      <trkpt lat="40.08340015076101" lon="-8.484504874795675">
        <ele>152.70806884765625</ele>
        <time>2020-07-10T09:55:38.902Z</time>
      </trkpt>
      <trkpt lat="40.08325765840709" lon="-8.48440588451922">
        <ele>147.5541534423828</ele>
        <time>2020-07-10T09:55:46.508Z</time>
      </trkpt>
      <trkpt lat="40.083099994808435" lon="-8.484240425750613">
        <ele>141.95278930664062</ele>
        <time>2020-07-10T09:55:54.122Z</time>
      </trkpt>
      <trkpt lat="40.082912323996425" lon="-8.483852511271834">
        <ele>143.4033660888672</ele>
        <time>2020-07-10T09:56:01.750Z</time>
      </trkpt>
      <trkpt lat="40.08269799873233" lon="-8.483641538769007">
        <ele>144.7513885498047</ele>
        <time>2020-07-10T09:56:09.389Z</time>
      </trkpt>
      <trkpt lat="40.082556093111634" lon="-8.48342184908688">
        <ele>144.550048828125</ele>
        <time>2020-07-10T09:56:17.037Z</time>
      </trkpt>
      <trkpt lat="40.082228779792786" lon="-8.482711650431156">
        <ele>145.565673828125</ele>
        <time>2020-07-10T09:56:24.710Z</time>
      </trkpt>
      <trkpt lat="40.08191772736609" lon="-8.48221829161048">
        <ele>149.12623596191406</ele>
        <time>2020-07-10T09:56:32.403Z</time>
      </trkpt>
      <trkpt lat="40.08174539543688" lon="-8.48200723528862">
        <ele>150.6689910888672</ele>
        <time>2020-07-10T09:56:40.105Z</time>
      </trkpt>
      <trkpt lat="40.08131925947964" lon="-8.480923371389508">
        <ele>139.62054443359375</ele>
        <time>2020-07-10T09:56:47.845Z</time>
      </trkpt>
      <trkpt lat="40.08100996725261" lon="-8.480077804997563">
        <ele>139.55615234375</ele>
        <time>2020-07-10T09:56:55.614Z</time>
      </trkpt>
      <trkpt lat="40.08078591898084" lon="-8.479753760620952">
        <ele>143.28872680664062</ele>
        <time>2020-07-10T09:57:03.396Z</time>
      </trkpt>
      <trkpt lat="40.08044209331274" lon="-8.479414628818631">
        <ele>137.9766387939453</ele>
        <time>2020-07-10T09:57:11.195Z</time>
      </trkpt>
      <trkpt lat="40.08020639419556" lon="-8.47931195050478">
        <ele>139.66616821289062</ele>
        <time>2020-07-10T09:57:19.004Z</time>
      </trkpt>
      <trkpt lat="40.0798827689141" lon="-8.479209272190928">
        <ele>143.4258270263672</ele>
        <time>2020-07-10T09:57:26.827Z</time>
      </trkpt>
      <trkpt lat="40.079649249091744" lon="-8.479106593877077">
        <ele>143.8549346923828</ele>
        <time>2020-07-10T09:57:34.659Z</time>
      </trkpt>
      <trkpt lat="40.07881105877459" lon="-8.478569900617003">
        <ele>143.1420440673828</ele>
        <time>2020-07-10T09:57:42.529Z</time>
      </trkpt>
      <trkpt lat="40.07842557504773" lon="-8.47824233584106">
        <ele>145.25448608398438</ele>
        <time>2020-07-10T09:57:50.417Z</time>
      </trkpt>
      <trkpt lat="40.07837318815291" lon="-8.478096909821033">
        <ele>145.15040588378906</ele>
        <time>2020-07-10T09:57:58.310Z</time>
      </trkpt>
      <trkpt lat="40.07834695279598" lon="-8.477922901511192">
        <ele>142.3108673095703</ele>
        <time>2020-07-10T09:58:06.208Z</time>
      </trkpt>
      <trkpt lat="40.07838995195925" lon="-8.477815864607692">
        <ele>139.9213104248047</ele>
        <time>2020-07-10T09:58:14.110Z</time>
      </trkpt>
      <trkpt lat="40.07866102270782" lon="-8.477670857682824">
        <ele>135.66273498535156</ele>
        <time>2020-07-10T09:58:22.024Z</time>
      </trkpt>
      <trkpt lat="40.07869002409279" lon="-8.477614866569638">
        <ele>135.4093017578125</ele>
        <time>2020-07-10T09:58:29.940Z</time>
      </trkpt>
      <trkpt lat="40.07868692278862" lon="-8.477487796917558">
        <ele>135.57664489746094</ele>
        <time>2020-07-10T09:58:37.860Z</time>
      </trkpt>
      <trkpt lat="40.078630931675434" lon="-8.477305909618735">
        <ele>136.06358337402344</ele>
        <time>2020-07-10T09:58:45.786Z</time>
      </trkpt>
      <trkpt lat="40.07856094278395" lon="-8.477220749482512">
        <ele>136.50164794921875</ele>
        <time>2020-07-10T09:58:53.716Z</time>
      </trkpt>
      <trkpt lat="40.07820404134691" lon="-8.47703986801207">
        <ele>137.1771697998047</ele>
        <time>2020-07-10T09:59:01.661Z</time>
      </trkpt>
      <trkpt lat="40.077824257314205" lon="-8.476790590211749">
        <ele>137.34573364257812</ele>
        <time>2020-07-10T09:59:09.623Z</time>
      </trkpt>
      <trkpt lat="40.077645387500525" lon="-8.476639464497566">
        <ele>138.13758850097656</ele>
        <time>2020-07-10T09:59:17.594Z</time>
      </trkpt>
      <trkpt lat="40.07772828452289" lon="-8.47649403847754">
        <ele>138.28762817382812</ele>
        <time>2020-07-10T09:59:25.570Z</time>
      </trkpt>
      <trkpt lat="40.07758696563542" lon="-8.476181896403432">
        <ele>138.43637084960938</ele>
        <time>2020-07-10T09:59:33.557Z</time>
      </trkpt>
      <trkpt lat="40.07742293179035" lon="-8.475883919745684">
        <ele>137.5767364501953</ele>
        <time>2020-07-10T09:59:41.555Z</time>
      </trkpt>
      <trkpt lat="40.07720994763076" lon="-8.475606897845864">
        <ele>136.81692504882812</ele>
        <time>2020-07-10T09:59:49.566Z</time>
      </trkpt>
      <trkpt lat="40.077082039788365" lon="-8.475507823750377">
        <ele>135.9653778076172</ele>
        <time>2020-07-10T09:59:57.582Z</time>
      </trkpt>
      <trkpt lat="40.07688422687352" lon="-8.475432973355055">
        <ele>135.49070739746094</ele>
        <time>2020-07-10T10:00:05.607Z</time>
      </trkpt>
      <trkpt lat="40.076551884412766" lon="-8.475421154871583">
        <ele>135.37823486328125</ele>
        <time>2020-07-10T10:00:13.645Z</time>
      </trkpt>
      <trkpt lat="40.0764084700495" lon="-8.47554705105722">
        <ele>135.0761260986328</ele>
        <time>2020-07-10T10:00:21.690Z</time>
      </trkpt>
      <trkpt lat="40.07621786557138" lon="-8.475544536486268">
        <ele>135.40704345703125</ele>
        <time>2020-07-10T10:00:29.743Z</time>
      </trkpt>
      <trkpt lat="40.0761132594198" lon="-8.475447306409478">
        <ele>136.39340209960938</ele>
        <time>2020-07-10T10:00:37.801Z</time>
      </trkpt>
      <trkpt lat="40.07597898133099" lon="-8.475257875397801">
        <ele>136.0083770751953</ele>
        <time>2020-07-10T10:00:45.867Z</time>
      </trkpt>
      <trkpt lat="40.07569491863251" lon="-8.475229879841208">
        <ele>135.12521362304688</ele>
        <time>2020-07-10T10:00:53.944Z</time>
      </trkpt>
      <trkpt lat="40.074929064139724" lon="-8.474741885438561">
        <ele>137.68634033203125</ele>
        <time>2020-07-10T10:01:02.055Z</time>
      </trkpt>
      <trkpt lat="40.07481507025659" lon="-8.474713889881968">
        <ele>137.17526245117188</ele>
        <time>2020-07-10T10:01:10.171Z</time>
      </trkpt>
      <trkpt lat="40.07450292818248" lon="-8.474531834945083">
        <ele>136.40200805664062</ele>
        <time>2020-07-10T10:01:18.300Z</time>
      </trkpt>
      <trkpt lat="40.074312994256616" lon="-8.47439386881888">
        <ele>136.48892211914062</ele>
        <time>2020-07-10T10:01:26.438Z</time>
      </trkpt>
      <trkpt lat="40.07371502928436" lon="-8.474281886592507">
        <ele>138.05496215820312</ele>
        <time>2020-07-10T10:01:34.600Z</time>
      </trkpt>
      <trkpt lat="40.07318981923163" lon="-8.47377821803093">
        <ele>137.93841552734375</ele>
        <time>2020-07-10T10:01:42.788Z</time>
      </trkpt>
      <trkpt lat="40.073135839775205" lon="-8.473701775074005">
        <ele>137.74411010742188</ele>
        <time>2020-07-10T10:01:50.979Z</time>
      </trkpt>
      <trkpt lat="40.07302452810109" lon="-8.47367319278419">
        <ele>137.3434600830078</ele>
        <time>2020-07-10T10:01:59.175Z</time>
      </trkpt>
      <trkpt lat="40.07264692336321" lon="-8.47332525998354">
        <ele>137.9498748779297</ele>
        <time>2020-07-10T10:02:07.390Z</time>
      </trkpt>
      <trkpt lat="40.072424383834004" lon="-8.47325392998755">
        <ele>138.47361755371094</ele>
        <time>2020-07-10T10:02:15.614Z</time>
      </trkpt>
      <trkpt lat="40.072363279759884" lon="-8.473188383504748">
        <ele>138.59536743164062</ele>
        <time>2020-07-10T10:02:23.841Z</time>
      </trkpt>
      <trkpt lat="40.07233268581331" lon="-8.473117053508759">
        <ele>138.39967346191406</ele>
        <time>2020-07-10T10:02:32.070Z</time>
      </trkpt>
      <trkpt lat="40.072321789339185" lon="-8.472806168720126">
        <ele>137.98744201660156</ele>
        <time>2020-07-10T10:02:40.309Z</time>
      </trkpt>
      <trkpt lat="40.07224048487842" lon="-8.472643559798598">
        <ele>137.5430450439453</ele>
        <time>2020-07-10T10:02:48.554Z</time>
      </trkpt>
      <trkpt lat="40.07212037220597" lon="-8.472446836531162">
        <ele>137.57476806640625</ele>
        <time>2020-07-10T10:02:56.807Z</time>
      </trkpt>
      <trkpt lat="40.072009060531855" lon="-8.47230987623334">
        <ele>137.9479217529297</ele>
        <time>2020-07-10T10:03:05.066Z</time>
      </trkpt>
      <trkpt lat="40.07186019793153" lon="-8.472218597307801">
        <ele>138.34556579589844</ele>
        <time>2020-07-10T10:03:13.331Z</time>
      </trkpt>
      <trkpt lat="40.07177294231951" lon="-8.472092868760228">
        <ele>138.6128387451172</ele>
        <time>2020-07-10T10:03:21.601Z</time>
      </trkpt>
      <trkpt lat="40.0716629717499" lon="-8.47173378802836">
        <ele>138.7073211669922</ele>
        <time>2020-07-10T10:03:29.883Z</time>
      </trkpt>
      <trkpt lat="40.07160471752286" lon="-8.470638524740934">
        <ele>139.4659881591797</ele>
        <time>2020-07-10T10:03:38.199Z</time>
      </trkpt>
      <trkpt lat="40.071262987330556" lon="-8.470018850639462">
        <ele>137.00198364257812</ele>
        <time>2020-07-10T10:03:46.538Z</time>
      </trkpt>
      <trkpt lat="40.07120498456061" lon="-8.469775775447488">
        <ele>137.13720703125</ele>
        <time>2020-07-10T10:03:54.885Z</time>
      </trkpt>
      <trkpt lat="40.071233147755265" lon="-8.469574693590403">
        <ele>137.0696258544922</ele>
        <time>2020-07-10T10:04:03.239Z</time>
      </trkpt>
      <trkpt lat="40.07131839171052" lon="-8.469215277582407">
        <ele>137.0674591064453</ele>
        <time>2020-07-10T10:04:11.604Z</time>
      </trkpt>
      <trkpt lat="40.071324929594994" lon="-8.468842869624496">
        <ele>137.07530212402344</ele>
        <time>2020-07-10T10:04:19.981Z</time>
      </trkpt>
      <trkpt lat="40.071497932076454" lon="-8.468255801126361">
        <ele>138.13796997070312</ele>
        <time>2020-07-10T10:04:28.377Z</time>
      </trkpt>
      <trkpt lat="40.07171091623604" lon="-8.467758754268289">
        <ele>139.8417510986328</ele>
        <time>2020-07-10T10:04:36.790Z</time>
      </trkpt>
      <trkpt lat="40.07175265811384" lon="-8.467598157003522">
        <ele>140.40243530273438</ele>
        <time>2020-07-10T10:04:45.209Z</time>
      </trkpt>
      <trkpt lat="40.071778893470764" lon="-8.467330019921064">
        <ele>141.43052673339844</ele>
        <time>2020-07-10T10:04:53.636Z</time>
      </trkpt>
      <trkpt lat="40.07169373333454" lon="-8.46723304130137">
        <ele>141.5752410888672</ele>
        <time>2020-07-10T10:05:02.067Z</time>
      </trkpt>
      <trkpt lat="40.0709499232471" lon="-8.46610483713448">
        <ele>137.86683654785156</ele>
        <time>2020-07-10T10:05:10.544Z</time>
      </trkpt>
      <trkpt lat="40.070250956341624" lon="-8.464902872219682">
        <ele>140.16192626953125</ele>
        <time>2020-07-10T10:05:19.067Z</time>
      </trkpt>
      <trkpt lat="40.07003713399172" lon="-8.464466510340571">
        <ele>141.71165466308594</ele>
        <time>2020-07-10T10:05:27.606Z</time>
      </trkpt>
      <trkpt lat="40.0696459505707" lon="-8.463534777984023">
        <ele>143.75653076171875</ele>
        <time>2020-07-10T10:05:36.178Z</time>
      </trkpt>
      <trkpt lat="40.069538997486234" lon="-8.463354147970676">
        <ele>144.90908813476562</ele>
        <time>2020-07-10T10:05:44.757Z</time>
      </trkpt>
      <trkpt lat="40.06941662169993" lon="-8.462709579616785">
        <ele>146.98805236816406</ele>
        <time>2020-07-10T10:05:53.356Z</time>
      </trkpt>
      <trkpt lat="40.06929114460945" lon="-8.462337674573064">
        <ele>147.51010131835938</ele>
        <time>2020-07-10T10:06:01.968Z</time>
      </trkpt>
      <trkpt lat="40.06910347379744" lon="-8.461908102035522">
        <ele>147.52166748046875</ele>
        <time>2020-07-10T10:06:10.595Z</time>
      </trkpt>
      <trkpt lat="40.068937595933676" lon="-8.461620016023517">
        <ele>148.41290283203125</ele>
        <time>2020-07-10T10:06:19.233Z</time>
      </trkpt>
      <trkpt lat="40.068712290376425" lon="-8.461289182305336">
        <ele>148.3627166748047</ele>
        <time>2020-07-10T10:06:27.885Z</time>
      </trkpt>
      <trkpt lat="40.068511459976435" lon="-8.461063876748085">
        <ele>148.9718017578125</ele>
        <time>2020-07-10T10:06:36.547Z</time>
      </trkpt>
      <trkpt lat="40.06719089113176" lon="-8.459981102496386">
        <ele>152.20947265625</ele>
        <time>2020-07-10T10:06:45.272Z</time>
      </trkpt>
      <trkpt lat="40.066746482625604" lon="-8.459584722295403">
        <ele>154.6978302001953</ele>
        <time>2020-07-10T10:06:54.018Z</time>
      </trkpt>
      <trkpt lat="40.06632965058088" lon="-8.459181301295757">
        <ele>153.67210388183594</ele>
        <time>2020-07-10T10:07:02.785Z</time>
      </trkpt>
      <trkpt lat="40.06592405028641" lon="-8.458991786465049">
        <ele>157.23733520507812</ele>
        <time>2020-07-10T10:07:11.569Z</time>
      </trkpt>
      <trkpt lat="40.06544217467308" lon="-8.458727085962892">
        <ele>158.3551788330078</ele>
        <time>2020-07-10T10:07:20.374Z</time>
      </trkpt>
      <trkpt lat="40.064786542207" lon="-8.458032058551908">
        <ele>160.42013549804688</ele>
        <time>2020-07-10T10:07:29.213Z</time>
      </trkpt>
      <trkpt lat="40.06421799771488" lon="-8.45759485848248">
        <ele>162.55532836914062</ele>
        <time>2020-07-10T10:07:38.078Z</time>
      </trkpt>
      <trkpt lat="40.063608633354306" lon="-8.457215577363968">
        <ele>163.8872833251953</ele>
        <time>2020-07-10T10:07:46.970Z</time>
      </trkpt>
      <trkpt lat="40.06319741718471" lon="-8.456788687035441">
        <ele>162.80650329589844</ele>
        <time>2020-07-10T10:07:55.883Z</time>
      </trkpt>
      <trkpt lat="40.06302449852228" lon="-8.456640159711242">
        <ele>162.64398193359375</ele>
        <time>2020-07-10T10:08:04.804Z</time>
      </trkpt>
      <trkpt lat="40.06286079995334" lon="-8.456566063687205">
        <ele>163.07400512695312</ele>
        <time>2020-07-10T10:08:13.732Z</time>
      </trkpt>
      <trkpt lat="40.0624259468168" lon="-8.456534883007407">
        <ele>165.0113067626953</ele>
        <time>2020-07-10T10:08:22.678Z</time>
      </trkpt>
      <trkpt lat="40.06189092993736" lon="-8.456614846363664">
        <ele>166.2295379638672</ele>
        <time>2020-07-10T10:08:31.645Z</time>
      </trkpt>
      <trkpt lat="40.061789928004146" lon="-8.456575786694884">
        <ele>165.9014892578125</ele>
        <time>2020-07-10T10:08:40.617Z</time>
      </trkpt>
      <trkpt lat="40.06112306378782" lon="-8.45561689697206">
        <ele>162.59414672851562</ele>
        <time>2020-07-10T10:08:49.628Z</time>
      </trkpt>
      <trkpt lat="40.06105718202889" lon="-8.455299641937017">
        <ele>161.99514770507812</ele>
        <time>2020-07-10T10:08:58.649Z</time>
      </trkpt>
      <trkpt lat="40.06087596528232" lon="-8.455000156536698">
        <ele>161.54226684570312</ele>
        <time>2020-07-10T10:09:07.682Z</time>
      </trkpt>
      <trkpt lat="40.06056164391339" lon="-8.454663623124361">
        <ele>161.4889678955078</ele>
        <time>2020-07-10T10:09:16.731Z</time>
      </trkpt>
      <trkpt lat="40.06012595258653" lon="-8.454385763034225">
        <ele>162.22891235351562</ele>
        <time>2020-07-10T10:09:25.800Z</time>
      </trkpt>
      <trkpt lat="40.05981791764498" lon="-8.45430982299149">
        <ele>163.13694763183594</ele>
        <time>2020-07-10T10:09:34.881Z</time>
      </trkpt>
      <trkpt lat="40.05970601923764" lon="-8.454232877120376">
        <ele>163.26275634765625</ele>
        <time>2020-07-10T10:09:43.967Z</time>
      </trkpt>
      <trkpt lat="40.05924912169576" lon="-8.453385885804892">
        <ele>159.9856719970703</ele>
        <time>2020-07-10T10:09:53.085Z</time>
      </trkpt>
      <trkpt lat="40.05854135379195" lon="-8.452641488984227">
        <ele>157.94891357421875</ele>
        <time>2020-07-10T10:10:02.239Z</time>
      </trkpt>
      <trkpt lat="40.05839282646775" lon="-8.452447531744838">
        <ele>157.49818420410156</ele>
        <time>2020-07-10T10:10:11.402Z</time>
      </trkpt>
      <trkpt lat="40.0581936724484" lon="-8.452033968642354">
        <ele>155.11572265625</ele>
        <time>2020-07-10T10:10:20.580Z</time>
      </trkpt>
      <trkpt lat="40.058067021891475" lon="-8.451631804928184">
        <ele>153.30526733398438</ele>
        <time>2020-07-10T10:10:29.771Z</time>
      </trkpt>
      <trkpt lat="40.057977586984634" lon="-8.451195443049073">
        <ele>151.73463439941406</ele>
        <time>2020-07-10T10:10:38.976Z</time>
      </trkpt>
      <trkpt lat="40.057898964732885" lon="-8.450961587950587">
        <ele>151.03062438964844</ele>
        <time>2020-07-10T10:10:48.189Z</time>
      </trkpt>
      <trkpt lat="40.0576582364738" lon="-8.450696300715208">
        <ele>151.2899932861328</ele>
        <time>2020-07-10T10:10:57.415Z</time>
      </trkpt>
      <trkpt lat="40.057662930339575" lon="-8.450366808101535">
        <ele>150.88339233398438</ele>
        <time>2020-07-10T10:11:06.651Z</time>
      </trkpt>
      <trkpt lat="40.05762294866145" lon="-8.450231859460473">
        <ele>150.8174285888672</ele>
        <time>2020-07-10T10:11:15.891Z</time>
      </trkpt>
      <trkpt lat="40.05754097364843" lon="-8.450133791193366">
        <ele>151.06983947753906</ele>
        <time>2020-07-10T10:11:25.136Z</time>
      </trkpt>
      <trkpt lat="40.057250959798694" lon="-8.449963806197047">
        <ele>152.87245178222656</ele>
        <time>2020-07-10T10:11:34.393Z</time>
      </trkpt>
      <trkpt lat="40.057016937062144" lon="-8.44966976903379">
        <ele>156.19081115722656</ele>
        <time>2020-07-10T10:11:43.663Z</time>
      </trkpt>
      <trkpt lat="40.05694602616131" lon="-8.449470782652497">
        <ele>157.94186401367188</ele>
        <time>2020-07-10T10:11:52.940Z</time>
      </trkpt>
      <trkpt lat="40.05694292485714" lon="-8.449179762974381">
        <ele>159.14010620117188</ele>
        <time>2020-07-10T10:12:02.226Z</time>
      </trkpt>
      <trkpt lat="40.056466832756996" lon="-8.447792809456587">
        <ele>167.78700256347656</ele>
        <time>2020-07-10T10:12:11.559Z</time>
      </trkpt>
      <trkpt lat="40.05630967207253" lon="-8.447202388197184">
        <ele>172.76193237304688</ele>
        <time>2020-07-10T10:12:20.911Z</time>
      </trkpt>
      <trkpt lat="40.05618209950626" lon="-8.446877421811223">
        <ele>174.5213165283203</ele>
        <time>2020-07-10T10:12:30.274Z</time>
      </trkpt>
      <trkpt lat="40.055985962972045" lon="-8.44653476960957">
        <ele>174.779541015625</ele>
        <time>2020-07-10T10:12:39.650Z</time>
      </trkpt>
      <trkpt lat="40.055701145902276" lon="-8.44610720872879">
        <ele>176.38934326171875</ele>
        <time>2020-07-10T10:12:49.044Z</time>
      </trkpt>
      <trkpt lat="40.05556359887123" lon="-8.446083655580878">
        <ele>175.8185272216797</ele>
        <time>2020-07-10T10:12:58.443Z</time>
      </trkpt>
      <trkpt lat="40.055406438186765" lon="-8.446169905364513">
        <ele>173.9917755126953</ele>
        <time>2020-07-10T10:13:07.849Z</time>
      </trkpt>
      <trkpt lat="40.05520728416741" lon="-8.4461585059762">
        <ele>173.27586364746094</ele>
        <time>2020-07-10T10:13:17.263Z</time>
      </trkpt>
      <trkpt lat="40.05495188757777" lon="-8.446169905364513">
        <ele>171.64801025390625</ele>
        <time>2020-07-10T10:13:26.687Z</time>
      </trkpt>
      <trkpt lat="40.05481643602252" lon="-8.446221286430955">
        <ele>170.40390014648438</ele>
        <time>2020-07-10T10:13:36.117Z</time>
      </trkpt>
      <trkpt lat="40.054693976417184" lon="-8.446026826277375">
        <ele>171.30245971679688</ele>
        <time>2020-07-10T10:13:45.554Z</time>
      </trkpt>
      <trkpt lat="40.05460688844323" lon="-8.445998830720782">
        <ele>171.01515197753906</ele>
        <time>2020-07-10T10:13:54.995Z</time>
      </trkpt>
      <trkpt lat="40.05429851822555" lon="-8.446110058575869">
        <ele>167.9442138671875</ele>
        <time>2020-07-10T10:14:04.449Z</time>
      </trkpt>
      <trkpt lat="40.0534410495311" lon="-8.445902774110436">
        <ele>164.06446838378906</ele>
        <time>2020-07-10T10:14:13.938Z</time>
      </trkpt>
      <trkpt lat="40.052849957719445" lon="-8.445880813524127">
        <ele>160.0935821533203</ele>
        <time>2020-07-10T10:14:23.450Z</time>
      </trkpt>
      <trkpt lat="40.052376044914126" lon="-8.44594887457788">
        <ele>158.7900390625</ele>
        <time>2020-07-10T10:14:32.981Z</time>
      </trkpt>
      <trkpt lat="40.05212894640863" lon="-8.44605884514749">
        <ele>157.79800415039062</ele>
        <time>2020-07-10T10:14:42.523Z</time>
      </trkpt>
      <trkpt lat="40.05132998339832" lon="-8.446282809600234">
        <ele>159.20362854003906</ele>
        <time>2020-07-10T10:14:52.097Z</time>
      </trkpt>
      <trkpt lat="40.05086193792522" lon="-8.446454806253314">
        <ele>159.05296325683594</ele>
        <time>2020-07-10T10:15:01.691Z</time>
      </trkpt>
      <trkpt lat="40.050589023157954" lon="-8.446514820680022">
        <ele>158.6800994873047</ele>
        <time>2020-07-10T10:15:11.296Z</time>
      </trkpt>
      <trkpt lat="40.0503845885396" lon="-8.446654798462987">
        <ele>158.0076141357422</ele>
        <time>2020-07-10T10:15:20.910Z</time>
      </trkpt>
      <trkpt lat="40.04989097826183" lon="-8.447155868634582">
        <ele>159.16639709472656</ele>
        <time>2020-07-10T10:15:30.549Z</time>
      </trkpt>
      <trkpt lat="40.049516977742314" lon="-8.447350831702352">
        <ele>160.36788940429688</ele>
        <time>2020-07-10T10:15:40.204Z</time>
      </trkpt>
      <trkpt lat="40.049305921420455" lon="-8.447311772033572">
        <ele>160.4147491455078</ele>
        <time>2020-07-10T10:15:49.868Z</time>
      </trkpt>
      <trkpt lat="40.04909603856504" lon="-8.447201801463962">
        <ele>160.97152709960938</ele>
        <time>2020-07-10T10:15:59.541Z</time>
      </trkpt>
      <trkpt lat="40.04826991818845" lon="-8.447200795635581">
        <ele>161.15341186523438</ele>
        <time>2020-07-10T10:16:09.247Z</time>
      </trkpt>
      <trkpt lat="40.04765602760017" lon="-8.44704975374043">
        <ele>162.02001953125</ele>
        <time>2020-07-10T10:16:18.978Z</time>
      </trkpt>
      <trkpt lat="40.04714104346931" lon="-8.447210853919387">
        <ele>162.09603881835938</ele>
        <time>2020-07-10T10:16:28.730Z</time>
      </trkpt>
      <trkpt lat="40.04691791720688" lon="-8.447397770360112">
        <ele>161.49411010742188</ele>
        <time>2020-07-10T10:16:38.493Z</time>
      </trkpt>
      <trkpt lat="40.046553974971175" lon="-8.447853913530707">
        <ele>160.22752380371094</ele>
        <time>2020-07-10T10:16:48.276Z</time>
      </trkpt>
      <trkpt lat="40.046162037178874" lon="-8.448237804695964">
        <ele>160.25648498535156</ele>
        <time>2020-07-10T10:16:58.078Z</time>
      </trkpt>
      <trkpt lat="40.045904042199254" lon="-8.448388846591115">
        <ele>160.64144897460938</ele>
        <time>2020-07-10T10:17:07.892Z</time>
      </trkpt>
      <trkpt lat="40.04576909355819" lon="-8.448408879339695">
        <ele>161.05508422851562</ele>
        <time>2020-07-10T10:17:17.711Z</time>
      </trkpt>
      <trkpt lat="40.04560966975987" lon="-8.448377531021833">
        <ele>161.7417449951172</ele>
        <time>2020-07-10T10:17:27.537Z</time>
      </trkpt>
      <trkpt lat="40.04537547938526" lon="-8.44820637255907">
        <ele>163.64820861816406</ele>
        <time>2020-07-10T10:17:37.373Z</time>
      </trkpt>
      <trkpt lat="40.044747926294804" lon="-8.447365751489997">
        <ele>165.36456298828125</ele>
        <time>2020-07-10T10:17:47.245Z</time>
      </trkpt>
      <trkpt lat="40.04416194744408" lon="-8.446824783459306">
        <ele>165.8803253173828</ele>
        <time>2020-07-10T10:17:57.146Z</time>
      </trkpt>
      <trkpt lat="40.04392893053591" lon="-8.446696875616908">
        <ele>164.5597381591797</ele>
        <time>2020-07-10T10:18:07.057Z</time>
      </trkpt>
      <trkpt lat="40.0437378231436" lon="-8.446640549227595">
        <ele>163.98077392578125</ele>
        <time>2020-07-10T10:18:16.976Z</time>
      </trkpt>
      <trkpt lat="40.04338142462075" lon="-8.446583468466997">
        <ele>164.59713745117188</ele>
        <time>2020-07-10T10:18:26.909Z</time>
      </trkpt>
      <trkpt lat="40.04303365945816" lon="-8.446592018008232">
        <ele>163.91732788085938</ele>
        <time>2020-07-10T10:18:36.856Z</time>
      </trkpt>
      <trkpt lat="40.042665945366025" lon="-8.446739790961146">
        <ele>163.43429565429688</ele>
        <time>2020-07-10T10:18:46.819Z</time>
      </trkpt>
      <trkpt lat="40.04257248714566" lon="-8.446797374635935">
        <ele>163.4252471923828</ele>
        <time>2020-07-10T10:18:56.786Z</time>
      </trkpt>
      <trkpt lat="40.04244575276971" lon="-8.447065511718392">
        <ele>163.1422119140625</ele>
        <time>2020-07-10T10:19:06.763Z</time>
      </trkpt>
      <trkpt lat="40.042257998138666" lon="-8.447318812832236">
        <ele>163.210205078125</ele>
        <time>2020-07-10T10:19:16.750Z</time>
      </trkpt>
      <trkpt lat="40.04211206920445" lon="-8.44730875454843">
        <ele>163.7595977783203</ele>
        <time>2020-07-10T10:19:26.743Z</time>
      </trkpt>
      <trkpt lat="40.04199279472232" lon="-8.4471738897264">
        <ele>164.2777557373047</ele>
        <time>2020-07-10T10:19:36.742Z</time>
      </trkpt>
      <trkpt lat="40.0417088996619" lon="-8.447219487279654">
        <ele>164.5089569091797</ele>
        <time>2020-07-10T10:19:46.753Z</time>
      </trkpt>
      <trkpt lat="40.041474625468254" lon="-8.447202388197184">
        <ele>164.54598999023438</ele>
        <time>2020-07-10T10:19:56.773Z</time>
      </trkpt>
      <trkpt lat="40.04110003821552" lon="-8.447122843936086">
        <ele>164.45291137695312</ele>
        <time>2020-07-10T10:20:06.808Z</time>
      </trkpt>
      <trkpt lat="40.04070055671036" lon="-8.44701413065195">
        <ele>164.1040496826172</ele>
        <time>2020-07-10T10:20:16.860Z</time>
      </trkpt>
      <trkpt lat="40.040263356640935" lon="-8.446954283863306">
        <ele>164.1563262939453</ele>
        <time>2020-07-10T10:20:26.929Z</time>
      </trkpt>
      <trkpt lat="40.039891535416245" lon="-8.446851605549455">
        <ele>164.03314208984375</ele>
        <time>2020-07-10T10:20:37.014Z</time>
      </trkpt>
      <trkpt lat="40.03885486163199" lon="-8.446418093517423">
        <ele>165.3692626953125</ele>
        <time>2020-07-10T10:20:47.142Z</time>
      </trkpt>
      <trkpt lat="40.037035988643765" lon="-8.445868911221623">
        <ele>167.14588928222656</ele>
        <time>2020-07-10T10:20:57.345Z</time>
      </trkpt>
      <trkpt lat="40.036737928166986" lon="-8.445701859891415">
        <ele>167.34632873535156</ele>
        <time>2020-07-10T10:21:07.561Z</time>
      </trkpt>
      <trkpt lat="40.03483305685222" lon="-8.44500339590013">
        <ele>169.18434143066406</ele>
        <time>2020-07-10T10:21:17.856Z</time>
      </trkpt>
      <trkpt lat="40.034216148778796" lon="-8.444803738966584">
        <ele>169.0</ele>
        <time>2020-07-10T10:21:28.176Z</time>
      </trkpt>
      <trkpt lat="40.0338099617511" lon="-8.444715309888124">
        <ele>169.4651336669922</ele>
        <time>2020-07-10T10:21:38.513Z</time>
      </trkpt>
      <trkpt lat="40.033705020323396" lon="-8.444763841107488">
        <ele>169.59388732910156</ele>
        <time>2020-07-10T10:21:48.854Z</time>
      </trkpt>
      <trkpt lat="40.03362505696714" lon="-8.444868782535195">
        <ele>169.65985107421875</ele>
        <time>2020-07-10T10:21:59.200Z</time>
      </trkpt>
      <trkpt lat="40.033630253747106" lon="-8.44590738415718">
        <ele>168.55203247070312</ele>
        <time>2020-07-10T10:22:09.578Z</time>
      </trkpt>
      <trkpt lat="40.0337375421077" lon="-8.44734094105661">
        <ele>168.02203369140625</ele>
        <time>2020-07-10T10:22:20.000Z</time>
      </trkpt>
      <trkpt lat="40.03363813273609" lon="-8.447877634316683">
        <ele>168.1413116455078</ele>
        <time>2020-07-10T10:22:30.439Z</time>
      </trkpt>
      <trkpt lat="40.03329388797283" lon="-8.449251847341657">
        <ele>169.46728515625</ele>
        <time>2020-07-10T10:22:40.922Z</time>
      </trkpt>
      <trkpt lat="40.033174362033606" lon="-8.450295813381672">
        <ele>169.69773864746094</ele>
        <time>2020-07-10T10:22:51.438Z</time>
      </trkpt>
      <trkpt lat="40.0329068955034" lon="-8.451592661440372">
        <ele>170.7401123046875</ele>
        <time>2020-07-10T10:23:01.995Z</time>
      </trkpt>
      <trkpt lat="40.03275107592344" lon="-8.452188447117805">
        <ele>171.436279296875</ele>
        <time>2020-07-10T10:23:12.571Z</time>
      </trkpt>
      <trkpt lat="40.032056299969554" lon="-8.454550467431545">
        <ele>175.8498992919922</ele>
        <time>2020-07-10T10:23:23.225Z</time>
      </trkpt>
      <trkpt lat="40.03202687948942" lon="-8.454790189862251">
        <ele>176.74806213378906</ele>
        <time>2020-07-10T10:23:33.886Z</time>
      </trkpt>
      <trkpt lat="40.031995279714465" lon="-8.454899322241545">
        <ele>177.17877197265625</ele>
        <time>2020-07-10T10:23:44.551Z</time>
      </trkpt>
      <trkpt lat="40.031844740733504" lon="-8.454932011663914">
        <ele>177.47705078125</ele>
        <time>2020-07-10T10:23:55.222Z</time>
      </trkpt>
      <trkpt lat="40.03176377154887" lon="-8.454899992793798">
        <ele>177.45895385742188</ele>
        <time>2020-07-10T10:24:05.896Z</time>
      </trkpt>
      <trkpt lat="40.03161306492984" lon="-8.454744257032871">
        <ele>177.0792236328125</ele>
        <time>2020-07-10T10:24:16.578Z</time>
      </trkpt>
      <trkpt lat="40.03153586760163" lon="-8.454722631722689">
        <ele>177.09400939941406</ele>
        <time>2020-07-10T10:24:27.263Z</time>
      </trkpt>
      <trkpt lat="40.03087688237429" lon="-8.454872416332364">
        <ele>178.8780517578125</ele>
        <time>2020-07-10T10:24:37.975Z</time>
      </trkpt>
      <trkpt lat="40.03063908778131" lon="-8.454857748001814">
        <ele>179.59716796875</ele>
        <time>2020-07-10T10:24:48.697Z</time>
      </trkpt>
      <trkpt lat="40.0301337428391" lon="-8.454862190410495">
        <ele>180.9901123046875</ele>
        <time>2020-07-10T10:24:59.439Z</time>
      </trkpt>
      <trkpt lat="40.029815565794706" lon="-8.454826399683952">
        <ele>181.5815887451172</ele>
        <time>2020-07-10T10:25:10.194Z</time>
      </trkpt>
      <trkpt lat="40.0291339494288" lon="-8.454877864569426">
        <ele>184.5186767578125</ele>
        <time>2020-07-10T10:25:20.976Z</time>
      </trkpt>
      <trkpt lat="40.029125986620784" lon="-8.452860759571195">
        <ele>181.92572021484375</ele>
        <time>2020-07-10T10:25:31.820Z</time>
      </trkpt>
      <trkpt lat="40.02907309681177" lon="-8.452604189515114">
        <ele>181.7528076171875</ele>
        <time>2020-07-10T10:25:42.672Z</time>
      </trkpt>
      <trkpt lat="40.02887704409659" lon="-8.452068837359548">
        <ele>179.46409606933594</ele>
        <time>2020-07-10T10:25:53.542Z</time>
      </trkpt>
      <trkpt lat="40.02866799943149" lon="-8.451269874349236">
        <ele>177.2562713623047</ele>
        <time>2020-07-10T10:26:04.438Z</time>
      </trkpt>
      <trkpt lat="40.02862919121981" lon="-8.450615834444761">
        <ele>175.45828247070312</ele>
        <time>2020-07-10T10:26:15.354Z</time>
      </trkpt>
      <trkpt lat="40.028656935319304" lon="-8.45035188831389">
        <ele>174.52532958984375</ele>
        <time>2020-07-10T10:26:26.278Z</time>
      </trkpt>
      <trkpt lat="40.02824907191098" lon="-8.449398865923285">
        <ele>172.17868041992188</ele>
        <time>2020-07-10T10:26:37.236Z</time>
      </trkpt>
      <trkpt lat="40.02816357649863" lon="-8.449116228148341">
        <ele>172.0</ele>
        <time>2020-07-10T10:26:48.203Z</time>
      </trkpt>
      <trkpt lat="40.028152680024505" lon="-8.448297651484609">
        <ele>172.0</ele>
        <time>2020-07-10T10:26:59.195Z</time>
      </trkpt>
      <trkpt lat="40.02819634974003" lon="-8.44762735068798">
        <ele>172.03611755371094</ele>
        <time>2020-07-10T10:27:10.208Z</time>
      </trkpt>
      <trkpt lat="40.02797515131533" lon="-8.447116808965802">
        <ele>173.23309326171875</ele>
        <time>2020-07-10T10:27:21.239Z</time>
      </trkpt>
      <trkpt lat="40.02795117907226" lon="-8.44701991416514">
        <ele>173.49436950683594</ele>
        <time>2020-07-10T10:27:32.273Z</time>
      </trkpt>
      <trkpt lat="40.027929386124015" lon="-8.446612050756812">
        <ele>174.2542724609375</ele>
        <time>2020-07-10T10:27:43.320Z</time>
      </trkpt>
      <trkpt lat="40.02795805223286" lon="-8.445873772725463">
        <ele>175.28012084960938</ele>
        <time>2020-07-10T10:27:54.390Z</time>
      </trkpt>
      <trkpt lat="40.02785235643387" lon="-8.444721009582281">
        <ele>177.9632110595703</ele>
        <time>2020-07-10T10:28:05.495Z</time>
      </trkpt>
      <trkpt lat="40.027799969539046" lon="-8.444581283256412">
        <ele>178.2356414794922</ele>
        <time>2020-07-10T10:28:16.605Z</time>
      </trkpt>
      <trkpt lat="40.02598939463496" lon="-8.444612631574273">
        <ele>177.6246337890625</ele>
        <time>2020-07-10T10:28:27.787Z</time>
      </trkpt>
      <trkpt lat="40.02436607144773" lon="-8.444606931880116">
        <ele>177.9800567626953</ele>
        <time>2020-07-10T10:28:39.034Z</time>
      </trkpt>
      <trkpt lat="40.023414893075824" lon="-8.444561334326863">
        <ele>176.5928497314453</ele>
        <time>2020-07-10T10:28:50.319Z</time>
      </trkpt>
      <trkpt lat="40.02217805944383" lon="-8.444568878039718">
        <ele>177.48789978027344</ele>
        <time>2020-07-10T10:29:01.654Z</time>
      </trkpt>
      <trkpt lat="40.019870018586516" lon="-8.44450986944139">
        <ele>180.67941284179688</ele>
        <time>2020-07-10T10:29:13.081Z</time>
      </trkpt>
      <trkpt lat="40.018745083361864" lon="-8.444116422906518">
        <ele>182.50706481933594</ele>
        <time>2020-07-10T10:29:24.555Z</time>
      </trkpt>
      <trkpt lat="40.01865983940661" lon="-8.444187669083476">
        <ele>182.43836975097656</ele>
        <time>2020-07-10T10:29:36.033Z</time>
      </trkpt>
      <trkpt lat="40.018599992617965" lon="-8.44438279978931">
        <ele>182.32620239257812</ele>
        <time>2020-07-10T10:29:47.517Z</time>
      </trkpt>
      <trkpt lat="40.0182612799108" lon="-8.445154605433345">
        <ele>183.77137756347656</ele>
        <time>2020-07-10T10:29:59.028Z</time>
      </trkpt>
      <trkpt lat="40.01801879145205" lon="-8.445479739457369">
        <ele>186.9672393798828</ele>
        <time>2020-07-10T10:30:10.553Z</time>
      </trkpt>
      <trkpt lat="40.01792265102267" lon="-8.445724993944168">
        <ele>189.07882690429688</ele>
        <time>2020-07-10T10:30:22.087Z</time>
      </trkpt>
      <trkpt lat="40.017905216664076" lon="-8.446187088266015">
        <ele>190.52828979492188</ele>
        <time>2020-07-10T10:30:33.635Z</time>
      </trkpt>
      <trkpt lat="40.017732633277774" lon="-8.446669047698379">
        <ele>189.3717803955078</ele>
        <time>2020-07-10T10:30:45.199Z</time>
      </trkpt>
      <trkpt lat="40.01764412038028" lon="-8.447074061259627">
        <ele>187.79983520507812</ele>
        <time>2020-07-10T10:30:56.776Z</time>
      </trkpt>
      <trkpt lat="40.01695294864476" lon="-8.44728578813374">
        <ele>186.94390869140625</ele>
        <time>2020-07-10T10:31:08.382Z</time>
      </trkpt>
      <trkpt lat="40.016342075541615" lon="-8.447373798117042">
        <ele>187.7213592529297</ele>
        <time>2020-07-10T10:31:20.012Z</time>
      </trkpt>
      <trkpt lat="40.01585307531059" lon="-8.447493324056268">
        <ele>186.7017364501953</ele>
        <time>2020-07-10T10:31:31.662Z</time>
      </trkpt>
      <trkpt lat="40.014733588323" lon="-8.447541855275631">
        <ele>187.33946228027344</ele>
        <time>2020-07-10T10:31:43.357Z</time>
      </trkpt>
      <trkpt lat="40.014700731262565" lon="-8.44764738343656">
        <ele>186.78524780273438</ele>
        <time>2020-07-10T10:31:55.055Z</time>
      </trkpt>
      <trkpt lat="40.014770636335015" lon="-8.4484345279634">
        <ele>186.55706787109375</ele>
        <time>2020-07-10T10:32:06.778Z</time>
      </trkpt>
      <trkpt lat="40.014825286343694" lon="-8.44976649619639">
        <ele>186.24339294433594</ele>
        <time>2020-07-10T10:32:18.542Z</time>
      </trkpt>
      <trkpt lat="40.014792596921325" lon="-8.449960453435779">
        <ele>186.51531982421875</ele>
        <time>2020-07-10T10:32:30.312Z</time>
      </trkpt>
      <trkpt lat="40.014713890850544" lon="-8.450182909145951">
        <ele>187.056884765625</ele>
        <time>2020-07-10T10:32:42.089Z</time>
      </trkpt>
      <trkpt lat="40.01461339183152" lon="-8.450296986848116">
        <ele>188.13555908203125</ele>
        <time>2020-07-10T10:32:53.872Z</time>
      </trkpt>
      <trkpt lat="40.01443753950298" lon="-8.450402515009046">
        <ele>188.5200958251953</ele>
        <time>2020-07-10T10:33:05.662Z</time>
      </trkpt>
      <trkpt lat="40.013897996395826" lon="-8.450607871636748">
        <ele>189.15963745117188</ele>
        <time>2020-07-10T10:33:17.475Z</time>
      </trkpt>
      <trkpt lat="40.01344034448266" lon="-8.450670652091503">
        <ele>189.46092224121094</ele>
        <time>2020-07-10T10:33:29.306Z</time>
      </trkpt>
      <trkpt lat="40.013169441372156" lon="-8.450690601021051">
        <ele>189.7381134033203</ele>
        <time>2020-07-10T10:33:41.148Z</time>
      </trkpt>
      <trkpt lat="40.01310615800321" lon="-8.45076478086412">
        <ele>190.05490112304688</ele>
        <time>2020-07-10T10:33:52.994Z</time>
      </trkpt>
      <trkpt lat="40.01296299509704" lon="-8.451246907934546">
        <ele>191.9198760986328</ele>
        <time>2020-07-10T10:34:04.855Z</time>
      </trkpt>
      <trkpt lat="40.01285704784095" lon="-8.45147187821567">
        <ele>192.72962951660156</ele>
        <time>2020-07-10T10:34:16.725Z</time>
      </trkpt>
      <trkpt lat="40.01177687197924" lon="-8.452963940799236">
        <ele>197.10389709472656</ele>
        <time>2020-07-10T10:34:28.658Z</time>
      </trkpt>
      <trkpt lat="40.01116138882935" lon="-8.452809378504753">
        <ele>197.9071044921875</ele>
        <time>2020-07-10T10:34:40.616Z</time>
      </trkpt>
      <trkpt lat="40.01086802221835" lon="-8.452640902251005">
        <ele>197.39830017089844</ele>
        <time>2020-07-10T10:34:52.586Z</time>
      </trkpt>
      <trkpt lat="40.00992187298834" lon="-8.451958196237683">
        <ele>198.756103515625</ele>
        <time>2020-07-10T10:35:04.600Z</time>
      </trkpt>
      <trkpt lat="40.009379060938954" lon="-8.451642449945211">
        <ele>198.0677032470703</ele>
        <time>2020-07-10T10:35:16.637Z</time>
      </trkpt>
      <trkpt lat="40.009089382365346" lon="-8.451515212655067">
        <ele>197.0672607421875</ele>
        <time>2020-07-10T10:35:28.687Z</time>
      </trkpt>
      <trkpt lat="40.00839519314468" lon="-8.451263504102826">
        <ele>196.75433349609375</ele>
        <time>2020-07-10T10:35:40.766Z</time>
      </trkpt>
      <trkpt lat="40.008170222863555" lon="-8.45120357349515">
        <ele>196.9523468017578</ele>
        <time>2020-07-10T10:35:52.854Z</time>
      </trkpt>
      <trkpt lat="40.0080659519881" lon="-8.451189659535885">
        <ele>197.0607452392578</ele>
        <time>2020-07-10T10:36:04.946Z</time>
      </trkpt>
      <trkpt lat="40.007595140486956" lon="-8.45124808140099">
        <ele>196.5326385498047</ele>
        <time>2020-07-10T10:36:17.057Z</time>
      </trkpt>
      <trkpt lat="40.007260870188475" lon="-8.451192677021027">
        <ele>195.66404724121094</ele>
        <time>2020-07-10T10:36:29.181Z</time>
      </trkpt>
      <trkpt lat="40.00702659599483" lon="-8.451012885197997">
        <ele>195.09567260742188</ele>
        <time>2020-07-10T10:36:41.316Z</time>
      </trkpt>
      <trkpt lat="40.006936993449926" lon="-8.45023998990655">
        <ele>193.4532012939453</ele>
        <time>2020-07-10T10:36:53.475Z</time>
      </trkpt>
      <trkpt lat="40.0068555213511" lon="-8.449752246960998">
        <ele>194.5235137939453</ele>
        <time>2020-07-10T10:37:05.650Z</time>
      </trkpt>
      <trkpt lat="40.00665091909468" lon="-8.449077839031816">
        <ele>197.29551696777344</ele>
        <time>2020-07-10T10:37:17.847Z</time>
      </trkpt>
      <trkpt lat="40.006459560245275" lon="-8.448828142136335">
        <ele>198.97705078125</ele>
        <time>2020-07-10T10:37:30.055Z</time>
      </trkpt>
      <trkpt lat="40.00596192665398" lon="-8.448318773880601">
        <ele>202.7930908203125</ele>
        <time>2020-07-10T10:37:42.288Z</time>
      </trkpt>
      <trkpt lat="40.005847346037626" lon="-8.44799816608429">
        <ele>205.4713897705078</ele>
        <time>2020-07-10T10:37:54.532Z</time>
      </trkpt>
      <trkpt lat="40.00554802827537" lon="-8.447516793385148">
        <ele>209.2998046875</ele>
        <time>2020-07-10T10:38:06.795Z</time>
      </trkpt>
      <trkpt lat="40.005321046337485" lon="-8.447098871693015">
        <ele>212.68325805664062</ele>
        <time>2020-07-10T10:38:19.074Z</time>
      </trkpt>
      <trkpt lat="40.005206633359194" lon="-8.446817407384515">
        <ele>212.70545959472656</ele>
        <time>2020-07-10T10:38:31.362Z</time>
      </trkpt>
      <trkpt lat="40.00510185956955" lon="-8.446343913674355">
        <ele>211.07125854492188</ele>
        <time>2020-07-10T10:38:43.665Z</time>
      </trkpt>
      <trkpt lat="40.00499876216054" lon="-8.445018650963902">
        <ele>208.97169494628906</ele>
        <time>2020-07-10T10:38:56.009Z</time>
      </trkpt>
      <trkpt lat="40.004853839054704" lon="-8.444398725405335">
        <ele>208.40599060058594</ele>
        <time>2020-07-10T10:39:08.373Z</time>
      </trkpt>
      <trkpt lat="40.0047417730093" lon="-8.44402858056128">
        <ele>209.11521911621094</ele>
        <time>2020-07-10T10:39:20.750Z</time>
      </trkpt>
      <trkpt lat="40.00468787737191" lon="-8.44379405491054">
        <ele>209.6587677001953</ele>
        <time>2020-07-10T10:39:33.134Z</time>
      </trkpt>
      <trkpt lat="40.00466373749077" lon="-8.442932730540633">
        <ele>212.9605255126953</ele>
        <time>2020-07-10T10:39:45.545Z</time>
      </trkpt>
      <trkpt lat="40.00467689707875" lon="-8.442741623148322">
        <ele>213.92506408691406</ele>
        <time>2020-07-10T10:39:57.962Z</time>
      </trkpt>
      <trkpt lat="40.0045329798013" lon="-8.4419587533921">
        <ele>221.90579223632812</ele>
        <time>2020-07-10T10:40:10.403Z</time>
      </trkpt>
      <trkpt lat="40.00433114357293" lon="-8.441543765366077">
        <ele>227.5046844482422</ele>
        <time>2020-07-10T10:40:22.859Z</time>
      </trkpt>
      <trkpt lat="40.004224022850394" lon="-8.441395405679941">
        <ele>229.69984436035156</ele>
        <time>2020-07-10T10:40:35.322Z</time>
      </trkpt>
      <trkpt lat="40.00405755825341" lon="-8.441287027671933">
        <ele>231.66311645507812</ele>
        <time>2020-07-10T10:40:47.792Z</time>
      </trkpt>
      <trkpt lat="40.00396099872887" lon="-8.441158784553409">
        <ele>233.31944274902344</ele>
        <time>2020-07-10T10:41:00.268Z</time>
      </trkpt>
      <trkpt lat="40.00388715416193" lon="-8.441024674102664">
        <ele>234.88877868652344</ele>
        <time>2020-07-10T10:41:12.749Z</time>
      </trkpt>
      <trkpt lat="40.00374005176127" lon="-8.440679842606187">
        <ele>237.91082763671875</ele>
        <time>2020-07-10T10:41:25.242Z</time>
      </trkpt>
      <trkpt lat="40.00366293825209" lon="-8.440357809886336">
        <ele>240.21278381347656</ele>
        <time>2020-07-10T10:41:37.745Z</time>
      </trkpt>
      <trkpt lat="40.00346219167113" lon="-8.439992191269994">
        <ele>241.936767578125</ele>
        <time>2020-07-10T10:41:50.262Z</time>
      </trkpt>
      <trkpt lat="40.00329396687448" lon="-8.44017474912107">
        <ele>241.50375366210938</ele>
        <time>2020-07-10T10:42:02.788Z</time>
      </trkpt>
      <trkpt lat="40.00292633660138" lon="-8.440274577587843">
        <ele>241.7052764892578</ele>
        <time>2020-07-10T10:42:15.329Z</time>
      </trkpt>
      <trkpt lat="40.0028061401099" lon="-8.440397204831243">
        <ele>242.08938598632812</ele>
        <time>2020-07-10T10:42:27.876Z</time>
      </trkpt>
      <trkpt lat="40.002753753215075" lon="-8.440511282533407">
        <ele>242.12991333007812</ele>
        <time>2020-07-10T10:42:40.427Z</time>
      </trkpt>
      <trkpt lat="40.00242208130658" lon="-8.440743880346417">
        <ele>243.5614776611328</ele>
        <time>2020-07-10T10:42:52.993Z</time>
      </trkpt>
      <trkpt lat="40.00230607576668" lon="-8.440889893099666">
        <ele>243.9070281982422</ele>
        <time>2020-07-10T10:43:05.565Z</time>
      </trkpt>
      <trkpt lat="40.002062916755676" lon="-8.441312843933702">
        <ele>243.34803771972656</ele>
        <time>2020-07-10T10:43:18.154Z</time>
      </trkpt>
      <trkpt lat="40.0019530300051" lon="-8.441635044291615">
        <ele>241.2743682861328</ele>
        <time>2020-07-10T10:43:30.753Z</time>
      </trkpt>
      <trkpt lat="40.00143192708492" lon="-8.441948778927326">
        <ele>237.11708068847656</ele>
        <time>2020-07-10T10:43:43.375Z</time>
      </trkpt>
      <trkpt lat="40.001368559896946" lon="-8.442022874951363">
        <ele>236.36846923828125</ele>
        <time>2020-07-10T10:43:56.001Z</time>
      </trkpt>
      <trkpt lat="40.00134098343551" lon="-8.442314816638827">
        <ele>234.48477172851562</ele>
        <time>2020-07-10T10:44:08.636Z</time>
      </trkpt>
      <trkpt lat="40.001182816922665" lon="-8.442322360351682">
        <ele>233.7616424560547</ele>
        <time>2020-07-10T10:44:21.277Z</time>
      </trkpt>
      <trkpt lat="40.00102666206658" lon="-8.44220258295536">
        <ele>233.91812133789062</ele>
        <time>2020-07-10T10:44:33.925Z</time>
      </trkpt>
      <trkpt lat="40.00093094073236" lon="-8.442075764760375">
        <ele>234.25404357910156</ele>
        <time>2020-07-10T10:44:46.579Z</time>
      </trkpt>
      <trkpt lat="40.0008081458509" lon="-8.441860349848866">
        <ele>234.69854736328125</ele>
        <time>2020-07-10T10:44:59.241Z</time>
      </trkpt>
      <trkpt lat="40.000714268535376" lon="-8.441831767559052">
        <ele>234.38519287109375</ele>
        <time>2020-07-10T10:45:11.907Z</time>
      </trkpt>
      <trkpt lat="40.00057873316109" lon="-8.441760521382093">
        <ele>234.2269287109375</ele>
        <time>2020-07-10T10:45:24.579Z</time>
      </trkpt>
      <trkpt lat="40.00046733766794" lon="-8.441646443679929">
        <ele>235.2717742919922</ele>
        <time>2020-07-10T10:45:37.257Z</time>
      </trkpt>
      <trkpt lat="40.000403970479965" lon="-8.441532365977764">
        <ele>236.91603088378906</ele>
        <time>2020-07-10T10:45:49.939Z</time>
      </trkpt>
      <trkpt lat="40.00034714117646" lon="-8.441492384299636">
        <ele>237.7846221923828</ele>
        <time>2020-07-10T10:46:02.623Z</time>
      </trkpt>
      <trkpt lat="40.00027949921787" lon="-8.441529516130686">
        <ele>237.70034790039062</ele>
        <time>2020-07-10T10:46:15.310Z</time>
      </trkpt>
      <trkpt lat="40.00022392719984" lon="-8.441620795056224">
        <ele>236.82904052734375</ele>
        <time>2020-07-10T10:46:28.001Z</time>
      </trkpt>
      <trkpt lat="40.0002002902329" lon="-8.441734872758389">
        <ele>235.4652557373047</ele>
        <time>2020-07-10T10:46:40.696Z</time>
      </trkpt>
      <trkpt lat="40.00015217810869" lon="-8.441846100613475">
        <ele>232.36447143554688</ele>
        <time>2020-07-10T10:46:53.394Z</time>
      </trkpt>
      <trkpt lat="40.000023264437914" lon="-8.441951628774405">
        <ele>232.0551300048828</ele>
        <time>2020-07-10T10:47:06.099Z</time>
      </trkpt>
      <trkpt lat="39.99992276541889" lon="-8.441971577703953">
        <ele>231.81398010253906</ele>
        <time>2020-07-10T10:47:18.808Z</time>
      </trkpt>
      <trkpt lat="39.99978454783559" lon="-8.441957328468561">
        <ele>231.48231506347656</ele>
        <time>2020-07-10T10:47:31.522Z</time>
      </trkpt>
      <trkpt lat="39.99961196444929" lon="-8.441751971840858">
        <ele>238.2045440673828</ele>
        <time>2020-07-10T10:47:44.246Z</time>
      </trkpt>
      <trkpt lat="39.999537616968155" lon="-8.441734872758389">
        <ele>237.41998291015625</ele>
        <time>2020-07-10T10:47:56.973Z</time>
      </trkpt>
      <trkpt lat="39.99914391897619" lon="-8.441820787265897">
        <ele>235.95986938476562</ele>
        <time>2020-07-10T10:48:09.716Z</time>
      </trkpt>
      <trkpt lat="39.99905792064965" lon="-8.441777871921659">
        <ele>236.01095581054688</ele>
        <time>2020-07-10T10:48:22.462Z</time>
      </trkpt>
      <trkpt lat="39.99897192232311" lon="-8.441501772031188">
        <ele>237.58001708984375</ele>
        <time>2020-07-10T10:48:35.217Z</time>
      </trkpt>
      <trkpt lat="39.9989169370383" lon="-8.441411750391126">
        <ele>238.16209411621094</ele>
        <time>2020-07-10T10:48:47.976Z</time>
      </trkpt>
      <trkpt lat="39.99855391681194" lon="-8.441370846703649">
        <ele>237.7859649658203</ele>
        <time>2020-07-10T10:49:00.749Z</time>
      </trkpt>
      <trkpt lat="39.998380998149514" lon="-8.441425831988454">
        <ele>236.97520446777344</ele>
        <time>2020-07-10T10:49:13.530Z</time>
      </trkpt>
      <trkpt lat="39.998164074495435" lon="-8.44141979701817">
        <ele>236.31138610839844</ele>
        <time>2020-07-10T10:49:26.319Z</time>
      </trkpt>
      <trkpt lat="39.997766772285104" lon="-8.441600762307644">
        <ele>235.76979064941406</ele>
        <time>2020-07-10T10:49:39.125Z</time>
      </trkpt>
      <trkpt lat="39.99763358384371" lon="-8.441612161695957">
        <ele>236.97979736328125</ele>
        <time>2020-07-10T10:49:51.936Z</time>
      </trkpt>
      <trkpt lat="39.99750467017293" lon="-8.441686341539025">
        <ele>237.77215576171875</ele>
        <time>2020-07-10T10:50:04.753Z</time>
      </trkpt>
      <trkpt lat="39.99728824943304" lon="-8.442057156935334">
        <ele>237.6249237060547</ele>
        <time>2020-07-10T10:50:17.584Z</time>
      </trkpt>
      <trkpt lat="39.99716159887612" lon="-8.442208282649517">
        <ele>237.93397521972656</ele>
        <time>2020-07-10T10:50:30.422Z</time>
      </trkpt>
      <trkpt lat="39.997122287750244" lon="-8.442213982343674">
        <ele>238.277099609375</ele>
        <time>2020-07-10T10:50:43.262Z</time>
      </trkpt>
      <trkpt lat="39.99651376157999" lon="-8.44050063751638">
        <ele>248.47377014160156</ele>
        <time>2020-07-10T10:50:56.160Z</time>
      </trkpt>
      <trkpt lat="39.996174881234765" lon="-8.439598828554153">
        <ele>258.3700866699219</ele>
        <time>2020-07-10T10:51:09.089Z</time>
      </trkpt>
      <trkpt lat="39.99609902501106" lon="-8.439334882423282">
        <ele>261.62933349609375</ele>
        <time>2020-07-10T10:51:22.026Z</time>
      </trkpt>
      <trkpt lat="39.996113860979676" lon="-8.439102871343493">
        <ele>264.7917175292969</ele>
        <time>2020-07-10T10:51:34.971Z</time>
      </trkpt>
      <trkpt lat="39.99614177271724" lon="-8.43899960629642">
        <ele>265.943603515625</ele>
        <time>2020-07-10T10:51:47.919Z</time>
      </trkpt>
      <trkpt lat="39.99601713381708" lon="-8.438996756449342">
        <ele>267.4800720214844</ele>
        <time>2020-07-10T10:52:00.872Z</time>
      </trkpt>
      <trkpt lat="39.99579979106784" lon="-8.43908803537488">
        <ele>268.7735290527344</ele>
        <time>2020-07-10T10:52:13.834Z</time>
      </trkpt>
      <trkpt lat="39.99570365063846" lon="-8.43919356353581">
        <ele>268.4076843261719</ele>
        <time>2020-07-10T10:52:26.801Z</time>
      </trkpt>
      <trkpt lat="39.99557892791927" lon="-8.439597906544805">
        <ele>264.08251953125</ele>
        <time>2020-07-10T10:52:39.781Z</time>
      </trkpt>
      <trkpt lat="39.995244992896914" lon="-8.440103838220239">
        <ele>259.3692626953125</ele>
        <time>2020-07-10T10:52:52.782Z</time>
      </trkpt>
      <trkpt lat="39.99482304789126" lon="-8.440611781552434">
        <ele>254.66802978515625</ele>
        <time>2020-07-10T10:53:05.806Z</time>
      </trkpt>
      <trkpt lat="39.99441803433001" lon="-8.44100489281118">
        <ele>250.6566925048828</ele>
        <time>2020-07-10T10:53:18.850Z</time>
      </trkpt>
      <trkpt lat="39.99422105960548" lon="-8.441156772896647">
        <ele>248.96255493164062</ele>
        <time>2020-07-10T10:53:31.903Z</time>
      </trkpt>
      <trkpt lat="39.9941370729357" lon="-8.441189797595143">
        <ele>248.5447998046875</ele>
        <time>2020-07-10T10:53:44.960Z</time>
      </trkpt>
      <trkpt lat="39.993872037157416" lon="-8.441757671535015">
        <ele>242.70706176757812</ele>
        <time>2020-07-10T10:53:58.037Z</time>
      </trkpt>
      <trkpt lat="39.99371596612036" lon="-8.441946851089597">
        <ele>240.34732055664062</ele>
        <time>2020-07-10T10:54:11.123Z</time>
      </trkpt>
      <trkpt lat="39.99323392286897" lon="-8.44202178530395">
        <ele>235.29098510742188</ele>
        <time>2020-07-10T10:54:24.228Z</time>
      </trkpt>
      <trkpt lat="39.992560939863324" lon="-8.44227391295135">
        <ele>230.01718139648438</ele>
        <time>2020-07-10T10:54:37.361Z</time>
      </trkpt>
      <trkpt lat="39.99249002896249" lon="-8.442372819408774">
        <ele>228.9155731201172</ele>
        <time>2020-07-10T10:54:50.498Z</time>
      </trkpt>
      <trkpt lat="39.99126208014786" lon="-8.44345978461206">
        <ele>219.2948760986328</ele>
        <time>2020-07-10T10:55:03.695Z</time>
      </trkpt>
      <trkpt lat="39.99098799191415" lon="-8.443638822063804">
        <ele>219.98509216308594</ele>
        <time>2020-07-10T10:55:16.904Z</time>
      </trkpt>
      <trkpt lat="39.99059303663671" lon="-8.443987844511867">
        <ele>219.6986846923828</ele>
        <time>2020-07-10T10:55:30.132Z</time>
      </trkpt>
      <trkpt lat="39.99031199142337" lon="-8.444213317707181">
        <ele>219.5769805908203</ele>
        <time>2020-07-10T10:55:43.373Z</time>
      </trkpt>
      <trkpt lat="39.98999247327447" lon="-8.444295544177294">
        <ele>221.45997619628906</ele>
        <time>2020-07-10T10:55:56.627Z</time>
      </trkpt>
      <trkpt lat="39.98985903337598" lon="-8.444296047091484">
        <ele>222.73355102539062</ele>
        <time>2020-07-10T10:56:09.887Z</time>
      </trkpt>
      <trkpt lat="39.98974327929318" lon="-8.444324629381299">
        <ele>223.43690490722656</ele>
        <time>2020-07-10T10:56:23.151Z</time>
      </trkpt>
      <trkpt lat="39.98964604921639" lon="-8.444408783689141">
        <ele>223.46144104003906</ele>
        <time>2020-07-10T10:56:36.420Z</time>
      </trkpt>
      <trkpt lat="39.9894833747215" lon="-8.444430335050871">
        <ele>224.55438232421875</ele>
        <time>2020-07-10T10:56:49.695Z</time>
      </trkpt>
      <trkpt lat="39.989483100606094" lon="-8.444430371365986">
        <ele>224.55596923828125</ele>
        <time>2020-07-10T10:57:02.970Z</time>
      </trkpt>
      <trkpt lat="39.98937715776265" lon="-8.44444440677762">
        <ele>225.46807861328125</ele>
        <time>2020-07-10T10:57:16.250Z</time>
      </trkpt>
      <trkpt lat="39.989083958789706" lon="-8.444631909951568">
        <ele>225.93450927734375</ele>
        <time>2020-07-10T10:57:29.543Z</time>
      </trkpt>
      <trkpt lat="39.98884507454932" lon="-8.444647835567594">
        <ele>228.28472900390625</ele>
        <time>2020-07-10T10:57:42.845Z</time>
      </trkpt>
      <trkpt lat="39.98871456831694" lon="-8.444698210805655">
        <ele>228.5657501220703</ele>
        <time>2020-07-10T10:57:56.153Z</time>
      </trkpt>
      <trkpt lat="39.988589929416776" lon="-8.44481228850782">
        <ele>226.7737579345703</ele>
        <time>2020-07-10T10:58:09.467Z</time>
      </trkpt>
      <trkpt lat="39.98837308958173" lon="-8.444892168045044">
        <ele>225.363525390625</ele>
        <time>2020-07-10T10:58:22.790Z</time>
      </trkpt>
      <trkpt lat="39.988199919462204" lon="-8.445000881329179">
        <ele>223.59054565429688</ele>
        <time>2020-07-10T10:58:36.121Z</time>
      </trkpt>
      <trkpt lat="39.98809807933867" lon="-8.445123760029674">
        <ele>221.69918823242188</ele>
        <time>2020-07-10T10:58:49.457Z</time>
      </trkpt>
      <trkpt lat="39.987760623916984" lon="-8.445342779159546">
        <ele>220.88595581054688</ele>
        <time>2020-07-10T10:59:02.808Z</time>
      </trkpt>
      <trkpt lat="39.98747169971466" lon="-8.445702195167542">
        <ele>220.63223266601562</ele>
        <time>2020-07-10T10:59:16.175Z</time>
      </trkpt>
      <trkpt lat="39.98744395561516" lon="-8.445794815197587">
        <ele>220.39871215820312</ele>
        <time>2020-07-10T10:59:29.545Z</time>
      </trkpt>
      <trkpt lat="39.9873296264559" lon="-8.445998830720782">
        <ele>220.07589721679688</ele>
        <time>2020-07-10T10:59:42.923Z</time>
      </trkpt>
      <trkpt lat="39.98714002780616" lon="-8.446200834587216">
        <ele>220.03125</ele>
        <time>2020-07-10T10:59:56.311Z</time>
      </trkpt>
      <trkpt lat="39.98687599785626" lon="-8.446280797943473">
        <ele>220.20135498046875</ele>
        <time>2020-07-10T11:00:09.710Z</time>
      </trkpt>
      <trkpt lat="39.986590929329395" lon="-8.446344919502735">
        <ele>220.3125762939453</ele>
        <time>2020-07-10T11:00:23.120Z</time>
      </trkpt>
      <trkpt lat="39.986418932676315" lon="-8.446453800424933">
        <ele>220.12704467773438</ele>
        <time>2020-07-10T11:00:36.538Z</time>
      </trkpt>
      <trkpt lat="39.98608306981623" lon="-8.446428822353482">
        <ele>220.81747436523438</ele>
        <time>2020-07-10T11:00:49.969Z</time>
      </trkpt>
      <trkpt lat="39.98603998683393" lon="-8.44646486453712">
        <ele>220.7911376953125</ele>
        <time>2020-07-10T11:01:03.402Z</time>
      </trkpt>
      <trkpt lat="39.985920963808894" lon="-8.44727891497314">
        <ele>221.09877014160156</ele>
        <time>2020-07-10T11:01:16.861Z</time>
      </trkpt>
      <trkpt lat="39.985438752919436" lon="-8.447655932977796">
        <ele>222.07717895507812</ele>
        <time>2020-07-10T11:01:30.342Z</time>
      </trkpt>
      <trkpt lat="39.98523465357721" lon="-8.44778367318213">
        <ele>223.27554321289062</ele>
        <time>2020-07-10T11:01:43.832Z</time>
      </trkpt>
      <trkpt lat="39.98496199026704" lon="-8.447882663458586">
        <ele>224.43406677246094</ele>
        <time>2020-07-10T11:01:57.334Z</time>
      </trkpt>
      <trkpt lat="39.98495562002063" lon="-8.44820343889296">
        <ele>227.13577270507812</ele>
        <time>2020-07-10T11:02:10.846Z</time>
      </trkpt>
      <trkpt lat="39.98485604301095" lon="-8.448493117466569">
        <ele>229.70388793945312</ele>
        <time>2020-07-10T11:02:24.367Z</time>
      </trkpt>
      <trkpt lat="39.984724028036" lon="-8.4486676286906">
        <ele>232.58419799804688</ele>
        <time>2020-07-10T11:02:37.896Z</time>
      </trkpt>
      <trkpt lat="39.98461891897023" lon="-8.448757817968726">
        <ele>234.11703491210938</ele>
        <time>2020-07-10T11:02:51.430Z</time>
      </trkpt>
      <trkpt lat="39.98408163897693" lon="-8.448910871520638">
        <ele>236.64505004882812</ele>
        <time>2020-07-10T11:03:04.986Z</time>
      </trkpt>
      <trkpt lat="39.98396806418896" lon="-8.449027799069881">
        <ele>238.4647979736328</ele>
        <time>2020-07-10T11:03:18.548Z</time>
      </trkpt>
      <trkpt lat="39.98386312276125" lon="-8.449578238651156">
        <ele>243.91366577148438</ele>
        <time>2020-07-10T11:03:32.127Z</time>
      </trkpt>
      <trkpt lat="39.9838500469923" lon="-8.450071681290865">
        <ele>245.7691192626953</ele>
        <time>2020-07-10T11:03:45.721Z</time>
      </trkpt>
      <trkpt lat="39.9838674813509" lon="-8.450468145310879">
        <ele>247.6934814453125</ele>
        <time>2020-07-10T11:03:59.327Z</time>
      </trkpt>
      <trkpt lat="39.983852142468095" lon="-8.45078187994659">
        <ele>248.74911499023438</ele>
        <time>2020-07-10T11:04:12.943Z</time>
      </trkpt>
      <trkpt lat="39.98351317830384" lon="-8.450950859114528">
        <ele>246.60690307617188</ele>
        <time>2020-07-10T11:04:26.574Z</time>
      </trkpt>
      <trkpt lat="39.98334897682071" lon="-8.451081868261099">
        <ele>245.17654418945312</ele>
        <time>2020-07-10T11:04:40.212Z</time>
      </trkpt>
      <trkpt lat="39.98316926881671" lon="-8.451249590143561">
        <ele>243.45164489746094</ele>
        <time>2020-07-10T11:04:53.859Z</time>
      </trkpt>
      <trkpt lat="39.98272695578635" lon="-8.45171277411282">
        <ele>240.32730102539062</ele>
        <time>2020-07-10T11:05:07.529Z</time>
      </trkpt>
      <trkpt lat="39.98248907737434" lon="-8.452280899509788">
        <ele>245.1898193359375</ele>
        <time>2020-07-10T11:05:21.219Z</time>
      </trkpt>
      <trkpt lat="39.98225907795131" lon="-8.452426912263036">
        <ele>246.5895538330078</ele>
        <time>2020-07-10T11:05:34.919Z</time>
      </trkpt>
      <trkpt lat="39.98220384120941" lon="-8.452692786231637">
        <ele>248.79737854003906</ele>
        <time>2020-07-10T11:05:48.628Z</time>
      </trkpt>
      <trkpt lat="39.98212957754731" lon="-8.452812563627958">
        <ele>251.11109924316406</ele>
        <time>2020-07-10T11:06:02.341Z</time>
      </trkpt>
      <trkpt lat="39.98202404938638" lon="-8.45286880619824">
        <ele>253.09445190429688</ele>
        <time>2020-07-10T11:06:16.059Z</time>
      </trkpt>
      <trkpt lat="39.981904439628124" lon="-8.452960923314095">
        <ele>256.2533264160156</ele>
        <time>2020-07-10T11:06:29.782Z</time>
      </trkpt>
      <trkpt lat="39.98174484819174" lon="-8.452955223619938">
        <ele>258.2769470214844</ele>
        <time>2020-07-10T11:06:43.512Z</time>
      </trkpt>
      <trkpt lat="39.98164216987789" lon="-8.452918091788888">
        <ele>258.505126953125</ele>
        <time>2020-07-10T11:06:57.246Z</time>
      </trkpt>
      <trkpt lat="39.98167276382446" lon="-8.453146331012249">
        <ele>262.4808044433594</ele>
        <time>2020-07-10T11:07:10.987Z</time>
      </trkpt>
      <trkpt lat="39.98171869665384" lon="-8.453240459784865">
        <ele>263.2876281738281</ele>
        <time>2020-07-10T11:07:24.732Z</time>
      </trkpt>
      <trkpt lat="39.98177762143314" lon="-8.453428633511066">
        <ele>265.374267578125</ele>
        <time>2020-07-10T11:07:38.483Z</time>
      </trkpt>
      <trkpt lat="39.98206595890224" lon="-8.453846806660295">
        <ele>270.19744873046875</ele>
        <time>2020-07-10T11:07:52.251Z</time>
      </trkpt>
      <trkpt lat="39.98221691697836" lon="-8.454121733084321">
        <ele>274.0674133300781</ele>
        <time>2020-07-10T11:08:06.029Z</time>
      </trkpt>
      <trkpt lat="39.98223887756467" lon="-8.454230111092329">
        <ele>275.4087219238281</ele>
        <time>2020-07-10T11:08:19.811Z</time>
      </trkpt>
      <trkpt lat="39.98229126445949" lon="-8.454606626182795">
        <ele>276.6154479980469</ele>
        <time>2020-07-10T11:08:33.605Z</time>
      </trkpt>
      <trkpt lat="39.9822754226625" lon="-8.454717099666595">
        <ele>277.7343444824219</ele>
        <time>2020-07-10T11:08:47.402Z</time>
      </trkpt>
      <trkpt lat="39.98216453008354" lon="-8.454970987513661">
        <ele>282.4505920410156</ele>
        <time>2020-07-10T11:09:01.208Z</time>
      </trkpt>
      <trkpt lat="39.98208657838404" lon="-8.455352447926998">
        <ele>285.1388854980469</ele>
        <time>2020-07-10T11:09:15.026Z</time>
      </trkpt>
      <trkpt lat="39.98198633082211" lon="-8.455349849537015">
        <ele>285.4248352050781</ele>
        <time>2020-07-10T11:09:28.848Z</time>
      </trkpt>
      <trkpt lat="39.981844928115606" lon="-8.454578882083297">
        <ele>283.3691101074219</ele>
        <time>2020-07-10T11:09:42.695Z</time>
      </trkpt>
      <trkpt lat="39.98173705302179" lon="-8.454557927325368">
        <ele>284.0298767089844</ele>
        <time>2020-07-10T11:09:56.546Z</time>
      </trkpt>
      <trkpt lat="39.98152113519609" lon="-8.454610900953412">
        <ele>285.7113342285156</ele>
        <time>2020-07-10T11:10:10.406Z</time>
      </trkpt>
      <trkpt lat="39.981295578181744" lon="-8.454550299793482">
        <ele>287.1896667480469</ele>
        <time>2020-07-10T11:10:24.275Z</time>
      </trkpt>
      <trkpt lat="39.98109449632466" lon="-8.454564549028873">
        <ele>288.1228332519531</ele>
        <time>2020-07-10T11:10:38.152Z</time>
      </trkpt>
      <trkpt lat="39.98088293708861" lon="-8.454705784097314">
        <ele>289.2232360839844</ele>
        <time>2020-07-10T11:10:52.039Z</time>
      </trkpt>
      <trkpt lat="39.98048529960215" lon="-8.454895382747054">
        <ele>289.9609069824219</ele>
        <time>2020-07-10T11:11:05.942Z</time>
      </trkpt>
      <trkpt lat="39.97971751727164" lon="-8.454826902598143">
        <ele>291.3493347167969</ele>
        <time>2020-07-10T11:11:19.876Z</time>
      </trkpt>
      <trkpt lat="39.979553651064634" lon="-8.454838301986456">
        <ele>292.1094665527344</ele>
        <time>2020-07-10T11:11:33.817Z</time>
      </trkpt>
      <trkpt lat="39.979332368820906" lon="-8.454946679994464">
        <ele>293.0251159667969</ele>
        <time>2020-07-10T11:11:47.767Z</time>
      </trkpt>
      <trkpt lat="39.978978065773845" lon="-8.454998815432191">
        <ele>293.7629699707031</ele>
        <time>2020-07-10T11:12:01.731Z</time>
      </trkpt>
      <trkpt lat="39.97891386039555" lon="-8.455103589221835">
        <ele>294.4685363769531</ele>
        <time>2020-07-10T11:12:15.700Z</time>
      </trkpt>
      <trkpt lat="39.97861663810909" lon="-8.455140637233853">
        <ele>295.71392822265625</ele>
        <time>2020-07-10T11:12:29.681Z</time>
      </trkpt>
      <trkpt lat="39.97843206860125" lon="-8.455132758244872">
        <ele>296.79278564453125</ele>
        <time>2020-07-10T11:12:43.669Z</time>
      </trkpt>
      <trkpt lat="39.978315057232976" lon="-8.45531883649528">
        <ele>296.81964111328125</ele>
        <time>2020-07-10T11:12:57.664Z</time>
      </trkpt>
      <trkpt lat="39.97776495292783" lon="-8.455795431509614">
        <ele>297.2995300292969</ele>
        <time>2020-07-10T11:13:11.686Z</time>
      </trkpt>
      <trkpt lat="39.97741903178394" lon="-8.455930883064866">
        <ele>297.4795227050781</ele>
        <time>2020-07-10T11:13:25.722Z</time>
      </trkpt>
      <trkpt lat="39.977030949667096" lon="-8.45619491301477">
        <ele>297.4451904296875</ele>
        <time>2020-07-10T11:13:39.776Z</time>
      </trkpt>
      <trkpt lat="39.976597940549254" lon="-8.456680979579687">
        <ele>297.25421142578125</ele>
        <time>2020-07-10T11:13:53.853Z</time>
      </trkpt>
      <trkpt lat="39.97612092643976" lon="-8.457558816298842">
        <ele>292.85101318359375</ele>
        <time>2020-07-10T11:14:07.963Z</time>
      </trkpt>
      <trkpt lat="39.97561893425882" lon="-8.458082852885127">
        <ele>288.72943115234375</ele>
        <time>2020-07-10T11:14:22.098Z</time>
      </trkpt>
      <trkpt lat="39.97521308250725" lon="-8.458448806777596">
        <ele>287.7706604003906</ele>
        <time>2020-07-10T11:14:36.253Z</time>
      </trkpt>
      <trkpt lat="39.97507696039975" lon="-8.458554754033685">
        <ele>288.1335144042969</ele>
        <time>2020-07-10T11:14:50.414Z</time>
      </trkpt>
      <trkpt lat="39.974876968190074" lon="-8.458647793158889">
        <ele>288.7417297363281</ele>
        <time>2020-07-10T11:15:04.584Z</time>
      </trkpt>
      <trkpt lat="39.97360493056476" lon="-8.459013914689422">
        <ele>293.0046081542969</ele>
        <time>2020-07-10T11:15:18.806Z</time>
      </trkpt>
      <trkpt lat="39.97323612682521" lon="-8.459250619634986">
        <ele>293.1960754394531</ele>
        <time>2020-07-10T11:15:33.044Z</time>
      </trkpt>
      <trkpt lat="39.97298927977681" lon="-8.459611125290394">
        <ele>292.6964416503906</ele>
        <time>2020-07-10T11:15:47.297Z</time>
      </trkpt>
      <trkpt lat="39.972941083833575" lon="-8.459567204117775">
        <ele>293.02801513671875</ele>
        <time>2020-07-10T11:16:01.553Z</time>
      </trkpt>
      <trkpt lat="39.97291476465762" lon="-8.459438877180219">
        <ele>293.58465576171875</ele>
        <time>2020-07-10T11:16:15.813Z</time>
      </trkpt>
      <trkpt lat="39.972761292010546" lon="-8.459011064842343">
        <ele>296.62969970703125</ele>
        <time>2020-07-10T11:16:30.087Z</time>
      </trkpt>
      <trkpt lat="39.972595162689686" lon="-8.458654498681426">
        <ele>299.2229919433594</ele>
        <time>2020-07-10T11:16:44.374Z</time>
      </trkpt>
      <trkpt lat="39.9723301269114" lon="-8.45820958726108">
        <ele>300.0</ele>
        <time>2020-07-10T11:16:58.678Z</time>
      </trkpt>
      <trkpt lat="39.972188053652644" lon="-8.458146806806326">
        <ele>300.0</ele>
        <time>2020-07-10T11:17:12.988Z</time>
      </trkpt>
      <trkpt lat="39.971792260184884" lon="-8.458249233663082">
        <ele>301.0310363769531</ele>
        <time>2020-07-10T11:17:27.314Z</time>
      </trkpt>
      <trkpt lat="39.971621353179216" lon="-8.458132557570934">
        <ele>301.6462097167969</ele>
        <time>2020-07-10T11:17:41.648Z</time>
      </trkpt>
      <trkpt lat="39.97149679809809" lon="-8.457810273393989">
        <ele>301.57769775390625</ele>
        <time>2020-07-10T11:17:55.993Z</time>
      </trkpt>
      <trkpt lat="39.971419936046004" lon="-8.457439793273807">
        <ele>300.26043701171875</ele>
        <time>2020-07-10T11:18:10.350Z</time>
      </trkpt>
      <trkpt lat="39.971403842791915" lon="-8.457279782742262">
        <ele>298.4747009277344</ele>
        <time>2020-07-10T11:18:24.712Z</time>
      </trkpt>
      <trkpt lat="39.97126185335219" lon="-8.457179954275489">
        <ele>296.8856506347656</ele>
        <time>2020-07-10T11:18:39.080Z</time>
      </trkpt>
      <trkpt lat="39.970844350755215" lon="-8.457094375044107">
        <ele>293.5021057128906</ele>
        <time>2020-07-10T11:18:53.465Z</time>
      </trkpt>
      <trkpt lat="39.970424165949225" lon="-8.457068726420403">
        <ele>289.6038513183594</ele>
        <time>2020-07-10T11:19:07.867Z</time>
      </trkpt>
      <trkpt lat="39.96985469944775" lon="-8.456746442243457">
        <ele>277.22247314453125</ele>
        <time>2020-07-10T11:19:22.294Z</time>
      </trkpt>
      <trkpt lat="39.96936016716063" lon="-8.456689361482859">
        <ele>270.42071533203125</ele>
        <time>2020-07-10T11:19:36.741Z</time>
      </trkpt>
      <trkpt lat="39.969086330384016" lon="-8.456886168569326">
        <ele>270.54962158203125</ele>
        <time>2020-07-10T11:19:51.200Z</time>
      </trkpt>
      <trkpt lat="39.968097265809774" lon="-8.456931849941611">
        <ele>263.28143310546875</ele>
        <time>2020-07-10T11:20:05.699Z</time>
      </trkpt>
      <trkpt lat="39.967399975284934" lon="-8.45692983828485">
        <ele>257.56878662109375</ele>
        <time>2020-07-10T11:20:20.226Z</time>
      </trkpt>
      <trkpt lat="39.96699093841016" lon="-8.456999910995364">
        <ele>255.36062622070312</ele>
        <time>2020-07-10T11:20:34.769Z</time>
      </trkpt>
      <trkpt lat="39.966910975053906" lon="-8.456979794427752">
        <ele>254.55482482910156</ele>
        <time>2020-07-10T11:20:49.316Z</time>
      </trkpt>
      <trkpt lat="39.96659095399082" lon="-8.456549802795053">
        <ele>254.33096313476562</ele>
        <time>2020-07-10T11:21:03.881Z</time>
      </trkpt>
      <trkpt lat="39.9651637673378" lon="-8.458009930327535">
        <ele>254.32521057128906</ele>
        <time>2020-07-10T11:21:18.519Z</time>
      </trkpt>
      <trkpt lat="39.964561024680734" lon="-8.459259839728475">
        <ele>255.7024688720703</ele>
        <time>2020-07-10T11:21:33.202Z</time>
      </trkpt>
      <trkpt lat="39.96405375190079" lon="-8.459798209369183">
        <ele>254.11497497558594</ele>
        <time>2020-07-10T11:21:47.911Z</time>
      </trkpt>
      <trkpt lat="39.963360065594316" lon="-8.459199825301766">
        <ele>252.6908416748047</ele>
        <time>2020-07-10T11:22:02.653Z</time>
      </trkpt>
      <trkpt lat="39.96241006068885" lon="-8.458529775962234">
        <ele>256.3796081542969</ele>
        <time>2020-07-10T11:22:17.439Z</time>
      </trkpt>
      <trkpt lat="39.96217595413327" lon="-8.458329364657402">
        <ele>259.2969970703125</ele>
        <time>2020-07-10T11:22:32.236Z</time>
      </trkpt>
      <trkpt lat="39.96208794414997" lon="-8.458272367715836">
        <ele>261.45916748046875</ele>
        <time>2020-07-10T11:22:47.037Z</time>
      </trkpt>
      <trkpt lat="39.96187378652394" lon="-8.458238085731864">
        <ele>264.97998046875</ele>
        <time>2020-07-10T11:23:01.846Z</time>
      </trkpt>
      <trkpt lat="39.96161084622145" lon="-8.458657348528504">
        <ele>264.7237243652344</ele>
        <time>2020-07-10T11:23:16.672Z</time>
      </trkpt>
      <trkpt lat="39.96145075187087" lon="-8.458845606073737">
        <ele>265.89935302734375</ele>
        <time>2020-07-10T11:23:31.507Z</time>
      </trkpt>
      <trkpt lat="39.961319575086236" lon="-8.458876954391599">
        <ele>267.59991455078125</ele>
        <time>2020-07-10T11:23:46.347Z</time>
      </trkpt>
      <trkpt lat="39.961231062188745" lon="-8.458959767594934">
        <ele>268.2424621582031</ele>
        <time>2020-07-10T11:24:01.191Z</time>
      </trkpt>
      <trkpt lat="39.96086091734469" lon="-8.459149869158864">
        <ele>268.434326171875</ele>
        <time>2020-07-10T11:24:16.051Z</time>
      </trkpt>
      <trkpt lat="39.960480043664575" lon="-8.45918976701796">
        <ele>269.5658874511719</ele>
        <time>2020-07-10T11:24:30.927Z</time>
      </trkpt>
      <trkpt lat="39.96037292294204" lon="-8.459404595196247">
        <ele>268.2117004394531</ele>
        <time>2020-07-10T11:24:45.810Z</time>
      </trkpt>
      <trkpt lat="39.959861962124705" lon="-8.45950978808105">
        <ele>267.01251220703125</ele>
        <time>2020-07-10T11:25:00.714Z</time>
      </trkpt>
      <trkpt lat="39.95896107517183" lon="-8.459309795871377">
        <ele>264.9669189453125</ele>
        <time>2020-07-10T11:25:15.655Z</time>
      </trkpt>
      <trkpt lat="39.95875203050673" lon="-8.459349861368537">
        <ele>262.8747253417969</ele>
        <time>2020-07-10T11:25:30.604Z</time>
      </trkpt>
      <trkpt lat="39.958611046895385" lon="-8.45922983251512">
        <ele>262.15081787109375</ele>
        <time>2020-07-10T11:25:45.560Z</time>
      </trkpt>
      <trkpt lat="39.95844994671643" lon="-8.459199825301766">
        <ele>260.59124755859375</ele>
        <time>2020-07-10T11:26:00.522Z</time>
      </trkpt>
      <trkpt lat="39.95804996229708" lon="-8.458859855309129">
        <ele>258.3116149902344</ele>
        <time>2020-07-10T11:26:15.503Z</time>
      </trkpt>
      <trkpt lat="39.957560962066054" lon="-8.458859855309129">
        <ele>256.79681396484375</ele>
        <time>2020-07-10T11:26:30.504Z</time>
      </trkpt>
      <trkpt lat="39.957062071189284" lon="-8.458629855886102">
        <ele>255.7384796142578</ele>
        <time>2020-07-10T11:26:45.526Z</time>
      </trkpt>
      <trkpt lat="39.95665001682937" lon="-8.458509827032685">
        <ele>257.51336669921875</ele>
        <time>2020-07-10T11:27:00.565Z</time>
      </trkpt>
      <trkpt lat="39.95631046593189" lon="-8.458489123731852">
        <ele>258.7812194824219</ele>
        <time>2020-07-10T11:27:15.618Z</time>
      </trkpt>
      <trkpt lat="39.95562289841473" lon="-8.45856036990881">
        <ele>265.693115234375</ele>
        <time>2020-07-10T11:27:30.698Z</time>
      </trkpt>
      <trkpt lat="39.955345122143626" lon="-8.458740077912807">
        <ele>267.6921691894531</ele>
        <time>2020-07-10T11:27:45.791Z</time>
      </trkpt>
      <trkpt lat="39.95524185709655" lon="-8.458608901128173">
        <ele>267.564453125</ele>
        <time>2020-07-10T11:28:00.889Z</time>
      </trkpt>
      <trkpt lat="39.9552134424448" lon="-8.458443442359567">
        <ele>268.82373046875</ele>
        <time>2020-07-10T11:28:15.993Z</time>
      </trkpt>
      <trkpt lat="39.955141358077526" lon="-8.458432042971253">
        <ele>269.0787658691406</ele>
        <time>2020-07-10T11:28:31.099Z</time>
      </trkpt>
      <trkpt lat="39.95500573888421" lon="-8.458603201434016">
        <ele>268.17205810546875</ele>
        <time>2020-07-10T11:28:46.213Z</time>
      </trkpt>
      <trkpt lat="39.9548040702939" lon="-8.458480490371585">
        <ele>269.53936767578125</ele>
        <time>2020-07-10T11:29:01.336Z</time>
      </trkpt>
      <trkpt lat="39.95473416522145" lon="-8.458374962210655">
        <ele>270.466796875</ele>
        <time>2020-07-10T11:29:16.463Z</time>
      </trkpt>
      <trkpt lat="39.954602317884564" lon="-8.458320815116167">
        <ele>271.1729736328125</ele>
        <time>2020-07-10T11:29:31.596Z</time>
      </trkpt>
      <trkpt lat="39.95444716885686" lon="-8.458323664963245">
        <ele>269.9815368652344</ele>
        <time>2020-07-10T11:29:46.735Z</time>
      </trkpt>
      <trkpt lat="39.954201746732" lon="-8.458503372967243">
        <ele>266.3321838378906</ele>
        <time>2020-07-10T11:30:01.885Z</time>
      </trkpt>
      <trkpt lat="39.95406403206289" lon="-8.458446292206645">
        <ele>265.4212646484375</ele>
        <time>2020-07-10T11:30:17.041Z</time>
      </trkpt>
      <trkpt lat="39.95394157245755" lon="-8.457847321406007">
        <ele>269.09283447265625</ele>
        <time>2020-07-10T11:30:32.216Z</time>
      </trkpt>
      <trkpt lat="39.9537009280175" lon="-8.456999910995364">
        <ele>271.9650573730469</ele>
        <time>2020-07-10T11:30:47.419Z</time>
      </trkpt>
      <trkpt lat="39.95336162857711" lon="-8.456369927152991">
        <ele>275.9346923828125</ele>
        <time>2020-07-10T11:31:02.645Z</time>
      </trkpt>
      <trkpt lat="39.95322173461318" lon="-8.456261549144983">
        <ele>278.0576477050781</ele>
        <time>2020-07-10T11:31:17.878Z</time>
      </trkpt>
      <trkpt lat="39.95311561971903" lon="-8.455990562215447">
        <ele>281.0114440917969</ele>
        <time>2020-07-10T11:31:33.120Z</time>
      </trkpt>
      <trkpt lat="39.95305887423456" lon="-8.45570825971663">
        <ele>281.3606262207031</ele>
        <time>2020-07-10T11:31:48.371Z</time>
      </trkpt>
      <trkpt lat="39.952855445444584" lon="-8.45544297248125">
        <ele>284.4918518066406</ele>
        <time>2020-07-10T11:32:03.634Z</time>
      </trkpt>
      <trkpt lat="39.952927278354764" lon="-8.45491474494338">
        <ele>282.67437744140625</ele>
        <time>2020-07-10T11:32:18.913Z</time>
      </trkpt>
      <trkpt lat="39.952937085181475" lon="-8.453866839408875">
        <ele>280.9305725097656</ele>
        <time>2020-07-10T11:32:34.225Z</time>
      </trkpt>
      <trkpt lat="39.95299223810434" lon="-8.45376692712307">
        <ele>280.8394470214844</ele>
        <time>2020-07-10T11:32:49.540Z</time>
      </trkpt>
      <trkpt lat="39.95301897637546" lon="-8.453575484454632">
        <ele>281.138427734375</ele>
        <time>2020-07-10T11:33:04.861Z</time>
      </trkpt>
      <trkpt lat="39.95296927168965" lon="-8.453483954071999">
        <ele>281.7030944824219</ele>
        <time>2020-07-10T11:33:20.186Z</time>
      </trkpt>
      <trkpt lat="39.95295359753072" lon="-8.453405164182186">
        <ele>282.40863037109375</ele>
        <time>2020-07-10T11:33:35.513Z</time>
      </trkpt>
      <trkpt lat="39.95287195779383" lon="-8.453346909955144">
        <ele>283.0870361328125</ele>
        <time>2020-07-10T11:33:50.844Z</time>
      </trkpt>
      <trkpt lat="39.95227097533643" lon="-8.451829785481095">
        <ele>291.9582824707031</ele>
        <time>2020-07-10T11:34:06.227Z</time>
      </trkpt>
      <trkpt lat="39.9519809614867" lon="-8.451699865981936">
        <ele>291.0571594238281</ele>
        <time>2020-07-10T11:34:21.623Z</time>
      </trkpt>
      <trkpt lat="39.951720954850316" lon="-8.451339779421687">
        <ele>288.4773254394531</ele>
        <time>2020-07-10T11:34:37.034Z</time>
      </trkpt>
      <trkpt lat="39.951011929661036" lon="-8.451069882139564">
        <ele>286.60418701171875</ele>
        <time>2020-07-10T11:34:52.474Z</time>
      </trkpt>
      <trkpt lat="39.95028312318027" lon="-8.451010789722204">
        <ele>279.2762451171875</ele>
        <time>2020-07-10T11:35:07.944Z</time>
      </trkpt>
      <trkpt lat="39.94963092729449" lon="-8.45082982443273">
        <ele>269.8291931152344</ele>
        <time>2020-07-10T11:35:23.440Z</time>
      </trkpt>
      <trkpt lat="39.94929104112089" lon="-8.450709795579314">
        <ele>265.5830078125</ele>
        <time>2020-07-10T11:35:38.950Z</time>
      </trkpt>
      <trkpt lat="39.9490450322628" lon="-8.450503097847104">
        <ele>263.0425720214844</ele>
        <time>2020-07-10T11:35:54.472Z</time>
      </trkpt>
      <trkpt lat="39.94866466149688" lon="-8.450015354901552">
        <ele>263.40802001953125</ele>
        <time>2020-07-10T11:36:10.015Z</time>
      </trkpt>
      <trkpt lat="39.94848042726517" lon="-8.449935475364327">
        <ele>265.2134704589844</ele>
        <time>2020-07-10T11:36:25.566Z</time>
      </trkpt>
      <trkpt lat="39.94802503846586" lon="-8.449695920571685">
        <ele>269.9288024902344</ele>
        <time>2020-07-10T11:36:41.137Z</time>
      </trkpt>
      <trkpt lat="39.947551963850856" lon="-8.449199879541993">
        <ele>272.7012023925781</ele>
        <time>2020-07-10T11:36:56.732Z</time>
      </trkpt>
      <trkpt lat="39.9471699167043" lon="-8.44899988733232">
        <ele>272.7711486816406</ele>
        <time>2020-07-10T11:37:12.344Z</time>
      </trkpt>
      <trkpt lat="39.946689968928695" lon="-8.448549779132009">
        <ele>271.1921081542969</ele>
        <time>2020-07-10T11:37:27.979Z</time>
      </trkpt>
      <trkpt lat="39.9467000272125" lon="-8.448289772495627">
        <ele>269.72119140625</ele>
        <time>2020-07-10T11:37:43.622Z</time>
      </trkpt>
      <trkpt lat="39.94633482769132" lon="-8.448053067550063">
        <ele>271.9146728515625</ele>
        <time>2020-07-10T11:37:59.282Z</time>
      </trkpt>
      <trkpt lat="39.94614849798381" lon="-8.447904791682959">
        <ele>274.55267333984375</ele>
        <time>2020-07-10T11:38:14.950Z</time>
      </trkpt>
      <trkpt lat="39.945551455020905" lon="-8.447836311534047">
        <ele>269.2281494140625</ele>
        <time>2020-07-10T11:38:30.642Z</time>
      </trkpt>
      <trkpt lat="39.945417596027255" lon="-8.447747882455587">
        <ele>266.8794250488281</ele>
        <time>2020-07-10T11:38:46.340Z</time>
      </trkpt>
      <trkpt lat="39.94533444754779" lon="-8.447625255212188">
        <ele>264.9959411621094</ele>
        <time>2020-07-10T11:39:02.043Z</time>
      </trkpt>
      <trkpt lat="39.94529077783227" lon="-8.447066182270646">
        <ele>263.74884033203125</ele>
        <time>2020-07-10T11:39:17.764Z</time>
      </trkpt>
      <trkpt lat="39.94527108035982" lon="-8.446489842608571">
        <ele>264.0000915527344</ele>
        <time>2020-07-10T11:39:33.502Z</time>
      </trkpt>
      <trkpt lat="39.94503437541425" lon="-8.446259088814259">
        <ele>262.0575866699219</ele>
        <time>2020-07-10T11:39:49.252Z</time>
      </trkpt>
      <trkpt lat="39.94476322084665" lon="-8.445916771888733">
        <ele>262.184326171875</ele>
        <time>2020-07-10T11:40:05.017Z</time>
      </trkpt>
      <trkpt lat="39.94454185478389" lon="-8.44532928429544">
        <ele>262.9154052734375</ele>
        <time>2020-07-10T11:40:20.802Z</time>
      </trkpt>
      <trkpt lat="39.944519978016615" lon="-8.445180924609303">
        <ele>263.2796936035156</ele>
        <time>2020-07-10T11:40:36.592Z</time>
      </trkpt>
      <trkpt lat="39.94477093219757" lon="-8.445059889927506">
        <ele>264.11956787109375</ele>
        <time>2020-07-10T11:40:52.393Z</time>
      </trkpt>
      <trkpt lat="39.944930942729115" lon="-8.443909892812371">
        <ele>262.716552734375</ele>
        <time>2020-07-10T11:41:08.230Z</time>
      </trkpt>
      <trkpt lat="39.944671941921115" lon="-8.443259792402387">
        <ele>258.57470703125</ele>
        <time>2020-07-10T11:41:24.089Z</time>
      </trkpt>
      <trkpt lat="39.94458116590977" lon="-8.442961983382702">
        <ele>259.56829833984375</ele>
        <time>2020-07-10T11:41:39.958Z</time>
      </trkpt>
      <trkpt lat="39.94457898661494" lon="-8.442636849358678">
        <ele>261.02410888671875</ele>
        <time>2020-07-10T11:41:55.837Z</time>
      </trkpt>
      <trkpt lat="39.94452995248139" lon="-8.442479772493243">
        <ele>261.1593933105469</ele>
        <time>2020-07-10T11:42:11.721Z</time>
      </trkpt>
      <trkpt lat="39.944000635296106" lon="-8.442220436409116">
        <ele>259.4519348144531</ele>
        <time>2020-07-10T11:42:27.628Z</time>
      </trkpt>
      <trkpt lat="39.94356192648411" lon="-8.441809890791774">
        <ele>259.90338134765625</ele>
        <time>2020-07-10T11:42:43.557Z</time>
      </trkpt>
      <trkpt lat="39.943379033356905" lon="-8.441156605258584">
        <ele>261.4620056152344</ele>
        <time>2020-07-10T11:42:59.507Z</time>
      </trkpt>
      <trkpt lat="39.94328725151718" lon="-8.440885618329048">
        <ele>263.07373046875</ele>
        <time>2020-07-10T11:43:15.466Z</time>
      </trkpt>
      <trkpt lat="39.94302204810083" lon="-8.440349427983165">
        <ele>262.457275390625</ele>
        <time>2020-07-10T11:43:31.445Z</time>
      </trkpt>
      <trkpt lat="39.94278592988849" lon="-8.439978612586856">
        <ele>261.5738525390625</ele>
        <time>2020-07-10T11:43:47.438Z</time>
      </trkpt>
      <trkpt lat="39.94258099235594" lon="-8.43930990435183">
        <ele>260.78271484375</ele>
        <time>2020-07-10T11:44:03.454Z</time>
      </trkpt>
      <trkpt lat="39.94203197769821" lon="-8.439189875498414">
        <ele>260.53369140625</ele>
        <time>2020-07-10T11:44:19.492Z</time>
      </trkpt>
      <trkpt lat="39.941206527873874" lon="-8.438675226643682">
        <ele>253.8995819091797</ele>
        <time>2020-07-10T11:44:35.566Z</time>
      </trkpt>
      <trkpt lat="39.94032206945121" lon="-8.437306126579642">
        <ele>254.82687377929688</ele>
        <time>2020-07-10T11:44:51.695Z</time>
      </trkpt>
      <trkpt lat="39.94016457349062" lon="-8.43715500086546">
        <ele>252.58224487304688</ele>
        <time>2020-07-10T11:45:07.832Z</time>
      </trkpt>
      <trkpt lat="39.93967892602086" lon="-8.436888875439763">
        <ele>252.7274627685547</ele>
        <time>2020-07-10T11:45:23.990Z</time>
      </trkpt>
      <trkpt lat="39.93976098485291" lon="-8.436508839949965">
        <ele>251.64646911621094</ele>
        <time>2020-07-10T11:45:40.160Z</time>
      </trkpt>
      <trkpt lat="39.93974195793271" lon="-8.436236595734954">
        <ele>250.68939208984375</ele>
        <time>2020-07-10T11:45:56.339Z</time>
      </trkpt>
      <trkpt lat="39.93968077003956" lon="-8.43606828711927">
        <ele>250.156982421875</ele>
        <time>2020-07-10T11:46:12.524Z</time>
      </trkpt>
      <trkpt lat="39.939661072567105" lon="-8.435842981562018">
        <ele>249.58029174804688</ele>
        <time>2020-07-10T11:46:28.716Z</time>
      </trkpt>
      <trkpt lat="39.93968705646694" lon="-8.435597894713283">
        <ele>248.72930908203125</ele>
        <time>2020-07-10T11:46:44.915Z</time>
      </trkpt>
      <trkpt lat="39.9396457336843" lon="-8.434679321944714">
        <ele>248.403076171875</ele>
        <time>2020-07-10T11:47:01.143Z</time>
      </trkpt>
      <trkpt lat="39.939522771164775" lon="-8.434017654508352">
        <ele>248.333251953125</ele>
        <time>2020-07-10T11:47:17.391Z</time>
      </trkpt>
      <trkpt lat="39.93922253139317" lon="-8.433490013703704">
        <ele>246.88438415527344</ele>
        <time>2020-07-10T11:47:33.660Z</time>
      </trkpt>
      <trkpt lat="39.939141646027565" lon="-8.433301756158471">
        <ele>244.61880493164062</ele>
        <time>2020-07-10T11:47:49.935Z</time>
      </trkpt>
      <trkpt lat="39.93900552392006" lon="-8.433124898001552">
        <ele>243.16099548339844</ele>
        <time>2020-07-10T11:48:06.218Z</time>
      </trkpt>
      <trkpt lat="39.93882623501122" lon="-8.433062117546797">
        <ele>244.0967559814453</ele>
        <time>2020-07-10T11:48:22.508Z</time>
      </trkpt>
      <trkpt lat="39.938409654423594" lon="-8.432990871369839">
        <ele>243.80470275878906</ele>
        <time>2020-07-10T11:48:38.815Z</time>
      </trkpt>
      <trkpt lat="39.9378776550293" lon="-8.432757016271353">
        <ele>245.44134521484375</ele>
        <time>2020-07-10T11:48:55.145Z</time>
      </trkpt>
      <trkpt lat="39.93720098398626" lon="-8.432578900828958">
        <ele>242.3660888671875</ele>
        <time>2020-07-10T11:49:11.502Z</time>
      </trkpt>
      <trkpt lat="39.93698506616056" lon="-8.432377902790904">
        <ele>238.7277374267578</ele>
        <time>2020-07-10T11:49:27.870Z</time>
      </trkpt>
      <trkpt lat="39.93632306344807" lon="-8.431879850104451">
        <ele>228.9220428466797</ele>
        <time>2020-07-10T11:49:44.268Z</time>
      </trkpt>
      <trkpt lat="39.936018884181976" lon="-8.43171020038426">
        <ele>223.88551330566406</ele>
        <time>2020-07-10T11:50:00.680Z</time>
      </trkpt>
      <trkpt lat="39.9357689358294" lon="-8.431610455736518">
        <ele>219.57022094726562</ele>
        <time>2020-07-10T11:50:17.102Z</time>
      </trkpt>
      <trkpt lat="39.935471545904875" lon="-8.431442147120833">
        <ele>216.7920684814453</ele>
        <time>2020-07-10T11:50:33.537Z</time>
      </trkpt>
      <trkpt lat="39.93496309965849" lon="-8.430985836312175">
        <ele>212.87998962402344</ele>
        <time>2020-07-10T11:50:49.997Z</time>
      </trkpt>
      <trkpt lat="39.9347810447216" lon="-8.430886007845402">
        <ele>212.24581909179688</ele>
        <time>2020-07-10T11:51:06.465Z</time>
      </trkpt>
      <trkpt lat="39.93475045077503" lon="-8.43106278218329">
        <ele>212.12335205078125</ele>
        <time>2020-07-10T11:51:22.938Z</time>
      </trkpt>
      <trkpt lat="39.93464986793697" lon="-8.431390766054392">
        <ele>212.82118225097656</ele>
        <time>2020-07-10T11:51:39.422Z</time>
      </trkpt>
      <trkpt lat="39.93449597619474" lon="-8.43170584179461">
        <ele>213.03317260742188</ele>
        <time>2020-07-10T11:51:55.918Z</time>
      </trkpt>
      <trkpt lat="39.934170339256525" lon="-8.431881358847022">
        <ele>211.32073974609375</ele>
        <time>2020-07-10T11:52:12.428Z</time>
      </trkpt>
      <trkpt lat="39.933784855529666" lon="-8.432055367156863">
        <ele>209.1720428466797</ele>
        <time>2020-07-10T11:52:28.954Z</time>
      </trkpt>
      <trkpt lat="39.93323491886258" lon="-8.432511845603585">
        <ele>209.27532958984375</ele>
        <time>2020-07-10T11:52:45.506Z</time>
      </trkpt>
      <trkpt lat="39.93281205184758" lon="-8.43230883590877">
        <ele>208.12384033203125</ele>
        <time>2020-07-10T11:53:02.076Z</time>
      </trkpt>
      <trkpt lat="39.93220302276313" lon="-8.432550905272365">
        <ele>214.40057373046875</ele>
        <time>2020-07-10T11:53:18.672Z</time>
      </trkpt>
      <trkpt lat="39.932051645591855" lon="-8.432600107043982">
        <ele>215.7367706298828</ele>
        <time>2020-07-10T11:53:35.274Z</time>
      </trkpt>
      <trkpt lat="39.93185047991574" lon="-8.432634305208921">
        <ele>215.90089416503906</ele>
        <time>2020-07-10T11:53:51.884Z</time>
      </trkpt>
      <trkpt lat="39.93171921931207" lon="-8.43267428688705">
        <ele>216.0927734375</ele>
        <time>2020-07-10T11:54:08.499Z</time>
      </trkpt>
      <trkpt lat="39.931504894047976" lon="-8.432788364589214">
        <ele>216.6402587890625</ele>
        <time>2020-07-10T11:54:25.124Z</time>
      </trkpt>
      <trkpt lat="39.93134303949773" lon="-8.433079300448298">
        <ele>218.03651428222656</ele>
        <time>2020-07-10T11:54:41.760Z</time>
      </trkpt>
      <trkpt lat="39.93151302449405" lon="-8.43376980163157">
        <ele>222.33824157714844</ele>
        <time>2020-07-10T11:54:58.418Z</time>
      </trkpt>
      <trkpt lat="39.931456027552485" lon="-8.434018911793828">
        <ele>223.32861328125</ele>
        <time>2020-07-10T11:55:15.084Z</time>
      </trkpt>
      <trkpt lat="39.93122502230108" lon="-8.434354858472943">
        <ele>224.20474243164062</ele>
        <time>2020-07-10T11:55:31.764Z</time>
      </trkpt>
      <trkpt lat="39.93090013973415" lon="-8.434482514858246">
        <ele>224.1307830810547</ele>
        <time>2020-07-10T11:55:48.457Z</time>
      </trkpt>
      <trkpt lat="39.93073392659426" lon="-8.43449106439948">
        <ele>223.6043243408203</ele>
        <time>2020-07-10T11:56:05.157Z</time>
      </trkpt>
      <trkpt lat="39.93064424023032" lon="-8.434468265622854">
        <ele>223.09002685546875</ele>
        <time>2020-07-10T11:56:21.861Z</time>
      </trkpt>
      <trkpt lat="39.930324386805296" lon="-8.434325689449906">
        <ele>221.02272033691406</ele>
        <time>2020-07-10T11:56:38.578Z</time>
      </trkpt>
      <trkpt lat="39.930019872263074" lon="-8.434051852673292">
        <ele>219.7039794921875</ele>
        <time>2020-07-10T11:56:55.310Z</time>
      </trkpt>
      <trkpt lat="39.92926851846278" lon="-8.433604091405869">
        <ele>220.22976684570312</ele>
        <time>2020-07-10T11:57:12.075Z</time>
      </trkpt>
      <trkpt lat="39.92911328561604" lon="-8.433586992323399">
        <ele>220.76800537109375</ele>
        <time>2020-07-10T11:57:28.846Z</time>
      </trkpt>
      <trkpt lat="39.92899895645678" lon="-8.433646755293012">
        <ele>221.251220703125</ele>
        <time>2020-07-10T11:57:45.622Z</time>
      </trkpt>
      <trkpt lat="39.928875993937254" lon="-8.433815147727728">
        <ele>221.89584350585938</ele>
        <time>2020-07-10T11:58:02.405Z</time>
      </trkpt>
      <trkpt lat="39.92819798178971" lon="-8.435432268306613">
        <ele>227.66444396972656</ele>
        <time>2020-07-10T11:58:19.245Z</time>
      </trkpt>
      <trkpt lat="39.927838146686554" lon="-8.435908611863852">
        <ele>228.4881591796875</ele>
        <time>2020-07-10T11:58:36.106Z</time>
      </trkpt>
      <trkpt lat="39.9270567856729" lon="-8.436250844970345">
        <ele>226.2227783203125</ele>
        <time>2020-07-10T11:58:53.000Z</time>
      </trkpt>
      <trkpt lat="39.92670625448227" lon="-8.43647045083344">
        <ele>226.43557739257812</ele>
        <time>2020-07-10T11:59:09.909Z</time>
      </trkpt>
      <trkpt lat="39.92623879574239" lon="-8.436707239598036">
        <ele>226.17666625976562</ele>
        <time>2020-07-10T11:59:26.838Z</time>
      </trkpt>
      <trkpt lat="39.92556078359485" lon="-8.43692684546113">
        <ele>224.25282287597656</ele>
        <time>2020-07-10T11:59:43.795Z</time>
      </trkpt>
      <trkpt lat="39.92467984557152" lon="-8.437548615038395">
        <ele>229.9622802734375</ele>
        <time>2020-07-10T12:00:00.792Z</time>
      </trkpt>
      <trkpt lat="39.92388197220862" lon="-8.438459811732173">
        <ele>226.45310974121094</ele>
        <time>2020-07-10T12:00:17.832Z</time>
      </trkpt>
      <trkpt lat="39.922989048063755" lon="-8.438749322667718">
        <ele>223.42726135253906</ele>
        <time>2020-07-10T12:00:34.908Z</time>
      </trkpt>
      <trkpt lat="39.92253097705543" lon="-8.438849905505776">
        <ele>224.49440002441406</ele>
        <time>2020-07-10T12:00:52.003Z</time>
      </trkpt>
      <trkpt lat="39.9216500390321" lon="-8.438319833949208">
        <ele>225.3988037109375</ele>
        <time>2020-07-10T12:01:09.137Z</time>
      </trkpt>
      <trkpt lat="39.92179102264345" lon="-8.437799820676446">
        <ele>222.37696838378906</ele>
        <time>2020-07-10T12:01:26.288Z</time>
      </trkpt>
      <trkpt lat="39.92179102264345" lon="-8.437619777396321">
        <ele>220.77845764160156</ele>
        <time>2020-07-10T12:01:43.444Z</time>
      </trkpt>
      <trkpt lat="39.9216793756932" lon="-8.437465885654092">
        <ele>219.45339965820312</ele>
        <time>2020-07-10T12:02:00.607Z</time>
      </trkpt>
      <trkpt lat="39.91838092915714" lon="-8.437109822407365">
        <ele>202.01382446289062</ele>
        <time>2020-07-10T12:02:17.902Z</time>
      </trkpt>
      <trkpt lat="39.91758498363197" lon="-8.436607411131263">
        <ele>196.4737091064453</ele>
        <time>2020-07-10T12:02:35.232Z</time>
      </trkpt>
      <trkpt lat="39.91721919737756" lon="-8.436410604044795">
        <ele>195.34706115722656</ele>
        <time>2020-07-10T12:02:52.578Z</time>
      </trkpt>
      <trkpt lat="39.91639777086675" lon="-8.436159566044807">
        <ele>192.5712127685547</ele>
        <time>2020-07-10T12:03:09.958Z</time>
      </trkpt>
      <trkpt lat="39.9147979170084" lon="-8.435814818367362">
        <ele>193.38528442382812</ele>
        <time>2020-07-10T12:03:27.403Z</time>
      </trkpt>
      <trkpt lat="39.913903987035155" lon="-8.43563980422914">
        <ele>196.43362426757812</ele>
        <time>2020-07-10T12:03:44.884Z</time>
      </trkpt>
      <trkpt lat="39.913006369024515" lon="-8.435303941369057">
        <ele>199.2314910888672</ele>
        <time>2020-07-10T12:04:02.402Z</time>
      </trkpt>
      <trkpt lat="39.91252197884023" lon="-8.435216853395104">
        <ele>202.5755615234375</ele>
        <time>2020-07-10T12:04:19.940Z</time>
      </trkpt>
      <trkpt lat="39.91120199672878" lon="-8.43535683117807">
        <ele>211.0797576904297</ele>
        <time>2020-07-10T12:04:37.531Z</time>
      </trkpt>
      <trkpt lat="39.91041996516287" lon="-8.435470825061202">
        <ele>214.1556854248047</ele>
        <time>2020-07-10T12:04:55.153Z</time>
      </trkpt>
      <trkpt lat="39.90930802188814" lon="-8.435295391827822">
        <ele>216.1600341796875</ele>
        <time>2020-07-10T12:05:12.820Z</time>
      </trkpt>
      <trkpt lat="39.90915924310684" lon="-8.435124233365059">
        <ele>216.88790893554688</ele>
        <time>2020-07-10T12:05:30.495Z</time>
      </trkpt>
      <trkpt lat="39.90893092006445" lon="-8.43492784537375">
        <ele>216.36956787109375</ele>
        <time>2020-07-10T12:05:48.181Z</time>
      </trkpt>
      <trkpt lat="39.90811594761908" lon="-8.434367766603827">
        <ele>220.4300079345703</ele>
        <time>2020-07-10T12:06:05.904Z</time>
      </trkpt>
      <trkpt lat="39.90797186270356" lon="-8.434242960065603">
        <ele>220.26251220703125</ele>
        <time>2020-07-10T12:06:23.634Z</time>
      </trkpt>
      <trkpt lat="39.907794669270515" lon="-8.434237260371447">
        <ele>220.774658203125</ele>
        <time>2020-07-10T12:06:41.371Z</time>
      </trkpt>
      <trkpt lat="39.90717097185552" lon="-8.434360893443227">
        <ele>223.48855590820312</ele>
        <time>2020-07-10T12:06:59.133Z</time>
      </trkpt>
      <trkpt lat="39.90699662826955" lon="-8.434379836544394">
        <ele>224.13902282714844</ele>
        <time>2020-07-10T12:07:16.902Z</time>
      </trkpt>
      <trkpt lat="39.90653227083385" lon="-8.434311356395483">
        <ele>223.9873504638672</ele>
        <time>2020-07-10T12:07:34.690Z</time>
      </trkpt>
      <trkpt lat="39.905610932037234" lon="-8.434072891250253">
        <ele>228.9453582763672</ele>
        <time>2020-07-10T12:07:52.515Z</time>
      </trkpt>
      <trkpt lat="39.90538411773741" lon="-8.433989072218537">
        <ele>229.60067749023438</ele>
        <time>2020-07-10T12:08:10.350Z</time>
      </trkpt>
      <trkpt lat="39.904830073937774" lon="-8.433498563244939">
        <ele>235.7397003173828</ele>
        <time>2020-07-10T12:08:28.211Z</time>
      </trkpt>
      <trkpt lat="39.90465288050473" lon="-8.433427233248949">
        <ele>238.19537353515625</ele>
        <time>2020-07-10T12:08:46.080Z</time>
      </trkpt>
      <trkpt lat="39.904253566637635" lon="-8.43213239684701">
        <ele>248.27964782714844</ele>
        <time>2020-07-10T12:09:03.992Z</time>
      </trkpt>
      <trkpt lat="39.904170418158174" lon="-8.43204396776855">
        <ele>250.08802795410156</ele>
        <time>2020-07-10T12:09:21.908Z</time>
      </trkpt>
      <trkpt lat="39.903785018250346" lon="-8.432013792917132">
        <ele>257.5588684082031</ele>
        <time>2020-07-10T12:09:39.840Z</time>
      </trkpt>
      <trkpt lat="39.90327891893685" lon="-8.431736854836345">
        <ele>263.6092834472656</ele>
        <time>2020-07-10T12:09:57.793Z</time>
      </trkpt>
      <trkpt lat="39.90281808190048" lon="-8.431456899270415">
        <ele>267.1251525878906</ele>
        <time>2020-07-10T12:10:15.767Z</time>
      </trkpt>
      <trkpt lat="39.9023109767586" lon="-8.431093795225024">
        <ele>266.8342590332031</ele>
        <time>2020-07-10T12:10:33.764Z</time>
      </trkpt>
      <trkpt lat="39.90206287242472" lon="-8.43083462677896">
        <ele>265.1446838378906</ele>
        <time>2020-07-10T12:10:51.774Z</time>
      </trkpt>
      <trkpt lat="39.902046946808696" lon="-8.430698839947581">
        <ele>263.45819091796875</ele>
        <time>2020-07-10T12:11:09.788Z</time>
      </trkpt>
      <trkpt lat="39.90223134867847" lon="-8.430523741990328">
        <ele>262.4153747558594</ele>
        <time>2020-07-10T12:11:27.811Z</time>
      </trkpt>
      <trkpt lat="39.902407033368945" lon="-8.429938768967986">
        <ele>258.7807312011719</ele>
        <time>2020-07-10T12:11:45.853Z</time>
      </trkpt>
      <trkpt lat="39.90267693065107" lon="-8.429259834811091">
        <ele>258.1705322265625</ele>
        <time>2020-07-10T12:12:03.919Z</time>
      </trkpt>
      <trkpt lat="39.90270006470382" lon="-8.429058836773038">
        <ele>257.96575927734375</ele>
        <time>2020-07-10T12:12:21.991Z</time>
      </trkpt>
      <trkpt lat="39.90282495506108" lon="-8.428877787664533">
        <ele>259.0297546386719</ele>
        <time>2020-07-10T12:12:40.071Z</time>
      </trkpt>
      <trkpt lat="39.902944983914495" lon="-8.428736804053187">
        <ele>259.8647766113281</ele>
        <time>2020-07-10T12:12:58.157Z</time>
      </trkpt>
      <trkpt lat="39.90302595309913" lon="-8.428183849900961">
        <ele>260.116943359375</ele>
        <time>2020-07-10T12:13:16.260Z</time>
      </trkpt>
      <trkpt lat="39.903052942827344" lon="-8.427847819402814">
        <ele>260.6820373535156</ele>
        <time>2020-07-10T12:13:34.374Z</time>
      </trkpt>
      <trkpt lat="39.90297893062234" lon="-8.427392849698663">
        <ele>262.6647644042969</ele>
        <time>2020-07-10T12:13:52.502Z</time>
      </trkpt>
      <trkpt lat="39.902732921764255" lon="-8.427352784201503">
        <ele>263.1340637207031</ele>
        <time>2020-07-10T12:14:10.640Z</time>
      </trkpt>
      <trkpt lat="39.902490098029375" lon="-8.427126808091998">
        <ele>265.4056091308594</ele>
        <time>2020-07-10T12:14:28.790Z</time>
      </trkpt>
      <trkpt lat="39.90231449715793" lon="-8.42705556191504">
        <ele>265.45135498046875</ele>
        <time>2020-07-10T12:14:46.947Z</time>
      </trkpt>
      <trkpt lat="39.90205843001604" lon="-8.427052712067962">
        <ele>265.2370300292969</ele>
        <time>2020-07-10T12:15:05.115Z</time>
      </trkpt>
      <trkpt lat="39.90195281803608" lon="-8.427029829472303">
        <ele>266.2063903808594</ele>
        <time>2020-07-10T12:15:23.287Z</time>
      </trkpt>
      <trkpt lat="39.901758190244436" lon="-8.42674182727933">
        <ele>268.4125061035156</ele>
        <time>2020-07-10T12:15:41.471Z</time>
      </trkpt>
      <trkpt lat="39.90165492519736" lon="-8.42669882811606">
        <ele>269.2590637207031</ele>
        <time>2020-07-10T12:15:59.659Z</time>
      </trkpt>
      <trkpt lat="39.90040107630193" lon="-8.426478886976838">
        <ele>282.9894104003906</ele>
        <time>2020-07-10T12:16:17.898Z</time>
      </trkpt>
      <trkpt lat="39.90012095309794" lon="-8.42648190446198">
        <ele>285.0094909667969</ele>
        <time>2020-07-10T12:16:36.148Z</time>
      </trkpt>
      <trkpt lat="39.899908723309636" lon="-8.42629968188703">
        <ele>286.9665222167969</ele>
        <time>2020-07-10T12:16:54.408Z</time>
      </trkpt>
      <trkpt lat="39.899692973122" lon="-8.426215862855315">
        <ele>289.2384948730469</ele>
        <time>2020-07-10T12:17:12.677Z</time>
      </trkpt>
      <trkpt lat="39.899292988702655" lon="-8.426148807629943">
        <ele>290.35870361328125</ele>
        <time>2020-07-10T12:17:30.962Z</time>
      </trkpt>
      <trkpt lat="39.89910892210901" lon="-8.42616280540824">
        <ele>290.4955749511719</ele>
        <time>2020-07-10T12:17:49.254Z</time>
      </trkpt>
      <trkpt lat="39.89895964041352" lon="-8.42631971463561">
        <ele>289.7333679199219</ele>
        <time>2020-07-10T12:18:07.554Z</time>
      </trkpt>
      <trkpt lat="39.89876702427864" lon="-8.426291132345796">
        <ele>290.1359558105469</ele>
        <time>2020-07-10T12:18:25.862Z</time>
      </trkpt>
      <trkpt lat="39.89853677339852" lon="-8.426219886168838">
        <ele>289.1903076171875</ele>
        <time>2020-07-10T12:18:44.179Z</time>
      </trkpt>
      <trkpt lat="39.898223374038935" lon="-8.425960298627615">
        <ele>289.1353454589844</ele>
        <time>2020-07-10T12:19:02.511Z</time>
      </trkpt>
      <trkpt lat="39.89781794138253" lon="-8.426068676635623">
        <ele>285.4331970214844</ele>
        <time>2020-07-10T12:19:20.860Z</time>
      </trkpt>
      <trkpt lat="39.89710891619325" lon="-8.425910761579871">
        <ele>280.31597900390625</ele>
        <time>2020-07-10T12:19:39.237Z</time>
      </trkpt>
      <trkpt lat="39.89676609635353" lon="-8.425857117399573">
        <ele>276.3956298828125</ele>
        <time>2020-07-10T12:19:57.628Z</time>
      </trkpt>
      <trkpt lat="39.89629939198494" lon="-8.425960298627615">
        <ele>268.314453125</ele>
        <time>2020-07-10T12:20:16.038Z</time>
      </trkpt>
      <trkpt lat="39.89512198604643" lon="-8.425960885360837">
        <ele>270.12225341796875</ele>
        <time>2020-07-10T12:20:34.495Z</time>
      </trkpt>
      <trkpt lat="39.89494797773659" lon="-8.425877904519439">
        <ele>271.77313232421875</ele>
        <time>2020-07-10T12:20:52.960Z</time>
      </trkpt>
      <trkpt lat="39.89473692141473" lon="-8.425702890381217">
        <ele>274.53973388671875</ele>
        <time>2020-07-10T12:21:11.435Z</time>
      </trkpt>
      <trkpt lat="39.89452091977" lon="-8.425652766600251">
        <ele>277.1854553222656</ele>
        <time>2020-07-10T12:21:29.918Z</time>
      </trkpt>
      <trkpt lat="39.89401817321777" lon="-8.425695095211267">
        <ele>281.0672607421875</ele>
        <time>2020-07-10T12:21:48.422Z</time>
      </trkpt>
      <trkpt lat="39.8939339350909" lon="-8.425607839599252">
        <ele>282.9190979003906</ele>
        <time>2020-07-10T12:22:06.930Z</time>
      </trkpt>
      <trkpt lat="39.89378792233765" lon="-8.424382908269763">
        <ele>291.1824645996094</ele>
        <time>2020-07-10T12:22:25.476Z</time>
      </trkpt>
      <trkpt lat="39.89364207722247" lon="-8.424197919666767">
        <ele>292.5413513183594</ele>
        <time>2020-07-10T12:22:44.030Z</time>
      </trkpt>
      <trkpt lat="39.893488017842174" lon="-8.424123488366604">
        <ele>293.465576171875</ele>
        <time>2020-07-10T12:23:02.591Z</time>
      </trkpt>
      <trkpt lat="39.89332616329193" lon="-8.424117788672447">
        <ele>294.4365234375</ele>
        <time>2020-07-10T12:23:21.158Z</time>
      </trkpt>
      <trkpt lat="39.89302575588226" lon="-8.424229016527534">
        <ele>296.2386779785156</ele>
        <time>2020-07-10T12:23:39.738Z</time>
      </trkpt>
      <trkpt lat="39.89293699152768" lon="-8.424219796434045">
        <ele>297.36907958984375</ele>
        <time>2020-07-10T12:23:58.321Z</time>
      </trkpt>
      <trkpt lat="39.892852921038866" lon="-8.42410278506577">
        <ele>299.69329833984375</ele>
        <time>2020-07-10T12:24:16.909Z</time>
      </trkpt>
      <trkpt lat="39.89271889440715" lon="-8.423749906942248">
        <ele>304.8492126464844</ele>
        <time>2020-07-10T12:24:35.509Z</time>
      </trkpt>
      <trkpt lat="39.89264831878245" lon="-8.423724258318543">
        <ele>305.9955749511719</ele>
        <time>2020-07-10T12:24:54.112Z</time>
      </trkpt>
      <trkpt lat="39.89244916476309" lon="-8.42376415617764">
        <ele>307.8588562011719</ele>
        <time>2020-07-10T12:25:12.723Z</time>
      </trkpt>
      <trkpt lat="39.892225954681635" lon="-8.423761306330562">
        <ele>310.2896423339844</ele>
        <time>2020-07-10T12:25:31.343Z</time>
      </trkpt>
      <trkpt lat="39.89194532856345" lon="-8.423547400161624">
        <ele>315.5101013183594</ele>
        <time>2020-07-10T12:25:49.976Z</time>
      </trkpt>
      <trkpt lat="39.89184466190636" lon="-8.423407590016723">
        <ele>317.7476806640625</ele>
        <time>2020-07-10T12:26:08.615Z</time>
      </trkpt>
      <trkpt lat="39.89183376543224" lon="-8.423139536753297">
        <ele>319.834228515625</ele>
        <time>2020-07-10T12:26:27.262Z</time>
      </trkpt>
      <trkpt lat="39.89191205240786" lon="-8.42220981605351">
        <ele>324.46038818359375</ele>
        <time>2020-07-10T12:26:45.938Z</time>
      </trkpt>
      <trkpt lat="39.891868717968464" lon="-8.421990126371384">
        <ele>326.703125</ele>
        <time>2020-07-10T12:27:04.621Z</time>
      </trkpt>
      <trkpt lat="39.891809625551105" lon="-8.421841766685247">
        <ele>329.72613525390625</ele>
        <time>2020-07-10T12:27:23.309Z</time>
      </trkpt>
      <trkpt lat="39.89172647707164" lon="-8.421693490818143">
        <ele>331.2176513671875</ele>
        <time>2020-07-10T12:27:42.003Z</time>
      </trkpt>
      <trkpt lat="39.89129925146699" lon="-8.421408254653215">
        <ele>339.1636657714844</ele>
        <time>2020-07-10T12:28:00.716Z</time>
      </trkpt>
      <trkpt lat="39.89107545465231" lon="-8.421040372923017">
        <ele>345.863525390625</ele>
        <time>2020-07-10T12:28:19.444Z</time>
      </trkpt>
      <trkpt lat="39.89096162840724" lon="-8.420897712931037">
        <ele>347.7849426269531</ele>
        <time>2020-07-10T12:28:38.178Z</time>
      </trkpt>
      <trkpt lat="39.89081301726401" lon="-8.420863850042224">
        <ele>349.88397216796875</ele>
        <time>2020-07-10T12:28:56.918Z</time>
      </trkpt>
      <trkpt lat="39.89071696065366" lon="-8.420901903882623">
        <ele>351.3126220703125</ele>
        <time>2020-07-10T12:29:15.662Z</time>
      </trkpt>
      <trkpt lat="39.890638925135136" lon="-8.420881787315011">
        <ele>352.4119873046875</ele>
        <time>2020-07-10T12:29:34.409Z</time>
      </trkpt>
      <trkpt lat="39.890209939330816" lon="-8.42035012319684">
        <ele>352.35308837890625</ele>
        <time>2020-07-10T12:29:53.180Z</time>
      </trkpt>
      <trkpt lat="39.89011145196855" lon="-8.420116268098354">
        <ele>351.6666564941406</ele>
        <time>2020-07-10T12:30:11.959Z</time>
      </trkpt>
      <trkpt lat="39.890035931020975" lon="-8.419670769944787">
        <ele>351.8787841796875</ele>
        <time>2020-07-10T12:30:30.752Z</time>
      </trkpt>
      <trkpt lat="39.88971205428243" lon="-8.419697005301714">
        <ele>351.3642883300781</ele>
        <time>2020-07-10T12:30:49.558Z</time>
      </trkpt>
      <trkpt lat="39.88960484974086" lon="-8.419619975611567">
        <ele>351.6053466796875</ele>
        <time>2020-07-10T12:31:08.369Z</time>
      </trkpt>
      <trkpt lat="39.889418855309486" lon="-8.419565744698048">
        <ele>350.9412841796875</ele>
        <time>2020-07-10T12:31:27.188Z</time>
      </trkpt>
      <trkpt lat="39.889171086251736" lon="-8.419428868219256">
        <ele>351.135498046875</ele>
        <time>2020-07-10T12:31:46.017Z</time>
      </trkpt>
      <trkpt lat="39.889074778184295" lon="-8.41949449852109">
        <ele>350.3531799316406</ele>
        <time>2020-07-10T12:32:04.851Z</time>
      </trkpt>
      <trkpt lat="39.889006884768605" lon="-8.41951159760356">
        <ele>350.0466613769531</ele>
        <time>2020-07-10T12:32:23.688Z</time>
      </trkpt>
      <trkpt lat="39.888645289465785" lon="-8.419905211776495">
        <ele>346.08001708984375</ele>
        <time>2020-07-10T12:32:42.543Z</time>
      </trkpt>
      <trkpt lat="39.88855769857764" lon="-8.419967908412218">
        <ele>345.5534362792969</ele>
        <time>2020-07-10T12:33:01.402Z</time>
      </trkpt>
      <trkpt lat="39.88844714127481" lon="-8.420164715498686">
        <ele>343.94317626953125</ele>
        <time>2020-07-10T12:33:20.269Z</time>
      </trkpt>
      <trkpt lat="39.88808101974428" lon="-8.420540811493993">
        <ele>342.1382141113281</ele>
        <time>2020-07-10T12:33:39.155Z</time>
      </trkpt>
      <trkpt lat="39.887963589280844" lon="-8.420706605538726">
        <ele>341.342529296875</ele>
        <time>2020-07-10T12:33:58.047Z</time>
      </trkpt>
      <trkpt lat="39.887840962037444" lon="-8.42078790999949">
        <ele>341.1576843261719</ele>
        <time>2020-07-10T12:34:16.945Z</time>
      </trkpt>
      <trkpt lat="39.88744198344648" lon="-8.421392915770411">
        <ele>338.226806640625</ele>
        <time>2020-07-10T12:34:35.867Z</time>
      </trkpt>
      <trkpt lat="39.88675299100578" lon="-8.421999765560031">
        <ele>335.9419860839844</ele>
        <time>2020-07-10T12:34:54.823Z</time>
      </trkpt>
      <trkpt lat="39.88667286001146" lon="-8.422115603461862">
        <ele>335.7601623535156</ele>
        <time>2020-07-10T12:35:13.784Z</time>
      </trkpt>
      <trkpt lat="39.886652659624815" lon="-8.42229531146586">
        <ele>335.42950439453125</ele>
        <time>2020-07-10T12:35:32.750Z</time>
      </trkpt>
      <trkpt lat="39.88667017780244" lon="-8.422566214576364">
        <ele>335.1044616699219</ele>
        <time>2020-07-10T12:35:51.725Z</time>
      </trkpt>
      <trkpt lat="39.886637991294265" lon="-8.422677861526608">
        <ele>334.882080078125</ele>
        <time>2020-07-10T12:36:10.703Z</time>
      </trkpt>
      <trkpt lat="39.88646297715604" lon="-8.422887912020087">
        <ele>333.8739929199219</ele>
        <time>2020-07-10T12:36:29.691Z</time>
      </trkpt>
      <trkpt lat="39.886379074305296" lon="-8.423071056604385">
        <ele>332.99505615234375</ele>
        <time>2020-07-10T12:36:48.685Z</time>
      </trkpt>
      <trkpt lat="39.88632878288627" lon="-8.423339193686843">
        <ele>331.7082214355469</ele>
        <time>2020-07-10T12:37:07.688Z</time>
      </trkpt>
      <trkpt lat="39.88634621724486" lon="-8.423513118177652">
        <ele>331.01165771484375</ele>
        <time>2020-07-10T12:37:26.696Z</time>
      </trkpt>
      <trkpt lat="39.886316964402795" lon="-8.423616802319884">
        <ele>330.4789733886719</ele>
        <time>2020-07-10T12:37:45.708Z</time>
      </trkpt>
      <trkpt lat="39.88611378706992" lon="-8.423715624958277">
        <ele>331.1680908203125</ele>
        <time>2020-07-10T12:38:04.728Z</time>
      </trkpt>
      <trkpt lat="39.88599333912134" lon="-8.423752756789327">
        <ele>332.2904968261719</ele>
        <time>2020-07-10T12:38:23.753Z</time>
      </trkpt>
      <trkpt lat="39.88561707548797" lon="-8.423939840868115">
        <ele>333.91107177734375</ele>
        <time>2020-07-10T12:38:42.794Z</time>
      </trkpt>
      <trkpt lat="39.88526905886829" lon="-8.423295775428414">
        <ele>333.000244140625</ele>
        <time>2020-07-10T12:39:01.860Z</time>
      </trkpt>
      <trkpt lat="39.885005028918386" lon="-8.42308891005814">
        <ele>334.8323669433594</ele>
        <time>2020-07-10T12:39:20.938Z</time>
      </trkpt>
      <trkpt lat="39.88450194709003" lon="-8.422846840694547">
        <ele>336.4560241699219</ele>
        <time>2020-07-10T12:39:40.037Z</time>
      </trkpt>
      <trkpt lat="39.883978916332126" lon="-8.422719771042466">
        <ele>338.80853271484375</ele>
        <time>2020-07-10T12:39:59.158Z</time>
      </trkpt>
      <trkpt lat="39.88312094472349" lon="-8.42212381772697">
        <ele>342.2746276855469</ele>
        <time>2020-07-10T12:40:18.317Z</time>
      </trkpt>
      <trkpt lat="39.882554998621345" lon="-8.42207788489759">
        <ele>341.29132080078125</ele>
        <time>2020-07-10T12:40:37.499Z</time>
      </trkpt>
      <trkpt lat="39.88204076886177" lon="-8.422157932072878">
        <ele>338.6995849609375</ele>
        <time>2020-07-10T12:40:56.702Z</time>
      </trkpt>
      <trkpt lat="39.881932474672794" lon="-8.422072855755687">
        <ele>339.2563171386719</ele>
        <time>2020-07-10T12:41:15.910Z</time>
      </trkpt>
      <trkpt lat="39.88185586407781" lon="-8.421942852437496">
        <ele>340.21856689453125</ele>
        <time>2020-07-10T12:41:35.123Z</time>
      </trkpt>
      <trkpt lat="39.881837759166956" lon="-8.421841766685247">
        <ele>341.00238037109375</ele>
        <time>2020-07-10T12:41:54.339Z</time>
      </trkpt>
      <trkpt lat="39.880600925534964" lon="-8.421726850792766">
        <ele>337.7387390136719</ele>
        <time>2020-07-10T12:42:13.605Z</time>
      </trkpt>
      <trkpt lat="39.88013396970928" lon="-8.421641858294606">
        <ele>336.87396240234375</ele>
        <time>2020-07-10T12:42:32.890Z</time>
      </trkpt>
      <trkpt lat="39.87990899942815" lon="-8.42152182944119">
        <ele>337.234375</ele>
        <time>2020-07-10T12:42:52.184Z</time>
      </trkpt>
      <trkpt lat="39.877593917772174" lon="-8.421359891071916">
        <ele>330.621826171875</ele>
        <time>2020-07-10T12:43:11.571Z</time>
      </trkpt>
      <trkpt lat="39.876627987250686" lon="-8.421507915481925">
        <ele>327.8213195800781</ele>
        <time>2020-07-10T12:43:30.997Z</time>
      </trkpt>
      <trkpt lat="39.87583505921066" lon="-8.421437842771411">
        <ele>328.4012756347656</ele>
        <time>2020-07-10T12:43:50.455Z</time>
      </trkpt>
      <trkpt lat="39.87506995908916" lon="-8.421320831403136">
        <ele>329.9802551269531</ele>
        <time>2020-07-10T12:44:09.943Z</time>
      </trkpt>
      <trkpt lat="39.87409774214029" lon="-8.421314125880599">
        <ele>330.0517883300781</ele>
        <time>2020-07-10T12:44:29.470Z</time>
      </trkpt>
      <trkpt lat="39.87295897677541" lon="-8.421354107558727">
        <ele>332.111572265625</ele>
        <time>2020-07-10T12:44:49.043Z</time>
      </trkpt>
      <trkpt lat="39.87252403981984" lon="-8.421383863314986">
        <ele>332.6911315917969</ele>
        <time>2020-07-10T12:45:08.633Z</time>
      </trkpt>
      <trkpt lat="39.872017689049244" lon="-8.421445386484265">
        <ele>332.4973449707031</ele>
        <time>2020-07-10T12:45:28.244Z</time>
      </trkpt>
      <trkpt lat="39.871816355735064" lon="-8.421490984037519">
        <ele>332.323974609375</ele>
        <time>2020-07-10T12:45:47.863Z</time>
      </trkpt>
      <trkpt lat="39.87157713621855" lon="-8.421465335413814">
        <ele>333.26727294921875</ele>
        <time>2020-07-10T12:46:07.491Z</time>
      </trkpt>
      <trkpt lat="39.87143657170236" lon="-8.421391155570745">
        <ele>334.6725769042969</ele>
        <time>2020-07-10T12:46:27.125Z</time>
      </trkpt>
      <trkpt lat="39.87126105464995" lon="-8.421358885243535">
        <ele>335.5583801269531</ele>
        <time>2020-07-10T12:46:46.766Z</time>
      </trkpt>
      <trkpt lat="39.870982859283686" lon="-8.421425353735685">
        <ele>334.9741516113281</ele>
        <time>2020-07-10T12:47:06.419Z</time>
      </trkpt>
      <trkpt lat="39.8707196675241" lon="-8.421451086178422">
        <ele>334.7604675292969</ele>
        <time>2020-07-10T12:47:26.082Z</time>
      </trkpt>
      <trkpt lat="39.87023745663464" lon="-8.421345558017492">
        <ele>335.877685546875</ele>
        <time>2020-07-10T12:47:45.765Z</time>
      </trkpt>
      <trkpt lat="39.86972289159894" lon="-8.42130339704454">
        <ele>337.52410888671875</ele>
        <time>2020-07-10T12:48:05.468Z</time>
      </trkpt>
      <trkpt lat="39.868971118703485" lon="-8.420370072126389">
        <ele>346.17584228515625</ele>
        <time>2020-07-10T12:48:25.213Z</time>
      </trkpt>
      <trkpt lat="39.86739934422076" lon="-8.419862380251288">
        <ele>345.5540466308594</ele>
        <time>2020-07-10T12:48:45.023Z</time>
      </trkpt>
      <trkpt lat="39.866873463615775" lon="-8.41977110132575">
        <ele>344.8397521972656</ele>
        <time>2020-07-10T12:49:04.854Z</time>
      </trkpt>
      <trkpt lat="39.86673315055668" lon="-8.41971687041223">
        <ele>344.828369140625</ele>
        <time>2020-07-10T12:49:24.691Z</time>
      </trkpt>
      <trkpt lat="39.866636926308274" lon="-8.419647049158812">
        <ele>345.0163269042969</ele>
        <time>2020-07-10T12:49:44.532Z</time>
      </trkpt>
      <trkpt lat="39.86590409651399" lon="-8.420678861439228">
        <ele>335.6603088378906</ele>
        <time>2020-07-10T12:50:04.416Z</time>
      </trkpt>
      <trkpt lat="39.86550469882786" lon="-8.421194348484278">
        <ele>330.53173828125</ele>
        <time>2020-07-10T12:50:24.323Z</time>
      </trkpt>
      <trkpt lat="39.8652608692646" lon="-8.421599948778749">
        <ele>327.5750427246094</ele>
        <time>2020-07-10T12:50:44.246Z</time>
      </trkpt>
      <trkpt lat="39.86505006439984" lon="-8.421809831634164">
        <ele>325.80902099609375</ele>
        <time>2020-07-10T12:51:04.179Z</time>
      </trkpt>
      <trkpt lat="39.8645961843431" lon="-8.42201535589993">
        <ele>323.18896484375</ele>
        <time>2020-07-10T12:51:24.132Z</time>
      </trkpt>
      <trkpt lat="39.86360476750989" lon="-8.42300530715073">
        <ele>317.0082702636719</ele>
        <time>2020-07-10T12:51:44.135Z</time>
      </trkpt>
      <trkpt lat="39.86360449400995" lon="-8.423005580241297">
        <ele>317.0072937011719</ele>
        <time>2020-07-10T12:52:04.138Z</time>
      </trkpt>
      <trkpt lat="39.863520031794906" lon="-8.423089915886521">
        <ele>316.7035827636719</ele>
        <time>2020-07-10T12:52:24.145Z</time>
      </trkpt>
      <trkpt lat="39.862763565033674" lon="-8.423578916117549">
        <ele>314.33660888671875</ele>
        <time>2020-07-10T12:52:44.186Z</time>
      </trkpt>
      <trkpt lat="39.861863097175956" lon="-8.423812938854098">
        <ele>312.41522216796875</ele>
        <time>2020-07-10T12:53:04.263Z</time>
      </trkpt>
      <trkpt lat="39.86163955181837" lon="-8.423892483115196">
        <ele>311.57440185546875</ele>
        <time>2020-07-10T12:53:24.350Z</time>
      </trkpt>
      <trkpt lat="39.86131642945111" lon="-8.424078896641731">
        <ele>309.8447570800781</ele>
        <time>2020-07-10T12:53:44.451Z</time>
      </trkpt>
      <trkpt lat="39.860839918255806" lon="-8.424489861354232">
        <ele>306.982421875</ele>
        <time>2020-07-10T12:54:04.575Z</time>
      </trkpt>
      <trkpt lat="39.8606001958251" lon="-8.424733858555555">
        <ele>305.5186767578125</ele>
        <time>2020-07-10T12:54:24.711Z</time>
      </trkpt>
      <trkpt lat="39.86035284586251" lon="-8.425184553489089">
        <ele>303.0623474121094</ele>
        <time>2020-07-10T12:54:44.864Z</time>
      </trkpt>
      <trkpt lat="39.86013005487621" lon="-8.42536979354918">
        <ele>303.4617919921875</ele>
        <time>2020-07-10T12:55:05.028Z</time>
      </trkpt>
      <trkpt lat="39.85981003381312" lon="-8.42547976411879">
        <ele>303.4736633300781</ele>
        <time>2020-07-10T12:55:25.205Z</time>
      </trkpt>
      <trkpt lat="39.85975001938641" lon="-8.42583985067904">
        <ele>304.4926452636719</ele>
        <time>2020-07-10T12:55:45.393Z</time>
      </trkpt>
      <trkpt lat="39.859629990532994" lon="-8.426239835098386">
        <ele>304.7479248046875</ele>
        <time>2020-07-10T12:56:05.594Z</time>
      </trkpt>
      <trkpt lat="39.85961993224919" lon="-8.426479892805219">
        <ele>304.78411865234375</ele>
        <time>2020-07-10T12:56:25.803Z</time>
      </trkpt>
      <trkpt lat="39.8596450779587" lon="-8.426995631307364">
        <ele>302.9119567871094</ele>
        <time>2020-07-10T12:56:46.028Z</time>
      </trkpt>
      <trkpt lat="39.8595969658345" lon="-8.427172489464283">
        <ele>301.4453125</ele>
        <time>2020-07-10T12:57:06.258Z</time>
      </trkpt>
      <trkpt lat="39.859458999708295" lon="-8.427312215790153">
        <ele>300.0395202636719</ele>
        <time>2020-07-10T12:57:26.495Z</time>
      </trkpt>
      <trkpt lat="39.85938012599945" lon="-8.427483374252915">
        <ele>298.2073974609375</ele>
        <time>2020-07-10T12:57:46.739Z</time>
      </trkpt>
      <trkpt lat="39.85939764417708" lon="-8.42764874920249">
        <ele>296.662109375</ele>
        <time>2020-07-10T12:58:06.988Z</time>
      </trkpt>
      <trkpt lat="39.85947006382048" lon="-8.427749751135707">
        <ele>295.74481201171875</ele>
        <time>2020-07-10T12:58:27.241Z</time>
      </trkpt>
      <trkpt lat="39.85987935215235" lon="-8.428207822144032">
        <ele>289.4923095703125</ele>
        <time>2020-07-10T12:58:47.516Z</time>
      </trkpt>
      <trkpt lat="39.86004137434065" lon="-8.428772510960698">
        <ele>287.707275390625</ele>
        <time>2020-07-10T12:59:07.809Z</time>
      </trkpt>
      <trkpt lat="39.86010046675801" lon="-8.429134776815772">
        <ele>288.3160095214844</ele>
        <time>2020-07-10T12:59:28.114Z</time>
      </trkpt>
      <trkpt lat="39.86008512787521" lon="-8.429265953600407">
        <ele>288.3445739746094</ele>
        <time>2020-07-10T12:59:48.423Z</time>
      </trkpt>
      <trkpt lat="39.8594518750906" lon="-8.429733663797379">
        <ele>285.2494201660156</ele>
        <time>2020-07-10T13:00:08.761Z</time>
      </trkpt>
      <trkpt lat="39.859070079401135" lon="-8.43004991300404">
        <ele>286.9244384765625</ele>
        <time>2020-07-10T13:00:29.117Z</time>
      </trkpt>
      <trkpt lat="39.85859474167228" lon="-8.430287037044764">
        <ele>288.3215637207031</ele>
        <time>2020-07-10T13:00:49.493Z</time>
      </trkpt>
      <trkpt lat="39.85834906809032" lon="-8.430451741442084">
        <ele>288.4244384765625</ele>
        <time>2020-07-10T13:01:09.880Z</time>
      </trkpt>
      <trkpt lat="39.85827564261854" lon="-8.430579397827387">
        <ele>288.92596435546875</ele>
        <time>2020-07-10T13:01:30.272Z</time>
      </trkpt>
      <trkpt lat="39.85820992849767" lon="-8.430582247674465">
        <ele>288.7065124511719</ele>
        <time>2020-07-10T13:01:50.667Z</time>
      </trkpt>
      <trkpt lat="39.85807145945728" lon="-8.43051946721971">
        <ele>287.83148193359375</ele>
        <time>2020-07-10T13:02:11.068Z</time>
      </trkpt>
      <trkpt lat="39.85782628878951" lon="-8.430582247674465">
        <ele>288.2062683105469</ele>
        <time>2020-07-10T13:02:31.479Z</time>
      </trkpt>
      <trkpt lat="39.85774087719619" lon="-8.430550815537572">
        <ele>288.8375244140625</ele>
        <time>2020-07-10T13:02:51.893Z</time>
      </trkpt>
      <trkpt lat="39.85760299488902" lon="-8.430462386459112">
        <ele>289.6304931640625</ele>
        <time>2020-07-10T13:03:12.313Z</time>
      </trkpt>
      <trkpt lat="39.857372576370835" lon="-8.430262813344598">
        <ele>287.18328857421875</ele>
        <time>2020-07-10T13:03:32.744Z</time>
      </trkpt>
      <trkpt lat="39.85703042708337" lon="-8.429869199171662">
        <ele>284.2183837890625</ele>
        <time>2020-07-10T13:03:53.194Z</time>
      </trkpt>
      <trkpt lat="39.85670143738389" lon="-8.429641043767333">
        <ele>282.1517333984375</ele>
        <time>2020-07-10T13:04:13.659Z</time>
      </trkpt>
      <trkpt lat="39.856370855122805" lon="-8.42960961163044">
        <ele>282.03857421875</ele>
        <time>2020-07-10T13:04:34.137Z</time>
      </trkpt>
      <trkpt lat="39.856239929795265" lon="-8.429559906944633">
        <ele>281.85968017578125</ele>
        <time>2020-07-10T13:04:54.620Z</time>
      </trkpt>
      <trkpt lat="39.856175472959876" lon="-8.429341558367014">
        <ele>280.82940673828125</ele>
        <time>2020-07-10T13:05:15.110Z</time>
      </trkpt>
      <trkpt lat="39.855992244556546" lon="-8.429246507585049">
        <ele>281.1545715332031</ele>
        <time>2020-07-10T13:05:35.608Z</time>
      </trkpt>
      <trkpt lat="39.85532646998763" lon="-8.429281627759337">
        <ele>279.283935546875</ele>
        <time>2020-07-10T13:05:56.133Z</time>
      </trkpt>
      <trkpt lat="39.8551987297833" lon="-8.429181296378374">
        <ele>280.0061950683594</ele>
        <time>2020-07-10T13:06:16.664Z</time>
      </trkpt>
      <trkpt lat="39.85496688634157" lon="-8.428718531504273">
        <ele>283.1038513183594</ele>
        <time>2020-07-10T13:06:37.212Z</time>
      </trkpt>
      <trkpt lat="39.85465097241104" lon="-8.428429858759046">
        <ele>284.3180236816406</ele>
        <time>2020-07-10T13:06:57.775Z</time>
      </trkpt>
      <trkpt lat="39.85439892858267" lon="-8.42837587930262">
        <ele>284.2857666015625</ele>
        <time>2020-07-10T13:07:18.349Z</time>
      </trkpt>
      <trkpt lat="39.85410304740071" lon="-8.428263394162059">
        <ele>284.2505798339844</ele>
        <time>2020-07-10T13:07:38.935Z</time>
      </trkpt>
      <trkpt lat="39.85392359085381" lon="-8.427832731977105">
        <ele>286.40350341796875</ele>
        <time>2020-07-10T13:07:59.536Z</time>
      </trkpt>
      <trkpt lat="39.85385125502944" lon="-8.427792834118009">
        <ele>286.4692687988281</ele>
        <time>2020-07-10T13:08:20.140Z</time>
      </trkpt>
      <trkpt lat="39.85357993282378" lon="-8.427779758349061">
        <ele>287.1204833984375</ele>
        <time>2020-07-10T13:08:40.755Z</time>
      </trkpt>
      <trkpt lat="39.85321858897805" lon="-8.427734831348062">
        <ele>289.5577087402344</ele>
        <time>2020-07-10T13:09:01.385Z</time>
      </trkpt>
      <trkpt lat="39.85290032811463" lon="-8.427802976220846">
        <ele>291.05816650390625</ele>
        <time>2020-07-10T13:09:22.027Z</time>
      </trkpt>
      <trkpt lat="39.8526272457093" lon="-8.427952509373426">
        <ele>291.4814453125</ele>
        <time>2020-07-10T13:09:42.681Z</time>
      </trkpt>
      <trkpt lat="39.85230999067426" lon="-8.427995340898633">
        <ele>292.45794677734375</ele>
        <time>2020-07-10T13:10:03.348Z</time>
      </trkpt>
      <trkpt lat="39.851960046216846" lon="-8.42787983827293">
        <ele>294.0351257324219</ele>
        <time>2020-07-10T13:10:24.029Z</time>
      </trkpt>
      <trkpt lat="39.851695680990815" lon="-8.427918311208487">
        <ele>294.16766357421875</ele>
        <time>2020-07-10T13:10:44.721Z</time>
      </trkpt>
      <trkpt lat="39.85151605680585" lon="-8.42798637226224">
        <ele>294.0565490722656</ele>
        <time>2020-07-10T13:11:05.421Z</time>
      </trkpt>
      <trkpt lat="39.85125278122723" lon="-8.428457351401448">
        <ele>292.1120910644531</ele>
        <time>2020-07-10T13:11:26.139Z</time>
      </trkpt>
      <trkpt lat="39.850735450163484" lon="-8.429153300821781">
        <ele>290.9902038574219</ele>
        <time>2020-07-10T13:11:46.886Z</time>
      </trkpt>
      <trkpt lat="39.85046002082527" lon="-8.429339798167348">
        <ele>290.8956298828125</ele>
        <time>2020-07-10T13:12:07.646Z</time>
      </trkpt>
      <trkpt lat="39.84985342249274" lon="-8.429567283019423">
        <ele>290.4091796875</ele>
        <time>2020-07-10T13:12:28.431Z</time>
      </trkpt>
      <trkpt lat="39.84928001649678" lon="-8.4301798325032">
        <ele>288.3322448730469</ele>
        <time>2020-07-10T13:12:49.246Z</time>
      </trkpt>
      <trkpt lat="39.84905001707375" lon="-8.430299861356616">
        <ele>287.78033447265625</ele>
        <time>2020-07-10T13:13:10.071Z</time>
      </trkpt>
      <trkpt lat="39.848515670746565" lon="-8.430664893239737">
        <ele>285.9962463378906</ele>
        <time>2020-07-10T13:13:30.920Z</time>
      </trkpt>
      <trkpt lat="39.84838499687612" lon="-8.430830771103501">
        <ele>285.3691101074219</ele>
        <time>2020-07-10T13:13:51.776Z</time>
      </trkpt>
      <trkpt lat="39.848257256671786" lon="-8.431209716945887">
        <ele>284.4900817871094</ele>
        <time>2020-07-10T13:14:12.645Z</time>
      </trkpt>
      <trkpt lat="39.848110070452094" lon="-8.431429909542203">
        <ele>283.5195007324219</ele>
        <time>2020-07-10T13:14:33.523Z</time>
      </trkpt>
      <trkpt lat="39.84780999831855" lon="-8.431739872321486">
        <ele>281.6098937988281</ele>
        <time>2020-07-10T13:14:54.416Z</time>
      </trkpt>
      <trkpt lat="39.84764747321606" lon="-8.431948414072394">
        <ele>280.232421875</ele>
        <time>2020-07-10T13:15:15.318Z</time>
      </trkpt>
      <trkpt lat="39.847487630322576" lon="-8.431982612237334">
        <ele>279.19146728515625</ele>
        <time>2020-07-10T13:15:36.227Z</time>
      </trkpt>
      <trkpt lat="39.84727028757334" lon="-8.432068191468716">
        <ele>277.6822814941406</ele>
        <time>2020-07-10T13:15:57.145Z</time>
      </trkpt>
      <trkpt lat="39.846180053427815" lon="-8.433089861646295">
        <ele>276.8115234375</ele>
        <time>2020-07-10T13:16:18.117Z</time>
      </trkpt>
      <trkpt lat="39.84562575817108" lon="-8.433080725371838">
        <ele>273.17034912109375</ele>
        <time>2020-07-10T13:16:39.111Z</time>
      </trkpt>
      <trkpt lat="39.84474658034742" lon="-8.433189103379846">
        <ele>269.3388977050781</ele>
        <time>2020-07-10T13:17:00.140Z</time>
      </trkpt>
      <trkpt lat="39.84422002919018" lon="-8.43337987549603">
        <ele>266.9197082519531</ele>
        <time>2020-07-10T13:17:21.191Z</time>
      </trkpt>
      <trkpt lat="39.8439999204129" lon="-8.433569809421897">
        <ele>266.376953125</ele>
        <time>2020-07-10T13:17:42.252Z</time>
      </trkpt>
      <trkpt lat="39.84357554465532" lon="-8.43373954296112">
        <ele>264.13653564453125</ele>
        <time>2020-07-10T13:18:03.331Z</time>
      </trkpt>
      <trkpt lat="39.84278001822531" lon="-8.434139778837562">
        <ele>261.2118835449219</ele>
        <time>2020-07-10T13:18:24.444Z</time>
      </trkpt>
      <trkpt lat="39.84261003322899" lon="-8.43423985876143">
        <ele>261.3681640625</ele>
        <time>2020-07-10T13:18:45.565Z</time>
      </trkpt>
      <trkpt lat="39.842399982735515" lon="-8.434499865397811">
        <ele>261.4114685058594</ele>
        <time>2020-07-10T13:19:06.697Z</time>
      </trkpt>
      <trkpt lat="39.84221993945539" lon="-8.434639843180776">
        <ele>261.1954345703125</ele>
        <time>2020-07-10T13:19:27.838Z</time>
      </trkpt>
      <trkpt lat="39.84170998446643" lon="-8.43473975546658">
        <ele>260.5835876464844</ele>
        <time>2020-07-10T13:19:48.999Z</time>
      </trkpt>
      <trkpt lat="39.84156405553222" lon="-8.434988781809807">
        <ele>260.40850830078125</ele>
        <time>2020-07-10T13:20:10.170Z</time>
      </trkpt>
      <trkpt lat="39.84074003063142" lon="-8.43498987145722">
        <ele>259.8014221191406</ele>
        <time>2020-07-10T13:20:31.374Z</time>
      </trkpt>
      <trkpt lat="39.840379944071174" lon="-8.435109900310636">
        <ele>259.81195068359375</ele>
        <time>2020-07-10T13:20:52.593Z</time>
      </trkpt>
      <trkpt lat="39.839540077373385" lon="-8.435089783743024">
        <ele>257.68377685546875</ele>
        <time>2020-07-10T13:21:13.845Z</time>
      </trkpt>
      <trkpt lat="39.83896994031966" lon="-8.435509884729981">
        <ele>252.3687744140625</ele>
        <time>2020-07-10T13:21:35.124Z</time>
      </trkpt>
      <trkpt lat="39.83844003640115" lon="-8.435689760372043">
        <ele>247.62222290039062</ele>
        <time>2020-07-10T13:21:56.424Z</time>
      </trkpt>
      <trkpt lat="39.838073244318366" lon="-8.43585873953998">
        <ele>244.54168701171875</ele>
        <time>2020-07-10T13:22:17.740Z</time>
      </trkpt>
      <trkpt lat="39.83732256107032" lon="-8.435479374602437">
        <ele>236.6949005126953</ele>
        <time>2020-07-10T13:22:39.088Z</time>
      </trkpt>
      <trkpt lat="39.83709708787501" lon="-8.435311065986753">
        <ele>234.6678924560547</ele>
        <time>2020-07-10T13:23:00.447Z</time>
      </trkpt>
      <trkpt lat="39.83650549314916" lon="-8.43471921980381">
        <ele>230.3570098876953</ele>
        <time>2020-07-10T13:23:21.835Z</time>
      </trkpt>
      <trkpt lat="39.83643458224833" lon="-8.43456381931901">
        <ele>230.01669311523438</ele>
        <time>2020-07-10T13:23:43.229Z</time>
      </trkpt>
      <trkpt lat="39.836228638887405" lon="-8.43447539024055">
        <ele>229.02833557128906</ele>
        <time>2020-07-10T13:24:04.632Z</time>
      </trkpt>
      <trkpt lat="39.83592202886939" lon="-8.4341930039227">
        <ele>228.8455352783203</ele>
        <time>2020-07-10T13:24:26.050Z</time>
      </trkpt>
      <trkpt lat="39.83577475883067" lon="-8.434124607592821">
        <ele>228.80783081054688</ele>
        <time>2020-07-10T13:24:47.474Z</time>
      </trkpt>
      <trkpt lat="39.83517134562135" lon="-8.43353133648634">
        <ele>230.378173828125</ele>
        <time>2020-07-10T13:25:08.928Z</time>
      </trkpt>
      <trkpt lat="39.835029942914844" lon="-8.433429831638932">
        <ele>231.20162963867188</ele>
        <time>2020-07-10T13:25:30.389Z</time>
      </trkpt>
      <trkpt lat="39.83356864191592" lon="-8.433228246867657">
        <ele>231.8094940185547</ele>
        <time>2020-07-10T13:25:51.908Z</time>
      </trkpt>
      <trkpt lat="39.83339589089155" lon="-8.433269988745451">
        <ele>231.3587646484375</ele>
        <time>2020-07-10T13:26:13.434Z</time>
      </trkpt>
      <trkpt lat="39.83325834386051" lon="-8.433342827484012">
        <ele>230.57223510742188</ele>
        <time>2020-07-10T13:26:34.966Z</time>
      </trkpt>
      <trkpt lat="39.83216869644821" lon="-8.434572368860245">
        <ele>221.4974365234375</ele>
        <time>2020-07-10T13:26:56.556Z</time>
      </trkpt>
      <trkpt lat="39.83183006756008" lon="-8.434749813750386">
        <ele>220.16262817382812</ele>
        <time>2020-07-10T13:27:18.161Z</time>
      </trkpt>
      <trkpt lat="39.8290400672704" lon="-8.435649862512946">
        <ele>202.15577697753906</ele>
        <time>2020-07-10T13:27:39.881Z</time>
      </trkpt>
      <trkpt lat="39.827342396602035" lon="-8.435392789542675">
        <ele>198.35140991210938</ele>
        <time>2020-07-10T13:28:01.669Z</time>
      </trkpt>
      <trkpt lat="39.82709303498268" lon="-8.435444757342339">
        <ele>197.6157684326172</ele>
        <time>2020-07-10T13:28:23.467Z</time>
      </trkpt>
      <trkpt lat="39.8257000464946" lon="-8.43617976643145">
        <ele>190.16746520996094</ele>
        <time>2020-07-10T13:28:45.325Z</time>
      </trkpt>
      <trkpt lat="39.82531246729195" lon="-8.436478329822421">
        <ele>187.39187622070312</ele>
        <time>2020-07-10T13:29:07.201Z</time>
      </trkpt>
      <trkpt lat="39.8252356890589" lon="-8.436497608199716">
        <ele>187.2989501953125</ele>
        <time>2020-07-10T13:29:29.080Z</time>
      </trkpt>
      <trkpt lat="39.82508615590632" lon="-8.436334999278188">
        <ele>189.0391387939453</ele>
        <time>2020-07-10T13:29:50.967Z</time>
      </trkpt>
      <trkpt lat="39.82470167800784" lon="-8.43619242310524">
        <ele>192.0263671875</ele>
        <time>2020-07-10T13:30:12.870Z</time>
      </trkpt>
      <trkpt lat="39.824449717998505" lon="-8.436055462807417">
        <ele>195.0775909423828</ele>
        <time>2020-07-10T13:30:34.784Z</time>
      </trkpt>
      <trkpt lat="39.82430295087397" lon="-8.436021851375699">
        <ele>196.7135009765625</ele>
        <time>2020-07-10T13:30:56.704Z</time>
      </trkpt>
      <trkpt lat="39.824081249535084" lon="-8.435915736481547">
        <ele>199.84864807128906</ele>
        <time>2020-07-10T13:31:18.633Z</time>
      </trkpt>
      <trkpt lat="39.82366173528135" lon="-8.4357731603086">
        <ele>204.9652099609375</ele>
        <time>2020-07-10T13:31:40.580Z</time>
      </trkpt>
      <trkpt lat="39.82314205728471" lon="-8.435841808095574">
        <ele>209.8355255126953</ele>
        <time>2020-07-10T13:32:02.548Z</time>
      </trkpt>
      <trkpt lat="39.82264903374016" lon="-8.435845831409097">
        <ele>212.2578125</ele>
        <time>2020-07-10T13:32:24.535Z</time>
      </trkpt>
      <trkpt lat="39.82236991636455" lon="-8.43573602847755">
        <ele>213.4545440673828</ele>
        <time>2020-07-10T13:32:46.534Z</time>
      </trkpt>
      <trkpt lat="39.822240667417645" lon="-8.435576353222132">
        <ele>213.44862365722656</ele>
        <time>2020-07-10T13:33:08.540Z</time>
      </trkpt>
      <trkpt lat="39.8220719397068" lon="-8.435422293841839">
        <ele>213.0437469482422</ele>
        <time>2020-07-10T13:33:30.554Z</time>
      </trkpt>
      <trkpt lat="39.82189097441733" lon="-8.435038821771741">
        <ele>212.4432830810547</ele>
        <time>2020-07-10T13:33:52.582Z</time>
      </trkpt>
      <trkpt lat="39.82124556787312" lon="-8.434683596715331">
        <ele>209.85008239746094</ele>
        <time>2020-07-10T13:34:14.638Z</time>
      </trkpt>
      <trkpt lat="39.82074013911188" lon="-8.433819422498345">
        <ele>210.35250854492188</ele>
        <time>2020-07-10T13:34:36.728Z</time>
      </trkpt>
      <trkpt lat="39.82058012858033" lon="-8.43365396372974">
        <ele>209.79617309570312</ele>
        <time>2020-07-10T13:34:58.826Z</time>
      </trkpt>
      <trkpt lat="39.8205385543406" lon="-8.43354843556881">
        <ele>209.87672424316406</ele>
        <time>2020-07-10T13:35:20.928Z</time>
      </trkpt>
      <trkpt lat="39.82053419575095" lon="-8.433254649862647">
        <ele>210.5919952392578</ele>
        <time>2020-07-10T13:35:43.039Z</time>
      </trkpt>
      <trkpt lat="39.82056923210621" lon="-8.433092124760151">
        <ele>210.9703369140625</ele>
        <time>2020-07-10T13:36:05.155Z</time>
      </trkpt>
      <trkpt lat="39.82062798924744" lon="-8.432969832792878">
        <ele>211.60479736328125</ele>
        <time>2020-07-10T13:36:27.275Z</time>
      </trkpt>
      <trkpt lat="39.820626229047775" lon="-8.432815438136458">
        <ele>211.58580017089844</ele>
        <time>2020-07-10T13:36:49.400Z</time>
      </trkpt>
      <trkpt lat="39.820358930155635" lon="-8.432370526716113">
        <ele>209.8568115234375</ele>
        <time>2020-07-10T13:37:11.542Z</time>
      </trkpt>
      <trkpt lat="39.82019464485347" lon="-8.432133821770549">
        <ele>209.72325134277344</ele>
        <time>2020-07-10T13:37:33.694Z</time>
      </trkpt>
      <trkpt lat="39.81996892020106" lon="-8.431731909513474">
        <ele>210.63951110839844</ele>
        <time>2020-07-10T13:37:55.862Z</time>
      </trkpt>
      <trkpt lat="39.819380259141326" lon="-8.431340893730521">
        <ele>209.10702514648438</ele>
        <time>2020-07-10T13:38:18.056Z</time>
      </trkpt>
      <trkpt lat="39.81915906071663" lon="-8.431235365569592">
        <ele>208.69068908691406</ele>
        <time>2020-07-10T13:38:40.259Z</time>
      </trkpt>
      <trkpt lat="39.818713730201125" lon="-8.43107845634222">
        <ele>207.6525421142578</ele>
        <time>2020-07-10T13:39:02.481Z</time>
      </trkpt>
      <trkpt lat="39.81814996339381" lon="-8.430920792743564">
        <ele>206.95516967773438</ele>
        <time>2020-07-10T13:39:24.726Z</time>
      </trkpt>
      <trkpt lat="39.817954916507006" lon="-8.430974772199988">
        <ele>206.22808837890625</ele>
        <time>2020-07-10T13:39:46.979Z</time>
      </trkpt>
      <trkpt lat="39.81740397401154" lon="-8.430714765563607">
        <ele>205.2472686767578</ele>
        <time>2020-07-10T13:40:09.255Z</time>
      </trkpt>
      <trkpt lat="39.81712996959686" lon="-8.430459536612034">
        <ele>205.72125244140625</ele>
        <time>2020-07-10T13:40:31.545Z</time>
      </trkpt>
      <trkpt lat="39.8169709648937" lon="-8.430360881611705">
        <ele>206.0097198486328</ele>
        <time>2020-07-10T13:40:53.842Z</time>
      </trkpt>
      <trkpt lat="39.81644533574581" lon="-8.430422488600016">
        <ele>204.89918518066406</ele>
        <time>2020-07-10T13:41:16.160Z</time>
      </trkpt>
      <trkpt lat="39.81627333909273" lon="-8.430202882736921">
        <ele>205.013427734375</ele>
        <time>2020-07-10T13:41:38.488Z</time>
      </trkpt>
      <trkpt lat="39.815881149843335" lon="-8.429538365453482">
        <ele>208.40618896484375</ele>
        <time>2020-07-10T13:42:00.841Z</time>
      </trkpt>
      <trkpt lat="39.81578266248107" lon="-8.42941565439105">
        <ele>208.61154174804688</ele>
        <time>2020-07-10T13:42:23.200Z</time>
      </trkpt>
      <trkpt lat="39.815466832369566" lon="-8.429502910003066">
        <ele>207.53961181640625</ele>
        <time>2020-07-10T13:42:45.572Z</time>
      </trkpt>
      <trkpt lat="39.81539214961231" lon="-8.429561164230108">
        <ele>207.15072631835938</ele>
        <time>2020-07-10T13:43:07.947Z</time>
      </trkpt>
      <trkpt lat="39.81539868749678" lon="-8.429700890555978">
        <ele>206.66348266601562</ele>
        <time>2020-07-10T13:43:30.327Z</time>
      </trkpt>
      <trkpt lat="39.81533079408109" lon="-8.430054606869817">
        <ele>205.16123962402344</ele>
        <time>2020-07-10T13:43:52.718Z</time>
      </trkpt>
      <trkpt lat="39.81521688401699" lon="-8.430279912427068">
        <ele>203.7898406982422</ele>
        <time>2020-07-10T13:44:15.117Z</time>
      </trkpt>
      <trkpt lat="39.81509895063937" lon="-8.430624911561608">
        <ele>201.48960876464844</ele>
        <time>2020-07-10T13:44:37.528Z</time>
      </trkpt>
      <trkpt lat="39.81495997868478" lon="-8.430727673694491">
        <ele>200.53965759277344</ele>
        <time>2020-07-10T13:44:59.945Z</time>
      </trkpt>
      <trkpt lat="39.814792927354574" lon="-8.430779054760933">
        <ele>199.83056640625</ele>
        <time>2020-07-10T13:45:22.369Z</time>
      </trkpt>
      <trkpt lat="39.814672479406" lon="-8.430767571553588">
        <ele>199.4899444580078</ele>
        <time>2020-07-10T13:45:44.798Z</time>
      </trkpt>
      <trkpt lat="39.81450819410384" lon="-8.430702025070786">
        <ele>199.31939697265625</ele>
        <time>2020-07-10T13:46:07.234Z</time>
      </trkpt>
      <trkpt lat="39.81422496959567" lon="-8.430622145533562">
        <ele>199.36294555664062</ele>
        <time>2020-07-10T13:46:29.681Z</time>
      </trkpt>
      <trkpt lat="39.814082058146596" lon="-8.430636394768953">
        <ele>199.1230926513672</ele>
        <time>2020-07-10T13:46:52.134Z</time>
      </trkpt>
      <trkpt lat="39.81383395381272" lon="-8.430807553231716">
        <ele>198.08258056640625</ele>
        <time>2020-07-10T13:47:14.598Z</time>
      </trkpt>
      <trkpt lat="39.81373001821339" lon="-8.430989859625697">
        <ele>197.006591796875</ele>
        <time>2020-07-10T13:47:37.069Z</time>
      </trkpt>
      <trkpt lat="39.81347244232893" lon="-8.431700225919485">
        <ele>194.14065551757812</ele>
        <time>2020-07-10T13:47:59.564Z</time>
      </trkpt>
      <trkpt lat="39.81317396275699" lon="-8.432235913351178">
        <ele>193.34608459472656</ele>
        <time>2020-07-10T13:48:22.080Z</time>
      </trkpt>
      <trkpt lat="39.81305125169456" lon="-8.432436073198915">
        <ele>193.1988525390625</ele>
        <time>2020-07-10T13:48:44.604Z</time>
      </trkpt>
      <trkpt lat="39.812941616401076" lon="-8.432461805641651">
        <ele>193.0673065185547</ele>
        <time>2020-07-10T13:49:07.132Z</time>
      </trkpt>
      <trkpt lat="39.81281706131995" lon="-8.43252575956285">
        <ele>193.41064453125</ele>
        <time>2020-07-10T13:49:29.665Z</time>
      </trkpt>
      <trkpt lat="39.81261036358774" lon="-8.433325979858637">
        <ele>194.79547119140625</ele>
        <time>2020-07-10T13:49:52.224Z</time>
      </trkpt>
      <trkpt lat="39.81235831975937" lon="-8.434435492381454">
        <ele>194.35995483398438</ele>
        <time>2020-07-10T13:50:14.819Z</time>
      </trkpt>
      <trkpt lat="39.8124810308218" lon="-8.434743527323008">
        <ele>193.5558319091797</ele>
        <time>2020-07-10T13:50:37.425Z</time>
      </trkpt>
      <trkpt lat="39.812813038006425" lon="-8.435369906947017">
        <ele>194.95652770996094</ele>
        <time>2020-07-10T13:51:00.054Z</time>
      </trkpt>
      <trkpt lat="39.812965923920274" lon="-8.43559487722814">
        <ele>195.5176239013672</ele>
        <time>2020-07-10T13:51:22.692Z</time>
      </trkpt>
      <trkpt lat="39.81308796443045" lon="-8.435707530006766">
        <ele>194.78549194335938</ele>
        <time>2020-07-10T13:51:45.336Z</time>
      </trkpt>
      <trkpt lat="39.81321117840707" lon="-8.435947084799409">
        <ele>196.09010314941406</ele>
        <time>2020-07-10T13:52:07.989Z</time>
      </trkpt>
      <trkpt lat="39.813261553645134" lon="-8.436377746984363">
        <ele>192.25173950195312</ele>
        <time>2020-07-10T13:52:30.656Z</time>
      </trkpt>
      <trkpt lat="39.81336993165314" lon="-8.436600873246789">
        <ele>191.86550903320312</ele>
        <time>2020-07-10T13:52:53.331Z</time>
      </trkpt>
      <trkpt lat="39.81348694302142" lon="-8.436939837411046">
        <ele>190.21817016601562</ele>
        <time>2020-07-10T13:53:16.017Z</time>
      </trkpt>
      <trkpt lat="39.813652066513896" lon="-8.437207723036408">
        <ele>188.57301330566406</ele>
        <time>2020-07-10T13:53:38.714Z</time>
      </trkpt>
      <trkpt lat="39.81391995213926" lon="-8.43750880099833">
        <ele>186.50486755371094</ele>
        <time>2020-07-10T13:54:01.425Z</time>
      </trkpt>
      <trkpt lat="39.814056074246764" lon="-8.437724886462092">
        <ele>185.92921447753906</ele>
        <time>2020-07-10T13:54:24.145Z</time>
      </trkpt>
      <trkpt lat="39.81413897126913" lon="-8.437966452911496">
        <ele>184.7869873046875</ele>
        <time>2020-07-10T13:54:46.873Z</time>
      </trkpt>
      <trkpt lat="39.81374468654394" lon="-8.437883723527193">
        <ele>182.54417419433594</ele>
        <time>2020-07-10T13:55:09.617Z</time>
      </trkpt>
      <trkpt lat="39.81353438459337" lon="-8.437866624444723">
        <ele>180.7103729248047</ele>
        <time>2020-07-10T13:55:32.369Z</time>
      </trkpt>
      <trkpt lat="39.813391054049134" lon="-8.437878778204322">
        <ele>178.9953155517578</ele>
        <time>2020-07-10T13:55:55.127Z</time>
      </trkpt>
      <trkpt lat="39.81297698803246" lon="-8.438003836199641">
        <ele>173.4271697998047</ele>
        <time>2020-07-10T13:56:17.902Z</time>
      </trkpt>
      <trkpt lat="39.81250248849392" lon="-8.437878023833036">
        <ele>167.95208740234375</ele>
        <time>2020-07-10T13:56:40.696Z</time>
      </trkpt>
      <trkpt lat="39.812316158786416" lon="-8.437792444601655">
        <ele>165.47474670410156</ele>
        <time>2020-07-10T13:57:03.498Z</time>
      </trkpt>
      <trkpt lat="39.812237368896604" lon="-8.437963603064418">
        <ele>163.9296417236328</ele>
        <time>2020-07-10T13:57:26.306Z</time>
      </trkpt>
      <trkpt lat="39.81208171695471" lon="-8.438057731837034">
        <ele>161.46275329589844</ele>
        <time>2020-07-10T13:57:49.121Z</time>
      </trkpt>
      <trkpt lat="39.81185934506357" lon="-8.438653768971562">
        <ele>161.753662109375</ele>
        <time>2020-07-10T13:58:11.957Z</time>
      </trkpt>
      <trkpt lat="39.811695059761405" lon="-8.43881688080728">
        <ele>163.13906860351562</ele>
        <time>2020-07-10T13:58:34.801Z</time>
      </trkpt>
      <trkpt lat="39.81160604394972" lon="-8.439000779762864">
        <ele>163.98158264160156</ele>
        <time>2020-07-10T13:58:57.652Z</time>
      </trkpt>
      <trkpt lat="39.81144594959915" lon="-8.43918182887137">
        <ele>165.40158081054688</ele>
        <time>2020-07-10T13:59:20.511Z</time>
      </trkpt>
      <trkpt lat="39.811297757551074" lon="-8.439432447776198">
        <ele>165.9617919921875</ele>
        <time>2020-07-10T13:59:43.380Z</time>
      </trkpt>
      <trkpt lat="39.81120564043522" lon="-8.439788930118084">
        <ele>164.56005859375</ele>
        <time>2020-07-10T14:00:06.260Z</time>
      </trkpt>
      <trkpt lat="39.81118896044791" lon="-8.440124792978168">
        <ele>163.00550842285156</ele>
        <time>2020-07-10T14:00:29.151Z</time>
      </trkpt>
      <trkpt lat="39.81113095767796" lon="-8.440279858186841">
        <ele>163.5953826904297</ele>
        <time>2020-07-10T14:00:52.047Z</time>
      </trkpt>
      <trkpt lat="39.81095317751169" lon="-8.440533326938748">
        <ele>166.82656860351562</ele>
        <time>2020-07-10T14:01:14.954Z</time>
      </trkpt>
      <trkpt lat="39.81081219390035" lon="-8.440871369093657">
        <ele>169.0601348876953</ele>
        <time>2020-07-10T14:01:37.872Z</time>
      </trkpt>
      <trkpt lat="39.81070473790169" lon="-8.440995421260595">
        <ele>171.0279998779297</ele>
        <time>2020-07-10T14:02:00.796Z</time>
      </trkpt>
      <trkpt lat="39.81069602072239" lon="-8.441132297739387">
        <ele>169.5740203857422</ele>
        <time>2020-07-10T14:02:23.724Z</time>
      </trkpt>
      <trkpt lat="39.81071571819484" lon="-8.44123070128262">
        <ele>167.96798706054688</ele>
        <time>2020-07-10T14:02:46.656Z</time>
      </trkpt>
      <trkpt lat="39.81072778813541" lon="-8.441594392061234">
        <ele>164.43731689453125</ele>
        <time>2020-07-10T14:03:09.599Z</time>
      </trkpt>
      <trkpt lat="39.81070155277848" lon="-8.44191667623818">
        <ele>163.19325256347656</ele>
        <time>2020-07-10T14:03:32.552Z</time>
      </trkpt>
      <trkpt lat="39.81053282506764" lon="-8.442678172141314">
        <ele>158.18760681152344</ele>
        <time>2020-07-10T14:03:55.529Z</time>
      </trkpt>
      <trkpt lat="39.81061387807131" lon="-8.442900627851486">
        <ele>156.7310028076172</ele>
        <time>2020-07-10T14:04:18.514Z</time>
      </trkpt>
      <trkpt lat="39.81082392856479" lon="-8.443193910643458">
        <ele>154.14425659179688</ele>
        <time>2020-07-10T14:04:41.511Z</time>
      </trkpt>
      <trkpt lat="39.810987962409854" lon="-8.443515775725245">
        <ele>151.26016235351562</ele>
        <time>2020-07-10T14:05:04.520Z</time>
      </trkpt>
      <trkpt lat="39.81104495935142" lon="-8.443761868402362">
        <ele>150.09051513671875</ele>
        <time>2020-07-10T14:05:27.537Z</time>
      </trkpt>
      <trkpt lat="39.81116498820484" lon="-8.444036794826388">
        <ele>149.47264099121094</ele>
        <time>2020-07-10T14:05:50.564Z</time>
      </trkpt>
      <trkpt lat="39.81104998849332" lon="-8.44414978288114">
        <ele>149.613037109375</ele>
        <time>2020-07-10T14:06:13.596Z</time>
      </trkpt>
      <trkpt lat="39.81095996685326" lon="-8.444269811734557">
        <ele>149.68504333496094</ele>
        <time>2020-07-10T14:06:36.634Z</time>
      </trkpt>
      <trkpt lat="39.810727536678314" lon="-8.444897197186947">
        <ele>148.21812438964844</ele>
        <time>2020-07-10T14:06:59.693Z</time>
      </trkpt>
      <trkpt lat="39.81060893274844" lon="-8.445057878270745">
        <ele>148.1354522705078</ele>
        <time>2020-07-10T14:07:22.759Z</time>
      </trkpt>
      <trkpt lat="39.81031992472708" lon="-8.445139853283763">
        <ele>147.23887634277344</ele>
        <time>2020-07-10T14:07:45.837Z</time>
      </trkpt>
      <trkpt lat="39.809455163776875" lon="-8.445199448615313">
        <ele>149.45396423339844</ele>
        <time>2020-07-10T14:08:08.949Z</time>
      </trkpt>
      <trkpt lat="39.80932147242129" lon="-8.4453278593719">
        <ele>149.49830627441406</ele>
        <time>2020-07-10T14:08:32.068Z</time>
      </trkpt>
      <trkpt lat="39.809160036966205" lon="-8.445716863498092">
        <ele>148.79815673828125</ele>
        <time>2020-07-10T14:08:55.201Z</time>
      </trkpt>
      <trkpt lat="39.80887002311647" lon="-8.4459098149091">
        <ele>148.91461181640625</ele>
        <time>2020-07-10T14:09:18.347Z</time>
      </trkpt>
      <trkpt lat="39.80781465768814" lon="-8.445973685011268">
        <ele>146.9612579345703</ele>
        <time>2020-07-10T14:09:41.535Z</time>
      </trkpt>
      <trkpt lat="39.80765238404274" lon="-8.44593663699925">
        <ele>149.1749267578125</ele>
        <time>2020-07-10T14:10:04.730Z</time>
      </trkpt>
      <trkpt lat="39.807407883927226" lon="-8.445706134662032">
        <ele>153.7677764892578</ele>
        <time>2020-07-10T14:10:27.937Z</time>
      </trkpt>
      <trkpt lat="39.807304199784994" lon="-8.445715103298426">
        <ele>155.1085968017578</ele>
        <time>2020-07-10T14:10:51.148Z</time>
      </trkpt>
      <trkpt lat="39.80707688257098" lon="-8.4460808057338">
        <ele>154.60861206054688</ele>
        <time>2020-07-10T14:11:14.373Z</time>
      </trkpt>
      <trkpt lat="39.80692567303777" lon="-8.44639454036951">
        <ele>152.05616760253906</ele>
        <time>2020-07-10T14:11:37.610Z</time>
      </trkpt>
      <trkpt lat="39.80665996670723" lon="-8.446531416848302">
        <ele>152.32669067382812</ele>
        <time>2020-07-10T14:12:00.858Z</time>
      </trkpt>
      <trkpt lat="39.806223353371024" lon="-8.446625545620918">
        <ele>155.49716186523438</ele>
        <time>2020-07-10T14:12:24.124Z</time>
      </trkpt>
      <trkpt lat="39.80598673224449" lon="-8.44678245484829">
        <ele>156.07330322265625</ele>
        <time>2020-07-10T14:12:47.400Z</time>
      </trkpt>
      <trkpt lat="39.80593199841678" lon="-8.446910781785846">
        <ele>154.96839904785156</ele>
        <time>2020-07-10T14:13:10.681Z</time>
      </trkpt>
      <trkpt lat="39.80590567924082" lon="-8.447084790095687">
        <ele>153.05079650878906</ele>
        <time>2020-07-10T14:13:33.967Z</time>
      </trkpt>
      <trkpt lat="39.80591397732496" lon="-8.447563899680972">
        <ele>149.22463989257812</ele>
        <time>2020-07-10T14:13:57.268Z</time>
      </trkpt>
      <trkpt lat="39.8057824652642" lon="-8.44767227768898">
        <ele>149.49562072753906</ele>
        <time>2020-07-10T14:14:20.575Z</time>
      </trkpt>
      <trkpt lat="39.80554257519543" lon="-8.447766406461596">
        <ele>150.4939422607422</ele>
        <time>2020-07-10T14:14:43.892Z</time>
      </trkpt>
      <trkpt lat="39.80510864406824" lon="-8.447906216606498">
        <ele>156.92759704589844</ele>
        <time>2020-07-10T14:15:07.227Z</time>
      </trkpt>
      <trkpt lat="39.80496355332434" lon="-8.447983162477612">
        <ele>159.5783233642578</ele>
        <time>2020-07-10T14:15:30.569Z</time>
      </trkpt>
      <trkpt lat="39.80488685891032" lon="-8.448082990944386">
        <ele>160.34071350097656</ele>
        <time>2020-07-10T14:15:53.915Z</time>
      </trkpt>
      <trkpt lat="39.80484528467059" lon="-8.448265548795462">
        <ele>159.36703491210938</ele>
        <time>2020-07-10T14:16:17.267Z</time>
      </trkpt>
      <trkpt lat="39.80487143620849" lon="-8.448488004505634">
        <ele>156.33738708496094</ele>
        <time>2020-07-10T14:16:40.626Z</time>
      </trkpt>
      <trkpt lat="39.80493773706257" lon="-8.448753291741014">
        <ele>151.2522430419922</ele>
        <time>2020-07-10T14:17:03.993Z</time>
      </trkpt>
      <trkpt lat="39.80487202294171" lon="-8.449101224541664">
        <ele>149.64892578125</ele>
        <time>2020-07-10T14:17:27.371Z</time>
      </trkpt>
      <trkpt lat="39.804775044322014" lon="-8.449298031628132">
        <ele>150.81588745117188</ele>
        <time>2020-07-10T14:17:50.757Z</time>
      </trkpt>
      <trkpt lat="39.804348992183805" lon="-8.449879065155983">
        <ele>147.67611694335938</ele>
        <time>2020-07-10T14:18:14.167Z</time>
      </trkpt>
      <trkpt lat="39.80378723703325" lon="-8.450407376512885">
        <ele>143.20387268066406</ele>
        <time>2020-07-10T14:18:37.605Z</time>
      </trkpt>
      <trkpt lat="39.80339043773711" lon="-8.450694121420383">
        <ele>141.53184509277344</ele>
        <time>2020-07-10T14:19:01.061Z</time>
      </trkpt>
      <trkpt lat="39.8030299320817" lon="-8.451259899884462">
        <ele>138.85809326171875</ele>
        <time>2020-07-10T14:19:24.540Z</time>
      </trkpt>
      <trkpt lat="39.80231855995953" lon="-8.452616343274713">
        <ele>138.0857696533203</ele>
        <time>2020-07-10T14:19:48.069Z</time>
      </trkpt>
      <trkpt lat="39.802269944921136" lon="-8.45279990695417">
        <ele>138.0537567138672</ele>
        <time>2020-07-10T14:20:11.604Z</time>
      </trkpt>
      <trkpt lat="39.80209995992482" lon="-8.453749911859632">
        <ele>138.7743377685547</ele>
        <time>2020-07-10T14:20:35.169Z</time>
      </trkpt>
      <trkpt lat="39.80209367349744" lon="-8.453955603763461">
        <ele>139.69361877441406</ele>
        <time>2020-07-10T14:20:58.741Z</time>
      </trkpt>
      <trkpt lat="39.8022804223001" lon="-8.45469731837511">
        <ele>145.7162322998047</ele>
        <time>2020-07-10T14:21:22.337Z</time>
      </trkpt>
      <trkpt lat="39.80223398655653" lon="-8.455056482926011">
        <ele>146.78353881835938</ele>
        <time>2020-07-10T14:21:45.944Z</time>
      </trkpt>
      <trkpt lat="39.802268939092755" lon="-8.455282794311643">
        <ele>147.38221740722656</ele>
        <time>2020-07-10T14:22:09.558Z</time>
      </trkpt>
      <trkpt lat="39.80227899737656" lon="-8.45551279373467">
        <ele>148.52224731445312</ele>
        <time>2020-07-10T14:22:33.179Z</time>
      </trkpt>
      <trkpt lat="39.80244202539325" lon="-8.455932140350342">
        <ele>149.92796325683594</ele>
        <time>2020-07-10T14:22:56.815Z</time>
      </trkpt>
      <trkpt lat="39.80258887633681" lon="-8.456516861915588">
        <ele>152.16415405273438</ele>
        <time>2020-07-10T14:23:20.470Z</time>
      </trkpt>
      <trkpt lat="39.802712174132466" lon="-8.456699335947633">
        <ele>153.1878204345703</ele>
        <time>2020-07-10T14:23:44.132Z</time>
      </trkpt>
      <trkpt lat="39.802865562960505" lon="-8.457358237355947">
        <ele>155.2779998779297</ele>
        <time>2020-07-10T14:24:07.815Z</time>
      </trkpt>
      <trkpt lat="39.80276757851243" lon="-8.45744825899601">
        <ele>155.49400329589844</ele>
        <time>2020-07-10T14:24:31.503Z</time>
      </trkpt>
      <trkpt lat="39.802639838308096" lon="-8.457529311999679">
        <ele>155.68850708007812</ele>
        <time>2020-07-10T14:24:55.197Z</time>
      </trkpt>
      <trkpt lat="39.802526934072375" lon="-8.457669792696834">
        <ele>155.98719787597656</ele>
        <time>2020-07-10T14:25:18.897Z</time>
      </trkpt>
      <trkpt lat="39.80230498127639" lon="-8.457847824320197">
        <ele>155.77359008789062</ele>
        <time>2020-07-10T14:25:42.608Z</time>
      </trkpt>
      <trkpt lat="39.802114041522145" lon="-8.457903815433383">
        <ele>155.7064208984375</ele>
        <time>2020-07-10T14:26:06.326Z</time>
      </trkpt>
      <trkpt lat="39.80125808157027" lon="-8.457756796851754">
        <ele>154.58065795898438</ele>
        <time>2020-07-10T14:26:30.079Z</time>
      </trkpt>
      <trkpt lat="39.800825072452426" lon="-8.457903815433383">
        <ele>151.2390594482422</ele>
        <time>2020-07-10T14:26:53.850Z</time>
      </trkpt>
      <trkpt lat="39.80076857842505" lon="-8.458302291110158">
        <ele>149.76171875</ele>
        <time>2020-07-10T14:27:17.633Z</time>
      </trkpt>
      <trkpt lat="39.80069397948682" lon="-8.458566823974252">
        <ele>148.4013214111328</ele>
        <time>2020-07-10T14:27:41.425Z</time>
      </trkpt>
      <trkpt lat="39.80063899420202" lon="-8.45922983251512">
        <ele>146.7684783935547</ele>
        <time>2020-07-10T14:28:05.237Z</time>
      </trkpt>
      <trkpt lat="39.80062826536596" lon="-8.459793934598565">
        <ele>141.24163818359375</ele>
        <time>2020-07-10T14:28:29.067Z</time>
      </trkpt>
      <trkpt lat="39.8007330391556" lon="-8.460130887106061">
        <ele>137.72886657714844</ele>
        <time>2020-07-10T14:28:52.908Z</time>
      </trkpt>
      <trkpt lat="39.80233892798424" lon="-8.461038814857602">
        <ele>127.78018188476562</ele>
        <time>2020-07-10T14:29:16.819Z</time>
      </trkpt>
      <trkpt lat="39.802286038175225" lon="-8.461102852597833">
        <ele>127.47285461425781</ele>
        <time>2020-07-10T14:29:40.733Z</time>
      </trkpt>
      <trkpt lat="39.801708022132516" lon="-8.461115760728717">
        <ele>126.58939361572266</ele>
        <time>2020-07-10T14:30:04.670Z</time>
      </trkpt>
      <trkpt lat="39.80159092694521" lon="-8.461190862581134">
        <ele>125.94798278808594</ele>
        <time>2020-07-10T14:30:28.612Z</time>
      </trkpt>
      <trkpt lat="39.80148992501199" lon="-8.461362607777119">
        <ele>124.88137817382812</ele>
        <time>2020-07-10T14:30:52.561Z</time>
      </trkpt>
      <trkpt lat="39.80136947706342" lon="-8.461656393483281">
        <ele>123.18241882324219</ele>
        <time>2020-07-10T14:31:16.520Z</time>
      </trkpt>
      <trkpt lat="39.801191026344895" lon="-8.46202083863318">
        <ele>121.79785919189453</ele>
        <time>2020-07-10T14:31:40.493Z</time>
      </trkpt>
      <trkpt lat="39.80097292922437" lon="-8.462258884683251">
        <ele>121.77392578125</ele>
        <time>2020-07-10T14:32:04.477Z</time>
      </trkpt>
      <trkpt lat="39.79980901814997" lon="-8.462852826341987">
        <ele>121.31082153320312</ele>
        <time>2020-07-10T14:32:28.511Z</time>
      </trkpt>
      <trkpt lat="39.79934901930392" lon="-8.46311685629189">
        <ele>120.7589111328125</ele>
        <time>2020-07-10T14:32:52.565Z</time>
      </trkpt>
      <trkpt lat="39.798952052369714" lon="-8.463102774694562">
        <ele>120.28263092041016</ele>
        <time>2020-07-10T14:33:16.635Z</time>
      </trkpt>
      <trkpt lat="39.798529939725995" lon="-8.463188773021102">
        <ele>120.22381591796875</ele>
        <time>2020-07-10T14:33:40.722Z</time>
      </trkpt>
      <trkpt lat="39.79776198975742" lon="-8.463658830150962">
        <ele>121.0</ele>
        <time>2020-07-10T14:34:04.843Z</time>
      </trkpt>
      <trkpt lat="39.79693092405796" lon="-8.46391481347382">
        <ele>120.3632583618164</ele>
        <time>2020-07-10T14:34:28.998Z</time>
      </trkpt>
      <trkpt lat="39.79590103961527" lon="-8.464097874239087">
        <ele>119.41565704345703</ele>
        <time>2020-07-10T14:34:53.195Z</time>
      </trkpt>
      <trkpt lat="39.79572795331478" lon="-8.464163420721889">
        <ele>118.63536071777344</ele>
        <time>2020-07-10T14:35:17.399Z</time>
      </trkpt>
      <trkpt lat="39.79507324285805" lon="-8.46449140459299">
        <ele>118.61128234863281</ele>
        <time>2020-07-10T14:35:41.631Z</time>
      </trkpt>
      <trkpt lat="39.794526072219014" lon="-8.464712770655751">
        <ele>121.68516540527344</ele>
        <time>2020-07-10T14:36:05.886Z</time>
      </trkpt>
      <trkpt lat="39.7937479801476" lon="-8.464539935812354">
        <ele>122.72200775146484</ele>
        <time>2020-07-10T14:36:30.172Z</time>
      </trkpt>
      <trkpt lat="39.79318865574896" lon="-8.464448656886816">
        <ele>119.76800537109375</ele>
        <time>2020-07-10T14:36:54.481Z</time>
      </trkpt>
      <trkpt lat="39.79226438328624" lon="-8.464106423780322">
        <ele>118.04083251953125</ele>
        <time>2020-07-10T14:37:18.828Z</time>
      </trkpt>
      <trkpt lat="39.791775634512305" lon="-8.463667128235102">
        <ele>117.25555419921875</ele>
        <time>2020-07-10T14:37:43.199Z</time>
      </trkpt>
      <trkpt lat="39.79158888570964" lon="-8.463573083281517">
        <ele>117.25716400146484</ele>
        <time>2020-07-10T14:38:07.578Z</time>
      </trkpt>
      <trkpt lat="39.79143985547125" lon="-8.463561600074172">
        <ele>117.10591125488281</ele>
        <time>2020-07-10T14:38:31.963Z</time>
      </trkpt>
      <trkpt lat="39.791003158316016" lon="-8.463481804355979">
        <ele>117.02789306640625</ele>
        <time>2020-07-10T14:38:56.366Z</time>
      </trkpt>
      <trkpt lat="39.78953992947936" lon="-8.463009903207421">
        <ele>117.56006622314453</ele>
        <time>2020-07-10T14:39:20.829Z</time>
      </trkpt>
      <trkpt lat="39.7891287971288" lon="-8.462802954018116">
        <ele>117.15355682373047</ele>
        <time>2020-07-10T14:39:45.310Z</time>
      </trkpt>
      <trkpt lat="39.787469347938895" lon="-8.461409965530038">
        <ele>119.504638671875</ele>
        <time>2020-07-10T14:40:09.870Z</time>
      </trkpt>
      <trkpt lat="39.7869994584471" lon="-8.461079886183143">
        <ele>118.67535400390625</ele>
        <time>2020-07-10T14:40:34.451Z</time>
      </trkpt>
      <trkpt lat="39.78541888296604" lon="-8.460287377238274">
        <ele>118.67646789550781</ele>
        <time>2020-07-10T14:40:59.100Z</time>
      </trkpt>
      <trkpt lat="39.784305933862925" lon="-8.459665607661009">
        <ele>121.26593780517578</ele>
        <time>2020-07-10T14:41:23.797Z</time>
      </trkpt>
      <trkpt lat="39.784084651619196" lon="-8.459494449198246">
        <ele>121.52607727050781</ele>
        <time>2020-07-10T14:41:48.504Z</time>
      </trkpt>
      <trkpt lat="39.78330102749169" lon="-8.45843916758895">
        <ele>128.8800811767578</ele>
        <time>2020-07-10T14:42:13.257Z</time>
      </trkpt>
      <trkpt lat="39.7830690164119" lon="-8.4583380818367">
        <ele>129.8861541748047</ele>
        <time>2020-07-10T14:42:38.019Z</time>
      </trkpt>
      <trkpt lat="39.78256065398455" lon="-8.458380326628685">
        <ele>131.22889709472656</ele>
        <time>2020-07-10T14:43:02.802Z</time>
      </trkpt>
      <trkpt lat="39.78221984580159" lon="-8.458353336900473">
        <ele>132.71466064453125</ele>
        <time>2020-07-10T14:43:27.598Z</time>
      </trkpt>
      <trkpt lat="39.78200677782297" lon="-8.458284018561244">
        <ele>134.348876953125</ele>
        <time>2020-07-10T14:43:52.403Z</time>
      </trkpt>
      <trkpt lat="39.78162992745638" lon="-8.458029879257083">
        <ele>137.496826171875</ele>
        <time>2020-07-10T14:44:17.225Z</time>
      </trkpt>
      <trkpt lat="39.78106708265841" lon="-8.457794599235058">
        <ele>132.40499877929688</ele>
        <time>2020-07-10T14:44:42.071Z</time>
      </trkpt>
      <trkpt lat="39.781008660793304" lon="-8.458016384392977">
        <ele>131.787353515625</ele>
        <time>2020-07-10T14:45:06.924Z</time>
      </trkpt>
      <trkpt lat="39.781119637191296" lon="-8.458145381882787">
        <ele>132.98570251464844</ele>
        <time>2020-07-10T14:45:31.783Z</time>
      </trkpt>
      <trkpt lat="39.78123807348311" lon="-8.45842206850648">
        <ele>134.20579528808594</ele>
        <time>2020-07-10T14:45:56.652Z</time>
      </trkpt>
      <trkpt lat="39.781273026019335" lon="-8.45859607681632">
        <ele>132.61575317382812</ele>
        <time>2020-07-10T14:46:21.526Z</time>
      </trkpt>
      <trkpt lat="39.781213849782944" lon="-8.458789950236678">
        <ele>130.43167114257812</ele>
        <time>2020-07-10T14:46:46.407Z</time>
      </trkpt>
      <trkpt lat="39.78108895942569" lon="-8.458924060687423">
        <ele>128.97279357910156</ele>
        <time>2020-07-10T14:47:11.294Z</time>
      </trkpt>
      <trkpt lat="39.78065469302237" lon="-8.459160849452019">
        <ele>126.65283203125</ele>
        <time>2020-07-10T14:47:36.200Z</time>
      </trkpt>
      <trkpt lat="39.780085645616055" lon="-8.459371821954846">
        <ele>122.71561431884766</ele>
        <time>2020-07-10T14:48:01.130Z</time>
      </trkpt>
      <trkpt lat="39.779784735292196" lon="-8.459440302103758">
        <ele>120.30293273925781</ele>
        <time>2020-07-10T14:48:26.072Z</time>
      </trkpt>
      <trkpt lat="39.77949329651892" lon="-8.459388921037316">
        <ele>118.77376556396484</ele>
        <time>2020-07-10T14:48:51.026Z</time>
      </trkpt>
      <trkpt lat="39.77939405478537" lon="-8.459274843335152">
        <ele>119.18437957763672</ele>
        <time>2020-07-10T14:49:15.985Z</time>
      </trkpt>
      <trkpt lat="39.77929548360407" lon="-8.45924349501729">
        <ele>119.29721069335938</ele>
        <time>2020-07-10T14:49:40.948Z</time>
      </trkpt>
      <trkpt lat="39.77920554578304" lon="-8.459269646555185">
        <ele>119.20307922363281</ele>
        <time>2020-07-10T14:50:05.915Z</time>
      </trkpt>
      <trkpt lat="39.77898367680609" lon="-8.459497299045324">
        <ele>118.3836669921875</ele>
        <time>2020-07-10T14:50:30.893Z</time>
      </trkpt>
      <trkpt lat="39.77887622080743" lon="-8.459554379805923">
        <ele>118.17821502685547</ele>
        <time>2020-07-10T14:50:55.876Z</time>
      </trkpt>
      <trkpt lat="39.77870992384851" lon="-8.45954985357821">
        <ele>118.1828842163086</ele>
        <time>2020-07-10T14:51:20.865Z</time>
      </trkpt>
      <trkpt lat="39.77834992110729" lon="-8.4594398830086">
        <ele>117.58216857910156</ele>
        <time>2020-07-10T14:51:45.869Z</time>
      </trkpt>
      <trkpt lat="39.77758993394673" lon="-8.459489839151502">
        <ele>115.21646118164062</ele>
        <time>2020-07-10T14:52:10.904Z</time>
      </trkpt>
      <trkpt lat="39.77722993120551" lon="-8.459319854155183">
        <ele>113.91154479980469</ele>
        <time>2020-07-10T14:52:35.954Z</time>
      </trkpt>
      <trkpt lat="39.776929942891" lon="-8.459049789234996">
        <ele>113.99443817138672</ele>
        <time>2020-07-10T14:53:01.018Z</time>
      </trkpt>
      <trkpt lat="39.776762053370476" lon="-8.458926910534501">
        <ele>114.43672943115234</ele>
        <time>2020-07-10T14:53:26.090Z</time>
      </trkpt>
      <trkpt lat="39.77643993683159" lon="-8.458809899166226">
        <ele>115.20459747314453</ele>
        <time>2020-07-10T14:53:51.176Z</time>
      </trkpt>
      <trkpt lat="39.77612997405231" lon="-8.458789782598615">
        <ele>115.3751449584961</ele>
        <time>2020-07-10T14:54:16.274Z</time>
      </trkpt>
      <trkpt lat="39.775450034067035" lon="-8.458629855886102">
        <ele>114.51107788085938</ele>
        <time>2020-07-10T14:54:41.400Z</time>
      </trkpt>
      <trkpt lat="39.7747799847275" lon="-8.45853983424604">
        <ele>113.44861602783203</ele>
        <time>2020-07-10T14:55:06.552Z</time>
      </trkpt>
      <trkpt lat="39.773961156606674" lon="-8.458145381882787">
        <ele>113.26345825195312</ele>
        <time>2020-07-10T14:55:31.739Z</time>
      </trkpt>
      <trkpt lat="39.77273999713361" lon="-8.457769872620702">
        <ele>113.36734771728516</ele>
        <time>2020-07-10T14:55:56.977Z</time>
      </trkpt>
      <trkpt lat="39.77250287309289" lon="-8.457557894289494">
        <ele>112.76817321777344</ele>
        <time>2020-07-10T14:56:22.226Z</time>
      </trkpt>
      <trkpt lat="39.77229466661811" lon="-8.45743803307414">
        <ele>112.16256713867188</ele>
        <time>2020-07-10T14:56:47.484Z</time>
      </trkpt>
      <trkpt lat="39.77194773964584" lon="-8.457272658124566">
        <ele>111.81021881103516</ele>
        <time>2020-07-10T14:57:12.757Z</time>
      </trkpt>
      <trkpt lat="39.77175269275904" lon="-8.456796314567327">
        <ele>111.98171997070312</ele>
        <time>2020-07-10T14:57:38.047Z</time>
      </trkpt>
      <trkpt lat="39.77132462896407" lon="-8.455923590809107">
        <ele>111.488037109375</ele>
        <time>2020-07-10T14:58:03.368Z</time>
      </trkpt>
      <trkpt lat="39.770940486341715" lon="-8.455492928624153">
        <ele>113.12264251708984</ele>
        <time>2020-07-10T14:58:28.710Z</time>
      </trkpt>
      <trkpt lat="39.77081769146025" lon="-8.455381700769067">
        <ele>113.25947570800781</ele>
        <time>2020-07-10T14:58:54.058Z</time>
      </trkpt>
      <trkpt lat="39.770360039547086" lon="-8.45535990782082">
        <ele>112.71446990966797</ele>
        <time>2020-07-10T14:59:19.424Z</time>
      </trkpt>
      <trkpt lat="39.76979996077716" lon="-8.455409863963723">
        <ele>111.70327758789062</ele>
        <time>2020-07-10T14:59:44.813Z</time>
      </trkpt>
      <trkpt lat="39.769539618864655" lon="-8.455230491235852">
        <ele>111.80852508544922</ele>
        <time>2020-07-10T15:00:10.213Z</time>
      </trkpt>
      <trkpt lat="39.76935328915715" lon="-8.454982386901975">
        <ele>111.94475555419922</ele>
        <time>2020-07-10T15:00:35.624Z</time>
      </trkpt>
      <trkpt lat="39.769021617248654" lon="-8.454685751348734">
        <ele>112.01399993896484</ele>
        <time>2020-07-10T15:01:01.051Z</time>
      </trkpt>
      <trkpt lat="39.76849062368274" lon="-8.454314935952425">
        <ele>112.50708770751953</ele>
        <time>2020-07-10T15:01:26.502Z</time>
      </trkpt>
      <trkpt lat="39.76772443391383" lon="-8.453673217445612">
        <ele>112.01178741455078</ele>
        <time>2020-07-10T15:01:51.990Z</time>
      </trkpt>
      <trkpt lat="39.767304584383965" lon="-8.45323970541358">
        <ele>111.9264144897461</ele>
        <time>2020-07-10T15:02:17.499Z</time>
      </trkpt>
      <trkpt lat="39.76703275926411" lon="-8.453017249703407">
        <ele>110.95758819580078</ele>
        <time>2020-07-10T15:02:43.021Z</time>
      </trkpt>
      <trkpt lat="39.766791528090835" lon="-8.452743412926793">
        <ele>110.49217224121094</ele>
        <time>2020-07-10T15:03:08.556Z</time>
      </trkpt>
      <trkpt lat="39.76606925949454" lon="-8.452563704922795">
        <ele>109.65971374511719</ele>
        <time>2020-07-10T15:03:34.120Z</time>
      </trkpt>
      <trkpt lat="39.76564555428922" lon="-8.452483909204602">
        <ele>108.64299011230469</ele>
        <time>2020-07-10T15:03:59.701Z</time>
      </trkpt>
      <trkpt lat="39.765309523791075" lon="-8.452523807063699">
        <ele>107.91832733154297</ele>
        <time>2020-07-10T15:04:25.296Z</time>
      </trkpt>
      <trkpt lat="39.764619525521994" lon="-8.452703515067697">
        <ele>106.92768096923828</ele>
        <time>2020-07-10T15:04:50.919Z</time>
      </trkpt>
      <trkpt lat="39.76429011672735" lon="-8.45269781537354">
        <ele>106.64781951904297</ele>
        <time>2020-07-10T15:05:16.555Z</time>
      </trkpt>
      <trkpt lat="39.76237837225199" lon="-8.451608251780272">
        <ele>106.1181411743164</ele>
        <time>2020-07-10T15:05:42.275Z</time>
      </trkpt>
      <trkpt lat="39.7620599437505" lon="-8.451459808275104">
        <ele>108.53023529052734</ele>
        <time>2020-07-10T15:06:08.008Z</time>
      </trkpt>
      <trkpt lat="39.76193052716553" lon="-8.451562654227018">
        <ele>107.75146484375</ele>
        <time>2020-07-10T15:06:33.747Z</time>
      </trkpt>
      <trkpt lat="39.76124974898994" lon="-8.45342779532075">
        <ele>104.2009048461914</ele>
        <time>2020-07-10T15:06:59.550Z</time>
      </trkpt>
      <trkpt lat="39.76079536601901" lon="-8.454842073842883">
        <ele>104.12234497070312</ele>
        <time>2020-07-10T15:07:25.400Z</time>
      </trkpt>
      <trkpt lat="39.76025993004441" lon="-8.456059796735644">
        <ele>107.62694549560547</ele>
        <time>2020-07-10T15:07:51.293Z</time>
      </trkpt>
      <trkpt lat="39.76023788563907" lon="-8.456359952688217">
        <ele>109.81415557861328</ele>
        <time>2020-07-10T15:08:17.196Z</time>
      </trkpt>
      <trkpt lat="39.76039412431419" lon="-8.456756416708231">
        <ele>112.50159454345703</ele>
        <time>2020-07-10T15:08:43.112Z</time>
      </trkpt>
      <trkpt lat="39.7606835514307" lon="-8.457147181034088">
        <ele>113.42115020751953</ele>
        <time>2020-07-10T15:09:09.045Z</time>
      </trkpt>
      <trkpt lat="39.76118613034487" lon="-8.457577843219042">
        <ele>114.63883972167969</ele>
        <time>2020-07-10T15:09:35.002Z</time>
      </trkpt>
      <trkpt lat="39.76131663657725" lon="-8.457733746618032">
        <ele>114.57889556884766</ele>
        <time>2020-07-10T15:10:00.966Z</time>
      </trkpt>
      <trkpt lat="39.762270329520106" lon="-8.459043838083744">
        <ele>115.23516082763672</ele>
        <time>2020-07-10T15:10:26.986Z</time>
      </trkpt>
      <trkpt lat="39.76227133534849" lon="-8.459204602986574">
        <ele>115.870849609375</ele>
        <time>2020-07-10T15:10:53.011Z</time>
      </trkpt>
      <trkpt lat="39.76220553740859" lon="-8.45956846140325">
        <ele>116.6116714477539</ele>
        <time>2020-07-10T15:11:19.047Z</time>
      </trkpt>
      <trkpt lat="39.76173439063132" lon="-8.459445834159851">
        <ele>116.85630798339844</ele>
        <time>2020-07-10T15:11:45.102Z</time>
      </trkpt>
      <trkpt lat="39.761473378166556" lon="-8.459269143640995">
        <ele>116.8634033203125</ele>
        <time>2020-07-10T15:12:11.169Z</time>
      </trkpt>
      <trkpt lat="39.76128922775388" lon="-8.459166465327144">
        <ele>116.71373748779297</ele>
        <time>2020-07-10T15:12:37.244Z</time>
      </trkpt>
      <trkpt lat="39.76114237681031" lon="-8.459115168079734">
        <ele>116.82837677001953</ele>
        <time>2020-07-10T15:13:03.325Z</time>
      </trkpt>
      <trkpt lat="39.7602104768157" lon="-8.459072336554527">
        <ele>116.99212646484375</ele>
        <time>2020-07-10T15:13:29.444Z</time>
      </trkpt>
      <trkpt lat="39.75932786241174" lon="-8.459117598831654">
        <ele>116.5169448852539</ele>
        <time>2020-07-10T15:13:55.598Z</time>
      </trkpt>
      <trkpt lat="39.75875579752028" lon="-8.459166465327144">
        <ele>117.75334167480469</ele>
        <time>2020-07-10T15:14:21.775Z</time>
      </trkpt>
      <trkpt lat="39.75840685889125" lon="-8.459226060658693">
        <ele>117.15303039550781</ele>
        <time>2020-07-10T15:14:47.966Z</time>
      </trkpt>
      <trkpt lat="39.75784418173134" lon="-8.45957432873547">
        <ele>115.66354370117188</ele>
        <time>2020-07-10T15:15:14.182Z</time>
      </trkpt>
      <trkpt lat="39.75762658752501" lon="-8.459568629041314">
        <ele>115.39204406738281</ele>
        <time>2020-07-10T15:15:40.407Z</time>
      </trkpt>
      <trkpt lat="39.75708712823689" lon="-8.45960852690041">
        <ele>113.49818420410156</ele>
        <time>2020-07-10T15:16:06.653Z</time>
      </trkpt>
      <trkpt lat="39.75644993595779" lon="-8.46001991070807">
        <ele>110.9868392944336</ele>
        <time>2020-07-10T15:16:32.928Z</time>
      </trkpt>
      <trkpt lat="39.75581995211542" lon="-8.460509749129415">
        <ele>110.88744354248047</ele>
        <time>2020-07-10T15:16:59.232Z</time>
      </trkpt>
      <trkpt lat="39.75553773343563" lon="-8.460536068305373">
        <ele>111.25762939453125</ele>
        <time>2020-07-10T15:17:25.547Z</time>
      </trkpt>
      <trkpt lat="39.7553560975939" lon="-8.460481334477663">
        <ele>111.69542694091797</ele>
        <time>2020-07-10T15:17:51.870Z</time>
      </trkpt>
      <trkpt lat="39.754744386300445" lon="-8.460042038932443">
        <ele>117.3966064453125</ele>
        <time>2020-07-10T15:18:18.221Z</time>
      </trkpt>
      <trkpt lat="39.75457272492349" lon="-8.459990741685033">
        <ele>118.23455047607422</ele>
        <time>2020-07-10T15:18:44.579Z</time>
      </trkpt>
      <trkpt lat="39.75415748544037" lon="-8.460092917084694">
        <ele>119.82241821289062</ele>
        <time>2020-07-10T15:19:10.954Z</time>
      </trkpt>
      <trkpt lat="39.75341057404876" lon="-8.46003063954413">
        <ele>120.38137817382812</ele>
        <time>2020-07-10T15:19:37.359Z</time>
      </trkpt>
      <trkpt lat="39.75318694487214" lon="-8.460027789697051">
        <ele>120.36770629882812</ele>
        <time>2020-07-10T15:20:03.772Z</time>
      </trkpt>
      <trkpt lat="39.75313422270119" lon="-8.460082020610571">
        <ele>120.62796783447266</ele>
        <time>2020-07-10T15:20:30.188Z</time>
      </trkpt>
      <trkpt lat="39.753089966252446" lon="-8.460169779136777">
        <ele>121.03685760498047</ele>
        <time>2020-07-10T15:20:56.607Z</time>
      </trkpt>
      <trkpt lat="39.75184994749725" lon="-8.460999755188823">
        <ele>123.23856353759766</ele>
        <time>2020-07-10T15:21:23.082Z</time>
      </trkpt>
      <trkpt lat="39.751142179593444" lon="-8.461160100996494">
        <ele>124.12081909179688</ele>
        <time>2020-07-10T15:21:49.586Z</time>
      </trkpt>
      <trkpt lat="39.7504382673651" lon="-8.461279878392816">
        <ele>122.25992584228516</ele>
        <time>2020-07-10T15:22:16.118Z</time>
      </trkpt>
      <trkpt lat="39.75031279027462" lon="-8.461362607777119">
        <ele>122.1808090209961</ele>
        <time>2020-07-10T15:22:42.656Z</time>
      </trkpt>
      <trkpt lat="39.7501100320369" lon="-8.46154977567494">
        <ele>122.36796569824219</ele>
        <time>2020-07-10T15:23:09.204Z</time>
      </trkpt>
      <trkpt lat="39.75004297681153" lon="-8.461716324090958">
        <ele>122.80653381347656</ele>
        <time>2020-07-10T15:23:35.758Z</time>
      </trkpt>
      <trkpt lat="39.75004364736378" lon="-8.461925368756056">
        <ele>123.32329559326172</ele>
        <time>2020-07-10T15:24:02.318Z</time>
      </trkpt>
      <trkpt lat="39.74967559799552" lon="-8.46273673698306">
        <ele>123.75859069824219</ele>
        <time>2020-07-10T15:24:28.907Z</time>
      </trkpt>
      <trkpt lat="39.74930319003761" lon="-8.46340075135231">
        <ele>125.09426879882812</ele>
        <time>2020-07-10T15:24:55.521Z</time>
      </trkpt>
      <trkpt lat="39.748935559764504" lon="-8.463866785168648">
        <ele>126.78545379638672</ele>
        <time>2020-07-10T15:25:22.156Z</time>
      </trkpt>
      <trkpt lat="39.74871352314949" lon="-8.463955214247108">
        <ele>126.78314208984375</ele>
        <time>2020-07-10T15:25:48.800Z</time>
      </trkpt>
      <trkpt lat="39.74767446099526" lon="-8.464217375226616">
        <ele>127.2176284790039</ele>
        <time>2020-07-10T15:26:15.487Z</time>
      </trkpt>
      <trkpt lat="39.747672774696454" lon="-8.464217800682343">
        <ele>127.22269439697266</ele>
        <time>2020-07-10T15:26:42.174Z</time>
      </trkpt>
      <trkpt lat="39.74756805226207" lon="-8.464244222268462">
        <ele>127.53739166259766</ele>
        <time>2020-07-10T15:27:08.865Z</time>
      </trkpt>
      <trkpt lat="39.74689682945609" lon="-8.464527614414692">
        <ele>130.13648986816406</ele>
        <time>2020-07-10T15:27:35.584Z</time>
      </trkpt>
      <trkpt lat="39.746271120384336" lon="-8.465013345703483">
        <ele>133.2183380126953</ele>
        <time>2020-07-10T15:28:02.332Z</time>
      </trkpt>
      <trkpt lat="39.745893431827426" lon="-8.46540411002934">
        <ele>133.4535675048828</ele>
        <time>2020-07-10T15:28:29.100Z</time>
      </trkpt>
      <trkpt lat="39.74551842547953" lon="-8.465834772214293">
        <ele>133.13719177246094</ele>
        <time>2020-07-10T15:28:55.888Z</time>
      </trkpt>
      <trkpt lat="39.745029928162694" lon="-8.466239785775542">
        <ele>129.10476684570312</ele>
        <time>2020-07-10T15:29:22.699Z</time>
      </trkpt>
      <trkpt lat="39.74485122598708" lon="-8.466363837942481">
        <ele>127.09184265136719</ele>
        <time>2020-07-10T15:29:49.518Z</time>
      </trkpt>
      <trkpt lat="39.744666488841176" lon="-8.466439442709088">
        <ele>125.13723754882812</ele>
        <time>2020-07-10T15:30:16.345Z</time>
      </trkpt>
      <trkpt lat="39.74432375282049" lon="-8.466375321149826">
        <ele>121.48058319091797</ele>
        <time>2020-07-10T15:30:43.186Z</time>
      </trkpt>
      <trkpt lat="39.74417136982083" lon="-8.466412369161844">
        <ele>119.56339263916016</ele>
        <time>2020-07-10T15:31:10.033Z</time>
      </trkpt>
      <trkpt lat="39.74374992772937" lon="-8.4666598867625">
        <ele>113.9129867553711</ele>
        <time>2020-07-10T15:31:36.898Z</time>
      </trkpt>
      <trkpt lat="39.74367516115308" lon="-8.466877229511738">
        <ele>113.07716369628906</ele>
        <time>2020-07-10T15:32:03.771Z</time>
      </trkpt>
      <trkpt lat="39.74370801821351" lon="-8.467062637209892">
        <ele>113.00838470458984</ele>
        <time>2020-07-10T15:32:30.649Z</time>
      </trkpt>
      <trkpt lat="39.74370156414807" lon="-8.467273693531752">
        <ele>113.01380920410156</ele>
        <time>2020-07-10T15:32:57.534Z</time>
      </trkpt>
      <trkpt lat="39.74347944371402" lon="-8.46783846616745">
        <ele>113.54680633544922</ele>
        <time>2020-07-10T15:33:24.439Z</time>
      </trkpt>
      <trkpt lat="39.74328867159784" lon="-8.468386055901647">
        <ele>115.10823059082031</ele>
        <time>2020-07-10T15:33:51.362Z</time>
      </trkpt>
      <trkpt lat="39.74312639795244" lon="-8.468714039772749">
        <ele>116.09407806396484</ele>
        <time>2020-07-10T15:34:18.297Z</time>
      </trkpt>
      <trkpt lat="39.74288675934076" lon="-8.468896597623825">
        <ele>116.46366119384766</ele>
        <time>2020-07-10T15:34:45.243Z</time>
      </trkpt>
      <trkpt lat="39.74263848736882" lon="-8.469022074714303">
        <ele>117.18218994140625</ele>
        <time>2020-07-10T15:35:12.200Z</time>
      </trkpt>
      <trkpt lat="39.74250907078385" lon="-8.469213182106614">
        <ele>118.02533721923828</ele>
        <time>2020-07-10T15:35:39.165Z</time>
      </trkpt>
      <trkpt lat="39.74243447184563" lon="-8.469435637816787">
        <ele>118.78608703613281</ele>
        <time>2020-07-10T15:36:06.137Z</time>
      </trkpt>
      <trkpt lat="39.74234679713845" lon="-8.469489868730307">
        <ele>119.02140808105469</ele>
        <time>2020-07-10T15:36:33.113Z</time>
      </trkpt>
      <trkpt lat="39.74215753376484" lon="-8.469384340569377">
        <ele>118.9952621459961</ele>
        <time>2020-07-10T15:37:00.097Z</time>
      </trkpt>
      <trkpt lat="39.74205016158521" lon="-8.469381406903267">
        <ele>119.11705017089844</ele>
        <time>2020-07-10T15:37:27.086Z</time>
      </trkpt>
      <trkpt lat="39.74190993234515" lon="-8.469469835981727">
        <ele>120.28001403808594</ele>
        <time>2020-07-10T15:37:54.081Z</time>
      </trkpt>
      <trkpt lat="39.74153802730143" lon="-8.470040308311582">
        <ele>124.32618713378906</ele>
        <time>2020-07-10T15:38:21.099Z</time>
      </trkpt>
      <trkpt lat="39.7412200178951" lon="-8.470299812033772">
        <ele>128.06967163085938</ele>
        <time>2020-07-10T15:38:48.132Z</time>
      </trkpt>
      <trkpt lat="39.74063336849213" lon="-8.470607846975327">
        <ele>137.01739501953125</ele>
        <time>2020-07-10T15:39:15.190Z</time>
      </trkpt>
      <trkpt lat="39.740259954705834" lon="-8.47077900543809">
        <ele>141.7547607421875</ele>
        <time>2020-07-10T15:39:42.264Z</time>
      </trkpt>
      <trkpt lat="39.74010648205876" lon="-8.470978662371635">
        <ele>142.60214233398438</ele>
        <time>2020-07-10T15:40:09.347Z</time>
      </trkpt>
      <trkpt lat="39.74002962000668" lon="-8.471146887168288">
        <ele>143.00762939453125</ele>
        <time>2020-07-10T15:40:36.436Z</time>
      </trkpt>
      <trkpt lat="39.73992006853223" lon="-8.47126959823072">
        <ele>143.41773986816406</ele>
        <time>2020-07-10T15:41:03.531Z</time>
      </trkpt>
      <trkpt lat="39.73949125036597" lon="-8.471526252105832">
        <ele>144.22869873046875</ele>
        <time>2020-07-10T15:41:30.644Z</time>
      </trkpt>
      <trkpt lat="39.739307099953294" lon="-8.471668912097812">
        <ele>142.85325622558594</ele>
        <time>2020-07-10T15:41:57.766Z</time>
      </trkpt>
      <trkpt lat="39.73918866366148" lon="-8.471976947039366">
        <ele>144.37045288085938</ele>
        <time>2020-07-10T15:42:24.899Z</time>
      </trkpt>
      <trkpt lat="39.73897257819772" lon="-8.47245890647173">
        <ele>149.61671447753906</ele>
        <time>2020-07-10T15:42:52.049Z</time>
      </trkpt>
      <trkpt lat="39.738810220733285" lon="-8.472567284479737">
        <ele>150.3321533203125</ele>
        <time>2020-07-10T15:43:19.206Z</time>
      </trkpt>
      <trkpt lat="39.73868088796735" lon="-8.472567284479737">
        <ele>149.43641662597656</ele>
        <time>2020-07-10T15:43:46.368Z</time>
      </trkpt>
      <trkpt lat="39.73832289688289" lon="-8.472299231216311">
        <ele>143.96693420410156</ele>
        <time>2020-07-10T15:44:13.547Z</time>
      </trkpt>
      <trkpt lat="39.73798996768892" lon="-8.472299901768565">
        <ele>143.9537353515625</ele>
        <time>2020-07-10T15:44:40.739Z</time>
      </trkpt>
      <trkpt lat="39.73772359080613" lon="-8.472430408000946">
        <ele>143.1726837158203</ele>
        <time>2020-07-10T15:45:07.943Z</time>
      </trkpt>
      <trkpt lat="39.73720005713403" lon="-8.473179833963513">
        <ele>144.96461486816406</ele>
        <time>2020-07-10T15:45:35.178Z</time>
      </trkpt>
      <trkpt lat="39.73668004386127" lon="-8.474189853295684">
        <ele>154.41490173339844</ele>
        <time>2020-07-10T15:46:02.450Z</time>
      </trkpt>
      <trkpt lat="39.736629920080304" lon="-8.474619844928384">
        <ele>156.0512237548828</ele>
        <time>2020-07-10T15:46:29.736Z</time>
      </trkpt>
      <trkpt lat="39.736851118505" lon="-8.475339598953724">
        <ele>159.539306640625</ele>
        <time>2020-07-10T15:46:57.045Z</time>
      </trkpt>
      <trkpt lat="39.73680996336043" lon="-8.475619805976748">
        <ele>158.42251586914062</ele>
        <time>2020-07-10T15:47:24.363Z</time>
      </trkpt>
      <trkpt lat="39.73669999279082" lon="-8.476019790396094">
        <ele>156.33348083496094</ele>
        <time>2020-07-10T15:47:51.694Z</time>
      </trkpt>
      <trkpt lat="39.73644048906863" lon="-8.476631585508585">
        <ele>153.5757293701172</ele>
        <time>2020-07-10T15:48:19.047Z</time>
      </trkpt>
      <trkpt lat="39.73643998615444" lon="-8.477109773084521">
        <ele>153.4696502685547</ele>
        <time>2020-07-10T15:48:46.415Z</time>
      </trkpt>
      <trkpt lat="39.73652824759483" lon="-8.477632720023394">
        <ele>153.55030822753906</ele>
        <time>2020-07-10T15:49:13.799Z</time>
      </trkpt>
      <trkpt lat="39.73674994893372" lon="-8.478099843487144">
        <ele>157.432861328125</ele>
        <time>2020-07-10T15:49:41.200Z</time>
      </trkpt>
      <trkpt lat="39.73691993393004" lon="-8.478229762986302">
        <ele>157.88882446289062</ele>
        <time>2020-07-10T15:50:08.609Z</time>
      </trkpt>
      <trkpt lat="39.73716099746525" lon="-8.478368567302823">
        <ele>159.61004638671875</ele>
        <time>2020-07-10T15:50:36.029Z</time>
      </trkpt>
      <trkpt lat="39.73749216645956" lon="-8.478405699133873">
        <ele>160.93003845214844</ele>
        <time>2020-07-10T15:51:03.462Z</time>
      </trkpt>
      <trkpt lat="39.73774001933634" lon="-8.47892981953919">
        <ele>160.0353546142578</ele>
        <time>2020-07-10T15:51:30.914Z</time>
      </trkpt>
      <trkpt lat="39.73800379782915" lon="-8.479192843660712">
        <ele>158.60379028320312</ele>
        <time>2020-07-10T15:51:58.379Z</time>
      </trkpt>
      <trkpt lat="39.738195072859526" lon="-8.479449581354856">
        <ele>157.9631805419922</ele>
        <time>2020-07-10T15:52:25.855Z</time>
      </trkpt>
      <trkpt lat="39.73824117332697" lon="-8.47963490523398">
        <ele>158.90789794921875</ele>
        <time>2020-07-10T15:52:53.337Z</time>
      </trkpt>
      <trkpt lat="39.73820605315268" lon="-8.480188278481364">
        <ele>158.785400390625</ele>
        <time>2020-07-10T15:53:20.836Z</time>
      </trkpt>
      <trkpt lat="39.73803053610027" lon="-8.480678787454963">
        <ele>163.57998657226562</ele>
        <time>2020-07-10T15:53:48.352Z</time>
      </trkpt>
      <trkpt lat="39.73791872151196" lon="-8.480907026678324">
        <ele>166.02796936035156</ele>
        <time>2020-07-10T15:54:15.876Z</time>
      </trkpt>
      <trkpt lat="39.737831046804786" lon="-8.481189329177141">
        <ele>166.14439392089844</ele>
        <time>2020-07-10T15:54:43.410Z</time>
      </trkpt>
      <trkpt lat="39.737529465928674" lon="-8.481640024110675">
        <ele>165.61170959472656</ele>
        <time>2020-07-10T15:55:10.962Z</time>
      </trkpt>
      <trkpt lat="39.737246576696634" lon="-8.481899527832866">
        <ele>165.92413330078125</ele>
        <time>2020-07-10T15:55:38.528Z</time>
      </trkpt>
      <trkpt lat="39.73716812208295" lon="-8.481948059052229">
        <ele>166.08131408691406</ele>
        <time>2020-07-10T15:56:06.097Z</time>
      </trkpt>
      <trkpt lat="39.73701129667461" lon="-8.482045037671924">
        <ele>166.2941131591797</ele>
        <time>2020-07-10T15:56:33.673Z</time>
      </trkpt>
      <trkpt lat="39.73666914738715" lon="-8.48206783644855">
        <ele>167.17535400390625</ele>
        <time>2020-07-10T15:57:01.263Z</time>
      </trkpt>
      <trkpt lat="39.736330853775144" lon="-8.48227889277041">
        <ele>166.46775817871094</ele>
        <time>2020-07-10T15:57:28.868Z</time>
      </trkpt>
      <trkpt lat="39.73590035922825" lon="-8.482489949092269">
        <ele>164.8810577392578</ele>
        <time>2020-07-10T15:57:56.491Z</time>
      </trkpt>
      <trkpt lat="39.73570732399821" lon="-8.482552729547024">
        <ele>164.197509765625</ele>
        <time>2020-07-10T15:58:24.122Z</time>
      </trkpt>
      <trkpt lat="39.735168451443315" lon="-8.482065657153726">
        <ele>163.20941162109375</ele>
        <time>2020-07-10T15:58:51.780Z</time>
      </trkpt>
      <trkpt lat="39.735116651281714" lon="-8.482098849490285">
        <ele>162.8190155029297</ele>
        <time>2020-07-10T15:59:19.440Z</time>
      </trkpt>
      <trkpt lat="39.735163589939475" lon="-8.482277551665902">
        <ele>162.67178344726562</ele>
        <time>2020-07-10T15:59:47.106Z</time>
      </trkpt>
      <trkpt lat="39.73528018221259" lon="-8.483132673427463">
        <ele>161.87367248535156</ele>
        <time>2020-07-10T16:00:14.799Z</time>
      </trkpt>
      <trkpt lat="39.73526014946401" lon="-8.483422687277198">
        <ele>161.17774963378906</ele>
        <time>2020-07-10T16:00:42.501Z</time>
      </trkpt>
      <trkpt lat="39.73513006232679" lon="-8.48383272998035">
        <ele>160.6636962890625</ele>
        <time>2020-07-10T16:01:10.216Z</time>
      </trkpt>
      <trkpt lat="39.735030150040984" lon="-8.48437269218266">
        <ele>159.13072204589844</ele>
        <time>2020-07-10T16:01:37.948Z</time>
      </trkpt>
      <trkpt lat="39.735030150040984" lon="-8.484722720459104">
        <ele>157.8705291748047</ele>
        <time>2020-07-10T16:02:05.691Z</time>
      </trkpt>
      <trkpt lat="39.735180186107755" lon="-8.485132763162255">
        <ele>151.64268493652344</ele>
        <time>2020-07-10T16:02:33.448Z</time>
      </trkpt>
      <trkpt lat="39.7352001350373" lon="-8.485282631590962">
        <ele>150.4984588623047</ele>
        <time>2020-07-10T16:03:01.210Z</time>
      </trkpt>
      <trkpt lat="39.735125033184886" lon="-8.485630145296454">
        <ele>150.25694274902344</ele>
        <time>2020-07-10T16:03:28.983Z</time>
      </trkpt>
      <trkpt lat="39.73514917306602" lon="-8.485881183296442">
        <ele>149.4228515625</ele>
        <time>2020-07-10T16:03:56.764Z</time>
      </trkpt>
      <trkpt lat="39.735443545505404" lon="-8.486813502386212">
        <ele>145.86807250976562</ele>
        <time>2020-07-10T16:04:24.576Z</time>
      </trkpt>
      <trkpt lat="39.7354781627655" lon="-8.487287247553468">
        <ele>144.52438354492188</ele>
        <time>2020-07-10T16:04:52.403Z</time>
      </trkpt>
      <trkpt lat="39.73537347279489" lon="-8.487593522295356">
        <ele>144.166259765625</ele>
        <time>2020-07-10T16:05:20.240Z</time>
      </trkpt>
      <trkpt lat="39.73519359715283" lon="-8.487993506714702">
        <ele>140.70111083984375</ele>
        <time>2020-07-10T16:05:48.091Z</time>
      </trkpt>
      <trkpt lat="39.73510533571243" lon="-8.488351078704">
        <ele>138.13787841796875</ele>
        <time>2020-07-10T16:06:15.954Z</time>
      </trkpt>
      <trkpt lat="39.73498689942062" lon="-8.488610666245222">
        <ele>135.61961364746094</ele>
        <time>2020-07-10T16:06:43.826Z</time>
      </trkpt>
      <trkpt lat="39.7346305847168" lon="-8.489033617079258">
        <ele>129.6622772216797</ele>
        <time>2020-07-10T16:07:11.717Z</time>
      </trkpt>
      <trkpt lat="39.734267983585596" lon="-8.489321786910295">
        <ele>129.3328857421875</ele>
        <time>2020-07-10T16:07:39.625Z</time>
      </trkpt>
      <trkpt lat="39.73414259031415" lon="-8.489471739158034">
        <ele>129.3176727294922</ele>
        <time>2020-07-10T16:08:07.540Z</time>
      </trkpt>
      <trkpt lat="39.73365065641701" lon="-8.489781534299254">
        <ele>130.2952880859375</ele>
        <time>2020-07-10T16:08:35.477Z</time>
      </trkpt>
      <trkpt lat="39.73317557014525" lon="-8.490258799865842">
        <ele>124.00041961669922</ele>
        <time>2020-07-10T16:09:03.438Z</time>
      </trkpt>
      <trkpt lat="39.73285001702607" lon="-8.490069871768355">
        <ele>120.96125030517578</ele>
        <time>2020-07-10T16:09:31.413Z</time>
      </trkpt>
      <trkpt lat="39.73238691687584" lon="-8.489977838471532">
        <ele>115.62581634521484</ele>
        <time>2020-07-10T16:09:59.407Z</time>
      </trkpt>
      <trkpt lat="39.73178895190358" lon="-8.489991081878543">
        <ele>110.21759796142578</ele>
        <time>2020-07-10T16:10:27.425Z</time>
      </trkpt>
      <trkpt lat="39.731597593054175" lon="-8.489603167399764">
        <ele>110.02728271484375</ele>
        <time>2020-07-10T16:10:55.457Z</time>
      </trkpt>
      <trkpt lat="39.73124119453132" lon="-8.48980282433331">
        <ele>107.64970397949219</ele>
        <time>2020-07-10T16:11:23.505Z</time>
      </trkpt>
      <trkpt lat="39.73101387731731" lon="-8.490086970850825">
        <ele>106.40428924560547</ele>
        <time>2020-07-10T16:11:51.565Z</time>
      </trkpt>
      <trkpt lat="39.73024416714907" lon="-8.490570103749633">
        <ele>104.82009887695312</ele>
        <time>2020-07-10T16:12:19.660Z</time>
      </trkpt>
      <trkpt lat="39.73007963038981" lon="-8.490595752373338">
        <ele>104.68423461914062</ele>
        <time>2020-07-10T16:12:47.761Z</time>
      </trkpt>
      <trkpt lat="39.72990419715643" lon="-8.490524422377348">
        <ele>104.4317855834961</ele>
        <time>2020-07-10T16:13:15.870Z</time>
      </trkpt>
      <trkpt lat="39.72970403730869" lon="-8.490547304973006">
        <ele>104.45924377441406</ele>
        <time>2020-07-10T16:13:43.987Z</time>
      </trkpt>
      <trkpt lat="39.729471523314714" lon="-8.490544371306896">
        <ele>104.21540069580078</ele>
        <time>2020-07-10T16:14:12.113Z</time>
      </trkpt>
      <trkpt lat="39.72939692437649" lon="-8.490612851455808">
        <ele>104.02904510498047</ele>
        <time>2020-07-10T16:14:40.243Z</time>
      </trkpt>
      <trkpt lat="39.72935694269836" lon="-8.490718798711896">
        <ele>104.01225280761719</ele>
        <time>2020-07-10T16:15:08.376Z</time>
      </trkpt>
      <trkpt lat="39.729401199147105" lon="-8.490876713767648">
        <ele>104.36101531982422</ele>
        <time>2020-07-10T16:15:36.514Z</time>
      </trkpt>
      <trkpt lat="39.72961845807731" lon="-8.491089195013046">
        <ele>104.87738037109375</ele>
        <time>2020-07-10T16:16:04.663Z</time>
      </trkpt>
      <trkpt lat="39.72975667566061" lon="-8.49132589995861">
        <ele>104.4752197265625</ele>
        <time>2020-07-10T16:16:32.821Z</time>
      </trkpt>
      <trkpt lat="39.72980939783156" lon="-8.491551205515862">
        <ele>103.99783325195312</ele>
        <time>2020-07-10T16:17:00.987Z</time>
      </trkpt>
      <trkpt lat="39.72973035648465" lon="-8.491842141374946">
        <ele>103.25601196289062</ele>
        <time>2020-07-10T16:17:29.162Z</time>
      </trkpt>
      <trkpt lat="39.729444617405534" lon="-8.492138776928186">
        <ele>103.5125961303711</ele>
        <time>2020-07-10T16:17:57.352Z</time>
      </trkpt>
      <trkpt lat="39.72934378311038" lon="-8.492412529885769">
        <ele>103.92753601074219</ele>
        <time>2020-07-10T16:18:25.551Z</time>
      </trkpt>
      <trkpt lat="39.72903826273978" lon="-8.493482144549489">
        <ele>105.98046112060547</ele>
        <time>2020-07-10T16:18:53.785Z</time>
      </trkpt>
      <trkpt lat="39.72868898883462" lon="-8.494260739535093">
        <ele>108.80084228515625</ele>
        <time>2020-07-10T16:19:22.047Z</time>
      </trkpt>
      <trkpt lat="39.72841582261026" lon="-8.494292171671987">
        <ele>109.89720916748047</ele>
        <time>2020-07-10T16:19:50.320Z</time>
      </trkpt>
      <trkpt lat="39.72798155620694" lon="-8.49428353831172">
        <ele>111.42923736572266</ele>
        <time>2020-07-10T16:20:18.611Z</time>
      </trkpt>
      <trkpt lat="39.727434888482094" lon="-8.494183793663979">
        <ele>113.89807891845703</ele>
        <time>2020-07-10T16:20:46.924Z</time>
      </trkpt>
      <trkpt lat="39.727028449997306" lon="-8.494169460609555">
        <ele>117.01421356201172</ele>
        <time>2020-07-10T16:21:15.253Z</time>
      </trkpt>
      <trkpt lat="39.72629084251821" lon="-8.49398992024362">
        <ele>115.66536712646484</ele>
        <time>2020-07-10T16:21:43.612Z</time>
      </trkpt>
      <trkpt lat="39.725857665762305" lon="-8.4937958791852">
        <ele>113.0497055053711</ele>
        <time>2020-07-10T16:22:11.989Z</time>
      </trkpt>
      <trkpt lat="39.72534377127886" lon="-8.493658918887377">
        <ele>110.25476837158203</ele>
        <time>2020-07-10T16:22:40.387Z</time>
      </trkpt>
      <trkpt lat="39.724709931761026" lon="-8.493609884753823">
        <ele>109.07321166992188</ele>
        <time>2020-07-10T16:23:08.811Z</time>
      </trkpt>
      <trkpt lat="39.7240533772856" lon="-8.493581973016262">
        <ele>107.15736389160156</ele>
        <time>2020-07-10T16:23:37.261Z</time>
      </trkpt>
      <trkpt lat="39.72369572147727" lon="-8.493593372404575">
        <ele>105.87617492675781</ele>
        <time>2020-07-10T16:24:05.725Z</time>
      </trkpt>
      <trkpt lat="39.723109574988484" lon="-8.493852876126766">
        <ele>104.57365417480469</ele>
        <time>2020-07-10T16:24:34.214Z</time>
      </trkpt>
      <trkpt lat="39.722319999709725" lon="-8.494029818102717">
        <ele>103.93115997314453</ele>
        <time>2020-07-10T16:25:02.735Z</time>
      </trkpt>
      <trkpt lat="39.721434535458684" lon="-8.494018334895372">
        <ele>100.27711486816406</ele>
        <time>2020-07-10T16:25:31.291Z</time>
      </trkpt>
      <trkpt lat="39.72094536758959" lon="-8.493921356275678">
        <ele>101.5489501953125</ele>
        <time>2020-07-10T16:25:59.867Z</time>
      </trkpt>
      <trkpt lat="39.7204424533993" lon="-8.493684651330113">
        <ele>101.8069076538086</ele>
        <time>2020-07-10T16:26:28.464Z</time>
      </trkpt>
      <trkpt lat="39.72039199434221" lon="-8.493721699342132">
        <ele>102.04524993896484</ele>
        <time>2020-07-10T16:26:57.064Z</time>
      </trkpt>
      <trkpt lat="39.7202801797539" lon="-8.49432067014277">
        <ele>105.91704559326172</ele>
        <time>2020-07-10T16:27:25.683Z</time>
      </trkpt>
      <trkpt lat="39.72022502683103" lon="-8.494850909337401">
        <ele>106.46595764160156</ele>
        <time>2020-07-10T16:27:54.318Z</time>
      </trkpt>
      <trkpt lat="39.720047917217016" lon="-8.495161877945065">
        <ele>108.64280700683594</ele>
        <time>2020-07-10T16:28:22.965Z</time>
      </trkpt>
      <trkpt lat="39.719716077670455" lon="-8.495599748566747">
        <ele>113.41630554199219</ele>
        <time>2020-07-10T16:28:51.631Z</time>
      </trkpt>
      <trkpt lat="39.719625217840075" lon="-8.495758166536689">
        <ele>114.72447204589844</ele>
        <time>2020-07-10T16:29:20.303Z</time>
      </trkpt>
      <trkpt lat="39.719504518434405" lon="-8.496628040447831">
        <ele>115.78438568115234</ele>
        <time>2020-07-10T16:29:49.003Z</time>
      </trkpt>
      <trkpt lat="39.71947828307748" lon="-8.496993156149983">
        <ele>116.8388900756836</ele>
        <time>2020-07-10T16:30:17.714Z</time>
      </trkpt>
      <trkpt lat="39.719539722427726" lon="-8.497189963236451">
        <ele>116.23527526855469</ele>
        <time>2020-07-10T16:30:46.431Z</time>
      </trkpt>
      <trkpt lat="39.719682298600674" lon="-8.497403869405389">
        <ele>114.6103286743164</ele>
        <time>2020-07-10T16:31:15.157Z</time>
      </trkpt>
      <trkpt lat="39.719763435423374" lon="-8.497614925727248">
        <ele>113.37383270263672</ele>
        <time>2020-07-10T16:31:43.890Z</time>
      </trkpt>
      <trkpt lat="39.719682298600674" lon="-8.49811976775527">
        <ele>118.84152221679688</ele>
        <time>2020-07-10T16:32:12.639Z</time>
      </trkpt>
      <trkpt lat="39.71970207989216" lon="-8.498479099944234">
        <ele>120.5843276977539</ele>
        <time>2020-07-10T16:32:41.399Z</time>
      </trkpt>
      <trkpt lat="39.71980953589082" lon="-8.49892401136458">
        <ele>118.8155746459961</ele>
        <time>2020-07-10T16:33:10.174Z</time>
      </trkpt>
      <trkpt lat="39.71992805600166" lon="-8.499126518145204">
        <ele>116.173095703125</ele>
        <time>2020-07-10T16:33:38.957Z</time>
      </trkpt>
      <trkpt lat="39.71999385394156" lon="-8.499383255839348">
        <ele>115.23423767089844</ele>
        <time>2020-07-10T16:34:07.748Z</time>
      </trkpt>
      <trkpt lat="39.719987232238054" lon="-8.499602861702442">
        <ele>116.72643280029297</ele>
        <time>2020-07-10T16:34:36.546Z</time>
      </trkpt>
      <trkpt lat="39.71991992555559" lon="-8.499799752607942">
        <ele>119.56290435791016</ele>
        <time>2020-07-10T16:35:05.350Z</time>
      </trkpt>
      <trkpt lat="39.719789922237396" lon="-8.500019861385226">
        <ele>123.66620635986328</ele>
        <time>2020-07-10T16:35:34.163Z</time>
      </trkpt>
      <trkpt lat="39.71971959806979" lon="-8.500267378985882">
        <ele>126.33866119384766</ele>
        <time>2020-07-10T16:36:02.984Z</time>
      </trkpt>
      <trkpt lat="39.7196757607162" lon="-8.50051841698587">
        <ele>129.01612854003906</ele>
        <time>2020-07-10T16:36:31.813Z</time>
      </trkpt>
      <trkpt lat="39.72006459720433" lon="-8.501066006720066">
        <ele>117.6296157836914</ele>
        <time>2020-07-10T16:37:00.665Z</time>
      </trkpt>
      <trkpt lat="39.72011991776526" lon="-8.501269770786166">
        <ele>115.7525634765625</ele>
        <time>2020-07-10T16:37:29.524Z</time>
      </trkpt>
      <trkpt lat="39.72025327384472" lon="-8.501633545383811">
        <ele>112.30545806884766</ele>
        <time>2020-07-10T16:37:58.395Z</time>
      </trkpt>
      <trkpt lat="39.72035637125373" lon="-8.502363692969084">
        <ele>117.58796691894531</ele>
        <time>2020-07-10T16:38:27.289Z</time>
      </trkpt>
      <trkpt lat="39.720449997112155" lon="-8.50247978232801">
        <ele>118.6064453125</ele>
        <time>2020-07-10T16:38:56.188Z</time>
      </trkpt>
      <trkpt lat="39.72118014469743" lon="-8.503236500546336">
        <ele>115.63142395019531</ele>
        <time>2020-07-10T16:39:25.125Z</time>
      </trkpt>
      <trkpt lat="39.72126002423465" lon="-8.503939909860492">
        <ele>120.94873809814453</ele>
        <time>2020-07-10T16:39:54.084Z</time>
      </trkpt>
      <trkpt lat="39.72144006751478" lon="-8.504289770498872">
        <ele>120.12368774414062</ele>
        <time>2020-07-10T16:40:23.056Z</time>
      </trkpt>
      <trkpt lat="39.72151198424399" lon="-8.504465790465474">
        <ele>119.34394073486328</ele>
        <time>2020-07-10T16:40:52.034Z</time>
      </trkpt>
      <trkpt lat="39.721470242366195" lon="-8.50585475564003">
        <ele>119.59577178955078</ele>
        <time>2020-07-10T16:41:21.055Z</time>
      </trkpt>
      <trkpt lat="39.72138248383999" lon="-8.506114343181252">
        <ele>120.38516998291016</ele>
        <time>2020-07-10T16:41:50.084Z</time>
      </trkpt>
      <trkpt lat="39.72123119048774" lon="-8.506351048126817">
        <ele>120.59886932373047</ele>
        <time>2020-07-10T16:42:19.123Z</time>
      </trkpt>
      <trkpt lat="39.720875127241015" lon="-8.506593452766538">
        <ele>122.20140075683594</ele>
        <time>2020-07-10T16:42:48.178Z</time>
      </trkpt>
      <trkpt lat="39.72063004039228" lon="-8.506809873506427">
        <ele>122.96147918701172</ele>
        <time>2020-07-10T16:43:17.245Z</time>
      </trkpt>
      <trkpt lat="39.72069005481899" lon="-8.50726987235248">
        <ele>122.31279754638672</ele>
        <time>2020-07-10T16:43:46.326Z</time>
      </trkpt>
      <trkpt lat="39.72078996710479" lon="-8.507669856771827">
        <ele>120.47191619873047</ele>
        <time>2020-07-10T16:44:15.420Z</time>
      </trkpt>
      <trkpt lat="39.720901949331164" lon="-8.507925840094686">
        <ele>119.87696838378906</ele>
        <time>2020-07-10T16:44:44.523Z</time>
      </trkpt>
      <trkpt lat="39.72106003202498" lon="-8.508499832823873">
        <ele>117.89437103271484</ele>
        <time>2020-07-10T16:45:13.645Z</time>
      </trkpt>
      <trkpt lat="39.721099929884076" lon="-8.508789846673608">
        <ele>118.78077697753906</ele>
        <time>2020-07-10T16:45:42.776Z</time>
      </trkpt>
      <trkpt lat="39.721090039238334" lon="-8.509289911016822">
        <ele>120.7468490600586</ele>
        <time>2020-07-10T16:46:11.923Z</time>
      </trkpt>
      <trkpt lat="39.72106992267072" lon="-8.509479844942689">
        <ele>120.5893325805664</ele>
        <time>2020-07-10T16:46:41.075Z</time>
      </trkpt>
      <trkpt lat="39.720989959314466" lon="-8.509779749438167">
        <ele>121.28485107421875</ele>
        <time>2020-07-10T16:47:10.237Z</time>
      </trkpt>
      <trkpt lat="39.72094754688442" lon="-8.510152911767364">
        <ele>121.39688110351562</ele>
        <time>2020-07-10T16:47:39.411Z</time>
      </trkpt>
      <trkpt lat="39.72088719718158" lon="-8.510426916182041">
        <ele>118.44581604003906</ele>
        <time>2020-07-10T16:48:08.594Z</time>
      </trkpt>
      <trkpt lat="39.720762223005295" lon="-8.510556165128946">
        <ele>118.23432922363281</ele>
        <time>2020-07-10T16:48:37.783Z</time>
      </trkpt>
      <trkpt lat="39.720600033178926" lon="-8.51059983484447">
        <ele>119.74613952636719</ele>
        <time>2020-07-10T16:49:06.979Z</time>
      </trkpt>
      <trkpt lat="39.720409931614995" lon="-8.510579885914922">
        <ele>122.54227447509766</ele>
        <time>2020-07-10T16:49:36.182Z</time>
      </trkpt>
      <trkpt lat="39.72004992887378" lon="-8.510659849271178">
        <ele>122.68499755859375</ele>
        <time>2020-07-10T16:50:05.400Z</time>
      </trkpt>
      <trkpt lat="39.71942053176463" lon="-8.510979618877172">
        <ele>120.36602783203125</ele>
        <time>2020-07-10T16:50:34.645Z</time>
      </trkpt>
      <trkpt lat="39.71898576244712" lon="-8.510657753795385">
        <ele>129.81008911132812</ele>
        <time>2020-07-10T16:51:03.910Z</time>
      </trkpt>
      <trkpt lat="39.71882508136332" lon="-8.51064920425415">
        <ele>131.31344604492188</ele>
        <time>2020-07-10T16:51:33.181Z</time>
      </trkpt>
      <trkpt lat="39.71857932396233" lon="-8.510723384097219">
        <ele>132.04244995117188</ele>
        <time>2020-07-10T16:52:02.463Z</time>
      </trkpt>
      <trkpt lat="39.71834622323513" lon="-8.510828912258148">
        <ele>132.10098266601562</ele>
        <time>2020-07-10T16:52:31.754Z</time>
      </trkpt>
      <trkpt lat="39.71820808947086" lon="-8.510908791795373">
        <ele>131.8235321044922</ele>
        <time>2020-07-10T16:53:01.051Z</time>
      </trkpt>
      <trkpt lat="39.71797767095268" lon="-8.511005770415068">
        <ele>132.05055236816406</ele>
        <time>2020-07-10T16:53:30.358Z</time>
      </trkpt>
      <trkpt lat="39.717810368165374" lon="-8.511142646893859">
        <ele>131.92837524414062</ele>
        <time>2020-07-10T16:53:59.673Z</time>
      </trkpt>
      <trkpt lat="39.71770282834768" lon="-8.511176845058799">
        <ele>132.11624145507812</ele>
        <time>2020-07-10T16:54:28.992Z</time>
      </trkpt>
      <trkpt lat="39.71744567155838" lon="-8.51108849979937">
        <ele>131.77340698242188</ele>
        <time>2020-07-10T16:54:58.322Z</time>
      </trkpt>
      <trkpt lat="39.71719505265355" lon="-8.511116998270154">
        <ele>131.1036376953125</ele>
        <time>2020-07-10T16:55:27.662Z</time>
      </trkpt>
      <trkpt lat="39.71707628108561" lon="-8.511068215593696">
        <ele>130.93569946289062</ele>
        <time>2020-07-10T16:55:57.007Z</time>
      </trkpt>
      <trkpt lat="39.716932363808155" lon="-8.5110351908952">
        <ele>132.57078552246094</ele>
        <time>2020-07-10T16:56:26.358Z</time>
      </trkpt>
      <trkpt lat="39.7168352175504" lon="-8.511047177016735">
        <ele>133.8513946533203</ele>
        <time>2020-07-10T16:56:55.713Z</time>
      </trkpt>
      <trkpt lat="39.71673748455942" lon="-8.511154046282172">
        <ele>136.04977416992188</ele>
        <time>2020-07-10T16:57:25.073Z</time>
      </trkpt>
      <trkpt lat="39.71677193418145" lon="-8.511308943852782">
        <ele>136.6033935546875</ele>
        <time>2020-07-10T16:57:54.438Z</time>
      </trkpt>
      <trkpt lat="39.71680982038379" lon="-8.512027859687805">
        <ele>133.96917724609375</ele>
        <time>2020-07-10T16:58:23.825Z</time>
      </trkpt>
      <trkpt lat="39.71678299829364" lon="-8.512319214642048">
        <ele>133.6362762451172</ele>
        <time>2020-07-10T16:58:53.221Z</time>
      </trkpt>
      <trkpt lat="39.716562889516354" lon="-8.512923633679748">
        <ele>134.86203002929688</ele>
        <time>2020-07-10T16:59:22.638Z</time>
      </trkpt>
      <trkpt lat="39.7164705209434" lon="-8.513308614492416">
        <ele>132.92852783203125</ele>
        <time>2020-07-10T16:59:52.067Z</time>
      </trkpt>
      <trkpt lat="39.71646758727729" lon="-8.513495698571205">
        <ele>131.64158630371094</ele>
        <time>2020-07-10T17:00:21.502Z</time>
      </trkpt>
      <trkpt lat="39.71620012074709" lon="-8.514236407354474">
        <ele>127.33881378173828</ele>
        <time>2020-07-10T17:00:50.962Z</time>
      </trkpt>
      <trkpt lat="39.7162532620132" lon="-8.514402704313397">
        <ele>124.7864761352539</ele>
        <time>2020-07-10T17:01:20.428Z</time>
      </trkpt>
      <trkpt lat="39.71646775491536" lon="-8.514707805588841">
        <ele>119.43314361572266</ele>
        <time>2020-07-10T17:01:49.907Z</time>
      </trkpt>
      <trkpt lat="39.71609995700419" lon="-8.514989772811532">
        <ele>120.04198455810547</ele>
        <time>2020-07-10T17:02:19.403Z</time>
      </trkpt>
      <trkpt lat="39.71586006693542" lon="-8.515419764444232">
        <ele>118.89289093017578</ele>
        <time>2020-07-10T17:02:48.915Z</time>
      </trkpt>
      <trkpt lat="39.7156417183578" lon="-8.516285112127662">
        <ele>118.00093841552734</ele>
        <time>2020-07-10T17:03:18.455Z</time>
      </trkpt>
      <trkpt lat="39.715059930458665" lon="-8.51738984696567">
        <ele>117.37113952636719</ele>
        <time>2020-07-10T17:03:48.036Z</time>
      </trkpt>
      <trkpt lat="39.71479003317654" lon="-8.5172398108989">
        <ele>118.11505889892578</ele>
        <time>2020-07-10T17:04:17.629Z</time>
      </trkpt>
      <trkpt lat="39.714089976623654" lon="-8.5163798276335">
        <ele>125.36475372314453</ele>
        <time>2020-07-10T17:04:47.261Z</time>
      </trkpt>
      <trkpt lat="39.71396273933351" lon="-8.516290811821818">
        <ele>128.066162109375</ele>
        <time>2020-07-10T17:05:16.899Z</time>
      </trkpt>
      <trkpt lat="39.71382678486407" lon="-8.516336409375072">
        <ele>129.09555053710938</ele>
        <time>2020-07-10T17:05:46.542Z</time>
      </trkpt>
      <trkpt lat="39.713690746575594" lon="-8.516302211210132">
        <ele>131.10964965820312</ele>
        <time>2020-07-10T17:06:16.191Z</time>
      </trkpt>
      <trkpt lat="39.713220689445734" lon="-8.516028374433517">
        <ele>134.81141662597656</ele>
        <time>2020-07-10T17:06:45.860Z</time>
      </trkpt>
      <trkpt lat="39.71295079216361" lon="-8.51600842550397">
        <ele>134.9550323486328</ele>
        <time>2020-07-10T17:07:15.540Z</time>
      </trkpt>
      <trkpt lat="39.71266002394259" lon="-8.516039857640862">
        <ele>135.20533752441406</ele>
        <time>2020-07-10T17:07:45.232Z</time>
      </trkpt>
      <trkpt lat="39.71255692653358" lon="-8.515959894284606">
        <ele>135.93231201171875</ele>
        <time>2020-07-10T17:08:14.929Z</time>
      </trkpt>
      <trkpt lat="39.712451649829745" lon="-8.515794519335032">
        <ele>138.24119567871094</ele>
        <time>2020-07-10T17:08:44.632Z</time>
      </trkpt>
      <trkpt lat="39.712350061163306" lon="-8.515693852677941">
        <ele>139.69166564941406</ele>
        <time>2020-07-10T17:09:14.340Z</time>
      </trkpt>
      <trkpt lat="39.71216498874128" lon="-8.515552869066596">
        <ele>139.85653686523438</ele>
        <time>2020-07-10T17:09:44.057Z</time>
      </trkpt>
      <trkpt lat="39.71206717193127" lon="-8.515534931793809">
        <ele>139.51622009277344</ele>
        <time>2020-07-10T17:10:13.778Z</time>
      </trkpt>
      <trkpt lat="39.71196407452226" lon="-8.515611961483955">
        <ele>140.00674438476562</ele>
        <time>2020-07-10T17:10:43.504Z</time>
      </trkpt>
      <trkpt lat="39.71173306927085" lon="-8.5160568729043">
        <ele>140.81539916992188</ele>
        <time>2020-07-10T17:11:13.246Z</time>
      </trkpt>
      <trkpt lat="39.71153098158538" lon="-8.5165058914572">
        <ele>142.0549774169922</ele>
        <time>2020-07-10T17:11:43.004Z</time>
      </trkpt>
      <trkpt lat="39.71142092719674" lon="-8.517403090372682">
        <ele>140.38609313964844</ele>
        <time>2020-07-10T17:12:12.790Z</time>
      </trkpt>
      <trkpt lat="39.71111993305385" lon="-8.517729816958308">
        <ele>143.49696350097656</ele>
        <time>2020-07-10T17:12:42.592Z</time>
      </trkpt>
      <trkpt lat="39.7110999841243" lon="-8.517909860238433">
        <ele>144.45616149902344</ele>
        <time>2020-07-10T17:13:12.400Z</time>
      </trkpt>
      <trkpt lat="39.71121992915869" lon="-8.518189815804362">
        <ele>143.65789794921875</ele>
        <time>2020-07-10T17:13:42.217Z</time>
      </trkpt>
      <trkpt lat="39.71126309596002" lon="-8.518395675346255">
        <ele>143.88095092773438</ele>
        <time>2020-07-10T17:14:12.041Z</time>
      </trkpt>
      <trkpt lat="39.71126309596002" lon="-8.518606731668115">
        <ele>143.4208221435547</ele>
        <time>2020-07-10T17:14:41.872Z</time>
      </trkpt>
      <trkpt lat="39.711350770667195" lon="-8.518866235390306">
        <ele>140.49656677246094</ele>
        <time>2020-07-10T17:15:11.711Z</time>
      </trkpt>
      <trkpt lat="39.71134993247688" lon="-8.519159769639373">
        <ele>138.7487335205078</ele>
        <time>2020-07-10T17:15:41.559Z</time>
      </trkpt>
      <trkpt lat="39.71125002019107" lon="-8.51974985562265">
        <ele>139.80368041992188</ele>
        <time>2020-07-10T17:16:11.426Z</time>
      </trkpt>
      <trkpt lat="39.710907032713294" lon="-8.520543370395899">
        <ele>141.9414520263672</ele>
        <time>2020-07-10T17:16:41.321Z</time>
      </trkpt>
      <trkpt lat="39.710764456540346" lon="-8.520651748403907">
        <ele>142.8308563232422</ele>
        <time>2020-07-10T17:17:11.223Z</time>
      </trkpt>
      <trkpt lat="39.71061081625521" lon="-8.520743027329445">
        <ele>143.85784912109375</ele>
        <time>2020-07-10T17:17:41.131Z</time>
      </trkpt>
      <trkpt lat="39.71058449707925" lon="-8.52085710503161">
        <ele>143.5421600341797</ele>
        <time>2020-07-10T17:18:11.043Z</time>
      </trkpt>
      <trkpt lat="39.71079505048692" lon="-8.521121805533767">
        <ele>140.8208465576172</ele>
        <time>2020-07-10T17:18:40.967Z</time>
      </trkpt>
      <trkpt lat="39.710800079628825" lon="-8.521559843793511">
        <ele>141.04136657714844</ele>
        <time>2020-07-10T17:19:10.904Z</time>
      </trkpt>
      <trkpt lat="39.71074006520212" lon="-8.522189827635884">
        <ele>142.98550415039062</ele>
        <time>2020-07-10T17:19:40.861Z</time>
      </trkpt>
      <trkpt lat="39.71083997748792" lon="-8.522459892556071">
        <ele>142.06016540527344</ele>
        <time>2020-07-10T17:20:10.827Z</time>
      </trkpt>
      <trkpt lat="39.71117005683482" lon="-8.522969847545028">
        <ele>135.1591796875</ele>
        <time>2020-07-10T17:20:40.814Z</time>
      </trkpt>
      <trkpt lat="39.71120106987655" lon="-8.523165816441178">
        <ele>133.83311462402344</ele>
        <time>2020-07-10T17:21:10.807Z</time>
      </trkpt>
      <trkpt lat="39.71080091781914" lon="-8.52372094988823">
        <ele>140.15060424804688</ele>
        <time>2020-07-10T17:21:40.823Z</time>
      </trkpt>
      <trkpt lat="39.71034393645823" lon="-8.524244902655482">
        <ele>143.1259002685547</ele>
        <time>2020-07-10T17:22:10.864Z</time>
      </trkpt>
      <trkpt lat="39.70903392881155" lon="-8.525913907215">
        <ele>140.61642456054688</ele>
        <time>2020-07-10T17:22:40.978Z</time>
      </trkpt>
      <trkpt lat="39.70870695076883" lon="-8.526118760928512">
        <ele>142.40467834472656</ele>
        <time>2020-07-10T17:23:11.107Z</time>
      </trkpt>
      <trkpt lat="39.70850293524563" lon="-8.526424868032336">
        <ele>139.63453674316406</ele>
        <time>2020-07-10T17:23:41.248Z</time>
      </trkpt>
      <trkpt lat="39.70834703184664" lon="-8.526489911600947">
        <ele>139.71136474609375</ele>
        <time>2020-07-10T17:24:11.396Z</time>
      </trkpt>
      <trkpt lat="39.70782198943198" lon="-8.526544896885753">
        <ele>140.27073669433594</ele>
        <time>2020-07-10T17:24:41.565Z</time>
      </trkpt>
      <trkpt lat="39.707645466551185" lon="-8.526589907705784">
        <ele>140.58209228515625</ele>
        <time>2020-07-10T17:25:11.741Z</time>
      </trkpt>
      <trkpt lat="39.70715998671949" lon="-8.526618406176567">
        <ele>142.46080017089844</ele>
        <time>2020-07-10T17:25:41.936Z</time>
      </trkpt>
      <trkpt lat="39.70571972429752" lon="-8.526947479695082">
        <ele>135.7992401123047</ele>
        <time>2020-07-10T17:26:12.190Z</time>
      </trkpt>
      <trkpt lat="39.705593744292855" lon="-8.526957118883729">
        <ele>134.91546630859375</ele>
        <time>2020-07-10T17:26:42.449Z</time>
      </trkpt>
      <trkpt lat="39.70538369379938" lon="-8.52675637230277">
        <ele>133.2703857421875</ele>
        <time>2020-07-10T17:27:12.718Z</time>
      </trkpt>
      <trkpt lat="39.704717164859176" lon="-8.525842409580946">
        <ele>127.91903686523438</ele>
        <time>2020-07-10T17:27:43.026Z</time>
      </trkpt>
      <trkpt lat="39.704407369717956" lon="-8.525386936962605">
        <ele>123.95567321777344</ele>
        <time>2020-07-10T17:28:13.353Z</time>
      </trkpt>
      <trkpt lat="39.704130766913295" lon="-8.524907156825066">
        <ele>123.17977142333984</ele>
        <time>2020-07-10T17:28:43.698Z</time>
      </trkpt>
      <trkpt lat="39.70372047275305" lon="-8.524051448330283">
        <ele>121.50894927978516</ele>
        <time>2020-07-10T17:29:14.074Z</time>
      </trkpt>
      <trkpt lat="39.70364143140614" lon="-8.523964025080204">
        <ele>121.66053771972656</ele>
        <time>2020-07-10T17:29:44.455Z</time>
      </trkpt>
      <trkpt lat="39.70345535315573" lon="-8.5239677131176">
        <ele>122.32588195800781</ele>
        <time>2020-07-10T17:30:14.843Z</time>
      </trkpt>
      <trkpt lat="39.702592017129064" lon="-8.523863274604082">
        <ele>125.3585205078125</ele>
        <time>2020-07-10T17:30:45.266Z</time>
      </trkpt>
      <trkpt lat="39.70243586227298" lon="-8.523596059530973">
        <ele>124.5115737915039</ele>
        <time>2020-07-10T17:31:15.699Z</time>
      </trkpt>
      <trkpt lat="39.702044343575835" lon="-8.523237984627485">
        <ele>125.0635986328125</ele>
        <time>2020-07-10T17:31:46.151Z</time>
      </trkpt>
      <trkpt lat="39.70195842906833" lon="-8.523220550268888">
        <ele>125.50553131103516</ele>
        <time>2020-07-10T17:32:16.607Z</time>
      </trkpt>
      <trkpt lat="39.701845021918416" lon="-8.522994825616479">
        <ele>124.69698333740234</ele>
        <time>2020-07-10T17:32:47.071Z</time>
      </trkpt>
      <trkpt lat="39.70167277380824" lon="-8.52309063076973">
        <ele>126.62664031982422</ele>
        <time>2020-07-10T17:33:17.543Z</time>
      </trkpt>
      <trkpt lat="39.7017265856266" lon="-8.52322650142014">
        <ele>127.21736907958984</ele>
        <time>2020-07-10T17:33:48.019Z</time>
      </trkpt>
      <trkpt lat="39.701680066064" lon="-8.523269752040505">
        <ele>127.86360168457031</ele>
        <time>2020-07-10T17:34:18.498Z</time>
      </trkpt>
      <trkpt lat="39.7013296186924" lon="-8.52278578095138">
        <ele>131.13719177246094</ele>
        <time>2020-07-10T17:34:48.997Z</time>
      </trkpt>
      <trkpt lat="39.701139936223626" lon="-8.52269978262484">
        <ele>134.3388214111328</ele>
        <time>2020-07-10T17:35:19.504Z</time>
      </trkpt>
      <trkpt lat="39.70099559985101" lon="-8.522679582238197">
        <ele>137.6533660888672</ele>
        <time>2020-07-10T17:35:50.017Z</time>
      </trkpt>
      <trkpt lat="39.700929718092084" lon="-8.522591153159738">
        <ele>138.8831329345703</ele>
        <time>2020-07-10T17:36:20.534Z</time>
      </trkpt>
      <trkpt lat="39.70089241862297" lon="-8.522405829280615">
        <ele>139.0663604736328</ele>
        <time>2020-07-10T17:36:51.057Z</time>
      </trkpt>
      <trkpt lat="39.70085511915386" lon="-8.522037863731384">
        <ele>137.90237426757812</ele>
        <time>2020-07-10T17:37:21.591Z</time>
      </trkpt>
      <trkpt lat="39.70079753547907" lon="-8.521886738017201">
        <ele>137.66946411132812</ele>
        <time>2020-07-10T17:37:52.130Z</time>
      </trkpt>
      <trkpt lat="39.70047499984503" lon="-8.522109193727374">
        <ele>145.3424530029297</ele>
        <time>2020-07-10T17:38:22.684Z</time>
      </trkpt>
      <trkpt lat="39.700263775885105" lon="-8.522146241739392">
        <ele>147.97222900390625</ele>
        <time>2020-07-10T17:38:53.246Z</time>
      </trkpt>
      <trkpt lat="39.69955148175359" lon="-8.521819934248924">
        <ele>144.8411407470703</ele>
        <time>2020-07-10T17:39:23.839Z</time>
      </trkpt>
      <trkpt lat="39.699347550049424" lon="-8.521815408021212">
        <ele>143.9568634033203</ele>
        <time>2020-07-10T17:39:54.440Z</time>
      </trkpt>
      <trkpt lat="39.69922467134893" lon="-8.521838206797838">
        <ele>143.53953552246094</ele>
        <time>2020-07-10T17:40:25.046Z</time>
      </trkpt>
      <trkpt lat="39.69910346902907" lon="-8.52190668694675">
        <ele>143.77947998046875</ele>
        <time>2020-07-10T17:40:55.657Z</time>
      </trkpt>
      <trkpt lat="39.698793925344944" lon="-8.522451426833868">
        <ele>148.8297119140625</ele>
        <time>2020-07-10T17:41:26.289Z</time>
      </trkpt>
      <trkpt lat="39.698547665029764" lon="-8.522671032696962">
        <ele>150.09368896484375</ele>
        <time>2020-07-10T17:41:56.933Z</time>
      </trkpt>
      <trkpt lat="39.69818942248821" lon="-8.522839341312647">
        <ele>148.9542694091797</ele>
        <time>2020-07-10T17:42:27.592Z</time>
      </trkpt>
      <trkpt lat="39.69805061817169" lon="-8.522970518097281">
        <ele>148.90850830078125</ele>
        <time>2020-07-10T17:42:58.258Z</time>
      </trkpt>
      <trkpt lat="39.69782237894833" lon="-8.523364132270217">
        <ele>149.84783935546875</ele>
        <time>2020-07-10T17:43:28.939Z</time>
      </trkpt>
      <trkpt lat="39.69771928153932" lon="-8.523469660431147">
        <ele>149.7387237548828</ele>
        <time>2020-07-10T17:43:59.625Z</time>
      </trkpt>
      <trkpt lat="39.697033474221826" lon="-8.523520957678556">
        <ele>145.10946655273438</ele>
        <time>2020-07-10T17:44:30.339Z</time>
      </trkpt>
      <trkpt lat="39.69678939320147" lon="-8.523591198027134">
        <ele>146.7188262939453</ele>
        <time>2020-07-10T17:45:01.063Z</time>
      </trkpt>
      <trkpt lat="39.696599962189794" lon="-8.523679794743657">
        <ele>148.2510528564453</ele>
        <time>2020-07-10T17:45:31.795Z</time>
      </trkpt>
      <trkpt lat="39.69641002826393" lon="-8.523719860240817">
        <ele>149.31927490234375</ele>
        <time>2020-07-10T17:46:02.535Z</time>
      </trkpt>
      <trkpt lat="39.69626158475876" lon="-8.52372346445918">
        <ele>149.88816833496094</ele>
        <time>2020-07-10T17:46:33.280Z</time>
      </trkpt>
      <trkpt lat="39.69606184400618" lon="-8.523655068129301">
        <ele>150.9408721923828</ele>
        <time>2020-07-10T17:47:04.034Z</time>
      </trkpt>
      <trkpt lat="39.694353276863694" lon="-8.523659342899919">
        <ele>154.85992431640625</ele>
        <time>2020-07-10T17:47:34.856Z</time>
      </trkpt>
      <trkpt lat="39.694220423698425" lon="-8.523642914369702">
        <ele>155.4975128173828</ele>
        <time>2020-07-10T17:48:05.683Z</time>
      </trkpt>
      <trkpt lat="39.69394767656922" lon="-8.52371608838439">
        <ele>156.80648803710938</ele>
        <time>2020-07-10T17:48:36.521Z</time>
      </trkpt>
      <trkpt lat="39.69345364719629" lon="-8.524134010076523">
        <ele>157.7056427001953</ele>
        <time>2020-07-10T17:49:07.383Z</time>
      </trkpt>
      <trkpt lat="39.693308137357235" lon="-8.52416267618537">
        <ele>157.53106689453125</ele>
        <time>2020-07-10T17:49:38.251Z</time>
      </trkpt>
      <trkpt lat="39.693156676366925" lon="-8.524231156334281">
        <ele>157.34933471679688</ele>
        <time>2020-07-10T17:50:09.125Z</time>
      </trkpt>
      <trkpt lat="39.69271997921169" lon="-8.52430977858603">
        <ele>158.2103729248047</ele>
        <time>2020-07-10T17:50:40.017Z</time>
      </trkpt>
      <trkpt lat="39.69234136864543" lon="-8.524330984801054">
        <ele>160.80870056152344</ele>
        <time>2020-07-10T17:51:10.924Z</time>
      </trkpt>
      <trkpt lat="39.69205554574728" lon="-8.524550590664148">
        <ele>162.5744171142578</ele>
        <time>2020-07-10T17:51:41.844Z</time>
      </trkpt>
      <trkpt lat="39.691983042284846" lon="-8.524727448821068">
        <ele>163.06051635742188</ele>
        <time>2020-07-10T17:52:12.771Z</time>
      </trkpt>
      <trkpt lat="39.691897463053465" lon="-8.524770196527243">
        <ele>163.93333435058594</ele>
        <time>2020-07-10T17:52:43.701Z</time>
      </trkpt>
      <trkpt lat="39.69095994718373" lon="-8.524479763582349">
        <ele>169.3166046142578</ele>
        <time>2020-07-10T17:53:14.670Z</time>
      </trkpt>
      <trkpt lat="39.69079356640577" lon="-8.524533491581678">
        <ele>170.1795654296875</ele>
        <time>2020-07-10T17:53:45.646Z</time>
      </trkpt>
      <trkpt lat="39.690585024654865" lon="-8.524533491581678">
        <ele>171.18038940429688</ele>
        <time>2020-07-10T17:54:16.630Z</time>
      </trkpt>
      <trkpt lat="39.69035452231765" lon="-8.524436512961984">
        <ele>172.1322021484375</ele>
        <time>2020-07-10T17:54:47.624Z</time>
      </trkpt>
      <trkpt lat="39.69000508077443" lon="-8.524430813267827">
        <ele>171.9060821533203</ele>
        <time>2020-07-10T17:55:18.632Z</time>
      </trkpt>
      <trkpt lat="39.68947593122721" lon="-8.524538604542613">
        <ele>171.85964965820312</ele>
        <time>2020-07-10T17:55:49.661Z</time>
      </trkpt>
      <trkpt lat="39.68902012333274" lon="-8.524527791887522">
        <ele>172.52981567382812</ele>
        <time>2020-07-10T17:56:20.708Z</time>
      </trkpt>
      <trkpt lat="39.68896446749568" lon="-8.524680929258466">
        <ele>173.33154296875</ele>
        <time>2020-07-10T17:56:51.761Z</time>
      </trkpt>
      <trkpt lat="39.68885005451739" lon="-8.524769777432084">
        <ele>173.89520263671875</ele>
        <time>2020-07-10T17:57:22.819Z</time>
      </trkpt>
      <trkpt lat="39.68840992078185" lon="-8.52481990121305">
        <ele>175.00965881347656</ele>
        <time>2020-07-10T17:57:53.894Z</time>
      </trkpt>
      <trkpt lat="39.688268434256315" lon="-8.524773046374321">
        <ele>175.12429809570312</ele>
        <time>2020-07-10T17:58:24.975Z</time>
      </trkpt>
      <trkpt lat="39.68788169324398" lon="-8.524493593722582">
        <ele>172.33641052246094</ele>
        <time>2020-07-10T17:58:56.074Z</time>
      </trkpt>
      <trkpt lat="39.68756066635251" lon="-8.524422263726592">
        <ele>170.56515502929688</ele>
        <time>2020-07-10T17:59:27.186Z</time>
      </trkpt>
      <trkpt lat="39.686999917030334" lon="-8.524589901790023">
        <ele>169.5474395751953</ele>
        <time>2020-07-10T17:59:58.321Z</time>
      </trkpt>
      <trkpt lat="39.68596869148314" lon="-8.525208570063114">
        <ele>162.99258422851562</ele>
        <time>2020-07-10T18:00:29.501Z</time>
      </trkpt>
      <trkpt lat="39.68585788272321" lon="-8.525364054366946">
        <ele>163.82025146484375</ele>
        <time>2020-07-10T18:01:00.688Z</time>
      </trkpt>
      <trkpt lat="39.685773979872465" lon="-8.525722799822688">
        <ele>166.60592651367188</ele>
        <time>2020-07-10T18:01:31.887Z</time>
      </trkpt>
      <trkpt lat="39.68537005595863" lon="-8.525849869474769">
        <ele>165.55682373046875</ele>
        <time>2020-07-10T18:02:03.102Z</time>
      </trkpt>
      <trkpt lat="39.684694642201066" lon="-8.525777030736208">
        <ele>166.35421752929688</ele>
        <time>2020-07-10T18:02:34.344Z</time>
      </trkpt>
      <trkpt lat="39.68420463614166" lon="-8.525705700740218">
        <ele>166.17189025878906</ele>
        <time>2020-07-10T18:03:05.606Z</time>
      </trkpt>
      <trkpt lat="39.68403565697372" lon="-8.525631604716182">
        <ele>165.5338592529297</ele>
        <time>2020-07-10T18:03:36.875Z</time>
      </trkpt>
      <trkpt lat="39.68385284766555" lon="-8.52561735548079">
        <ele>165.36289978027344</ele>
        <time>2020-07-10T18:04:08.151Z</time>
      </trkpt>
      <trkpt lat="39.68373382464051" lon="-8.525677202269435">
        <ele>166.0809326171875</ele>
        <time>2020-07-10T18:04:39.433Z</time>
      </trkpt>
      <trkpt lat="39.683619663119316" lon="-8.52584551088512">
        <ele>168.1002960205078</ele>
        <time>2020-07-10T18:05:10.721Z</time>
      </trkpt>
      <trkpt lat="39.6835099440068" lon="-8.525929832831025">
        <ele>169.11199951171875</ele>
        <time>2020-07-10T18:05:42.015Z</time>
      </trkpt>
      <trkpt lat="39.68295623548329" lon="-8.525916757062078">
        <ele>168.95510864257812</ele>
        <time>2020-07-10T18:06:13.331Z</time>
      </trkpt>
      <trkpt lat="39.682672591879964" lon="-8.52586260996759">
        <ele>167.44760131835938</ele>
        <time>2020-07-10T18:06:44.658Z</time>
      </trkpt>
      <trkpt lat="39.68219348229468" lon="-8.52559732273221">
        <ele>163.39007568359375</ele>
        <time>2020-07-10T18:07:16.006Z</time>
      </trkpt>
      <trkpt lat="39.681993992999196" lon="-8.52555281482637">
        <ele>163.08102416992188</ele>
        <time>2020-07-10T18:07:47.362Z</time>
      </trkpt>
      <trkpt lat="39.681991562247276" lon="-8.526243399828672">
        <ele>168.73251342773438</ele>
        <time>2020-07-10T18:08:18.739Z</time>
      </trkpt>
      <trkpt lat="39.68134674243629" lon="-8.527455423027277">
        <ele>169.07867431640625</ele>
        <time>2020-07-10T18:08:50.162Z</time>
      </trkpt>
      <trkpt lat="39.6808023378253" lon="-8.527597999200225">
        <ele>163.26600646972656</ele>
        <time>2020-07-10T18:09:21.607Z</time>
      </trkpt>
      <trkpt lat="39.68031509779394" lon="-8.527484089136124">
        <ele>157.84425354003906</ele>
        <time>2020-07-10T18:09:53.072Z</time>
      </trkpt>
      <trkpt lat="39.67940968461335" lon="-8.526260498911142">
        <ele>147.90151977539062</ele>
        <time>2020-07-10T18:10:24.589Z</time>
      </trkpt>
      <trkpt lat="39.67896896414459" lon="-8.525533201172948">
        <ele>139.22900390625</ele>
        <time>2020-07-10T18:10:56.135Z</time>
      </trkpt>
      <trkpt lat="39.678814485669136" lon="-8.525497913360596">
        <ele>136.87786865234375</ele>
        <time>2020-07-10T18:11:27.687Z</time>
      </trkpt>
      <trkpt lat="39.6786885894835" lon="-8.525631856173277">
        <ele>135.51895141601562</ele>
        <time>2020-07-10T18:11:59.246Z</time>
      </trkpt>
      <trkpt lat="39.678629664704204" lon="-8.52585724554956">
        <ele>135.26974487304688</ele>
        <time>2020-07-10T18:12:30.812Z</time>
      </trkpt>
      <trkpt lat="39.67866512015462" lon="-8.52622571401298">
        <ele>134.1498565673828</ele>
        <time>2020-07-10T18:13:02.389Z</time>
      </trkpt>
      <trkpt lat="39.678800823166966" lon="-8.526824433356524">
        <ele>129.80043029785156</ele>
        <time>2020-07-10T18:13:33.986Z</time>
      </trkpt>
      <trkpt lat="39.67894063331187" lon="-8.527112267911434">
        <ele>132.78465270996094</ele>
        <time>2020-07-10T18:14:05.593Z</time>
      </trkpt>
      <trkpt lat="39.67893434688449" lon="-8.527148896828294">
        <ele>132.53082275390625</ele>
        <time>2020-07-10T18:14:37.201Z</time>
      </trkpt>
      <trkpt lat="39.678898472338915" lon="-8.527142778038979">
        <ele>131.59857177734375</ele>
        <time>2020-07-10T18:15:08.811Z</time>
      </trkpt>
      <trkpt lat="39.67879512347281" lon="-8.526994502171874">
        <ele>129.22642517089844</ele>
        <time>2020-07-10T18:15:40.427Z</time>
      </trkpt>
      <trkpt lat="39.67829287983477" lon="-8.526383126154542">
        <ele>129.73629760742188</ele>
        <time>2020-07-10T18:16:12.070Z</time>
      </trkpt>
      <trkpt lat="39.67804695479572" lon="-8.525892533361912">
        <ele>124.90973663330078</ele>
        <time>2020-07-10T18:16:43.732Z</time>
      </trkpt>
      <trkpt lat="39.677930027246475" lon="-8.525767056271434">
        <ele>122.96483612060547</ele>
        <time>2020-07-10T18:17:15.400Z</time>
      </trkpt>
      <trkpt lat="39.67774352990091" lon="-8.525864034891129">
        <ele>122.28671264648438</ele>
        <time>2020-07-10T18:17:47.076Z</time>
      </trkpt>
      <trkpt lat="39.67746005393565" lon="-8.525839811190963">
        <ele>122.9669418334961</ele>
        <time>2020-07-10T18:18:18.763Z</time>
      </trkpt>
      <trkpt lat="39.676340064033866" lon="-8.525619870051742">
        <ele>124.67548370361328</ele>
        <time>2020-07-10T18:18:50.495Z</time>
      </trkpt>
      <trkpt lat="39.67582658864558" lon="-8.525205217301846">
        <ele>122.86709594726562</ele>
        <time>2020-07-10T18:19:22.251Z</time>
      </trkpt>
      <trkpt lat="39.67535954900086" lon="-8.524948479607701">
        <ele>119.44560241699219</ele>
        <time>2020-07-10T18:19:54.028Z</time>
      </trkpt>
      <trkpt lat="39.67494028620422" lon="-8.524654693901539">
        <ele>115.47164154052734</ele>
        <time>2020-07-10T18:20:25.824Z</time>
      </trkpt>
      <trkpt lat="39.674408454447985" lon="-8.525837464258075">
        <ele>115.5324478149414</ele>
        <time>2020-07-10T18:20:57.662Z</time>
      </trkpt>
      <trkpt lat="39.674100168049335" lon="-8.526421515271068">
        <ele>115.41539001464844</ele>
        <time>2020-07-10T18:21:29.522Z</time>
      </trkpt>
      <trkpt lat="39.6735717728734" lon="-8.52729331701994">
        <ele>115.1954345703125</ele>
        <time>2020-07-10T18:22:01.416Z</time>
      </trkpt>
      <trkpt lat="39.672797452658415" lon="-8.528664261102676">
        <ele>116.42057800292969</ele>
        <time>2020-07-10T18:22:33.363Z</time>
      </trkpt>
      <trkpt lat="39.67248589731753" lon="-8.529584677889943">
        <ele>119.2822036743164</ele>
        <time>2020-07-10T18:23:05.341Z</time>
      </trkpt>
      <trkpt lat="39.67239554040134" lon="-8.529976783320308">
        <ele>120.74031829833984</ele>
        <time>2020-07-10T18:23:37.331Z</time>
      </trkpt>
      <trkpt lat="39.671934535726905" lon="-8.53089988231659">
        <ele>123.81912994384766</ele>
        <time>2020-07-10T18:24:09.355Z</time>
      </trkpt>
      <trkpt lat="39.67168064787984" lon="-8.531651655212045">
        <ele>125.06382751464844</ele>
        <time>2020-07-10T18:24:41.405Z</time>
      </trkpt>
      <trkpt lat="39.67160286381841" lon="-8.531633969396353">
        <ele>123.90992736816406</ele>
        <time>2020-07-10T18:25:13.458Z</time>
      </trkpt>
      <trkpt lat="39.67154134064913" lon="-8.53212732821703">
        <ele>125.60868835449219</ele>
        <time>2020-07-10T18:25:45.526Z</time>
      </trkpt>
      <trkpt lat="39.67154796235263" lon="-8.5324068646878">
        <ele>126.06897735595703</ele>
        <time>2020-07-10T18:26:17.603Z</time>
      </trkpt>
      <trkpt lat="39.671499682590365" lon="-8.532766196876764">
        <ele>125.84760284423828</ele>
        <time>2020-07-10T18:26:49.691Z</time>
      </trkpt>
      <trkpt lat="39.67143388465047" lon="-8.533000135794282">
        <ele>127.97899627685547</ele>
        <time>2020-07-10T18:27:21.787Z</time>
      </trkpt>
      <trkpt lat="39.67107103206217" lon="-8.533727433532476">
        <ele>132.43968200683594</ele>
        <time>2020-07-10T18:27:53.909Z</time>
      </trkpt>
      <trkpt lat="39.670578176155686" lon="-8.534651538357139">
        <ele>136.31292724609375</ele>
        <time>2020-07-10T18:28:26.066Z</time>
      </trkpt>
      <trkpt lat="39.66944728977978" lon="-8.536616256460547">
        <ele>146.1292724609375</ele>
        <time>2020-07-10T18:28:58.299Z</time>
      </trkpt>
      <trkpt lat="39.669384928420186" lon="-8.53679914958775">
        <ele>145.96453857421875</ele>
        <time>2020-07-10T18:29:30.538Z</time>
      </trkpt>
      <trkpt lat="39.66947712935507" lon="-8.536801999434829">
        <ele>147.191650390625</ele>
        <time>2020-07-10T18:30:02.781Z</time>
      </trkpt>
      <trkpt lat="39.66973403468728" lon="-8.536756401881576">
        <ele>148.2938232421875</ele>
        <time>2020-07-10T18:30:35.034Z</time>
      </trkpt>
      <trkpt lat="39.66994475573301" lon="-8.53681624867022">
        <ele>149.80775451660156</ele>
        <time>2020-07-10T18:31:07.296Z</time>
      </trkpt>
      <trkpt lat="39.670479353517294" lon="-8.536847680807114">
        <ele>152.77845764160156</ele>
        <time>2020-07-10T18:31:39.579Z</time>
      </trkpt>
      <trkpt lat="39.670582534745336" lon="-8.53688757866621">
        <ele>153.73252868652344</ele>
        <time>2020-07-10T18:32:11.866Z</time>
      </trkpt>
      <trkpt lat="39.670644057914615" lon="-8.537042895331979">
        <ele>155.4060516357422</ele>
        <time>2020-07-10T18:32:44.159Z</time>
      </trkpt>
      <trkpt lat="39.670608853921294" lon="-8.537458050996065">
        <ele>158.7992401123047</ele>
        <time>2020-07-10T18:33:16.465Z</time>
      </trkpt>
      <trkpt lat="39.670639699324965" lon="-8.537600627169013">
        <ele>160.80592346191406</ele>
        <time>2020-07-10T18:33:48.775Z</time>
      </trkpt>
      <trkpt lat="39.67068135738373" lon="-8.537654858082533">
        <ele>161.8564453125</ele>
        <time>2020-07-10T18:34:21.088Z</time>
      </trkpt>
      <trkpt lat="39.670817479491234" lon="-8.537686206400394">
        <ele>163.32464599609375</ele>
        <time>2020-07-10T18:34:53.406Z</time>
      </trkpt>
      <trkpt lat="39.67104907147586" lon="-8.537870859727263">
        <ele>164.82025146484375</ele>
        <time>2020-07-10T18:35:25.735Z</time>
      </trkpt>
      <trkpt lat="39.67119592241943" lon="-8.53792685084045">
        <ele>165.77169799804688</ele>
        <time>2020-07-10T18:35:58.070Z</time>
      </trkpt>
      <trkpt lat="39.671506052836776" lon="-8.537933891639113">
        <ele>162.38905334472656</ele>
        <time>2020-07-10T18:36:30.417Z</time>
      </trkpt>
      <trkpt lat="39.671651143580675" lon="-8.538074037060142">
        <ele>160.38026428222656</ele>
        <time>2020-07-10T18:37:02.772Z</time>
      </trkpt>
      <trkpt lat="39.671745942905545" lon="-8.538237819448113">
        <ele>161.05255126953125</ele>
        <time>2020-07-10T18:37:35.133Z</time>
      </trkpt>
      <trkpt lat="39.67215799726546" lon="-8.53921883739531">
        <ele>164.96649169921875</ele>
        <time>2020-07-10T18:38:07.529Z</time>
      </trkpt>
      <trkpt lat="39.672127570956945" lon="-8.539400305598974">
        <ele>165.90892028808594</ele>
        <time>2020-07-10T18:38:39.930Z</time>
      </trkpt>
      <trkpt lat="39.67201114632189" lon="-8.539773970842361">
        <ele>166.93743896484375</ele>
        <time>2020-07-10T18:39:12.344Z</time>
      </trkpt>
      <trkpt lat="39.6719123236835" lon="-8.540030624717474">
        <ele>166.96046447753906</ele>
        <time>2020-07-10T18:39:44.767Z</time>
      </trkpt>
      <trkpt lat="39.671806963160634" lon="-8.540650801733136">
        <ele>167.85791015625</ele>
        <time>2020-07-10T18:40:17.209Z</time>
      </trkpt>
      <trkpt lat="39.67180486768484" lon="-8.540954729542136">
        <ele>168.93426513671875</ele>
        <time>2020-07-10T18:40:49.661Z</time>
      </trkpt>
      <trkpt lat="39.67155458405614" lon="-8.541796104982495">
        <ele>172.51318359375</ele>
        <time>2020-07-10T18:41:22.140Z</time>
      </trkpt>
      <trkpt lat="39.67156338505447" lon="-8.542135572060943">
        <ele>174.3947296142578</ele>
        <time>2020-07-10T18:41:54.630Z</time>
      </trkpt>
      <trkpt lat="39.67161828652024" lon="-8.542500603944063">
        <ele>175.83827209472656</ele>
        <time>2020-07-10T18:42:27.131Z</time>
      </trkpt>
      <trkpt lat="39.671556763350964" lon="-8.54268316179514">
        <ele>175.6736297607422</ele>
        <time>2020-07-10T18:42:59.639Z</time>
      </trkpt>
      <trkpt lat="39.671236239373684" lon="-8.543011145666242">
        <ele>175.72732543945312</ele>
        <time>2020-07-10T18:43:32.163Z</time>
      </trkpt>
      <trkpt lat="39.67117253690958" lon="-8.543185153976083">
        <ele>176.439697265625</ele>
        <time>2020-07-10T18:44:04.693Z</time>
      </trkpt>
      <trkpt lat="39.67128451913595" lon="-8.543336279690266">
        <ele>178.41546630859375</ele>
        <time>2020-07-10T18:44:37.229Z</time>
      </trkpt>
      <trkpt lat="39.67136708088219" lon="-8.54351875372231">
        <ele>180.28024291992188</ele>
        <time>2020-07-10T18:45:09.772Z</time>
      </trkpt>
      <trkpt lat="39.671410247683525" lon="-8.543969448655844">
        <ele>182.21322631835938</ele>
        <time>2020-07-10T18:45:42.329Z</time>
      </trkpt>
      <trkpt lat="39.671544190496206" lon="-8.54418913833797">
        <ele>183.0186309814453</ele>
        <time>2020-07-10T18:46:14.895Z</time>
      </trkpt>
      <trkpt lat="39.67164075002074" lon="-8.544277483597398">
        <ele>183.14434814453125</ele>
        <time>2020-07-10T18:46:47.465Z</time>
      </trkpt>
      <trkpt lat="39.672106029465795" lon="-8.544620806351304">
        <ele>184.30218505859375</ele>
        <time>2020-07-10T18:47:20.057Z</time>
      </trkpt>
      <trkpt lat="39.67226419597864" lon="-8.545136041939259">
        <ele>185.01681518554688</ele>
        <time>2020-07-10T18:47:52.666Z</time>
      </trkpt>
      <trkpt lat="39.67243107967079" lon="-8.546032821759582">
        <ele>181.3941650390625</ele>
        <time>2020-07-10T18:48:25.303Z</time>
      </trkpt>
      <trkpt lat="39.6727120410651" lon="-8.546415874734521">
        <ele>180.4595947265625</ele>
        <time>2020-07-10T18:48:57.957Z</time>
      </trkpt>
      <trkpt lat="39.672484220936894" lon="-8.546838741749525">
        <ele>179.6395721435547</ele>
        <time>2020-07-10T18:49:30.627Z</time>
      </trkpt>
      <trkpt lat="39.67204391956329" lon="-8.547402760013938">
        <ele>183.45010375976562</ele>
        <time>2020-07-10T18:50:03.321Z</time>
      </trkpt>
      <trkpt lat="39.67192397452891" lon="-8.547466797754169">
        <ele>183.3817138671875</ele>
        <time>2020-07-10T18:50:36.020Z</time>
      </trkpt>
      <trkpt lat="39.6715962421149" lon="-8.54749470949173">
        <ele>181.6835479736328</ele>
        <time>2020-07-10T18:51:08.733Z</time>
      </trkpt>
      <trkpt lat="39.67147554270923" lon="-8.547568889334798">
        <ele>181.67147827148438</ele>
        <time>2020-07-10T18:51:41.451Z</time>
      </trkpt>
      <trkpt lat="39.67136791907251" lon="-8.548077838495374">
        <ele>185.91094970703125</ele>
        <time>2020-07-10T18:52:14.185Z</time>
      </trkpt>
      <trkpt lat="39.67126205563545" lon="-8.548119328916073">
        <ele>185.6741180419922</ele>
        <time>2020-07-10T18:52:46.924Z</time>
      </trkpt>
      <trkpt lat="39.67106591910124" lon="-8.54811186902225">
        <ele>184.11558532714844</ele>
        <time>2020-07-10T18:53:19.670Z</time>
      </trkpt>
      <trkpt lat="39.67083399184048" lon="-8.54807180352509">
        <ele>181.7831573486328</ele>
        <time>2020-07-10T18:53:52.426Z</time>
      </trkpt>
      <trkpt lat="39.67062092386186" lon="-8.54796384461224">
        <ele>181.3476104736328</ele>
        <time>2020-07-10T18:54:25.191Z</time>
      </trkpt>
      <trkpt lat="39.67032076790929" lon="-8.547568889334798">
        <ele>179.8423614501953</ele>
        <time>2020-07-10T18:54:57.973Z</time>
      </trkpt>
      <trkpt lat="39.67004416510463" lon="-8.547263704240322">
        <ele>175.91746520996094</ele>
        <time>2020-07-10T18:55:30.770Z</time>
      </trkpt>
      <trkpt lat="39.669883819296956" lon="-8.547155326232314">
        <ele>174.8877410888672</ele>
        <time>2020-07-10T18:56:03.574Z</time>
      </trkpt>
      <trkpt lat="39.66960503719747" lon="-8.547118278220296">
        <ele>174.6654815673828</ele>
        <time>2020-07-10T18:56:36.389Z</time>
      </trkpt>
      <trkpt lat="39.66925702057779" lon="-8.547199750319123">
        <ele>173.52688598632812</ele>
        <time>2020-07-10T18:57:09.218Z</time>
      </trkpt>
      <trkpt lat="39.66874497011304" lon="-8.547141076996922">
        <ele>173.57937622070312</ele>
        <time>2020-07-10T18:57:42.068Z</time>
      </trkpt>
      <trkpt lat="39.66848404146731" lon="-8.547095814719796">
        <ele>172.6822967529297</ele>
        <time>2020-07-10T18:58:14.928Z</time>
      </trkpt>
      <trkpt lat="39.66823493130505" lon="-8.54699975810945">
        <ele>173.40638732910156</ele>
        <time>2020-07-10T18:58:47.799Z</time>
      </trkpt>
      <trkpt lat="39.66799302957952" lon="-8.547007804736495">
        <ele>173.63870239257812</ele>
        <time>2020-07-10T18:59:20.679Z</time>
      </trkpt>
      <trkpt lat="39.66747645288706" lon="-8.547260100021958">
        <ele>169.20970153808594</ele>
        <time>2020-07-10T18:59:53.581Z</time>
      </trkpt>
      <trkpt lat="39.66742222197354" lon="-8.547304105013609">
        <ele>168.5025177001953</ele>
        <time>2020-07-10T19:00:26.486Z</time>
      </trkpt>
      <trkpt lat="39.66750302352011" lon="-8.547444837167859">
        <ele>168.0710906982422</ele>
        <time>2020-07-10T19:00:59.396Z</time>
      </trkpt>
      <trkpt lat="39.667724976316094" lon="-8.547587832435966">
        <ele>168.6394805908203</ele>
        <time>2020-07-10T19:01:32.316Z</time>
      </trkpt>
      <trkpt lat="39.668190674856305" lon="-8.547956803813577">
        <ele>167.8672332763672</ele>
        <time>2020-07-10T19:02:05.258Z</time>
      </trkpt>
      <trkpt lat="39.6685397811234" lon="-8.548204908147454">
        <ele>167.1612548828125</ele>
        <time>2020-07-10T19:02:38.216Z</time>
      </trkpt>
      <trkpt lat="39.66850298456848" lon="-8.548598857596517">
        <ele>162.54640197753906</ele>
        <time>2020-07-10T19:03:11.186Z</time>
      </trkpt>
      <trkpt lat="39.66851002536714" lon="-8.548853835090995">
        <ele>158.87838745117188</ele>
        <time>2020-07-10T19:03:44.164Z</time>
      </trkpt>
      <trkpt lat="39.66841991990805" lon="-8.549232864752412">
        <ele>153.11927795410156</ele>
        <time>2020-07-10T19:04:17.154Z</time>
      </trkpt>
      <trkpt lat="39.668474989011884" lon="-8.550076754763722">
        <ele>142.70803833007812</ele>
        <time>2020-07-10T19:04:50.171Z</time>
      </trkpt>
      <trkpt lat="39.668389996513724" lon="-8.550694836303592">
        <ele>139.62022399902344</ele>
        <time>2020-07-10T19:05:23.207Z</time>
      </trkpt>
      <trkpt lat="39.66841799207032" lon="-8.551077889278531">
        <ele>138.17051696777344</ele>
        <time>2020-07-10T19:05:56.255Z</time>
      </trkpt>
      <trkpt lat="39.66865008696914" lon="-8.551829997450113">
        <ele>141.320556640625</ele>
        <time>2020-07-10T19:06:29.328Z</time>
      </trkpt>
      <trkpt lat="39.66899089515209" lon="-8.552297791466117">
        <ele>144.86160278320312</ele>
        <time>2020-07-10T19:07:02.421Z</time>
      </trkpt>
      <trkpt lat="39.66960612684488" lon="-8.552283458411694">
        <ele>141.83538818359375</ele>
        <time>2020-07-10T19:07:35.538Z</time>
      </trkpt>
      <trkpt lat="39.66984593309462" lon="-8.55239761993289">
        <ele>144.13931274414062</ele>
        <time>2020-07-10T19:08:08.666Z</time>
      </trkpt>
      <trkpt lat="39.670257065445185" lon="-8.552671372890472">
        <ele>140.5239715576172</ele>
        <time>2020-07-10T19:08:41.812Z</time>
      </trkpt>
      <trkpt lat="39.6708641666919" lon="-8.552871029824018">
        <ele>143.08755493164062</ele>
        <time>2020-07-10T19:09:14.983Z</time>
      </trkpt>
      <trkpt lat="39.67164896428585" lon="-8.553450051695108">
        <ele>152.0728302001953</ele>
        <time>2020-07-10T19:09:48.190Z</time>
      </trkpt>
      <trkpt lat="39.671958424150944" lon="-8.553609726950526">
        <ele>154.81114196777344</ele>
        <time>2020-07-10T19:10:21.410Z</time>
      </trkpt>
      <trkpt lat="39.67222639359534" lon="-8.553698156028986">
        <ele>156.94015502929688</ele>
        <time>2020-07-10T19:10:54.642Z</time>
      </trkpt>
      <trkpt lat="39.67221197672188" lon="-8.553833859041333">
        <ele>159.4169921875</ele>
        <time>2020-07-10T19:11:27.878Z</time>
      </trkpt>
      <trkpt lat="39.67208415269852" lon="-8.55406042188406">
        <ele>163.80117797851562</ele>
        <time>2020-07-10T19:12:01.122Z</time>
      </trkpt>
      <trkpt lat="39.67205305583775" lon="-8.554229820147157">
        <ele>166.92445373535156</ele>
        <time>2020-07-10T19:12:34.372Z</time>
      </trkpt>
      <trkpt lat="39.67217031866312" lon="-8.555717524141073">
        <ele>178.9125518798828</ele>
        <time>2020-07-10T19:13:07.668Z</time>
      </trkpt>
      <trkpt lat="39.67224005609751" lon="-8.556991489604115">
        <ele>189.98304748535156</ele>
        <time>2020-07-10T19:13:41.003Z</time>
      </trkpt>
      <trkpt lat="39.6722638022844" lon="-8.558011736337669">
        <ele>202.43374633789062</ele>
        <time>2020-07-10T19:14:14.370Z</time>
      </trkpt>
      <trkpt lat="39.672220945358276" lon="-8.558011818677187">
        <ele>202.43484497070312</ele>
        <time>2020-07-10T19:14:47.739Z</time>
      </trkpt>
      <trkpt lat="39.672220945358276" lon="-8.55808138847351">
        <ele>203.35301208496094</ele>
        <time>2020-07-10T19:15:21.110Z</time>
      </trkpt>
      <trkpt lat="39.67195272445679" lon="-8.558017015457153">
        <ele>202.50343322753906</ele>
        <time>2020-07-10T19:15:54.492Z</time>
      </trkpt>
      <trkpt lat="39.671491384506226" lon="-8.55808138847351">
        <ele>203.66909790039062</ele>
        <time>2020-07-10T19:16:27.892Z</time>
      </trkpt>
      <trkpt lat="39.66996788978577" lon="-8.557534217834473">
        <ele>199.90684509277344</ele>
        <time>2020-07-10T19:17:01.355Z</time>
      </trkpt>
      <trkpt lat="39.6697211265564" lon="-8.557534217834473">
        <ele>200.4989776611328</ele>
        <time>2020-07-10T19:17:34.828Z</time>
      </trkpt>
      <trkpt lat="39.66964610852301" lon="-8.557802438735962">
        <ele>202.4133758544922</ele>
        <time>2020-07-10T19:18:08.310Z</time>
      </trkpt>
      <trkpt lat="39.67038631439209" lon="-8.558242321014404">
        <ele>203.0097198486328</ele>
        <time>2020-07-10T19:18:41.825Z</time>
      </trkpt>
      <trkpt lat="39.6695601940155" lon="-8.558714389801025">
        <ele>199.14593505859375</ele>
        <time>2020-07-10T19:19:15.376Z</time>
      </trkpt>
      <trkpt lat="39.668487310409546" lon="-8.55958342552185">
        <ele>186.01834106445312</ele>
        <time>2020-07-10T19:19:48.977Z</time>
      </trkpt>
      <trkpt lat="39.66762900352478" lon="-8.56009840965271">
        <ele>184.3502197265625</ele>
        <time>2020-07-10T19:20:22.616Z</time>
      </trkpt>
      <trkpt lat="39.667264223098755" lon="-8.560388088226318">
        <ele>181.64712524414062</ele>
        <time>2020-07-10T19:20:56.272Z</time>
      </trkpt>
      <trkpt lat="39.66680288314819" lon="-8.56060266494751">
        <ele>177.41697692871094</ele>
        <time>2020-07-10T19:21:29.948Z</time>
      </trkpt>
      <trkpt lat="39.66567635536194" lon="-8.560634851455688">
        <ele>164.85951232910156</ele>
        <time>2020-07-10T19:22:03.669Z</time>
      </trkpt>
      <trkpt lat="39.66545104980469" lon="-8.560570478439331">
        <ele>160.68882751464844</ele>
        <time>2020-07-10T19:22:37.399Z</time>
      </trkpt>
      <trkpt lat="39.66521501541138" lon="-8.560323715209961">
        <ele>161.40716552734375</ele>
        <time>2020-07-10T19:23:11.141Z</time>
      </trkpt>
      <trkpt lat="39.66483950614929" lon="-8.560709953308105">
        <ele>157.2364959716797</ele>
        <time>2020-07-10T19:23:44.902Z</time>
      </trkpt>
      <trkpt lat="39.66446408070624" lon="-8.561450242996216">
        <ele>157.555419921875</ele>
        <time>2020-07-10T19:24:18.691Z</time>
      </trkpt>
      <trkpt lat="39.66445326805115" lon="-8.561718463897705">
        <ele>159.32015991210938</ele>
        <time>2020-07-10T19:24:52.488Z</time>
      </trkpt>
      <trkpt lat="39.664785861968994" lon="-8.562415838241577">
        <ele>159.2011260986328</ele>
        <time>2020-07-10T19:25:26.310Z</time>
      </trkpt>
      <trkpt lat="39.66509699821472" lon="-8.562651872634888">
        <ele>160.4254608154297</ele>
        <time>2020-07-10T19:26:00.147Z</time>
      </trkpt>
      <trkpt lat="39.6651291847229" lon="-8.562963008880615">
        <ele>163.63272094726562</ele>
        <time>2020-07-10T19:26:33.994Z</time>
      </trkpt>
      <trkpt lat="39.66463565826416" lon="-8.562716245651245">
        <ele>162.12066650390625</ele>
        <time>2020-07-10T19:27:07.862Z</time>
      </trkpt>
      <trkpt lat="39.664281606674194" lon="-8.562920093536377">
        <ele>168.7500762939453</ele>
        <time>2020-07-10T19:27:41.745Z</time>
      </trkpt>
      <trkpt lat="39.663745164871216" lon="-8.563477993011475">
        <ele>183.7707977294922</ele>
        <time>2020-07-10T19:28:15.656Z</time>
      </trkpt>
      <trkpt lat="39.663498401641846" lon="-8.563542366027832">
        <ele>186.09352111816406</ele>
        <time>2020-07-10T19:28:49.577Z</time>
      </trkpt>
      <trkpt lat="39.66331601142883" lon="-8.563456535339355">
        <ele>186.04283142089844</ele>
        <time>2020-07-10T19:29:23.506Z</time>
      </trkpt>
      <trkpt lat="39.66289758682251" lon="-8.563038110733032">
        <ele>184.11386108398438</ele>
        <time>2020-07-10T19:29:57.456Z</time>
      </trkpt>
      <trkpt lat="39.66272592544556" lon="-8.562973737716675">
        <ele>182.0755615234375</ele>
        <time>2020-07-10T19:30:31.413Z</time>
      </trkpt>
      <trkpt lat="39.66185688972473" lon="-8.563284873962402">
        <ele>178.53451538085938</ele>
        <time>2020-07-10T19:31:05.406Z</time>
      </trkpt>
      <trkpt lat="39.66067671775818" lon="-8.563467264175415">
        <ele>170.33067321777344</ele>
        <time>2020-07-10T19:31:39.446Z</time>
      </trkpt>
      <trkpt lat="39.66000088490546" lon="-8.564540147781372">
        <ele>164.38922119140625</ele>
        <time>2020-07-10T19:32:13.529Z</time>
      </trkpt>
      <trkpt lat="39.659035205841064" lon="-8.566728830337524">
        <ele>150.1751251220703</ele>
        <time>2020-07-10T19:32:47.690Z</time>
      </trkpt>
      <trkpt lat="39.658552408218384" lon="-8.568992614746094">
        <ele>172.493408203125</ele>
        <time>2020-07-10T19:33:21.924Z</time>
      </trkpt>
      <trkpt lat="39.65848811902106" lon="-8.569893836975098">
        <ele>174.23963928222656</ele>
        <time>2020-07-10T19:33:56.185Z</time>
      </trkpt>
      <trkpt lat="39.658477390185" lon="-8.570022583007812">
        <ele>174.6644287109375</ele>
        <time>2020-07-10T19:34:30.450Z</time>
      </trkpt>
      <trkpt lat="39.65847730636597" lon="-8.570419549942017">
        <ele>174.7361297607422</ele>
        <time>2020-07-10T19:35:04.728Z</time>
      </trkpt>
      <trkpt lat="39.65862759388983" lon="-8.571031093597412">
        <ele>176.45697021484375</ele>
        <time>2020-07-10T19:35:39.026Z</time>
      </trkpt>
      <trkpt lat="39.65921759605408" lon="-8.571470975875854">
        <ele>178.1209716796875</ele>
        <time>2020-07-10T19:36:13.351Z</time>
      </trkpt>
      <trkpt lat="39.659056663513184" lon="-8.571932315826416">
        <ele>175.40689086914062</ele>
        <time>2020-07-10T19:36:47.691Z</time>
      </trkpt>
      <trkpt lat="39.65871342457831" lon="-8.57256531715393">
        <ele>171.41702270507812</ele>
        <time>2020-07-10T19:37:22.055Z</time>
      </trkpt>
      <trkpt lat="39.65871334075928" lon="-8.57256531715393">
        <ele>171.4164276123047</ele>
        <time>2020-07-10T19:37:56.419Z</time>
      </trkpt>
      <trkpt lat="39.658305728808045" lon="-8.573262691497803">
        <ele>168.4473419189453</ele>
        <time>2020-07-10T19:38:30.810Z</time>
      </trkpt>
      <trkpt lat="39.658305644989014" lon="-8.573262691497803">
        <ele>168.44664001464844</ele>
        <time>2020-07-10T19:39:05.201Z</time>
      </trkpt>
      <trkpt lat="39.65824135579169" lon="-8.573305606842041">
        <ele>167.95819091796875</ele>
        <time>2020-07-10T19:39:39.595Z</time>
      </trkpt>
      <trkpt lat="39.65732932090759" lon="-8.57359528541565">
        <ele>161.9185791015625</ele>
        <time>2020-07-10T19:40:14.027Z</time>
      </trkpt>
      <trkpt lat="39.65713628567755" lon="-8.574904203414917">
        <ele>163.0016632080078</ele>
        <time>2020-07-10T19:40:48.500Z</time>
      </trkpt>
      <trkpt lat="39.657082641497254" lon="-8.575247526168823">
        <ele>163.72166442871094</ele>
        <time>2020-07-10T19:41:22.984Z</time>
      </trkpt>
      <trkpt lat="39.657050454989076" lon="-8.575483560562134">
        <ele>164.30093383789062</ele>
        <time>2020-07-10T19:41:57.475Z</time>
      </trkpt>
      <trkpt lat="39.65700753964484" lon="-8.57581615447998">
        <ele>165.1600341796875</ele>
        <time>2020-07-10T19:42:31.977Z</time>
      </trkpt>
      <trkpt lat="39.6569646243006" lon="-8.576256036758423">
        <ele>165.63055419921875</ele>
        <time>2020-07-10T19:43:06.492Z</time>
      </trkpt>
      <trkpt lat="39.65692170895636" lon="-8.57708215713501">
        <ele>165.28073120117188</ele>
        <time>2020-07-10T19:43:41.033Z</time>
      </trkpt>
      <trkpt lat="39.65685733594" lon="-8.578176498413086">
        <ele>165.1875762939453</ele>
        <time>2020-07-10T19:44:15.608Z</time>
      </trkpt>
      <trkpt lat="39.656846607103944" lon="-8.5783052444458">
        <ele>164.95587158203125</ele>
        <time>2020-07-10T19:44:50.187Z</time>
      </trkpt>
      <trkpt lat="39.656814420595765" lon="-8.579013347625732">
        <ele>163.08859252929688</ele>
        <time>2020-07-10T19:45:24.788Z</time>
      </trkpt>
      <trkpt lat="39.656803691759706" lon="-8.579185009002686">
        <ele>162.23899841308594</ele>
        <time>2020-07-10T19:45:59.394Z</time>
      </trkpt>
      <trkpt lat="39.656803691759706" lon="-8.579217195510864">
        <ele>162.08453369140625</ele>
        <time>2020-07-10T19:46:34.001Z</time>
      </trkpt>
      <trkpt lat="39.656782234087586" lon="-8.57958197593689">
        <ele>161.41456604003906</ele>
        <time>2020-07-10T19:47:08.619Z</time>
      </trkpt>
      <trkpt lat="39.656760692596436" lon="-8.579989671707153">
        <ele>161.81649780273438</ele>
        <time>2020-07-10T19:47:43.250Z</time>
      </trkpt>
      <trkpt lat="39.65676077641547" lon="-8.579989671707153">
        <ele>161.81680297851562</ele>
        <time>2020-07-10T19:48:17.881Z</time>
      </trkpt>
      <trkpt lat="39.65665340423584" lon="-8.581792116165161">
        <ele>160.34130859375</ele>
        <time>2020-07-10T19:48:52.568Z</time>
      </trkpt>
      <trkpt lat="39.65664275921881" lon="-8.582006692886353">
        <ele>159.7753143310547</ele>
        <time>2020-07-10T19:49:27.261Z</time>
      </trkpt>
      <trkpt lat="39.65665348805487" lon="-8.582028150558472">
        <ele>159.7753143310547</ele>
        <time>2020-07-10T19:50:01.955Z</time>
      </trkpt>
      <trkpt lat="39.65664267539978" lon="-8.582167625427246">
        <ele>159.38873291015625</ele>
        <time>2020-07-10T19:50:36.654Z</time>
      </trkpt>
      <trkpt lat="39.6566641330719" lon="-8.582543134689331">
        <ele>158.5906524658203</ele>
        <time>2020-07-10T19:51:11.364Z</time>
      </trkpt>
      <trkpt lat="39.65669640339911" lon="-8.582725524902344">
        <ele>158.25318908691406</ele>
        <time>2020-07-10T19:51:46.080Z</time>
      </trkpt>
      <trkpt lat="39.65688943862915" lon="-8.583465814590454">
        <ele>157.2937774658203</ele>
        <time>2020-07-10T19:52:20.820Z</time>
      </trkpt>
      <trkpt lat="39.657264947891235" lon="-8.584216833114624">
        <ele>158.1970977783203</ele>
        <time>2020-07-10T19:52:55.588Z</time>
      </trkpt>
      <trkpt lat="39.65737232007086" lon="-8.584356307983398">
        <ele>157.83053588867188</ele>
        <time>2020-07-10T19:53:30.362Z</time>
      </trkpt>
      <trkpt lat="39.65737223625183" lon="-8.584356307983398">
        <ele>157.830322265625</ele>
        <time>2020-07-10T19:54:05.136Z</time>
      </trkpt>
      <trkpt lat="39.65739377774298" lon="-8.584442138671875">
        <ele>157.88201904296875</ele>
        <time>2020-07-10T19:54:39.913Z</time>
      </trkpt>
      <trkpt lat="39.65739369392395" lon="-8.584442138671875">
        <ele>157.88182067871094</ele>
        <time>2020-07-10T19:55:14.690Z</time>
      </trkpt>
      <trkpt lat="39.657318675890565" lon="-8.584624528884888">
        <ele>157.70181274414062</ele>
        <time>2020-07-10T19:55:49.473Z</time>
      </trkpt>
      <trkpt lat="39.65731859207153" lon="-8.584624528884888">
        <ele>157.70159912109375</ele>
        <time>2020-07-10T19:56:24.256Z</time>
      </trkpt>
      <trkpt lat="39.65713620185852" lon="-8.584656715393066">
        <ele>157.26394653320312</ele>
        <time>2020-07-10T19:56:59.046Z</time>
      </trkpt>
      <trkpt lat="39.65659976005554" lon="-8.585000038146973">
        <ele>157.0</ele>
        <time>2020-07-10T19:57:33.860Z</time>
      </trkpt>
      <trkpt lat="39.656599843874574" lon="-8.585000038146973">
        <ele>157.0</ele>
        <time>2020-07-10T19:58:08.674Z</time>
      </trkpt>
      <trkpt lat="39.65608477592468" lon="-8.585493564605713">
        <ele>157.33729553222656</ele>
        <time>2020-07-10T19:58:43.514Z</time>
      </trkpt>
      <trkpt lat="39.65563424862921" lon="-8.586384057998657">
        <ele>156.3018798828125</ele>
        <time>2020-07-10T19:59:18.387Z</time>
      </trkpt>
      <trkpt lat="39.65536594390869" lon="-8.587113618850708">
        <ele>154.76866149902344</ele>
        <time>2020-07-10T19:59:53.285Z</time>
      </trkpt>
      <trkpt lat="39.65510845184326" lon="-8.58807921409607">
        <ele>151.53932189941406</ele>
        <time>2020-07-10T20:00:28.214Z</time>
      </trkpt>
      <trkpt lat="39.65510853566229" lon="-8.58807921409607">
        <ele>151.53982543945312</ele>
        <time>2020-07-10T20:01:03.143Z</time>
      </trkpt>
      <trkpt lat="39.654990434646606" lon="-8.588519096374512">
        <ele>149.7873992919922</ele>
        <time>2020-07-10T20:01:38.087Z</time>
      </trkpt>
      <trkpt lat="39.65499051846564" lon="-8.588519096374512">
        <ele>149.78790283203125</ele>
        <time>2020-07-10T20:02:13.031Z</time>
      </trkpt>
      <trkpt lat="39.65447545051575" lon="-8.590021133422852">
        <ele>146.8188018798828</ele>
        <time>2020-07-10T20:02:48.025Z</time>
      </trkpt>
      <trkpt lat="39.65457201004028" lon="-8.59054684638977">
        <ele>148.1546630859375</ele>
        <time>2020-07-10T20:03:23.036Z</time>
      </trkpt>
      <trkpt lat="39.65457201004028" lon="-8.590868711471558">
        <ele>148.927001953125</ele>
        <time>2020-07-10T20:03:58.057Z</time>
      </trkpt>
      <trkpt lat="39.65435743331909" lon="-8.591619729995728">
        <ele>149.44189453125</ele>
        <time>2020-07-10T20:04:33.103Z</time>
      </trkpt>
      <trkpt lat="39.65426095761359" lon="-8.591684103012085">
        <ele>149.01760864257812</ele>
        <time>2020-07-10T20:05:08.153Z</time>
      </trkpt>
      <trkpt lat="39.65423941612244" lon="-8.591855764389038">
        <ele>149.2820281982422</ele>
        <time>2020-07-10T20:05:43.209Z</time>
      </trkpt>
      <trkpt lat="39.6541965007782" lon="-8.592123985290527">
        <ele>149.0245819091797</ele>
        <time>2020-07-10T20:06:18.273Z</time>
      </trkpt>
      <trkpt lat="39.6541965007782" lon="-8.592349290847778">
        <ele>149.6431427001953</ele>
        <time>2020-07-10T20:06:53.344Z</time>
      </trkpt>
      <trkpt lat="39.65419658459723" lon="-8.592349290847778">
        <ele>149.64395141601562</ele>
        <time>2020-07-10T20:07:28.415Z</time>
      </trkpt>
      <trkpt lat="39.65420722961426" lon="-8.59303593635559">
        <ele>151.4103240966797</ele>
        <time>2020-07-10T20:08:03.507Z</time>
      </trkpt>
      <trkpt lat="39.65409994125366" lon="-8.593862056732178">
        <ele>152.23416137695312</ele>
        <time>2020-07-10T20:08:38.625Z</time>
      </trkpt>
      <trkpt lat="39.65413212776184" lon="-8.59455943107605">
        <ele>152.6937713623047</ele>
        <time>2020-07-10T20:09:13.765Z</time>
      </trkpt>
      <trkpt lat="39.65420722961426" lon="-8.59481692314148">
        <ele>153.50425720214844</ele>
        <time>2020-07-10T20:09:48.913Z</time>
      </trkpt>
      <trkpt lat="39.65445399284363" lon="-8.595149517059326">
        <ele>156.27183532714844</ele>
        <time>2020-07-10T20:10:24.075Z</time>
      </trkpt>
      <trkpt lat="39.65458273887634" lon="-8.595449924468994">
        <ele>157.4503936767578</ele>
        <time>2020-07-10T20:10:59.248Z</time>
      </trkpt>
      <trkpt lat="39.65444326400757" lon="-8.596587181091309">
        <ele>154.306884765625</ele>
        <time>2020-07-10T20:11:34.457Z</time>
      </trkpt>
      <trkpt lat="39.65446472167969" lon="-8.598175048828125">
        <ele>155.0048370361328</ele>
        <time>2020-07-10T20:12:09.715Z</time>
      </trkpt>
      <trkpt lat="39.654282331466675" lon="-8.599151372909546">
        <ele>156.8909912109375</ele>
        <time>2020-07-10T20:12:45.004Z</time>
      </trkpt>
      <trkpt lat="39.65393900871277" lon="-8.600192070007324">
        <ele>155.2667999267578</ele>
        <time>2020-07-10T20:13:20.328Z</time>
      </trkpt>
      <trkpt lat="39.65362787246704" lon="-8.600771427154541">
        <ele>152.55149841308594</ele>
        <time>2020-07-10T20:13:55.673Z</time>
      </trkpt>
      <trkpt lat="39.65320944786072" lon="-8.601833581924438">
        <ele>154.64950561523438</ele>
        <time>2020-07-10T20:14:31.055Z</time>
      </trkpt>
      <trkpt lat="39.65317726135254" lon="-8.602230548858643">
        <ele>154.4383087158203</ele>
        <time>2020-07-10T20:15:06.450Z</time>
      </trkpt>
      <trkpt lat="39.65323090553284" lon="-8.60254168510437">
        <ele>154.74105834960938</ele>
        <time>2020-07-10T20:15:41.854Z</time>
      </trkpt>
      <trkpt lat="39.653788805007935" lon="-8.604226112365723">
        <ele>162.28968811035156</ele>
        <time>2020-07-10T20:16:17.315Z</time>
      </trkpt>
      <trkpt lat="39.65387463569641" lon="-8.60480546951294">
        <ele>166.02842712402344</ele>
        <time>2020-07-10T20:16:52.794Z</time>
      </trkpt>
      <trkpt lat="39.65387463569641" lon="-8.605449199676514">
        <ele>167.8245086669922</ele>
        <time>2020-07-10T20:17:28.293Z</time>
      </trkpt>
      <trkpt lat="39.65352066792548" lon="-8.608260154724121">
        <ele>171.7346649169922</ele>
        <time>2020-07-10T20:18:03.880Z</time>
      </trkpt>
      <trkpt lat="39.653327548876405" lon="-8.609601259231567">
        <ele>174.26185607910156</ele>
        <time>2020-07-10T20:18:39.509Z</time>
      </trkpt>
      <trkpt lat="39.653295278549194" lon="-8.60977292060852">
        <ele>174.8265380859375</ele>
        <time>2020-07-10T20:19:15.144Z</time>
      </trkpt>
      <trkpt lat="39.65337038040161" lon="-8.609858751296997">
        <ele>176.62869262695312</ele>
        <time>2020-07-10T20:19:50.783Z</time>
      </trkpt>
      <trkpt lat="39.65340256690979" lon="-8.61003041267395">
        <ele>178.5338134765625</ele>
        <time>2020-07-10T20:20:26.427Z</time>
      </trkpt>
      <trkpt lat="39.65332746505737" lon="-8.610169887542725">
        <ele>178.62391662597656</ele>
        <time>2020-07-10T20:21:02.077Z</time>
      </trkpt>
      <trkpt lat="39.6531879901886" lon="-8.610212802886963">
        <ele>176.87451171875</ele>
        <time>2020-07-10T20:21:37.732Z</time>
      </trkpt>
      <trkpt lat="39.653048515319824" lon="-8.609998226165771">
        <ele>173.16600036621094</ele>
        <time>2020-07-10T20:22:13.396Z</time>
      </trkpt>
      <trkpt lat="39.65284466743469" lon="-8.610094785690308">
        <ele>171.46717834472656</ele>
        <time>2020-07-10T20:22:49.069Z</time>
      </trkpt>
      <trkpt lat="39.652501344680786" lon="-8.610416650772095">
        <ele>170.5403594970703</ele>
        <time>2020-07-10T20:23:24.759Z</time>
      </trkpt>
      <trkpt lat="39.65148218907416" lon="-8.61152172088623">
        <ele>167.2510528564453</ele>
        <time>2020-07-10T20:24:00.502Z</time>
      </trkpt>
      <trkpt lat="39.651267528533936" lon="-8.611682653427124">
        <ele>166.0274658203125</ele>
        <time>2020-07-10T20:24:36.255Z</time>
      </trkpt>
      <trkpt lat="39.650301933288574" lon="-8.611993789672852">
        <ele>159.93222045898438</ele>
        <time>2020-07-10T20:25:12.047Z</time>
      </trkpt>
      <trkpt lat="39.648531675338745" lon="-8.611832857131958">
        <ele>157.38348388671875</ele>
        <time>2020-07-10T20:25:47.910Z</time>
      </trkpt>
      <trkpt lat="39.648048877716064" lon="-8.611682653427124">
        <ele>158.54200744628906</ele>
        <time>2020-07-10T20:26:23.793Z</time>
      </trkpt>
      <trkpt lat="39.64620360173285" lon="-8.610813617706299">
        <ele>164.0040283203125</ele>
        <time>2020-07-10T20:26:59.755Z</time>
      </trkpt>
      <trkpt lat="39.64570999145508" lon="-8.610641956329346">
        <ele>163.1952362060547</ele>
        <time>2020-07-10T20:27:35.737Z</time>
      </trkpt>
      <trkpt lat="39.64542031288147" lon="-8.610684871673584">
        <ele>163.4011993408203</ele>
        <time>2020-07-10T20:28:11.731Z</time>
      </trkpt>
      <trkpt lat="39.64468002319336" lon="-8.611232042312622">
        <ele>162.51856994628906</ele>
        <time>2020-07-10T20:28:47.759Z</time>
      </trkpt>
      <trkpt lat="39.64449771679938" lon="-8.611586093902588">
        <ele>162.98138427734375</ele>
        <time>2020-07-10T20:29:23.800Z</time>
      </trkpt>
      <trkpt lat="39.64444407261908" lon="-8.611854314804077">
        <ele>163.814697265625</ele>
        <time>2020-07-10T20:29:59.850Z</time>
      </trkpt>
      <trkpt lat="39.64418649673462" lon="-8.612895011901855">
        <ele>164.59490966796875</ele>
        <time>2020-07-10T20:30:35.933Z</time>
      </trkpt>
      <trkpt lat="39.643532037734985" lon="-8.613817691802979">
        <ele>164.1903076171875</ele>
        <time>2020-07-10T20:31:12.055Z</time>
      </trkpt>
      <trkpt lat="39.64359641075134" lon="-8.614085912704468">
        <ele>164.11306762695312</ele>
        <time>2020-07-10T20:31:48.186Z</time>
      </trkpt>
      <trkpt lat="39.6436071395874" lon="-8.614697456359863">
        <ele>164.51480102539062</ele>
        <time>2020-07-10T20:32:24.336Z</time>
      </trkpt>
      <trkpt lat="39.643553495407104" lon="-8.615598678588867">
        <ele>165.99176025390625</ele>
        <time>2020-07-10T20:33:00.513Z</time>
      </trkpt>
      <trkpt lat="39.64359641075134" lon="-8.61626386642456">
        <ele>167.0</ele>
        <time>2020-07-10T20:33:36.711Z</time>
      </trkpt>
      <trkpt lat="39.64343547821045" lon="-8.61677885055542">
        <ele>167.0</ele>
        <time>2020-07-10T20:34:12.926Z</time>
      </trkpt>
      <trkpt lat="39.64339256286621" lon="-8.617326021194458">
        <ele>167.21070861816406</ele>
        <time>2020-07-10T20:34:49.158Z</time>
      </trkpt>
      <trkpt lat="39.64264154434204" lon="-8.619900941848755">
        <ele>172.21005249023438</ele>
        <time>2020-07-10T20:35:25.475Z</time>
      </trkpt>
      <trkpt lat="39.64186906814575" lon="-8.621799945831299">
        <ele>179.86134338378906</ele>
        <time>2020-07-10T20:36:01.859Z</time>
      </trkpt>
      <trkpt lat="39.64175113476813" lon="-8.622668981552124">
        <ele>181.26806640625</ele>
        <time>2020-07-10T20:36:38.270Z</time>
      </trkpt>
      <trkpt lat="39.6417510509491" lon="-8.622668981552124">
        <ele>181.26876831054688</ele>
        <time>2020-07-10T20:37:14.681Z</time>
      </trkpt>
      <trkpt lat="39.64171894825995" lon="-8.622937202453613">
        <ele>183.6640625</ele>
        <time>2020-07-10T20:37:51.100Z</time>
      </trkpt>
      <trkpt lat="39.64137554168701" lon="-8.624085187911987">
        <ele>192.58836364746094</ele>
        <time>2020-07-10T20:38:27.557Z</time>
      </trkpt>
      <trkpt lat="39.64044213294983" lon="-8.625297546386719">
        <ele>203.28781127929688</ele>
        <time>2020-07-10T20:39:04.067Z</time>
      </trkpt>
      <trkpt lat="39.640055894851685" lon="-8.625919818878174">
        <ele>203.88327026367188</ele>
        <time>2020-07-10T20:39:40.602Z</time>
      </trkpt>
      <trkpt lat="39.639766216278076" lon="-8.626595735549927">
        <ele>208.80538940429688</ele>
        <time>2020-07-10T20:40:17.161Z</time>
      </trkpt>
      <trkpt lat="39.63959455490112" lon="-8.62728238105774">
        <ele>208.6380157470703</ele>
        <time>2020-07-10T20:40:53.742Z</time>
      </trkpt>
      <trkpt lat="39.63949799537659" lon="-8.628730773925781">
        <ele>209.74789428710938</ele>
        <time>2020-07-10T20:41:30.368Z</time>
      </trkpt>
      <trkpt lat="39.63964819908142" lon="-8.63075852394104">
        <ele>211.7079315185547</ele>
        <time>2020-07-10T20:42:07.057Z</time>
      </trkpt>
      <trkpt lat="39.63990569114685" lon="-8.63148808479309">
        <ele>201.706298828125</ele>
        <time>2020-07-10T20:42:43.771Z</time>
      </trkpt>
      <trkpt lat="39.64039930142462" lon="-8.631949424743652">
        <ele>191.90936279296875</ele>
        <time>2020-07-10T20:43:20.509Z</time>
      </trkpt>
      <trkpt lat="39.64039921760559" lon="-8.631949424743652">
        <ele>191.90975952148438</ele>
        <time>2020-07-10T20:43:57.247Z</time>
      </trkpt>
      <trkpt lat="39.6407425403595" lon="-8.632228374481201">
        <ele>190.59677124023438</ele>
        <time>2020-07-10T20:44:34.001Z</time>
      </trkpt>
      <trkpt lat="39.641289710998535" lon="-8.632915019989014">
        <ele>190.26226806640625</ele>
        <time>2020-07-10T20:45:10.786Z</time>
      </trkpt>
      <trkpt lat="39.641761779785156" lon="-8.633644580841064">
        <ele>191.76971435546875</ele>
        <time>2020-07-10T20:45:47.600Z</time>
      </trkpt>
      <trkpt lat="39.64186906814575" lon="-8.633869886398315">
        <ele>192.61929321289062</ele>
        <time>2020-07-10T20:46:24.422Z</time>
      </trkpt>
      <trkpt lat="39.64194416999817" lon="-8.634299039840698">
        <ele>195.1680450439453</ele>
        <time>2020-07-10T20:47:01.258Z</time>
      </trkpt>
      <trkpt lat="39.641826236620545" lon="-8.634899854660034">
        <ele>198.02268981933594</ele>
        <time>2020-07-10T20:47:38.113Z</time>
      </trkpt>
      <trkpt lat="39.64121460914612" lon="-8.636294603347778">
        <ele>204.39051818847656</ele>
        <time>2020-07-10T20:48:15.018Z</time>
      </trkpt>
      <trkpt lat="39.641021490097046" lon="-8.63748550415039">
        <ele>211.81723022460938</ele>
        <time>2020-07-10T20:48:51.960Z</time>
      </trkpt>
      <trkpt lat="39.640785455703735" lon="-8.640811443328857">
        <ele>220.80813598632812</ele>
        <time>2020-07-10T20:49:29.005Z</time>
      </trkpt>
      <trkpt lat="39.6409357432276" lon="-8.642442226409912">
        <ele>212.83392333984375</ele>
        <time>2020-07-10T20:50:06.101Z</time>
      </trkpt>
      <trkpt lat="39.641075134277344" lon="-8.643836975097656">
        <ele>220.89535522460938</ele>
        <time>2020-07-10T20:50:43.241Z</time>
      </trkpt>
      <trkpt lat="39.641032218933105" lon="-8.644051551818848">
        <ele>222.95494079589844</ele>
        <time>2020-07-10T20:51:20.387Z</time>
      </trkpt>
      <trkpt lat="39.64072108268738" lon="-8.644813299179077">
        <ele>225.03013610839844</ele>
        <time>2020-07-10T20:51:57.560Z</time>
      </trkpt>
      <trkpt lat="39.63845738209784" lon="-8.647334575653076">
        <ele>229.5214080810547</ele>
        <time>2020-07-10T20:52:34.852Z</time>
      </trkpt>
      <trkpt lat="39.63749170303345" lon="-8.648697137832642">
        <ele>234.31459045410156</ele>
        <time>2020-07-10T20:53:12.202Z</time>
      </trkpt>
      <trkpt lat="39.63522791862488" lon="-8.65047812461853">
        <ele>225.879150390625</ele>
        <time>2020-07-10T20:53:49.658Z</time>
      </trkpt>
      <trkpt lat="39.63472374714911" lon="-8.650810718536377">
        <ele>226.5778045654297</ele>
        <time>2020-07-10T20:54:27.136Z</time>
      </trkpt>
      <trkpt lat="39.63472366333008" lon="-8.650810718536377">
        <ele>226.57839965820312</ele>
        <time>2020-07-10T20:55:04.614Z</time>
      </trkpt>
      <trkpt lat="39.63340401649475" lon="-8.651508092880249">
        <ele>244.54571533203125</ele>
        <time>2020-07-10T20:55:42.149Z</time>
      </trkpt>
      <trkpt lat="39.63291049003601" lon="-8.651572465896606">
        <ele>250.01077270507812</ele>
        <time>2020-07-10T20:56:19.704Z</time>
      </trkpt>
      <trkpt lat="39.631783962249756" lon="-8.651529550552368">
        <ele>256.4333801269531</ele>
        <time>2020-07-10T20:56:57.304Z</time>
      </trkpt>
      <trkpt lat="39.63163375854492" lon="-8.65172266960144">
        <ele>249.71397399902344</ele>
        <time>2020-07-10T20:57:34.912Z</time>
      </trkpt>
      <trkpt lat="39.63163375854492" lon="-8.651947975158691">
        <ele>245.75439453125</ele>
        <time>2020-07-10T20:58:12.527Z</time>
      </trkpt>
      <trkpt lat="39.631794691085815" lon="-8.652151823043823">
        <ele>248.8191680908203</ele>
        <time>2020-07-10T20:58:50.151Z</time>
      </trkpt>
      <trkpt lat="39.63193416595459" lon="-8.652194738388062">
        <ele>252.8997344970703</ele>
        <time>2020-07-10T20:59:27.781Z</time>
      </trkpt>
      <trkpt lat="39.633028507232666" lon="-8.652377128601074">
        <ele>257.69873046875</ele>
        <time>2020-07-10T21:00:05.455Z</time>
      </trkpt>
      <trkpt lat="39.63359713554382" lon="-8.652323484420776">
        <ele>254.61976623535156</ele>
        <time>2020-07-10T21:00:43.152Z</time>
      </trkpt>
      <trkpt lat="39.63371515274048" lon="-8.652366399765015">
        <ele>255.5409393310547</ele>
        <time>2020-07-10T21:01:20.854Z</time>
      </trkpt>
      <trkpt lat="39.63386535644531" lon="-8.652645349502563">
        <ele>261.78399658203125</ele>
        <time>2020-07-10T21:01:58.566Z</time>
      </trkpt>
      <trkpt lat="39.63372588157654" lon="-8.653814792633057">
        <ele>292.6246337890625</ele>
        <time>2020-07-10T21:02:36.315Z</time>
      </trkpt>
      <trkpt lat="39.633564949035645" lon="-8.654447793960571">
        <ele>301.3393249511719</ele>
        <time>2020-07-10T21:03:14.085Z</time>
      </trkpt>
      <trkpt lat="39.632052183151245" lon="-8.65746259689331">
        <ele>335.4613037109375</ele>
        <time>2020-07-10T21:03:51.966Z</time>
      </trkpt>
      <trkpt lat="39.631558656692505" lon="-8.657923936843872">
        <ele>343.0628356933594</ele>
        <time>2020-07-10T21:04:29.871Z</time>
      </trkpt>
      <trkpt lat="39.630839824676514" lon="-8.658170700073242">
        <ele>355.8258056640625</ele>
        <time>2020-07-10T21:05:07.806Z</time>
      </trkpt>
      <trkpt lat="39.6307647228241" lon="-8.658267259597778">
        <ele>356.6882629394531</ele>
        <time>2020-07-10T21:05:45.745Z</time>
      </trkpt>
      <trkpt lat="39.63070034980774" lon="-8.658535480499268">
        <ele>356.47540283203125</ele>
        <time>2020-07-10T21:06:23.693Z</time>
      </trkpt>
      <trkpt lat="39.63072180747986" lon="-8.658664226531982">
        <ele>357.4537048339844</ele>
        <time>2020-07-10T21:07:01.645Z</time>
      </trkpt>
      <trkpt lat="39.63089346885681" lon="-8.65896463394165">
        <ele>357.22991943359375</ele>
        <time>2020-07-10T21:07:39.608Z</time>
      </trkpt>
      <trkpt lat="39.63191270828247" lon="-8.660048246383667">
        <ele>350.2747802734375</ele>
        <time>2020-07-10T21:08:17.624Z</time>
      </trkpt>
      <trkpt lat="39.63212728500366" lon="-8.660058975219727">
        <ele>347.92279052734375</ele>
        <time>2020-07-10T21:08:55.649Z</time>
      </trkpt>
      <trkpt lat="39.63263154029846" lon="-8.659919500350952">
        <ele>345.00482177734375</ele>
        <time>2020-07-10T21:09:33.694Z</time>
      </trkpt>
      <trkpt lat="39.63293194770813" lon="-8.660112619400024">
        <ele>346.9228820800781</ele>
        <time>2020-07-10T21:10:11.753Z</time>
      </trkpt>
      <trkpt lat="39.63321089744568" lon="-8.66045594215393">
        <ele>347.3552551269531</ele>
        <time>2020-07-10T21:10:49.827Z</time>
      </trkpt>
      <trkpt lat="39.633564949035645" lon="-8.661174774169922">
        <ele>352.288330078125</ele>
        <time>2020-07-10T21:11:27.927Z</time>
      </trkpt>
      <trkpt lat="39.63410139083862" lon="-8.66247296333313">
        <ele>354.36419677734375</ele>
        <time>2020-07-10T21:12:06.073Z</time>
      </trkpt>
      <trkpt lat="39.63415503501892" lon="-8.662891387939453">
        <ele>357.7988586425781</ele>
        <time>2020-07-10T21:12:44.232Z</time>
      </trkpt>
      <trkpt lat="39.634069204330444" lon="-8.663191795349121">
        <ele>359.9267883300781</ele>
        <time>2020-07-10T21:13:22.401Z</time>
      </trkpt>
      <trkpt lat="39.63325381278992" lon="-8.664371967315674">
        <ele>365.4054870605469</ele>
        <time>2020-07-10T21:14:00.619Z</time>
      </trkpt>
      <trkpt lat="39.633071506395936" lon="-8.664693832397461">
        <ele>363.9769287109375</ele>
        <time>2020-07-10T21:14:38.849Z</time>
      </trkpt>
      <trkpt lat="39.633071422576904" lon="-8.664693832397461">
        <ele>363.9766540527344</ele>
        <time>2020-07-10T21:15:17.079Z</time>
      </trkpt>
      <trkpt lat="39.632878387346864" lon="-8.665026426315308">
        <ele>362.4837341308594</ele>
        <time>2020-07-10T21:15:55.322Z</time>
      </trkpt>
      <trkpt lat="39.63273891247809" lon="-8.665262460708618">
        <ele>361.860107421875</ele>
        <time>2020-07-10T21:16:33.574Z</time>
      </trkpt>
      <trkpt lat="39.63269599713385" lon="-8.665337562561035">
        <ele>361.8086242675781</ele>
        <time>2020-07-10T21:17:11.829Z</time>
      </trkpt>
      <trkpt lat="39.63269591331482" lon="-8.665337562561035">
        <ele>361.8085021972656</ele>
        <time>2020-07-10T21:17:50.084Z</time>
      </trkpt>
      <trkpt lat="39.63255652226508" lon="-8.665562868118286">
        <ele>361.3887023925781</ele>
        <time>2020-07-10T21:18:28.348Z</time>
      </trkpt>
      <trkpt lat="39.63240631856024" lon="-8.665831089019775">
        <ele>360.78369140625</ele>
        <time>2020-07-10T21:19:06.622Z</time>
      </trkpt>
      <trkpt lat="39.63204153813422" lon="-8.66646409034729">
        <ele>358.85638427734375</ele>
        <time>2020-07-10T21:19:44.921Z</time>
      </trkpt>
      <trkpt lat="39.63130124844611" lon="-8.668116331100464">
        <ele>353.1825256347656</ele>
        <time>2020-07-10T21:20:23.279Z</time>
      </trkpt>
      <trkpt lat="39.629584634676576" lon="-8.66696834564209">
        <ele>347.6680603027344</ele>
        <time>2020-07-10T21:21:01.714Z</time>
      </trkpt>
      <trkpt lat="39.62856539525092" lon="-8.666796684265137">
        <ele>352.0</ele>
        <time>2020-07-10T21:21:40.190Z</time>
      </trkpt>
      <trkpt lat="39.62847956456244" lon="-8.667279481887817">
        <ele>352.7567443847656</ele>
        <time>2020-07-10T21:22:18.681Z</time>
      </trkpt>
      <trkpt lat="39.62846875190735" lon="-8.66844892501831">
        <ele>352.0199279785156</ele>
        <time>2020-07-10T21:22:57.208Z</time>
      </trkpt>
      <trkpt lat="39.62846875190735" lon="-8.668738603591919">
        <ele>351.2304382324219</ele>
        <time>2020-07-10T21:23:35.744Z</time>
      </trkpt>
      <trkpt lat="39.6279323939234" lon="-8.669307231903076">
        <ele>349.2510681152344</ele>
        <time>2020-07-10T21:24:14.308Z</time>
      </trkpt>
      <trkpt lat="39.62779291905463" lon="-8.669489622116089">
        <ele>348.3951110839844</ele>
        <time>2020-07-10T21:24:52.880Z</time>
      </trkpt>
      <trkpt lat="39.627567529678345" lon="-8.669854402542114">
        <ele>346.4381103515625</ele>
        <time>2020-07-10T21:25:31.466Z</time>
      </trkpt>
      <trkpt lat="39.62752469815314" lon="-8.669854402542114">
        <ele>346.2325439453125</ele>
        <time>2020-07-10T21:26:10.054Z</time>
      </trkpt>
      <trkpt lat="39.62717056274414" lon="-8.67145299911499">
        <ele>345.2266845703125</ele>
        <time>2020-07-10T21:26:48.694Z</time>
      </trkpt>
      <trkpt lat="39.62720283307135" lon="-8.671560287475586">
        <ele>345.5102844238281</ele>
        <time>2020-07-10T21:27:27.337Z</time>
      </trkpt>
      <trkpt lat="39.62711691856384" lon="-8.6716890335083">
        <ele>345.25244140625</ele>
        <time>2020-07-10T21:28:05.985Z</time>
      </trkpt>
      <trkpt lat="39.62677359580994" lon="-8.673062324523926">
        <ele>347.4407653808594</ele>
        <time>2020-07-10T21:28:44.678Z</time>
      </trkpt>
      <trkpt lat="39.62673076428473" lon="-8.67368459701538">
        <ele>348.0</ele>
        <time>2020-07-10T21:29:23.390Z</time>
      </trkpt>
      <trkpt lat="39.62678440846503" lon="-8.674006462097168">
        <ele>348.2894287109375</ele>
        <time>2020-07-10T21:30:02.112Z</time>
      </trkpt>
      <trkpt lat="39.62694525718689" lon="-8.67446780204773">
        <ele>348.5636291503906</ele>
        <time>2020-07-10T21:30:40.850Z</time>
      </trkpt>
      <trkpt lat="39.62768563069403" lon="-8.67546558380127">
        <ele>347.7556457519531</ele>
        <time>2020-07-10T21:31:19.631Z</time>
      </trkpt>
      <trkpt lat="39.627685546875" lon="-8.67546558380127">
        <ele>347.7550354003906</ele>
        <time>2020-07-10T21:31:58.412Z</time>
      </trkpt>
      <trkpt lat="39.628121675766955" lon="-8.676012403347642">
        <ele>351.2808837890625</ele>
        <time>2020-07-10T21:32:37.217Z</time>
      </trkpt>
      <trkpt lat="39.62805745192" lon="-8.67593195289">
        <ele>351.01077270508</ele>
        <time>2020-07-10T00:26:04.000Z</time>
      </trkpt>
      <trkpt lat="39.62962755002" lon="-8.67790102959">
        <ele>347.15002441406</ele>
        <time>2020-07-10T00:26:04.044Z</time>
      </trkpt>
      <trkpt lat="39.6296274662" lon="-8.67790102959">
        <ele>347.14971923828</ele>
        <time>2020-07-10T00:26:04.088Z</time>
      </trkpt>
      <trkpt lat="39.63065751828" lon="-8.67916703224">
        <ele>344.62539672852</ele>
        <time>2020-07-10T00:26:04.160Z</time>
      </trkpt>
      <trkpt lat="39.63130116463" lon="-8.67998242378">
        <ele>343.9045715332</ele>
        <time>2020-07-10T00:26:04.250Z</time>
      </trkpt>
      <trkpt lat="39.63141926564" lon="-8.67998242378">
        <ele>344.06655883789</ele>
        <time>2020-07-10T00:26:04.342Z</time>
      </trkpt>
      <trkpt lat="39.63146209717" lon="-8.68015408516">
        <ele>343.75744628906</ele>
        <time>2020-07-10T00:26:04.437Z</time>
      </trkpt>
      <trkpt lat="39.63205218315" lon="-8.68088364601">
        <ele>346.7580871582</ele>
        <time>2020-07-10T00:26:04.549Z</time>
      </trkpt>
      <trkpt lat="39.63205226697" lon="-8.68088364601">
        <ele>346.75836181641</ele>
        <time>2020-07-10T00:26:04.661Z</time>
      </trkpt>
      <trkpt lat="39.63362940587" lon="-8.6828148365">
        <ele>348.71633911133</ele>
        <time>2020-07-10T00:26:04.816Z</time>
      </trkpt>
      <trkpt lat="39.63410139084" lon="-8.68338346481">
        <ele>347.35186767578</ele>
        <time>2020-07-10T00:26:04.984Z</time>
      </trkpt>
      <trkpt lat="39.63432678021" lon="-8.68357658386">
        <ele>346.83267211914</ele>
        <time>2020-07-10T00:26:05.157Z</time>
      </trkpt>
      <trkpt lat="39.63439115323" lon="-8.68353366852">
        <ele>346.98715209961</ele>
        <time>2020-07-10T00:26:05.332Z</time>
      </trkpt>
      <trkpt lat="39.63446625508" lon="-8.68351221085">
        <ele>347.04290771484</ele>
        <time>2020-07-10T00:26:05.508Z</time>
      </trkpt>
      <trkpt lat="39.63458427228" lon="-8.68351221085">
        <ele>346.99020385742</ele>
        <time>2020-07-10T00:26:05.687Z</time>
      </trkpt>
      <trkpt lat="39.63471301831" lon="-8.68360877037">
        <ele>346.58258056641</ele>
        <time>2020-07-10T00:26:05.869Z</time>
      </trkpt>
      <trkpt lat="39.63482022285" lon="-8.68388772011">
        <ele>345.78457641602</ele>
        <time>2020-07-10T00:26:06.055Z</time>
      </trkpt>
      <trkpt lat="39.63503479958" lon="-8.68401646614">
        <ele>346.01123046875</ele>
        <time>2020-07-10T00:26:06.246Z</time>
      </trkpt>
      <trkpt lat="39.63547476567" lon="-8.68407011032">
        <ele>347.01065063477</ele>
        <time>2020-07-10T00:26:06.446Z</time>
      </trkpt>
      <trkpt lat="39.63613995351" lon="-8.68417739868">
        <ele>347.10653686523</ele>
        <time>2020-07-10T00:26:06.659Z</time>
      </trkpt>
      <trkpt lat="39.63700898923" lon="-8.68432760239">
        <ele>346.97351074219</ele>
        <time>2020-07-10T00:26:06.890Z</time>
      </trkpt>
      <trkpt lat="39.63700890541" lon="-8.68432760239">
        <ele>346.97360229492</ele>
        <time>2020-07-10T00:26:07.121Z</time>
      </trkpt>
      <trkpt lat="39.63792094029" lon="-8.68449926376">
        <ele>346.47280883789</ele>
        <time>2020-07-10T00:26:07.370Z</time>
      </trkpt>
      <trkpt lat="39.63838228025" lon="-8.68457436562">
        <ele>348.77697753906</ele>
        <time>2020-07-10T00:26:07.629Z</time>
      </trkpt>
      <trkpt lat="39.63889726438" lon="-8.68467092514">
        <ele>350.8757019043</ele>
        <time>2020-07-10T00:26:07.898Z</time>
      </trkpt>
      <trkpt lat="39.63948735036" lon="-8.68478894234">
        <ele>354.74127197266</ele>
        <time>2020-07-10T00:26:08.179Z</time>
      </trkpt>
      <trkpt lat="39.63985213079" lon="-8.68483185768">
        <ele>356.18362426758</ele>
        <time>2020-07-10T00:26:08.467Z</time>
      </trkpt>
      <trkpt lat="39.63985204697" lon="-8.68483185768">
        <ele>356.1833190918</ele>
        <time>2020-07-10T00:26:08.755Z</time>
      </trkpt>
      <trkpt lat="39.64066752233" lon="-8.68496060371">
        <ele>358.31304931641</ele>
        <time>2020-07-10T00:26:09.060Z</time>
      </trkpt>
      <trkpt lat="39.64175113477" lon="-8.68518590927">
        <ele>359.01336669922</ele>
        <time>2020-07-10T00:26:09.387Z</time>
      </trkpt>
      <trkpt lat="39.64555987157" lon="-8.68589401245">
        <ele>364.24267578125</ele>
        <time>2020-07-10T00:26:09.791Z</time>
      </trkpt>
      <trkpt lat="39.6456886176" lon="-8.68591547012">
        <ele>364.39715576172</ele>
        <time>2020-07-10T00:26:10.197Z</time>
      </trkpt>
      <trkpt lat="39.65175040998" lon="-8.68704199791">
        <ele>376.38861083984</ele>
        <time>2020-07-10T00:26:10.725Z</time>
      </trkpt>
      <trkpt lat="39.65175032616" lon="-8.68704199791">
        <ele>376.38851928711</ele>
        <time>2020-07-10T00:26:11.253Z</time>
      </trkpt>
      <trkpt lat="39.65235122479" lon="-8.68716001511">
        <ele>375.05123901367</ele>
        <time>2020-07-10T00:26:11.794Z</time>
      </trkpt>
      <trkpt lat="39.65338119306" lon="-8.68734240532">
        <ele>373.39782714844</ele>
        <time>2020-07-10T00:26:12.355Z</time>
      </trkpt>
      <trkpt lat="39.65338110924" lon="-8.68734240532">
        <ele>373.39813232422</ele>
        <time>2020-07-10T00:26:12.916Z</time>
      </trkpt>
      <trkpt lat="39.65566643514" lon="-8.6877822876">
        <ele>372.79644775391</ele>
        <time>2020-07-10T00:26:13.524Z</time>
      </trkpt>
      <trkpt lat="39.65573080815" lon="-8.68780374527">
        <ele>372.74496459961</ele>
        <time>2020-07-10T00:26:14.133Z</time>
      </trkpt>
      <trkpt lat="39.65762981214" lon="-8.68838310242">
        <ele>374.0</ele>
        <time>2020-07-10T00:26:14.781Z</time>
      </trkpt>
      <trkpt lat="39.65772637166" lon="-8.68841528893">
        <ele>374.0</ele>
        <time>2020-07-10T00:26:15.431Z</time>
      </trkpt>
      <trkpt lat="39.65873479843" lon="-8.68867278099">
        <ele>373.49029541016</ele>
        <time>2020-07-10T00:26:16.101Z</time>
      </trkpt>
      <trkpt lat="39.65943225659" lon="-8.68864059448">
        <ele>375.88677978516</ele>
        <time>2020-07-10T00:26:16.785Z</time>
      </trkpt>
      <trkpt lat="39.65947517194" lon="-8.68862986565">
        <ele>375.93826293945</ele>
        <time>2020-07-10T00:26:17.470Z</time>
      </trkpt>
      <trkpt lat="39.66061242856" lon="-8.68850111961">
        <ele>374.53866577148</ele>
        <time>2020-07-10T00:26:18.178Z</time>
      </trkpt>
      <trkpt lat="39.66158875264" lon="-8.68837237358">
        <ele>368.86547851562</ele>
        <time>2020-07-10T00:26:18.906Z</time>
      </trkpt>
      <trkpt lat="39.66165312566" lon="-8.68836164474">
        <ele>368.51791381836</ele>
        <time>2020-07-10T00:26:19.635Z</time>
      </trkpt>
      <trkpt lat="39.66191061772" lon="-8.68825435638">
        <ele>366.43255615234</ele>
        <time>2020-07-10T00:26:20.369Z</time>
      </trkpt>
      <trkpt lat="39.66276892461" lon="-8.68750333786">
        <ele>356.97225952148</ele>
        <time>2020-07-10T00:26:21.124Z</time>
      </trkpt>
      <trkpt lat="39.66340192594" lon="-8.68691325188">
        <ele>352.96514892578</ele>
        <time>2020-07-10T00:26:21.895Z</time>
      </trkpt>
      <trkpt lat="39.66400274076" lon="-8.6863553524">
        <ele>351.83953857422</ele>
        <time>2020-07-10T00:26:22.680Z</time>
      </trkpt>
      <trkpt lat="39.66505408287" lon="-8.68538975716">
        <ele>345.89242553711</ele>
        <time>2020-07-10T00:26:23.491Z</time>
      </trkpt>
      <trkpt lat="39.66561206616" lon="-8.68505716324">
        <ele>343.36303710938</ele>
        <time>2020-07-10T00:26:24.315Z</time>
      </trkpt>
      <trkpt lat="39.66561198235" lon="-8.68505716324">
        <ele>343.36312866211</ele>
        <time>2020-07-10T00:26:25.139Z</time>
      </trkpt>
      <trkpt lat="39.66580518521" lon="-8.68494987488">
        <ele>342.87387084961</ele>
        <time>2020-07-10T00:26:25.967Z</time>
      </trkpt>
      <trkpt lat="39.66652401723" lon="-8.68456363678">
        <ele>341.87554931641</ele>
        <time>2020-07-10T00:26:26.810Z</time>
      </trkpt>
      <trkpt lat="39.66709256172" lon="-8.68427395821">
        <ele>341.97009277344</ele>
        <time>2020-07-10T00:26:27.665Z</time>
      </trkpt>
      <trkpt lat="39.66731786728" lon="-8.68407011032">
        <ele>341.99584960938</ele>
        <time>2020-07-10T00:26:28.526Z</time>
      </trkpt>
      <trkpt lat="39.66763973236" lon="-8.68396282196">
        <ele>340.73355102539</ele>
        <time>2020-07-10T00:26:29.394Z</time>
      </trkpt>
      <trkpt lat="39.66798313893" lon="-8.68327617645">
        <ele>342.14611816406</ele>
        <time>2020-07-10T00:26:30.274Z</time>
      </trkpt>
      <trkpt lat="39.66854095459" lon="-8.68297576904">
        <ele>342.06384277344</ele>
        <time>2020-07-10T00:26:31.166Z</time>
      </trkpt>
      <trkpt lat="39.66883063316" lon="-8.6829328537">
        <ele>341.58285522461</ele>
        <time>2020-07-10T00:26:32.064Z</time>
      </trkpt>
      <trkpt lat="39.66935634613" lon="-8.6821603775">
        <ele>336.5661315918</ele>
        <time>2020-07-10T00:26:32.978Z</time>
      </trkpt>
      <trkpt lat="39.66948517598" lon="-8.68210673332">
        <ele>335.92248535156</ele>
        <time>2020-07-10T00:26:33.895Z</time>
      </trkpt>
      <trkpt lat="39.66948509216" lon="-8.68210673332">
        <ele>335.92248535156</ele>
        <time>2020-07-10T00:26:34.812Z</time>
      </trkpt>
      <trkpt lat="39.67025756836" lon="-8.68222475052">
        <ele>331.83123779297</ele>
        <time>2020-07-10T00:26:35.744Z</time>
      </trkpt>
      <trkpt lat="39.67059016228" lon="-8.68198871613">
        <ele>328.08187866211</ele>
        <time>2020-07-10T00:26:36.684Z</time>
      </trkpt>
      <trkpt lat="39.67074036598" lon="-8.68176341057">
        <ele>326.09524536133</ele>
        <time>2020-07-10T00:26:37.628Z</time>
      </trkpt>
      <trkpt lat="39.67094421387" lon="-8.68091583252">
        <ele>321.20880126953</ele>
        <time>2020-07-10T00:26:38.586Z</time>
      </trkpt>
      <trkpt lat="39.67100858688" lon="-8.68001461029">
        <ele>317.4384765625</ele>
        <time>2020-07-10T00:26:39.558Z</time>
      </trkpt>
      <trkpt lat="39.67131980695" lon="-8.68005752563">
        <ele>318.53469848633</ele>
        <time>2020-07-10T00:26:40.536Z</time>
      </trkpt>
      <trkpt lat="39.67133045197" lon="-8.67978930473">
        <ele>318.18734741211</ele>
        <time>2020-07-10T00:26:41.519Z</time>
      </trkpt>
      <trkpt lat="39.67142701149" lon="-8.67944598198">
        <ele>317.54370117188</ele>
        <time>2020-07-10T00:26:42.507Z</time>
      </trkpt>
      <trkpt lat="39.67222094536" lon="-8.67800831795">
        <ele>316.84677124023</ele>
        <time>2020-07-10T00:26:43.523Z</time>
      </trkpt>
      <trkpt lat="39.67231750488" lon="-8.67765426636">
        <ele>316.466796875</ele>
        <time>2020-07-10T00:26:44.544Z</time>
      </trkpt>
      <trkpt lat="39.67230685987" lon="-8.67746114731">
        <ele>317.45745849609</ele>
        <time>2020-07-10T00:26:45.568Z</time>
      </trkpt>
      <trkpt lat="39.67244633473" lon="-8.6773109436">
        <ele>317.34161376953</ele>
        <time>2020-07-10T00:26:46.596Z</time>
      </trkpt>
      <trkpt lat="39.67252135277" lon="-8.6773109436">
        <ele>316.89157104492</ele>
        <time>2020-07-10T00:26:47.625Z</time>
      </trkpt>
      <trkpt lat="39.67288613319" lon="-8.67722511292">
        <ele>315.14392089844</ele>
        <time>2020-07-10T00:26:48.662Z</time>
      </trkpt>
      <trkpt lat="39.67391618527" lon="-8.67652773857">
        <ele>311.41241455078</ele>
        <time>2020-07-10T00:26:49.722Z</time>
      </trkpt>
      <trkpt lat="39.67421659268" lon="-8.67631316185">
        <ele>309.24984741211</ele>
        <time>2020-07-10T00:26:50.789Z</time>
      </trkpt>
      <trkpt lat="39.67445262708" lon="-8.67615222931">
        <ele>307.66320800781</ele>
        <time>2020-07-10T00:26:51.861Z</time>
      </trkpt>
      <trkpt lat="39.67453845777" lon="-8.67608785629">
        <ele>307.1416015625</ele>
        <time>2020-07-10T00:26:52.935Z</time>
      </trkpt>
      <trkpt lat="39.67528947629" lon="-8.67557287216">
        <ele>303.17047119141</ele>
        <time>2020-07-10T00:26:54.026Z</time>
      </trkpt>
      <trkpt lat="39.67528939247" lon="-8.67557287216">
        <ele>303.17047119141</ele>
        <time>2020-07-10T00:26:55.117Z</time>
      </trkpt>
      <trkpt lat="39.67550405301" lon="-8.67542266846">
        <ele>301.39981079102</ele>
        <time>2020-07-10T00:26:56.213Z</time>
      </trkpt>
      <trkpt lat="39.6763623599" lon="-8.67475748062">
        <ele>293.19595336914</ele>
        <time>2020-07-10T00:26:57.329Z</time>
      </trkpt>
      <trkpt lat="39.67674859799" lon="-8.67426395416">
        <ele>289.62075805664</ele>
        <time>2020-07-10T00:26:58.456Z</time>
      </trkpt>
      <trkpt lat="39.67778929509" lon="-8.67266535759">
        <ele>284.69848632812</ele>
        <time>2020-07-10T00:26:59.615Z</time>
      </trkpt>
      <trkpt lat="39.67803605832" lon="-8.67230057716">
        <ele>281.5380859375</ele>
        <time>2020-07-10T00:27:00.782Z</time>
      </trkpt>
      <trkpt lat="39.67947363853" lon="-8.66937160492">
        <ele>267.48565673828</ele>
        <time>2020-07-10T00:27:02.002Z</time>
      </trkpt>
      <trkpt lat="39.68001008034" lon="-8.66827726364">
        <ele>275.33270263672</ele>
        <time>2020-07-10T00:27:03.242Z</time>
      </trkpt>
      <trkpt lat="39.68040704727" lon="-8.66778373718">
        <ele>278.84014892578</ele>
        <time>2020-07-10T00:27:04.493Z</time>
      </trkpt>
      <trkpt lat="39.68087911606" lon="-8.6685025692">
        <ele>278.0</ele>
        <time>2020-07-10T00:27:05.759Z</time>
      </trkpt>
      <trkpt lat="39.68090065755" lon="-8.66860985756">
        <ele>277.30911254883</ele>
        <time>2020-07-10T00:27:07.027Z</time>
      </trkpt>
      <trkpt lat="39.68091130257" lon="-8.6694252491">
        <ele>273.24432373047</ele>
        <time>2020-07-10T00:27:08.307Z</time>
      </trkpt>
      <trkpt lat="39.68063235283" lon="-8.66972565651">
        <ele>270.10345458984</ele>
        <time>2020-07-10T00:27:09.594Z</time>
      </trkpt>
      <trkpt lat="39.68063234661" lon="-8.66972570833">
        <ele>270.10311889648</ele>
        <time>2020-07-10T00:27:10.881Z</time>
      </trkpt>
      <trkpt lat="39.68045421239" lon="-8.67120946911">
        <ele>266.78240966797</ele>
        <time>2020-07-10T00:27:12.192Z</time>
      </trkpt>
      <trkpt lat="39.68047" lon="-8.67117">
        <ele>266.91500854492</ele>
        <time>2020-07-10T00:27:13.503Z</time>
      </trkpt>
      <trkpt lat="39.68054" lon="-8.67109">
        <ele>267.27496337891</ele>
        <time>2020-07-10T00:27:14.816Z</time>
      </trkpt>
      <trkpt lat="39.6808" lon="-8.67089">
        <ele>269.04110717773</ele>
        <time>2020-07-10T00:27:16.135Z</time>
      </trkpt>
      <trkpt lat="39.68101" lon="-8.67081">
        <ele>270.12094116211</ele>
        <time>2020-07-10T00:27:17.459Z</time>
      </trkpt>
      <trkpt lat="39.68125" lon="-8.67076">
        <ele>271.18420410156</ele>
        <time>2020-07-10T00:27:18.787Z</time>
      </trkpt>
      <trkpt lat="39.68144" lon="-8.67071">
        <ele>272.45599365234</ele>
        <time>2020-07-10T00:27:20.119Z</time>
      </trkpt>
      <trkpt lat="39.68168" lon="-8.67061">
        <ele>273.70294189453</ele>
        <time>2020-07-10T00:27:21.456Z</time>
      </trkpt>
      <trkpt lat="39.6819" lon="-8.67056">
        <ele>273.48699951172</ele>
        <time>2020-07-10T00:27:22.798Z</time>
      </trkpt>
      <trkpt lat="39.68211" lon="-8.67047">
        <ele>272.84448242188</ele>
        <time>2020-07-10T00:27:24.144Z</time>
      </trkpt>
      <trkpt lat="39.68243" lon="-8.67023">
        <ele>270.73284912109</ele>
        <time>2020-07-10T00:27:25.498Z</time>
      </trkpt>
      <trkpt lat="39.68264" lon="-8.67015">
        <ele>267.45745849609</ele>
        <time>2020-07-10T00:27:26.856Z</time>
      </trkpt>
      <trkpt lat="39.68282" lon="-8.67002">
        <ele>264.46997070312</ele>
        <time>2020-07-10T00:27:28.218Z</time>
      </trkpt>
      <trkpt lat="39.68287" lon="-8.67">
        <ele>263.70761108398</ele>
        <time>2020-07-10T00:27:29.581Z</time>
      </trkpt>
      <trkpt lat="39.68292" lon="-8.67">
        <ele>263.76760864258</ele>
        <time>2020-07-10T00:27:30.945Z</time>
      </trkpt>
      <trkpt lat="39.68296" lon="-8.67003">
        <ele>263.70761108398</ele>
        <time>2020-07-10T00:27:32.310Z</time>
      </trkpt>
      <trkpt lat="39.68299" lon="-8.6701">
        <ele>263.79507446289</ele>
        <time>2020-07-10T00:27:33.676Z</time>
      </trkpt>
      <trkpt lat="39.683" lon="-8.67018">
        <ele>264.38299560547</ele>
        <time>2020-07-10T00:27:35.044Z</time>
      </trkpt>
      <trkpt lat="39.683" lon="-8.67031">
        <ele>264.05462646484</ele>
        <time>2020-07-10T00:27:36.414Z</time>
      </trkpt>
      <trkpt lat="39.68303" lon="-8.67041">
        <ele>264.01861572266</ele>
        <time>2020-07-10T00:27:37.785Z</time>
      </trkpt>
      <trkpt lat="39.68307" lon="-8.67045">
        <ele>264.30657958984</ele>
        <time>2020-07-10T00:27:39.157Z</time>
      </trkpt>
      <trkpt lat="39.68314" lon="-8.67044">
        <ele>265.09844970703</ele>
        <time>2020-07-10T00:27:40.531Z</time>
      </trkpt>
      <trkpt lat="39.68327" lon="-8.67024">
        <ele>267.22210693359</ele>
        <time>2020-07-10T00:27:41.909Z</time>
      </trkpt>
      <trkpt lat="39.68356" lon="-8.66975">
        <ele>267.85040283203</ele>
        <time>2020-07-10T00:27:43.296Z</time>
      </trkpt>
      <trkpt lat="39.68378" lon="-8.6694">
        <ele>267.13436889648</ele>
        <time>2020-07-10T00:27:44.690Z</time>
      </trkpt>
      <trkpt lat="39.68386" lon="-8.66922">
        <ele>266.80480957031</ele>
        <time>2020-07-10T00:27:46.087Z</time>
      </trkpt>
      <trkpt lat="39.68389" lon="-8.66915">
        <ele>266.7688293457</ele>
        <time>2020-07-10T00:27:47.486Z</time>
      </trkpt>
      <trkpt lat="39.68402" lon="-8.6692">
        <ele>266.61285400391</ele>
        <time>2020-07-10T00:27:48.887Z</time>
      </trkpt>
      <trkpt lat="39.68434" lon="-8.66932">
        <ele>266.22891235352</ele>
        <time>2020-07-10T00:27:50.295Z</time>
      </trkpt>
      <trkpt lat="39.68536" lon="-8.66971">
        <ele>262.58349609375</ele>
        <time>2020-07-10T00:27:51.724Z</time>
      </trkpt>
      <trkpt lat="39.6854" lon="-8.66971">
        <ele>262.38327026367</ele>
        <time>2020-07-10T00:27:53.154Z</time>
      </trkpt>
      <trkpt lat="39.68544" lon="-8.66973">
        <ele>262.38327026367</ele>
        <time>2020-07-10T00:27:54.585Z</time>
      </trkpt>
      <trkpt lat="39.68649" lon="-8.67038">
        <ele>253.85629272461</ele>
        <time>2020-07-10T00:27:56.039Z</time>
      </trkpt>
      <trkpt lat="39.68654" lon="-8.67044">
        <ele>254.24021911621</ele>
        <time>2020-07-10T00:27:57.495Z</time>
      </trkpt>
      <trkpt lat="39.68703" lon="-8.67076">
        <ele>251.01304626465</ele>
        <time>2020-07-10T00:27:58.962Z</time>
      </trkpt>
      <trkpt lat="39.68743" lon="-8.67099">
        <ele>248.22038269043</ele>
        <time>2020-07-10T00:28:00.437Z</time>
      </trkpt>
      <trkpt lat="39.68772" lon="-8.67119">
        <ele>247.51329040527</ele>
        <time>2020-07-10T00:28:01.919Z</time>
      </trkpt>
      <trkpt lat="39.68797" lon="-8.67148">
        <ele>247.5482635498</ele>
        <time>2020-07-10T00:28:03.408Z</time>
      </trkpt>
      <trkpt lat="39.68882" lon="-8.67261">
        <ele>252.60163879395</ele>
        <time>2020-07-10T00:28:04.921Z</time>
      </trkpt>
      <trkpt lat="39.68921" lon="-8.67301">
        <ele>248.60693359375</ele>
        <time>2020-07-10T00:28:06.444Z</time>
      </trkpt>
      <trkpt lat="39.69007" lon="-8.67371">
        <ele>242.43144226074</ele>
        <time>2020-07-10T00:28:07.987Z</time>
      </trkpt>
      <trkpt lat="39.69051" lon="-8.67407">
        <ele>243.16380310059</ele>
        <time>2020-07-10T00:28:09.541Z</time>
      </trkpt>
      <trkpt lat="39.69082" lon="-8.67432">
        <ele>239.78273010254</ele>
        <time>2020-07-10T00:28:11.102Z</time>
      </trkpt>
      <trkpt lat="39.69114" lon="-8.67458">
        <ele>238.01109313965</ele>
        <time>2020-07-10T00:28:12.670Z</time>
      </trkpt>
      <trkpt lat="39.6912" lon="-8.67466">
        <ele>237.78314208984</ele>
        <time>2020-07-10T00:28:14.240Z</time>
      </trkpt>
      <trkpt lat="39.69141" lon="-8.67451">
        <ele>236.12742614746</ele>
        <time>2020-07-10T00:28:15.815Z</time>
      </trkpt>
      <trkpt lat="39.6915" lon="-8.6745">
        <ele>235.74348449707</ele>
        <time>2020-07-10T00:28:17.392Z</time>
      </trkpt>
      <trkpt lat="39.6916" lon="-8.67452">
        <ele>235.50352478027</ele>
        <time>2020-07-10T00:28:18.971Z</time>
      </trkpt>
      <trkpt lat="39.69168" lon="-8.67458">
        <ele>235.57551574707</ele>
        <time>2020-07-10T00:28:20.552Z</time>
      </trkpt>
      <trkpt lat="39.69194" lon="-8.67492">
        <ele>232.76509094238</ele>
        <time>2020-07-10T00:28:22.140Z</time>
      </trkpt>
      <trkpt lat="39.69195811518" lon="-8.67493331991">
        <ele>232.51579284668</ele>
        <time>2020-07-10T00:28:23.728Z</time>
      </trkpt>
      <trkpt lat="39.69228" lon="-8.67517">
        <ele>233.97500610352</ele>
        <time>2020-07-10T00:28:25.324Z</time>
      </trkpt>
      <trkpt lat="39.6926" lon="-8.67527">
        <ele>237.27714538574</ele>
        <time>2020-07-10T00:28:26.926Z</time>
      </trkpt>
      <trkpt lat="39.6927" lon="-8.67528">
        <ele>238.40495300293</ele>
        <time>2020-07-10T00:28:28.530Z</time>
      </trkpt>
      <trkpt lat="39.6929" lon="-8.6752">
        <ele>241.09637451172</ele>
        <time>2020-07-10T00:28:30.139Z</time>
      </trkpt>
      <trkpt lat="39.69292" lon="-8.67519">
        <ele>241.21545410156</ele>
        <time>2020-07-10T00:28:31.748Z</time>
      </trkpt>
      <trkpt lat="39.69304642003" lon="-8.67515388">
        <ele>241.8005065918</ele>
        <time>2020-07-10T00:28:33.360Z</time>
      </trkpt>
      <trkpt lat="39.69304662136" lon="-8.67515382248">
        <ele>241.80143737793</ele>
        <time>2020-07-10T00:28:34.972Z</time>
      </trkpt>
      <trkpt lat="39.69306" lon="-8.67515">
        <ele>241.86335754395</ele>
        <time>2020-07-10T00:28:36.584Z</time>
      </trkpt>
      <trkpt lat="39.69318" lon="-8.67517">
        <ele>242.22329711914</ele>
        <time>2020-07-10T00:28:38.198Z</time>
      </trkpt>
      <trkpt lat="39.69332" lon="-8.67533">
        <ele>241.82824707031</ele>
        <time>2020-07-10T00:28:39.816Z</time>
      </trkpt>
      <trkpt lat="39.69349" lon="-8.67549">
        <ele>241.99406433105</ele>
        <time>2020-07-10T00:28:41.438Z</time>
      </trkpt>
      <trkpt lat="39.69376" lon="-8.6756">
        <ele>244.0</ele>
        <time>2020-07-10T00:28:43.066Z</time>
      </trkpt>
      <trkpt lat="39.69387" lon="-8.67563">
        <ele>244.0</ele>
        <time>2020-07-10T00:28:44.696Z</time>
      </trkpt>
      <trkpt lat="39.69409" lon="-8.67566">
        <ele>243.86700439453</ele>
        <time>2020-07-10T00:28:46.331Z</time>
      </trkpt>
      <trkpt lat="39.6942" lon="-8.67569">
        <ele>243.02714538574</ele>
        <time>2020-07-10T00:28:47.968Z</time>
      </trkpt>
      <trkpt lat="39.69438" lon="-8.6758">
        <ele>241.28744506836</ele>
        <time>2020-07-10T00:28:49.609Z</time>
      </trkpt>
      <trkpt lat="39.69481" lon="-8.67612">
        <ele>237.89654541016</ele>
        <time>2020-07-10T00:28:51.260Z</time>
      </trkpt>
      <trkpt lat="39.69493" lon="-8.67622">
        <ele>237.12866210938</ele>
        <time>2020-07-10T00:28:52.914Z</time>
      </trkpt>
      <trkpt lat="39.69502" lon="-8.67637">
        <ele>236.19282531738</ele>
        <time>2020-07-10T00:28:54.570Z</time>
      </trkpt>
      <trkpt lat="39.6952" lon="-8.67674">
        <ele>235.29351806641</ele>
        <time>2020-07-10T00:28:56.233Z</time>
      </trkpt>
      <trkpt lat="39.69538" lon="-8.67702">
        <ele>234.19261169434</ele>
        <time>2020-07-10T00:28:57.902Z</time>
      </trkpt>
      <trkpt lat="39.69559" lon="-8.67726">
        <ele>232.28492736816</ele>
        <time>2020-07-10T00:28:59.576Z</time>
      </trkpt>
      <trkpt lat="39.69616" lon="-8.67781">
        <ele>232.39022827148</ele>
        <time>2020-07-10T00:29:01.265Z</time>
      </trkpt>
      <trkpt lat="39.69632" lon="-8.67792">
        <ele>231.86283874512</ele>
        <time>2020-07-10T00:29:02.957Z</time>
      </trkpt>
      <trkpt lat="39.69645" lon="-8.67798">
        <ele>230.85499572754</ele>
        <time>2020-07-10T00:29:04.652Z</time>
      </trkpt>
      <trkpt lat="39.69653" lon="-8.6781">
        <ele>230.13511657715</ele>
        <time>2020-07-10T00:29:06.349Z</time>
      </trkpt>
      <trkpt lat="39.69686" lon="-8.67866">
        <ele>231.52941894531</ele>
        <time>2020-07-10T00:29:08.057Z</time>
      </trkpt>
      <trkpt lat="39.69723" lon="-8.67941">
        <ele>232.13969421387</ele>
        <time>2020-07-10T00:29:09.779Z</time>
      </trkpt>
      <trkpt lat="39.69734" lon="-8.67955">
        <ele>230.1600189209</ele>
        <time>2020-07-10T00:29:11.504Z</time>
      </trkpt>
      <trkpt lat="39.69751" lon="-8.67971">
        <ele>227.84440612793</ele>
        <time>2020-07-10T00:29:13.233Z</time>
      </trkpt>
      <trkpt lat="39.69786" lon="-8.68001">
        <ele>228.84794616699</ele>
        <time>2020-07-10T00:29:14.971Z</time>
      </trkpt>
      <trkpt lat="39.69805" lon="-8.68022">
        <ele>227.13110351562</ele>
        <time>2020-07-10T00:29:16.714Z</time>
      </trkpt>
      <trkpt lat="39.69811417674" lon="-8.68029404979">
        <ele>225.64442443848</ele>
        <time>2020-07-10T00:29:18.458Z</time>
      </trkpt>
      <trkpt lat="39.69831" lon="-8.68052">
        <ele>221.10809326172</ele>
        <time>2020-07-10T00:29:20.208Z</time>
      </trkpt>
      <trkpt lat="39.69848" lon="-8.68078">
        <ele>220.82461547852</ele>
        <time>2020-07-10T00:29:21.963Z</time>
      </trkpt>
      <trkpt lat="39.69874" lon="-8.68108">
        <ele>220.91369628906</ele>
        <time>2020-07-10T00:29:23.725Z</time>
      </trkpt>
      <trkpt lat="39.69886" lon="-8.68118">
        <ele>218.51409912109</ele>
        <time>2020-07-10T00:29:25.490Z</time>
      </trkpt>
      <trkpt lat="39.69898149504" lon="-8.6812789957">
        <ele>216.12240600586</ele>
        <time>2020-07-10T00:29:27.258Z</time>
      </trkpt>
      <trkpt lat="39.69898157406" lon="-8.68127906009">
        <ele>216.12084960938</ele>
        <time>2020-07-10T00:29:29.026Z</time>
      </trkpt>
      <trkpt lat="39.69913" lon="-8.6814">
        <ele>213.19898986816</ele>
        <time>2020-07-10T00:29:30.797Z</time>
      </trkpt>
      <trkpt lat="39.69924" lon="-8.68151">
        <ele>215.17936706543</ele>
        <time>2020-07-10T00:29:32.571Z</time>
      </trkpt>
      <trkpt lat="39.6993" lon="-8.68162">
        <ele>217.0510559082</ele>
        <time>2020-07-10T00:29:34.347Z</time>
      </trkpt>
      <trkpt lat="39.69947" lon="-8.68195">
        <ele>222.0676574707</ele>
        <time>2020-07-10T00:29:36.129Z</time>
      </trkpt>
      <trkpt lat="39.6996" lon="-8.68216">
        <ele>226.88174438477</ele>
        <time>2020-07-10T00:29:37.915Z</time>
      </trkpt>
      <trkpt lat="39.69969" lon="-8.68245">
        <ele>230.79309082031</ele>
        <time>2020-07-10T00:29:39.706Z</time>
      </trkpt>
      <trkpt lat="39.69974" lon="-8.68265">
        <ele>232.8564453125</ele>
        <time>2020-07-10T00:29:41.500Z</time>
      </trkpt>
      <trkpt lat="39.69984" lon="-8.68282">
        <ele>232.47982788086</ele>
        <time>2020-07-10T00:29:43.298Z</time>
      </trkpt>
      <trkpt lat="39.7" lon="-8.68296">
        <ele>231.66395568848</ele>
        <time>2020-07-10T00:29:45.100Z</time>
      </trkpt>
      <trkpt lat="39.70012" lon="-8.68307">
        <ele>232.38327026367</ele>
        <time>2020-07-10T00:29:46.904Z</time>
      </trkpt>
      <trkpt lat="39.7002" lon="-8.68317">
        <ele>233.70304870605</ele>
        <time>2020-07-10T00:29:48.711Z</time>
      </trkpt>
      <trkpt lat="39.70059" lon="-8.68379">
        <ele>235.52882385254</ele>
        <time>2020-07-10T00:29:50.530Z</time>
      </trkpt>
      <trkpt lat="39.70078" lon="-8.68407">
        <ele>233.49075317383</ele>
        <time>2020-07-10T00:29:52.355Z</time>
      </trkpt>
      <trkpt lat="39.70089" lon="-8.68421">
        <ele>231.52308654785</ele>
        <time>2020-07-10T00:29:54.183Z</time>
      </trkpt>
      <trkpt lat="39.70124" lon="-8.68447">
        <ele>226.24452209473</ele>
        <time>2020-07-10T00:29:56.019Z</time>
      </trkpt>
      <trkpt lat="39.70139" lon="-8.68455">
        <ele>224.63677978516</ele>
        <time>2020-07-10T00:29:57.858Z</time>
      </trkpt>
      <trkpt lat="39.70158" lon="-8.6847">
        <ele>221.84124755859</ele>
        <time>2020-07-10T00:29:59.702Z</time>
      </trkpt>
      <trkpt lat="39.70177" lon="-8.68488">
        <ele>221.00354003906</ele>
        <time>2020-07-10T00:30:01.550Z</time>
      </trkpt>
      <trkpt lat="39.70218" lon="-8.68532">
        <ele>221.28749084473</ele>
        <time>2020-07-10T00:30:03.409Z</time>
      </trkpt>
      <trkpt lat="39.70235" lon="-8.68559">
        <ele>221.01153564453</ele>
        <time>2020-07-10T00:30:05.273Z</time>
      </trkpt>
      <trkpt lat="39.70244" lon="-8.68576">
        <ele>221.71304321289</ele>
        <time>2020-07-10T00:30:07.141Z</time>
      </trkpt>
      <trkpt lat="39.70265" lon="-8.68603">
        <ele>225.13247680664</ele>
        <time>2020-07-10T00:30:09.014Z</time>
      </trkpt>
      <trkpt lat="39.70294" lon="-8.68631">
        <ele>227.70959472656</ele>
        <time>2020-07-10T00:30:10.895Z</time>
      </trkpt>
      <trkpt lat="39.70314" lon="-8.68647">
        <ele>225.45397949219</ele>
        <time>2020-07-10T00:30:12.780Z</time>
      </trkpt>
      <trkpt lat="39.70327" lon="-8.68659">
        <ele>224.7991027832</ele>
        <time>2020-07-10T00:30:14.669Z</time>
      </trkpt>
      <trkpt lat="39.70337" lon="-8.68673">
        <ele>225.2550201416</ele>
        <time>2020-07-10T00:30:16.561Z</time>
      </trkpt>
      <trkpt lat="39.70352" lon="-8.68695">
        <ele>225.61009216309</ele>
        <time>2020-07-10T00:30:18.457Z</time>
      </trkpt>
      <trkpt lat="39.70363" lon="-8.68723">
        <ele>226.53480529785</ele>
        <time>2020-07-10T00:30:20.358Z</time>
      </trkpt>
      <trkpt lat="39.70368" lon="-8.68732">
        <ele>226.83474731445</ele>
        <time>2020-07-10T00:30:22.261Z</time>
      </trkpt>
      <trkpt lat="39.70372" lon="-8.68748">
        <ele>227.48655700684</ele>
        <time>2020-07-10T00:30:24.166Z</time>
      </trkpt>
      <trkpt lat="39.70372" lon="-8.68759">
        <ele>228.14645385742</ele>
        <time>2020-07-10T00:30:26.073Z</time>
      </trkpt>
      <trkpt lat="39.70371" lon="-8.6877">
        <ele>228.81750488281</ele>
        <time>2020-07-10T00:30:27.982Z</time>
      </trkpt>
      <trkpt lat="39.70357" lon="-8.68805">
        <ele>228.89053344727</ele>
        <time>2020-07-10T00:30:29.897Z</time>
      </trkpt>
      <trkpt lat="39.70355" lon="-8.68818">
        <ele>228.78254699707</ele>
        <time>2020-07-10T00:30:31.814Z</time>
      </trkpt>
      <trkpt lat="39.70355" lon="-8.68837">
        <ele>228.55458068848</ele>
        <time>2020-07-10T00:30:33.734Z</time>
      </trkpt>
      <trkpt lat="39.70356" lon="-8.68847">
        <ele>228.41061401367</ele>
        <time>2020-07-10T00:30:35.655Z</time>
      </trkpt>
      <trkpt lat="39.70358" lon="-8.68861">
        <ele>226.86647033691</ele>
        <time>2020-07-10T00:30:37.578Z</time>
      </trkpt>
      <trkpt lat="39.70365" lon="-8.68876">
        <ele>226.35368347168</ele>
        <time>2020-07-10T00:30:39.504Z</time>
      </trkpt>
      <trkpt lat="39.70372" lon="-8.68885">
        <ele>226.0740814209</ele>
        <time>2020-07-10T00:30:41.432Z</time>
      </trkpt>
      <trkpt lat="39.70376" lon="-8.68892">
        <ele>224.9222869873</ele>
        <time>2020-07-10T00:30:43.361Z</time>
      </trkpt>
      <trkpt lat="39.70388" lon="-8.68923">
        <ele>221.47227478027</ele>
        <time>2020-07-10T00:30:45.296Z</time>
      </trkpt>
      <trkpt lat="39.70398" lon="-8.6894">
        <ele>220.89158630371</ele>
        <time>2020-07-10T00:30:47.234Z</time>
      </trkpt>
      <trkpt lat="39.70404" lon="-8.68947">
        <ele>219.47583007812</ele>
        <time>2020-07-10T00:30:49.174Z</time>
      </trkpt>
      <trkpt lat="39.70426" lon="-8.68972">
        <ele>215.3422088623</ele>
        <time>2020-07-10T00:30:51.120Z</time>
      </trkpt>
      <trkpt lat="39.70441" lon="-8.68985">
        <ele>215.7021484375</ele>
        <time>2020-07-10T00:30:53.069Z</time>
      </trkpt>
      <trkpt lat="39.70458" lon="-8.68982">
        <ele>215.61471557617</ele>
        <time>2020-07-10T00:30:55.022Z</time>
      </trkpt>
      <trkpt lat="39.70478" lon="-8.68979">
        <ele>213.93499755859</ele>
        <time>2020-07-10T00:30:56.979Z</time>
      </trkpt>
      <trkpt lat="39.70493" lon="-8.6898">
        <ele>212.67520141602</ele>
        <time>2020-07-10T00:30:58.939Z</time>
      </trkpt>
      <trkpt lat="39.70507" lon="-8.68981">
        <ele>212.03211975098</ele>
        <time>2020-07-10T00:31:00.901Z</time>
      </trkpt>
      <trkpt lat="39.70511" lon="-8.68984">
        <ele>211.94813537598</ele>
        <time>2020-07-10T00:31:02.864Z</time>
      </trkpt>
      <trkpt lat="39.70521" lon="-8.68999">
        <ele>212.00811767578</ele>
        <time>2020-07-10T00:31:04.830Z</time>
      </trkpt>
      <trkpt lat="39.70542" lon="-8.69016">
        <ele>210.81227111816</ele>
        <time>2020-07-10T00:31:06.801Z</time>
      </trkpt>
      <trkpt lat="39.70552" lon="-8.69022">
        <ele>209.15399169922</ele>
        <time>2020-07-10T00:31:08.775Z</time>
      </trkpt>
      <trkpt lat="39.70569" lon="-8.69028">
        <ele>206.10649108887</ele>
        <time>2020-07-10T00:31:10.752Z</time>
      </trkpt>
      <trkpt lat="39.70583" lon="-8.69036">
        <ele>203.7068939209</ele>
        <time>2020-07-10T00:31:12.732Z</time>
      </trkpt>
      <trkpt lat="39.70598" lon="-8.69054">
        <ele>201.91101074219</ele>
        <time>2020-07-10T00:31:14.716Z</time>
      </trkpt>
      <trkpt lat="39.70622" lon="-8.69065">
        <ele>198.84593200684</ele>
        <time>2020-07-10T00:31:16.705Z</time>
      </trkpt>
      <trkpt lat="39.70631" lon="-8.69067">
        <ele>197.04623413086</ele>
        <time>2020-07-10T00:31:18.696Z</time>
      </trkpt>
      <trkpt lat="39.70644" lon="-8.69076">
        <ele>194.88659667969</ele>
        <time>2020-07-10T00:31:20.690Z</time>
      </trkpt>
      <trkpt lat="39.70667" lon="-8.69072">
        <ele>188.6861114502</ele>
        <time>2020-07-10T00:31:22.689Z</time>
      </trkpt>
      <trkpt lat="39.70716" lon="-8.69064">
        <ele>177.47679138184</ele>
        <time>2020-07-10T00:31:24.698Z</time>
      </trkpt>
      <trkpt lat="39.70745" lon="-8.69052">
        <ele>174.89721679688</ele>
        <time>2020-07-10T00:31:26.713Z</time>
      </trkpt>
      <trkpt lat="39.70764" lon="-8.69047">
        <ele>173.02978515625</ele>
        <time>2020-07-10T00:31:28.732Z</time>
      </trkpt>
      <trkpt lat="39.70776" lon="-8.69041">
        <ele>171.66201782227</ele>
        <time>2020-07-10T00:31:30.753Z</time>
      </trkpt>
      <trkpt lat="39.70799" lon="-8.69025">
        <ele>170.81237792969</ele>
        <time>2020-07-10T00:31:32.779Z</time>
      </trkpt>
      <trkpt lat="39.70807" lon="-8.69023">
        <ele>170.88436889648</ele>
        <time>2020-07-10T00:31:34.807Z</time>
      </trkpt>
      <trkpt lat="39.7081" lon="-8.69024">
        <ele>170.84837341309</ele>
        <time>2020-07-10T00:31:36.836Z</time>
      </trkpt>
      <trkpt lat="39.70822" lon="-8.69028">
        <ele>170.70439147949</ele>
        <time>2020-07-10T00:31:38.867Z</time>
      </trkpt>
      <trkpt lat="39.70832" lon="-8.69029">
        <ele>170.66839599609</ele>
        <time>2020-07-10T00:31:40.900Z</time>
      </trkpt>
      <trkpt lat="39.70873" lon="-8.69023">
        <ele>170.56346130371</ele>
        <time>2020-07-10T00:31:42.941Z</time>
      </trkpt>
      <trkpt lat="39.70883" lon="-8.69024">
        <ele>169.77159118652</ele>
        <time>2020-07-10T00:31:44.984Z</time>
      </trkpt>
      <trkpt lat="39.70893" lon="-8.69028">
        <ele>168.76376342773</ele>
        <time>2020-07-10T00:31:47.029Z</time>
      </trkpt>
      <trkpt lat="39.70904" lon="-8.69013">
        <ele>168.23736572266</ele>
        <time>2020-07-10T00:31:49.078Z</time>
      </trkpt>
      <trkpt lat="39.70904170142" lon="-8.69012603002">
        <ele>168.20606994629</ele>
        <time>2020-07-10T00:31:51.127Z</time>
      </trkpt>
      <trkpt lat="39.70907" lon="-8.69006">
        <ele>167.68545532227</ele>
        <time>2020-07-10T00:31:53.177Z</time>
      </trkpt>
      <trkpt lat="39.70924" lon="-8.6897">
        <ele>164.73394775391</ele>
        <time>2020-07-10T00:31:55.233Z</time>
      </trkpt>
      <trkpt lat="39.70935" lon="-8.68949">
        <ele>162.57815551758</ele>
        <time>2020-07-10T00:31:57.293Z</time>
      </trkpt>
      <trkpt lat="39.70958" lon="-8.68913">
        <ele>159.33464050293</ele>
        <time>2020-07-10T00:31:59.360Z</time>
      </trkpt>
      <trkpt lat="39.70962" lon="-8.68907">
        <ele>158.56677246094</ele>
        <time>2020-07-10T00:32:01.429Z</time>
      </trkpt>
      <trkpt lat="39.70965" lon="-8.68904">
        <ele>158.06286621094</ele>
        <time>2020-07-10T00:32:03.498Z</time>
      </trkpt>
      <trkpt lat="39.70971" lon="-8.68903">
        <ele>157.29498291016</ele>
        <time>2020-07-10T00:32:05.569Z</time>
      </trkpt>
      <trkpt lat="39.70976" lon="-8.68904">
        <ele>156.74307250977</ele>
        <time>2020-07-10T00:32:07.641Z</time>
      </trkpt>
      <trkpt lat="39.70976767321" lon="-8.68904565393">
        <ele>156.6781463623</ele>
        <time>2020-07-10T00:32:09.713Z</time>
      </trkpt>
      <trkpt lat="39.70976767929" lon="-8.68904565841">
        <ele>156.67810058594</ele>
        <time>2020-07-10T00:32:11.785Z</time>
      </trkpt>
      <trkpt lat="39.70995" lon="-8.68918">
        <ele>155.96551513672</ele>
        <time>2020-07-10T00:32:13.861Z</time>
      </trkpt>
      <trkpt lat="39.71018" lon="-8.68934">
        <ele>155.37760925293</ele>
        <time>2020-07-10T00:32:15.942Z</time>
      </trkpt>
      <trkpt lat="39.7103" lon="-8.68932">
        <ele>154.20181274414</ele>
        <time>2020-07-10T00:32:18.026Z</time>
      </trkpt>
      <trkpt lat="39.71037" lon="-8.68922">
        <ele>152.76840209961</ele>
        <time>2020-07-10T00:32:20.112Z</time>
      </trkpt>
      <trkpt lat="39.7104" lon="-8.68916">
        <ele>151.90454101562</ele>
        <time>2020-07-10T00:32:22.199Z</time>
      </trkpt>
      <trkpt lat="39.71042" lon="-8.68905">
        <ele>150.74073791504</ele>
        <time>2020-07-10T00:32:24.288Z</time>
      </trkpt>
      <trkpt lat="39.71042" lon="-8.68883">
        <ele>148.89305114746</ele>
        <time>2020-07-10T00:32:26.380Z</time>
      </trkpt>
      <trkpt lat="39.71043" lon="-8.68867">
        <ele>147.42929077148</ele>
        <time>2020-07-10T00:32:28.474Z</time>
      </trkpt>
      <trkpt lat="39.71047" lon="-8.68852">
        <ele>145.76824951172</ele>
        <time>2020-07-10T00:32:30.571Z</time>
      </trkpt>
      <trkpt lat="39.71057" lon="-8.68817">
        <ele>144.53091430664</ele>
        <time>2020-07-10T00:32:32.674Z</time>
      </trkpt>
      <trkpt lat="39.71063" lon="-8.688">
        <ele>143.87103271484</ele>
        <time>2020-07-10T00:32:34.780Z</time>
      </trkpt>
      <trkpt lat="39.71067" lon="-8.68796">
        <ele>143.34312438965</ele>
        <time>2020-07-10T00:32:36.887Z</time>
      </trkpt>
      <trkpt lat="39.71074" lon="-8.68793">
        <ele>142.37127685547</ele>
        <time>2020-07-10T00:32:38.995Z</time>
      </trkpt>
      <trkpt lat="39.71108" lon="-8.68789">
        <ele>137.69360351562</ele>
        <time>2020-07-10T00:32:41.110Z</time>
      </trkpt>
      <trkpt lat="39.71124" lon="-8.68798">
        <ele>136.47611999512</ele>
        <time>2020-07-10T00:32:43.228Z</time>
      </trkpt>
      <trkpt lat="39.71132" lon="-8.68802">
        <ele>136.81207275391</ele>
        <time>2020-07-10T00:32:45.348Z</time>
      </trkpt>
      <trkpt lat="39.71145" lon="-8.68801">
        <ele>137.2679901123</ele>
        <time>2020-07-10T00:32:47.471Z</time>
      </trkpt>
      <trkpt lat="39.71165" lon="-8.688">
        <ele>137.97587585449</ele>
        <time>2020-07-10T00:32:49.598Z</time>
      </trkpt>
      <trkpt lat="39.71204" lon="-8.68816">
        <ele>136.26405334473</ele>
        <time>2020-07-10T00:32:51.733Z</time>
      </trkpt>
      <trkpt lat="39.71225" lon="-8.6882">
        <ele>137.78779602051</ele>
        <time>2020-07-10T00:32:53.872Z</time>
      </trkpt>
      <trkpt lat="39.71241" lon="-8.68821">
        <ele>139.20042419434</ele>
        <time>2020-07-10T00:32:56.014Z</time>
      </trkpt>
      <trkpt lat="39.71249" lon="-8.68819">
        <ele>140.13627624512</ele>
        <time>2020-07-10T00:32:58.158Z</time>
      </trkpt>
      <trkpt lat="39.7126" lon="-8.68812">
        <ele>141.5760345459</ele>
        <time>2020-07-10T00:33:00.304Z</time>
      </trkpt>
      <trkpt lat="39.71307" lon="-8.68766">
        <ele>146.29794311523</ele>
        <time>2020-07-10T00:33:02.462Z</time>
      </trkpt>
      <trkpt lat="39.71322" lon="-8.68751">
        <ele>148.2776184082</ele>
        <time>2020-07-10T00:33:04.624Z</time>
      </trkpt>
      <trkpt lat="39.71334" lon="-8.68767">
        <ele>145.83001708984</ele>
        <time>2020-07-10T00:33:06.789Z</time>
      </trkpt>
      <trkpt lat="39.71348" lon="-8.68781">
        <ele>144.86164855957</ele>
        <time>2020-07-10T00:33:08.958Z</time>
      </trkpt>
      <trkpt lat="39.71366" lon="-8.68793">
        <ele>144.44198608398</ele>
        <time>2020-07-10T00:33:11.131Z</time>
      </trkpt>
      <trkpt lat="39.71411" lon="-8.6882">
        <ele>144.37532043457</ele>
        <time>2020-07-10T00:33:13.314Z</time>
      </trkpt>
      <trkpt lat="39.71451" lon="-8.68843">
        <ele>145.05920410156</ele>
        <time>2020-07-10T00:33:15.506Z</time>
      </trkpt>
      <trkpt lat="39.71455" lon="-8.68847">
        <ele>145.17538452148</ele>
        <time>2020-07-10T00:33:17.699Z</time>
      </trkpt>
      <trkpt lat="39.71459" lon="-8.68844">
        <ele>145.49932861328</ele>
        <time>2020-07-10T00:33:19.893Z</time>
      </trkpt>
      <trkpt lat="39.71477" lon="-8.68837">
        <ele>146.79118347168</ele>
        <time>2020-07-10T00:33:22.090Z</time>
      </trkpt>
      <trkpt lat="39.71497" lon="-8.68825">
        <ele>148.27893066406</ele>
        <time>2020-07-10T00:33:24.292Z</time>
      </trkpt>
      <trkpt lat="39.71512" lon="-8.68806">
        <ele>149.63470458984</ele>
        <time>2020-07-10T00:33:26.498Z</time>
      </trkpt>
      <trkpt lat="39.71517" lon="-8.68795">
        <ele>150.19860839844</ele>
        <time>2020-07-10T00:33:28.706Z</time>
      </trkpt>
      <trkpt lat="39.71523" lon="-8.68779">
        <ele>150.88642883301</ele>
        <time>2020-07-10T00:33:30.917Z</time>
      </trkpt>
      <trkpt lat="39.71532" lon="-8.68765">
        <ele>151.47454833984</ele>
        <time>2020-07-10T00:33:33.130Z</time>
      </trkpt>
      <trkpt lat="39.71539" lon="-8.68759">
        <ele>151.73762512207</ele>
        <time>2020-07-10T00:33:35.345Z</time>
      </trkpt>
      <trkpt lat="39.71554" lon="-8.68754">
        <ele>152.48936462402</ele>
        <time>2020-07-10T00:33:37.563Z</time>
      </trkpt>
      <trkpt lat="39.71579" lon="-8.68744">
        <ele>153.9891204834</ele>
        <time>2020-07-10T00:33:39.786Z</time>
      </trkpt>
      <trkpt lat="39.71589" lon="-8.68742">
        <ele>154.70899963379</ele>
        <time>2020-07-10T00:33:42.011Z</time>
      </trkpt>
      <trkpt lat="39.71615" lon="-8.6871">
        <ele>154.97294616699</ele>
        <time>2020-07-10T00:33:44.244Z</time>
      </trkpt>
      <trkpt lat="39.71627" lon="-8.68697">
        <ele>155.52372741699</ele>
        <time>2020-07-10T00:33:46.480Z</time>
      </trkpt>
      <trkpt lat="39.71641" lon="-8.68674">
        <ele>156.58666992188</ele>
        <time>2020-07-10T00:33:48.720Z</time>
      </trkpt>
      <trkpt lat="39.71649" lon="-8.6866">
        <ele>157.47453308105</ele>
        <time>2020-07-10T00:33:50.963Z</time>
      </trkpt>
      <trkpt lat="39.71665" lon="-8.68647">
        <ele>159.43020629883</ele>
        <time>2020-07-10T00:33:53.210Z</time>
      </trkpt>
      <trkpt lat="39.71679" lon="-8.68638">
        <ele>161.16990661621</ele>
        <time>2020-07-10T00:33:55.460Z</time>
      </trkpt>
      <trkpt lat="39.71693" lon="-8.68623">
        <ele>162.83763122559</ele>
        <time>2020-07-10T00:33:57.714Z</time>
      </trkpt>
      <trkpt lat="39.71729" lon="-8.68597">
        <ele>169.91661071777</ele>
        <time>2020-07-10T00:33:59.976Z</time>
      </trkpt>
      <trkpt lat="39.71759" lon="-8.68568">
        <ele>178.48318481445</ele>
        <time>2020-07-10T00:34:02.245Z</time>
      </trkpt>
      <trkpt lat="39.71782" lon="-8.68538">
        <ele>185.61000061035</ele>
        <time>2020-07-10T00:34:04.521Z</time>
      </trkpt>
      <trkpt lat="39.71789" lon="-8.68519">
        <ele>188.29447937012</ele>
        <time>2020-07-10T00:34:06.800Z</time>
      </trkpt>
      <trkpt lat="39.71811" lon="-8.68476">
        <ele>193.32144165039</ele>
        <time>2020-07-10T00:34:09.087Z</time>
      </trkpt>
      <trkpt lat="39.71824" lon="-8.68414">
        <ele>195.97131347656</ele>
        <time>2020-07-10T00:34:11.384Z</time>
      </trkpt>
      <trkpt lat="39.7183" lon="-8.68382">
        <ele>195.61947631836</ele>
        <time>2020-07-10T00:34:13.686Z</time>
      </trkpt>
      <trkpt lat="39.71835" lon="-8.68368">
        <ele>195.78744506836</ele>
        <time>2020-07-10T00:34:15.990Z</time>
      </trkpt>
      <trkpt lat="39.71845" lon="-8.6835">
        <ele>196.60331726074</ele>
        <time>2020-07-10T00:34:18.298Z</time>
      </trkpt>
      <trkpt lat="39.71864" lon="-8.68325">
        <ele>198.59498596191</ele>
        <time>2020-07-10T00:34:20.611Z</time>
      </trkpt>
      <trkpt lat="39.71892" lon="-8.68299">
        <ele>203.87162780762</ele>
        <time>2020-07-10T00:34:22.931Z</time>
      </trkpt>
      <trkpt lat="39.71902" lon="-8.68293">
        <ele>206.10325622559</ele>
        <time>2020-07-10T00:34:25.253Z</time>
      </trkpt>
      <trkpt lat="39.71917" lon="-8.68288">
        <ele>209.64265441895</ele>
        <time>2020-07-10T00:34:27.578Z</time>
      </trkpt>
      <trkpt lat="39.7191947518" lon="-8.68287281402">
        <ele>210.23181152344</ele>
        <time>2020-07-10T00:34:29.904Z</time>
      </trkpt>
      <trkpt lat="39.71948" lon="-8.68279">
        <ele>216.62457275391</ele>
        <time>2020-07-10T00:34:32.236Z</time>
      </trkpt>
      <trkpt lat="39.71971" lon="-8.68268">
        <ele>219.02014160156</ele>
        <time>2020-07-10T00:34:34.573Z</time>
      </trkpt>
      <trkpt lat="39.71994" lon="-8.68255">
        <ele>220.24392700195</ele>
        <time>2020-07-10T00:34:36.915Z</time>
      </trkpt>
      <trkpt lat="39.72002" lon="-8.68246">
        <ele>220.61587524414</ele>
        <time>2020-07-10T00:34:39.259Z</time>
      </trkpt>
      <trkpt lat="39.72006" lon="-8.68235">
        <ele>220.72384643555</ele>
        <time>2020-07-10T00:34:41.605Z</time>
      </trkpt>
      <trkpt lat="39.72008286002" lon="-8.68212902047">
        <ele>220.57022094727</ele>
        <time>2020-07-10T00:34:43.954Z</time>
      </trkpt>
      <trkpt lat="39.72009" lon="-8.68206">
        <ele>220.45599365234</ele>
        <time>2020-07-10T00:34:46.304Z</time>
      </trkpt>
      <trkpt lat="39.72012" lon="-8.68185">
        <ele>220.31005859375</ele>
        <time>2020-07-10T00:34:48.657Z</time>
      </trkpt>
      <trkpt lat="39.7202" lon="-8.68155">
        <ele>223.40553283691</ele>
        <time>2020-07-10T00:34:51.015Z</time>
      </trkpt>
      <trkpt lat="39.72032" lon="-8.68118">
        <ele>227.37687683105</ele>
        <time>2020-07-10T00:34:53.380Z</time>
      </trkpt>
      <trkpt lat="39.72035" lon="-8.6809">
        <ele>230.5777130127</ele>
        <time>2020-07-10T00:34:55.749Z</time>
      </trkpt>
      <trkpt lat="39.72041" lon="-8.68062">
        <ele>234.61112976074</ele>
        <time>2020-07-10T00:34:58.122Z</time>
      </trkpt>
      <trkpt lat="39.72059" lon="-8.68009">
        <ele>239.67181396484</ele>
        <time>2020-07-10T00:35:00.504Z</time>
      </trkpt>
      <trkpt lat="39.72069" lon="-8.6799">
        <ele>239.40785217285</ele>
        <time>2020-07-10T00:35:02.890Z</time>
      </trkpt>
      <trkpt lat="39.72073" lon="-8.67978">
        <ele>239.13764953613</ele>
        <time>2020-07-10T00:35:05.278Z</time>
      </trkpt>
      <trkpt lat="39.7208" lon="-8.67949">
        <ele>238.27378845215</ele>
        <time>2020-07-10T00:35:07.671Z</time>
      </trkpt>
      <trkpt lat="39.72091" lon="-8.67927">
        <ele>237.14813232422</ele>
        <time>2020-07-10T00:35:10.068Z</time>
      </trkpt>
      <trkpt lat="39.72103" lon="-8.679">
        <ele>235.24044799805</ele>
        <time>2020-07-10T00:35:12.469Z</time>
      </trkpt>
      <trkpt lat="39.72109" lon="-8.67884">
        <ele>234.13664245605</ele>
        <time>2020-07-10T00:35:14.873Z</time>
      </trkpt>
      <trkpt lat="39.72119" lon="-8.67876">
        <ele>233.41676330566</ele>
        <time>2020-07-10T00:35:17.280Z</time>
      </trkpt>
      <trkpt lat="39.72129" lon="-8.6787">
        <ele>233.12796020508</ele>
        <time>2020-07-10T00:35:19.689Z</time>
      </trkpt>
      <trkpt lat="39.72144" lon="-8.67853">
        <ele>232.28810119629</ele>
        <time>2020-07-10T00:35:22.102Z</time>
      </trkpt>
      <trkpt lat="39.72174" lon="-8.67805">
        <ele>231.4935760498</ele>
        <time>2020-07-10T00:35:24.524Z</time>
      </trkpt>
      <trkpt lat="39.72192" lon="-8.67773">
        <ele>230.24600219727</ele>
        <time>2020-07-10T00:35:26.952Z</time>
      </trkpt>
      <trkpt lat="39.72199" lon="-8.67767">
        <ele>230.57942199707</ele>
        <time>2020-07-10T00:35:29.382Z</time>
      </trkpt>
      <trkpt lat="39.72214" lon="-8.67753">
        <ele>232.55773925781</ele>
        <time>2020-07-10T00:35:31.816Z</time>
      </trkpt>
      <trkpt lat="39.72247" lon="-8.67706">
        <ele>237.47692871094</ele>
        <time>2020-07-10T00:35:34.260Z</time>
      </trkpt>
      <trkpt lat="39.72266" lon="-8.67671">
        <ele>238.75967407227</ele>
        <time>2020-07-10T00:35:36.710Z</time>
      </trkpt>
      <trkpt lat="39.72275" lon="-8.67665">
        <ele>239.37158203125</ele>
        <time>2020-07-10T00:35:39.162Z</time>
      </trkpt>
      <trkpt lat="39.72292" lon="-8.67661">
        <ele>241.52813720703</ele>
        <time>2020-07-10T00:35:41.618Z</time>
      </trkpt>
      <trkpt lat="39.72304" lon="-8.67655">
        <ele>243.25584411621</ele>
        <time>2020-07-10T00:35:44.076Z</time>
      </trkpt>
      <trkpt lat="39.7231" lon="-8.6765">
        <ele>243.927734375</ele>
        <time>2020-07-10T00:35:46.536Z</time>
      </trkpt>
      <trkpt lat="39.72343" lon="-8.67606">
        <ele>246.03938293457</ele>
        <time>2020-07-10T00:35:49.005Z</time>
      </trkpt>
      <trkpt lat="39.72366" lon="-8.67565">
        <ele>248.7919921875</ele>
        <time>2020-07-10T00:35:51.482Z</time>
      </trkpt>
      <trkpt lat="39.7237" lon="-8.67548">
        <ele>248.9479675293</ele>
        <time>2020-07-10T00:35:53.962Z</time>
      </trkpt>
      <trkpt lat="39.72375" lon="-8.67491">
        <ele>245.73596191406</ele>
        <time>2020-07-10T00:35:56.450Z</time>
      </trkpt>
      <trkpt lat="39.72374" lon="-8.67459">
        <ele>243.93626403809</ele>
        <time>2020-07-10T00:35:58.943Z</time>
      </trkpt>
      <trkpt lat="39.72366" lon="-8.67408">
        <ele>241.63748168945</ele>
        <time>2020-07-10T00:36:01.444Z</time>
      </trkpt>
      <trkpt lat="39.72362" lon="-8.67367">
        <ele>240.02975463867</ele>
        <time>2020-07-10T00:36:03.952Z</time>
      </trkpt>
      <trkpt lat="39.72356" lon="-8.67318">
        <ele>237.74534606934</ele>
        <time>2020-07-10T00:36:06.467Z</time>
      </trkpt>
      <trkpt lat="39.72346" lon="-8.67292">
        <ele>235.62355041504</ele>
        <time>2020-07-10T00:36:08.987Z</time>
      </trkpt>
      <trkpt lat="39.72348" lon="-8.6728">
        <ele>236.63137817383</ele>
        <time>2020-07-10T00:36:11.509Z</time>
      </trkpt>
      <trkpt lat="39.72354" lon="-8.6727">
        <ele>237.78318786621</ele>
        <time>2020-07-10T00:36:14.033Z</time>
      </trkpt>
      <trkpt lat="39.72369" lon="-8.67258">
        <ele>238.89932250977</ele>
        <time>2020-07-10T00:36:16.560Z</time>
      </trkpt>
      <trkpt lat="39.72352" lon="-8.67233">
        <ele>237.67552185059</ele>
        <time>2020-07-10T00:36:19.092Z</time>
      </trkpt>
      <trkpt lat="39.72344" lon="-8.67214">
        <ele>237.09962463379</ele>
        <time>2020-07-10T00:36:21.628Z</time>
      </trkpt>
      <trkpt lat="39.72342" lon="-8.67201">
        <ele>237.44325256348</ele>
        <time>2020-07-10T00:36:24.166Z</time>
      </trkpt>
      <trkpt lat="39.72338" lon="-8.67163">
        <ele>239.2225189209</ele>
        <time>2020-07-10T00:36:26.710Z</time>
      </trkpt>
      <trkpt lat="39.72324" lon="-8.67105">
        <ele>240.07678222656</ele>
        <time>2020-07-10T00:36:29.263Z</time>
      </trkpt>
      <trkpt lat="39.72308" lon="-8.67072">
        <ele>238.50805664062</ele>
        <time>2020-07-10T00:36:31.822Z</time>
      </trkpt>
      <trkpt lat="39.72302" lon="-8.67036">
        <ele>238.07612609863</ele>
        <time>2020-07-10T00:36:34.387Z</time>
      </trkpt>
      <trkpt lat="39.72292" lon="-8.66991">
        <ele>238.02416992188</ele>
        <time>2020-07-10T00:36:36.959Z</time>
      </trkpt>
      <trkpt lat="39.72279" lon="-8.66928">
        <ele>239.3238067627</ele>
        <time>2020-07-10T00:36:39.541Z</time>
      </trkpt>
      <trkpt lat="39.72276" lon="-8.66903">
        <ele>239.07183837891</ele>
        <time>2020-07-10T00:36:42.127Z</time>
      </trkpt>
      <trkpt lat="39.72279" lon="-8.66838">
        <ele>238.85691833496</ele>
        <time>2020-07-10T00:36:44.723Z</time>
      </trkpt>
      <trkpt lat="39.72283" lon="-8.6681">
        <ele>239.00088500977</ele>
        <time>2020-07-10T00:36:47.323Z</time>
      </trkpt>
      <trkpt lat="39.72292" lon="-8.66779">
        <ele>239.17440795898</ele>
        <time>2020-07-10T00:36:49.929Z</time>
      </trkpt>
      <trkpt lat="39.72304" lon="-8.66761">
        <ele>239.3042755127</ele>
        <time>2020-07-10T00:36:52.538Z</time>
      </trkpt>
      <trkpt lat="39.72315" lon="-8.66747">
        <ele>239.60423278809</ele>
        <time>2020-07-10T00:36:55.150Z</time>
      </trkpt>
      <trkpt lat="39.72326" lon="-8.66737">
        <ele>239.85618591309</ele>
        <time>2020-07-10T00:36:57.765Z</time>
      </trkpt>
      <trkpt lat="39.72322" lon="-8.66774">
        <ele>239.47434997559</ele>
        <time>2020-07-10T00:37:00.386Z</time>
      </trkpt>
      <trkpt lat="39.72324" lon="-8.6681">
        <ele>239.93028259277</ele>
        <time>2020-07-10T00:37:03.012Z</time>
      </trkpt>
      <trkpt lat="39.72327" lon="-8.66821">
        <ele>240.0</ele>
        <time>2020-07-10T00:37:05.640Z</time>
      </trkpt>
      <trkpt lat="39.72335" lon="-8.66835">
        <ele>240.0</ele>
        <time>2020-07-10T00:37:08.271Z</time>
      </trkpt>
      <trkpt lat="39.7235" lon="-8.66857">
        <ele>240.0</ele>
        <time>2020-07-10T00:37:10.906Z</time>
      </trkpt>
      <trkpt lat="39.72383" lon="-8.6687">
        <ele>238.03450012207</ele>
        <time>2020-07-10T00:37:13.548Z</time>
      </trkpt>
      <trkpt lat="39.72398" lon="-8.66876">
        <ele>235.6949005127</ele>
        <time>2020-07-10T00:37:16.193Z</time>
      </trkpt>
      <trkpt lat="39.7241" lon="-8.66878">
        <ele>233.82321166992</ele>
        <time>2020-07-10T00:37:18.841Z</time>
      </trkpt>
      <trkpt lat="39.72427815952" lon="-8.66882858893">
        <ele>230.6941986084</ele>
        <time>2020-07-10T00:37:21.492Z</time>
      </trkpt>
      <trkpt lat="39.72432" lon="-8.66884">
        <ele>229.59436035156</ele>
        <time>2020-07-10T00:37:24.144Z</time>
      </trkpt>
      <trkpt lat="39.72446" lon="-8.66891">
        <ele>225.64701843262</ele>
        <time>2020-07-10T00:37:26.799Z</time>
      </trkpt>
      <trkpt lat="39.72461" lon="-8.66903">
        <ele>221.73606872559</ele>
        <time>2020-07-10T00:37:29.458Z</time>
      </trkpt>
      <trkpt lat="39.72481" lon="-8.66921">
        <ele>217.49055480957</ele>
        <time>2020-07-10T00:37:32.122Z</time>
      </trkpt>
      <trkpt lat="39.72487" lon="-8.6693">
        <ele>216.05079650879</ele>
        <time>2020-07-10T00:37:34.788Z</time>
      </trkpt>
      <trkpt lat="39.7249" lon="-8.66948">
        <ele>215.35794067383</ele>
        <time>2020-07-10T00:37:37.456Z</time>
      </trkpt>
      <trkpt lat="39.7249" lon="-8.66965">
        <ele>215.56190490723</ele>
        <time>2020-07-10T00:37:40.127Z</time>
      </trkpt>
      <trkpt lat="39.72490000018" lon="-8.66988675324">
        <ele>215.91165161133</ele>
        <time>2020-07-10T00:37:42.802Z</time>
      </trkpt>
      <trkpt lat="39.7249" lon="-8.67006">
        <ele>216.32737731934</ele>
        <time>2020-07-10T00:37:45.479Z</time>
      </trkpt>
      <trkpt lat="39.72493" lon="-8.67014">
        <ele>216.15940856934</ele>
        <time>2020-07-10T00:37:48.158Z</time>
      </trkpt>
      <trkpt lat="39.72501" lon="-8.67021">
        <ele>215.34898376465</ele>
        <time>2020-07-10T00:37:50.839Z</time>
      </trkpt>
      <trkpt lat="39.72519" lon="-8.67031">
        <ele>213.30932617188</ele>
        <time>2020-07-10T00:37:53.524Z</time>
      </trkpt>
      <trkpt lat="39.72525" lon="-8.67041">
        <ele>212.02893066406</ele>
        <time>2020-07-10T00:37:56.211Z</time>
      </trkpt>
      <trkpt lat="39.72529" lon="-8.67063">
        <ele>209.9412689209</ele>
        <time>2020-07-10T00:37:58.901Z</time>
      </trkpt>
      <trkpt lat="39.72533" lon="-8.67069">
        <ele>208.81346130371</ele>
        <time>2020-07-10T00:38:01.592Z</time>
      </trkpt>
      <trkpt lat="39.72596" lon="-8.67127">
        <ele>201.92364501953</ele>
        <time>2020-07-10T00:38:04.299Z</time>
      </trkpt>
      <trkpt lat="39.72621" lon="-8.67158">
        <ele>194.9860534668</ele>
        <time>2020-07-10T00:38:07.013Z</time>
      </trkpt>
      <trkpt lat="39.72668" lon="-8.67177">
        <ele>189.77398681641</ele>
        <time>2020-07-10T00:38:09.736Z</time>
      </trkpt>
      <trkpt lat="39.72687" lon="-8.67183">
        <ele>187.67433166504</ele>
        <time>2020-07-10T00:38:12.463Z</time>
      </trkpt>
      <trkpt lat="39.72715" lon="-8.67207">
        <ele>187.42317199707</ele>
        <time>2020-07-10T00:38:15.197Z</time>
      </trkpt>
      <trkpt lat="39.72779" lon="-8.6725">
        <ele>184.78837585449</ele>
        <time>2020-07-10T00:38:17.945Z</time>
      </trkpt>
      <trkpt lat="39.72806" lon="-8.67273">
        <ele>181.91590881348</ele>
        <time>2020-07-10T00:38:20.700Z</time>
      </trkpt>
      <trkpt lat="39.72836" lon="-8.67307">
        <ele>180.99125671387</ele>
        <time>2020-07-10T00:38:23.463Z</time>
      </trkpt>
      <trkpt lat="39.72856" lon="-8.67315">
        <ele>179.79145812988</ele>
        <time>2020-07-10T00:38:26.230Z</time>
      </trkpt>
      <trkpt lat="39.72871" lon="-8.67318">
        <ele>179.12130737305</ele>
        <time>2020-07-10T00:38:29.000Z</time>
      </trkpt>
      <trkpt lat="39.72907" lon="-8.67318">
        <ele>181.22064208984</ele>
        <time>2020-07-10T00:38:31.777Z</time>
      </trkpt>
      <trkpt lat="39.72931" lon="-8.67325">
        <ele>181.12466430664</ele>
        <time>2020-07-10T00:38:34.559Z</time>
      </trkpt>
      <trkpt lat="39.72938" lon="-8.67328">
        <ele>181.00468444824</ele>
        <time>2020-07-10T00:38:37.343Z</time>
      </trkpt>
      <trkpt lat="39.72939" lon="-8.67337">
        <ele>180.16482543945</ele>
        <time>2020-07-10T00:38:40.128Z</time>
      </trkpt>
      <trkpt lat="39.72937" lon="-8.67359">
        <ele>178.52229309082</ele>
        <time>2020-07-10T00:38:42.917Z</time>
      </trkpt>
      <trkpt lat="39.72933" lon="-8.67387">
        <ele>177.93045043945</ele>
        <time>2020-07-10T00:38:45.710Z</time>
      </trkpt>
      <trkpt lat="39.72933" lon="-8.67404">
        <ele>177.52252197266</ele>
        <time>2020-07-10T00:38:48.506Z</time>
      </trkpt>
      <trkpt lat="39.72936" lon="-8.67429">
        <ele>176.95861816406</ele>
        <time>2020-07-10T00:38:51.305Z</time>
      </trkpt>
      <trkpt lat="39.72947" lon="-8.67477">
        <ele>174.63374328613</ele>
        <time>2020-07-10T00:38:54.112Z</time>
      </trkpt>
      <trkpt lat="39.72955" lon="-8.67504">
        <ele>172.90399169922</ele>
        <time>2020-07-10T00:38:56.924Z</time>
      </trkpt>
      <trkpt lat="39.72959" lon="-8.67513">
        <ele>172.26809692383</ele>
        <time>2020-07-10T00:38:59.737Z</time>
      </trkpt>
      <trkpt lat="39.72978" lon="-8.67539">
        <ele>172.70054626465</ele>
        <time>2020-07-10T00:39:02.556Z</time>
      </trkpt>
      <trkpt lat="39.72998" lon="-8.67561">
        <ele>173.41011047363</ele>
        <time>2020-07-10T00:39:05.380Z</time>
      </trkpt>
      <trkpt lat="39.73013" lon="-8.67575">
        <ele>172.87020874023</ele>
        <time>2020-07-10T00:39:08.208Z</time>
      </trkpt>
      <trkpt lat="39.73038" lon="-8.67597">
        <ele>172.04940795898</ele>
        <time>2020-07-10T00:39:11.042Z</time>
      </trkpt>
      <trkpt lat="39.73051" lon="-8.67607">
        <ele>172.74446105957</ele>
        <time>2020-07-10T00:39:13.879Z</time>
      </trkpt>
      <trkpt lat="39.73058" lon="-8.67612">
        <ele>173.29635620117</ele>
        <time>2020-07-10T00:39:16.717Z</time>
      </trkpt>
      <trkpt lat="39.73076" lon="-8.67638">
        <ele>175.50399780273</ele>
        <time>2020-07-10T00:39:19.561Z</time>
      </trkpt>
      <trkpt lat="39.73098" lon="-8.67664">
        <ele>172.76232910156</ele>
        <time>2020-07-10T00:39:22.411Z</time>
      </trkpt>
      <trkpt lat="39.7314" lon="-8.67703">
        <ele>168.92878723145</ele>
        <time>2020-07-10T00:39:25.271Z</time>
      </trkpt>
      <trkpt lat="39.73149" lon="-8.67712">
        <ele>168.82080078125</ele>
        <time>2020-07-10T00:39:28.133Z</time>
      </trkpt>
      <trkpt lat="39.73163" lon="-8.67736">
        <ele>167.73268127441</ele>
        <time>2020-07-10T00:39:31.000Z</time>
      </trkpt>
      <trkpt lat="39.73171" lon="-8.67769">
        <ele>164.66119384766</ele>
        <time>2020-07-10T00:39:33.872Z</time>
      </trkpt>
      <trkpt lat="39.73183" lon="-8.678">
        <ele>165.27165222168</ele>
        <time>2020-07-10T00:39:36.750Z</time>
      </trkpt>
      <trkpt lat="39.73195" lon="-8.67824">
        <ele>164.1198425293</ele>
        <time>2020-07-10T00:39:39.632Z</time>
      </trkpt>
      <trkpt lat="39.73216" lon="-8.67859">
        <ele>163.29127502441</ele>
        <time>2020-07-10T00:39:42.521Z</time>
      </trkpt>
      <trkpt lat="39.73236" lon="-8.679">
        <ele>164.51507568359</ele>
        <time>2020-07-10T00:39:45.417Z</time>
      </trkpt>
      <trkpt lat="39.73242" lon="-8.67917">
        <ele>162.50643920898</ele>
        <time>2020-07-10T00:39:48.316Z</time>
      </trkpt>
      <trkpt lat="39.73279" lon="-8.67928">
        <ele>156.87937927246</ele>
        <time>2020-07-10T00:39:51.223Z</time>
      </trkpt>
      <trkpt lat="39.73296" lon="-8.67933">
        <ele>155.08911132812</ele>
        <time>2020-07-10T00:39:54.133Z</time>
      </trkpt>
      <trkpt lat="39.7331" lon="-8.67942">
        <ele>153.70053100586</ele>
        <time>2020-07-10T00:39:57.046Z</time>
      </trkpt>
      <trkpt lat="39.73364" lon="-8.67969">
        <ele>149.5093536377</ele>
        <time>2020-07-10T00:39:59.971Z</time>
      </trkpt>
      <trkpt lat="39.73399" lon="-8.67991">
        <ele>151.12855529785</ele>
        <time>2020-07-10T00:40:02.904Z</time>
      </trkpt>
      <trkpt lat="39.73407" lon="-8.68">
        <ele>150.13633728027</ele>
        <time>2020-07-10T00:40:05.839Z</time>
      </trkpt>
      <trkpt lat="39.73436" lon="-8.68046">
        <ele>148.70698547363</ele>
        <time>2020-07-10T00:40:08.783Z</time>
      </trkpt>
      <trkpt lat="39.73467" lon="-8.68078">
        <ele>147.06806945801</ele>
        <time>2020-07-10T00:40:11.735Z</time>
      </trkpt>
      <trkpt lat="39.73487" lon="-8.68092">
        <ele>147.30084228516</ele>
        <time>2020-07-10T00:40:14.692Z</time>
      </trkpt>
      <trkpt lat="39.73504" lon="-8.68105">
        <ele>146.98037719727</ele>
        <time>2020-07-10T00:40:17.652Z</time>
      </trkpt>
      <trkpt lat="39.73524" lon="-8.68115">
        <ele>148.06019592285</ele>
        <time>2020-07-10T00:40:20.617Z</time>
      </trkpt>
      <trkpt lat="39.73531" lon="-8.6812">
        <ele>147.64463806152</ele>
        <time>2020-07-10T00:40:23.583Z</time>
      </trkpt>
      <trkpt lat="39.73539" lon="-8.6813">
        <ele>146.8132019043</ele>
        <time>2020-07-10T00:40:26.552Z</time>
      </trkpt>
      <trkpt lat="39.73554" lon="-8.68163">
        <ele>144.76155090332</ele>
        <time>2020-07-10T00:40:29.526Z</time>
      </trkpt>
      <trkpt lat="39.73566" lon="-8.68181">
        <ele>143.5446472168</ele>
        <time>2020-07-10T00:40:32.504Z</time>
      </trkpt>
      <trkpt lat="39.73588" lon="-8.68206">
        <ele>142.64544677734</ele>
        <time>2020-07-10T00:40:35.488Z</time>
      </trkpt>
      <trkpt lat="39.73605" lon="-8.68222">
        <ele>141.81571960449</ele>
        <time>2020-07-10T00:40:38.476Z</time>
      </trkpt>
      <trkpt lat="39.73647720561" lon="-8.68265456997">
        <ele>139.85624694824</ele>
        <time>2020-07-10T00:40:41.475Z</time>
      </trkpt>
      <trkpt lat="39.73663" lon="-8.68281">
        <ele>139.49041748047</ele>
        <time>2020-07-10T00:40:44.478Z</time>
      </trkpt>
      <trkpt lat="39.73699" lon="-8.68313">
        <ele>137.3797454834</ele>
        <time>2020-07-10T00:40:47.490Z</time>
      </trkpt>
      <trkpt lat="39.73718" lon="-8.6834">
        <ele>133.59948730469</ele>
        <time>2020-07-10T00:40:50.507Z</time>
      </trkpt>
      <trkpt lat="39.73722" lon="-8.68338">
        <ele>133.64747619629</ele>
        <time>2020-07-10T00:40:53.525Z</time>
      </trkpt>
      <trkpt lat="39.73722" lon="-8.68337">
        <ele>133.71946716309</ele>
        <time>2020-07-10T00:40:56.543Z</time>
      </trkpt>
      <trkpt lat="39.73722" lon="-8.68338">
        <ele>133.64747619629</ele>
        <time>2020-07-10T00:40:59.561Z</time>
      </trkpt>
      <trkpt lat="39.73738578538" lon="-8.68326297504">
        <ele>134.09210205078</ele>
        <time>2020-07-10T00:41:02.583Z</time>
      </trkpt>
      <trkpt lat="39.73738592824" lon="-8.68326287419">
        <ele>134.09248352051</ele>
        <time>2020-07-10T00:41:05.605Z</time>
      </trkpt>
      <trkpt lat="39.73739" lon="-8.68326">
        <ele>134.10340881348</ele>
        <time>2020-07-10T00:41:08.627Z</time>
      </trkpt>
      <trkpt lat="39.73761" lon="-8.68307">
        <ele>134.94326782227</ele>
        <time>2020-07-10T00:41:11.655Z</time>
      </trkpt>
      <trkpt lat="39.73778" lon="-8.68281">
        <ele>136.40701293945</ele>
        <time>2020-07-10T00:41:14.688Z</time>
      </trkpt>
      <trkpt lat="39.73793" lon="-8.68263">
        <ele>137.28704833984</ele>
        <time>2020-07-10T00:41:17.725Z</time>
      </trkpt>
      <trkpt lat="39.7382" lon="-8.6825">
        <ele>135.90771484375</ele>
        <time>2020-07-10T00:41:20.768Z</time>
      </trkpt>
      <trkpt lat="39.73829" lon="-8.68247">
        <ele>135.25982666016</ele>
        <time>2020-07-10T00:41:23.813Z</time>
      </trkpt>
      <trkpt lat="39.73862" lon="-8.68237">
        <ele>132.74024963379</ele>
        <time>2020-07-10T00:41:26.864Z</time>
      </trkpt>
      <trkpt lat="39.73878" lon="-8.68226">
        <ele>132.13969421387</ele>
        <time>2020-07-10T00:41:29.919Z</time>
      </trkpt>
      <trkpt lat="39.73903" lon="-8.682">
        <ele>131.98371887207</ele>
        <time>2020-07-10T00:41:32.980Z</time>
      </trkpt>
      <trkpt lat="39.73918" lon="-8.68188">
        <ele>131.37182617188</ele>
        <time>2020-07-10T00:41:36.045Z</time>
      </trkpt>
      <trkpt lat="39.73933" lon="-8.68182">
        <ele>129.63720703125</ele>
        <time>2020-07-10T00:41:39.113Z</time>
      </trkpt>
      <trkpt lat="39.73946" lon="-8.68176">
        <ele>128.11346435547</ele>
        <time>2020-07-10T00:41:42.184Z</time>
      </trkpt>
      <trkpt lat="39.73956" lon="-8.68173">
        <ele>127.02209472656</ele>
        <time>2020-07-10T00:41:45.257Z</time>
      </trkpt>
      <trkpt lat="39.73961" lon="-8.68175">
        <ele>126.61416625977</ele>
        <time>2020-07-10T00:41:48.331Z</time>
      </trkpt>
      <trkpt lat="39.74009" lon="-8.68199">
        <ele>124.22354125977</ele>
        <time>2020-07-10T00:41:51.415Z</time>
      </trkpt>
      <trkpt lat="39.74036" lon="-8.68214">
        <ele>124.29993438721</ele>
        <time>2020-07-10T00:41:54.505Z</time>
      </trkpt>
      <trkpt lat="39.74077" lon="-8.68239">
        <ele>125.21583557129</ele>
        <time>2020-07-10T00:41:57.604Z</time>
      </trkpt>
      <trkpt lat="39.741" lon="-8.68252">
        <ele>126.07968902588</ele>
        <time>2020-07-10T00:42:00.708Z</time>
      </trkpt>
      <trkpt lat="39.74115" lon="-8.68261">
        <ele>126.65559387207</ele>
        <time>2020-07-10T00:42:03.815Z</time>
      </trkpt>
      <trkpt lat="39.74131" lon="-8.68274">
        <ele>127.37108612061</ele>
        <time>2020-07-10T00:42:06.926Z</time>
      </trkpt>
      <trkpt lat="39.74166" lon="-8.68306">
        <ele>128.63087463379</ele>
        <time>2020-07-10T00:42:10.046Z</time>
      </trkpt>
      <trkpt lat="39.74183" lon="-8.68317">
        <ele>129.55833435059</ele>
        <time>2020-07-10T00:42:13.170Z</time>
      </trkpt>
      <trkpt lat="39.74192" lon="-8.6832">
        <ele>130.02624511719</ele>
        <time>2020-07-10T00:42:16.295Z</time>
      </trkpt>
      <trkpt lat="39.742" lon="-8.68319">
        <ele>130.39819335938</ele>
        <time>2020-07-10T00:42:19.422Z</time>
      </trkpt>
      <trkpt lat="39.74199" lon="-8.68329">
        <ele>130.47016906738</ele>
        <time>2020-07-10T00:42:22.551Z</time>
      </trkpt>
      <trkpt lat="39.74198" lon="-8.68344">
        <ele>130.60215759277</ele>
        <time>2020-07-10T00:42:25.682Z</time>
      </trkpt>
      <trkpt lat="39.74195" lon="-8.68373">
        <ele>130.61224365234</ele>
        <time>2020-07-10T00:42:28.817Z</time>
      </trkpt>
      <trkpt lat="39.74191" lon="-8.68432">
        <ele>131.64407348633</ele>
        <time>2020-07-10T00:42:31.962Z</time>
      </trkpt>
      <trkpt lat="39.74178" lon="-8.68498">
        <ele>131.04281616211</ele>
        <time>2020-07-10T00:42:35.117Z</time>
      </trkpt>
      <trkpt lat="39.74167" lon="-8.68539">
        <ele>130.80641174316</ele>
        <time>2020-07-10T00:42:38.279Z</time>
      </trkpt>
      <trkpt lat="39.74158" lon="-8.68572">
        <ele>130.88150024414</ele>
        <time>2020-07-10T00:42:41.446Z</time>
      </trkpt>
      <trkpt lat="39.74152" lon="-8.68604">
        <ele>131.56477355957</ele>
        <time>2020-07-10T00:42:44.618Z</time>
      </trkpt>
      <trkpt lat="39.74145" lon="-8.68668">
        <ele>134.04168701172</ele>
        <time>2020-07-10T00:42:47.800Z</time>
      </trkpt>
      <trkpt lat="39.74138" lon="-8.68739">
        <ele>134.08488464355</ele>
        <time>2020-07-10T00:42:50.993Z</time>
      </trkpt>
      <trkpt lat="39.74135" lon="-8.68752">
        <ele>133.98890686035</ele>
        <time>2020-07-10T00:42:54.188Z</time>
      </trkpt>
      <trkpt lat="39.74126" lon="-8.68782">
        <ele>133.59297180176</ele>
        <time>2020-07-10T00:42:57.388Z</time>
      </trkpt>
      <trkpt lat="39.7412" lon="-8.68799">
        <ele>133.26817321777</ele>
        <time>2020-07-10T00:43:00.591Z</time>
      </trkpt>
      <trkpt lat="39.74097" lon="-8.68869">
        <ele>131.53935241699</ele>
        <time>2020-07-10T00:43:03.806Z</time>
      </trkpt>
      <trkpt lat="39.74075" lon="-8.68928">
        <ele>129.61447143555</ele>
        <time>2020-07-10T00:43:07.031Z</time>
      </trkpt>
      <trkpt lat="39.74067" lon="-8.68941">
        <ele>128.84660339355</ele>
        <time>2020-07-10T00:43:10.259Z</time>
      </trkpt>
      <trkpt lat="39.74055" lon="-8.68954">
        <ele>127.69478607178</ele>
        <time>2020-07-10T00:43:13.490Z</time>
      </trkpt>
      <trkpt lat="39.74028" lon="-8.68978">
        <ele>125.32741546631</ele>
        <time>2020-07-10T00:43:16.727Z</time>
      </trkpt>
      <trkpt lat="39.7402583794" lon="-8.68980779794">
        <ele>125.17177581787</ele>
        <time>2020-07-10T00:43:19.965Z</time>
      </trkpt>
      <trkpt lat="39.74021" lon="-8.68987">
        <ele>124.82350158691</ele>
        <time>2020-07-10T00:43:23.204Z</time>
      </trkpt>
      <trkpt lat="39.74018" lon="-8.68998">
        <ele>124.60753631592</ele>
        <time>2020-07-10T00:43:26.445Z</time>
      </trkpt>
      <trkpt lat="39.74016" lon="-8.69059">
        <ele>123.99308776855</ele>
        <time>2020-07-10T00:43:29.695Z</time>
      </trkpt>
      <trkpt lat="39.74014" lon="-8.69076">
        <ele>123.64514160156</ele>
        <time>2020-07-10T00:43:32.948Z</time>
      </trkpt>
      <trkpt lat="39.74009" lon="-8.69095">
        <ele>123.05724334717</ele>
        <time>2020-07-10T00:43:36.204Z</time>
      </trkpt>
      <trkpt lat="39.74015" lon="-8.69096">
        <ele>123.47717285156</ele>
        <time>2020-07-10T00:43:39.461Z</time>
      </trkpt>
      <trkpt lat="39.74033112888" lon="-8.69098264109">
        <ele>124.75391387939</ele>
        <time>2020-07-10T00:43:42.722Z</time>
      </trkpt>
      <trkpt lat="39.74033144246" lon="-8.69098268029">
        <ele>124.75612640381</ele>
        <time>2020-07-10T00:43:45.983Z</time>
      </trkpt>
      <trkpt lat="39.74039" lon="-8.69099">
        <ele>125.30805206299</ele>
        <time>2020-07-10T00:43:49.245Z</time>
      </trkpt>
      <trkpt lat="39.74048" lon="-8.69096">
        <ele>126.87459564209</ele>
        <time>2020-07-10T00:43:52.509Z</time>
      </trkpt>
      <trkpt lat="39.74053" lon="-8.69093">
        <ele>127.76245117188</ele>
        <time>2020-07-10T00:43:55.774Z</time>
      </trkpt>
      <trkpt lat="39.74075" lon="-8.69069">
        <ele>131.40983581543</ele>
        <time>2020-07-10T00:43:59.045Z</time>
      </trkpt>
      <trkpt lat="39.74093" lon="-8.69048">
        <ele>134.36135864258</ele>
        <time>2020-07-10T00:44:02.321Z</time>
      </trkpt>
      <trkpt lat="39.74103" lon="-8.6904">
        <ele>136.08906555176</ele>
        <time>2020-07-10T00:44:05.599Z</time>
      </trkpt>
      <trkpt lat="39.74119" lon="-8.69033">
        <ele>138.99258422852</ele>
        <time>2020-07-10T00:44:08.881Z</time>
      </trkpt>
      <trkpt lat="39.74129" lon="-8.69032">
        <ele>140.68885803223</ele>
        <time>2020-07-10T00:44:12.165Z</time>
      </trkpt>
      <trkpt lat="39.7414" lon="-8.69034">
        <ele>142.5845489502</ele>
        <time>2020-07-10T00:44:15.451Z</time>
      </trkpt>
      <trkpt lat="39.74148" lon="-8.69037">
        <ele>144.00030517578</ele>
        <time>2020-07-10T00:44:18.738Z</time>
      </trkpt>
      <trkpt lat="39.74163" lon="-8.69037">
        <ele>146.51989746094</ele>
        <time>2020-07-10T00:44:22.028Z</time>
      </trkpt>
      <trkpt lat="39.74172" lon="-8.69034">
        <ele>147.95965576172</ele>
        <time>2020-07-10T00:44:25.320Z</time>
      </trkpt>
      <trkpt lat="39.74195" lon="-8.69018">
        <ele>151.20318603516</ele>
        <time>2020-07-10T00:44:28.617Z</time>
      </trkpt>
      <trkpt lat="39.74223" lon="-8.68994">
        <ele>153.30058288574</ele>
        <time>2020-07-10T00:44:31.921Z</time>
      </trkpt>
      <trkpt lat="39.74259" lon="-8.68953">
        <ele>155.11228942871</ele>
        <time>2020-07-10T00:44:35.235Z</time>
      </trkpt>
      <trkpt lat="39.74265" lon="-8.68942">
        <ele>154.76434326172</ele>
        <time>2020-07-10T00:44:38.551Z</time>
      </trkpt>
      <trkpt lat="39.74273" lon="-8.68925">
        <ele>155.03454589844</ele>
        <time>2020-07-10T00:44:41.870Z</time>
      </trkpt>
      <trkpt lat="39.7428" lon="-8.68911">
        <ele>155.79042053223</ele>
        <time>2020-07-10T00:44:45.192Z</time>
      </trkpt>
      <trkpt lat="39.74302" lon="-8.68884">
        <ele>159.7119140625</ele>
        <time>2020-07-10T00:44:48.520Z</time>
      </trkpt>
      <trkpt lat="39.74315" lon="-8.68871">
        <ele>162.36347961426</ele>
        <time>2020-07-10T00:44:51.851Z</time>
      </trkpt>
      <trkpt lat="39.74337" lon="-8.68844">
        <ele>166.4416809082</ele>
        <time>2020-07-10T00:44:55.188Z</time>
      </trkpt>
      <trkpt lat="39.74349" lon="-8.68827">
        <ele>168.38536071777</ele>
        <time>2020-07-10T00:44:58.528Z</time>
      </trkpt>
      <trkpt lat="39.74367338392" lon="-8.68804170722">
        <ele>171.58245849609</ele>
        <time>2020-07-10T00:45:01.874Z</time>
      </trkpt>
      <trkpt lat="39.74398" lon="-8.68766">
        <ele>174.02841186523</ele>
        <time>2020-07-10T00:45:05.228Z</time>
      </trkpt>
      <trkpt lat="39.74427" lon="-8.68741">
        <ele>177.05191040039</ele>
        <time>2020-07-10T00:45:08.589Z</time>
      </trkpt>
      <trkpt lat="39.74444" lon="-8.6873">
        <ele>179.04357910156</ele>
        <time>2020-07-10T00:45:11.954Z</time>
      </trkpt>
      <trkpt lat="39.74462655372" lon="-8.68722145107">
        <ele>180.86473083496</ele>
        <time>2020-07-10T00:45:15.323Z</time>
      </trkpt>
      <trkpt lat="39.74462681287" lon="-8.68722134195">
        <ele>180.86624145508</ele>
        <time>2020-07-10T00:45:18.692Z</time>
      </trkpt>
      <trkpt lat="39.74463" lon="-8.68722">
        <ele>180.88496398926</ele>
        <time>2020-07-10T00:45:22.061Z</time>
      </trkpt>
      <trkpt lat="39.74483" lon="-8.68725">
        <ele>182.74465942383</ele>
        <time>2020-07-10T00:45:25.434Z</time>
      </trkpt>
      <trkpt lat="39.74523" lon="-8.68728">
        <ele>185.95802307129</ele>
        <time>2020-07-10T00:45:28.815Z</time>
      </trkpt>
      <trkpt lat="39.74546" lon="-8.68726">
        <ele>187.92922973633</ele>
        <time>2020-07-10T00:45:32.200Z</time>
      </trkpt>
      <trkpt lat="39.74564" lon="-8.68718">
        <ele>189.70492553711</ele>
        <time>2020-07-10T00:45:35.589Z</time>
      </trkpt>
      <trkpt lat="39.7458" lon="-8.68706">
        <ele>191.04870605469</ele>
        <time>2020-07-10T00:45:38.982Z</time>
      </trkpt>
      <trkpt lat="39.74587" lon="-8.68702">
        <ele>191.69659423828</ele>
        <time>2020-07-10T00:45:42.376Z</time>
      </trkpt>
      <trkpt lat="39.74614" lon="-8.687">
        <ele>194.84007263184</ele>
        <time>2020-07-10T00:45:45.776Z</time>
      </trkpt>
      <trkpt lat="39.74637" lon="-8.68697">
        <ele>196.87158203125</ele>
        <time>2020-07-10T00:45:49.180Z</time>
      </trkpt>
      <trkpt lat="39.74664" lon="-8.68691">
        <ele>198.85125732422</ele>
        <time>2020-07-10T00:45:52.590Z</time>
      </trkpt>
      <trkpt lat="39.74686" lon="-8.68685">
        <ele>200.2264251709</ele>
        <time>2020-07-10T00:45:56.004Z</time>
      </trkpt>
      <trkpt lat="39.74703" lon="-8.68677">
        <ele>200.2144317627</ele>
        <time>2020-07-10T00:45:59.422Z</time>
      </trkpt>
      <trkpt lat="39.74725" lon="-8.68674">
        <ele>201.3734588623</ele>
        <time>2020-07-10T00:46:02.844Z</time>
      </trkpt>
      <trkpt lat="39.74731" lon="-8.68675">
        <ele>202.0693359375</ele>
        <time>2020-07-10T00:46:06.268Z</time>
      </trkpt>
      <trkpt lat="39.74762" lon="-8.68687">
        <ele>206.88269042969</ele>
        <time>2020-07-10T00:46:09.698Z</time>
      </trkpt>
      <trkpt lat="39.74808" lon="-8.68724">
        <ele>209.32652282715</ele>
        <time>2020-07-10T00:46:13.139Z</time>
      </trkpt>
      <trkpt lat="39.74825" lon="-8.68741">
        <ele>210.07818603516</ele>
        <time>2020-07-10T00:46:16.584Z</time>
      </trkpt>
      <trkpt lat="39.74837" lon="-8.68757">
        <ele>213.67758178711</ele>
        <time>2020-07-10T00:46:20.033Z</time>
      </trkpt>
      <trkpt lat="39.74849" lon="-8.68782">
        <ele>216.39724731445</ele>
        <time>2020-07-10T00:46:23.486Z</time>
      </trkpt>
      <trkpt lat="39.74854" lon="-8.68799">
        <ele>217.48321533203</ele>
        <time>2020-07-10T00:46:26.942Z</time>
      </trkpt>
      <trkpt lat="39.7486" lon="-8.68821">
        <ele>220.00280761719</ele>
        <time>2020-07-10T00:46:30.402Z</time>
      </trkpt>
      <trkpt lat="39.74863" lon="-8.68851">
        <ele>222.63035583496</ele>
        <time>2020-07-10T00:46:33.866Z</time>
      </trkpt>
      <trkpt lat="39.74865" lon="-8.68872">
        <ele>222.53443908691</ele>
        <time>2020-07-10T00:46:37.334Z</time>
      </trkpt>
      <trkpt lat="39.7487" lon="-8.68889">
        <ele>222.19850158691</ele>
        <time>2020-07-10T00:46:40.804Z</time>
      </trkpt>
      <trkpt lat="39.74878" lon="-8.68901">
        <ele>221.95945739746</ele>
        <time>2020-07-10T00:46:44.277Z</time>
      </trkpt>
      <trkpt lat="39.74883" lon="-8.68907">
        <ele>221.85147094727</ele>
        <time>2020-07-10T00:46:47.751Z</time>
      </trkpt>
      <trkpt lat="39.74884" lon="-8.68904">
        <ele>222.03143310547</ele>
        <time>2020-07-10T00:46:51.226Z</time>
      </trkpt>
      <trkpt lat="39.74889" lon="-8.68885">
        <ele>223.12326049805</ele>
        <time>2020-07-10T00:46:54.704Z</time>
      </trkpt>
      <trkpt lat="39.74896" lon="-8.68879">
        <ele>223.66316223145</ele>
        <time>2020-07-10T00:46:58.183Z</time>
      </trkpt>
      <trkpt lat="39.74948" lon="-8.68859">
        <ele>226.49468994141</ele>
        <time>2020-07-10T00:47:01.673Z</time>
      </trkpt>
      <trkpt lat="39.74997" lon="-8.68846">
        <ele>224.60710144043</ele>
        <time>2020-07-10T00:47:05.173Z</time>
      </trkpt>
      <trkpt lat="39.75005" lon="-8.68848">
        <ele>224.55911254883</ele>
        <time>2020-07-10T00:47:08.675Z</time>
      </trkpt>
      <trkpt lat="39.7501" lon="-8.68837">
        <ele>223.05935668945</ele>
        <time>2020-07-10T00:47:12.179Z</time>
      </trkpt>
      <trkpt lat="39.75016" lon="-8.68824">
        <ele>221.28366088867</ele>
        <time>2020-07-10T00:47:15.685Z</time>
      </trkpt>
      <trkpt lat="39.75073" lon="-8.68771">
        <ele>213.72468566895</ele>
        <time>2020-07-10T00:47:19.205Z</time>
      </trkpt>
      <trkpt lat="39.75114" lon="-8.68737">
        <ele>209.15344238281</ele>
        <time>2020-07-10T00:47:22.735Z</time>
      </trkpt>
      <trkpt lat="39.75134" lon="-8.68717">
        <ele>206.04081726074</ele>
        <time>2020-07-10T00:47:26.270Z</time>
      </trkpt>
      <trkpt lat="39.75147" lon="-8.68697">
        <ele>203.01731872559</ele>
        <time>2020-07-10T00:47:29.809Z</time>
      </trkpt>
      <trkpt lat="39.75152" lon="-8.68693">
        <ele>202.2974395752</ele>
        <time>2020-07-10T00:47:33.349Z</time>
      </trkpt>
      <trkpt lat="39.75159" lon="-8.68692">
        <ele>201.84150695801</ele>
        <time>2020-07-10T00:47:36.891Z</time>
      </trkpt>
      <trkpt lat="39.75196" lon="-8.68692">
        <ele>200.06581115723</ele>
        <time>2020-07-10T00:47:40.440Z</time>
      </trkpt>
      <trkpt lat="39.75214" lon="-8.68693">
        <ele>198.41744995117</ele>
        <time>2020-07-10T00:47:43.993Z</time>
      </trkpt>
      <trkpt lat="39.75255579876" lon="-8.68694979994">
        <ele>194.07011413574</ele>
        <time>2020-07-10T00:47:47.554Z</time>
      </trkpt>
      <trkpt lat="39.75256" lon="-8.68695">
        <ele>194.02618408203</ele>
        <time>2020-07-10T00:47:51.115Z</time>
      </trkpt>
      <trkpt lat="39.75267" lon="-8.68691">
        <ele>192.55043029785</ele>
        <time>2020-07-10T00:47:54.678Z</time>
      </trkpt>
      <trkpt lat="39.75279" lon="-8.68681">
        <ele>190.4700012207</ele>
        <time>2020-07-10T00:47:58.244Z</time>
      </trkpt>
      <trkpt lat="39.75297" lon="-8.68665">
        <ele>188.54292297363</ele>
        <time>2020-07-10T00:48:01.815Z</time>
      </trkpt>
      <trkpt lat="39.75314" lon="-8.68651">
        <ele>187.97901916504</ele>
        <time>2020-07-10T00:48:05.390Z</time>
      </trkpt>
      <trkpt lat="39.75322" lon="-8.68633">
        <ele>186.75521850586</ele>
        <time>2020-07-10T00:48:08.968Z</time>
      </trkpt>
      <trkpt lat="39.75326" lon="-8.68624">
        <ele>186.14332580566</ele>
        <time>2020-07-10T00:48:12.547Z</time>
      </trkpt>
      <trkpt lat="39.75329" lon="-8.68624">
        <ele>186.25131225586</ele>
        <time>2020-07-10T00:48:16.127Z</time>
      </trkpt>
      <trkpt lat="39.75329" lon="-8.68625">
        <ele>186.33529663086</ele>
        <time>2020-07-10T00:48:19.707Z</time>
      </trkpt>
      <trkpt lat="39.75329" lon="-8.68624">
        <ele>186.25131225586</ele>
        <time>2020-07-10T00:48:23.287Z</time>
      </trkpt>
      <trkpt lat="39.75348129544" lon="-8.68627957831">
        <ele>187.06707763672</ele>
        <time>2020-07-10T00:48:26.871Z</time>
      </trkpt>
      <trkpt lat="39.75348161438" lon="-8.6862796443">
        <ele>187.06509399414</ele>
        <time>2020-07-10T00:48:30.455Z</time>
      </trkpt>
      <trkpt lat="39.75358" lon="-8.6863">
        <ele>186.45045471191</ele>
        <time>2020-07-10T00:48:34.041Z</time>
      </trkpt>
      <trkpt lat="39.75374" lon="-8.68632">
        <ele>185.65267944336</ele>
        <time>2020-07-10T00:48:37.630Z</time>
      </trkpt>
      <trkpt lat="39.75443" lon="-8.68636">
        <ele>186.12547302246</ele>
        <time>2020-07-10T00:48:41.233Z</time>
      </trkpt>
      <trkpt lat="39.75466" lon="-8.6864">
        <ele>187.14845275879</ele>
        <time>2020-07-10T00:48:44.841Z</time>
      </trkpt>
      <trkpt lat="39.75508" lon="-8.68655">
        <ele>189.84799194336</ele>
        <time>2020-07-10T00:48:48.458Z</time>
      </trkpt>
      <trkpt lat="39.75538" lon="-8.68661">
        <ele>191.72456359863</ele>
        <time>2020-07-10T00:48:52.081Z</time>
      </trkpt>
      <trkpt lat="39.75561" lon="-8.68659">
        <ele>193.35629272461</ele>
        <time>2020-07-10T00:48:55.708Z</time>
      </trkpt>
      <trkpt lat="39.75572" lon="-8.68659">
        <ele>193.89590454102</ele>
        <time>2020-07-10T00:48:59.337Z</time>
      </trkpt>
      <trkpt lat="39.75577" lon="-8.6866">
        <ele>194.05186462402</ele>
        <time>2020-07-10T00:49:02.967Z</time>
      </trkpt>
      <trkpt lat="39.75572" lon="-8.68667">
        <ele>193.70393371582</ele>
        <time>2020-07-10T00:49:06.599Z</time>
      </trkpt>
      <trkpt lat="39.75578" lon="-8.68675">
        <ele>193.72792053223</ele>
        <time>2020-07-10T00:49:10.233Z</time>
      </trkpt>
      <trkpt lat="39.75595" lon="-8.68691">
        <ele>194.12152099609</ele>
        <time>2020-07-10T00:49:13.871Z</time>
      </trkpt>
      <trkpt lat="39.75609" lon="-8.687">
        <ele>194.71348571777</ele>
        <time>2020-07-10T00:49:17.512Z</time>
      </trkpt>
      <trkpt lat="39.75621" lon="-8.68707">
        <ele>195.00358581543</ele>
        <time>2020-07-10T00:49:21.156Z</time>
      </trkpt>
      <trkpt lat="39.7564" lon="-8.68725">
        <ele>196.14340209961</ele>
        <time>2020-07-10T00:49:24.804Z</time>
      </trkpt>
      <trkpt lat="39.75665" lon="-8.68755">
        <ele>195.53288269043</ele>
        <time>2020-07-10T00:49:28.459Z</time>
      </trkpt>
      <trkpt lat="39.75674" lon="-8.68777">
        <ele>193.92820739746</ele>
        <time>2020-07-10T00:49:32.118Z</time>
      </trkpt>
      <trkpt lat="39.75675" lon="-8.68787">
        <ele>193.31629943848</ele>
        <time>2020-07-10T00:49:35.778Z</time>
      </trkpt>
      <trkpt lat="39.75681" lon="-8.68822">
        <ele>191.1446685791</ele>
        <time>2020-07-10T00:49:39.444Z</time>
      </trkpt>
      <trkpt lat="39.75688" lon="-8.68845">
        <ele>189.68090820312</ele>
        <time>2020-07-10T00:49:43.114Z</time>
      </trkpt>
      <trkpt lat="39.75714" lon="-8.68898">
        <ele>189.04385375977</ele>
        <time>2020-07-10T00:49:46.794Z</time>
      </trkpt>
      <trkpt lat="39.75738" lon="-8.68936">
        <ele>190.02769470215</ele>
        <time>2020-07-10T00:49:50.481Z</time>
      </trkpt>
      <trkpt lat="39.75745" lon="-8.68948">
        <ele>190.16494750977</ele>
        <time>2020-07-10T00:49:54.170Z</time>
      </trkpt>
      <trkpt lat="39.75748" lon="-8.68964">
        <ele>189.96098327637</ele>
        <time>2020-07-10T00:49:57.862Z</time>
      </trkpt>
      <trkpt lat="39.75752" lon="-8.68977">
        <ele>189.82991027832</ele>
        <time>2020-07-10T00:50:01.556Z</time>
      </trkpt>
      <trkpt lat="39.75764" lon="-8.68988">
        <ele>190.00987243652</ele>
        <time>2020-07-10T00:50:05.253Z</time>
      </trkpt>
      <trkpt lat="39.7579" lon="-8.69006">
        <ele>190.55302429199</ele>
        <time>2020-07-10T00:50:08.956Z</time>
      </trkpt>
      <trkpt lat="39.75814" lon="-8.69028">
        <ele>190.41487121582</ele>
        <time>2020-07-10T00:50:12.665Z</time>
      </trkpt>
      <trkpt lat="39.75835" lon="-8.69057">
        <ele>190.98522949219</ele>
        <time>2020-07-10T00:50:16.380Z</time>
      </trkpt>
      <trkpt lat="39.75856" lon="-8.6909">
        <ele>190.33734130859</ele>
        <time>2020-07-10T00:50:20.102Z</time>
      </trkpt>
      <trkpt lat="39.75863" lon="-8.69107">
        <ele>190.28128051758</ele>
        <time>2020-07-10T00:50:23.827Z</time>
      </trkpt>
      <trkpt lat="39.75874" lon="-8.69116">
        <ele>190.49928283691</ele>
        <time>2020-07-10T00:50:27.554Z</time>
      </trkpt>
      <trkpt lat="39.75893" lon="-8.69123">
        <ele>190.9792175293</ele>
        <time>2020-07-10T00:50:31.285Z</time>
      </trkpt>
      <trkpt lat="39.75915" lon="-8.6913">
        <ele>191.4951171875</ele>
        <time>2020-07-10T00:50:35.021Z</time>
      </trkpt>
      <trkpt lat="39.75944" lon="-8.69134">
        <ele>191.24786376953</ele>
        <time>2020-07-10T00:50:38.762Z</time>
      </trkpt>
      <trkpt lat="39.75966" lon="-8.69139">
        <ele>190.57992553711</ele>
        <time>2020-07-10T00:50:42.508Z</time>
      </trkpt>
      <trkpt lat="39.75986" lon="-8.69146">
        <ele>189.86003112793</ele>
        <time>2020-07-10T00:50:46.258Z</time>
      </trkpt>
      <trkpt lat="39.75997" lon="-8.69147">
        <ele>189.27279663086</ele>
        <time>2020-07-10T00:50:50.010Z</time>
      </trkpt>
      <trkpt lat="39.76026" lon="-8.69141">
        <ele>186.8491973877</ele>
        <time>2020-07-10T00:50:53.768Z</time>
      </trkpt>
      <trkpt lat="39.76045" lon="-8.6914">
        <ele>185.61270141602</ele>
        <time>2020-07-10T00:50:57.530Z</time>
      </trkpt>
      <trkpt lat="39.76058" lon="-8.69143">
        <ele>185.12078857422</ele>
        <time>2020-07-10T00:51:01.295Z</time>
      </trkpt>
      <trkpt lat="39.76068" lon="-8.69153">
        <ele>184.28092956543</ele>
        <time>2020-07-10T00:51:05.062Z</time>
      </trkpt>
      <trkpt lat="39.76084" lon="-8.69174">
        <ele>183.85530090332</ele>
        <time>2020-07-10T00:51:08.834Z</time>
      </trkpt>
      <trkpt lat="39.76092" lon="-8.69181">
        <ele>183.78330993652</ele>
        <time>2020-07-10T00:51:12.608Z</time>
      </trkpt>
      <trkpt lat="39.76109" lon="-8.69185">
        <ele>183.89129638672</ele>
        <time>2020-07-10T00:51:16.385Z</time>
      </trkpt>
      <trkpt lat="39.7613" lon="-8.69193">
        <ele>184.28465270996</ele>
        <time>2020-07-10T00:51:20.166Z</time>
      </trkpt>
      <trkpt lat="39.76178" lon="-8.69222">
        <ele>186.55758666992</ele>
        <time>2020-07-10T00:51:23.958Z</time>
      </trkpt>
      <trkpt lat="39.762" lon="-8.69235">
        <ele>188.72923278809</ele>
        <time>2020-07-10T00:51:27.755Z</time>
      </trkpt>
      <trkpt lat="39.76211" lon="-8.69236">
        <ele>189.29718017578</ele>
        <time>2020-07-10T00:51:31.554Z</time>
      </trkpt>
      <trkpt lat="39.76227" lon="-8.69229">
        <ele>189.74110412598</ele>
        <time>2020-07-10T00:51:35.356Z</time>
      </trkpt>
      <trkpt lat="39.76246" lon="-8.6922">
        <ele>190.29301452637</ele>
        <time>2020-07-10T00:51:39.162Z</time>
      </trkpt>
      <trkpt lat="39.76256" lon="-8.69219">
        <ele>190.44898986816</ele>
        <time>2020-07-10T00:51:42.970Z</time>
      </trkpt>
      <trkpt lat="39.76272" lon="-8.6922">
        <ele>190.60496520996</ele>
        <time>2020-07-10T00:51:46.782Z</time>
      </trkpt>
      <trkpt lat="39.76281" lon="-8.69223">
        <ele>190.60496520996</ele>
        <time>2020-07-10T00:51:50.595Z</time>
      </trkpt>
      <trkpt lat="39.76291" lon="-8.6923">
        <ele>190.23672485352</ele>
        <time>2020-07-10T00:51:54.411Z</time>
      </trkpt>
      <trkpt lat="39.763" lon="-8.69236">
        <ele>189.48085021973</ele>
        <time>2020-07-10T00:51:58.229Z</time>
      </trkpt>
      <trkpt lat="39.76313" lon="-8.69236">
        <ele>188.70097351074</ele>
        <time>2020-07-10T00:52:02.049Z</time>
      </trkpt>
      <trkpt lat="39.76332" lon="-8.69227">
        <ele>187.83280944824</ele>
        <time>2020-07-10T00:52:05.873Z</time>
      </trkpt>
      <trkpt lat="39.76352" lon="-8.6922">
        <ele>186.41705322266</ele>
        <time>2020-07-10T00:52:09.702Z</time>
      </trkpt>
      <trkpt lat="39.76359" lon="-8.69221">
        <ele>185.67317199707</ele>
        <time>2020-07-10T00:52:13.532Z</time>
      </trkpt>
      <trkpt lat="39.7638" lon="-8.69228">
        <ele>183.90399169922</ele>
        <time>2020-07-10T00:52:17.366Z</time>
      </trkpt>
      <trkpt lat="39.76391" lon="-8.69228">
        <ele>183.77200317383</ele>
        <time>2020-07-10T00:52:21.202Z</time>
      </trkpt>
      <trkpt lat="39.76462" lon="-8.69195">
        <ele>186.25077819824</ele>
        <time>2020-07-10T00:52:25.054Z</time>
      </trkpt>
      <trkpt lat="39.76465" lon="-8.69186">
        <ele>186.6524810791</ele>
        <time>2020-07-10T00:52:28.907Z</time>
      </trkpt>
      <trkpt lat="39.76482" lon="-8.69176">
        <ele>188.03225708008</ele>
        <time>2020-07-10T00:52:32.764Z</time>
      </trkpt>
      <trkpt lat="39.76491" lon="-8.69166">
        <ele>188.93211364746</ele>
        <time>2020-07-10T00:52:36.623Z</time>
      </trkpt>
      <trkpt lat="39.76497" lon="-8.69149">
        <ele>189.90394592285</ele>
        <time>2020-07-10T00:52:40.485Z</time>
      </trkpt>
      <trkpt lat="39.76505" lon="-8.69121">
        <ele>190.49819946289</ele>
        <time>2020-07-10T00:52:44.352Z</time>
      </trkpt>
      <trkpt lat="39.76514" lon="-8.69125">
        <ele>191.67399597168</ele>
        <time>2020-07-10T00:52:48.221Z</time>
      </trkpt>
      <trkpt lat="39.76542" lon="-8.69135">
        <ele>193.15827941895</ele>
        <time>2020-07-10T00:52:52.095Z</time>
      </trkpt>
      <trkpt lat="39.76585" lon="-8.6917">
        <ele>192.77973937988</ele>
        <time>2020-07-10T00:52:55.980Z</time>
      </trkpt>
      <trkpt lat="39.76606" lon="-8.69188">
        <ele>191.14572143555</ele>
        <time>2020-07-10T00:52:59.870Z</time>
      </trkpt>
      <trkpt lat="39.76621" lon="-8.69196">
        <ele>191.57484436035</ele>
        <time>2020-07-10T00:53:03.763Z</time>
      </trkpt>
      <trkpt lat="39.76642" lon="-8.69199">
        <ele>192.75367736816</ele>
        <time>2020-07-10T00:53:07.660Z</time>
      </trkpt>
      <trkpt lat="39.76644" lon="-8.692">
        <ele>192.90963745117</ele>
        <time>2020-07-10T00:53:11.557Z</time>
      </trkpt>
      <trkpt lat="39.76655" lon="-8.69195">
        <ele>193.13760375977</ele>
        <time>2020-07-10T00:53:15.457Z</time>
      </trkpt>
      <trkpt lat="39.76675" lon="-8.69187">
        <ele>193.61752319336</ele>
        <time>2020-07-10T00:53:19.361Z</time>
      </trkpt>
      <trkpt lat="39.76699" lon="-8.69184">
        <ele>195.03601074219</ele>
        <time>2020-07-10T00:53:23.270Z</time>
      </trkpt>
      <trkpt lat="39.76727" lon="-8.69178">
        <ele>195.9158782959</ele>
        <time>2020-07-10T00:53:27.184Z</time>
      </trkpt>
      <trkpt lat="39.76749" lon="-8.6918">
        <ele>195.6999206543</ele>
        <time>2020-07-10T00:53:31.103Z</time>
      </trkpt>
      <trkpt lat="39.7676" lon="-8.69181">
        <ele>195.5919342041</ele>
        <time>2020-07-10T00:53:35.024Z</time>
      </trkpt>
      <trkpt lat="39.76787" lon="-8.69191">
        <ele>194.85659790039</ele>
        <time>2020-07-10T00:53:38.951Z</time>
      </trkpt>
      <trkpt lat="39.76799" lon="-8.69195">
        <ele>195.09648132324</ele>
        <time>2020-07-10T00:53:42.880Z</time>
      </trkpt>
      <trkpt lat="39.76809" lon="-8.69193">
        <ele>195.52841186523</ele>
        <time>2020-07-10T00:53:46.811Z</time>
      </trkpt>
      <trkpt lat="39.76813" lon="-8.69192">
        <ele>195.70837402344</ele>
        <time>2020-07-10T00:53:50.743Z</time>
      </trkpt>
      <trkpt lat="39.76823" lon="-8.69183">
        <ele>196.60113525391</ele>
        <time>2020-07-10T00:53:54.677Z</time>
      </trkpt>
      <trkpt lat="39.76836" lon="-8.69176">
        <ele>197.74095153809</ele>
        <time>2020-07-10T00:53:58.614Z</time>
      </trkpt>
      <trkpt lat="39.7686" lon="-8.69171">
        <ele>199.08471679688</ele>
        <time>2020-07-10T00:54:02.556Z</time>
      </trkpt>
      <trkpt lat="39.76907" lon="-8.69155">
        <ele>199.78373718262</ele>
        <time>2020-07-10T00:54:06.508Z</time>
      </trkpt>
      <trkpt lat="39.7692" lon="-8.69158">
        <ele>199.21983337402</ele>
        <time>2020-07-10T00:54:10.462Z</time>
      </trkpt>
      <trkpt lat="39.7693" lon="-8.69164">
        <ele>198.47595214844</ele>
        <time>2020-07-10T00:54:14.419Z</time>
      </trkpt>
      <trkpt lat="39.7695" lon="-8.69185">
        <ele>196.23233032227</ele>
        <time>2020-07-10T00:54:18.381Z</time>
      </trkpt>
      <trkpt lat="39.76959" lon="-8.69202">
        <ele>195.84379577637</ele>
        <time>2020-07-10T00:54:22.346Z</time>
      </trkpt>
      <trkpt lat="39.76961" lon="-8.69216">
        <ele>195.60383605957</ele>
        <time>2020-07-10T00:54:26.313Z</time>
      </trkpt>
      <trkpt lat="39.76963" lon="-8.69221">
        <ele>195.57983398438</ele>
        <time>2020-07-10T00:54:30.281Z</time>
      </trkpt>
      <trkpt lat="39.76967" lon="-8.69223">
        <ele>195.72381591797</ele>
        <time>2020-07-10T00:54:34.250Z</time>
      </trkpt>
      <trkpt lat="39.76999" lon="-8.69212">
        <ele>197.52351379395</ele>
        <time>2020-07-10T00:54:38.225Z</time>
      </trkpt>
      <trkpt lat="39.7701" lon="-8.69213">
        <ele>198.02742004395</ele>
        <time>2020-07-10T00:54:42.203Z</time>
      </trkpt>
      <trkpt lat="39.77016" lon="-8.69214">
        <ele>198.29138183594</ele>
        <time>2020-07-10T00:54:46.182Z</time>
      </trkpt>
      <trkpt lat="39.77023" lon="-8.69208">
        <ele>198.77130126953</ele>
        <time>2020-07-10T00:54:50.163Z</time>
      </trkpt>
      <trkpt lat="39.77044" lon="-8.69197">
        <ele>199.82147216797</ele>
        <time>2020-07-10T00:54:54.148Z</time>
      </trkpt>
      <trkpt lat="39.77084" lon="-8.69178">
        <ele>201.06260681152</ele>
        <time>2020-07-10T00:54:58.142Z</time>
      </trkpt>
      <trkpt lat="39.77094" lon="-8.69174">
        <ele>201.42254638672</ele>
        <time>2020-07-10T00:55:02.138Z</time>
      </trkpt>
      <trkpt lat="39.77113" lon="-8.69172">
        <ele>201.77049255371</ele>
        <time>2020-07-10T00:55:06.138Z</time>
      </trkpt>
      <trkpt lat="39.77155" lon="-8.69165">
        <ele>203.13807678223</ele>
        <time>2020-07-10T00:55:10.146Z</time>
      </trkpt>
      <trkpt lat="39.77167" lon="-8.69153">
        <ele>204.00193786621</ele>
        <time>2020-07-10T00:55:14.157Z</time>
      </trkpt>
      <trkpt lat="39.77184" lon="-8.69153">
        <ele>204.8177947998</ele>
        <time>2020-07-10T00:55:18.171Z</time>
      </trkpt>
      <trkpt lat="39.77216" lon="-8.69157">
        <ele>207.49530029297</ele>
        <time>2020-07-10T00:55:22.192Z</time>
      </trkpt>
      <trkpt lat="39.7724" lon="-8.69168">
        <ele>210.77098083496</ele>
        <time>2020-07-10T00:55:26.218Z</time>
      </trkpt>
      <trkpt lat="39.77243" lon="-8.69178">
        <ele>210.84297180176</ele>
        <time>2020-07-10T00:55:30.246Z</time>
      </trkpt>
      <trkpt lat="39.77243" lon="-8.69211">
        <ele>211.71435546875</ele>
        <time>2020-07-10T00:55:34.279Z</time>
      </trkpt>
      <trkpt lat="39.77258" lon="-8.69205">
        <ele>213.58604431152</ele>
        <time>2020-07-10T00:55:38.315Z</time>
      </trkpt>
      <trkpt lat="39.77264" lon="-8.69206">
        <ele>214.49789428711</ele>
        <time>2020-07-10T00:55:42.352Z</time>
      </trkpt>
      <trkpt lat="39.77271" lon="-8.69224">
        <ele>214.63665771484</ele>
        <time>2020-07-10T00:55:46.392Z</time>
      </trkpt>
      <trkpt lat="39.77276" lon="-8.69251">
        <ele>213.96476745605</ele>
        <time>2020-07-10T00:55:50.436Z</time>
      </trkpt>
      <trkpt lat="39.77286" lon="-8.69276">
        <ele>213.36865234375</ele>
        <time>2020-07-10T00:55:54.485Z</time>
      </trkpt>
      <trkpt lat="39.77298" lon="-8.69298">
        <ele>212.9690246582</ele>
        <time>2020-07-10T00:55:58.538Z</time>
      </trkpt>
      <trkpt lat="39.77301" lon="-8.69307">
        <ele>212.60908508301</ele>
        <time>2020-07-10T00:56:02.592Z</time>
      </trkpt>
      <trkpt lat="39.77302" lon="-8.69323">
        <ele>211.39729309082</ele>
        <time>2020-07-10T00:56:06.649Z</time>
      </trkpt>
      <trkpt lat="39.773" lon="-8.6934">
        <ele>209.70556640625</ele>
        <time>2020-07-10T00:56:10.709Z</time>
      </trkpt>
      <trkpt lat="39.77302" lon="-8.69354">
        <ele>209.1522064209</ele>
        <time>2020-07-10T00:56:14.771Z</time>
      </trkpt>
      <trkpt lat="39.77312" lon="-8.69361">
        <ele>210.29200744629</ele>
        <time>2020-07-10T00:56:18.835Z</time>
      </trkpt>
      <trkpt lat="39.77349" lon="-8.69376">
        <ele>215.12770080566</ele>
        <time>2020-07-10T00:56:22.907Z</time>
      </trkpt>
      <trkpt lat="39.77363" lon="-8.69372">
        <ele>216.95138549805</ele>
        <time>2020-07-10T00:56:26.982Z</time>
      </trkpt>
      <trkpt lat="39.77376" lon="-8.69416">
        <ele>212.46240234375</ele>
        <time>2020-07-10T00:56:31.064Z</time>
      </trkpt>
      <trkpt lat="39.77389" lon="-8.69469">
        <ele>211.88192749023</ele>
        <time>2020-07-10T00:56:35.154Z</time>
      </trkpt>
      <trkpt lat="39.77391" lon="-8.6949">
        <ele>212.30184936523</ele>
        <time>2020-07-10T00:56:39.248Z</time>
      </trkpt>
      <trkpt lat="39.774" lon="-8.69484">
        <ele>212.98574829102</ele>
        <time>2020-07-10T00:56:43.344Z</time>
      </trkpt>
      <trkpt lat="39.77408" lon="-8.69483">
        <ele>213.64562988281</ele>
        <time>2020-07-10T00:56:47.441Z</time>
      </trkpt>
      <trkpt lat="39.77423" lon="-8.69483">
        <ele>213.83297729492</ele>
        <time>2020-07-10T00:56:51.541Z</time>
      </trkpt>
      <trkpt lat="39.77438" lon="-8.69487">
        <ele>213.77299499512</ele>
        <time>2020-07-10T00:56:55.644Z</time>
      </trkpt>
      <trkpt lat="39.77454" lon="-8.6949">
        <ele>213.78498840332</ele>
        <time>2020-07-10T00:56:59.751Z</time>
      </trkpt>
      <trkpt lat="39.77457" lon="-8.69489">
        <ele>213.59051513672</ele>
        <time>2020-07-10T00:57:03.858Z</time>
      </trkpt>
      <trkpt lat="39.77463" lon="-8.69501">
        <ele>212.22274780273</ele>
        <time>2020-07-10T00:57:07.967Z</time>
      </trkpt>
      <trkpt lat="39.77475" lon="-8.69528">
        <ele>210.33253479004</ele>
        <time>2020-07-10T00:57:12.081Z</time>
      </trkpt>
      <trkpt lat="39.7749" lon="-8.69556">
        <ele>209.90060424805</ele>
        <time>2020-07-10T00:57:16.201Z</time>
      </trkpt>
      <trkpt lat="39.77495" lon="-8.69574">
        <ele>209.9341583252</ele>
        <time>2020-07-10T00:57:20.323Z</time>
      </trkpt>
      <trkpt lat="39.77494" lon="-8.69602">
        <ele>210.71403503418</ele>
        <time>2020-07-10T00:57:24.450Z</time>
      </trkpt>
      <trkpt lat="39.77493" lon="-8.69644">
        <ele>211.3405456543</ele>
        <time>2020-07-10T00:57:28.583Z</time>
      </trkpt>
      <trkpt lat="39.77499" lon="-8.6967">
        <ele>210.33616638184</ele>
        <time>2020-07-10T00:57:32.720Z</time>
      </trkpt>
      <trkpt lat="39.77499" lon="-8.69689">
        <ele>209.9913482666</ele>
        <time>2020-07-10T00:57:36.860Z</time>
      </trkpt>
      <trkpt lat="39.77499" lon="-8.6973">
        <ele>207.4776763916</ele>
        <time>2020-07-10T00:57:41.007Z</time>
      </trkpt>
      <trkpt lat="39.77507" lon="-8.69763">
        <ele>203.95025634766</ele>
        <time>2020-07-10T00:57:45.159Z</time>
      </trkpt>
      <trkpt lat="39.77514" lon="-8.69787">
        <ele>202.85485839844</ele>
        <time>2020-07-10T00:57:49.315Z</time>
      </trkpt>
      <trkpt lat="39.7752" lon="-8.69801">
        <ele>202.16903686523</ele>
        <time>2020-07-10T00:57:53.473Z</time>
      </trkpt>
      <trkpt lat="39.77541" lon="-8.69823">
        <ele>199.56318664551</ele>
        <time>2020-07-10T00:57:57.637Z</time>
      </trkpt>
      <trkpt lat="39.77559" lon="-8.69841">
        <ele>199.13572692871</ele>
        <time>2020-07-10T00:58:01.805Z</time>
      </trkpt>
      <trkpt lat="39.77588" lon="-8.69858">
        <ele>197.76748657227</ele>
        <time>2020-07-10T00:58:05.980Z</time>
      </trkpt>
      <trkpt lat="39.7759" lon="-8.6989">
        <ele>198.49536132812</ele>
        <time>2020-07-10T00:58:10.160Z</time>
      </trkpt>
      <trkpt lat="39.77597" lon="-8.6991">
        <ele>197.25956726074</ele>
        <time>2020-07-10T00:58:14.343Z</time>
      </trkpt>
      <trkpt lat="39.77613" lon="-8.69936">
        <ele>194.90795898438</ele>
        <time>2020-07-10T00:58:18.531Z</time>
      </trkpt>
      <trkpt lat="39.77616" lon="-8.69957">
        <ele>194.19822692871</ele>
        <time>2020-07-10T00:58:22.723Z</time>
      </trkpt>
      <trkpt lat="39.77617" lon="-8.69977">
        <ele>193.87428283691</ele>
        <time>2020-07-10T00:58:26.918Z</time>
      </trkpt>
      <trkpt lat="39.77615" lon="-8.69992">
        <ele>193.86228942871</ele>
        <time>2020-07-10T00:58:31.115Z</time>
      </trkpt>
      <trkpt lat="39.77604" lon="-8.7002">
        <ele>194.44743347168</ele>
        <time>2020-07-10T00:58:35.317Z</time>
      </trkpt>
      <trkpt lat="39.77597" lon="-8.70042">
        <ele>193.45159912109</ele>
        <time>2020-07-10T00:58:39.523Z</time>
      </trkpt>
      <trkpt lat="39.77593" lon="-8.70061">
        <ele>192.72625732422</ele>
        <time>2020-07-10T00:58:43.732Z</time>
      </trkpt>
      <trkpt lat="39.77592" lon="-8.7009">
        <ele>191.39447021484</ele>
        <time>2020-07-10T00:58:47.945Z</time>
      </trkpt>
      <trkpt lat="39.77597" lon="-8.70119">
        <ele>189.51440429688</ele>
        <time>2020-07-10T00:58:52.163Z</time>
      </trkpt>
      <trkpt lat="39.77608" lon="-8.70168">
        <ele>185.29800415039</ele>
        <time>2020-07-10T00:58:56.388Z</time>
      </trkpt>
      <trkpt lat="39.77611" lon="-8.70184">
        <ele>183.93023681641</ele>
        <time>2020-07-10T00:59:00.616Z</time>
      </trkpt>
      <trkpt lat="39.77609" lon="-8.70207">
        <ele>183.88354492188</ele>
        <time>2020-07-10T00:59:04.848Z</time>
      </trkpt>
      <trkpt lat="39.77597" lon="-8.70256">
        <ele>184.74740600586</ele>
        <time>2020-07-10T00:59:09.088Z</time>
      </trkpt>
      <trkpt lat="39.77594" lon="-8.70285">
        <ele>184.42330932617</ele>
        <time>2020-07-10T00:59:13.332Z</time>
      </trkpt>
      <trkpt lat="39.77588" lon="-8.70312">
        <ele>183.9881439209</ele>
        <time>2020-07-10T00:59:17.580Z</time>
      </trkpt>
      <trkpt lat="39.77585" lon="-8.70344">
        <ele>183.40023803711</ele>
        <time>2020-07-10T00:59:21.833Z</time>
      </trkpt>
      <trkpt lat="39.77587" lon="-8.70383">
        <ele>183.41189575195</ele>
        <time>2020-07-10T00:59:26.092Z</time>
      </trkpt>
      <trkpt lat="39.77597" lon="-8.70424">
        <ele>179.4083404541</ele>
        <time>2020-07-10T00:59:30.358Z</time>
      </trkpt>
      <trkpt lat="39.77602" lon="-8.70441">
        <ele>177.93006896973</ele>
        <time>2020-07-10T00:59:34.627Z</time>
      </trkpt>
      <trkpt lat="39.77603" lon="-8.70459">
        <ele>178.24026489258</ele>
        <time>2020-07-10T00:59:38.899Z</time>
      </trkpt>
      <trkpt lat="39.77607" lon="-8.70546">
        <ele>175.5412902832</ele>
        <time>2020-07-10T00:59:43.184Z</time>
      </trkpt>
      <trkpt lat="39.77616" lon="-8.70543">
        <ele>174.56945800781</ele>
        <time>2020-07-10T00:59:47.471Z</time>
      </trkpt>
      <trkpt lat="39.7763" lon="-8.70536">
        <ele>174.41879272461</ele>
        <time>2020-07-10T00:59:51.761Z</time>
      </trkpt>
      <trkpt lat="39.77638" lon="-8.70536">
        <ele>174.802734375</ele>
        <time>2020-07-10T00:59:56.052Z</time>
      </trkpt>
      <trkpt lat="39.77644" lon="-8.70539">
        <ele>175.0906829834</ele>
        <time>2020-07-10T01:00:00.345Z</time>
      </trkpt>
      <trkpt lat="39.77657" lon="-8.7055">
        <ele>175.71458435059</ele>
        <time>2020-07-10T01:00:04.641Z</time>
      </trkpt>
      <trkpt lat="39.77666" lon="-8.70556">
        <ele>176.14651489258</ele>
        <time>2020-07-10T01:00:08.939Z</time>
      </trkpt>
      <trkpt lat="39.77676" lon="-8.70558">
        <ele>177.18684387207</ele>
        <time>2020-07-10T01:00:13.239Z</time>
      </trkpt>
      <trkpt lat="39.777" lon="-8.70557">
        <ele>179.71842956543</ele>
        <time>2020-07-10T01:00:17.544Z</time>
      </trkpt>
      <trkpt lat="39.7773" lon="-8.70551">
        <ele>183.81594848633</ele>
        <time>2020-07-10T01:00:21.855Z</time>
      </trkpt>
      <trkpt lat="39.7779" lon="-8.70536">
        <ele>192.27453613281</ele>
        <time>2020-07-10T01:00:26.178Z</time>
      </trkpt>
      <trkpt lat="39.7785" lon="-8.70501">
        <ele>199.53332519531</ele>
        <time>2020-07-10T01:00:30.514Z</time>
      </trkpt>
      <trkpt lat="39.77869" lon="-8.70502">
        <ele>202.55682373047</ele>
        <time>2020-07-10T01:00:34.854Z</time>
      </trkpt>
      <trkpt lat="39.77888" lon="-8.70504">
        <ele>204.48580932617</ele>
        <time>2020-07-10T01:00:39.198Z</time>
      </trkpt>
      <trkpt lat="39.77896" lon="-8.70502">
        <ele>205.46965026855</ele>
        <time>2020-07-10T01:00:43.543Z</time>
      </trkpt>
      <trkpt lat="39.77902" lon="-8.70497">
        <ele>205.74560546875</ele>
        <time>2020-07-10T01:00:47.890Z</time>
      </trkpt>
      <trkpt lat="39.77921" lon="-8.70483">
        <ele>206.86141967773</ele>
        <time>2020-07-10T01:00:52.241Z</time>
      </trkpt>
      <trkpt lat="39.77933" lon="-8.70477">
        <ele>207.94123840332</ele>
        <time>2020-07-10T01:00:56.595Z</time>
      </trkpt>
      <trkpt lat="39.77944" lon="-8.70473">
        <ele>209.1290435791</ele>
        <time>2020-07-10T01:01:00.951Z</time>
      </trkpt>
      <trkpt lat="39.77955" lon="-8.70471">
        <ele>210.56460571289</ele>
        <time>2020-07-10T01:01:05.309Z</time>
      </trkpt>
      <trkpt lat="39.77982" lon="-8.70477">
        <ele>214.27198791504</ele>
        <time>2020-07-10T01:01:09.673Z</time>
      </trkpt>
      <trkpt lat="39.78011" lon="-8.70492">
        <ele>219.04357910156</ele>
        <time>2020-07-10T01:01:14.043Z</time>
      </trkpt>
      <trkpt lat="39.78037" lon="-8.70507">
        <ele>223.3388671875</ele>
        <time>2020-07-10T01:01:18.419Z</time>
      </trkpt>
      <trkpt lat="39.78053" lon="-8.7051">
        <ele>223.91772460938</ele>
        <time>2020-07-10T01:01:22.798Z</time>
      </trkpt>
      <trkpt lat="39.78071" lon="-8.70508">
        <ele>223.34182739258</ele>
        <time>2020-07-10T01:01:27.180Z</time>
      </trkpt>
      <trkpt lat="39.78082" lon="-8.7052">
        <ele>223.94172668457</ele>
        <time>2020-07-10T01:01:31.565Z</time>
      </trkpt>
      <trkpt lat="39.781" lon="-8.70528">
        <ele>224.84999084473</ele>
        <time>2020-07-10T01:01:35.954Z</time>
      </trkpt>
      <trkpt lat="39.78113" lon="-8.70551">
        <ele>224.60426330566</ele>
        <time>2020-07-10T01:01:40.348Z</time>
      </trkpt>
      <trkpt lat="39.78125" lon="-8.70589">
        <ele>222.56289672852</ele>
        <time>2020-07-10T01:01:44.748Z</time>
      </trkpt>
      <trkpt lat="39.78135" lon="-8.70631">
        <ele>223.69030761719</ele>
        <time>2020-07-10T01:01:49.155Z</time>
      </trkpt>
      <trkpt lat="39.78145" lon="-8.70655">
        <ele>224.60215759277</ele>
        <time>2020-07-10T01:01:53.566Z</time>
      </trkpt>
      <trkpt lat="39.78157" lon="-8.70687">
        <ele>222.60144042969</ele>
        <time>2020-07-10T01:01:57.982Z</time>
      </trkpt>
      <trkpt lat="39.78187" lon="-8.70757">
        <ele>219.09434509277</ele>
        <time>2020-07-10T01:02:02.411Z</time>
      </trkpt>
      <trkpt lat="39.78195" lon="-8.70757">
        <ele>217.2706451416</ele>
        <time>2020-07-10T01:02:06.841Z</time>
      </trkpt>
      <trkpt lat="39.78201" lon="-8.70763">
        <ele>216.33479309082</ele>
        <time>2020-07-10T01:02:11.273Z</time>
      </trkpt>
      <trkpt lat="39.78207" lon="-8.70777">
        <ele>215.83512878418</ele>
        <time>2020-07-10T01:02:15.707Z</time>
      </trkpt>
      <trkpt lat="39.7822" lon="-8.70802">
        <ele>214.7313079834</ele>
        <time>2020-07-10T01:02:20.146Z</time>
      </trkpt>
      <trkpt lat="39.78239" lon="-8.7082">
        <ele>212.89561462402</ele>
        <time>2020-07-10T01:02:24.590Z</time>
      </trkpt>
      <trkpt lat="39.78258" lon="-8.70831">
        <ele>210.97593688965</ele>
        <time>2020-07-10T01:02:29.038Z</time>
      </trkpt>
      <trkpt lat="39.78279" lon="-8.70838">
        <ele>208.79229736328</ele>
        <time>2020-07-10T01:02:33.490Z</time>
      </trkpt>
      <trkpt lat="39.78308" lon="-8.70847">
        <ele>206.96551513672</ele>
        <time>2020-07-10T01:02:37.948Z</time>
      </trkpt>
      <trkpt lat="39.78313" lon="-8.70848">
        <ele>206.73756408691</ele>
        <time>2020-07-10T01:02:42.407Z</time>
      </trkpt>
      <trkpt lat="39.78346" lon="-8.70853">
        <ele>205.21382141113</ele>
        <time>2020-07-10T01:02:46.873Z</time>
      </trkpt>
      <trkpt lat="39.78366" lon="-8.7086">
        <ele>203.97180175781</ele>
        <time>2020-07-10T01:02:51.343Z</time>
      </trkpt>
      <trkpt lat="39.78389" lon="-8.70873">
        <ele>202.47439575195</ele>
        <time>2020-07-10T01:02:55.818Z</time>
      </trkpt>
      <trkpt lat="39.78414" lon="-8.70892">
        <ele>200.51872253418</ele>
        <time>2020-07-10T01:03:00.299Z</time>
      </trkpt>
      <trkpt lat="39.78437" lon="-8.70904">
        <ele>199.63874816895</ele>
        <time>2020-07-10T01:03:04.785Z</time>
      </trkpt>
      <trkpt lat="39.78458" lon="-8.70916">
        <ele>198.64860534668</ele>
        <time>2020-07-10T01:03:09.275Z</time>
      </trkpt>
      <trkpt lat="39.78475" lon="-8.70929">
        <ele>196.66316223145</ele>
        <time>2020-07-10T01:03:13.769Z</time>
      </trkpt>
      <trkpt lat="39.78494" lon="-8.70949">
        <ele>193.41011047363</ele>
        <time>2020-07-10T01:03:18.268Z</time>
      </trkpt>
      <trkpt lat="39.78518" lon="-8.70966">
        <ele>190.07388305664</ele>
        <time>2020-07-10T01:03:22.773Z</time>
      </trkpt>
      <trkpt lat="39.78534" lon="-8.70981">
        <ele>189.67794799805</ele>
        <time>2020-07-10T01:03:27.281Z</time>
      </trkpt>
      <trkpt lat="39.7856" lon="-8.71008">
        <ele>189.03805541992</ele>
        <time>2020-07-10T01:03:31.796Z</time>
      </trkpt>
      <trkpt lat="39.78571" lon="-8.71018">
        <ele>189.13403320312</ele>
        <time>2020-07-10T01:03:36.314Z</time>
      </trkpt>
      <trkpt lat="39.78575" lon="-8.71026">
        <ele>188.62059020996</ele>
        <time>2020-07-10T01:03:40.833Z</time>
      </trkpt>
      <trkpt lat="39.78582" lon="-8.71059">
        <ele>185.68109130859</ele>
        <time>2020-07-10T01:03:45.358Z</time>
      </trkpt>
      <trkpt lat="39.78587" lon="-8.7107">
        <ele>186.11917114258</ele>
        <time>2020-07-10T01:03:49.885Z</time>
      </trkpt>
      <trkpt lat="39.78597" lon="-8.71081">
        <ele>186.97102355957</ele>
        <time>2020-07-10T01:03:54.414Z</time>
      </trkpt>
      <trkpt lat="39.78623" lon="-8.71105">
        <ele>188.81484985352</ele>
        <time>2020-07-10T01:03:58.950Z</time>
      </trkpt>
      <trkpt lat="39.78642" lon="-8.71134">
        <ele>185.81535339355</ele>
        <time>2020-07-10T01:04:03.491Z</time>
      </trkpt>
      <trkpt lat="39.78648" lon="-8.71144">
        <ele>184.80751037598</ele>
        <time>2020-07-10T01:04:08.034Z</time>
      </trkpt>
      <trkpt lat="39.78651" lon="-8.71143">
        <ele>184.73553466797</ele>
        <time>2020-07-10T01:04:12.578Z</time>
      </trkpt>
      <trkpt lat="39.78654" lon="-8.71142">
        <ele>184.66354370117</ele>
        <time>2020-07-10T01:04:17.123Z</time>
      </trkpt>
      <trkpt lat="39.78658" lon="-8.7114">
        <ele>184.61555480957</ele>
        <time>2020-07-10T01:04:21.668Z</time>
      </trkpt>
      <trkpt lat="39.7866" lon="-8.71135">
        <ele>184.87950134277</ele>
        <time>2020-07-10T01:04:26.214Z</time>
      </trkpt>
      <trkpt lat="39.78666" lon="-8.71109">
        <ele>186.46324157715</ele>
        <time>2020-07-10T01:04:30.764Z</time>
      </trkpt>
      <trkpt lat="39.78671" lon="-8.71078">
        <ele>186.01040649414</ele>
        <time>2020-07-10T01:04:35.319Z</time>
      </trkpt>
      <trkpt lat="39.78673" lon="-8.7106">
        <ele>185.48248291016</ele>
        <time>2020-07-10T01:04:39.877Z</time>
      </trkpt>
      <trkpt lat="39.78679" lon="-8.71042">
        <ele>184.80949401855</ele>
        <time>2020-07-10T01:04:44.438Z</time>
      </trkpt>
      <trkpt lat="39.78708" lon="-8.70977">
        <ele>181.21664428711</ele>
        <time>2020-07-10T01:04:49.011Z</time>
      </trkpt>
      <trkpt lat="39.78713" lon="-8.7097">
        <ele>180.60475158691</ele>
        <time>2020-07-10T01:04:53.585Z</time>
      </trkpt>
      <trkpt lat="39.78722" lon="-8.70965">
        <ele>179.77688598633</ele>
        <time>2020-07-10T01:04:58.161Z</time>
      </trkpt>
      <trkpt lat="39.7873" lon="-8.70963">
        <ele>179.12899780273</ele>
        <time>2020-07-10T01:05:02.739Z</time>
      </trkpt>
      <trkpt lat="39.78738" lon="-8.70955">
        <ele>178.26513671875</ele>
        <time>2020-07-10T01:05:07.319Z</time>
      </trkpt>
      <trkpt lat="39.78758" lon="-8.70932">
        <ele>175.82569885254</ele>
        <time>2020-07-10T01:05:11.904Z</time>
      </trkpt>
      <trkpt lat="39.78777" lon="-8.70906">
        <ele>172.58624267578</ele>
        <time>2020-07-10T01:05:16.495Z</time>
      </trkpt>
      <trkpt lat="39.7878" lon="-8.70899">
        <ele>171.86636352539</ele>
        <time>2020-07-10T01:05:21.087Z</time>
      </trkpt>
      <trkpt lat="39.7878" lon="-8.7089">
        <ele>171.2184753418</ele>
        <time>2020-07-10T01:05:25.680Z</time>
      </trkpt>
      <trkpt lat="39.78774" lon="-8.70871">
        <ele>170.28262329102</ele>
        <time>2020-07-10T01:05:30.277Z</time>
      </trkpt>
      <trkpt lat="39.78772" lon="-8.70859">
        <ele>169.94287109375</ele>
        <time>2020-07-10T01:05:34.875Z</time>
      </trkpt>
      <trkpt lat="39.78774" lon="-8.70852">
        <ele>169.54339599609</ele>
        <time>2020-07-10T01:05:39.475Z</time>
      </trkpt>
      <trkpt lat="39.78778" lon="-8.70846">
        <ele>169.1834564209</ele>
        <time>2020-07-10T01:05:44.076Z</time>
      </trkpt>
      <trkpt lat="39.78786" lon="-8.70839">
        <ele>168.4035949707</ele>
        <time>2020-07-10T01:05:48.679Z</time>
      </trkpt>
      <trkpt lat="39.78791" lon="-8.70836">
        <ele>167.96842956543</ele>
        <time>2020-07-10T01:05:53.283Z</time>
      </trkpt>
      <trkpt lat="39.78838" lon="-8.70818">
        <ele>164.06381225586</ele>
        <time>2020-07-10T01:05:57.897Z</time>
      </trkpt>
      <trkpt lat="39.78858" lon="-8.70813">
        <ele>162.26411437988</ele>
        <time>2020-07-10T01:06:02.515Z</time>
      </trkpt>
      <trkpt lat="39.78896" lon="-8.70805">
        <ele>162.92704772949</ele>
        <time>2020-07-10T01:06:07.140Z</time>
      </trkpt>
      <trkpt lat="39.7891" lon="-8.70801">
        <ele>164.03085327148</ele>
        <time>2020-07-10T01:06:11.768Z</time>
      </trkpt>
      <trkpt lat="39.78909" lon="-8.70795">
        <ele>164.10284423828</ele>
        <time>2020-07-10T01:06:16.397Z</time>
      </trkpt>
      <trkpt lat="39.78904" lon="-8.70767">
        <ele>164.34091186523</ele>
        <time>2020-07-10T01:06:21.031Z</time>
      </trkpt>
      <trkpt lat="39.78902" lon="-8.7073">
        <ele>164.65577697754</ele>
        <time>2020-07-10T01:06:25.670Z</time>
      </trkpt>
      <trkpt lat="39.78903" lon="-8.70685">
        <ele>166.8186340332</ele>
        <time>2020-07-10T01:06:30.316Z</time>
      </trkpt>
      <trkpt lat="39.78901" lon="-8.70662">
        <ele>167.59851074219</ele>
        <time>2020-07-10T01:06:34.966Z</time>
      </trkpt>
      <trkpt lat="39.78893" lon="-8.70585">
        <ele>171.0</ele>
        <time>2020-07-10T01:06:39.628Z</time>
      </trkpt>
      <trkpt lat="39.78897" lon="-8.7054">
        <ele>171.45431518555</ele>
        <time>2020-07-10T01:06:44.297Z</time>
      </trkpt>
      <trkpt lat="39.78907" lon="-8.70476">
        <ele>170.51713562012</ele>
        <time>2020-07-10T01:06:48.976Z</time>
      </trkpt>
      <trkpt lat="39.78913" lon="-8.70444">
        <ele>169.67727661133</ele>
        <time>2020-07-10T01:06:53.660Z</time>
      </trkpt>
      <trkpt lat="39.78919" lon="-8.70432">
        <ele>169.48614501953</ele>
        <time>2020-07-10T01:06:58.346Z</time>
      </trkpt>
      <trkpt lat="39.78925" lon="-8.70427">
        <ele>169.47415161133</ele>
        <time>2020-07-10T01:07:03.034Z</time>
      </trkpt>
      <trkpt lat="39.7893" lon="-8.70443">
        <ele>169.44931030273</ele>
        <time>2020-07-10T01:07:07.724Z</time>
      </trkpt>
      <trkpt lat="39.78946" lon="-8.70476">
        <ele>170.04920959473</ele>
        <time>2020-07-10T01:07:12.420Z</time>
      </trkpt>
      <trkpt lat="39.78961" lon="-8.70504">
        <ele>169.94882202148</ele>
        <time>2020-07-10T01:07:17.122Z</time>
      </trkpt>
      <trkpt lat="39.7897" lon="-8.70524">
        <ele>169.17979431152</ele>
        <time>2020-07-10T01:07:21.827Z</time>
      </trkpt>
      <trkpt lat="39.78977" lon="-8.70545">
        <ele>168.33993530273</ele>
        <time>2020-07-10T01:07:26.536Z</time>
      </trkpt>
      <trkpt lat="39.78988" lon="-8.7059">
        <ele>166.78276062012</ele>
        <time>2020-07-10T01:07:31.252Z</time>
      </trkpt>
      <trkpt lat="39.78999" lon="-8.70626">
        <ele>164.35639953613</ele>
        <time>2020-07-10T01:07:35.974Z</time>
      </trkpt>
      <trkpt lat="39.78999" lon="-8.70657">
        <ele>164.4532623291</ele>
        <time>2020-07-10T01:07:40.701Z</time>
      </trkpt>
      <trkpt lat="39.78999" lon="-8.70704">
        <ele>165.8801574707</ele>
        <time>2020-07-10T01:07:45.435Z</time>
      </trkpt>
      <trkpt lat="39.79003" lon="-8.70724">
        <ele>165.6630859375</ele>
        <time>2020-07-10T01:07:50.172Z</time>
      </trkpt>
      <trkpt lat="39.79007" lon="-8.70731">
        <ele>165.3391418457</ele>
        <time>2020-07-10T01:07:54.910Z</time>
      </trkpt>
      <trkpt lat="39.79011" lon="-8.70734">
        <ele>165.06318664551</ele>
        <time>2020-07-10T01:07:59.649Z</time>
      </trkpt>
      <trkpt lat="39.79015" lon="-8.70733">
        <ele>164.83522033691</ele>
        <time>2020-07-10T01:08:04.389Z</time>
      </trkpt>
      <trkpt lat="39.7902" lon="-8.70729">
        <ele>164.58326721191</ele>
        <time>2020-07-10T01:08:09.130Z</time>
      </trkpt>
      <trkpt lat="39.79026" lon="-8.70709">
        <ele>164.46328735352</ele>
        <time>2020-07-10T01:08:13.875Z</time>
      </trkpt>
      <trkpt lat="39.79028" lon="-8.70687">
        <ele>164.48838806152</ele>
        <time>2020-07-10T01:08:18.623Z</time>
      </trkpt>
      <trkpt lat="39.7903" lon="-8.70672">
        <ele>163.68539428711</ele>
        <time>2020-07-10T01:08:23.373Z</time>
      </trkpt>
      <trkpt lat="39.79036" lon="-8.70652">
        <ele>162.43760681152</ele>
        <time>2020-07-10T01:08:28.127Z</time>
      </trkpt>
      <trkpt lat="39.79048" lon="-8.70628">
        <ele>158.11688232422</ele>
        <time>2020-07-10T01:08:32.885Z</time>
      </trkpt>
      <trkpt lat="39.79069" lon="-8.70595">
        <ele>150.98820495605</ele>
        <time>2020-07-10T01:08:37.650Z</time>
      </trkpt>
      <trkpt lat="39.79078" lon="-8.7059">
        <ele>148.54061889648</ele>
        <time>2020-07-10T01:08:42.417Z</time>
      </trkpt>
      <trkpt lat="39.79088" lon="-8.70589">
        <ele>145.49313354492</ele>
        <time>2020-07-10T01:08:47.186Z</time>
      </trkpt>
      <trkpt lat="39.79101" lon="-8.70593">
        <ele>141.14985656738</ele>
        <time>2020-07-10T01:08:51.957Z</time>
      </trkpt>
      <trkpt lat="39.79129" lon="-8.70608">
        <ele>133.73089599609</ele>
        <time>2020-07-10T01:08:56.734Z</time>
      </trkpt>
      <trkpt lat="39.79147" lon="-8.70619">
        <ele>133.0830078125</ele>
        <time>2020-07-10T01:09:01.515Z</time>
      </trkpt>
      <trkpt lat="39.79188" lon="-8.70636">
        <ele>131.41835021973</ele>
        <time>2020-07-10T01:09:06.305Z</time>
      </trkpt>
      <trkpt lat="39.79241" lon="-8.70652">
        <ele>132.13386535645</ele>
        <time>2020-07-10T01:09:11.106Z</time>
      </trkpt>
      <trkpt lat="39.79294" lon="-8.70666">
        <ele>133.77496337891</ele>
        <time>2020-07-10T01:09:15.918Z</time>
      </trkpt>
      <trkpt lat="39.79323" lon="-8.70662">
        <ele>135.50389099121</ele>
        <time>2020-07-10T01:09:20.735Z</time>
      </trkpt>
      <trkpt lat="39.79334" lon="-8.70659">
        <ele>136.29574584961</ele>
        <time>2020-07-10T01:09:25.555Z</time>
      </trkpt>
      <trkpt lat="39.79346" lon="-8.70652">
        <ele>137.15960693359</ele>
        <time>2020-07-10T01:09:30.377Z</time>
      </trkpt>
      <trkpt lat="39.79352" lon="-8.70662">
        <ele>137.59153747559</ele>
        <time>2020-07-10T01:09:35.201Z</time>
      </trkpt>
      <trkpt lat="39.79414" lon="-8.7062">
        <ele>139.50912475586</ele>
        <time>2020-07-10T01:09:40.039Z</time>
      </trkpt>
      <trkpt lat="39.79428086893" lon="-8.70607869667">
        <ele>139.6781463623</ele>
        <time>2020-07-10T01:09:44.881Z</time>
      </trkpt>
      <trkpt lat="39.7945" lon="-8.70589">
        <ele>139.94105529785</ele>
        <time>2020-07-10T01:09:49.728Z</time>
      </trkpt>
      <trkpt lat="39.79464" lon="-8.70589">
        <ele>140.21806335449</ele>
        <time>2020-07-10T01:09:54.578Z</time>
      </trkpt>
      <trkpt lat="39.79486" lon="-8.70604">
        <ele>140.36560058594</ele>
        <time>2020-07-10T01:09:59.433Z</time>
      </trkpt>
      <trkpt lat="39.79497" lon="-8.70607">
        <ele>140.46159362793</ele>
        <time>2020-07-10T01:10:04.290Z</time>
      </trkpt>
      <trkpt lat="39.7951" lon="-8.70608">
        <ele>140.60556030273</ele>
        <time>2020-07-10T01:10:09.150Z</time>
      </trkpt>
      <trkpt lat="39.79536543358" lon="-8.70608">
        <ele>140.85446166992</ele>
        <time>2020-07-10T01:10:14.015Z</time>
      </trkpt>
      <trkpt lat="39.79536590033" lon="-8.70608">
        <ele>140.85389709473</ele>
        <time>2020-07-10T01:10:18.880Z</time>
      </trkpt>
      <trkpt lat="39.79544" lon="-8.70608">
        <ele>141.24710083008</ele>
        <time>2020-07-10T01:10:23.746Z</time>
      </trkpt>
      <trkpt lat="39.79543" lon="-8.70593">
        <ele>141.69334411621</ele>
        <time>2020-07-10T01:10:28.615Z</time>
      </trkpt>
      <trkpt lat="39.79544" lon="-8.70571">
        <ele>142.07727050781</ele>
        <time>2020-07-10T01:10:33.487Z</time>
      </trkpt>
      <trkpt lat="39.79553" lon="-8.70488">
        <ele>145.09855651855</ele>
        <time>2020-07-10T01:10:38.372Z</time>
      </trkpt>
      <trkpt lat="39.79554" lon="-8.70464">
        <ele>146.09437561035</ele>
        <time>2020-07-10T01:10:43.261Z</time>
      </trkpt>
      <trkpt lat="39.79552" lon="-8.70451">
        <ele>146.29835510254</ele>
        <time>2020-07-10T01:10:48.152Z</time>
      </trkpt>
      <trkpt lat="39.79536" lon="-8.70394">
        <ele>147.99183654785</ele>
        <time>2020-07-10T01:10:53.052Z</time>
      </trkpt>
      <trkpt lat="39.79528" lon="-8.70368">
        <ele>149.57557678223</ele>
        <time>2020-07-10T01:10:57.956Z</time>
      </trkpt>
      <trkpt lat="39.79523875855" lon="-8.70358205142">
        <ele>149.67527770996</ele>
        <time>2020-07-10T01:11:02.862Z</time>
      </trkpt>
      <trkpt lat="39.7952" lon="-8.70349">
        <ele>149.88328552246</ele>
        <time>2020-07-10T01:11:07.770Z</time>
      </trkpt>
      <trkpt lat="39.79508" lon="-8.70326">
        <ele>151.08308410645</ele>
        <time>2020-07-10T01:11:12.682Z</time>
      </trkpt>
      <trkpt lat="39.79479" lon="-8.70283">
        <ele>149.99995422363</ele>
        <time>2020-07-10T01:11:17.603Z</time>
      </trkpt>
      <trkpt lat="39.79476" lon="-8.70276">
        <ele>149.81997680664</ele>
        <time>2020-07-10T01:11:22.525Z</time>
      </trkpt>
      <trkpt lat="39.79473" lon="-8.7027">
        <ele>149.60401916504</ele>
        <time>2020-07-10T01:11:27.448Z</time>
      </trkpt>
      <trkpt lat="39.79478" lon="-8.7027">
        <ele>150.32389831543</ele>
        <time>2020-07-10T01:11:32.372Z</time>
      </trkpt>
      <trkpt lat="39.79495" lon="-8.70273">
        <ele>152.6634979248</ele>
        <time>2020-07-10T01:11:37.300Z</time>
      </trkpt>
      <trkpt lat="39.79503513338" lon="-8.7027178381">
        <ele>153.93299865723</ele>
        <time>2020-07-10T01:11:42.229Z</time>
      </trkpt>
      <trkpt lat="39.79503527897" lon="-8.7027178173">
        <ele>153.93516540527</ele>
        <time>2020-07-10T01:11:47.158Z</time>
      </trkpt>
      <trkpt lat="39.79509" lon="-8.70271">
        <ele>154.75115966797</ele>
        <time>2020-07-10T01:11:52.088Z</time>
      </trkpt>
      <trkpt lat="39.79533116739" lon="-8.70261275565">
        <ele>158.67803955078</ele>
        <time>2020-07-10T01:11:57.023Z</time>
      </trkpt>
      <trkpt lat="39.79571" lon="-8.70246">
        <ele>164.10664367676</ele>
        <time>2020-07-10T01:12:01.966Z</time>
      </trkpt>
      <trkpt lat="39.79579" lon="-8.70245">
        <ele>165.35443115234</ele>
        <time>2020-07-10T01:12:06.911Z</time>
      </trkpt>
      <trkpt lat="39.796" lon="-8.70248">
        <ele>168.6298828125</ele>
        <time>2020-07-10T01:12:11.860Z</time>
      </trkpt>
      <trkpt lat="39.79621" lon="-8.70241">
        <ele>171.90533447266</ele>
        <time>2020-07-10T01:12:16.814Z</time>
      </trkpt>
      <trkpt lat="39.7964" lon="-8.70233">
        <ele>173.3240814209</ele>
        <time>2020-07-10T01:12:21.772Z</time>
      </trkpt>
      <trkpt lat="39.79644390659" lon="-8.70228609347">
        <ele>173.64015197754</ele>
        <time>2020-07-10T01:12:26.731Z</time>
      </trkpt>
      <trkpt lat="39.7964439189" lon="-8.70228608116">
        <ele>173.64024353027</ele>
        <time>2020-07-10T01:12:31.690Z</time>
      </trkpt>
      <trkpt lat="39.79651" lon="-8.70222">
        <ele>174.11595153809</ele>
        <time>2020-07-10T01:12:36.650Z</time>
      </trkpt>
      <trkpt lat="39.79669" lon="-8.70196">
        <ele>175.41172790527</ele>
        <time>2020-07-10T01:12:41.616Z</time>
      </trkpt>
      <trkpt lat="39.79681" lon="-8.70165">
        <ele>177.05480957031</ele>
        <time>2020-07-10T01:12:46.587Z</time>
      </trkpt>
      <trkpt lat="39.79712" lon="-8.70101">
        <ele>181.45028686523</ele>
        <time>2020-07-10T01:12:51.570Z</time>
      </trkpt>
      <trkpt lat="39.79748" lon="-8.70046">
        <ele>183.92774963379</ele>
        <time>2020-07-10T01:12:56.564Z</time>
      </trkpt>
      <trkpt lat="39.79757" lon="-8.70036">
        <ele>184.56364440918</ele>
        <time>2020-07-10T01:13:01.560Z</time>
      </trkpt>
      <trkpt lat="39.7978" lon="-8.70024">
        <ele>186.35134887695</ele>
        <time>2020-07-10T01:13:06.561Z</time>
      </trkpt>
      <trkpt lat="39.79796" lon="-8.70019">
        <ele>187.89999389648</ele>
        <time>2020-07-10T01:13:11.565Z</time>
      </trkpt>
      <trkpt lat="39.79806424912" lon="-8.70016220044">
        <ele>189.22581481934</ele>
        <time>2020-07-10T01:13:16.572Z</time>
      </trkpt>
      <trkpt lat="39.79856" lon="-8.70003">
        <ele>195.53071594238</ele>
        <time>2020-07-10T01:13:21.589Z</time>
      </trkpt>
      <trkpt lat="39.79895" lon="-8.69996">
        <ele>201.3666229248</ele>
        <time>2020-07-10T01:13:26.614Z</time>
      </trkpt>
      <trkpt lat="39.79920456246" lon="-8.69989146422">
        <ele>205.6145324707</ele>
        <time>2020-07-10T01:13:31.644Z</time>
      </trkpt>
      <trkpt lat="39.79920496837" lon="-8.69989135494">
        <ele>205.62130737305</ele>
        <time>2020-07-10T01:13:36.674Z</time>
      </trkpt>
      <trkpt lat="39.79947" lon="-8.69982">
        <ele>210.0364074707</ele>
        <time>2020-07-10T01:13:41.709Z</time>
      </trkpt>
      <trkpt lat="39.79989" lon="-8.69965">
        <ele>215.06326293945</ele>
        <time>2020-07-10T01:13:46.753Z</time>
      </trkpt>
      <trkpt lat="39.8005" lon="-8.69939">
        <ele>221.44458007812</ele>
        <time>2020-07-10T01:13:51.810Z</time>
      </trkpt>
      <trkpt lat="39.80064" lon="-8.69937">
        <ele>222.21246337891</ele>
        <time>2020-07-10T01:13:56.870Z</time>
      </trkpt>
      <trkpt lat="39.80074" lon="-8.69938">
        <ele>222.64437866211</ele>
        <time>2020-07-10T01:14:01.932Z</time>
      </trkpt>
      <trkpt lat="39.80082" lon="-8.69917">
        <ele>220.27227783203</ele>
        <time>2020-07-10T01:14:06.997Z</time>
      </trkpt>
      <trkpt lat="39.80102" lon="-8.69878">
        <ele>215.6170501709</ele>
        <time>2020-07-10T01:14:12.069Z</time>
      </trkpt>
      <trkpt lat="39.80108" lon="-8.69854">
        <ele>211.2066192627</ele>
        <time>2020-07-10T01:14:17.145Z</time>
      </trkpt>
      <trkpt lat="39.80112" lon="-8.69815">
        <ele>208.85061645508</ele>
        <time>2020-07-10T01:14:22.227Z</time>
      </trkpt>
      <trkpt lat="39.80113" lon="-8.69786">
        <ele>206.90693664551</ele>
        <time>2020-07-10T01:14:27.314Z</time>
      </trkpt>
      <trkpt lat="39.80118" lon="-8.69759">
        <ele>206.33776855469</ele>
        <time>2020-07-10T01:14:32.405Z</time>
      </trkpt>
      <trkpt lat="39.80143" lon="-8.69714">
        <ele>208.11888122559</ele>
        <time>2020-07-10T01:14:37.505Z</time>
      </trkpt>
      <trkpt lat="39.80156" lon="-8.69695">
        <ele>208.98274230957</ele>
        <time>2020-07-10T01:14:42.609Z</time>
      </trkpt>
      <trkpt lat="39.80178" lon="-8.6967">
        <ele>209.93423461914</ele>
        <time>2020-07-10T01:14:47.718Z</time>
      </trkpt>
      <trkpt lat="39.80188" lon="-8.69664">
        <ele>210.48614501953</ele>
        <time>2020-07-10T01:14:52.830Z</time>
      </trkpt>
      <trkpt lat="39.8021" lon="-8.69662">
        <ele>212.47601318359</ele>
        <time>2020-07-10T01:14:57.946Z</time>
      </trkpt>
      <trkpt lat="39.80229" lon="-8.69658">
        <ele>214.79162597656</ele>
        <time>2020-07-10T01:15:03.066Z</time>
      </trkpt>
      <trkpt lat="39.80253" lon="-8.6965">
        <ele>215.52397155762</ele>
        <time>2020-07-10T01:15:08.191Z</time>
      </trkpt>
      <trkpt lat="39.80259" lon="-8.69646">
        <ele>215.76393127441</ele>
        <time>2020-07-10T01:15:13.317Z</time>
      </trkpt>
      <trkpt lat="39.80264" lon="-8.69638">
        <ele>216.57978820801</ele>
        <time>2020-07-10T01:15:18.445Z</time>
      </trkpt>
      <trkpt lat="39.80283" lon="-8.6961">
        <ele>219.36332702637</ele>
        <time>2020-07-10T01:15:23.579Z</time>
      </trkpt>
      <trkpt lat="39.80294" lon="-8.69591">
        <ele>221.26377868652</ele>
        <time>2020-07-10T01:15:28.716Z</time>
      </trkpt>
      <trkpt lat="39.80299" lon="-8.69564">
        <ele>224.32327270508</ele>
        <time>2020-07-10T01:15:33.857Z</time>
      </trkpt>
      <trkpt lat="39.8032" lon="-8.6949">
        <ele>230.65397644043</ele>
        <time>2020-07-10T01:15:39.011Z</time>
      </trkpt>
      <trkpt lat="39.80332" lon="-8.69424">
        <ele>231.32116699219</ele>
        <time>2020-07-10T01:15:44.175Z</time>
      </trkpt>
      <trkpt lat="39.80335" lon="-8.69415">
        <ele>231.96905517578</ele>
        <time>2020-07-10T01:15:49.341Z</time>
      </trkpt>
      <trkpt lat="39.80335" lon="-8.69403">
        <ele>232.68894958496</ele>
        <time>2020-07-10T01:15:54.508Z</time>
      </trkpt>
      <trkpt lat="39.80339" lon="-8.69383">
        <ele>233.61401367188</ele>
        <time>2020-07-10T01:15:59.679Z</time>
      </trkpt>
      <trkpt lat="39.80348" lon="-8.69321">
        <ele>233.50106811523</ele>
        <time>2020-07-10T01:16:04.859Z</time>
      </trkpt>
      <trkpt lat="39.80358" lon="-8.69259">
        <ele>238.03691101074</ele>
        <time>2020-07-10T01:16:10.049Z</time>
      </trkpt>
      <trkpt lat="39.8037" lon="-8.69206">
        <ele>241.87626647949</ele>
        <time>2020-07-10T01:16:15.248Z</time>
      </trkpt>
      <trkpt lat="39.80374" lon="-8.69184">
        <ele>243.07907104492</ele>
        <time>2020-07-10T01:16:20.450Z</time>
      </trkpt>
      <trkpt lat="39.80377" lon="-8.69132">
        <ele>242.59915161133</ele>
        <time>2020-07-10T01:16:25.660Z</time>
      </trkpt>
      <trkpt lat="39.80379" lon="-8.69115">
        <ele>242.49116516113</ele>
        <time>2020-07-10T01:16:30.873Z</time>
      </trkpt>
      <trkpt lat="39.80389" lon="-8.69078">
        <ele>241.75369262695</ele>
        <time>2020-07-10T01:16:36.092Z</time>
      </trkpt>
      <trkpt lat="39.80403" lon="-8.6903">
        <ele>239.23411560059</ele>
        <time>2020-07-10T01:16:41.319Z</time>
      </trkpt>
      <trkpt lat="39.80424" lon="-8.68976">
        <ele>243.7961730957</ele>
        <time>2020-07-10T01:16:46.555Z</time>
      </trkpt>
      <trkpt lat="39.80448" lon="-8.68882">
        <ele>255.59742736816</ele>
        <time>2020-07-10T01:16:51.806Z</time>
      </trkpt>
      <trkpt lat="39.80445" lon="-8.68856">
        <ele>258.40704345703</ele>
        <time>2020-07-10T01:16:57.061Z</time>
      </trkpt>
      <trkpt lat="39.80435" lon="-8.68814">
        <ele>257.59091186523</ele>
        <time>2020-07-10T01:17:02.323Z</time>
      </trkpt>
      <trkpt lat="39.80432" lon="-8.68771">
        <ele>257.75466918945</ele>
        <time>2020-07-10T01:17:07.592Z</time>
      </trkpt>
      <trkpt lat="39.80434" lon="-8.68759">
        <ele>257.84780883789</ele>
        <time>2020-07-10T01:17:12.863Z</time>
      </trkpt>
      <trkpt lat="39.80443" lon="-8.6874">
        <ele>258.48370361328</ele>
        <time>2020-07-10T01:17:18.137Z</time>
      </trkpt>
      <trkpt lat="39.80464" lon="-8.68704">
        <ele>259.96041870117</ele>
        <time>2020-07-10T01:17:23.418Z</time>
      </trkpt>
      <trkpt lat="39.80492" lon="-8.68673">
        <ele>261.61856079102</ele>
        <time>2020-07-10T01:17:28.706Z</time>
      </trkpt>
      <trkpt lat="39.80519" lon="-8.68636">
        <ele>262.5544128418</ele>
        <time>2020-07-10T01:17:34.002Z</time>
      </trkpt>
      <trkpt lat="39.80538" lon="-8.68604">
        <ele>262.99835205078</ele>
        <time>2020-07-10T01:17:39.305Z</time>
      </trkpt>
      <trkpt lat="39.80559" lon="-8.68579">
        <ele>263.86221313477</ele>
        <time>2020-07-10T01:17:44.613Z</time>
      </trkpt>
      <trkpt lat="39.8056" lon="-8.6856">
        <ele>263.26229858398</ele>
        <time>2020-07-10T01:17:49.924Z</time>
      </trkpt>
      <trkpt lat="39.80567" lon="-8.68533">
        <ele>262.87835693359</ele>
        <time>2020-07-10T01:17:55.240Z</time>
      </trkpt>
      <trkpt lat="39.80584" lon="-8.68499">
        <ele>265.31799316406</ele>
        <time>2020-07-10T01:18:00.562Z</time>
      </trkpt>
      <trkpt lat="39.80589" lon="-8.68493">
        <ele>266.16986083984</ele>
        <time>2020-07-10T01:18:05.885Z</time>
      </trkpt>
      <trkpt lat="39.80594" lon="-8.68474">
        <ele>267.95755004883</ele>
        <time>2020-07-10T01:18:11.211Z</time>
      </trkpt>
      <trkpt lat="39.80598" lon="-8.68442">
        <ele>269.94451904297</ele>
        <time>2020-07-10T01:18:16.542Z</time>
      </trkpt>
      <trkpt lat="39.8059" lon="-8.68409">
        <ele>271.15716552734</ele>
        <time>2020-07-10T01:18:21.879Z</time>
      </trkpt>
      <trkpt lat="39.80571" lon="-8.68357">
        <ele>272.62091064453</ele>
        <time>2020-07-10T01:18:27.224Z</time>
      </trkpt>
      <trkpt lat="39.80541488572" lon="-8.68283221416">
        <ele>271.87936401367</ele>
        <time>2020-07-10T01:18:32.582Z</time>
      </trkpt>
      <trkpt lat="39.80541" lon="-8.68282">
        <ele>271.86471557617</ele>
        <time>2020-07-10T01:18:37.941Z</time>
      </trkpt>
      <trkpt lat="39.80538" lon="-8.68258">
        <ele>272.39419555664</ele>
        <time>2020-07-10T01:18:43.303Z</time>
      </trkpt>
      <trkpt lat="39.80539" lon="-8.6823">
        <ele>273.47576904297</ele>
        <time>2020-07-10T01:18:48.670Z</time>
      </trkpt>
      <trkpt lat="39.80545" lon="-8.68182">
        <ele>275.70739746094</ele>
        <time>2020-07-10T01:18:54.044Z</time>
      </trkpt>
      <trkpt lat="39.80548" lon="-8.68169">
        <ele>276.89169311523</ele>
        <time>2020-07-10T01:18:59.420Z</time>
      </trkpt>
      <trkpt lat="39.80554300045" lon="-8.68135531453">
        <ele>280.25531005859</ele>
        <time>2020-07-10T01:19:04.801Z</time>
      </trkpt>
      <trkpt lat="39.80564" lon="-8.68084">
        <ele>284.75155639648</ele>
        <time>2020-07-10T01:19:10.191Z</time>
      </trkpt>
      <trkpt lat="39.80568" lon="-8.68047">
        <ele>284.53375244141</ele>
        <time>2020-07-10T01:19:15.586Z</time>
      </trkpt>
      <trkpt lat="39.80566" lon="-8.68015">
        <ele>283.30828857422</ele>
        <time>2020-07-10T01:19:20.986Z</time>
      </trkpt>
      <trkpt lat="39.80565" lon="-8.67983">
        <ele>283.42938232422</ele>
        <time>2020-07-10T01:19:26.391Z</time>
      </trkpt>
      <trkpt lat="39.80562" lon="-8.67969">
        <ele>283.47738647461</ele>
        <time>2020-07-10T01:19:31.799Z</time>
      </trkpt>
      <trkpt lat="39.80571" lon="-8.67939">
        <ele>285.06112670898</ele>
        <time>2020-07-10T01:19:37.211Z</time>
      </trkpt>
      <trkpt lat="39.80581" lon="-8.67889">
        <ele>287.27716064453</ele>
        <time>2020-07-10T01:19:42.631Z</time>
      </trkpt>
      <trkpt lat="39.80588164947" lon="-8.67854478132">
        <ele>289.12149047852</ele>
        <time>2020-07-10T01:19:48.057Z</time>
      </trkpt>
      <trkpt lat="39.80592" lon="-8.67836">
        <ele>290.1086730957</ele>
        <time>2020-07-10T01:19:53.486Z</time>
      </trkpt>
      <trkpt lat="39.80608" lon="-8.67768">
        <ele>292.68643188477</ele>
        <time>2020-07-10T01:19:58.926Z</time>
      </trkpt>
      <trkpt lat="39.80613" lon="-8.67743">
        <ele>293.52627563477</ele>
        <time>2020-07-10T01:20:04.370Z</time>
      </trkpt>
      <trkpt lat="39.80611790903" lon="-8.67742636241">
        <ele>293.32318115234</ele>
        <time>2020-07-10T01:20:09.814Z</time>
      </trkpt>
      <trkpt lat="39.80617268889" lon="-8.67710672217">
        <ele>294.24334716797</ele>
        <time>2020-07-10T01:20:15.263Z</time>
      </trkpt>
      <trkpt lat="39.80622410774" lon="-8.67680668831">
        <ele>295.11056518555</ele>
        <time>2020-07-10T01:20:20.717Z</time>
      </trkpt>
      <trkpt lat="39.80593442917" lon="-8.6753153801">
        <ele>297.23272705078</ele>
        <time>2020-07-10T01:20:26.195Z</time>
      </trkpt>
      <trkpt lat="39.80634212494" lon="-8.67503643036">
        <ele>301.80426025391</ele>
        <time>2020-07-10T01:20:31.682Z</time>
      </trkpt>
      <trkpt lat="39.80680346489" lon="-8.6751973629">
        <ele>300.28768920898</ele>
        <time>2020-07-10T01:20:37.178Z</time>
      </trkpt>
      <trkpt lat="39.80702877045" lon="-8.67514371872">
        <ele>300.33679199219</ele>
        <time>2020-07-10T01:20:42.679Z</time>
      </trkpt>
      <trkpt lat="39.80716824532" lon="-8.67496132851">
        <ele>298.73602294922</ele>
        <time>2020-07-10T01:20:48.184Z</time>
      </trkpt>
      <trkpt lat="39.8072218895" lon="-8.67461800575">
        <ele>299.57272338867</ele>
        <time>2020-07-10T01:20:53.694Z</time>
      </trkpt>
      <trkpt lat="39.80759748258" lon="-8.67432832718">
        <ele>291.94277954102</ele>
        <time>2020-07-10T01:20:59.213Z</time>
      </trkpt>
      <trkpt lat="39.80772614479" lon="-8.67440342903">
        <ele>289.36486816406</ele>
        <time>2020-07-10T01:21:04.735Z</time>
      </trkpt>
      <trkpt lat="39.80887413025" lon="-8.67581963539">
        <ele>273.00573730469</ele>
        <time>2020-07-10T01:21:10.289Z</time>
      </trkpt>
      <trkpt lat="39.80928182602" lon="-8.67619514465">
        <ele>273.40615844727</ele>
        <time>2020-07-10T01:21:15.853Z</time>
      </trkpt>
      <trkpt lat="39.80912089348" lon="-8.67586255074">
        <ele>272.80767822266</ele>
        <time>2020-07-10T01:21:21.423Z</time>
      </trkpt>
      <trkpt lat="39.80884194374" lon="-8.67457509041">
        <ele>263.05606079102</ele>
        <time>2020-07-10T01:21:27.013Z</time>
      </trkpt>
      <trkpt lat="39.80909559961" lon="-8.6745898663">
        <ele>258.13052368164</ele>
        <time>2020-07-10T01:21:32.608Z</time>
      </trkpt>
      <trkpt lat="39.80994701385" lon="-8.67463946342">
        <ele>242.8794708252</ele>
        <time>2020-07-10T01:21:38.220Z</time>
      </trkpt>
      <trkpt lat="39.80993737467" lon="-8.67458405904">
        <ele>242.05583190918</ele>
        <time>2020-07-10T01:21:43.833Z</time>
      </trkpt>
      <trkpt lat="39.80993737467" lon="-8.67458389141">
        <ele>242.05281066895</ele>
        <time>2020-07-10T01:21:49.446Z</time>
      </trkpt>
      <trkpt lat="39.80993737467" lon="-8.67458405904">
        <ele>242.05583190918</ele>
        <time>2020-07-10T01:21:55.059Z</time>
      </trkpt>
      <trkpt lat="39.80987914291" lon="-8.67424920831">
        <ele>237.48315429688</ele>
        <time>2020-07-10T01:22:00.677Z</time>
      </trkpt>
      <trkpt lat="39.8096036911" lon="-8.67266535759">
        <ele>223.15545654297</ele>
        <time>2020-07-10T01:22:06.320Z</time>
      </trkpt>
      <trkpt lat="39.80937838554" lon="-8.67188215256">
        <ele>213.62321472168</ele>
        <time>2020-07-10T01:22:11.976Z</time>
      </trkpt>
      <trkpt lat="39.80986118317" lon="-8.67238640785">
        <ele>211.64747619629</ele>
        <time>2020-07-10T01:22:17.645Z</time>
      </trkpt>
      <trkpt lat="39.81119155884" lon="-8.67303013802">
        <ele>187.23382568359</ele>
        <time>2020-07-10T01:22:23.342Z</time>
      </trkpt>
      <trkpt lat="39.81138467789" lon="-8.67299795151">
        <ele>183.00939941406</ele>
        <time>2020-07-10T01:22:29.043Z</time>
      </trkpt>
      <trkpt lat="39.81193184853" lon="-8.67330908775">
        <ele>173.11990356445</ele>
        <time>2020-07-10T01:22:34.756Z</time>
      </trkpt>
      <trkpt lat="39.81255412102" lon="-8.67396354675">
        <ele>175.41366577148</ele>
        <time>2020-07-10T01:22:40.485Z</time>
      </trkpt>
      <trkpt lat="39.81315501966" lon="-8.67367386818">
        <ele>168.8083190918</ele>
        <time>2020-07-10T01:22:46.227Z</time>
      </trkpt>
      <trkpt lat="39.81220006943" lon="-8.6720430851">
        <ele>169.6640625</ele>
        <time>2020-07-10T01:22:52.000Z</time>
      </trkpt>
      <trkpt lat="39.81155633926" lon="-8.67010116577">
        <ele>170.8367767334</ele>
        <time>2020-07-10T01:22:57.806Z</time>
      </trkpt>
      <trkpt lat="39.81187828816" lon="-8.66897463799">
        <ele>188.95893859863</ele>
        <time>2020-07-10T01:23:03.630Z</time>
      </trkpt>
      <trkpt lat="39.81230735779" lon="-8.66780519485">
        <ele>205.21673583984</ele>
        <time>2020-07-10T01:23:09.474Z</time>
      </trkpt>
      <trkpt lat="39.81256484985" lon="-8.66748332977">
        <ele>205.59532165527</ele>
        <time>2020-07-10T01:23:15.326Z</time>
      </trkpt>
      <trkpt lat="39.81254339218" lon="-8.6671936512">
        <ele>207.8537902832</ele>
        <time>2020-07-10T01:23:21.182Z</time>
      </trkpt>
      <trkpt lat="39.81240391731" lon="-8.66694688797">
        <ele>209.5786895752</ele>
        <time>2020-07-10T01:23:27.043Z</time>
      </trkpt>
      <trkpt lat="39.81196403503" lon="-8.66660356522">
        <ele>210.23825073242</ele>
        <time>2020-07-10T01:23:32.914Z</time>
      </trkpt>
      <trkpt lat="39.81221088208" lon="-8.66575598717">
        <ele>206.97738647461</ele>
        <time>2020-07-10T01:23:38.799Z</time>
      </trkpt>
      <trkpt lat="39.81251120567" lon="-8.66541266441">
        <ele>206.87339782715</ele>
        <time>2020-07-10T01:23:44.692Z</time>
      </trkpt>
      <trkpt lat="39.81282567499" lon="-8.66520018682">
        <ele>208.35203552246</ele>
        <time>2020-07-10T01:23:50.592Z</time>
      </trkpt>
      <trkpt lat="39.81330513954" lon="-8.66487622261">
        <ele>210.75550842285</ele>
        <time>2020-07-10T01:23:56.503Z</time>
      </trkpt>
      <trkpt lat="39.81366061606" lon="-8.66487622261">
        <ele>212.88800048828</ele>
        <time>2020-07-10T01:24:02.421Z</time>
      </trkpt>
      <trkpt lat="39.81366" lon="-8.66485">
        <ele>212.82138061523</ele>
        <time>2020-07-10T01:24:08.339Z</time>
      </trkpt>
      <trkpt lat="39.81377236646" lon="-8.66486070155">
        <ele>213.58520507812</ele>
        <time>2020-07-10T01:24:14.260Z</time>
      </trkpt>
      <trkpt lat="39.81387" lon="-8.66487">
        <ele>214.31034851074</ele>
        <time>2020-07-10T01:24:20.183Z</time>
      </trkpt>
      <trkpt lat="39.81390328875" lon="-8.66486608368">
        <ele>214.5406036377</ele>
        <time>2020-07-10T01:24:26.106Z</time>
      </trkpt>
      <trkpt lat="39.81390334642" lon="-8.6648660769">
        <ele>214.54100036621</ele>
        <time>2020-07-10T01:24:32.029Z</time>
      </trkpt>
      <trkpt lat="39.81404" lon="-8.66485">
        <ele>215.48616027832</ele>
        <time>2020-07-10T01:24:37.955Z</time>
      </trkpt>
      <trkpt lat="39.81419" lon="-8.66477">
        <ele>216.37400817871</ele>
        <time>2020-07-10T01:24:43.884Z</time>
      </trkpt>
      <trkpt lat="39.81431" lon="-8.66468">
        <ele>217.0218963623</ele>
        <time>2020-07-10T01:24:49.816Z</time>
      </trkpt>
      <trkpt lat="39.81453" lon="-8.66462">
        <ele>218.46166992188</ele>
        <time>2020-07-10T01:24:55.753Z</time>
      </trkpt>
      <trkpt lat="39.81463" lon="-8.66462">
        <ele>219.27458190918</ele>
        <time>2020-07-10T01:25:01.692Z</time>
      </trkpt>
      <trkpt lat="39.81474" lon="-8.66461">
        <ele>220.17442321777</ele>
        <time>2020-07-10T01:25:07.633Z</time>
      </trkpt>
      <trkpt lat="39.8148933878" lon="-8.66457665486">
        <ele>221.38265991211</ele>
        <time>2020-07-10T01:25:13.577Z</time>
      </trkpt>
      <trkpt lat="39.81489364083" lon="-8.66457659985">
        <ele>221.38464355469</ele>
        <time>2020-07-10T01:25:19.521Z</time>
      </trkpt>
      <trkpt lat="39.81497" lon="-8.66456">
        <ele>221.98612976074</ele>
        <time>2020-07-10T01:25:25.466Z</time>
      </trkpt>
      <trkpt lat="39.81558" lon="-8.66426">
        <ele>227.78646850586</ele>
        <time>2020-07-10T01:25:31.424Z</time>
      </trkpt>
      <trkpt lat="39.81575" lon="-8.66418">
        <ele>230.24604797363</ele>
        <time>2020-07-10T01:25:37.386Z</time>
      </trkpt>
      <trkpt lat="39.81598" lon="-8.66411">
        <ele>233.66548156738</ele>
        <time>2020-07-10T01:25:43.353Z</time>
      </trkpt>
      <trkpt lat="39.81605" lon="-8.66408">
        <ele>234.68531799316</ele>
        <time>2020-07-10T01:25:49.321Z</time>
      </trkpt>
      <trkpt lat="39.81602" lon="-8.664">
        <ele>234.02542114258</ele>
        <time>2020-07-10T01:25:55.291Z</time>
      </trkpt>
      <trkpt lat="39.81598" lon="-8.66384">
        <ele>233.01759338379</ele>
        <time>2020-07-10T01:26:01.263Z</time>
      </trkpt>
      <trkpt lat="39.81594" lon="-8.66367">
        <ele>231.9857635498</ele>
        <time>2020-07-10T01:26:07.238Z</time>
      </trkpt>
      <trkpt lat="39.81587" lon="-8.66326">
        <ele>229.26998901367</ele>
        <time>2020-07-10T01:26:13.219Z</time>
      </trkpt>
      <trkpt lat="39.81579" lon="-8.663">
        <ele>227.80484008789</ele>
        <time>2020-07-10T01:26:19.205Z</time>
      </trkpt>
      <trkpt lat="39.81578" lon="-8.6629">
        <ele>228.09280395508</ele>
        <time>2020-07-10T01:26:25.192Z</time>
      </trkpt>
      <trkpt lat="39.81584" lon="-8.66273">
        <ele>229.13662719727</ele>
        <time>2020-07-10T01:26:31.182Z</time>
      </trkpt>
      <trkpt lat="39.81592" lon="-8.66256">
        <ele>229.84466552734</ele>
        <time>2020-07-10T01:26:37.175Z</time>
      </trkpt>
      <trkpt lat="39.816" lon="-8.66233">
        <ele>230.42056274414</ele>
        <time>2020-07-10T01:26:43.172Z</time>
      </trkpt>
      <trkpt lat="39.81605" lon="-8.66203">
        <ele>230.78050231934</ele>
        <time>2020-07-10T01:26:49.174Z</time>
      </trkpt>
      <trkpt lat="39.81609" lon="-8.66192">
        <ele>230.98541259766</ele>
        <time>2020-07-10T01:26:55.178Z</time>
      </trkpt>
      <trkpt lat="39.81609" lon="-8.66183">
        <ele>230.91320800781</ele>
        <time>2020-07-10T01:27:01.183Z</time>
      </trkpt>
      <trkpt lat="39.81606" lon="-8.66168">
        <ele>230.66123962402</ele>
        <time>2020-07-10T01:27:07.190Z</time>
      </trkpt>
      <trkpt lat="39.81588" lon="-8.66138">
        <ele>229.14949035645</ele>
        <time>2020-07-10T01:27:13.203Z</time>
      </trkpt>
      <trkpt lat="39.81527" lon="-8.66046">
        <ele>224.46617126465</ele>
        <time>2020-07-10T01:27:19.235Z</time>
      </trkpt>
      <trkpt lat="39.81522" lon="-8.66037">
        <ele>224.35818481445</ele>
        <time>2020-07-10T01:27:25.269Z</time>
      </trkpt>
      <trkpt lat="39.81505" lon="-8.65964">
        <ele>228.24031066895</ele>
        <time>2020-07-10T01:27:31.315Z</time>
      </trkpt>
      <trkpt lat="39.81512" lon="-8.6596">
        <ele>228.66024780273</ele>
        <time>2020-07-10T01:27:37.362Z</time>
      </trkpt>
      <trkpt lat="39.81521" lon="-8.65949">
        <ele>229.69207763672</ele>
        <time>2020-07-10T01:27:43.412Z</time>
      </trkpt>
      <trkpt lat="39.81529" lon="-8.65933">
        <ele>230.8849029541</ele>
        <time>2020-07-10T01:27:49.464Z</time>
      </trkpt>
      <trkpt lat="39.81533" lon="-8.65918">
        <ele>230.9328918457</ele>
        <time>2020-07-10T01:27:55.519Z</time>
      </trkpt>
      <trkpt lat="39.81534" lon="-8.65902">
        <ele>230.9449005127</ele>
        <time>2020-07-10T01:28:01.576Z</time>
      </trkpt>
      <trkpt lat="39.81533" lon="-8.65893">
        <ele>230.9328918457</ele>
        <time>2020-07-10T01:28:07.635Z</time>
      </trkpt>
      <trkpt lat="39.81523" lon="-8.65851">
        <ele>232.01187133789</ele>
        <time>2020-07-10T01:28:13.701Z</time>
      </trkpt>
      <trkpt lat="39.81506" lon="-8.65811">
        <ele>234.95138549805</ele>
        <time>2020-07-10T01:28:19.774Z</time>
      </trkpt>
      <trkpt lat="39.81493" lon="-8.65797">
        <ele>236.40313720703</ele>
        <time>2020-07-10T01:28:25.850Z</time>
      </trkpt>
      <trkpt lat="39.81478" lon="-8.65778">
        <ele>238.21484375</ele>
        <time>2020-07-10T01:28:31.930Z</time>
      </trkpt>
      <trkpt lat="39.81468434497" lon="-8.65771878063">
        <ele>239.08247375488</ele>
        <time>2020-07-10T01:28:38.012Z</time>
      </trkpt>
      <trkpt lat="39.81453" lon="-8.65762">
        <ele>240.08692932129</ele>
        <time>2020-07-10T01:28:44.098Z</time>
      </trkpt>
      <trkpt lat="39.81446" lon="-8.65756">
        <ele>240.15892028809</ele>
        <time>2020-07-10T01:28:50.185Z</time>
      </trkpt>
      <trkpt lat="39.81439" lon="-8.65746">
        <ele>240.27890014648</ele>
        <time>2020-07-10T01:28:56.274Z</time>
      </trkpt>
      <trkpt lat="39.81429" lon="-8.65719">
        <ele>240.60284423828</ele>
        <time>2020-07-10T01:29:02.368Z</time>
      </trkpt>
      <trkpt lat="39.81426" lon="-8.65704">
        <ele>240.64910888672</ele>
        <time>2020-07-10T01:29:08.464Z</time>
      </trkpt>
      <trkpt lat="39.81422" lon="-8.65687">
        <ele>240.60111999512</ele>
        <time>2020-07-10T01:29:14.563Z</time>
      </trkpt>
      <trkpt lat="39.81419" lon="-8.65682">
        <ele>240.70544433594</ele>
        <time>2020-07-10T01:29:20.663Z</time>
      </trkpt>
      <trkpt lat="39.81416285969" lon="-8.65683554672">
        <ele>240.61692810059</ele>
        <time>2020-07-10T01:29:26.764Z</time>
      </trkpt>
      <trkpt lat="39.81425667776" lon="-8.65711394137">
        <ele>240.64512634277</ele>
        <time>2020-07-10T01:29:32.869Z</time>
      </trkpt>
      <trkpt lat="39.81439948082" lon="-8.65753769875">
        <ele>240.1856842041</ele>
        <time>2020-07-10T01:29:38.982Z</time>
      </trkpt>
      <trkpt lat="39.81474280357" lon="-8.65779519081">
        <ele>238.36508178711</ele>
        <time>2020-07-10T01:29:45.103Z</time>
      </trkpt>
      <trkpt lat="39.81492519379" lon="-8.65802049637">
        <ele>236.18963623047</ele>
        <time>2020-07-10T01:29:51.229Z</time>
      </trkpt>
      <trkpt lat="39.81501110829" lon="-8.65802049637">
        <ele>235.67422485352</ele>
        <time>2020-07-10T01:29:57.356Z</time>
      </trkpt>
      <trkpt lat="39.81511831284" lon="-8.65780591965">
        <ele>236.06089782715</ele>
        <time>2020-07-10T01:30:03.487Z</time>
      </trkpt>
      <trkpt lat="39.81534361839" lon="-8.65767717361">
        <ele>235.25382995605</ele>
        <time>2020-07-10T01:30:09.623Z</time>
      </trkpt>
      <trkpt lat="39.81595516205" lon="-8.65783810616">
        <ele>230.88616943359</ele>
        <time>2020-07-10T01:30:15.772Z</time>
      </trkpt>
      <trkpt lat="39.81609463692" lon="-8.65739822388">
        <ele>229.33638000488</ele>
        <time>2020-07-10T01:30:21.928Z</time>
      </trkpt>
      <trkpt lat="39.81607534707" lon="-8.65719085553">
        <ele>228.45690917969</ele>
        <time>2020-07-10T01:30:28.087Z</time>
      </trkpt>
      <trkpt lat="39.81605172157" lon="-8.65693688393">
        <ele>227.81065368652</ele>
        <time>2020-07-10T01:30:34.250Z</time>
      </trkpt>
      <trkpt lat="39.81612682343" lon="-8.65648627281">
        <ele>226.55250549316</ele>
        <time>2020-07-10T01:30:40.420Z</time>
      </trkpt>
      <trkpt lat="39.81636151671" lon="-8.65616122261">
        <ele>223.62825012207</ele>
        <time>2020-07-10T01:30:46.597Z</time>
      </trkpt>
      <trkpt lat="39.81636151671" lon="-8.65616130643">
        <ele>223.6283416748</ele>
        <time>2020-07-10T01:30:52.774Z</time>
      </trkpt>
      <trkpt lat="39.81636151671" lon="-8.65616122261">
        <ele>223.62825012207</ele>
        <time>2020-07-10T01:30:58.951Z</time>
      </trkpt>
      <trkpt lat="39.81640577316" lon="-8.65610003471">
        <ele>223.07695007324</ele>
        <time>2020-07-10T01:31:05.129Z</time>
      </trkpt>
      <trkpt lat="39.81657743454" lon="-8.65610003471">
        <ele>221.22331237793</ele>
        <time>2020-07-10T01:31:11.311Z</time>
      </trkpt>
      <trkpt lat="39.81659485279" lon="-8.65607311566">
        <ele>221.0029296875</ele>
        <time>2020-07-10T01:31:17.493Z</time>
      </trkpt>
      <trkpt lat="39.81669545174" lon="-8.6559176445">
        <ele>220.11836242676</ele>
        <time>2020-07-10T01:31:23.678Z</time>
      </trkpt>
      <trkpt lat="39.81685638428" lon="-8.65535974503">
        <ele>219.68478393555</ele>
        <time>2020-07-10T01:31:29.873Z</time>
      </trkpt>
      <trkpt lat="39.81713533401" lon="-8.65528464317">
        <ele>216.78843688965</ele>
        <time>2020-07-10T01:31:36.073Z</time>
      </trkpt>
      <trkpt lat="39.8172211647" lon="-8.65534901619">
        <ele>215.60417175293</ele>
        <time>2020-07-10T01:31:42.275Z</time>
      </trkpt>
      <trkpt lat="39.81758594513" lon="-8.65530610085">
        <ele>211.33052062988</ele>
        <time>2020-07-10T01:31:48.485Z</time>
      </trkpt>
      <trkpt lat="39.81818675995" lon="-8.65437269211">
        <ele>208.88479614258</ele>
        <time>2020-07-10T01:31:54.713Z</time>
      </trkpt>
      <trkpt lat="39.8187661171" lon="-8.6539542675">
        <ele>210.07711791992</ele>
        <time>2020-07-10T01:32:00.955Z</time>
      </trkpt>
      <trkpt lat="39.81931328773" lon="-8.6536860466">
        <ele>213.97747802734</ele>
        <time>2020-07-10T01:32:07.208Z</time>
      </trkpt>
      <trkpt lat="39.8195064906" lon="-8.65322470665">
        <ele>214.3899230957</ele>
        <time>2020-07-10T01:32:13.469Z</time>
      </trkpt>
      <trkpt lat="39.82072949409" lon="-8.65236639977">
        <ele>222.9624786377</ele>
        <time>2020-07-10T01:32:19.758Z</time>
      </trkpt>
      <trkpt lat="39.82097625732" lon="-8.65196943283">
        <ele>224.63250732422</ele>
        <time>2020-07-10T01:32:26.055Z</time>
      </trkpt>
      <trkpt lat="39.8210299015" lon="-8.65113258362">
        <ele>226.11196899414</ele>
        <time>2020-07-10T01:32:32.365Z</time>
      </trkpt>
      <trkpt lat="39.82109435834" lon="-8.65099310875">
        <ele>227.13171386719</ele>
        <time>2020-07-10T01:32:38.678Z</time>
      </trkpt>
      <trkpt lat="39.82124456204" lon="-8.6511862278">
        <ele>227.77699279785</ele>
        <time>2020-07-10T01:32:44.995Z</time>
      </trkpt>
      <trkpt lat="39.82203841209" lon="-8.65223765373">
        <ele>237.98541259766</ele>
        <time>2020-07-10T01:32:51.334Z</time>
      </trkpt>
      <trkpt lat="39.82260712422" lon="-8.65367531776">
        <ele>244.76280212402</ele>
        <time>2020-07-10T01:32:57.698Z</time>
      </trkpt>
      <trkpt lat="39.82312202454" lon="-8.65414738655">
        <ele>245.73527526855</ele>
        <time>2020-07-10T01:33:04.075Z</time>
      </trkpt>
      <trkpt lat="39.82336878777" lon="-8.65392208099">
        <ele>244.34504699707</ele>
        <time>2020-07-10T01:33:10.458Z</time>
      </trkpt>
      <trkpt lat="39.82358336449" lon="-8.65384697914">
        <ele>245.31047058105</ele>
        <time>2020-07-10T01:33:16.845Z</time>
      </trkpt>
      <trkpt lat="39.82361592535" lon="-8.65384261905">
        <ele>245.58360290527</ele>
        <time>2020-07-10T01:33:23.233Z</time>
      </trkpt>
      <trkpt lat="39.82450788841" lon="-8.65372317843">
        <ele>242.60865783691</ele>
        <time>2020-07-10T01:33:29.639Z</time>
      </trkpt>
      <trkpt lat="39.82450797223" lon="-8.65372317843">
        <ele>242.60925292969</ele>
        <time>2020-07-10T01:33:36.045Z</time>
      </trkpt>
      <trkpt lat="39.82450788841" lon="-8.65372317843">
        <ele>242.60865783691</ele>
        <time>2020-07-10T01:33:42.451Z</time>
      </trkpt>
      <trkpt lat="39.82476931048" lon="-8.65368811578">
        <ele>240.85707092285</ele>
        <time>2020-07-10T01:33:48.862Z</time>
      </trkpt>
      <trkpt lat="39.82476975793" lon="-8.65368805577">
        <ele>240.85311889648</ele>
        <time>2020-07-10T01:33:55.273Z</time>
      </trkpt>
      <trkpt lat="39.82654452324" lon="-8.65345001221">
        <ele>227.48448181152</ele>
        <time>2020-07-10T01:34:01.720Z</time>
      </trkpt>
      <trkpt lat="39.82681274414" lon="-8.6535358429">
        <ele>228.16690063477</ele>
        <time>2020-07-10T01:34:08.172Z</time>
      </trkpt>
      <trkpt lat="39.82740283012" lon="-8.65391135216">
        <ele>229.81825256348</ele>
        <time>2020-07-10T01:34:14.638Z</time>
      </trkpt>
      <trkpt lat="39.82826122083" lon="-8.65392208099">
        <ele>218.66680908203</ele>
        <time>2020-07-10T01:34:21.121Z</time>
      </trkpt>
      <trkpt lat="39.82930183411" lon="-8.65481257439">
        <ele>224.11935424805</ele>
        <time>2020-07-10T01:34:27.629Z</time>
      </trkpt>
      <trkpt lat="39.82968815602" lon="-8.65541338921">
        <ele>229.01417541504</ele>
        <time>2020-07-10T01:34:34.149Z</time>
      </trkpt>
      <trkpt lat="39.82974171638" lon="-8.65585327148">
        <ele>235.22715759277</ele>
        <time>2020-07-10T01:34:40.676Z</time>
      </trkpt>
      <trkpt lat="39.82952713966" lon="-8.65689396858">
        <ele>246.31230163574</ele>
        <time>2020-07-10T01:34:47.219Z</time>
      </trkpt>
      <trkpt lat="39.82954859734" lon="-8.65723729134">
        <ele>249.29872131348</ele>
        <time>2020-07-10T01:34:53.767Z</time>
      </trkpt>
      <trkpt lat="39.82977390289" lon="-8.6580312252">
        <ele>255.63108825684</ele>
        <time>2020-07-10T01:35:00.328Z</time>
      </trkpt>
      <trkpt lat="39.8299001629" lon="-8.65828648699">
        <ele>257.01528930664</ele>
        <time>2020-07-10T01:35:06.894Z</time>
      </trkpt>
      <trkpt lat="39.83026742935" lon="-8.65902900696">
        <ele>254.46481323242</ele>
        <time>2020-07-10T01:35:13.474Z</time>
      </trkpt>
      <trkpt lat="39.8303103447" lon="-8.65925431252">
        <ele>256.17684936523</ele>
        <time>2020-07-10T01:35:20.057Z</time>
      </trkpt>
      <trkpt lat="39.83033959754" lon="-8.65922405384">
        <ele>255.35874938965</ele>
        <time>2020-07-10T01:35:26.641Z</time>
      </trkpt>
      <trkpt lat="39.83033959754" lon="-8.65922413766">
        <ele>255.3596496582</ele>
        <time>2020-07-10T01:35:33.225Z</time>
      </trkpt>
      <trkpt lat="39.83033959754" lon="-8.65922405384">
        <ele>255.35874938965</ele>
        <time>2020-07-10T01:35:39.809Z</time>
      </trkpt>
      <trkpt lat="39.83054559025" lon="-8.65901168443">
        <ele>249.41687011719</ele>
        <time>2020-07-10T01:35:46.398Z</time>
      </trkpt>
      <trkpt lat="39.83054563606" lon="-8.6590116372">
        <ele>249.41554260254</ele>
        <time>2020-07-10T01:35:52.987Z</time>
      </trkpt>
      <trkpt lat="39.83065366745" lon="-8.65890026093">
        <ele>246.26863098145</ele>
        <time>2020-07-10T01:35:59.579Z</time>
      </trkpt>
      <trkpt lat="39.83105063438" lon="-8.65905046463">
        <ele>241.1701965332</ele>
        <time>2020-07-10T01:36:06.179Z</time>
      </trkpt>
      <trkpt lat="39.83144760132" lon="-8.65995168686">
        <ele>244.06292724609</ele>
        <time>2020-07-10T01:36:12.795Z</time>
      </trkpt>
      <trkpt lat="39.83186602592" lon="-8.66025209427">
        <ele>237.01820373535</ele>
        <time>2020-07-10T01:36:19.421Z</time>
      </trkpt>
      <trkpt lat="39.83272433281" lon="-8.66113185883">
        <ele>220.96266174316</ele>
        <time>2020-07-10T01:36:26.069Z</time>
      </trkpt>
      <trkpt lat="39.83284235001" lon="-8.66104602814">
        <ele>218.15646362305</ele>
        <time>2020-07-10T01:36:32.719Z</time>
      </trkpt>
      <trkpt lat="39.83306765556" lon="-8.66046667099">
        <ele>209.32392883301</ele>
        <time>2020-07-10T01:36:39.379Z</time>
      </trkpt>
      <trkpt lat="39.83345389366" lon="-8.65995168686">
        <ele>199.18559265137</ele>
        <time>2020-07-10T01:36:46.051Z</time>
      </trkpt>
      <trkpt lat="39.83379721642" lon="-8.65925431252">
        <ele>191.93907165527</ele>
        <time>2020-07-10T01:36:52.735Z</time>
      </trkpt>
      <trkpt lat="39.83402252197" lon="-8.65898609161">
        <ele>188.86254882812</ele>
        <time>2020-07-10T01:36:59.425Z</time>
      </trkpt>
      <trkpt lat="39.8342692852" lon="-8.6589217186">
        <ele>186.17460632324</ele>
        <time>2020-07-10T01:37:06.120Z</time>
      </trkpt>
      <trkpt lat="39.83441948891" lon="-8.65938305855">
        <ele>186.33666992188</ele>
        <time>2020-07-10T01:37:12.823Z</time>
      </trkpt>
      <trkpt lat="39.83459115028" lon="-8.65947961807">
        <ele>186.32359313965</ele>
        <time>2020-07-10T01:37:19.530Z</time>
      </trkpt>
      <trkpt lat="39.83476281166" lon="-8.65942597389">
        <ele>186.63252258301</ele>
        <time>2020-07-10T01:37:26.240Z</time>
      </trkpt>
      <trkpt lat="39.83513832092" lon="-8.65910410881">
        <ele>185.95788574219</ele>
        <time>2020-07-10T01:37:32.959Z</time>
      </trkpt>
      <trkpt lat="39.83513840474" lon="-8.65910410881">
        <ele>185.9582824707</ele>
        <time>2020-07-10T01:37:39.678Z</time>
      </trkpt>
      <trkpt lat="39.83550310135" lon="-8.65866422653">
        <ele>187.13697814941</ele>
        <time>2020-07-10T01:37:46.407Z</time>
      </trkpt>
      <trkpt lat="39.83559966087" lon="-8.65833163261">
        <ele>185.77548217773</ele>
        <time>2020-07-10T01:37:53.142Z</time>
      </trkpt>
      <trkpt lat="39.83566403389" lon="-8.6577630043">
        <ele>180.43981933594</ele>
        <time>2020-07-10T01:37:59.886Z</time>
      </trkpt>
      <trkpt lat="39.83610391617" lon="-8.65696907043">
        <ele>180.65409851074</ele>
        <time>2020-07-10T01:38:06.645Z</time>
      </trkpt>
      <trkpt lat="39.83670473099" lon="-8.65602493286">
        <ele>180.51370239258</ele>
        <time>2020-07-10T01:38:13.423Z</time>
      </trkpt>
      <trkpt lat="39.83744502068" lon="-8.65555286407">
        <ele>185.396484375</ele>
        <time>2020-07-10T01:38:20.217Z</time>
      </trkpt>
      <trkpt lat="39.83813175" lon="-8.65500569344">
        <ele>186.89215087891</ele>
        <time>2020-07-10T01:38:27.027Z</time>
      </trkpt>
      <trkpt lat="39.8385179881" lon="-8.65498423576">
        <ele>191.29452514648</ele>
        <time>2020-07-10T01:38:33.845Z</time>
      </trkpt>
      <trkpt lat="39.83860373497" lon="-8.65446925163">
        <ele>186.75193786621</ele>
        <time>2020-07-10T01:38:40.671Z</time>
      </trkpt>
      <trkpt lat="39.83860373497" lon="-8.65379333496">
        <ele>181.35494995117</ele>
        <time>2020-07-10T01:38:47.507Z</time>
      </trkpt>
      <trkpt lat="39.83894705772" lon="-8.65302085876">
        <ele>178.84439086914</ele>
        <time>2020-07-10T01:38:54.357Z</time>
      </trkpt>
      <trkpt lat="39.83929038048" lon="-8.6526453495">
        <ele>181.20889282227</ele>
        <time>2020-07-10T01:39:01.216Z</time>
      </trkpt>
      <trkpt lat="39.83971254655" lon="-8.65241383997">
        <ele>183.10607910156</ele>
        <time>2020-07-10T01:39:08.084Z</time>
      </trkpt>
      <trkpt lat="39.83995556831" lon="-8.65228056908">
        <ele>180.15266418457</ele>
        <time>2020-07-10T01:39:14.958Z</time>
      </trkpt>
      <trkpt lat="39.84058856964" lon="-8.65231275558">
        <ele>181.44934082031</ele>
        <time>2020-07-10T01:39:21.844Z</time>
      </trkpt>
      <trkpt lat="39.84082854261" lon="-8.65245232988">
        <ele>181.55798339844</ele>
        <time>2020-07-10T01:39:28.736Z</time>
      </trkpt>
      <trkpt lat="39.84082880411" lon="-8.65245248197">
        <ele>181.55810546875</ele>
        <time>2020-07-10T01:39:35.628Z</time>
      </trkpt>
      <trkpt lat="39.84163999557" lon="-8.65292429924">
        <ele>181.14682006836</ele>
        <time>2020-07-10T01:39:42.537Z</time>
      </trkpt>
      <trkpt lat="39.84211206436" lon="-8.65366458893">
        <ele>186.9525604248</ele>
        <time>2020-07-10T01:39:49.461Z</time>
      </trkpt>
      <trkpt lat="39.84260559082" lon="-8.65406155586">
        <ele>179.83699035645</ele>
        <time>2020-07-10T01:39:56.397Z</time>
      </trkpt>
      <trkpt lat="39.84274506569" lon="-8.65431904793">
        <ele>181.17572021484</ele>
        <time>2020-07-10T01:40:03.338Z</time>
      </trkpt>
      <trkpt lat="39.84275579453" lon="-8.65465164185">
        <ele>180.88291931152</ele>
        <time>2020-07-10T01:40:10.284Z</time>
      </trkpt>
      <trkpt lat="39.84260559082" lon="-8.65516662598">
        <ele>182.53059387207</ele>
        <time>2020-07-10T01:40:17.238Z</time>
      </trkpt>
      <trkpt lat="39.84272360802" lon="-8.65533828735">
        <ele>179.50218200684</ele>
        <time>2020-07-10T01:40:24.196Z</time>
      </trkpt>
      <trkpt lat="39.84297037125" lon="-8.6555314064">
        <ele>174.24546813965</ele>
        <time>2020-07-10T01:40:31.159Z</time>
      </trkpt>
      <trkpt lat="39.84338879585" lon="-8.65546703339">
        <ele>166.44476318359</ele>
        <time>2020-07-10T01:40:38.131Z</time>
      </trkpt>
      <trkpt lat="39.84407544136" lon="-8.65550994873">
        <ele>158.2686920166</ele>
        <time>2020-07-10T01:40:45.117Z</time>
      </trkpt>
      <trkpt lat="39.84441884793" lon="-8.65567088127">
        <ele>153.06907653809</ele>
        <time>2020-07-10T01:40:52.110Z</time>
      </trkpt>
      <trkpt lat="39.84484791756" lon="-8.65570306778">
        <ele>147.47668457031</ele>
        <time>2020-07-10T01:40:59.112Z</time>
      </trkpt>
      <trkpt lat="39.84509476461" lon="-8.65581035614">
        <ele>144.93991088867</ele>
        <time>2020-07-10T01:41:06.119Z</time>
      </trkpt>
      <trkpt lat="39.84530925751" lon="-8.65611076355">
        <ele>142.48136901855</ele>
        <time>2020-07-10T01:41:13.132Z</time>
      </trkpt>
      <trkpt lat="39.84547019005" lon="-8.65644335747">
        <ele>140.7120513916</ele>
        <time>2020-07-10T01:41:20.151Z</time>
      </trkpt>
      <trkpt lat="39.8457170371" lon="-8.65726947784">
        <ele>141.78126525879</ele>
        <time>2020-07-10T01:41:27.184Z</time>
      </trkpt>
      <trkpt lat="39.84571695328" lon="-8.65726947784">
        <ele>141.78157043457</ele>
        <time>2020-07-10T01:41:34.217Z</time>
      </trkpt>
      <trkpt lat="39.84587788582" lon="-8.65780591965">
        <ele>140.42977905273</ele>
        <time>2020-07-10T01:41:41.259Z</time>
      </trkpt>
      <trkpt lat="39.84609246254" lon="-8.65802049637">
        <ele>138.84074401855</ele>
        <time>2020-07-10T01:41:48.306Z</time>
      </trkpt>
      <trkpt lat="39.84685429372" lon="-8.6577630043">
        <ele>135.58282470703</ele>
        <time>2020-07-10T01:41:55.369Z</time>
      </trkpt>
      <trkpt lat="39.84682202339" lon="-8.65789175034">
        <ele>136.23942565918</ele>
        <time>2020-07-10T01:42:02.434Z</time>
      </trkpt>
      <trkpt lat="39.84662890434" lon="-8.65827798843">
        <ele>138.51260375977</ele>
        <time>2020-07-10T01:42:09.506Z</time>
      </trkpt>
      <trkpt lat="39.84704741277" lon="-8.65903973579">
        <ele>141.27058410645</ele>
        <time>2020-07-10T01:42:16.592Z</time>
      </trkpt>
      <trkpt lat="39.84686493874" lon="-8.65923285484">
        <ele>142.39079284668</ele>
        <time>2020-07-10T01:42:23.683Z</time>
      </trkpt>
      <trkpt lat="39.84716534615" lon="-8.65985512733">
        <ele>142.33688354492</ele>
        <time>2020-07-10T01:42:30.785Z</time>
      </trkpt>
      <trkpt lat="39.84793782234" lon="-8.6593401432">
        <ele>139.69407653809</ele>
        <time>2020-07-10T01:42:37.905Z</time>
      </trkpt>
      <trkpt lat="39.84786272049" lon="-8.65973711014">
        <ele>140.10304260254</ele>
        <time>2020-07-10T01:42:45.031Z</time>
      </trkpt>
      <trkpt lat="39.84793976957" lon="-8.65976673977">
        <ele>139.82571411133</ele>
        <time>2020-07-10T01:42:52.159Z</time>
      </trkpt>
      <trkpt lat="39.84879973345" lon="-8.66009744816">
        <ele>137.52598571777</ele>
        <time>2020-07-10T01:42:59.305Z</time>
      </trkpt>
      <trkpt lat="39.84879981726" lon="-8.66009744816">
        <ele>137.52557373047</ele>
        <time>2020-07-10T01:43:06.451Z</time>
      </trkpt>
      <trkpt lat="39.84879973345" lon="-8.66009744816">
        <ele>137.52598571777</ele>
        <time>2020-07-10T01:43:13.597Z</time>
      </trkpt>
      <trkpt lat="39.84905159859" lon="-8.66019433328">
        <ele>137.60968017578</ele>
        <time>2020-07-10T01:43:20.748Z</time>
      </trkpt>
      <trkpt lat="39.8490519583" lon="-8.66019447165">
        <ele>137.60942077637</ele>
        <time>2020-07-10T01:43:27.899Z</time>
      </trkpt>
      <trkpt lat="39.84967589378" lon="-8.66043448448">
        <ele>136.71780395508</ele>
        <time>2020-07-10T01:43:35.063Z</time>
      </trkpt>
      <trkpt lat="39.85005148686" lon="-8.65976929665">
        <ele>130.73445129395</ele>
        <time>2020-07-10T01:43:42.240Z</time>
      </trkpt>
      <trkpt lat="39.85075950623" lon="-8.66013407707">
        <ele>130.0414276123</ele>
        <time>2020-07-10T01:43:49.432Z</time>
      </trkpt>
      <trkpt lat="39.85136032104" lon="-8.66030573845">
        <ele>124.65219116211</ele>
        <time>2020-07-10T01:43:56.636Z</time>
      </trkpt>
      <trkpt lat="39.85181093216" lon="-8.66067051888">
        <ele>120.87124633789</ele>
        <time>2020-07-10T01:44:03.851Z</time>
      </trkpt>
      <trkpt lat="39.85204705037" lon="-8.66062760353">
        <ele>116.90532684326</ele>
        <time>2020-07-10T01:44:11.070Z</time>
      </trkpt>
      <trkpt lat="39.85235818662" lon="-8.66086363792">
        <ele>117.82120513916</ele>
        <time>2020-07-10T01:44:18.297Z</time>
      </trkpt>
      <trkpt lat="39.8523581028" lon="-8.66086363792">
        <ele>117.82221221924</ele>
        <time>2020-07-10T01:44:25.524Z</time>
      </trkpt>
      <trkpt lat="39.85294818878" lon="-8.66127133369">
        <ele>112.9069519043</ele>
        <time>2020-07-10T01:44:32.764Z</time>
      </trkpt>
      <trkpt lat="39.85359191895" lon="-8.66079926491">
        <ele>108.36936187744</ele>
        <time>2020-07-10T01:44:40.019Z</time>
      </trkpt>
      <trkpt lat="39.85486865044" lon="-8.66101384163">
        <ele>104.8558883667</ele>
        <time>2020-07-10T01:44:47.299Z</time>
      </trkpt>
      <trkpt lat="39.85639214516" lon="-8.66235494614">
        <ele>100.8081741333</ele>
        <time>2020-07-10T01:44:54.616Z</time>
      </trkpt>
      <trkpt lat="39.85731482506" lon="-8.6628806591">
        <ele>100.69371032715</ele>
        <time>2020-07-10T01:45:01.953Z</time>
      </trkpt>
      <trkpt lat="39.85757231712" lon="-8.66313815117">
        <ele>100.53374481201</ele>
        <time>2020-07-10T01:45:09.297Z</time>
      </trkpt>
      <trkpt lat="39.85837697983" lon="-8.66367459297">
        <ele>100.0160446167</ele>
        <time>2020-07-10T01:45:16.659Z</time>
      </trkpt>
      <trkpt lat="39.8587846756" lon="-8.6640393734">
        <ele>98.93018341064</ele>
        <time>2020-07-10T01:45:24.031Z</time>
      </trkpt>
      <trkpt lat="39.86034035683" lon="-8.66500496864">
        <ele>97.06367492676</ele>
        <time>2020-07-10T01:45:31.437Z</time>
      </trkpt>
      <trkpt lat="39.86070513725" lon="-8.66533756256">
        <ele>96.97121429443</ele>
        <time>2020-07-10T01:45:38.852Z</time>
      </trkpt>
      <trkpt lat="39.86170300283" lon="-8.66593837738">
        <ele>96.89345550537</ele>
        <time>2020-07-10T01:45:46.289Z</time>
      </trkpt>
      <trkpt lat="39.86225008965" lon="-8.66495132446">
        <ele>95.60794830322</ele>
        <time>2020-07-10T01:45:53.745Z</time>
      </trkpt>
      <trkpt lat="39.86282944679" lon="-8.66415739059">
        <ele>94.4751739502</ele>
        <time>2020-07-10T01:46:01.218Z</time>
      </trkpt>
      <trkpt lat="39.86296892166" lon="-8.66368532181">
        <ele>94.8998336792</ele>
        <time>2020-07-10T01:46:08.699Z</time>
      </trkpt>
      <trkpt lat="39.86296900548" lon="-8.66368532181">
        <ele>94.89993286133</ele>
        <time>2020-07-10T01:46:16.180Z</time>
      </trkpt>
      <trkpt lat="39.86309775151" lon="-8.66298794746">
        <ele>95.80364990234</ele>
        <time>2020-07-10T01:46:23.672Z</time>
      </trkpt>
      <trkpt lat="39.86302256584" lon="-8.66179704666">
        <ele>97.68731689453</ele>
        <time>2020-07-10T01:46:31.182Z</time>
      </trkpt>
      <trkpt lat="39.86284017563" lon="-8.66034865379">
        <ele>97.12251281738</ele>
        <time>2020-07-10T01:46:38.715Z</time>
      </trkpt>
      <trkpt lat="39.86266851425" lon="-8.65976929665">
        <ele>97.50820922852</ele>
        <time>2020-07-10T01:46:46.257Z</time>
      </trkpt>
      <trkpt lat="39.86257195473" lon="-8.65900754929">
        <ele>99.68860626221</ele>
        <time>2020-07-10T01:46:53.811Z</time>
      </trkpt>
      <trkpt lat="39.86441731453" lon="-8.65914702415">
        <ele>97.61833953857</ele>
        <time>2020-07-10T01:47:01.402Z</time>
      </trkpt>
      <trkpt lat="39.86687430181" lon="-8.65891098976">
        <ele>95.91426849365</ele>
        <time>2020-07-10T01:47:09.042Z</time>
      </trkpt>
      <trkpt lat="39.86687421799" lon="-8.65891098976">
        <ele>95.91436767578</ele>
        <time>2020-07-10T01:47:16.682Z</time>
      </trkpt>
      <trkpt lat="39.86994274892" lon="-8.65850329399">
        <ele>95.32987213135</ele>
        <time>2020-07-10T01:47:24.384Z</time>
      </trkpt>
      <trkpt lat="39.87033971585" lon="-8.65862131119">
        <ele>93.78957366943</ele>
        <time>2020-07-10T01:47:32.094Z</time>
      </trkpt>
      <trkpt lat="39.8709833622" lon="-8.65911483765">
        <ele>90.76210784912</ele>
        <time>2020-07-10T01:47:39.819Z</time>
      </trkpt>
      <trkpt lat="39.87134814262" lon="-8.65929722786">
        <ele>89.07459259033</ele>
        <time>2020-07-10T01:47:47.552Z</time>
      </trkpt>
      <trkpt lat="39.87167000771" lon="-8.65928649902">
        <ele>89.0874710083</ele>
        <time>2020-07-10T01:47:55.291Z</time>
      </trkpt>
      <trkpt lat="39.87223871984" lon="-8.65913629532">
        <ele>88.84372711182</ele>
        <time>2020-07-10T01:48:03.042Z</time>
      </trkpt>
      <trkpt lat="39.87223863602" lon="-8.65913629532">
        <ele>88.84392547607</ele>
        <time>2020-07-10T01:48:10.793Z</time>
      </trkpt>
      <trkpt lat="39.87286090851" lon="-8.65893244743">
        <ele>87.59529876709</ele>
        <time>2020-07-10T01:48:18.557Z</time>
      </trkpt>
      <trkpt lat="39.87380504608" lon="-8.65812778473">
        <ele>88.34181976318</ele>
        <time>2020-07-10T01:48:26.343Z</time>
      </trkpt>
      <trkpt lat="39.87435221672" lon="-8.65781664848">
        <ele>88.80522918701</ele>
        <time>2020-07-10T01:48:34.141Z</time>
      </trkpt>
      <trkpt lat="39.87466335297" lon="-8.65772008896">
        <ele>88.90054321289</ele>
        <time>2020-07-10T01:48:41.946Z</time>
      </trkpt>
      <trkpt lat="39.87499594688" lon="-8.65781664848">
        <ele>88.55298614502</ele>
        <time>2020-07-10T01:48:49.757Z</time>
      </trkpt>
      <trkpt lat="39.87582206726" lon="-8.65844964981">
        <ele>86.67176055908</ele>
        <time>2020-07-10T01:48:57.588Z</time>
      </trkpt>
      <trkpt lat="39.87603664398" lon="-8.65851402283">
        <ele>86.25984191895</ele>
        <time>2020-07-10T01:49:05.423Z</time>
      </trkpt>
      <trkpt lat="39.87607955933" lon="-8.65770936012">
        <ele>88.13922119141</ele>
        <time>2020-07-10T01:49:13.270Z</time>
      </trkpt>
      <trkpt lat="39.87566113472" lon="-8.65705490112">
        <ele>89.0</ele>
        <time>2020-07-10T01:49:21.131Z</time>
      </trkpt>
      <trkpt lat="39.87566113472" lon="-8.65687251091">
        <ele>89.0</ele>
        <time>2020-07-10T01:49:28.994Z</time>
      </trkpt>
      <trkpt lat="39.87634965467" lon="-8.65634549726">
        <ele>89.18324279785</ele>
        <time>2020-07-10T01:49:36.873Z</time>
      </trkpt>
      <trkpt lat="39.87653017044" lon="-8.65620732307">
        <ele>88.69927978516</ele>
        <time>2020-07-10T01:49:44.756Z</time>
      </trkpt>
      <trkpt lat="39.8770708032" lon="-8.65565512329">
        <ele>87.43488311768</ele>
        <time>2020-07-10T01:49:52.653Z</time>
      </trkpt>
      <trkpt lat="39.87707088701" lon="-8.65565503947">
        <ele>87.43488311768</ele>
        <time>2020-07-10T01:50:00.550Z</time>
      </trkpt>
      <trkpt lat="39.8772775498" lon="-8.65544400823">
        <ele>87.44012451172</ele>
        <time>2020-07-10T01:50:08.453Z</time>
      </trkpt>
      <trkpt lat="39.87727759785" lon="-8.65544395916">
        <ele>87.44012451172</ele>
        <time>2020-07-10T01:50:16.356Z</time>
      </trkpt>
      <trkpt lat="39.87753868103" lon="-8.65517735481">
        <ele>87.4291305542</ele>
        <time>2020-07-10T01:50:24.265Z</time>
      </trkpt>
      <trkpt lat="39.87944841385" lon="-8.65263462067">
        <ele>85.41349029541</ele>
        <time>2020-07-10T01:50:32.229Z</time>
      </trkpt>
      <trkpt lat="39.88195896149" lon="-8.64914774895">
        <ele>83.50388336182</ele>
        <time>2020-07-10T01:50:40.266Z</time>
      </trkpt>
      <trkpt lat="39.88291391172" lon="-8.64897608757">
        <ele>82.04405212402</ele>
        <time>2020-07-10T01:50:48.323Z</time>
      </trkpt>
      <trkpt lat="39.88268852234" lon="-8.64848256111">
        <ele>82.10145568848</ele>
        <time>2020-07-10T01:50:56.388Z</time>
      </trkpt>
      <trkpt lat="39.88268852234" lon="-8.64826798439">
        <ele>82.616355896</ele>
        <time>2020-07-10T01:51:04.457Z</time>
      </trkpt>
      <trkpt lat="39.88381505013" lon="-8.64717364311">
        <ele>83.45637512207</ele>
        <time>2020-07-10T01:51:12.554Z</time>
      </trkpt>
      <trkpt lat="39.88532789983" lon="-8.64607930183">
        <ele>80.13488006592</ele>
        <time>2020-07-10T01:51:20.685Z</time>
      </trkpt>
      <trkpt lat="39.8857998848" lon="-8.64575743675">
        <ele>80.47624969482</ele>
        <time>2020-07-10T01:51:28.827Z</time>
      </trkpt>
      <trkpt lat="39.88707661629" lon="-8.644759655">
        <ele>83.46797943115</ele>
        <time>2020-07-10T01:51:36.999Z</time>
      </trkpt>
      <trkpt lat="39.88769888878" lon="-8.64415884018">
        <ele>80.62417602539</ele>
        <time>2020-07-10T01:51:45.186Z</time>
      </trkpt>
      <trkpt lat="39.88824605942" lon="-8.64350438118">
        <ele>79.79295349121</ele>
        <time>2020-07-10T01:51:53.388Z</time>
      </trkpt>
      <trkpt lat="39.88965162076" lon="-8.64156246185">
        <ele>77.53841400146</ele>
        <time>2020-07-10T01:52:01.631Z</time>
      </trkpt>
      <trkpt lat="39.89280589856" lon="-8.63730311394">
        <ele>75.94699859619</ele>
        <time>2020-07-10T01:52:09.965Z</time>
      </trkpt>
      <trkpt lat="39.8933530692" lon="-8.63653063774">
        <ele>74.89999389648</ele>
        <time>2020-07-10T01:52:18.315Z</time>
      </trkpt>
      <trkpt lat="39.89462980069" lon="-8.63482475281">
        <ele>71.436668396</ele>
        <time>2020-07-10T01:52:26.702Z</time>
      </trkpt>
      <trkpt lat="39.89462971687" lon="-8.63482475281">
        <ele>71.436668396</ele>
        <time>2020-07-10T01:52:35.089Z</time>
      </trkpt>
      <trkpt lat="39.89638924599" lon="-8.63356947899">
        <ele>71.86946868896</ele>
        <time>2020-07-10T01:52:43.516Z</time>
      </trkpt>
      <trkpt lat="39.89659309387" lon="-8.63351583481">
        <ele>71.56764221191</ele>
        <time>2020-07-10T01:52:51.947Z</time>
      </trkpt>
      <trkpt lat="39.897108078" lon="-8.63391280174">
        <ele>70.58106994629</ele>
        <time>2020-07-10T01:53:00.390Z</time>
      </trkpt>
      <trkpt lat="39.8988032341" lon="-8.63272190094">
        <ele>69.08408355713</ele>
        <time>2020-07-10T01:53:08.872Z</time>
      </trkpt>
      <trkpt lat="39.89915728569" lon="-8.63241076469">
        <ele>69.50887298584</ele>
        <time>2020-07-10T01:53:17.362Z</time>
      </trkpt>
      <trkpt lat="39.8992432002" lon="-8.63216400146">
        <ele>69.61195373535</ele>
        <time>2020-07-10T01:53:25.857Z</time>
      </trkpt>
      <trkpt lat="39.89909299649" lon="-8.63211035728">
        <ele>69.43173980713</ele>
        <time>2020-07-10T01:53:34.355Z</time>
      </trkpt>
      <trkpt lat="39.89883550443" lon="-8.63189578056">
        <ele>69.12280273438</ele>
        <time>2020-07-10T01:53:42.859Z</time>
      </trkpt>
      <trkpt lat="39.89854574203" lon="-8.63179922104">
        <ele>69.80797576904</ele>
        <time>2020-07-10T01:53:51.369Z</time>
      </trkpt>
      <trkpt lat="39.89794492722" lon="-8.63200306892">
        <ele>71.48139190674</ele>
        <time>2020-07-10T01:53:59.891Z</time>
      </trkpt>
      <trkpt lat="39.89760160446" lon="-8.63187432289">
        <ele>71.64237213135</ele>
        <time>2020-07-10T01:54:08.420Z</time>
      </trkpt>
      <trkpt lat="39.8973978404" lon="-8.63160610199">
        <ele>71.39789581299</ele>
        <time>2020-07-10T01:54:16.955Z</time>
      </trkpt>
      <trkpt lat="39.89739775658" lon="-8.63160610199">
        <ele>71.39778900146</ele>
        <time>2020-07-10T01:54:25.490Z</time>
      </trkpt>
      <trkpt lat="39.89711880684" lon="-8.63116621971">
        <ele>72.58924865723</ele>
        <time>2020-07-10T01:54:34.034Z</time>
      </trkpt>
      <trkpt lat="39.89663609304" lon="-8.63042593002">
        <ele>78.19898223877</ele>
        <time>2020-07-10T01:54:42.593Z</time>
      </trkpt>
      <trkpt lat="39.89626049995" lon="-8.6302113533">
        <ele>79.80793762207</ele>
        <time>2020-07-10T01:54:51.160Z</time>
      </trkpt>
      <trkpt lat="39.89584207535" lon="-8.62958908081">
        <ele>86.37202453613</ele>
        <time>2020-07-10T01:54:59.740Z</time>
      </trkpt>
      <trkpt lat="39.89558458328" lon="-8.62829089165">
        <ele>107.24728393555</ele>
        <time>2020-07-10T01:55:08.340Z</time>
      </trkpt>
      <trkpt lat="39.89541292191" lon="-8.62816214561">
        <ele>110.28518676758</ele>
        <time>2020-07-10T01:55:16.944Z</time>
      </trkpt>
      <trkpt lat="39.89525198936" lon="-8.62752914429">
        <ele>120.51232147217</ele>
        <time>2020-07-10T01:55:25.559Z</time>
      </trkpt>
      <trkpt lat="39.895144701" lon="-8.62751841545">
        <ele>119.37954711914</ele>
        <time>2020-07-10T01:55:34.176Z</time>
      </trkpt>
      <trkpt lat="39.89501595497" lon="-8.6273252964">
        <ele>120.61530303955</ele>
        <time>2020-07-10T01:55:42.797Z</time>
      </trkpt>
      <trkpt lat="39.89500522614" lon="-8.62676739693">
        <ele>130.77893066406</ele>
        <time>2020-07-10T01:55:51.426Z</time>
      </trkpt>
      <trkpt lat="39.89457607269" lon="-8.6254799366">
        <ele>148.07272338867</ele>
        <time>2020-07-10T01:56:00.077Z</time>
      </trkpt>
      <trkpt lat="39.89455461502" lon="-8.62488985062">
        <ele>152.48518371582</ele>
        <time>2020-07-10T01:56:08.737Z</time>
      </trkpt>
      <trkpt lat="39.89447951317" lon="-8.6247074604">
        <ele>151.39102172852</ele>
        <time>2020-07-10T01:56:17.400Z</time>
      </trkpt>
      <trkpt lat="39.89457607269" lon="-8.62440705299">
        <ele>153.78530883789</ele>
        <time>2020-07-10T01:56:26.068Z</time>
      </trkpt>
      <trkpt lat="39.89457615651" lon="-8.62440705299">
        <ele>153.78460693359</ele>
        <time>2020-07-10T01:56:34.736Z</time>
      </trkpt>
      <trkpt lat="39.89451169968" lon="-8.6240530014">
        <ele>150.3074798584</ele>
        <time>2020-07-10T01:56:43.410Z</time>
      </trkpt>
      <trkpt lat="39.89480137825" lon="-8.62355947495">
        <ele>148.46136474609</ele>
        <time>2020-07-10T01:56:52.093Z</time>
      </trkpt>
      <trkpt lat="39.8949944973" lon="-8.62335562706">
        <ele>149.05744934082</ele>
        <time>2020-07-10T01:57:00.781Z</time>
      </trkpt>
      <trkpt lat="39.8952627182" lon="-8.62158536911">
        <ele>147.71278381348</ele>
        <time>2020-07-10T01:57:09.497Z</time>
      </trkpt>
      <trkpt lat="39.89541292191" lon="-8.62130641937">
        <ele>149.29487609863</ele>
        <time>2020-07-10T01:57:18.218Z</time>
      </trkpt>
      <trkpt lat="39.8957669735" lon="-8.62107038498">
        <ele>147.7373046875</ele>
        <time>2020-07-10T01:57:26.947Z</time>
      </trkpt>
      <trkpt lat="39.89589571953" lon="-8.62086653709">
        <ele>147.21305847168</ele>
        <time>2020-07-10T01:57:35.680Z</time>
      </trkpt>
      <trkpt lat="39.8972798232" lon="-8.61895680428">
        <ele>151.60621643066</ele>
        <time>2020-07-10T01:57:44.454Z</time>
      </trkpt>
      <trkpt lat="39.89779472351" lon="-8.61863493919">
        <ele>152.51927185059</ele>
        <time>2020-07-10T01:57:53.239Z</time>
      </trkpt>
      <trkpt lat="39.8983205203" lon="-8.61764788628">
        <ele>145.28129577637</ele>
        <time>2020-07-10T01:58:02.043Z</time>
      </trkpt>
      <trkpt lat="39.89848145284" lon="-8.61742258072">
        <ele>145.78332519531</ele>
        <time>2020-07-10T01:58:10.851Z</time>
      </trkpt>
      <trkpt lat="39.89877104759" lon="-8.617208004">
        <ele>147.74238586426</ele>
        <time>2020-07-10T01:58:19.666Z</time>
      </trkpt>
      <trkpt lat="39.89893198013" lon="-8.61685395241">
        <ele>145.96598815918</ele>
        <time>2020-07-10T01:58:28.487Z</time>
      </trkpt>
      <trkpt lat="39.8989212513" lon="-8.61663937569">
        <ele>146.3540802002</ele>
        <time>2020-07-10T01:58:37.312Z</time>
      </trkpt>
      <trkpt lat="39.89872813225" lon="-8.61582398415">
        <ele>145.8869934082</ele>
        <time>2020-07-10T01:58:46.150Z</time>
      </trkpt>
      <trkpt lat="39.898416996" lon="-8.61533045769">
        <ele>145.2691192627</ele>
        <time>2020-07-10T01:58:54.998Z</time>
      </trkpt>
      <trkpt lat="39.89830979146" lon="-8.61491203308">
        <ele>144.60845947266</ele>
        <time>2020-07-10T01:59:03.852Z</time>
      </trkpt>
      <trkpt lat="39.89836335182" lon="-8.61482620239">
        <ele>145.01957702637</ele>
        <time>2020-07-10T01:59:12.708Z</time>
      </trkpt>
      <trkpt lat="39.89837408066" lon="-8.61441850662">
        <ele>144.98429870605</ele>
        <time>2020-07-10T01:59:21.570Z</time>
      </trkpt>
      <trkpt lat="39.89868530072" lon="-8.61394643784">
        <ele>148.57106018066</ele>
        <time>2020-07-10T01:59:30.442Z</time>
      </trkpt>
      <trkpt lat="39.89940404892" lon="-8.61328125">
        <ele>151.13827514648</ele>
        <time>2020-07-10T01:59:39.331Z</time>
      </trkpt>
      <trkpt lat="39.8996078968" lon="-8.61287355423">
        <ele>152.74826049805</ele>
        <time>2020-07-10T01:59:48.228Z</time>
      </trkpt>
      <trkpt lat="39.89962533892" lon="-8.61241426532">
        <ele>154.11343383789</ele>
        <time>2020-07-10T01:59:57.132Z</time>
      </trkpt>
      <trkpt lat="39.89964008331" lon="-8.61202597618">
        <ele>154.52624511719</ele>
        <time>2020-07-10T02:00:06.042Z</time>
      </trkpt>
      <trkpt lat="39.89956498146" lon="-8.61141443253">
        <ele>155.51254272461</ele>
        <time>2020-07-10T02:00:14.962Z</time>
      </trkpt>
      <trkpt lat="39.89961921237" lon="-8.61127579585">
        <ele>155.81689453125</ele>
        <time>2020-07-10T02:00:23.884Z</time>
      </trkpt>
      <trkpt lat="39.89961912856" lon="-8.6112760473">
        <ele>155.81639099121</ele>
        <time>2020-07-10T02:00:32.806Z</time>
      </trkpt>
      <trkpt lat="39.89966154099" lon="-8.6111676693">
        <ele>156.04820251465</ele>
        <time>2020-07-10T02:00:41.730Z</time>
      </trkpt>
      <trkpt lat="39.89978718741" lon="-8.61102036026">
        <ele>156.52644348145</ele>
        <time>2020-07-10T02:00:50.657Z</time>
      </trkpt>
      <trkpt lat="39.89997267723" lon="-8.61080288887">
        <ele>158.26489257812</ele>
        <time>2020-07-10T02:00:59.589Z</time>
      </trkpt>
      <trkpt lat="39.90003705025" lon="-8.61049175262">
        <ele>160.15188598633</ele>
        <time>2020-07-10T02:01:08.526Z</time>
      </trkpt>
      <trkpt lat="39.90013360977" lon="-8.6101269722">
        <ele>161.72106933594</ele>
        <time>2020-07-10T02:01:17.469Z</time>
      </trkpt>
      <trkpt lat="39.90003705025" lon="-8.6096227169">
        <ele>161.25765991211</ele>
        <time>2020-07-10T02:01:26.420Z</time>
      </trkpt>
      <trkpt lat="39.90012296475" lon="-8.6092042923">
        <ele>161.84608459473</ele>
        <time>2020-07-10T02:01:35.378Z</time>
      </trkpt>
      <trkpt lat="39.90015515126" lon="-8.60917210579">
        <ele>162.03916931152</ele>
        <time>2020-07-10T02:01:44.337Z</time>
      </trkpt>
      <trkpt lat="39.90018725395" lon="-8.60882878304">
        <ele>162.60516357422</ele>
        <time>2020-07-10T02:01:53.301Z</time>
      </trkpt>
      <trkpt lat="39.90033745766" lon="-8.60866785049">
        <ele>163.51910400391</ele>
        <time>2020-07-10T02:02:02.269Z</time>
      </trkpt>
      <trkpt lat="39.90097045898" lon="-8.60848546028">
        <ele>166.01440429688</ele>
        <time>2020-07-10T02:02:11.250Z</time>
      </trkpt>
      <trkpt lat="39.90120649338" lon="-8.60834598541">
        <ele>166.69664001465</ele>
        <time>2020-07-10T02:02:20.236Z</time>
      </trkpt>
      <trkpt lat="39.90162491798" lon="-8.60832452774">
        <ele>164.64604187012</ele>
        <time>2020-07-10T02:02:29.230Z</time>
      </trkpt>
      <trkpt lat="39.90175366402" lon="-8.60814213753">
        <ele>164.15689086914</ele>
        <time>2020-07-10T02:02:38.228Z</time>
      </trkpt>
      <trkpt lat="39.90188249387" lon="-8.60771298409">
        <ele>163.69888305664</ele>
        <time>2020-07-10T02:02:47.233Z</time>
      </trkpt>
      <trkpt lat="39.90178593434" lon="-8.60741257668">
        <ele>164.01181030273</ele>
        <time>2020-07-10T02:02:56.243Z</time>
      </trkpt>
      <trkpt lat="39.9015712738" lon="-8.6068546772">
        <ele>159.47454833984</ele>
        <time>2020-07-10T02:03:05.263Z</time>
      </trkpt>
      <trkpt lat="39.90039110184" lon="-8.60583543777">
        <ele>147.42924499512</ele>
        <time>2020-07-10T02:03:14.311Z</time>
      </trkpt>
      <trkpt lat="39.89992976189" lon="-8.60521316528">
        <ele>147.67381286621</ele>
        <time>2020-07-10T02:03:23.372Z</time>
      </trkpt>
      <trkpt lat="39.89980101585" lon="-8.6050093174">
        <ele>147.78639221191</ele>
        <time>2020-07-10T02:03:32.437Z</time>
      </trkpt>
      <trkpt lat="39.8993396759" lon="-8.6035823822">
        <ele>152.15092468262</ele>
        <time>2020-07-10T02:03:41.526Z</time>
      </trkpt>
      <trkpt lat="39.89899643697" lon="-8.60321760178">
        <ele>156.21122741699</ele>
        <time>2020-07-10T02:03:50.624Z</time>
      </trkpt>
      <trkpt lat="39.89899635315" lon="-8.60321760178">
        <ele>156.21051025391</ele>
        <time>2020-07-10T02:03:59.722Z</time>
      </trkpt>
      <trkpt lat="39.89891052246" lon="-8.60315322876">
        <ele>155.48965454102</ele>
        <time>2020-07-10T02:04:08.822Z</time>
      </trkpt>
      <trkpt lat="39.89932894707" lon="-8.60282063484">
        <ele>159.00384521484</ele>
        <time>2020-07-10T02:04:17.932Z</time>
      </trkpt>
      <trkpt lat="39.89915728569" lon="-8.60182285309">
        <ele>165.6477355957</ele>
        <time>2020-07-10T02:04:27.058Z</time>
      </trkpt>
      <trkpt lat="39.89922165871" lon="-8.60110402107">
        <ele>168.44032287598</ele>
        <time>2020-07-10T02:04:36.195Z</time>
      </trkpt>
      <trkpt lat="39.89904999733" lon="-8.59993457794">
        <ele>175.4174041748</ele>
        <time>2020-07-10T02:04:45.350Z</time>
      </trkpt>
      <trkpt lat="39.899071455" lon="-8.59964489937">
        <ele>178.59906005859</ele>
        <time>2020-07-10T02:04:54.510Z</time>
      </trkpt>
      <trkpt lat="39.89928603172" lon="-8.59897971153">
        <ele>186.08494567871</ele>
        <time>2020-07-10T02:05:03.681Z</time>
      </trkpt>
      <trkpt lat="39.89931821823" lon="-8.59863638878">
        <ele>188.89305114746</ele>
        <time>2020-07-10T02:05:12.857Z</time>
      </trkpt>
      <trkpt lat="39.89899635315" lon="-8.59705924988">
        <ele>195.3084564209</ele>
        <time>2020-07-10T02:05:22.058Z</time>
      </trkpt>
      <trkpt lat="39.89862084389" lon="-8.5967373848">
        <ele>194.91777038574</ele>
        <time>2020-07-10T02:05:31.268Z</time>
      </trkpt>
      <trkpt lat="39.89830970764" lon="-8.59632968903">
        <ele>192.64170837402</ele>
        <time>2020-07-10T02:05:40.487Z</time>
      </trkpt>
      <trkpt lat="39.8981487751" lon="-8.5958147049">
        <ele>192.82730102539</ele>
        <time>2020-07-10T02:05:49.715Z</time>
      </trkpt>
      <trkpt lat="39.89786982536" lon="-8.59543919563">
        <ele>196.42701721191</ele>
        <time>2020-07-10T02:05:58.951Z</time>
      </trkpt>
      <trkpt lat="39.89762306213" lon="-8.59488129616">
        <ele>196.89723205566</ele>
        <time>2020-07-10T02:06:08.197Z</time>
      </trkpt>
      <trkpt lat="39.89716195695" lon="-8.59457919196">
        <ele>199.37379455566</ele>
        <time>2020-07-10T02:06:17.453Z</time>
      </trkpt>
      <trkpt lat="39.89700078964" lon="-8.59447360039">
        <ele>200.79292297363</ele>
        <time>2020-07-10T02:06:26.712Z</time>
      </trkpt>
      <trkpt lat="39.89648580551" lon="-8.59433412552">
        <ele>202.62705993652</ele>
        <time>2020-07-10T02:06:35.982Z</time>
      </trkpt>
      <trkpt lat="39.89632328041" lon="-8.59420353547">
        <ele>202.19532775879</ele>
        <time>2020-07-10T02:06:45.256Z</time>
      </trkpt>
      <trkpt lat="39.89609994581" lon="-8.59402406416">
        <ele>202.07992553711</ele>
        <time>2020-07-10T02:06:54.535Z</time>
      </trkpt>
      <trkpt lat="39.89609980218" lon="-8.59402394874">
        <ele>202.08006286621</ele>
        <time>2020-07-10T02:07:03.814Z</time>
      </trkpt>
      <trkpt lat="39.89588499069" lon="-8.5938513279">
        <ele>202.33779907227</ele>
        <time>2020-07-10T02:07:13.098Z</time>
      </trkpt>
      <trkpt lat="39.89560604095" lon="-8.59380841255">
        <ele>205.01527404785</ele>
        <time>2020-07-10T02:07:22.388Z</time>
      </trkpt>
      <trkpt lat="39.89560612477" lon="-8.59380841255">
        <ele>205.01446533203</ele>
        <time>2020-07-10T02:07:31.678Z</time>
      </trkpt>
      <trkpt lat="39.89506959915" lon="-8.59355092049">
        <ele>205.5984954834</ele>
        <time>2020-07-10T02:07:40.979Z</time>
      </trkpt>
      <trkpt lat="39.89467263222" lon="-8.5930788517">
        <ele>204.28834533691</ele>
        <time>2020-07-10T02:07:50.291Z</time>
      </trkpt>
      <trkpt lat="39.89427566528" lon="-8.59249949455">
        <ele>203.64863586426</ele>
        <time>2020-07-10T02:07:59.615Z</time>
      </trkpt>
      <trkpt lat="39.89353545941" lon="-8.59105110168">
        <ele>201.43110656738</ele>
        <time>2020-07-10T02:08:08.966Z</time>
      </trkpt>
      <trkpt lat="39.89324569702" lon="-8.59056830406">
        <ele>196.53294372559</ele>
        <time>2020-07-10T02:08:18.326Z</time>
      </trkpt>
      <trkpt lat="39.89298820496" lon="-8.58974218369">
        <ele>198.5711517334</ele>
        <time>2020-07-10T02:08:27.700Z</time>
      </trkpt>
      <trkpt lat="39.89275217056" lon="-8.58920574188">
        <ele>196.41084289551</ele>
        <time>2020-07-10T02:08:37.083Z</time>
      </trkpt>
      <trkpt lat="39.8925484065" lon="-8.589001894">
        <ele>192.74279785156</ele>
        <time>2020-07-10T02:08:46.471Z</time>
      </trkpt>
      <trkpt lat="39.89209771156" lon="-8.58836889267">
        <ele>187.45753479004</ele>
        <time>2020-07-10T02:08:55.873Z</time>
      </trkpt>
      <trkpt lat="39.89203342237" lon="-8.58819723129">
        <ele>186.0951385498</ele>
        <time>2020-07-10T02:09:05.278Z</time>
      </trkpt>
      <trkpt lat="39.89214062691" lon="-8.58786463737">
        <ele>185.24346923828</ele>
        <time>2020-07-10T02:09:14.688Z</time>
      </trkpt>
      <trkpt lat="39.89226945676" lon="-8.58771443367">
        <ele>185.1408996582</ele>
        <time>2020-07-10T02:09:24.102Z</time>
      </trkpt>
      <trkpt lat="39.89218354225" lon="-8.58729600906">
        <ele>185.38497924805</ele>
        <time>2020-07-10T02:09:33.522Z</time>
      </trkpt>
      <trkpt lat="39.89214071073" lon="-8.58624458313">
        <ele>191.88134765625</ele>
        <time>2020-07-10T02:09:42.958Z</time>
      </trkpt>
      <trkpt lat="39.89206552505" lon="-8.58479619026">
        <ele>196.45895385742</ele>
        <time>2020-07-10T02:09:52.417Z</time>
      </trkpt>
      <trkpt lat="39.8917759303" lon="-8.58398079872">
        <ele>194.98770141602</ele>
        <time>2020-07-10T02:10:01.890Z</time>
      </trkpt>
      <trkpt lat="39.89135742188" lon="-8.58278989792">
        <ele>199.26570129395</ele>
        <time>2020-07-10T02:10:11.383Z</time>
      </trkpt>
      <trkpt lat="39.89134677686" lon="-8.58159899712">
        <ele>202.67900085449</ele>
        <time>2020-07-10T02:10:20.894Z</time>
      </trkpt>
      <trkpt lat="39.89136815071" lon="-8.5807621479">
        <ele>207.92213439941</ele>
        <time>2020-07-10T02:10:30.418Z</time>
      </trkpt>
      <trkpt lat="39.89131459035" lon="-8.58019351959">
        <ele>210.35443115234</ele>
        <time>2020-07-10T02:10:39.951Z</time>
      </trkpt>
      <trkpt lat="39.8912394885" lon="-8.57972145081">
        <ele>211.01820373535</ele>
        <time>2020-07-10T02:10:49.491Z</time>
      </trkpt>
      <trkpt lat="39.89113220014" lon="-8.57920646667">
        <ele>210.88047790527</ele>
        <time>2020-07-10T02:10:59.039Z</time>
      </trkpt>
      <trkpt lat="39.89039182663" lon="-8.57698559761">
        <ele>216.82464599609</ele>
        <time>2020-07-10T02:11:08.625Z</time>
      </trkpt>
      <trkpt lat="39.89023089409" lon="-8.57615947723">
        <ele>225.93962097168</ele>
        <time>2020-07-10T02:11:18.224Z</time>
      </trkpt>
      <trkpt lat="39.89023097791" lon="-8.57615947723">
        <ele>225.93962097168</ele>
        <time>2020-07-10T02:11:27.823Z</time>
      </trkpt>
      <trkpt lat="39.89012528203" lon="-8.57551171949">
        <ele>227.0</ele>
        <time>2020-07-10T02:11:37.432Z</time>
      </trkpt>
      <trkpt lat="39.88998413086" lon="-8.57464671135">
        <ele>224.791015625</ele>
        <time>2020-07-10T02:11:47.055Z</time>
      </trkpt>
      <trkpt lat="39.88997348584" lon="-8.57458233833">
        <ele>224.48147583008</ele>
        <time>2020-07-10T02:11:56.679Z</time>
      </trkpt>
      <trkpt lat="39.8901257012" lon="-8.57466313988">
        <ele>223.97883605957</ele>
        <time>2020-07-10T02:12:06.306Z</time>
      </trkpt>
      <trkpt lat="39.89012561738" lon="-8.57466297224">
        <ele>223.97782897949</ele>
        <time>2020-07-10T02:12:15.933Z</time>
      </trkpt>
      <trkpt lat="39.8901257012" lon="-8.57466313988">
        <ele>223.97883605957</ele>
        <time>2020-07-10T02:12:25.560Z</time>
      </trkpt>
      <trkpt lat="39.89015579224" lon="-8.57467889786">
        <ele>223.96678161621</ele>
        <time>2020-07-10T02:12:35.188Z</time>
      </trkpt>
      <trkpt lat="39.89035871783" lon="-8.57453894943">
        <ele>221.8175201416</ele>
        <time>2020-07-10T02:12:44.820Z</time>
      </trkpt>
      <trkpt lat="39.89035889427" lon="-8.57453882774">
        <ele>221.81565856934</ele>
        <time>2020-07-10T02:12:54.452Z</time>
      </trkpt>
      <trkpt lat="39.89046692848" lon="-8.57446432114">
        <ele>221.08235168457</ele>
        <time>2020-07-10T02:13:04.087Z</time>
      </trkpt>
      <trkpt lat="39.89098191261" lon="-8.57450723648">
        <ele>222.06065368652</ele>
        <time>2020-07-10T02:13:13.732Z</time>
      </trkpt>
      <trkpt lat="39.89131459035" lon="-8.57465744019">
        <ele>223.42367553711</ele>
        <time>2020-07-10T02:13:23.384Z</time>
      </trkpt>
      <trkpt lat="39.89196896553" lon="-8.57479691505">
        <ele>222.17231750488</ele>
        <time>2020-07-10T02:13:33.049Z</time>
      </trkpt>
      <trkpt lat="39.89250540733" lon="-8.57415318489">
        <ele>221.01560974121</ele>
        <time>2020-07-10T02:13:42.729Z</time>
      </trkpt>
      <trkpt lat="39.89285945892" lon="-8.57386350632">
        <ele>221.82656860352</ele>
        <time>2020-07-10T02:13:52.417Z</time>
      </trkpt>
      <trkpt lat="39.89354610443" lon="-8.57380986214">
        <ele>224.25227355957</ele>
        <time>2020-07-10T02:14:02.119Z</time>
      </trkpt>
      <trkpt lat="39.89370712079" lon="-8.5736811161">
        <ele>224.0982208252</ele>
        <time>2020-07-10T02:14:11.825Z</time>
      </trkpt>
      <trkpt lat="39.89386796951" lon="-8.57329487801">
        <ele>218.28202819824</ele>
        <time>2020-07-10T02:14:21.538Z</time>
      </trkpt>
      <trkpt lat="39.89421129227" lon="-8.57297301292">
        <ele>209.06535339355</ele>
        <time>2020-07-10T02:14:31.259Z</time>
      </trkpt>
      <trkpt lat="39.89469408989" lon="-8.57208251953">
        <ele>190.70753479004</ele>
        <time>2020-07-10T02:14:40.997Z</time>
      </trkpt>
      <trkpt lat="39.89512324333" lon="-8.57169628143">
        <ele>189.13856506348</ele>
        <time>2020-07-10T02:14:50.745Z</time>
      </trkpt>
      <trkpt lat="39.89524134435" lon="-8.57170701027">
        <ele>188.9841003418</ele>
        <time>2020-07-10T02:15:00.496Z</time>
      </trkpt>
      <trkpt lat="39.89579924382" lon="-8.57170701027">
        <ele>187.89122009277</ele>
        <time>2020-07-10T02:15:10.258Z</time>
      </trkpt>
      <trkpt lat="39.89648588933" lon="-8.57158899307">
        <ele>183.35821533203</ele>
        <time>2020-07-10T02:15:20.034Z</time>
      </trkpt>
      <trkpt lat="39.89667892456" lon="-8.57159972191">
        <ele>182.57025146484</ele>
        <time>2020-07-10T02:15:29.813Z</time>
      </trkpt>
      <trkpt lat="39.89718694578" lon="-8.57110686744">
        <ele>184.26588439941</ele>
        <time>2020-07-10T02:15:39.605Z</time>
      </trkpt>
      <trkpt lat="39.89739775658" lon="-8.57090234756">
        <ele>185.98895263672</ele>
        <time>2020-07-10T02:15:49.402Z</time>
      </trkpt>
      <trkpt lat="39.89767679013" lon="-8.57097744942">
        <ele>187.66288757324</ele>
        <time>2020-07-10T02:15:59.205Z</time>
      </trkpt>
      <trkpt lat="39.89776262082" lon="-8.57053756714">
        <ele>188.17778015137</ele>
        <time>2020-07-10T02:16:09.015Z</time>
      </trkpt>
      <trkpt lat="39.897762537" lon="-8.57053756714">
        <ele>188.17727661133</ele>
        <time>2020-07-10T02:16:18.825Z</time>
      </trkpt>
      <trkpt lat="39.89776262082" lon="-8.57053756714">
        <ele>188.17778015137</ele>
        <time>2020-07-10T02:16:28.635Z</time>
      </trkpt>
      <trkpt lat="39.89778903006" lon="-8.57035222">
        <ele>188.3362121582</ele>
        <time>2020-07-10T02:16:38.448Z</time>
      </trkpt>
      <trkpt lat="39.89779472351" lon="-8.57031226158">
        <ele>188.37036132812</ele>
        <time>2020-07-10T02:16:48.262Z</time>
      </trkpt>
      <trkpt lat="39.89777931533" lon="-8.57020220162">
        <ele>188.39315795898</ele>
        <time>2020-07-10T02:16:58.077Z</time>
      </trkpt>
      <trkpt lat="39.89771962166" lon="-8.56977581978">
        <ele>188.61824035645</ele>
        <time>2020-07-10T02:17:07.899Z</time>
      </trkpt>
      <trkpt lat="39.89751577377" lon="-8.56926083565">
        <ele>189.47982788086</ele>
        <time>2020-07-10T02:17:17.730Z</time>
      </trkpt>
      <trkpt lat="39.89776154079" lon="-8.56914218962">
        <ele>190.63897705078</ele>
        <time>2020-07-10T02:17:27.566Z</time>
      </trkpt>
      <trkpt lat="39.89776184998" lon="-8.56914204036">
        <ele>190.64042663574</ele>
        <time>2020-07-10T02:17:37.402Z</time>
      </trkpt>
      <trkpt lat="39.89782691002" lon="-8.56911063194">
        <ele>190.94728088379</ele>
        <time>2020-07-10T02:17:47.239Z</time>
      </trkpt>
      <trkpt lat="39.8979726503" lon="-8.56914394389">
        <ele>191.74998474121</ele>
        <time>2020-07-10T02:17:57.079Z</time>
      </trkpt>
      <trkpt lat="39.89820241928" lon="-8.56919646263">
        <ele>194.35047912598</ele>
        <time>2020-07-10T02:18:06.924Z</time>
      </trkpt>
      <trkpt lat="39.89849209785" lon="-8.56915354729">
        <ele>198.27658081055</ele>
        <time>2020-07-10T02:18:16.775Z</time>
      </trkpt>
      <trkpt lat="39.89862084389" lon="-8.56885313988">
        <ele>200.69660949707</ele>
        <time>2020-07-10T02:18:26.631Z</time>
      </trkpt>
      <trkpt lat="39.89871279337" lon="-8.56877912767">
        <ele>202.08773803711</ele>
        <time>2020-07-10T02:18:36.489Z</time>
      </trkpt>
      <trkpt lat="39.89871312864" lon="-8.5687787924">
        <ele>202.09297180176</ele>
        <time>2020-07-10T02:18:46.347Z</time>
      </trkpt>
      <trkpt lat="39.898712961" lon="-8.56877887622">
        <ele>202.0905456543</ele>
        <time>2020-07-10T02:18:56.205Z</time>
      </trkpt>
      <trkpt lat="39.89893526153" lon="-8.56859957916">
        <ele>206.6671295166</ele>
        <time>2020-07-10T02:19:06.069Z</time>
      </trkpt>
      <trkpt lat="39.89893540348" lon="-8.56859946467">
        <ele>206.67012023926</ele>
        <time>2020-07-10T02:19:15.933Z</time>
      </trkpt>
      <trkpt lat="39.89895343781" lon="-8.56858491898">
        <ele>207.05122375488</ele>
        <time>2020-07-10T02:19:25.797Z</time>
      </trkpt>
      <trkpt lat="39.89898570813" lon="-8.56848835945">
        <ele>207.98365783691</ele>
        <time>2020-07-10T02:19:35.663Z</time>
      </trkpt>
      <trkpt lat="39.89898562431" lon="-8.56848835945">
        <ele>207.98204040527</ele>
        <time>2020-07-10T02:19:45.529Z</time>
      </trkpt>
      <trkpt lat="39.89895352162" lon="-8.56798410416">
        <ele>210.39080810547</ele>
        <time>2020-07-10T02:19:55.402Z</time>
      </trkpt>
      <trkpt lat="39.89891052246" lon="-8.56746912003">
        <ele>213.36747741699</ele>
        <time>2020-07-10T02:20:05.283Z</time>
      </trkpt>
      <trkpt lat="39.89881396294" lon="-8.56734037399">
        <ele>212.47927856445</ele>
        <time>2020-07-10T02:20:15.167Z</time>
      </trkpt>
      <trkpt lat="39.89859938622" lon="-8.56723308563">
        <ele>211.25061035156</ele>
        <time>2020-07-10T02:20:25.056Z</time>
      </trkpt>
      <trkpt lat="39.89850282669" lon="-8.5672223568">
        <ele>210.9931640625</ele>
        <time>2020-07-10T02:20:34.947Z</time>
      </trkpt>
      <trkpt lat="39.89827752113" lon="-8.56735110283">
        <ele>209.10092163086</ele>
        <time>2020-07-10T02:20:44.843Z</time>
      </trkpt>
      <trkpt lat="39.8981487751" lon="-8.56622457504">
        <ele>216.41697692871</ele>
        <time>2020-07-10T02:20:54.756Z</time>
      </trkpt>
      <trkpt lat="39.89794492722" lon="-8.56585979462">
        <ele>219.06663513184</ele>
        <time>2020-07-10T02:21:04.676Z</time>
      </trkpt>
      <trkpt lat="39.89770889282" lon="-8.56573104858">
        <ele>224.11599731445</ele>
        <time>2020-07-10T02:21:14.601Z</time>
      </trkpt>
      <trkpt lat="39.89765524864" lon="-8.56563448906">
        <ele>226.00825500488</ele>
        <time>2020-07-10T02:21:24.528Z</time>
      </trkpt>
      <trkpt lat="39.89771962166" lon="-8.56442213058">
        <ele>238.8108215332</ele>
        <time>2020-07-10T02:21:34.474Z</time>
      </trkpt>
      <trkpt lat="39.89784836769" lon="-8.56391787529">
        <ele>244.31690979004</ele>
        <time>2020-07-10T02:21:44.428Z</time>
      </trkpt>
      <trkpt lat="39.89794492722" lon="-8.5635638237">
        <ele>248.02194213867</ele>
        <time>2020-07-10T02:21:54.388Z</time>
      </trkpt>
      <trkpt lat="39.89796638489" lon="-8.56314539909">
        <ele>251.54232788086</ele>
        <time>2020-07-10T02:22:04.354Z</time>
      </trkpt>
      <trkpt lat="39.89796646871" lon="-8.56314539909">
        <ele>251.54042053223</ele>
        <time>2020-07-10T02:22:14.320Z</time>
      </trkpt>
      <trkpt lat="39.89815950394" lon="-8.56278061867">
        <ele>250.20358276367</ele>
        <time>2020-07-10T02:22:24.293Z</time>
      </trkpt>
      <trkpt lat="39.89851833101" lon="-8.56233994321">
        <ele>246.12870788574</ele>
        <time>2020-07-10T02:22:34.276Z</time>
      </trkpt>
      <trkpt lat="39.89917069674" lon="-8.56153875589">
        <ele>253.94328308105</ele>
        <time>2020-07-10T02:22:44.277Z</time>
      </trkpt>
      <trkpt lat="39.89917061292" lon="-8.56153875589">
        <ele>253.94287109375</ele>
        <time>2020-07-10T02:22:54.278Z</time>
      </trkpt>
      <trkpt lat="39.89917069674" lon="-8.56153875589">
        <ele>253.94328308105</ele>
        <time>2020-07-10T02:23:04.279Z</time>
      </trkpt>
      <trkpt lat="39.89936094023" lon="-8.56130507977">
        <ele>259.34213256836</ele>
        <time>2020-07-10T02:23:14.285Z</time>
      </trkpt>
      <trkpt lat="39.89936104976" lon="-8.5613049008">
        <ele>259.34609985352</ele>
        <time>2020-07-10T02:23:24.291Z</time>
      </trkpt>
      <trkpt lat="39.89975810051" lon="-8.56081724167">
        <ele>268.54089355469</ele>
        <time>2020-07-10T02:23:34.308Z</time>
      </trkpt>
      <trkpt lat="39.90007996559" lon="-8.56033444405">
        <ele>275.10586547852</ele>
        <time>2020-07-10T02:23:44.335Z</time>
      </trkpt>
      <trkpt lat="39.90043734451" lon="-8.56001146616">
        <ele>278.60012817383</ele>
        <time>2020-07-10T02:23:54.371Z</time>
      </trkpt>
      <trkpt lat="39.90138902952" lon="-8.55915136926">
        <ele>285.84545898438</ele>
        <time>2020-07-10T02:24:04.430Z</time>
      </trkpt>
      <trkpt lat="39.9013898056" lon="-8.55915066786">
        <ele>285.86251831055</ele>
        <time>2020-07-10T02:24:14.489Z</time>
      </trkpt>
      <trkpt lat="39.90138972178" lon="-8.55915066786">
        <ele>285.861328125</ele>
        <time>2020-07-10T02:24:24.548Z</time>
      </trkpt>
      <trkpt lat="39.90152835846" lon="-8.55902552605">
        <ele>288.90835571289</ele>
        <time>2020-07-10T02:24:34.610Z</time>
      </trkpt>
      <trkpt lat="39.90182876587" lon="-8.55890750885">
        <ele>294.60855102539</ele>
        <time>2020-07-10T02:24:44.678Z</time>
      </trkpt>
      <trkpt lat="39.90232237615" lon="-8.55890750885">
        <ele>302.28713989258</ele>
        <time>2020-07-10T02:24:54.756Z</time>
      </trkpt>
      <trkpt lat="39.90254759789" lon="-8.55900406837">
        <ele>304.95053100586</ele>
        <time>2020-07-10T02:25:04.839Z</time>
      </trkpt>
      <trkpt lat="39.90353208248" lon="-8.55907610302">
        <ele>312.95043945312</ele>
        <time>2020-07-10T02:25:14.942Z</time>
      </trkpt>
      <trkpt lat="39.904307127" lon="-8.55913281441">
        <ele>315.322265625</ele>
        <time>2020-07-10T02:25:25.060Z</time>
      </trkpt>
      <trkpt lat="39.9046836598" lon="-8.55902921145">
        <ele>317.15966796875</ele>
        <time>2020-07-10T02:25:35.186Z</time>
      </trkpt>
      <trkpt lat="39.9046845641" lon="-8.55902896263">
        <ele>317.16333007812</ele>
        <time>2020-07-10T02:25:45.312Z</time>
      </trkpt>
      <trkpt lat="39.90468448028" lon="-8.55902896263">
        <ele>317.16311645508</ele>
        <time>2020-07-10T02:25:55.438Z</time>
      </trkpt>
      <trkpt lat="39.9046845641" lon="-8.55902896263">
        <ele>317.16333007812</ele>
        <time>2020-07-10T02:26:05.564Z</time>
      </trkpt>
      <trkpt lat="39.90473628044" lon="-8.55901479721">
        <ele>317.37240600586</ele>
        <time>2020-07-10T02:26:15.691Z</time>
      </trkpt>
      <trkpt lat="39.90494012833" lon="-8.5587143898">
        <ele>319.66369628906</ele>
        <time>2020-07-10T02:26:25.824Z</time>
      </trkpt>
      <trkpt lat="39.90506895818" lon="-8.55862855911">
        <ele>320.48773193359</ele>
        <time>2020-07-10T02:26:35.960Z</time>
      </trkpt>
      <trkpt lat="39.90560531616" lon="-8.55878949165">
        <ele>321.2998046875</ele>
        <time>2020-07-10T02:26:46.107Z</time>
      </trkpt>
      <trkpt lat="39.90574479103" lon="-8.55858564377">
        <ele>323.19204711914</ele>
        <time>2020-07-10T02:26:56.258Z</time>
      </trkpt>
      <trkpt lat="39.90615673861" lon="-8.55840775748">
        <ele>326.6015625</ele>
        <time>2020-07-10T02:27:06.418Z</time>
      </trkpt>
      <trkpt lat="39.90621685982" lon="-8.55838179588">
        <ele>327.13928222656</ele>
        <time>2020-07-10T02:27:16.579Z</time>
      </trkpt>
      <trkpt lat="39.90643143654" lon="-8.55753421783">
        <ele>336.37100219727</ele>
        <time>2020-07-10T02:27:26.754Z</time>
      </trkpt>
      <trkpt lat="39.90658631" lon="-8.55704008176">
        <ele>341.45016479492</ele>
        <time>2020-07-10T02:27:36.937Z</time>
      </trkpt>
      <trkpt lat="39.90658625029" lon="-8.55704027228">
        <ele>341.44818115234</ele>
        <time>2020-07-10T02:27:47.120Z</time>
      </trkpt>
      <trkpt lat="39.90658625029" lon="-8.5570403561">
        <ele>341.44747924805</ele>
        <time>2020-07-10T02:27:57.303Z</time>
      </trkpt>
      <trkpt lat="39.90693569183" lon="-8.55592489243">
        <ele>352.81140136719</ele>
        <time>2020-07-10T02:28:07.505Z</time>
      </trkpt>
      <trkpt lat="39.9070751667" lon="-8.555560112">
        <ele>356.28283691406</ele>
        <time>2020-07-10T02:28:17.713Z</time>
      </trkpt>
      <trkpt lat="39.90721464157" lon="-8.5554420948">
        <ele>358.13647460938</ele>
        <time>2020-07-10T02:28:27.924Z</time>
      </trkpt>
      <trkpt lat="39.90721472539" lon="-8.5554420948">
        <ele>358.13708496094</ele>
        <time>2020-07-10T02:28:38.135Z</time>
      </trkpt>
      <trkpt lat="39.90886455605" lon="-8.55464154958">
        <ele>376.15420532227</ele>
        <time>2020-07-10T02:28:48.381Z</time>
      </trkpt>
      <trkpt lat="39.90995015761" lon="-8.55411476203">
        <ele>382.4645690918</ele>
        <time>2020-07-10T02:28:58.651Z</time>
      </trkpt>
      <trkpt lat="39.9099541828" lon="-8.55411280878">
        <ele>382.48843383789</ele>
        <time>2020-07-10T02:29:08.921Z</time>
      </trkpt>
      <trkpt lat="39.90995401517" lon="-8.55411280878">
        <ele>382.48782348633</ele>
        <time>2020-07-10T02:29:19.191Z</time>
      </trkpt>
      <trkpt lat="39.91084098816" lon="-8.55368256569">
        <ele>387.74523925781</ele>
        <time>2020-07-10T02:29:29.480Z</time>
      </trkpt>
      <trkpt lat="39.91120576859" lon="-8.55346798897">
        <ele>390.13653564453</ele>
        <time>2020-07-10T02:29:39.777Z</time>
      </trkpt>
      <trkpt lat="39.91176375188" lon="-8.55296373367">
        <ele>395.80407714844</ele>
        <time>2020-07-10T02:29:50.087Z</time>
      </trkpt>
      <trkpt lat="39.91193541326" lon="-8.55281352997">
        <ele>397.52899169922</ele>
        <time>2020-07-10T02:30:00.401Z</time>
      </trkpt>
      <trkpt lat="39.91309404373" lon="-8.55171918869">
        <ele>410.02709960938</ele>
        <time>2020-07-10T02:30:10.744Z</time>
      </trkpt>
      <trkpt lat="39.91436004639" lon="-8.55100035667">
        <ele>412.28182983398</ele>
        <time>2020-07-10T02:30:21.115Z</time>
      </trkpt>
      <trkpt lat="39.9153686408" lon="-8.55072140694">
        <ele>410.80081176758</ele>
        <time>2020-07-10T02:30:31.506Z</time>
      </trkpt>
      <trkpt lat="39.91609811783" lon="-8.55060338974">
        <ele>413.5817565918</ele>
        <time>2020-07-10T02:30:41.912Z</time>
      </trkpt>
      <trkpt lat="39.91616257466" lon="-8.55047464371">
        <ele>414.66326904297</ele>
        <time>2020-07-10T02:30:52.320Z</time>
      </trkpt>
      <trkpt lat="39.91660245694" lon="-8.54953050613">
        <ele>424.71340942383</ele>
        <time>2020-07-10T02:31:02.745Z</time>
      </trkpt>
      <trkpt lat="39.91718173027" lon="-8.54818940163">
        <ele>444.56753540039</ele>
        <time>2020-07-10T02:31:13.194Z</time>
      </trkpt>
      <trkpt lat="39.91708517075" lon="-8.54707360268">
        <ele>455.78457641602</ele>
        <time>2020-07-10T02:31:23.660Z</time>
      </trkpt>
      <trkpt lat="39.91663455963" lon="-8.54433774948">
        <ele>474.62384033203</ele>
        <time>2020-07-10T02:31:34.169Z</time>
      </trkpt>
      <trkpt lat="39.91663455963" lon="-8.54382276535">
        <ele>478.18835449219</ele>
        <time>2020-07-10T02:31:44.686Z</time>
      </trkpt>
      <trkpt lat="39.91680622101" lon="-8.54292154312">
        <ele>486.12182617188</ele>
        <time>2020-07-10T02:31:55.217Z</time>
      </trkpt>
      <trkpt lat="39.9169242382" lon="-8.54271769524">
        <ele>489.64886474609</ele>
        <time>2020-07-10T02:32:05.752Z</time>
      </trkpt>
      <trkpt lat="39.91722464561" lon="-8.54256749153">
        <ele>496.03665161133</ele>
        <time>2020-07-10T02:32:16.294Z</time>
      </trkpt>
      <trkpt lat="39.9176324252" lon="-8.54228854179">
        <ele>504.01928710938</ele>
        <time>2020-07-10T02:32:26.845Z</time>
      </trkpt>
      <trkpt lat="39.9179649353" lon="-8.54212760925">
        <ele>510.23681640625</ele>
        <time>2020-07-10T02:32:37.403Z</time>
      </trkpt>
      <trkpt lat="39.91915591992" lon="-8.54200959206">
        <ele>527.24255371094</ele>
        <time>2020-07-10T02:32:47.985Z</time>
      </trkpt>
      <trkpt lat="39.91935976781" lon="-8.5420525074">
        <ele>530.22595214844</ele>
        <time>2020-07-10T02:32:58.571Z</time>
      </trkpt>
      <trkpt lat="39.9199283123" lon="-8.54257822037">
        <ele>536.35186767578</ele>
        <time>2020-07-10T02:33:09.171Z</time>
      </trkpt>
      <trkpt lat="39.92024327726" lon="-8.54252392144">
        <ele>539.19256591797</ele>
        <time>2020-07-10T02:33:19.777Z</time>
      </trkpt>
      <trkpt lat="39.92086180486" lon="-8.54241728783">
        <ele>542.87847900391</ele>
        <time>2020-07-10T02:33:30.396Z</time>
      </trkpt>
      <trkpt lat="39.9211192131" lon="-8.54265332222">
        <ele>542.67224121094</ele>
        <time>2020-07-10T02:33:41.021Z</time>
      </trkpt>
      <trkpt lat="39.92132648134" lon="-8.54255156478">
        <ele>542.29443359375</ele>
        <time>2020-07-10T02:33:51.651Z</time>
      </trkpt>
      <trkpt lat="39.9213275034" lon="-8.542551063">
        <ele>542.28216552734</ele>
        <time>2020-07-10T02:34:02.281Z</time>
      </trkpt>
      <trkpt lat="39.92132736582" lon="-8.54255113877">
        <ele>542.28375244141</ele>
        <time>2020-07-10T02:34:12.911Z</time>
      </trkpt>
      <trkpt lat="39.9216178379" lon="-8.54240854313">
        <ele>540.04064941406</ele>
        <time>2020-07-10T02:34:23.547Z</time>
      </trkpt>
      <trkpt lat="39.92170929909" lon="-8.54236364365">
        <ele>539.44207763672</ele>
        <time>2020-07-10T02:34:34.185Z</time>
      </trkpt>
      <trkpt lat="39.92212772369" lon="-8.54204177856">
        <ele>534.28497314453</ele>
        <time>2020-07-10T02:34:44.833Z</time>
      </trkpt>
      <trkpt lat="39.92223501205" lon="-8.5420525074">
        <ele>530.74505615234</ele>
        <time>2020-07-10T02:34:55.483Z</time>
      </trkpt>
      <trkpt lat="39.92240969092" lon="-8.54220237583">
        <ele>525.77587890625</ele>
        <time>2020-07-10T02:35:06.137Z</time>
      </trkpt>
      <trkpt lat="39.92261052132" lon="-8.54237437248">
        <ele>524.11285400391</ele>
        <time>2020-07-10T02:35:16.796Z</time>
      </trkpt>
      <trkpt lat="39.9226240939" lon="-8.54239195178">
        <ele>524.28564453125</ele>
        <time>2020-07-10T02:35:27.455Z</time>
      </trkpt>
      <trkpt lat="39.92262497453" lon="-8.54239309238">
        <ele>524.29681396484</ele>
        <time>2020-07-10T02:35:38.114Z</time>
      </trkpt>
      <trkpt lat="39.9237370491" lon="-8.54383349419">
        <ele>531.62652587891</ele>
        <time>2020-07-10T02:35:48.804Z</time>
      </trkpt>
      <trkpt lat="39.92423057556" lon="-8.54436993599">
        <ele>527.98010253906</ele>
        <time>2020-07-10T02:35:59.507Z</time>
      </trkpt>
      <trkpt lat="39.92452025414" lon="-8.54453086853">
        <ele>521.19464111328</ele>
        <time>2020-07-10T02:36:10.217Z</time>
      </trkpt>
      <trkpt lat="39.9247777462" lon="-8.54487419128">
        <ele>519.72985839844</ele>
        <time>2020-07-10T02:36:20.934Z</time>
      </trkpt>
      <trkpt lat="39.92573261261" lon="-8.54558229446">
        <ele>506.20684814453</ele>
        <time>2020-07-10T02:36:31.673Z</time>
      </trkpt>
      <trkpt lat="39.92629051208" lon="-8.54608654976">
        <ele>504.68536376953</ele>
        <time>2020-07-10T02:36:42.426Z</time>
      </trkpt>
      <trkpt lat="39.9262905959" lon="-8.54608654976">
        <ele>504.68365478516</ele>
        <time>2020-07-10T02:36:53.179Z</time>
      </trkpt>
      <trkpt lat="39.92699056541" lon="-8.54682777868">
        <ele>501.96029663086</ele>
        <time>2020-07-10T02:37:03.950Z</time>
      </trkpt>
      <trkpt lat="39.92702007294" lon="-8.54685902596">
        <ele>501.58190917969</ele>
        <time>2020-07-10T02:37:14.721Z</time>
      </trkpt>
      <trkpt lat="39.92717027664" lon="-8.54710578918">
        <ele>499.41287231445</ele>
        <time>2020-07-10T02:37:25.497Z</time>
      </trkpt>
      <trkpt lat="39.92745006457" lon="-8.54782520793">
        <ele>494.55197143555</ele>
        <time>2020-07-10T02:37:36.286Z</time>
      </trkpt>
      <trkpt lat="39.92744998075" lon="-8.5478250403">
        <ele>494.55490112305</ele>
        <time>2020-07-10T02:37:47.075Z</time>
      </trkpt>
      <trkpt lat="39.92745006457" lon="-8.54782520793">
        <ele>494.55197143555</ele>
        <time>2020-07-10T02:37:57.864Z</time>
      </trkpt>
      <trkpt lat="39.92756719155" lon="-8.54812640703">
        <ele>489.65051269531</ele>
        <time>2020-07-10T02:38:08.658Z</time>
      </trkpt>
      <trkpt lat="39.927567753" lon="-8.54812785084">
        <ele>489.62878417969</ele>
        <time>2020-07-10T02:38:19.452Z</time>
      </trkpt>
      <trkpt lat="39.92769598961" lon="-8.54845762253">
        <ele>484.66107177734</ele>
        <time>2020-07-10T02:38:30.252Z</time>
      </trkpt>
      <trkpt lat="39.92783546448" lon="-8.54920864105">
        <ele>475.08712768555</ele>
        <time>2020-07-10T02:38:41.063Z</time>
      </trkpt>
      <trkpt lat="39.92813587189" lon="-8.54957342148">
        <ele>468.27053833008</ele>
        <time>2020-07-10T02:38:51.883Z</time>
      </trkpt>
      <trkpt lat="39.92853283882" lon="-8.54985237122">
        <ele>461.22259521484</ele>
        <time>2020-07-10T02:39:02.712Z</time>
      </trkpt>
      <trkpt lat="39.92890834808" lon="-8.55034589767">
        <ele>453.56781005859</ele>
        <time>2020-07-10T02:39:13.551Z</time>
      </trkpt>
      <trkpt lat="39.92969155312" lon="-8.55073213577">
        <ele>447.65475463867</ele>
        <time>2020-07-10T02:39:24.407Z</time>
      </trkpt>
      <trkpt lat="39.93034601212" lon="-8.55091452599">
        <ele>437.63583374023</ele>
        <time>2020-07-10T02:39:35.276Z</time>
      </trkpt>
      <trkpt lat="39.93100047112" lon="-8.55130076408">
        <ele>428.73678588867</ele>
        <time>2020-07-10T02:39:46.160Z</time>
      </trkpt>
      <trkpt lat="39.93163347244" lon="-8.55178356171">
        <ele>410.95797729492</ele>
        <time>2020-07-10T02:39:57.058Z</time>
      </trkpt>
      <trkpt lat="39.93234157562" lon="-8.55214834213">
        <ele>395.50241088867</ele>
        <time>2020-07-10T02:40:07.972Z</time>
      </trkpt>
      <trkpt lat="39.93283510208" lon="-8.5526740551">
        <ele>380.86395263672</ele>
        <time>2020-07-10T02:40:18.898Z</time>
      </trkpt>
      <trkpt lat="39.93318915367" lon="-8.55285644531">
        <ele>374.38555908203</ele>
        <time>2020-07-10T02:40:29.832Z</time>
      </trkpt>
      <trkpt lat="39.9334359169" lon="-8.55289936066">
        <ele>370.92288208008</ele>
        <time>2020-07-10T02:40:40.771Z</time>
      </trkpt>
      <trkpt lat="39.93341445923" lon="-8.55258822441">
        <ele>372.90740966797</ele>
        <time>2020-07-10T02:40:51.715Z</time>
      </trkpt>
      <trkpt lat="39.93350028992" lon="-8.5521697998">
        <ele>374.78677368164</ele>
        <time>2020-07-10T02:41:02.666Z</time>
      </trkpt>
      <trkpt lat="39.93346810341" lon="-8.55179429054">
        <ele>377.36328125</ele>
        <time>2020-07-10T02:41:13.622Z</time>
      </trkpt>
      <trkpt lat="39.93351101875" lon="-8.5513651371">
        <ele>377.8782043457</ele>
        <time>2020-07-10T02:41:24.585Z</time>
      </trkpt>
      <trkpt lat="39.93391871452" lon="-8.55085015297">
        <ele>374.89556884766</ele>
        <time>2020-07-10T02:41:35.559Z</time>
      </trkpt>
      <trkpt lat="39.93411183357" lon="-8.55039954185">
        <ele>374.04598999023</ele>
        <time>2020-07-10T02:41:46.541Z</time>
      </trkpt>
      <trkpt lat="39.93417620659" lon="-8.55004549026">
        <ele>373.38803100586</ele>
        <time>2020-07-10T02:41:57.529Z</time>
      </trkpt>
      <trkpt lat="39.93413329124" lon="-8.54958415031">
        <ele>372.27169799805</ele>
        <time>2020-07-10T02:42:08.524Z</time>
      </trkpt>
      <trkpt lat="39.93427276611" lon="-8.54897260666">
        <ele>367.42242431641</ele>
        <time>2020-07-10T02:42:19.529Z</time>
      </trkpt>
      <trkpt lat="39.9340903759" lon="-8.5485970974">
        <ele>365.32949829102</ele>
        <time>2020-07-10T02:42:30.541Z</time>
      </trkpt>
      <trkpt lat="39.93363976479" lon="-8.54831814766">
        <ele>366.96728515625</ele>
        <time>2020-07-10T02:42:41.563Z</time>
      </trkpt>
      <trkpt lat="39.93327498436" lon="-8.54759931564">
        <ele>366.99160766602</ele>
        <time>2020-07-10T02:42:52.598Z</time>
      </trkpt>
      <trkpt lat="39.93319996633" lon="-8.54715943336">
        <ele>364.38095092773</ele>
        <time>2020-07-10T02:43:03.640Z</time>
      </trkpt>
      <trkpt lat="39.93319988251" lon="-8.54715943336">
        <ele>364.38174438477</ele>
        <time>2020-07-10T02:43:14.682Z</time>
      </trkpt>
      <trkpt lat="39.93315696716" lon="-8.54699850082">
        <ele>362.66970825195</ele>
        <time>2020-07-10T02:43:25.726Z</time>
      </trkpt>
      <trkpt lat="39.93293166161" lon="-8.54680538177">
        <ele>362.76800537109</ele>
        <time>2020-07-10T02:43:36.776Z</time>
      </trkpt>
      <trkpt lat="39.93241667747" lon="-8.54609727859">
        <ele>365.6838684082</ele>
        <time>2020-07-10T02:43:47.841Z</time>
      </trkpt>
      <trkpt lat="39.93209481239" lon="-8.54549646378">
        <ele>363.60144042969</ele>
        <time>2020-07-10T02:43:58.917Z</time>
      </trkpt>
      <trkpt lat="39.93167638779" lon="-8.54511022568">
        <ele>366.62030029297</ele>
        <time>2020-07-10T02:44:10.003Z</time>
      </trkpt>
      <trkpt lat="39.93092545308" lon="-8.54458451271">
        <ele>370.77737426758</ele>
        <time>2020-07-10T02:44:21.106Z</time>
      </trkpt>
      <trkpt lat="39.92993840016" lon="-8.54390859604">
        <ele>376.86068725586</ele>
        <time>2020-07-10T02:44:32.232Z</time>
      </trkpt>
      <trkpt lat="39.92991685867" lon="-8.54381203651">
        <ele>375.93478393555</ele>
        <time>2020-07-10T02:44:43.359Z</time>
      </trkpt>
      <trkpt lat="39.92999196053" lon="-8.54332923889">
        <ele>372.95208740234</ele>
        <time>2020-07-10T02:44:54.494Z</time>
      </trkpt>
      <trkpt lat="39.93014216423" lon="-8.54312539101">
        <ele>373.04217529297</ele>
        <time>2020-07-10T02:45:05.633Z</time>
      </trkpt>
      <trkpt lat="39.9303996563" lon="-8.54295372963">
        <ele>371.70346069336</ele>
        <time>2020-07-10T02:45:16.778Z</time>
      </trkpt>
      <trkpt lat="39.93076452054" lon="-8.54238510132">
        <ele>377.45767211914</ele>
        <time>2020-07-10T02:45:27.934Z</time>
      </trkpt>
      <trkpt lat="39.93125796318" lon="-8.54196667671">
        <ele>382.38485717773</ele>
        <time>2020-07-10T02:45:39.102Z</time>
      </trkpt>
      <trkpt lat="39.93151553907" lon="-8.54163408279">
        <ele>384.39865112305</ele>
        <time>2020-07-10T02:45:50.277Z</time>
      </trkpt>
      <trkpt lat="39.93196615018" lon="-8.54050755501">
        <ele>391.38977050781</ele>
        <time>2020-07-10T02:46:01.472Z</time>
      </trkpt>
      <trkpt lat="39.93208408356" lon="-8.54004621506">
        <ele>392.02941894531</ele>
        <time>2020-07-10T02:46:12.674Z</time>
      </trkpt>
      <trkpt lat="39.93256688118" lon="-8.53899478912">
        <ele>383.95993041992</ele>
        <time>2020-07-10T02:46:23.895Z</time>
      </trkpt>
      <trkpt lat="39.93291020393" lon="-8.53876948357">
        <ele>376.99508666992</ele>
        <time>2020-07-10T02:46:35.124Z</time>
      </trkpt>
      <trkpt lat="39.93358612061" lon="-8.53783607483">
        <ele>371.44146728516</ele>
        <time>2020-07-10T02:46:46.373Z</time>
      </trkpt>
      <trkpt lat="39.93369340897" lon="-8.53752493858">
        <ele>370.99722290039</ele>
        <time>2020-07-10T02:46:57.627Z</time>
      </trkpt>
      <trkpt lat="39.93369987247" lon="-8.53747775621">
        <ele>370.93753051758</ele>
        <time>2020-07-10T02:47:08.882Z</time>
      </trkpt>
      <trkpt lat="39.93380069733" lon="-8.53674173355">
        <ele>370.02621459961</ele>
        <time>2020-07-10T02:47:20.148Z</time>
      </trkpt>
      <trkpt lat="39.93390798569" lon="-8.53648424149">
        <ele>368.12109375</ele>
        <time>2020-07-10T02:47:31.419Z</time>
      </trkpt>
      <trkpt lat="39.93391896598" lon="-8.53661315516">
        <ele>368.29870605469</ele>
        <time>2020-07-10T02:47:42.692Z</time>
      </trkpt>
      <trkpt lat="39.9339190498" lon="-8.53661332279">
        <ele>368.29809570312</ele>
        <time>2020-07-10T02:47:53.965Z</time>
      </trkpt>
      <trkpt lat="39.93391896598" lon="-8.53661315516">
        <ele>368.29870605469</ele>
        <time>2020-07-10T02:48:05.238Z</time>
      </trkpt>
      <trkpt lat="39.93390798569" lon="-8.53648424149">
        <ele>368.12109375</ele>
        <time>2020-07-10T02:48:16.513Z</time>
      </trkpt>
      <trkpt lat="39.93387884235" lon="-8.53628023799">
        <ele>367.98123168945</ele>
        <time>2020-07-10T02:48:27.791Z</time>
      </trkpt>
      <trkpt lat="39.93387861491" lon="-8.5362786459">
        <ele>367.98013305664</ele>
        <time>2020-07-10T02:48:39.069Z</time>
      </trkpt>
      <trkpt lat="39.93387579918" lon="-8.53625893593">
        <ele>367.96661376953</ele>
        <time>2020-07-10T02:48:50.347Z</time>
      </trkpt>
      <trkpt lat="39.93397516782" lon="-8.5362157326">
        <ele>366.67074584961</ele>
        <time>2020-07-10T02:49:01.627Z</time>
      </trkpt>
      <trkpt lat="39.93461608887" lon="-8.53593707085">
        <ele>359.08929443359</ele>
        <time>2020-07-10T02:49:12.921Z</time>
      </trkpt>
      <trkpt lat="39.93472337723" lon="-8.53619456291">
        <ele>357.23309326172</ele>
        <time>2020-07-10T02:49:24.219Z</time>
      </trkpt>
      <trkpt lat="39.93487358093" lon="-8.53640913963">
        <ele>355.37945556641</ele>
        <time>2020-07-10T02:49:35.522Z</time>
      </trkpt>
      <trkpt lat="39.93490437414" lon="-8.53643328392">
        <ele>355.07089233398</ele>
        <time>2020-07-10T02:49:46.825Z</time>
      </trkpt>
      <trkpt lat="39.93490551545" lon="-8.5364341788">
        <ele>355.05944824219</ele>
        <time>2020-07-10T02:49:58.128Z</time>
      </trkpt>
      <trkpt lat="39.9354767408" lon="-8.53688206902">
        <ele>348.84490966797</ele>
        <time>2020-07-10T02:50:09.445Z</time>
      </trkpt>
      <trkpt lat="39.93581771851" lon="-8.53714942932">
        <ele>347.88259887695</ele>
        <time>2020-07-10T02:50:20.770Z</time>
      </trkpt>
      <trkpt lat="39.93618249893" lon="-8.53760004044">
        <ele>344.57098388672</ele>
        <time>2020-07-10T02:50:32.105Z</time>
      </trkpt>
      <trkpt lat="39.93644077915" lon="-8.53758017278">
        <ele>346.46633911133</ele>
        <time>2020-07-10T02:50:43.445Z</time>
      </trkpt>
      <trkpt lat="39.93644210867" lon="-8.53758007051">
        <ele>346.47836303711</ele>
        <time>2020-07-10T02:50:54.785Z</time>
      </trkpt>
      <trkpt lat="39.93660092354" lon="-8.53756785393">
        <ele>347.91479492188</ele>
        <time>2020-07-10T02:51:06.128Z</time>
      </trkpt>
      <trkpt lat="39.93723392487" lon="-8.53783607483">
        <ele>351.55502319336</ele>
        <time>2020-07-10T02:51:17.485Z</time>
      </trkpt>
      <trkpt lat="39.93765234947" lon="-8.53780388832">
        <ele>357.38626098633</ele>
        <time>2020-07-10T02:51:28.850Z</time>
      </trkpt>
      <trkpt lat="39.93775963783" lon="-8.53799700737">
        <ele>356.30847167969</ele>
        <time>2020-07-10T02:51:40.219Z</time>
      </trkpt>
      <trkpt lat="39.9379528407" lon="-8.53900551796">
        <ele>345.94003295898</ele>
        <time>2020-07-10T02:51:51.604Z</time>
      </trkpt>
      <trkpt lat="39.93861794472" lon="-8.53821158409">
        <ele>360.36050415039</ele>
        <time>2020-07-10T02:52:03.007Z</time>
      </trkpt>
      <trkpt lat="39.93876814842" lon="-8.53811502457">
        <ele>362.66207885742</ele>
        <time>2020-07-10T02:52:14.413Z</time>
      </trkpt>
      <trkpt lat="39.93896126747" lon="-8.53809356689">
        <ele>363.20272827148</ele>
        <time>2020-07-10T02:52:25.823Z</time>
      </trkpt>
      <trkpt lat="39.9397444725" lon="-8.53825449944">
        <ele>365.15267944336</ele>
        <time>2020-07-10T02:52:37.249Z</time>
      </trkpt>
      <trkpt lat="39.93972301483" lon="-8.5381257534">
        <ele>366.36267089844</ele>
        <time>2020-07-10T02:52:48.677Z</time>
      </trkpt>
      <trkpt lat="39.94006633759" lon="-8.53801846504">
        <ele>370.42471313477</ele>
        <time>2020-07-10T02:53:00.112Z</time>
      </trkpt>
      <trkpt lat="39.94099974632" lon="-8.53814721107">
        <ele>381.40841674805</ele>
        <time>2020-07-10T02:53:11.566Z</time>
      </trkpt>
      <trkpt lat="39.94110321403" lon="-8.53823949259">
        <ele>382.1096496582</ele>
        <time>2020-07-10T02:53:23.022Z</time>
      </trkpt>
      <trkpt lat="39.94139671326" lon="-8.53850126266">
        <ele>384.48544311523</ele>
        <time>2020-07-10T02:53:34.485Z</time>
      </trkpt>
      <trkpt lat="39.94180239737" lon="-8.53897458874">
        <ele>388.28228759766</ele>
        <time>2020-07-10T02:53:45.959Z</time>
      </trkpt>
      <trkpt lat="39.94180248119" lon="-8.53897467256">
        <ele>388.28298950195</ele>
        <time>2020-07-10T02:53:57.433Z</time>
      </trkpt>
      <trkpt lat="39.94180239737" lon="-8.53897458874">
        <ele>388.28228759766</ele>
        <time>2020-07-10T02:54:08.907Z</time>
      </trkpt>
      <trkpt lat="39.94199507346" lon="-8.53919935468">
        <ele>389.70797729492</ele>
        <time>2020-07-10T02:54:20.386Z</time>
      </trkpt>
      <trkpt lat="39.94199606616" lon="-8.53920051272">
        <ele>389.71533203125</ele>
        <time>2020-07-10T02:54:31.865Z</time>
      </trkpt>
      <trkpt lat="39.94204044342" lon="-8.53925228119">
        <ele>390.04370117188</ele>
        <time>2020-07-10T02:54:43.345Z</time>
      </trkpt>
      <trkpt lat="39.94238376617" lon="-8.53949904442">
        <ele>391.62420654297</ele>
        <time>2020-07-10T02:54:54.833Z</time>
      </trkpt>
      <trkpt lat="39.94256615639" lon="-8.53954195976">
        <ele>393.13027954102</ele>
        <time>2020-07-10T02:55:06.325Z</time>
      </trkpt>
      <trkpt lat="39.94292020798" lon="-8.53945612907">
        <ele>397.47506713867</ele>
        <time>2020-07-10T02:55:17.824Z</time>
      </trkpt>
      <trkpt lat="39.94309186935" lon="-8.53929519653">
        <ele>399.59283447266</ele>
        <time>2020-07-10T02:55:29.327Z</time>
      </trkpt>
      <trkpt lat="39.9435210228" lon="-8.53787899017">
        <ele>413.04904174805</ele>
        <time>2020-07-10T02:55:40.854Z</time>
      </trkpt>
      <trkpt lat="39.94370341301" lon="-8.53775024414">
        <ele>414.25335693359</ele>
        <time>2020-07-10T02:55:52.385Z</time>
      </trkpt>
      <trkpt lat="39.9441111926" lon="-8.5378575325">
        <ele>413.22357177734</ele>
        <time>2020-07-10T02:56:03.924Z</time>
      </trkpt>
      <trkpt lat="39.94443297386" lon="-8.53866219521">
        <ele>403.14123535156</ele>
        <time>2020-07-10T02:56:15.477Z</time>
      </trkpt>
      <trkpt lat="39.94460463524" lon="-8.53885531425">
        <ele>400.10092163086</ele>
        <time>2020-07-10T02:56:27.035Z</time>
      </trkpt>
      <trkpt lat="39.94522690773" lon="-8.53917717934">
        <ele>402.21200561523</ele>
        <time>2020-07-10T02:56:38.606Z</time>
      </trkpt>
      <trkpt lat="39.94632124901" lon="-8.53946685791">
        <ele>406.3932800293</ele>
        <time>2020-07-10T02:56:50.199Z</time>
      </trkpt>
      <trkpt lat="39.94644999504" lon="-8.53987455368">
        <ele>403.22668457031</ele>
        <time>2020-07-10T02:57:01.799Z</time>
      </trkpt>
      <trkpt lat="39.94651436806" lon="-8.5407435894">
        <ele>395.84265136719</ele>
        <time>2020-07-10T02:57:13.413Z</time>
      </trkpt>
      <trkpt lat="39.94634270668" lon="-8.5412800312">
        <ele>390.78402709961</ele>
        <time>2020-07-10T02:57:25.036Z</time>
      </trkpt>
      <trkpt lat="39.9462890625" lon="-8.5420525074">
        <ele>387.26306152344</ele>
        <time>2020-07-10T02:57:36.671Z</time>
      </trkpt>
      <trkpt lat="39.94632124901" lon="-8.54230999947">
        <ele>387.30166625977</ele>
        <time>2020-07-10T02:57:48.310Z</time>
      </trkpt>
      <trkpt lat="39.9465572834" lon="-8.54315757751">
        <ele>386.12991333008</ele>
        <time>2020-07-10T02:57:59.962Z</time>
      </trkpt>
      <trkpt lat="39.94685769081" lon="-8.54377985001">
        <ele>384.41528320312</ele>
        <time>2020-07-10T02:58:11.626Z</time>
      </trkpt>
      <trkpt lat="39.9469772058" lon="-8.54416400462">
        <ele>384.46649169922</ele>
        <time>2020-07-10T02:58:23.296Z</time>
      </trkpt>
      <trkpt lat="39.94700789452" lon="-8.54426264763">
        <ele>384.47964477539</ele>
        <time>2020-07-10T02:58:34.968Z</time>
      </trkpt>
      <trkpt lat="39.94736202992" lon="-8.5446703434">
        <ele>386.1240234375</ele>
        <time>2020-07-10T02:58:46.649Z</time>
      </trkpt>
      <trkpt lat="39.94753360748" lon="-8.5450565815">
        <ele>386.48025512695</ele>
        <time>2020-07-10T02:58:58.337Z</time>
      </trkpt>
      <trkpt lat="39.94753402658" lon="-8.54505985044">
        <ele>386.47399902344</ele>
        <time>2020-07-10T02:59:10.025Z</time>
      </trkpt>
      <trkpt lat="39.94753402658" lon="-8.54505959898">
        <ele>386.47491455078</ele>
        <time>2020-07-10T02:59:21.713Z</time>
      </trkpt>
      <trkpt lat="39.94753402658" lon="-8.54505985044">
        <ele>386.47399902344</ele>
        <time>2020-07-10T02:59:33.401Z</time>
      </trkpt>
      <trkpt lat="39.94757393634" lon="-8.54539256881">
        <ele>385.27795410156</ele>
        <time>2020-07-10T02:59:45.094Z</time>
      </trkpt>
      <trkpt lat="39.94757414223" lon="-8.54539428526">
        <ele>385.27038574219</ele>
        <time>2020-07-10T02:59:56.787Z</time>
      </trkpt>
      <trkpt lat="39.9475979805" lon="-8.5455930233">
        <ele>384.13052368164</ele>
        <time>2020-07-10T03:00:08.483Z</time>
      </trkpt>
      <trkpt lat="39.94754433632" lon="-8.54654788971">
        <ele>375.3193359375</ele>
        <time>2020-07-10T03:00:20.194Z</time>
      </trkpt>
      <trkpt lat="39.94766235352" lon="-8.54708433151">
        <ele>371.59548950195</ele>
        <time>2020-07-10T03:00:31.914Z</time>
      </trkpt>
      <trkpt lat="39.94755506516" lon="-8.54780316353">
        <ele>364.21887207031</ele>
        <time>2020-07-10T03:00:43.645Z</time>
      </trkpt>
      <trkpt lat="39.94749069214" lon="-8.54927301407">
        <ele>347.72644042969</ele>
        <time>2020-07-10T03:00:55.399Z</time>
      </trkpt>
      <trkpt lat="39.94738438586" lon="-8.54953878142">
        <ele>343.08883666992</ele>
        <time>2020-07-10T03:01:07.157Z</time>
      </trkpt>
      <trkpt lat="39.94723320007" lon="-8.54991674423">
        <ele>336.37734985352</ele>
        <time>2020-07-10T03:01:18.922Z</time>
      </trkpt>
      <trkpt lat="39.9473848287" lon="-8.55063532479">
        <ele>329.74719238281</ele>
        <time>2020-07-10T03:01:30.698Z</time>
      </trkpt>
      <trkpt lat="39.9473848287" lon="-8.55063515715">
        <ele>329.74899291992</ele>
        <time>2020-07-10T03:01:42.474Z</time>
      </trkpt>
      <trkpt lat="39.9473848287" lon="-8.55063532479">
        <ele>329.74719238281</ele>
        <time>2020-07-10T03:01:54.250Z</time>
      </trkpt>
      <trkpt lat="39.94745330058" lon="-8.55095982625">
        <ele>327.85791015625</ele>
        <time>2020-07-10T03:02:06.031Z</time>
      </trkpt>
      <trkpt lat="39.94745365405" lon="-8.5509615014">
        <ele>327.84893798828</ele>
        <time>2020-07-10T03:02:17.812Z</time>
      </trkpt>
      <trkpt lat="39.9474799633" lon="-8.55108618736">
        <ele>327.36813354492</ele>
        <time>2020-07-10T03:02:29.595Z</time>
      </trkpt>
      <trkpt lat="39.94744777679" lon="-8.55179429054">
        <ele>323.8303527832</ele>
        <time>2020-07-10T03:02:41.389Z</time>
      </trkpt>
      <trkpt lat="39.94744786061" lon="-8.55179429054">
        <ele>323.83187866211</ele>
        <time>2020-07-10T03:02:53.183Z</time>
      </trkpt>
      <trkpt lat="39.94753360748" lon="-8.55220198631">
        <ele>323.09915161133</ele>
        <time>2020-07-10T03:03:04.984Z</time>
      </trkpt>
      <trkpt lat="39.9474799633" lon="-8.55262041092">
        <ele>319.62359619141</ele>
        <time>2020-07-10T03:03:16.791Z</time>
      </trkpt>
      <trkpt lat="39.9477481842" lon="-8.55277061462">
        <ele>323.66445922852</ele>
        <time>2020-07-10T03:03:28.604Z</time>
      </trkpt>
      <trkpt lat="39.94849920273" lon="-8.55272769928">
        <ele>324.5556640625</ele>
        <time>2020-07-10T03:03:40.432Z</time>
      </trkpt>
      <trkpt lat="39.94897127151" lon="-8.5528242588">
        <ele>319.63082885742</ele>
        <time>2020-07-10T03:03:52.270Z</time>
      </trkpt>
      <trkpt lat="39.9490571022" lon="-8.55295300484">
        <ele>317.21081542969</ele>
        <time>2020-07-10T03:04:04.110Z</time>
      </trkpt>
      <trkpt lat="39.94930386543" lon="-8.55382204056">
        <ele>304.66967773438</ele>
        <time>2020-07-10T03:04:15.965Z</time>
      </trkpt>
      <trkpt lat="39.94954315013" lon="-8.55395663724">
        <ele>301.1169128418</ele>
        <time>2020-07-10T03:04:27.825Z</time>
      </trkpt>
      <trkpt lat="39.94999051094" lon="-8.55420827866">
        <ele>292.96133422852</ele>
        <time>2020-07-10T03:04:39.695Z</time>
      </trkpt>
      <trkpt lat="39.95034456253" lon="-8.55418682098">
        <ele>287.67074584961</ele>
        <time>2020-07-10T03:04:51.572Z</time>
      </trkpt>
      <trkpt lat="39.95035554282" lon="-8.55426368304">
        <ele>286.66952514648</ele>
        <time>2020-07-10T03:05:03.450Z</time>
      </trkpt>
      <trkpt lat="39.95035562664" lon="-8.55426376686">
        <ele>286.66729736328</ele>
        <time>2020-07-10T03:05:15.328Z</time>
      </trkpt>
      <trkpt lat="39.95039820671" lon="-8.55456233025">
        <ele>282.71789550781</ele>
        <time>2020-07-10T03:05:27.211Z</time>
      </trkpt>
      <trkpt lat="39.95039422656" lon="-8.55459417178">
        <ele>282.41226196289</ele>
        <time>2020-07-10T03:05:39.094Z</time>
      </trkpt>
      <trkpt lat="39.95039401219" lon="-8.55459588677">
        <ele>282.39581298828</ele>
        <time>2020-07-10T03:05:50.977Z</time>
      </trkpt>
      <trkpt lat="39.95035529137" lon="-8.554905653">
        <ele>279.42254638672</ele>
        <time>2020-07-10T03:06:02.865Z</time>
      </trkpt>
      <trkpt lat="39.95019435883" lon="-8.55532407761">
        <ele>275.37850952148</ele>
        <time>2020-07-10T03:06:14.760Z</time>
      </trkpt>
      <trkpt lat="39.95038747787" lon="-8.55537772179">
        <ele>273.42999267578</ele>
        <time>2020-07-10T03:06:26.659Z</time>
      </trkpt>
      <trkpt lat="39.95069861412" lon="-8.55558156967">
        <ele>269.94277954102</ele>
        <time>2020-07-10T03:06:38.565Z</time>
      </trkpt>
      <trkpt lat="39.95082736015" lon="-8.5559463501">
        <ele>265.24719238281</ele>
        <time>2020-07-10T03:06:50.477Z</time>
      </trkpt>
      <trkpt lat="39.95078444481" lon="-8.55619311333">
        <ele>262.78018188477</ele>
        <time>2020-07-10T03:07:02.393Z</time>
      </trkpt>
      <trkpt lat="39.9512565136" lon="-8.55681538582">
        <ele>255.34341430664</ele>
        <time>2020-07-10T03:07:14.323Z</time>
      </trkpt>
      <trkpt lat="39.95214700699" lon="-8.55753421783">
        <ele>250.36090087891</ele>
        <time>2020-07-10T03:07:26.273Z</time>
      </trkpt>
      <trkpt lat="39.95317697525" lon="-8.55841398239">
        <ele>245.42236328125</ele>
        <time>2020-07-10T03:07:38.248Z</time>
      </trkpt>
      <trkpt lat="39.95392799377" lon="-8.55890750885">
        <ele>247.63604736328</ele>
        <time>2020-07-10T03:07:50.240Z</time>
      </trkpt>
      <trkpt lat="39.9542927742" lon="-8.55905771255">
        <ele>249.9626159668</ele>
        <time>2020-07-10T03:08:02.240Z</time>
      </trkpt>
      <trkpt lat="39.95475419797" lon="-8.55906844139">
        <ele>253.2843170166</ele>
        <time>2020-07-10T03:08:14.249Z</time>
      </trkpt>
      <trkpt lat="39.95486148633" lon="-8.55920791626">
        <ele>254.05665588379</ele>
        <time>2020-07-10T03:08:26.261Z</time>
      </trkpt>
      <trkpt lat="39.9550974369" lon="-8.55950832367">
        <ele>256.15255737305</ele>
        <time>2020-07-10T03:08:38.279Z</time>
      </trkpt>
      <trkpt lat="39.95520335318" lon="-8.55943947821">
        <ele>256.74984741211</ele>
        <time>2020-07-10T03:08:50.300Z</time>
      </trkpt>
      <trkpt lat="39.95531201363" lon="-8.5593688488">
        <ele>257.3625793457</ele>
        <time>2020-07-10T03:09:02.323Z</time>
      </trkpt>
      <trkpt lat="39.95573052205" lon="-8.55933666229">
        <ele>261.4690246582</ele>
        <time>2020-07-10T03:09:14.355Z</time>
      </trkpt>
      <trkpt lat="39.95591282845" lon="-8.55934739113">
        <ele>263.43759155273</ele>
        <time>2020-07-10T03:09:26.390Z</time>
      </trkpt>
      <trkpt lat="39.95608457364" lon="-8.55941176414">
        <ele>265.29214477539</ele>
        <time>2020-07-10T03:09:38.429Z</time>
      </trkpt>
      <trkpt lat="39.95608448982" lon="-8.55941176414">
        <ele>265.29122924805</ele>
        <time>2020-07-10T03:09:50.468Z</time>
      </trkpt>
      <trkpt lat="39.95608457364" lon="-8.55941176414">
        <ele>265.29214477539</ele>
        <time>2020-07-10T03:10:02.507Z</time>
      </trkpt>
      <trkpt lat="39.95629915036" lon="-8.55937957764">
        <ele>267.1408996582</ele>
        <time>2020-07-10T03:10:14.550Z</time>
      </trkpt>
      <trkpt lat="39.95634136856" lon="-8.55937699246">
        <ele>267.46340942383</ele>
        <time>2020-07-10T03:10:26.594Z</time>
      </trkpt>
      <trkpt lat="39.95634269916" lon="-8.55937691098">
        <ele>267.47357177734</ele>
        <time>2020-07-10T03:10:38.638Z</time>
      </trkpt>
      <trkpt lat="39.95682477951" lon="-8.55934739113">
        <ele>271.15649414062</ele>
        <time>2020-07-10T03:10:50.692Z</time>
      </trkpt>
      <trkpt lat="39.95686777867" lon="-8.55922937393">
        <ele>271.77157592773</ele>
        <time>2020-07-10T03:11:02.748Z</time>
      </trkpt>
      <trkpt lat="39.95715737343" lon="-8.55900406837">
        <ele>274.59173583984</ele>
        <time>2020-07-10T03:11:14.810Z</time>
      </trkpt>
      <trkpt lat="39.95732903481" lon="-8.55874657631">
        <ele>276.85726928711</ele>
        <time>2020-07-10T03:11:26.878Z</time>
      </trkpt>
      <trkpt lat="39.95755884482" lon="-8.55880227454">
        <ele>278.92944335938</ele>
        <time>2020-07-10T03:11:38.950Z</time>
      </trkpt>
      <trkpt lat="39.95768317021" lon="-8.558832407">
        <ele>279.47073364258</ele>
        <time>2020-07-10T03:11:51.025Z</time>
      </trkpt>
      <trkpt lat="39.95797276497" lon="-8.55861783028">
        <ele>282.31524658203</ele>
        <time>2020-07-10T03:12:03.107Z</time>
      </trkpt>
      <trkpt lat="39.95826244354" lon="-8.55827450752">
        <ele>286.80465698242</ele>
        <time>2020-07-10T03:12:15.196Z</time>
      </trkpt>
      <trkpt lat="39.95831239969" lon="-8.55828414671">
        <ele>286.88040161133</ele>
        <time>2020-07-10T03:12:27.286Z</time>
      </trkpt>
      <trkpt lat="39.9584877491" lon="-8.55831742287">
        <ele>287.15222167969</ele>
        <time>2020-07-10T03:12:39.380Z</time>
      </trkpt>
      <trkpt lat="39.95856686602" lon="-8.55829481814">
        <ele>287.68109130859</ele>
        <time>2020-07-10T03:12:51.476Z</time>
      </trkpt>
      <trkpt lat="39.95856816724" lon="-8.55829444636">
        <ele>287.68978881836</ele>
        <time>2020-07-10T03:13:03.572Z</time>
      </trkpt>
      <trkpt lat="39.95886325836" lon="-8.55821013451">
        <ele>287.93310546875</ele>
        <time>2020-07-10T03:13:15.674Z</time>
      </trkpt>
      <trkpt lat="39.95920658112" lon="-8.55783462524">
        <ele>288.28067016602</ele>
        <time>2020-07-10T03:13:27.785Z</time>
      </trkpt>
      <trkpt lat="39.95937824249" lon="-8.55753421783">
        <ele>290.35034179688</ele>
        <time>2020-07-10T03:13:39.901Z</time>
      </trkpt>
      <trkpt lat="39.96036529541" lon="-8.55635404587">
        <ele>289.94372558594</ele>
        <time>2020-07-10T03:13:52.044Z</time>
      </trkpt>
      <trkpt lat="39.96121287346" lon="-8.55488419533">
        <ele>289.24594116211</ele>
        <time>2020-07-10T03:14:04.215Z</time>
      </trkpt>
      <trkpt lat="39.96197462082" lon="-8.55527043343">
        <ele>274.71966552734</ele>
        <time>2020-07-10T03:14:16.403Z</time>
      </trkpt>
      <trkpt lat="39.96262916364" lon="-8.55584979057">
        <ele>271.49291992188</ele>
        <time>2020-07-10T03:14:28.607Z</time>
      </trkpt>
      <trkpt lat="39.96309041977" lon="-8.55604290962">
        <ele>276.54547119141</ele>
        <time>2020-07-10T03:14:40.820Z</time>
      </trkpt>
      <trkpt lat="39.96350884438" lon="-8.55603218079">
        <ele>281.75881958008</ele>
        <time>2020-07-10T03:14:53.042Z</time>
      </trkpt>
      <trkpt lat="39.96366977692" lon="-8.55576395988">
        <ele>289.98593139648</ele>
        <time>2020-07-10T03:15:05.269Z</time>
      </trkpt>
      <trkpt lat="39.96393799782" lon="-8.55558156967">
        <ele>294.55459594727</ele>
        <time>2020-07-10T03:15:17.502Z</time>
      </trkpt>
      <trkpt lat="39.96399766205" lon="-8.55551839661">
        <ele>295.8557434082</ele>
        <time>2020-07-10T03:15:29.736Z</time>
      </trkpt>
      <trkpt lat="39.96466755867" lon="-8.55480909348">
        <ele>313.44717407227</ele>
        <time>2020-07-10T03:15:41.988Z</time>
      </trkpt>
      <trkpt lat="39.96470544487" lon="-8.55481211096">
        <ele>312.79672241211</ele>
        <time>2020-07-10T03:15:54.240Z</time>
      </trkpt>
      <trkpt lat="39.96496283534" lon="-8.55483308044">
        <ele>308.51638793945</ele>
        <time>2020-07-10T03:16:06.498Z</time>
      </trkpt>
      <trkpt lat="39.96496416482" lon="-8.55483318875">
        <ele>308.49862670898</ele>
        <time>2020-07-10T03:16:18.756Z</time>
      </trkpt>
      <trkpt lat="39.96559023857" lon="-8.55488419533">
        <ele>301.65298461914</ele>
        <time>2020-07-10T03:16:31.026Z</time>
      </trkpt>
      <trkpt lat="39.96626615524" lon="-8.55483055115">
        <ele>294.12100219727</ele>
        <time>2020-07-10T03:16:43.310Z</time>
      </trkpt>
      <trkpt lat="39.96723175049" lon="-8.5545194149">
        <ele>281.27676391602</ele>
        <time>2020-07-10T03:16:55.614Z</time>
      </trkpt>
      <trkpt lat="39.96768244542" lon="-8.55424046516">
        <ele>273.83093261719</ele>
        <time>2020-07-10T03:17:07.928Z</time>
      </trkpt>
      <trkpt lat="39.96789693832" lon="-8.55394005775">
        <ele>274.60647583008</ele>
        <time>2020-07-10T03:17:20.248Z</time>
      </trkpt>
      <trkpt lat="39.96800422668" lon="-8.55367183685">
        <ele>277.52966308594</ele>
        <time>2020-07-10T03:17:32.573Z</time>
      </trkpt>
      <trkpt lat="39.9681428606" lon="-8.55253197694">
        <ele>290.52285766602</ele>
        <time>2020-07-10T03:17:44.915Z</time>
      </trkpt>
      <trkpt lat="39.96819097994" lon="-8.55213631303">
        <ele>291.84893798828</ele>
        <time>2020-07-10T03:17:57.263Z</time>
      </trkpt>
      <trkpt lat="39.96819734573" lon="-8.55208396912">
        <ele>291.8557434082</ele>
        <time>2020-07-10T03:18:09.612Z</time>
      </trkpt>
      <trkpt lat="39.96848031878" lon="-8.55146924034">
        <ele>280.81527709961</ele>
        <time>2020-07-10T03:18:21.972Z</time>
      </trkpt>
      <trkpt lat="39.9684804026" lon="-8.5514690727">
        <ele>280.81143188477</ele>
        <time>2020-07-10T03:18:34.332Z</time>
      </trkpt>
      <trkpt lat="39.96848031878" lon="-8.55146924034">
        <ele>280.81527709961</ele>
        <time>2020-07-10T03:18:46.692Z</time>
      </trkpt>
      <trkpt lat="39.96850848198" lon="-8.55140805244">
        <ele>279.51373291016</ele>
        <time>2020-07-10T03:18:59.053Z</time>
      </trkpt>
      <trkpt lat="39.96848702431" lon="-8.5512149334">
        <ele>280.55804443359</ele>
        <time>2020-07-10T03:19:11.417Z</time>
      </trkpt>
      <trkpt lat="39.96853292981" lon="-8.55118055848">
        <ele>278.46432495117</ele>
        <time>2020-07-10T03:19:23.782Z</time>
      </trkpt>
      <trkpt lat="39.96853408513" lon="-8.55117969336">
        <ele>278.41162109375</ele>
        <time>2020-07-10T03:19:36.147Z</time>
      </trkpt>
      <trkpt lat="39.96857578866" lon="-8.5511484649">
        <ele>276.50955200195</ele>
        <time>2020-07-10T03:19:48.513Z</time>
      </trkpt>
      <trkpt lat="39.9685759563" lon="-8.55114838108">
        <ele>276.50131225586</ele>
        <time>2020-07-10T03:20:00.879Z</time>
      </trkpt>
      <trkpt lat="39.96865868568" lon="-8.55108618736">
        <ele>272.73156738281</ele>
        <time>2020-07-10T03:20:13.247Z</time>
      </trkpt>
      <trkpt lat="39.96865179531" lon="-8.55087486087">
        <ele>276.00296020508</ele>
        <time>2020-07-10T03:20:25.619Z</time>
      </trkpt>
      <trkpt lat="39.96865173869" lon="-8.55087312436">
        <ele>276.02908325195</ele>
        <time>2020-07-10T03:20:37.991Z</time>
      </trkpt>
      <trkpt lat="39.96862649918" lon="-8.55009913445">
        <ele>284.59420776367</ele>
        <time>2020-07-10T03:20:50.375Z</time>
      </trkpt>
      <trkpt lat="39.96863956794" lon="-8.5501160469">
        <ele>284.09707641602</ele>
        <time>2020-07-10T03:21:02.759Z</time>
      </trkpt>
      <trkpt lat="39.96880888939" lon="-8.55033516884">
        <ele>279.18685913086</ele>
        <time>2020-07-10T03:21:15.148Z</time>
      </trkpt>
      <trkpt lat="39.9688410759" lon="-8.54963779449">
        <ele>283.05166625977</ele>
        <time>2020-07-10T03:21:27.547Z</time>
      </trkpt>
      <trkpt lat="39.96882322244" lon="-8.54947568849">
        <ele>282.17169189453</ele>
        <time>2020-07-10T03:21:39.949Z</time>
      </trkpt>
      <trkpt lat="39.96882322244" lon="-8.54947593994">
        <ele>282.17199707031</ele>
        <time>2020-07-10T03:21:52.351Z</time>
      </trkpt>
      <trkpt lat="39.96878669428" lon="-8.54914369394">
        <ele>283.6862487793</ele>
        <time>2020-07-10T03:22:04.758Z</time>
      </trkpt>
      <trkpt lat="39.96878650513" lon="-8.54914197355">
        <ele>283.70584106445</ele>
        <time>2020-07-10T03:22:17.165Z</time>
      </trkpt>
      <trkpt lat="39.9687230587" lon="-8.54856491089">
        <ele>291.68041992188</ele>
        <time>2020-07-10T03:22:29.581Z</time>
      </trkpt>
      <trkpt lat="39.96863722801" lon="-8.54806065559">
        <ele>302.07934570312</ele>
        <time>2020-07-10T03:22:42.005Z</time>
      </trkpt>
      <trkpt lat="39.96843338013" lon="-8.5476744175">
        <ele>304.1516418457</ele>
        <time>2020-07-10T03:22:54.436Z</time>
      </trkpt>
      <trkpt lat="39.96855139732" lon="-8.54722380638">
        <ele>315.77124023438</ele>
        <time>2020-07-10T03:23:06.875Z</time>
      </trkpt>
      <trkpt lat="39.96834754944" lon="-8.54684829712">
        <ele>321.11599731445</ele>
        <time>2020-07-10T03:23:19.321Z</time>
      </trkpt>
      <trkpt lat="39.96840119362" lon="-8.54674100876">
        <ele>323.90176391602</ele>
        <time>2020-07-10T03:23:31.769Z</time>
      </trkpt>
      <trkpt lat="39.96834754944" lon="-8.54659080505">
        <ele>325.52368164062</ele>
        <time>2020-07-10T03:23:44.219Z</time>
      </trkpt>
      <trkpt lat="39.96801495552" lon="-8.54631185532">
        <ele>328.19360351562</ele>
        <time>2020-07-10T03:23:56.677Z</time>
      </trkpt>
      <trkpt lat="39.96776819229" lon="-8.54595780373">
        <ele>334.85806274414</ele>
        <time>2020-07-10T03:24:09.142Z</time>
      </trkpt>
      <trkpt lat="39.9678003788" lon="-8.5458612442">
        <ele>336.82754516602</ele>
        <time>2020-07-10T03:24:21.609Z</time>
      </trkpt>
      <trkpt lat="39.96807932854" lon="-8.54577541351">
        <ele>340.17880249023</ele>
        <time>2020-07-10T03:24:34.082Z</time>
      </trkpt>
      <trkpt lat="39.96816515923" lon="-8.54562520981">
        <ele>343.39691162109</ele>
        <time>2020-07-10T03:24:46.558Z</time>
      </trkpt>
      <trkpt lat="39.96805787086" lon="-8.5450565815">
        <ele>352.56530761719</ele>
        <time>2020-07-10T03:24:59.043Z</time>
      </trkpt>
      <trkpt lat="39.96809005737" lon="-8.54485273361">
        <ele>355.35195922852</ele>
        <time>2020-07-10T03:25:11.531Z</time>
      </trkpt>
      <trkpt lat="39.96921658516" lon="-8.54447722435">
        <ele>368.423828125</ele>
        <time>2020-07-10T03:25:24.042Z</time>
      </trkpt>
      <trkpt lat="39.96966719627" lon="-8.54450941086">
        <ele>371.71688842773</ele>
        <time>2020-07-10T03:25:36.562Z</time>
      </trkpt>
      <trkpt lat="39.96984958649" lon="-8.54436993599">
        <ele>374.9221496582</ele>
        <time>2020-07-10T03:25:49.086Z</time>
      </trkpt>
      <trkpt lat="39.96966719627" lon="-8.54418754578">
        <ele>374.9084777832</ele>
        <time>2020-07-10T03:26:01.615Z</time>
      </trkpt>
      <trkpt lat="39.97009634972" lon="-8.54379057884">
        <ele>379.63269042969</ele>
        <time>2020-07-10T03:26:14.154Z</time>
      </trkpt>
      <trkpt lat="39.97031092644" lon="-8.54367256165">
        <ele>381.55633544922</ele>
        <time>2020-07-10T03:26:26.698Z</time>
      </trkpt>
      <trkpt lat="39.97099757195" lon="-8.54360818863">
        <ele>377.71496582031</ele>
        <time>2020-07-10T03:26:39.256Z</time>
      </trkpt>
      <trkpt lat="39.97121214867" lon="-8.54344725609">
        <ele>375.27835083008</ele>
        <time>2020-07-10T03:26:51.819Z</time>
      </trkpt>
      <trkpt lat="39.97129797935" lon="-8.5430932045">
        <ele>369.1799621582</ele>
        <time>2020-07-10T03:27:04.388Z</time>
      </trkpt>
      <trkpt lat="39.97100830078" lon="-8.54235291481">
        <ele>360.41427612305</ele>
        <time>2020-07-10T03:27:16.969Z</time>
      </trkpt>
      <trkpt lat="39.97181296349" lon="-8.54097962379">
        <ele>337.64733886719</ele>
        <time>2020-07-10T03:27:29.577Z</time>
      </trkpt>
      <trkpt lat="39.97198462486" lon="-8.54099035263">
        <ele>337.78894042969</ele>
        <time>2020-07-10T03:27:42.188Z</time>
      </trkpt>
      <trkpt lat="39.97210326154" lon="-8.54104881072">
        <ele>338.44259643555</ele>
        <time>2020-07-10T03:27:54.802Z</time>
      </trkpt>
      <trkpt lat="39.97272491455" lon="-8.54135513306">
        <ele>339.30816650391</ele>
        <time>2020-07-10T03:28:07.429Z</time>
      </trkpt>
      <trkpt lat="39.97291199863" lon="-8.54154657573">
        <ele>340.48275756836</ele>
        <time>2020-07-10T03:28:20.061Z</time>
      </trkpt>
      <trkpt lat="39.97291208245" lon="-8.54154674336">
        <ele>340.48428344727</ele>
        <time>2020-07-10T03:28:32.693Z</time>
      </trkpt>
      <trkpt lat="39.97291199863" lon="-8.54154657573">
        <ele>340.48275756836</ele>
        <time>2020-07-10T03:28:45.325Z</time>
      </trkpt>
      <trkpt lat="39.97304840088" lon="-8.5416862749">
        <ele>342.64810180664</ele>
        <time>2020-07-10T03:28:57.960Z</time>
      </trkpt>
      <trkpt lat="39.97311403795" lon="-8.54175349872">
        <ele>342.99780273438</ele>
        <time>2020-07-10T03:29:10.597Z</time>
      </trkpt>
      <trkpt lat="39.97311508557" lon="-8.54175457166">
        <ele>343.00170898438</ele>
        <time>2020-07-10T03:29:23.234Z</time>
      </trkpt>
      <trkpt lat="39.97317552567" lon="-8.54181647301">
        <ele>343.22802734375</ele>
        <time>2020-07-10T03:29:35.873Z</time>
      </trkpt>
      <trkpt lat="39.97351884842" lon="-8.54144096375">
        <ele>340.15151977539</ele>
        <time>2020-07-10T03:29:48.521Z</time>
      </trkpt>
      <trkpt lat="39.97379511595" lon="-8.54131632484">
        <ele>338.74087524414</ele>
        <time>2020-07-10T03:30:01.174Z</time>
      </trkpt>
      <trkpt lat="39.97379519977" lon="-8.54131632484">
        <ele>338.74066162109</ele>
        <time>2020-07-10T03:30:13.827Z</time>
      </trkpt>
      <trkpt lat="39.97379511595" lon="-8.54131632484">
        <ele>338.74087524414</ele>
        <time>2020-07-10T03:30:26.480Z</time>
      </trkpt>
      <trkpt lat="39.97385152616" lon="-8.54129076004">
        <ele>338.4521484375</ele>
        <time>2020-07-10T03:30:39.135Z</time>
      </trkpt>
      <trkpt lat="39.97404473933" lon="-8.54134202043">
        <ele>338.29602050781</ele>
        <time>2020-07-10T03:30:51.794Z</time>
      </trkpt>
      <trkpt lat="39.97404604448" lon="-8.54134236669">
        <ele>338.29498291016</ele>
        <time>2020-07-10T03:31:04.453Z</time>
      </trkpt>
      <trkpt lat="39.97437723912" lon="-8.54143023491">
        <ele>338.29373168945</ele>
        <time>2020-07-10T03:31:17.118Z</time>
      </trkpt>
      <trkpt lat="39.97454881668" lon="-8.54143023491">
        <ele>338.08786010742</ele>
        <time>2020-07-10T03:31:29.787Z</time>
      </trkpt>
      <trkpt lat="39.97484922409" lon="-8.54116201401">
        <ele>335.47250366211</ele>
        <time>2020-07-10T03:31:42.463Z</time>
      </trkpt>
      <trkpt lat="39.97529923332" lon="-8.54137679106">
        <ele>334.70501708984</ele>
        <time>2020-07-10T03:31:55.149Z</time>
      </trkpt>
      <trkpt lat="39.97532129288" lon="-8.54138731956">
        <ele>334.57147216797</ele>
        <time>2020-07-10T03:32:07.835Z</time>
      </trkpt>
      <trkpt lat="39.97618949041" lon="-8.54119922966">
        <ele>331.38595581055</ele>
        <time>2020-07-10T03:32:20.539Z</time>
      </trkpt>
      <trkpt lat="39.97621178627" lon="-8.54119420052">
        <ele>331.20211791992</ele>
        <time>2020-07-10T03:32:33.243Z</time>
      </trkpt>
      <trkpt lat="39.97616567469" lon="-8.54149392683">
        <ele>329.84664916992</ele>
        <time>2020-07-10T03:32:45.952Z</time>
      </trkpt>
      <trkpt lat="39.97616541253" lon="-8.54149563086">
        <ele>329.83895874023</ele>
        <time>2020-07-10T03:32:58.661Z</time>
      </trkpt>
      <trkpt lat="39.97614741325" lon="-8.54161262512">
        <ele>329.30987548828</ele>
        <time>2020-07-10T03:33:11.372Z</time>
      </trkpt>
      <trkpt lat="39.97621178627" lon="-8.54180574417">
        <ele>327.5334777832</ele>
        <time>2020-07-10T03:33:24.086Z</time>
      </trkpt>
      <trkpt lat="39.97683405876" lon="-8.54254603386">
        <ele>315.19973754883</ele>
        <time>2020-07-10T03:33:36.817Z</time>
      </trkpt>
      <trkpt lat="39.97702717781" lon="-8.54292154312">
        <ele>312.29788208008</ele>
        <time>2020-07-10T03:33:49.555Z</time>
      </trkpt>
      <trkpt lat="39.97725248337" lon="-8.54312539101">
        <ele>306.57693481445</ele>
        <time>2020-07-10T03:34:02.298Z</time>
      </trkpt>
      <trkpt lat="39.97759580612" lon="-8.54357600212">
        <ele>292.77014160156</ele>
        <time>2020-07-10T03:34:15.051Z</time>
      </trkpt>
      <trkpt lat="39.97790694237" lon="-8.54424118996">
        <ele>280.80874633789</ele>
        <time>2020-07-10T03:34:27.816Z</time>
      </trkpt>
      <trkpt lat="39.97804641724" lon="-8.54501366615">
        <ele>274.43762207031</ele>
        <time>2020-07-10T03:34:40.593Z</time>
      </trkpt>
      <trkpt lat="39.97859358788" lon="-8.5462474823">
        <ele>265.71459960938</ele>
        <time>2020-07-10T03:34:53.392Z</time>
      </trkpt>
      <trkpt lat="39.9786901474" lon="-8.54726672173">
        <ele>260.94329833984</ele>
        <time>2020-07-10T03:35:06.207Z</time>
      </trkpt>
      <trkpt lat="39.9788081646" lon="-8.54781389236">
        <ele>251.44789123535</ele>
        <time>2020-07-10T03:35:19.031Z</time>
      </trkpt>
      <trkpt lat="39.97901201248" lon="-8.54826450348">
        <ele>239.65437316895</ele>
        <time>2020-07-10T03:35:31.863Z</time>
      </trkpt>
      <trkpt lat="39.97937679291" lon="-8.54846835136">
        <ele>217.28204345703</ele>
        <time>2020-07-10T03:35:44.703Z</time>
      </trkpt>
      <trkpt lat="39.9794948101" lon="-8.54843616486">
        <ele>210.27941894531</ele>
        <time>2020-07-10T03:35:57.545Z</time>
      </trkpt>
      <trkpt lat="39.97956991196" lon="-8.5475564003">
        <ele>207.57855224609</ele>
        <time>2020-07-10T03:36:10.401Z</time>
      </trkpt>
      <trkpt lat="39.97965574265" lon="-8.54742765427">
        <ele>206.90907287598</ele>
        <time>2020-07-10T03:36:23.259Z</time>
      </trkpt>
      <trkpt lat="39.97976303101" lon="-8.54740619659">
        <ele>206.78034973145</ele>
        <time>2020-07-10T03:36:36.119Z</time>
      </trkpt>
      <trkpt lat="39.97987031937" lon="-8.54828596115">
        <ele>202.78190612793</ele>
        <time>2020-07-10T03:36:48.993Z</time>
      </trkpt>
      <trkpt lat="39.98017072678" lon="-8.54924082756">
        <ele>194.16014099121</ele>
        <time>2020-07-10T03:37:01.883Z</time>
      </trkpt>
      <trkpt lat="39.98028874397" lon="-8.55001330376">
        <ele>188.73501586914</ele>
        <time>2020-07-10T03:37:14.785Z</time>
      </trkpt>
      <trkpt lat="39.98027801514" lon="-8.55013132095">
        <ele>188.70927429199</ele>
        <time>2020-07-10T03:37:27.689Z</time>
      </trkpt>
      <trkpt lat="39.98007416725" lon="-8.55012059212">
        <ele>204.43940734863</ele>
        <time>2020-07-10T03:37:40.597Z</time>
      </trkpt>
      <trkpt lat="39.97995615005" lon="-8.55043172836">
        <ele>216.19900512695</ele>
        <time>2020-07-10T03:37:53.510Z</time>
      </trkpt>
      <trkpt lat="39.97997760773" lon="-8.55078577995">
        <ele>217.95738220215</ele>
        <time>2020-07-10T03:38:06.429Z</time>
      </trkpt>
      <trkpt lat="39.98032093048" lon="-8.55130076408">
        <ele>196.46412658691</ele>
        <time>2020-07-10T03:38:19.358Z</time>
      </trkpt>
      <trkpt lat="39.9805355072" lon="-8.5521376133">
        <ele>193.04183959961</ele>
        <time>2020-07-10T03:38:32.301Z</time>
      </trkpt>
      <trkpt lat="39.98073935509" lon="-8.55243802071">
        <ele>184.48086547852</ele>
        <time>2020-07-10T03:38:45.250Z</time>
      </trkpt>
      <trkpt lat="39.98072862625" lon="-8.55275988579">
        <ele>181.97821044922</ele>
        <time>2020-07-10T03:38:58.204Z</time>
      </trkpt>
      <trkpt lat="39.98059988022" lon="-8.55292081833">
        <ele>186.76675415039</ele>
        <time>2020-07-10T03:39:11.161Z</time>
      </trkpt>
      <trkpt lat="39.98056769371" lon="-8.55374693871">
        <ele>183.14869689941</ele>
        <time>2020-07-10T03:39:24.131Z</time>
      </trkpt>
      <trkpt lat="39.98062133789" lon="-8.55411171913">
        <ele>177.70364379883</ele>
        <time>2020-07-10T03:39:37.107Z</time>
      </trkpt>
      <trkpt lat="39.9807715416" lon="-8.55439066887">
        <ele>169.08415222168</ele>
        <time>2020-07-10T03:39:50.088Z</time>
      </trkpt>
      <trkpt lat="39.98079299927" lon="-8.55499148369">
        <ele>159.01365661621</ele>
        <time>2020-07-10T03:40:03.078Z</time>
      </trkpt>
      <trkpt lat="39.98088955879" lon="-8.55539917946">
        <ele>150.24542236328</ele>
        <time>2020-07-10T03:40:16.075Z</time>
      </trkpt>
      <trkpt lat="39.98075008392" lon="-8.55573177338">
        <ele>150.13070678711</ele>
        <time>2020-07-10T03:40:29.078Z</time>
      </trkpt>
      <trkpt lat="39.98072864592" lon="-8.556142193">
        <ele>147.81077575684</ele>
        <time>2020-07-10T03:40:42.087Z</time>
      </trkpt>
      <trkpt lat="39.98067498207" lon="-8.55716943741">
        <ele>136.76054382324</ele>
        <time>2020-07-10T03:40:55.112Z</time>
      </trkpt>
      <trkpt lat="39.98078444973" lon="-8.55718779378">
        <ele>134.59223937988</ele>
        <time>2020-07-10T03:41:08.139Z</time>
      </trkpt>
      <trkpt lat="39.98078461736" lon="-8.55718779378">
        <ele>134.58921813965</ele>
        <time>2020-07-10T03:41:21.166Z</time>
      </trkpt>
      <trkpt lat="39.9808037281" lon="-8.55719089508">
        <ele>134.21180725098</ele>
        <time>2020-07-10T03:41:34.193Z</time>
      </trkpt>
      <trkpt lat="39.98092143207" lon="-8.55745993238">
        <ele>130.23991394043</ele>
        <time>2020-07-10T03:41:47.225Z</time>
      </trkpt>
      <trkpt lat="39.98092209242" lon="-8.55746144176">
        <ele>130.21952819824</ele>
        <time>2020-07-10T03:42:00.257Z</time>
      </trkpt>
      <trkpt lat="39.98095393181" lon="-8.55753421783">
        <ele>129.23722839355</ele>
        <time>2020-07-10T03:42:13.291Z</time>
      </trkpt>
      <trkpt lat="39.98112559319" lon="-8.55808138847">
        <ele>124.91883087158</ele>
        <time>2020-07-10T03:42:26.334Z</time>
      </trkpt>
      <trkpt lat="39.98154401779" lon="-8.55888605118">
        <ele>127.89485168457</ele>
        <time>2020-07-10T03:42:39.392Z</time>
      </trkpt>
      <trkpt lat="39.98193025589" lon="-8.56048464775">
        <ele>127.53849029541</ele>
        <time>2020-07-10T03:42:52.475Z</time>
      </trkpt>
      <trkpt lat="39.98199462891" lon="-8.56059193611">
        <ele>127.87317657471</ele>
        <time>2020-07-10T03:43:05.560Z</time>
      </trkpt>
      <trkpt lat="39.98229512013" lon="-8.56073141098">
        <ele>131.16963195801</ele>
        <time>2020-07-10T03:43:18.652Z</time>
      </trkpt>
      <trkpt lat="39.98275637627" lon="-8.56088161469">
        <ele>133.90667724609</ele>
        <time>2020-07-10T03:43:31.753Z</time>
      </trkpt>
      <trkpt lat="39.98305678368" lon="-8.56139659882">
        <ele>133.22232055664</ele>
        <time>2020-07-10T03:43:44.864Z</time>
      </trkpt>
      <trkpt lat="39.98378634453" lon="-8.56151461601">
        <ele>141.79122924805</ele>
        <time>2020-07-10T03:43:57.990Z</time>
      </trkpt>
      <trkpt lat="39.98429059982" lon="-8.56191158295">
        <ele>147.17010498047</ele>
        <time>2020-07-10T03:44:11.128Z</time>
      </trkpt>
      <trkpt lat="39.98504161835" lon="-8.56230854988">
        <ele>154.30838012695</ele>
        <time>2020-07-10T03:44:24.282Z</time>
      </trkpt>
      <trkpt lat="39.98554595746" lon="-8.56220126152">
        <ele>157.37007141113</ele>
        <time>2020-07-10T03:44:37.446Z</time>
      </trkpt>
      <trkpt lat="39.98589992523" lon="-8.56222271919">
        <ele>159.72564697266</ele>
        <time>2020-07-10T03:44:50.617Z</time>
      </trkpt>
      <trkpt lat="39.98608231544" lon="-8.56245875359">
        <ele>158.83744812012</ele>
        <time>2020-07-10T03:45:03.793Z</time>
      </trkpt>
      <trkpt lat="39.98673677444" lon="-8.56224417686">
        <ele>161.7241973877</ele>
        <time>2020-07-10T03:45:16.983Z</time>
      </trkpt>
      <trkpt lat="39.98746641912" lon="-8.56245875359">
        <ele>169.71243286133</ele>
        <time>2020-07-10T03:45:30.188Z</time>
      </trkpt>
      <trkpt lat="39.98762726784" lon="-8.56227636337">
        <ele>170.62567138672</ele>
        <time>2020-07-10T03:45:43.397Z</time>
      </trkpt>
      <trkpt lat="39.98780965805" lon="-8.56183648109">
        <ele>171.00796508789</ele>
        <time>2020-07-10T03:45:56.614Z</time>
      </trkpt>
      <trkpt lat="39.98803496361" lon="-8.56179356575">
        <ele>173.27351379395</ele>
        <time>2020-07-10T03:46:09.835Z</time>
      </trkpt>
      <trkpt lat="39.98820662498" lon="-8.56175065041">
        <ele>175.02416992188</ele>
        <time>2020-07-10T03:46:23.060Z</time>
      </trkpt>
      <trkpt lat="39.98833438148" lon="-8.56171998891">
        <ele>176.32400512695</ele>
        <time>2020-07-10T03:46:36.287Z</time>
      </trkpt>
      <trkpt lat="39.98847484589" lon="-8.56168627739">
        <ele>177.75312805176</ele>
        <time>2020-07-10T03:46:49.517Z</time>
      </trkpt>
      <trkpt lat="39.98854994774" lon="-8.56128931046">
        <ele>179.42654418945</ele>
        <time>2020-07-10T03:47:02.753Z</time>
      </trkpt>
      <trkpt lat="39.9888289813" lon="-8.56090307236">
        <ele>182.48489379883</ele>
        <time>2020-07-10T03:47:15.998Z</time>
      </trkpt>
      <trkpt lat="39.98886351474" lon="-8.56088002212">
        <ele>182.69206237793</ele>
        <time>2020-07-10T03:47:29.243Z</time>
      </trkpt>
      <trkpt lat="39.98886359856" lon="-8.56088002212">
        <ele>182.69256591797</ele>
        <time>2020-07-10T03:47:42.488Z</time>
      </trkpt>
      <trkpt lat="39.98886351474" lon="-8.56088002212">
        <ele>182.69206237793</ele>
        <time>2020-07-10T03:47:55.733Z</time>
      </trkpt>
      <trkpt lat="39.98909182678" lon="-8.56072783255">
        <ele>183.91334533691</ele>
        <time>2020-07-10T03:48:08.984Z</time>
      </trkpt>
      <trkpt lat="39.98909309301" lon="-8.56072698849">
        <ele>183.919921875</ele>
        <time>2020-07-10T03:48:22.235Z</time>
      </trkpt>
      <trkpt lat="39.98921521939" lon="-8.56064558029">
        <ele>184.55485534668</ele>
        <time>2020-07-10T03:48:35.488Z</time>
      </trkpt>
      <trkpt lat="39.98933323659" lon="-8.56042027473">
        <ele>185.50991821289</ele>
        <time>2020-07-10T03:48:48.746Z</time>
      </trkpt>
      <trkpt lat="39.98933315277" lon="-8.56018424034">
        <ele>185.50941467285</ele>
        <time>2020-07-10T03:49:02.007Z</time>
      </trkpt>
      <trkpt lat="39.98906501569" lon="-8.55911135674">
        <ele>189.64241027832</ele>
        <time>2020-07-10T03:49:15.285Z</time>
      </trkpt>
      <trkpt lat="39.98906501569" lon="-8.55886459351">
        <ele>191.62393188477</ele>
        <time>2020-07-10T03:49:28.567Z</time>
      </trkpt>
      <trkpt lat="39.98929023743" lon="-8.55873584747">
        <ele>195.52319335938</ele>
        <time>2020-07-10T03:49:41.854Z</time>
      </trkpt>
      <trkpt lat="39.98962291516" lon="-8.55874657631">
        <ele>199.11848449707</ele>
        <time>2020-07-10T03:49:55.148Z</time>
      </trkpt>
      <trkpt lat="39.98968116808" lon="-8.55876599807">
        <ele>199.4912109375</ele>
        <time>2020-07-10T03:50:08.443Z</time>
      </trkpt>
      <trkpt lat="39.99000906944" lon="-8.55887532234">
        <ele>201.58918762207</ele>
        <time>2020-07-10T03:50:21.745Z</time>
      </trkpt>
      <trkpt lat="39.99047040939" lon="-8.558832407">
        <ele>205.25563049316</ele>
        <time>2020-07-10T03:50:35.056Z</time>
      </trkpt>
      <trkpt lat="39.99055976048" lon="-8.55876669288">
        <ele>206.25848388672</ele>
        <time>2020-07-10T03:50:48.369Z</time>
      </trkpt>
      <trkpt lat="39.9905598443" lon="-8.55876669288">
        <ele>206.25868225098</ele>
        <time>2020-07-10T03:51:01.682Z</time>
      </trkpt>
      <trkpt lat="39.99055976048" lon="-8.55876669288">
        <ele>206.25848388672</ele>
        <time>2020-07-10T03:51:14.995Z</time>
      </trkpt>
      <trkpt lat="39.99067425728" lon="-8.55868220329">
        <ele>207.54693603516</ele>
        <time>2020-07-10T03:51:28.311Z</time>
      </trkpt>
      <trkpt lat="39.99074988853" lon="-8.55855259846">
        <ele>209.28341674805</ele>
        <time>2020-07-10T03:51:41.629Z</time>
      </trkpt>
      <trkpt lat="39.9907507501" lon="-8.55855112204">
        <ele>209.30319213867</ele>
        <time>2020-07-10T03:51:54.947Z</time>
      </trkpt>
      <trkpt lat="39.99089964665" lon="-8.55829596519">
        <ele>211.95411682129</ele>
        <time>2020-07-10T03:52:08.270Z</time>
      </trkpt>
      <trkpt lat="39.99093174934" lon="-8.55822086334">
        <ele>212.66191101074</ele>
        <time>2020-07-10T03:52:21.595Z</time>
      </trkpt>
      <trkpt lat="39.99104976654" lon="-8.55753421783">
        <ele>219.5973815918</ele>
        <time>2020-07-10T03:52:34.930Z</time>
      </trkpt>
      <trkpt lat="39.99086737633" lon="-8.55639696121">
        <ele>231.18942260742</ele>
        <time>2020-07-10T03:52:48.283Z</time>
      </trkpt>
      <trkpt lat="39.99089956284" lon="-8.556214571">
        <ele>232.51902770996</ele>
        <time>2020-07-10T03:53:01.639Z</time>
      </trkpt>
      <trkpt lat="39.99102839269" lon="-8.55598926544">
        <ele>234.25840759277</ele>
        <time>2020-07-10T03:53:14.999Z</time>
      </trkpt>
      <trkpt lat="39.99209046364" lon="-8.55399370193">
        <ele>252.26654052734</ele>
        <time>2020-07-10T03:53:28.397Z</time>
      </trkpt>
      <trkpt lat="39.99202609062" lon="-8.55365037918">
        <ele>259.11660766602</ele>
        <time>2020-07-10T03:53:41.800Z</time>
      </trkpt>
      <trkpt lat="39.99199390411" lon="-8.55324268341">
        <ele>270.55725097656</ele>
        <time>2020-07-10T03:53:55.209Z</time>
      </trkpt>
      <trkpt lat="39.99203681946" lon="-8.55304956436">
        <ele>275.57748413086</ele>
        <time>2020-07-10T03:54:08.622Z</time>
      </trkpt>
      <trkpt lat="39.99303460121" lon="-8.55206251144">
        <ele>303.49340820312</ele>
        <time>2020-07-10T03:54:22.060Z</time>
      </trkpt>
      <trkpt lat="39.99331355095" lon="-8.5518693924">
        <ele>310.00686645508</ele>
        <time>2020-07-10T03:54:35.504Z</time>
      </trkpt>
      <trkpt lat="39.99375343323" lon="-8.55174064636">
        <ele>314.10818481445</ele>
        <time>2020-07-10T03:54:48.957Z</time>
      </trkpt>
      <trkpt lat="39.9938929081" lon="-8.55161190033">
        <ele>319.19277954102</ele>
        <time>2020-07-10T03:55:02.413Z</time>
      </trkpt>
      <trkpt lat="39.99282002449" lon="-8.55120420456">
        <ele>343.19454956055</ele>
        <time>2020-07-10T03:55:15.892Z</time>
      </trkpt>
      <trkpt lat="39.992197752" lon="-8.55118274689">
        <ele>351.20324707031</ele>
        <time>2020-07-10T03:55:29.383Z</time>
      </trkpt>
      <trkpt lat="39.99211192131" lon="-8.55112910271">
        <ele>354.44711303711</ele>
        <time>2020-07-10T03:55:42.876Z</time>
      </trkpt>
      <trkpt lat="39.99218702316" lon="-8.55107545853">
        <ele>355.95318603516</ele>
        <time>2020-07-10T03:55:56.371Z</time>
      </trkpt>
      <trkpt lat="39.99240159988" lon="-8.55110764503">
        <ele>352.24591064453</ele>
        <time>2020-07-10T03:56:09.870Z</time>
      </trkpt>
      <trkpt lat="39.99250888824" lon="-8.55106472969">
        <ele>352.94104003906</ele>
        <time>2020-07-10T03:56:23.371Z</time>
      </trkpt>
      <trkpt lat="39.99279856682" lon="-8.55094671249">
        <ele>354.17504882812</ele>
        <time>2020-07-10T03:56:36.878Z</time>
      </trkpt>
      <trkpt lat="39.99279865064" lon="-8.55094671249">
        <ele>354.17413330078</ele>
        <time>2020-07-10T03:56:50.385Z</time>
      </trkpt>
      <trkpt lat="39.99366924692" lon="-8.55073591968">
        <ele>353.48400878906</ele>
        <time>2020-07-10T03:57:03.910Z</time>
      </trkpt>
      <trkpt lat="39.99381780624" lon="-8.55069994926">
        <ele>354.39242553711</ele>
        <time>2020-07-10T03:57:17.438Z</time>
      </trkpt>
      <trkpt lat="39.99428987503" lon="-8.55089306831">
        <ele>347.9020690918</ele>
        <time>2020-07-10T03:57:30.976Z</time>
      </trkpt>
      <trkpt lat="39.99454636127" lon="-8.55094067752">
        <ele>345.70932006836</ele>
        <time>2020-07-10T03:57:44.519Z</time>
      </trkpt>
      <trkpt lat="39.99454619363" lon="-8.55094067752">
        <ele>345.70950317383</ele>
        <time>2020-07-10T03:57:58.062Z</time>
      </trkpt>
      <trkpt lat="39.99454636127" lon="-8.55094067752">
        <ele>345.70932006836</ele>
        <time>2020-07-10T03:58:11.605Z</time>
      </trkpt>
      <trkpt lat="39.99479981921" lon="-8.55098770611">
        <ele>342.02719116211</ele>
        <time>2020-07-10T03:58:25.153Z</time>
      </trkpt>
      <trkpt lat="39.99480122713" lon="-8.55098796735">
        <ele>342.00439453125</ele>
        <time>2020-07-10T03:58:38.701Z</time>
      </trkpt>
      <trkpt lat="39.99533057213" lon="-8.55108618736">
        <ele>333.43408203125</ele>
        <time>2020-07-10T03:58:52.260Z</time>
      </trkpt>
      <trkpt lat="39.99617815018" lon="-8.55100035667">
        <ele>322.56707763672</ele>
        <time>2020-07-10T03:59:05.836Z</time>
      </trkpt>
      <trkpt lat="39.99690771103" lon="-8.55074286461">
        <ele>316.17303466797</ele>
        <time>2020-07-10T03:59:19.427Z</time>
      </trkpt>
      <trkpt lat="39.99716520309" lon="-8.55066776276">
        <ele>313.779296875</ele>
        <time>2020-07-10T03:59:33.023Z</time>
      </trkpt>
      <trkpt lat="39.99765872955" lon="-8.55024933815">
        <ele>322.14639282227</ele>
        <time>2020-07-10T03:59:46.631Z</time>
      </trkpt>
      <trkpt lat="39.99822735786" lon="-8.55013132095">
        <ele>321.02133178711</ele>
        <time>2020-07-10T04:00:00.251Z</time>
      </trkpt>
      <trkpt lat="39.99897837639" lon="-8.54977726936">
        <ele>323.55017089844</ele>
        <time>2020-07-10T04:00:13.887Z</time>
      </trkpt>
      <trkpt lat="39.99911785126" lon="-8.54958415031">
        <ele>325.63552856445</ele>
        <time>2020-07-10T04:00:27.527Z</time>
      </trkpt>
      <trkpt lat="39.99920368195" lon="-8.54920864105">
        <ele>331.78704833984</ele>
        <time>2020-07-10T04:00:41.173Z</time>
      </trkpt>
      <trkpt lat="39.9990427494" lon="-8.54888677597">
        <ele>339.12435913086</ele>
        <time>2020-07-10T04:00:54.825Z</time>
      </trkpt>
      <trkpt lat="39.9990427494" lon="-8.54862928391">
        <ele>342.21374511719</ele>
        <time>2020-07-10T04:01:08.481Z</time>
      </trkpt>
      <trkpt lat="39.99931097031" lon="-8.54823231697">
        <ele>344.15646362305</ele>
        <time>2020-07-10T04:01:22.145Z</time>
      </trkpt>
      <trkpt lat="39.99956846237" lon="-8.5480928421">
        <ele>341.77505493164</ele>
        <time>2020-07-10T04:01:35.814Z</time>
      </trkpt>
      <trkpt lat="40.0004696846" lon="-8.54729890823">
        <ele>321.25881958008</ele>
        <time>2020-07-10T04:01:49.505Z</time>
      </trkpt>
      <trkpt lat="40.00060915947" lon="-8.54679465294">
        <ele>323.9382019043</ele>
        <time>2020-07-10T04:02:03.204Z</time>
      </trkpt>
      <trkpt lat="40.00051259995" lon="-8.54656934738">
        <ele>326.39819335938</ele>
        <time>2020-07-10T04:02:16.907Z</time>
      </trkpt>
      <trkpt lat="40.0008559227" lon="-8.54538917542">
        <ele>335.95309448242</ele>
        <time>2020-07-10T04:02:30.630Z</time>
      </trkpt>
      <trkpt lat="40.00107049942" lon="-8.54503512383">
        <ele>338.34307861328</ele>
        <time>2020-07-10T04:02:44.360Z</time>
      </trkpt>
      <trkpt lat="40.0013923645" lon="-8.54419827461">
        <ele>340.32046508789</ele>
        <time>2020-07-10T04:02:58.104Z</time>
      </trkpt>
      <trkpt lat="40.00178933144" lon="-8.54349017143">
        <ele>342.93475341797</ele>
        <time>2020-07-10T04:03:11.861Z</time>
      </trkpt>
      <trkpt lat="40.00193953514" lon="-8.54308247566">
        <ele>346.89947509766</ele>
        <time>2020-07-10T04:03:25.625Z</time>
      </trkpt>
      <trkpt lat="40.0020468235" lon="-8.54225635529">
        <ele>358.49356079102</ele>
        <time>2020-07-10T04:03:39.402Z</time>
      </trkpt>
      <trkpt lat="40.00251889229" lon="-8.54156970978">
        <ele>360.34201049805</ele>
        <time>2020-07-10T04:03:53.193Z</time>
      </trkpt>
      <trkpt lat="40.00274419785" lon="-8.54090452194">
        <ele>364.34945678711</ele>
        <time>2020-07-10T04:04:06.996Z</time>
      </trkpt>
      <trkpt lat="40.00274419785" lon="-8.54057192802">
        <ele>367.14276123047</ele>
        <time>2020-07-10T04:04:20.804Z</time>
      </trkpt>
      <trkpt lat="40.0025832653" lon="-8.5397028923">
        <ele>372.98706054688</ele>
        <time>2020-07-10T04:04:34.625Z</time>
      </trkpt>
      <trkpt lat="40.00208973885" lon="-8.53906989098">
        <ele>368.10137939453</ele>
        <time>2020-07-10T04:04:48.460Z</time>
      </trkpt>
      <trkpt lat="40.00241160393" lon="-8.53871583939">
        <ele>367.86968994141</ele>
        <time>2020-07-10T04:05:02.304Z</time>
      </trkpt>
      <trkpt lat="40.0025510788" lon="-8.53867292404">
        <ele>368.56478881836</ele>
        <time>2020-07-10T04:05:16.151Z</time>
      </trkpt>
      <trkpt lat="40.00289440155" lon="-8.53805065155">
        <ele>364.37173461914</ele>
        <time>2020-07-10T04:05:30.009Z</time>
      </trkpt>
      <trkpt lat="40.00348448753" lon="-8.53760004044">
        <ele>360.49185180664</ele>
        <time>2020-07-10T04:05:43.881Z</time>
      </trkpt>
      <trkpt lat="40.00435352325" lon="-8.5373210907">
        <ele>359.83322143555</ele>
        <time>2020-07-10T04:05:57.771Z</time>
      </trkpt>
      <trkpt lat="40.00470757484" lon="-8.53664517403">
        <ele>352.20278930664</ele>
        <time>2020-07-10T04:06:11.673Z</time>
      </trkpt>
      <trkpt lat="40.0049328804" lon="-8.53644132614">
        <ele>350.5422668457</ele>
        <time>2020-07-10T04:06:25.581Z</time>
      </trkpt>
      <trkpt lat="40.00528693199" lon="-8.53629112244">
        <ele>350.14108276367</ele>
        <time>2020-07-10T04:06:39.496Z</time>
      </trkpt>
      <trkpt lat="40.00582345761" lon="-8.53571176529">
        <ele>343.912109375</ele>
        <time>2020-07-10T04:06:53.425Z</time>
      </trkpt>
      <trkpt lat="40.00582337379" lon="-8.53571176529">
        <ele>343.91229248047</ele>
        <time>2020-07-10T04:07:07.354Z</time>
      </trkpt>
      <trkpt lat="40.00584491529" lon="-8.53569030762">
        <ele>343.70614624023</ele>
        <time>2020-07-10T04:07:21.284Z</time>
      </trkpt>
      <trkpt lat="40.00584483147" lon="-8.53569030762">
        <ele>343.7063293457</ele>
        <time>2020-07-10T04:07:35.214Z</time>
      </trkpt>
      <trkpt lat="40.00596284866" lon="-8.53559374809">
        <ele>342.72802734375</ele>
        <time>2020-07-10T04:07:49.147Z</time>
      </trkpt>
      <trkpt lat="40.00594139099" lon="-8.53534698486">
        <ele>341.65097045898</ele>
        <time>2020-07-10T04:08:03.083Z</time>
      </trkpt>
      <trkpt lat="40.00596293248" lon="-8.53521823883">
        <ele>341.18698120117</ele>
        <time>2020-07-10T04:08:17.021Z</time>
      </trkpt>
      <trkpt lat="40.0059735775" lon="-8.53472471237">
        <ele>338.85266113281</ele>
        <time>2020-07-10T04:08:30.967Z</time>
      </trkpt>
      <trkpt lat="40.00608086586" lon="-8.53422045708">
        <ele>335.50250244141</ele>
        <time>2020-07-10T04:08:44.921Z</time>
      </trkpt>
      <trkpt lat="40.00622034073" lon="-8.5341668129">
        <ele>333.64886474609</ele>
        <time>2020-07-10T04:08:58.878Z</time>
      </trkpt>
      <trkpt lat="40.00629544258" lon="-8.53397369385">
        <ele>331.44485473633</ele>
        <time>2020-07-10T04:09:12.838Z</time>
      </trkpt>
      <trkpt lat="40.00630617142" lon="-8.53371620178">
        <ele>328.96047973633</ele>
        <time>2020-07-10T04:09:26.802Z</time>
      </trkpt>
      <trkpt lat="40.00619888306" lon="-8.53301882744">
        <ele>326.96578979492</ele>
        <time>2020-07-10T04:09:40.777Z</time>
      </trkpt>
      <trkpt lat="40.00619888306" lon="-8.53248238564">
        <ele>324.80862426758</ele>
        <time>2020-07-10T04:09:54.760Z</time>
      </trkpt>
      <trkpt lat="40.00610240735" lon="-8.53216052055">
        <ele>324.61404418945</ele>
        <time>2020-07-10T04:10:08.749Z</time>
      </trkpt>
      <trkpt lat="40.00605940819" lon="-8.5318171978">
        <ele>321.92156982422</ele>
        <time>2020-07-10T04:10:22.743Z</time>
      </trkpt>
      <trkpt lat="40.00614523888" lon="-8.53162407875">
        <ele>319.60452270508</ele>
        <time>2020-07-10T04:10:36.741Z</time>
      </trkpt>
      <trkpt lat="40.00600576401" lon="-8.53140950203">
        <ele>319.56588745117</ele>
        <time>2020-07-10T04:10:50.743Z</time>
      </trkpt>
      <trkpt lat="40.00613459386" lon="-8.53100180626">
        <ele>315.09289550781</ele>
        <time>2020-07-10T04:11:04.752Z</time>
      </trkpt>
      <trkpt lat="40.00617742538" lon="-8.53092670441">
        <ele>313.9609375</ele>
        <time>2020-07-10T04:11:18.762Z</time>
      </trkpt>
      <trkpt lat="40.00622034073" lon="-8.53081941605">
        <ele>312.51922607422</ele>
        <time>2020-07-10T04:11:32.774Z</time>
      </trkpt>
      <trkpt lat="40.00647783279" lon="-8.53067994118">
        <ele>309.25247192383</ele>
        <time>2020-07-10T04:11:46.792Z</time>
      </trkpt>
      <trkpt lat="40.0065100193" lon="-8.53056192398">
        <ele>307.88800048828</ele>
        <time>2020-07-10T04:12:00.811Z</time>
      </trkpt>
      <trkpt lat="40.00619860628" lon="-8.5298612362">
        <ele>305.76223754883</ele>
        <time>2020-07-10T04:12:14.843Z</time>
      </trkpt>
      <trkpt lat="40.00586628914" lon="-8.52911353111">
        <ele>307.15777587891</ele>
        <time>2020-07-10T04:12:28.888Z</time>
      </trkpt>
      <trkpt lat="40.00574827194" lon="-8.52892041206">
        <ele>307.41006469727</ele>
        <time>2020-07-10T04:12:42.937Z</time>
      </trkpt>
      <trkpt lat="40.00573016703" lon="-8.52886081673">
        <ele>307.06793212891</ele>
        <time>2020-07-10T04:12:56.987Z</time>
      </trkpt>
      <trkpt lat="40.00563555996" lon="-8.52855004141">
        <ele>305.28475952148</ele>
        <time>2020-07-10T04:13:11.042Z</time>
      </trkpt>
      <trkpt lat="40.00563503474" lon="-8.52854831611">
        <ele>305.27484130859</ele>
        <time>2020-07-10T04:13:25.097Z</time>
      </trkpt>
      <trkpt lat="40.00559806824" lon="-8.5284268856">
        <ele>304.67095947266</ele>
        <time>2020-07-10T04:13:39.154Z</time>
      </trkpt>
      <trkpt lat="40.00548005104" lon="-8.52838397026">
        <ele>304.14343261719</ele>
        <time>2020-07-10T04:13:53.214Z</time>
      </trkpt>
      <trkpt lat="40.00502943993" lon="-8.52829813957">
        <ele>299.93170166016</ele>
        <time>2020-07-10T04:14:07.283Z</time>
      </trkpt>
      <trkpt lat="40.0047826767" lon="-8.52801918983">
        <ele>294.43414306641</ele>
        <time>2020-07-10T04:14:21.358Z</time>
      </trkpt>
      <trkpt lat="40.00470757484" lon="-8.52776169777">
        <ele>290.41793823242</ele>
        <time>2020-07-10T04:14:35.437Z</time>
      </trkpt>
      <trkpt lat="40.00470765866" lon="-8.52736473083">
        <ele>287.24044799805</ele>
        <time>2020-07-10T04:14:49.523Z</time>
      </trkpt>
      <trkpt lat="40.00470757484" lon="-8.52736473083">
        <ele>287.24014282227</ele>
        <time>2020-07-10T04:15:03.609Z</time>
      </trkpt>
      <trkpt lat="40.00470757484" lon="-8.52716088295">
        <ele>285.77270507812</ele>
        <time>2020-07-10T04:15:17.698Z</time>
      </trkpt>
      <trkpt lat="40.00455737114" lon="-8.52697849274">
        <ele>284.08111572266</ele>
        <time>2020-07-10T04:15:31.791Z</time>
      </trkpt>
      <trkpt lat="40.00463247299" lon="-8.52680683136">
        <ele>283.42913818359</ele>
        <time>2020-07-10T04:15:45.887Z</time>
      </trkpt>
      <trkpt lat="40.00460028648" lon="-8.52659225464">
        <ele>285.11541748047</ele>
        <time>2020-07-10T04:15:59.986Z</time>
      </trkpt>
      <trkpt lat="40.00446081161" lon="-8.52633476257">
        <ele>287.36901855469</ele>
        <time>2020-07-10T04:16:14.090Z</time>
      </trkpt>
      <trkpt lat="40.0045144558" lon="-8.52622747421">
        <ele>288.20571899414</ele>
        <time>2020-07-10T04:16:28.196Z</time>
      </trkpt>
      <trkpt lat="40.0049328804" lon="-8.52576613426">
        <ele>293.82122802734</ele>
        <time>2020-07-10T04:16:42.313Z</time>
      </trkpt>
      <trkpt lat="40.00573754311" lon="-8.52520823479">
        <ele>303.12539672852</ele>
        <time>2020-07-10T04:16:56.448Z</time>
      </trkpt>
      <trkpt lat="40.00580191612" lon="-8.52504730225">
        <ele>304.72912597656</ele>
        <time>2020-07-10T04:17:10.586Z</time>
      </trkpt>
      <trkpt lat="40.00584483147" lon="-8.52427482605">
        <ele>308.17276000977</ele>
        <time>2020-07-10T04:17:24.736Z</time>
      </trkpt>
      <trkpt lat="40.00550150871" lon="-8.52320194244">
        <ele>309.5263671875</ele>
        <time>2020-07-10T04:17:38.904Z</time>
      </trkpt>
      <trkpt lat="40.00542640686" lon="-8.52311611176">
        <ele>309.01147460938</ele>
        <time>2020-07-10T04:17:53.074Z</time>
      </trkpt>
      <trkpt lat="40.00565171242" lon="-8.52245092392">
        <ele>312.7702331543</ele>
        <time>2020-07-10T04:18:07.255Z</time>
      </trkpt>
      <trkpt lat="40.00567317009" lon="-8.52212905884">
        <ele>313.74853515625</ele>
        <time>2020-07-10T04:18:21.441Z</time>
      </trkpt>
      <trkpt lat="40.00703573227" lon="-8.52176427841">
        <ele>325.38687133789</ele>
        <time>2020-07-10T04:18:35.655Z</time>
      </trkpt>
      <trkpt lat="40.0076044444" lon="-8.52167844772">
        <ele>324.61807250977</ele>
        <time>2020-07-10T04:18:49.880Z</time>
      </trkpt>
      <trkpt lat="40.00773310661" lon="-8.52164626122">
        <ele>324.30923461914</ele>
        <time>2020-07-10T04:19:04.108Z</time>
      </trkpt>
      <trkpt lat="40.00789403915" lon="-8.52161407471">
        <ele>323.96170043945</ele>
        <time>2020-07-10T04:19:18.339Z</time>
      </trkpt>
      <trkpt lat="40.00818371773" lon="-8.52138876915">
        <ele>323.48828125</ele>
        <time>2020-07-10T04:19:32.577Z</time>
      </trkpt>
      <trkpt lat="40.00848412514" lon="-8.52142095566">
        <ele>324.18325805664</ele>
        <time>2020-07-10T04:19:46.821Z</time>
      </trkpt>
      <trkpt lat="40.00950336456" lon="-8.52098107338">
        <ele>326.65982055664</ele>
        <time>2020-07-10T04:20:01.086Z</time>
      </trkpt>
      <trkpt lat="40.00992178917" lon="-8.52046608925">
        <ele>329.09603881836</ele>
        <time>2020-07-10T04:20:15.363Z</time>
      </trkpt>
      <trkpt lat="40.00999689102" lon="-8.52016568184">
        <ele>329.97860717773</ele>
        <time>2020-07-10T04:20:29.645Z</time>
      </trkpt>
      <trkpt lat="40.01026519574" lon="-8.5200047493">
        <ele>330.23623657227</ele>
        <time>2020-07-10T04:20:43.932Z</time>
      </trkpt>
      <trkpt lat="40.01046895981" lon="-8.51998329163">
        <ele>330.97528076172</ele>
        <time>2020-07-10T04:20:58.224Z</time>
      </trkpt>
      <trkpt lat="40.01133799553" lon="-8.51952195168">
        <ele>335.84585571289</ele>
        <time>2020-07-10T04:21:12.534Z</time>
      </trkpt>
      <trkpt lat="40.0114178015" lon="-8.51951505495">
        <ele>336.34942626953</ele>
        <time>2020-07-10T04:21:26.846Z</time>
      </trkpt>
      <trkpt lat="40.01220703125" lon="-8.51944684982">
        <ele>340.74691772461</ele>
        <time>2020-07-10T04:21:41.174Z</time>
      </trkpt>
      <trkpt lat="40.01231968403" lon="-8.51945883594">
        <ele>340.83892822266</ele>
        <time>2020-07-10T04:21:55.504Z</time>
      </trkpt>
      <trkpt lat="40.01231960021" lon="-8.51945883594">
        <ele>340.83880615234</ele>
        <time>2020-07-10T04:22:09.834Z</time>
      </trkpt>
      <trkpt lat="40.01231968403" lon="-8.51945883594">
        <ele>340.83892822266</ele>
        <time>2020-07-10T04:22:24.164Z</time>
      </trkpt>
      <trkpt lat="40.01241087914" lon="-8.5194683075">
        <ele>340.91424560547</ele>
        <time>2020-07-10T04:22:38.496Z</time>
      </trkpt>
      <trkpt lat="40.01254159659" lon="-8.51933759009">
        <ele>341.54159545898</ele>
        <time>2020-07-10T04:22:52.831Z</time>
      </trkpt>
      <trkpt lat="40.01254272549" lon="-8.51933646119">
        <ele>341.54699707031</ele>
        <time>2020-07-10T04:23:07.166Z</time>
      </trkpt>
      <trkpt lat="40.01256108284" lon="-8.51931810379">
        <ele>341.63510131836</ele>
        <time>2020-07-10T04:23:21.502Z</time>
      </trkpt>
      <trkpt lat="40.01256116666" lon="-8.51931810379">
        <ele>341.63519287109</ele>
        <time>2020-07-10T04:23:35.838Z</time>
      </trkpt>
      <trkpt lat="40.01274347305" lon="-8.51906061172">
        <ele>342.78076171875</ele>
        <time>2020-07-10T04:23:50.179Z</time>
      </trkpt>
      <trkpt lat="40.01280234517" lon="-8.51896710923">
        <ele>343.18792724609</ele>
        <time>2020-07-10T04:24:04.522Z</time>
      </trkpt>
      <trkpt lat="40.01292586327" lon="-8.51877093315">
        <ele>344.05847167969</ele>
        <time>2020-07-10T04:24:18.869Z</time>
      </trkpt>
      <trkpt lat="40.0130546093" lon="-8.51870656013">
        <ele>344.75357055664</ele>
        <time>2020-07-10T04:24:33.219Z</time>
      </trkpt>
      <trkpt lat="40.01338720322" lon="-8.51817011833">
        <ele>347.08377075195</ele>
        <time>2020-07-10T04:24:47.579Z</time>
      </trkpt>
      <trkpt lat="40.01340623014" lon="-8.51812259294">
        <ele>347.20928955078</ele>
        <time>2020-07-10T04:25:01.940Z</time>
      </trkpt>
      <trkpt lat="40.01340614632" lon="-8.51812276058">
        <ele>347.20877075195</ele>
        <time>2020-07-10T04:25:16.301Z</time>
      </trkpt>
      <trkpt lat="40.01340623014" lon="-8.51812259294">
        <ele>347.20928955078</ele>
        <time>2020-07-10T04:25:30.662Z</time>
      </trkpt>
      <trkpt lat="40.01352458094" lon="-8.51782667828">
        <ele>347.99029541016</ele>
        <time>2020-07-10T04:25:45.028Z</time>
      </trkpt>
      <trkpt lat="40.01352523915" lon="-8.51782503253">
        <ele>347.99465942383</ele>
        <time>2020-07-10T04:25:59.394Z</time>
      </trkpt>
      <trkpt lat="40.01353740692" lon="-8.51779460907">
        <ele>348.07495117188</ele>
        <time>2020-07-10T04:26:13.761Z</time>
      </trkpt>
      <trkpt lat="40.01389145851" lon="-8.51751565933">
        <ele>350.36801147461</ele>
        <time>2020-07-10T04:26:28.136Z</time>
      </trkpt>
      <trkpt lat="40.0140953064" lon="-8.51722598076">
        <ele>352.53057861328</ele>
        <time>2020-07-10T04:26:42.517Z</time>
      </trkpt>
      <trkpt lat="40.01418113708" lon="-8.51706504822">
        <ele>353.53463745117</ele>
        <time>2020-07-10T04:26:56.901Z</time>
      </trkpt>
      <trkpt lat="40.01420259476" lon="-8.51660370827">
        <ele>357.02243041992</ele>
        <time>2020-07-10T04:27:11.292Z</time>
      </trkpt>
      <trkpt lat="40.01429915428" lon="-8.51639986038">
        <ele>360.16329956055</ele>
        <time>2020-07-10T04:27:25.687Z</time>
      </trkpt>
      <trkpt lat="40.0146317482" lon="-8.51627111435">
        <ele>363.99261474609</ele>
        <time>2020-07-10T04:27:40.089Z</time>
      </trkpt>
      <trkpt lat="40.01448154449" lon="-8.5159599781">
        <ele>365.94625854492</ele>
        <time>2020-07-10T04:27:54.496Z</time>
      </trkpt>
      <trkpt lat="40.01428842545" lon="-8.51578831673">
        <ele>363.88668823242</ele>
        <time>2020-07-10T04:28:08.908Z</time>
      </trkpt>
      <trkpt lat="40.01428842545" lon="-8.51557374001">
        <ele>363.62924194336</ele>
        <time>2020-07-10T04:28:23.323Z</time>
      </trkpt>
      <trkpt lat="40.01480340958" lon="-8.51483345032">
        <ele>366.49945068359</ele>
        <time>2020-07-10T04:28:37.754Z</time>
      </trkpt>
      <trkpt lat="40.01499652863" lon="-8.51422190666">
        <ele>365.51065063477</ele>
        <time>2020-07-10T04:28:52.195Z</time>
      </trkpt>
      <trkpt lat="40.01476049423" lon="-8.51403951645">
        <ele>363.14489746094</ele>
        <time>2020-07-10T04:29:06.641Z</time>
      </trkpt>
      <trkpt lat="40.01461029053" lon="-8.51381421089">
        <ele>362.15371704102</ele>
        <time>2020-07-10T04:29:21.092Z</time>
      </trkpt>
      <trkpt lat="40.01512527466" lon="-8.51314902306">
        <ele>359.10766601562</ele>
        <time>2020-07-10T04:29:35.557Z</time>
      </trkpt>
      <trkpt lat="40.01557588577" lon="-8.51268768311">
        <ele>355.20159912109</ele>
        <time>2020-07-10T04:29:50.034Z</time>
      </trkpt>
      <trkpt lat="40.01579046249" lon="-8.51204395294">
        <ele>350.75643920898</ele>
        <time>2020-07-10T04:30:04.522Z</time>
      </trkpt>
      <trkpt lat="40.01608014107" lon="-8.51171135902">
        <ele>348.70373535156</ele>
        <time>2020-07-10T04:30:19.017Z</time>
      </trkpt>
      <trkpt lat="40.01668095589" lon="-8.51037025452">
        <ele>351.13375854492</ele>
        <time>2020-07-10T04:30:33.536Z</time>
      </trkpt>
      <trkpt lat="40.01714229584" lon="-8.50908279419">
        <ele>354.69720458984</ele>
        <time>2020-07-10T04:30:48.077Z</time>
      </trkpt>
      <trkpt lat="40.01717448235" lon="-8.5076880455">
        <ele>353.39770507812</ele>
        <time>2020-07-10T04:31:02.639Z</time>
      </trkpt>
      <trkpt lat="40.01746416092" lon="-8.50700139999">
        <ele>360.51373291016</ele>
        <time>2020-07-10T04:31:17.213Z</time>
      </trkpt>
      <trkpt lat="40.01746416092" lon="-8.50568175316">
        <ele>367.46084594727</ele>
        <time>2020-07-10T04:31:31.808Z</time>
      </trkpt>
      <trkpt lat="40.01821517944" lon="-8.50505948067">
        <ele>374.22201538086</ele>
        <time>2020-07-10T04:31:46.421Z</time>
      </trkpt>
      <trkpt lat="40.01825809479" lon="-8.50486636162">
        <ele>372.90902709961</ele>
        <time>2020-07-10T04:32:01.037Z</time>
      </trkpt>
      <trkpt lat="40.01821517944" lon="-8.50454449654">
        <ele>370.68228149414</ele>
        <time>2020-07-10T04:32:15.658Z</time>
      </trkpt>
      <trkpt lat="40.01827955246" lon="-8.50440502167">
        <ele>370.15451049805</ele>
        <time>2020-07-10T04:32:30.281Z</time>
      </trkpt>
      <trkpt lat="40.01876235008" lon="-8.50419044495">
        <ele>370.35787963867</ele>
        <time>2020-07-10T04:32:44.914Z</time>
      </trkpt>
      <trkpt lat="40.01900911331" lon="-8.50364327431">
        <ele>365.86538696289</ele>
        <time>2020-07-10T04:32:59.557Z</time>
      </trkpt>
      <trkpt lat="40.0195991993" lon="-8.50320339203">
        <ele>369.85971069336</ele>
        <time>2020-07-10T04:33:14.214Z</time>
      </trkpt>
      <trkpt lat="40.01965284348" lon="-8.50305318832">
        <ele>370.86376953125</ele>
        <time>2020-07-10T04:33:28.873Z</time>
      </trkpt>
      <trkpt lat="40.01964211464" lon="-8.50280642509">
        <ele>371.32717895508</ele>
        <time>2020-07-10T04:33:43.536Z</time>
      </trkpt>
      <trkpt lat="40.01939535141" lon="-8.50216269493">
        <ele>370.74563598633</ele>
        <time>2020-07-10T04:33:58.210Z</time>
      </trkpt>
      <trkpt lat="40.01941680908" lon="-8.5020339489">
        <ele>371.44073486328</ele>
        <time>2020-07-10T04:34:12.886Z</time>
      </trkpt>
      <trkpt lat="40.01972794533" lon="-8.50172281265">
        <ele>375.29528808594</ele>
        <time>2020-07-10T04:34:27.570Z</time>
      </trkpt>
      <trkpt lat="40.01982450485" lon="-8.50150823593">
        <ele>375.68145751953</ele>
        <time>2020-07-10T04:34:42.258Z</time>
      </trkpt>
      <trkpt lat="40.02004981041" lon="-8.50143313408">
        <ele>378.11434936523</ele>
        <time>2020-07-10T04:34:56.950Z</time>
      </trkpt>
      <trkpt lat="40.02011005269" lon="-8.50132773666">
        <ele>378.45779418945</ele>
        <time>2020-07-10T04:35:11.644Z</time>
      </trkpt>
      <trkpt lat="40.02039321698" lon="-8.50083231926">
        <ele>379.87118530273</ele>
        <time>2020-07-10T04:35:26.348Z</time>
      </trkpt>
      <trkpt lat="40.02047904767" lon="-8.50028514862">
        <ele>377.99331665039</ele>
        <time>2020-07-10T04:35:41.061Z</time>
      </trkpt>
      <trkpt lat="40.02047896385" lon="-8.50028514862">
        <ele>377.99273681641</ele>
        <time>2020-07-10T04:35:55.774Z</time>
      </trkpt>
      <trkpt lat="40.02047904767" lon="-8.50028514862">
        <ele>377.99331665039</ele>
        <time>2020-07-10T04:36:10.487Z</time>
      </trkpt>
      <trkpt lat="40.02051572824" lon="-8.49995459645">
        <ele>376.9892578125</ele>
        <time>2020-07-10T04:36:25.205Z</time>
      </trkpt>
      <trkpt lat="40.02051593216" lon="-8.49995275876">
        <ele>376.98089599609</ele>
        <time>2020-07-10T04:36:39.923Z</time>
      </trkpt>
      <trkpt lat="40.02054333687" lon="-8.49970579147">
        <ele>375.86102294922</ele>
        <time>2020-07-10T04:36:54.645Z</time>
      </trkpt>
      <trkpt lat="40.0205218792" lon="-8.4995663166">
        <ele>374.74111938477</ele>
        <time>2020-07-10T04:37:09.369Z</time>
      </trkpt>
      <trkpt lat="40.02037167549" lon="-8.49939465523">
        <ele>372.02102661133</ele>
        <time>2020-07-10T04:37:24.097Z</time>
      </trkpt>
      <trkpt lat="40.02045750618" lon="-8.49910497665">
        <ele>372.17245483398</ele>
        <time>2020-07-10T04:37:38.829Z</time>
      </trkpt>
      <trkpt lat="40.02046831883" lon="-8.49834322929">
        <ele>371.41738891602</ele>
        <time>2020-07-10T04:37:53.573Z</time>
      </trkpt>
      <trkpt lat="40.02032659795" lon="-8.49796781437">
        <ele>370.85018920898</ele>
        <time>2020-07-10T04:38:08.324Z</time>
      </trkpt>
      <trkpt lat="40.02025365829" lon="-8.49777460098">
        <ele>370.39996337891</ele>
        <time>2020-07-10T04:38:23.078Z</time>
      </trkpt>
      <trkpt lat="40.02006053925" lon="-8.49753856659">
        <ele>367.93576049805</ele>
        <time>2020-07-10T04:38:37.837Z</time>
      </trkpt>
      <trkpt lat="40.02025365829" lon="-8.49742054939">
        <ele>369.22299194336</ele>
        <time>2020-07-10T04:38:52.600Z</time>
      </trkpt>
      <trkpt lat="40.02048902214" lon="-8.49727730267">
        <ele>370.30035400391</ele>
        <time>2020-07-10T04:39:07.369Z</time>
      </trkpt>
      <trkpt lat="40.02048893832" lon="-8.49727730267">
        <ele>370.30014038086</ele>
        <time>2020-07-10T04:39:22.138Z</time>
      </trkpt>
      <trkpt lat="40.02048902214" lon="-8.49727730267">
        <ele>370.30035400391</ele>
        <time>2020-07-10T04:39:36.907Z</time>
      </trkpt>
      <trkpt lat="40.0207207269" lon="-8.49713624869">
        <ele>370.17938232422</ele>
        <time>2020-07-10T04:39:51.681Z</time>
      </trkpt>
      <trkpt lat="40.02072201583" lon="-8.49713546403">
        <ele>370.1787109375</ele>
        <time>2020-07-10T04:40:06.455Z</time>
      </trkpt>
      <trkpt lat="40.02074718475" lon="-8.49712014198">
        <ele>370.16558837891</ele>
        <time>2020-07-10T04:40:21.229Z</time>
      </trkpt>
      <trkpt lat="40.0209403038" lon="-8.49715232849">
        <ele>370.79901123047</ele>
        <time>2020-07-10T04:40:36.007Z</time>
      </trkpt>
      <trkpt lat="40.02101540565" lon="-8.49712014198">
        <ele>370.927734375</ele>
        <time>2020-07-10T04:40:50.787Z</time>
      </trkpt>
      <trkpt lat="40.02101548947" lon="-8.49712014198">
        <ele>370.92816162109</ele>
        <time>2020-07-10T04:41:05.567Z</time>
      </trkpt>
      <trkpt lat="40.02130508423" lon="-8.49661588669">
        <ele>369.57626342773</ele>
        <time>2020-07-10T04:41:20.356Z</time>
      </trkpt>
      <trkpt lat="40.02130746626" lon="-8.49660948505">
        <ele>369.57412719727</ele>
        <time>2020-07-10T04:41:35.146Z</time>
      </trkpt>
      <trkpt lat="40.02147674561" lon="-8.49615454674">
        <ele>369.42178344727</ele>
        <time>2020-07-10T04:41:49.943Z</time>
      </trkpt>
      <trkpt lat="40.02162300982" lon="-8.49551123567">
        <ele>368.81640625</ele>
        <time>2020-07-10T04:42:04.751Z</time>
      </trkpt>
      <trkpt lat="40.021622926" lon="-8.49551131949">
        <ele>368.8157043457</ele>
        <time>2020-07-10T04:42:19.559Z</time>
      </trkpt>
      <trkpt lat="40.02162300982" lon="-8.49551123567">
        <ele>368.81640625</ele>
        <time>2020-07-10T04:42:34.367Z</time>
      </trkpt>
      <trkpt lat="40.02163767815" lon="-8.49544644356">
        <ele>368.8193359375</ele>
        <time>2020-07-10T04:42:49.176Z</time>
      </trkpt>
      <trkpt lat="40.02162694931" lon="-8.49523186684">
        <ele>368.18859863281</ele>
        <time>2020-07-10T04:43:03.988Z</time>
      </trkpt>
      <trkpt lat="40.02164090614" lon="-8.49518492179">
        <ele>368.22665405273</ele>
        <time>2020-07-10T04:43:18.801Z</time>
      </trkpt>
      <trkpt lat="40.02164142082" lon="-8.49518319062">
        <ele>368.22805786133</ele>
        <time>2020-07-10T04:43:33.614Z</time>
      </trkpt>
      <trkpt lat="40.0218629837" lon="-8.49443793297">
        <ele>365.62490844727</ele>
        <time>2020-07-10T04:43:48.439Z</time>
      </trkpt>
      <trkpt lat="40.02246379852" lon="-8.49445939064">
        <ele>370.62811279297</ele>
        <time>2020-07-10T04:44:03.276Z</time>
      </trkpt>
      <trkpt lat="40.0226354599" lon="-8.49430918694">
        <ele>370.83706665039</ele>
        <time>2020-07-10T04:44:18.117Z</time>
      </trkpt>
      <trkpt lat="40.02281785011" lon="-8.49433064461">
        <ele>372.25305175781</ele>
        <time>2020-07-10T04:44:32.962Z</time>
      </trkpt>
      <trkpt lat="40.02338647842" lon="-8.49289298058">
        <ele>373.6376953125</ele>
        <time>2020-07-10T04:44:47.832Z</time>
      </trkpt>
      <trkpt lat="40.02359032631" lon="-8.49265694618">
        <ele>375.65213012695</ele>
        <time>2020-07-10T04:45:02.707Z</time>
      </trkpt>
      <trkpt lat="40.02512463368" lon="-8.49197030067">
        <ele>399.5417175293</ele>
        <time>2020-07-10T04:45:17.615Z</time>
      </trkpt>
      <trkpt lat="40.02521231657" lon="-8.49195111787">
        <ele>401.02444458008</ele>
        <time>2020-07-10T04:45:32.524Z</time>
      </trkpt>
      <trkpt lat="40.02581119537" lon="-8.49182009697">
        <ele>412.10089111328</ele>
        <time>2020-07-10T04:45:47.446Z</time>
      </trkpt>
      <trkpt lat="40.02608226612" lon="-8.49166117609">
        <ele>418.12341308594</ele>
        <time>2020-07-10T04:46:02.373Z</time>
      </trkpt>
      <trkpt lat="40.02608209848" lon="-8.49166117609">
        <ele>418.1203918457</ele>
        <time>2020-07-10T04:46:17.300Z</time>
      </trkpt>
      <trkpt lat="40.02608226612" lon="-8.49166117609">
        <ele>418.12341308594</ele>
        <time>2020-07-10T04:46:32.228Z</time>
      </trkpt>
      <trkpt lat="40.02612233162" lon="-8.49163770676">
        <ele>419.0133972168</ele>
        <time>2020-07-10T04:46:47.156Z</time>
      </trkpt>
      <trkpt lat="40.0263335557" lon="-8.49164650772">
        <ele>422.56213378906</ele>
        <time>2020-07-10T04:47:02.089Z</time>
      </trkpt>
      <trkpt lat="40.02633497722" lon="-8.49164656695">
        <ele>422.58389282227</ele>
        <time>2020-07-10T04:47:17.022Z</time>
      </trkpt>
      <trkpt lat="40.02663731575" lon="-8.49165916443">
        <ele>426.70419311523</ele>
        <time>2020-07-10T04:47:31.961Z</time>
      </trkpt>
      <trkpt lat="40.02700209618" lon="-8.49209904671">
        <ele>427.83511352539</ele>
        <time>2020-07-10T04:47:46.910Z</time>
      </trkpt>
      <trkpt lat="40.02871870995" lon="-8.49369764328">
        <ele>452.15008544922</ele>
        <time>2020-07-10T04:48:01.901Z</time>
      </trkpt>
      <trkpt lat="40.02914786339" lon="-8.49474906921">
        <ele>451.94149780273</ele>
        <time>2020-07-10T04:48:16.910Z</time>
      </trkpt>
      <trkpt lat="40.02937316895" lon="-8.49569320679">
        <ele>443.12646484375</ele>
        <time>2020-07-10T04:48:31.934Z</time>
      </trkpt>
      <trkpt lat="40.02948045731" lon="-8.49565029144">
        <ele>441.04113769531</ele>
        <time>2020-07-10T04:48:46.961Z</time>
      </trkpt>
      <trkpt lat="40.03005981445" lon="-8.49475979805">
        <ele>443.8415222168</ele>
        <time>2020-07-10T04:49:02.005Z</time>
      </trkpt>
      <trkpt lat="40.03045678139" lon="-8.49493145943">
        <ele>433.16302490234</ele>
        <time>2020-07-10T04:49:17.058Z</time>
      </trkpt>
      <trkpt lat="40.03142237663" lon="-8.49512457848">
        <ele>419.82650756836</ele>
        <time>2020-07-10T04:49:32.130Z</time>
      </trkpt>
      <trkpt lat="40.03170132637" lon="-8.49513530731">
        <ele>417.54809570312</ele>
        <time>2020-07-10T04:49:47.208Z</time>
      </trkpt>
      <trkpt lat="40.03214120865" lon="-8.49498510361">
        <ele>418.41668701172</ele>
        <time>2020-07-10T04:50:02.295Z</time>
      </trkpt>
      <trkpt lat="40.03320336342" lon="-8.49502801895">
        <ele>418.48306274414</ele>
        <time>2020-07-10T04:50:17.403Z</time>
      </trkpt>
      <trkpt lat="40.03408312798" lon="-8.4956073761">
        <ele>410.00521850586</ele>
        <time>2020-07-10T04:50:32.531Z</time>
      </trkpt>
      <trkpt lat="40.03431916237" lon="-8.49561810493">
        <ele>408.25427246094</ele>
        <time>2020-07-10T04:50:47.664Z</time>
      </trkpt>
      <trkpt lat="40.03504872322" lon="-8.49550008774">
        <ele>399.20559692383</ele>
        <time>2020-07-10T04:51:02.811Z</time>
      </trkpt>
      <trkpt lat="40.03613233566" lon="-8.49478125572">
        <ele>387.14544677734</ele>
        <time>2020-07-10T04:51:17.983Z</time>
      </trkpt>
      <trkpt lat="40.03660440445" lon="-8.49464178085">
        <ele>381.59301757812</ele>
        <time>2020-07-10T04:51:33.164Z</time>
      </trkpt>
      <trkpt lat="40.03707647324" lon="-8.49464178085">
        <ele>376.64074707031</ele>
        <time>2020-07-10T04:51:48.355Z</time>
      </trkpt>
      <trkpt lat="40.03729104996" lon="-8.49492073059">
        <ele>372.27658081055</ele>
        <time>2020-07-10T04:52:03.552Z</time>
      </trkpt>
      <trkpt lat="40.0373339653" lon="-8.49349379539">
        <ele>372.64529418945</ele>
        <time>2020-07-10T04:52:18.771Z</time>
      </trkpt>
      <trkpt lat="40.0369477272" lon="-8.49227070808">
        <ele>375.93618774414</ele>
        <time>2020-07-10T04:52:34.010Z</time>
      </trkpt>
      <trkpt lat="40.03685116768" lon="-8.49161624908">
        <ele>377.64202880859</ele>
        <time>2020-07-10T04:52:49.259Z</time>
      </trkpt>
      <trkpt lat="40.03601431847" lon="-8.489331007">
        <ele>395.03277587891</ele>
        <time>2020-07-10T04:53:04.547Z</time>
      </trkpt>
      <trkpt lat="40.03591775894" lon="-8.48836541176">
        <ele>395.75238037109</ele>
        <time>2020-07-10T04:53:19.850Z</time>
      </trkpt>
      <trkpt lat="40.0356066227" lon="-8.48697066307">
        <ele>395.66403198242</ele>
        <time>2020-07-10T04:53:35.176Z</time>
      </trkpt>
      <trkpt lat="40.0356388092" lon="-8.48667025566">
        <ele>394.65289306641</ele>
        <time>2020-07-10T04:53:50.506Z</time>
      </trkpt>
      <trkpt lat="40.03549933434" lon="-8.48650932312">
        <ele>394.77014160156</ele>
        <time>2020-07-10T04:54:05.840Z</time>
      </trkpt>
      <trkpt lat="40.03437280655" lon="-8.48260402679">
        <ele>384.25985717773</ele>
        <time>2020-07-10T04:54:21.238Z</time>
      </trkpt>
      <trkpt lat="40.03426551819" lon="-8.48104834557">
        <ele>386.04095458984</ele>
        <time>2020-07-10T04:54:36.660Z</time>
      </trkpt>
      <trkpt lat="40.03409385681" lon="-8.47996473312">
        <ele>389.11865234375</ele>
        <time>2020-07-10T04:54:52.099Z</time>
      </trkpt>
      <trkpt lat="40.03458738327" lon="-8.47962141037">
        <ele>390.94653320312</ele>
        <time>2020-07-10T04:55:07.549Z</time>
      </trkpt>
      <trkpt lat="40.03524184227" lon="-8.47822666168">
        <ele>399.69689941406</ele>
        <time>2020-07-10T04:55:23.024Z</time>
      </trkpt>
      <trkpt lat="40.03534913063" lon="-8.47773313522">
        <ele>400.4729309082</ele>
        <time>2020-07-10T04:55:38.507Z</time>
      </trkpt>
      <trkpt lat="40.03557443619" lon="-8.4775185585">
        <ele>400.25411987305</ele>
        <time>2020-07-10T04:55:53.996Z</time>
      </trkpt>
      <trkpt lat="40.03590703011" lon="-8.47757220268">
        <ele>397.73110961914</ele>
        <time>2020-07-10T04:56:09.491Z</time>
      </trkpt>
      <trkpt lat="40.03633618355" lon="-8.47720742226">
        <ele>395.90026855469</ele>
        <time>2020-07-10T04:56:24.997Z</time>
      </trkpt>
      <trkpt lat="40.03665804863" lon="-8.47640275955">
        <ele>397.9345703125</ele>
        <time>2020-07-10T04:56:40.517Z</time>
      </trkpt>
      <trkpt lat="40.03728032112" lon="-8.47591996193">
        <ele>396.9033203125</ele>
        <time>2020-07-10T04:56:56.051Z</time>
      </trkpt>
      <trkpt lat="40.03782794596" lon="-8.47500036601">
        <ele>384.52239990234</ele>
        <time>2020-07-10T04:57:11.603Z</time>
      </trkpt>
      <trkpt lat="40.03784894943" lon="-8.47496509552">
        <ele>384.11727905273</ele>
        <time>2020-07-10T04:57:27.156Z</time>
      </trkpt>
      <trkpt lat="40.03784894943" lon="-8.47432136536">
        <ele>379.16381835938</ele>
        <time>2020-07-10T04:57:42.719Z</time>
      </trkpt>
      <trkpt lat="40.03821657971" lon="-8.47422539257">
        <ele>378.27673339844</ele>
        <time>2020-07-10T04:57:58.289Z</time>
      </trkpt>
      <trkpt lat="40.03821649589" lon="-8.47422539257">
        <ele>378.27682495117</ele>
        <time>2020-07-10T04:58:13.859Z</time>
      </trkpt>
      <trkpt lat="40.03821657971" lon="-8.47422539257">
        <ele>378.27673339844</ele>
        <time>2020-07-10T04:58:29.429Z</time>
      </trkpt>
      <trkpt lat="40.03834247589" lon="-8.47419261932">
        <ele>378.00772094727</ele>
        <time>2020-07-10T04:58:45.002Z</time>
      </trkpt>
      <trkpt lat="40.03845983106" lon="-8.47412935881">
        <ele>377.63919067383</ele>
        <time>2020-07-10T04:59:00.577Z</time>
      </trkpt>
      <trkpt lat="40.03846114574" lon="-8.47412865013">
        <ele>377.63507080078</ele>
        <time>2020-07-10T04:59:16.152Z</time>
      </trkpt>
      <trkpt lat="40.03971576691" lon="-8.47345232964">
        <ele>377.15081787109</ele>
        <time>2020-07-10T04:59:31.754Z</time>
      </trkpt>
      <trkpt lat="40.04040249623" lon="-8.47219705582">
        <ele>376.16561889648</ele>
        <time>2020-07-10T04:59:47.380Z</time>
      </trkpt>
      <trkpt lat="40.0406599883" lon="-8.47211122513">
        <ele>375.47021484375</ele>
        <time>2020-07-10T05:00:03.011Z</time>
      </trkpt>
      <trkpt lat="40.04153966904" lon="-8.47210049629">
        <ele>373.69763183594</ele>
        <time>2020-07-10T05:00:18.660Z</time>
      </trkpt>
      <trkpt lat="40.04192599095" lon="-8.47171425819">
        <ele>375.0583190918</ele>
        <time>2020-07-10T05:00:34.319Z</time>
      </trkpt>
      <trkpt lat="40.04279494286" lon="-8.47184300423">
        <ele>374.16738891602</ele>
        <time>2020-07-10T05:00:49.995Z</time>
      </trkpt>
      <trkpt lat="40.04338502884" lon="-8.47217559814">
        <ele>368.74215698242</ele>
        <time>2020-07-10T05:01:05.684Z</time>
      </trkpt>
      <trkpt lat="40.04368543625" lon="-8.47255110741">
        <ele>371.20440673828</ele>
        <time>2020-07-10T05:01:21.381Z</time>
      </trkpt>
      <trkpt lat="40.04386782646" lon="-8.47295880318">
        <ele>371.83892822266</ele>
        <time>2020-07-10T05:01:37.086Z</time>
      </trkpt>
      <trkpt lat="40.04391074181" lon="-8.47348451614">
        <ele>373.74404907227</ele>
        <time>2020-07-10T05:01:52.799Z</time>
      </trkpt>
      <trkpt lat="40.04421114922" lon="-8.4739780426">
        <ele>368.01736450195</ele>
        <time>2020-07-10T05:02:08.521Z</time>
      </trkpt>
      <trkpt lat="40.04471540451" lon="-8.47434282303">
        <ele>366.45452880859</ele>
        <time>2020-07-10T05:02:24.255Z</time>
      </trkpt>
      <trkpt lat="40.04535913467" lon="-8.47583413124">
        <ele>366.69622802734</ele>
        <time>2020-07-10T05:02:40.015Z</time>
      </trkpt>
      <trkpt lat="40.04597067833" lon="-8.47637057304">
        <ele>367.07888793945</ele>
        <time>2020-07-10T05:02:55.790Z</time>
      </trkpt>
      <trkpt lat="40.04665740766" lon="-8.47684264183">
        <ele>367.14868164062</ele>
        <time>2020-07-10T05:03:11.580Z</time>
      </trkpt>
      <trkpt lat="40.04731178284" lon="-8.47690701485">
        <ele>364.69161987305</ele>
        <time>2020-07-10T05:03:27.383Z</time>
      </trkpt>
      <trkpt lat="40.04818081856" lon="-8.47667098045">
        <ele>359.96154785156</ele>
        <time>2020-07-10T05:03:43.204Z</time>
      </trkpt>
      <trkpt lat="40.04818090238" lon="-8.47667098045">
        <ele>359.96115112305</ele>
        <time>2020-07-10T05:03:59.025Z</time>
      </trkpt>
      <trkpt lat="40.04878163338" lon="-8.47623109818">
        <ele>357.74520874023</ele>
        <time>2020-07-10T05:04:14.860Z</time>
      </trkpt>
      <trkpt lat="40.0489962101" lon="-8.47615599632">
        <ele>358.0927734375</ele>
        <time>2020-07-10T05:04:30.699Z</time>
      </trkpt>
      <trkpt lat="40.04916787148" lon="-8.47627401352">
        <ele>358.15713500977</ele>
        <time>2020-07-10T05:04:46.542Z</time>
      </trkpt>
      <trkpt lat="40.04940390587" lon="-8.47629547119">
        <ele>357.47409057617</ele>
        <time>2020-07-10T05:05:02.390Z</time>
      </trkpt>
      <trkpt lat="40.0495528057" lon="-8.47620142959">
        <ele>357.30484008789</ele>
        <time>2020-07-10T05:05:18.241Z</time>
      </trkpt>
      <trkpt lat="40.04981160164" lon="-8.47603797913">
        <ele>356.7470703125</ele>
        <time>2020-07-10T05:05:34.098Z</time>
      </trkpt>
      <trkpt lat="40.0504090637" lon="-8.47583580762">
        <ele>353.86135864258</ele>
        <time>2020-07-10T05:05:49.967Z</time>
      </trkpt>
      <trkpt lat="40.05040897988" lon="-8.47583580762">
        <ele>353.86206054688</ele>
        <time>2020-07-10T05:06:05.836Z</time>
      </trkpt>
      <trkpt lat="40.0504090637" lon="-8.47583580762">
        <ele>353.86135864258</ele>
        <time>2020-07-10T05:06:21.705Z</time>
      </trkpt>
      <trkpt lat="40.05054116249" lon="-8.4757912159">
        <ele>354.06707763672</ele>
        <time>2020-07-10T05:06:37.577Z</time>
      </trkpt>
      <trkpt lat="40.05065760452" lon="-8.47576071932">
        <ele>354.25668334961</ele>
        <time>2020-07-10T05:06:53.452Z</time>
      </trkpt>
      <trkpt lat="40.05065899933" lon="-8.47576035402">
        <ele>354.25897216797</ele>
        <time>2020-07-10T05:07:09.327Z</time>
      </trkpt>
      <trkpt lat="40.05099177361" lon="-8.4756731987">
        <ele>354.80081176758</ele>
        <time>2020-07-10T05:07:25.208Z</time>
      </trkpt>
      <trkpt lat="40.05139946938" lon="-8.4756731987">
        <ele>354.14291381836</ele>
        <time>2020-07-10T05:07:41.098Z</time>
      </trkpt>
      <trkpt lat="40.05179643631" lon="-8.47572684288">
        <ele>354.22445678711</ele>
        <time>2020-07-10T05:07:56.995Z</time>
      </trkpt>
      <trkpt lat="40.05204319954" lon="-8.47587704659">
        <ele>354.39181518555</ele>
        <time>2020-07-10T05:08:12.898Z</time>
      </trkpt>
      <trkpt lat="40.05219340324" lon="-8.47604870796">
        <ele>353.2467956543</ele>
        <time>2020-07-10T05:08:28.805Z</time>
      </trkpt>
      <trkpt lat="40.05257964134" lon="-8.47697138786">
        <ele>344.87615966797</ele>
        <time>2020-07-10T05:08:44.728Z</time>
      </trkpt>
      <trkpt lat="40.05281567574" lon="-8.47718596458">
        <ele>343.47348022461</ele>
        <time>2020-07-10T05:09:00.657Z</time>
      </trkpt>
      <trkpt lat="40.05398511887" lon="-8.4772503376">
        <ele>333.96356201172</ele>
        <time>2020-07-10T05:09:16.609Z</time>
      </trkpt>
      <trkpt lat="40.05492925644" lon="-8.47716450691">
        <ele>323.33306884766</ele>
        <time>2020-07-10T05:09:32.580Z</time>
      </trkpt>
      <trkpt lat="40.05510091782" lon="-8.47728252411">
        <ele>321.67794799805</ele>
        <time>2020-07-10T05:09:48.555Z</time>
      </trkpt>
      <trkpt lat="40.05519747734" lon="-8.47738981247">
        <ele>322.6047668457</ele>
        <time>2020-07-10T05:10:04.533Z</time>
      </trkpt>
      <trkpt lat="40.05577683449" lon="-8.47747564316">
        <ele>322.08618164062</ele>
        <time>2020-07-10T05:10:20.522Z</time>
      </trkpt>
      <trkpt lat="40.05632400513" lon="-8.4776365757">
        <ele>325.27603149414</ele>
        <time>2020-07-10T05:10:36.522Z</time>
      </trkpt>
      <trkpt lat="40.05668878555" lon="-8.47776532173">
        <ele>329.6125793457</ele>
        <time>2020-07-10T05:10:52.530Z</time>
      </trkpt>
      <trkpt lat="40.05716093816" lon="-8.47771167755">
        <ele>333.19946289062</ele>
        <time>2020-07-10T05:11:08.547Z</time>
      </trkpt>
      <trkpt lat="40.05785822868" lon="-8.47760438919">
        <ele>333.22125244141</ele>
        <time>2020-07-10T05:11:24.578Z</time>
      </trkpt>
      <trkpt lat="40.05855568685" lon="-8.47766876221">
        <ele>334.80773925781</ele>
        <time>2020-07-10T05:11:40.623Z</time>
      </trkpt>
      <trkpt lat="40.05883455276" lon="-8.47766876221">
        <ele>334.92721557617</ele>
        <time>2020-07-10T05:11:56.674Z</time>
      </trkpt>
      <trkpt lat="40.05931735039" lon="-8.47729325294">
        <ele>324.80337524414</ele>
        <time>2020-07-10T05:12:12.736Z</time>
      </trkpt>
      <trkpt lat="40.06017565727" lon="-8.47662806511">
        <ele>305.65093994141</ele>
        <time>2020-07-10T05:12:28.818Z</time>
      </trkpt>
      <trkpt lat="40.06017574109" lon="-8.47662806511">
        <ele>305.65042114258</ele>
        <time>2020-07-10T05:12:44.900Z</time>
      </trkpt>
      <trkpt lat="40.06064780988" lon="-8.4764456749">
        <ele>299.31719970703</ele>
        <time>2020-07-10T05:13:00.992Z</time>
      </trkpt>
      <trkpt lat="40.06071209908" lon="-8.47623109818">
        <ele>294.81231689453</ele>
        <time>2020-07-10T05:13:17.088Z</time>
      </trkpt>
      <trkpt lat="40.06083011627" lon="-8.47612380981">
        <ele>292.04473876953</ele>
        <time>2020-07-10T05:13:33.186Z</time>
      </trkpt>
      <trkpt lat="40.06210684776" lon="-8.47517967224">
        <ele>268.37103271484</ele>
        <time>2020-07-10T05:13:49.314Z</time>
      </trkpt>
      <trkpt lat="40.06228923798" lon="-8.47522258759">
        <ele>268.91168212891</ele>
        <time>2020-07-10T05:14:05.446Z</time>
      </trkpt>
      <trkpt lat="40.06254673004" lon="-8.47494363785">
        <ele>265.60336303711</ele>
        <time>2020-07-10T05:14:21.584Z</time>
      </trkpt>
      <trkpt lat="40.06371617317" lon="-8.47495436668">
        <ele>263.65936279297</ele>
        <time>2020-07-10T05:14:37.746Z</time>
      </trkpt>
      <trkpt lat="40.06370544434" lon="-8.47450375557">
        <ele>264.77926635742</ele>
        <time>2020-07-10T05:14:53.915Z</time>
      </trkpt>
      <trkpt lat="40.06359823979" lon="-8.47423553467">
        <ele>266.00524902344</ele>
        <time>2020-07-10T05:15:10.088Z</time>
      </trkpt>
      <trkpt lat="40.0638449192" lon="-8.4743642807">
        <ele>265.31747436523</ele>
        <time>2020-07-10T05:15:26.266Z</time>
      </trkpt>
      <trkpt lat="40.06458520889" lon="-8.47441792488">
        <ele>267.97192382812</ele>
        <time>2020-07-10T05:15:42.459Z</time>
      </trkpt>
      <trkpt lat="40.0657761097" lon="-8.47473978996">
        <ele>273.60000610352</ele>
        <time>2020-07-10T05:15:58.677Z</time>
      </trkpt>
      <trkpt lat="40.06602287292" lon="-8.47473978996">
        <ele>277.77465820312</ele>
        <time>2020-07-10T05:16:14.900Z</time>
      </trkpt>
      <trkpt lat="40.06639838219" lon="-8.47511529922">
        <ele>280.18798828125</ele>
        <time>2020-07-10T05:16:31.132Z</time>
      </trkpt>
      <trkpt lat="40.0667309761" lon="-8.47531914711">
        <ele>283.75173950195</ele>
        <time>2020-07-10T05:16:47.371Z</time>
      </trkpt>
      <trkpt lat="40.06756782532" lon="-8.4763276577">
        <ele>278.52200317383</ele>
        <time>2020-07-10T05:17:03.633Z</time>
      </trkpt>
      <trkpt lat="40.06779313087" lon="-8.47670316696">
        <ele>281.71878051758</ele>
        <time>2020-07-10T05:17:19.902Z</time>
      </trkpt>
      <trkpt lat="40.06807208061" lon="-8.47694993019">
        <ele>281.92156982422</ele>
        <time>2020-07-10T05:17:36.178Z</time>
      </trkpt>
      <trkpt lat="40.06841548719" lon="-8.47683191299">
        <ele>279.8869934082</ele>
        <time>2020-07-10T05:17:52.461Z</time>
      </trkpt>
      <trkpt lat="40.06841540337" lon="-8.47683191299">
        <ele>279.8876953125</ele>
        <time>2020-07-10T05:18:08.744Z</time>
      </trkpt>
      <trkpt lat="40.06883391179" lon="-8.47717523575">
        <ele>282.14086914062</ele>
        <time>2020-07-10T05:18:25.037Z</time>
      </trkpt>
      <trkpt lat="40.06890892982" lon="-8.47714304924">
        <ele>281.36883544922</ele>
        <time>2020-07-10T05:18:41.332Z</time>
      </trkpt>
      <trkpt lat="40.06900548935" lon="-8.47689628601">
        <ele>277.17239379883</ele>
        <time>2020-07-10T05:18:57.631Z</time>
      </trkpt>
      <trkpt lat="40.06879091263" lon="-8.4762096405">
        <ele>262.67956542969</ele>
        <time>2020-07-10T05:19:13.941Z</time>
      </trkpt>
      <trkpt lat="40.06885528564" lon="-8.47595214844">
        <ele>254.61708068848</ele>
        <time>2020-07-10T05:19:30.256Z</time>
      </trkpt>
      <trkpt lat="40.06910213269" lon="-8.47612380981">
        <ele>250.74406433105</ele>
        <time>2020-07-10T05:19:46.576Z</time>
      </trkpt>
      <trkpt lat="40.06947755814" lon="-8.47627401352">
        <ele>246.45764160156</ele>
        <time>2020-07-10T05:20:02.904Z</time>
      </trkpt>
      <trkpt lat="40.06979942322" lon="-8.47629547119">
        <ele>245.15536499023</ele>
        <time>2020-07-10T05:20:19.238Z</time>
      </trkpt>
      <trkpt lat="40.07035732269" lon="-8.47629547119">
        <ele>240.89749145508</ele>
        <time>2020-07-10T05:20:35.584Z</time>
      </trkpt>
      <trkpt lat="40.0713121891" lon="-8.47616672516">
        <ele>220.72561645508</ele>
        <time>2020-07-10T05:20:51.949Z</time>
      </trkpt>
      <trkpt lat="40.0725030899" lon="-8.47654223442">
        <ele>217.74809265137</ele>
        <time>2020-07-10T05:21:08.338Z</time>
      </trkpt>
      <trkpt lat="40.07361888885" lon="-8.47661733627">
        <ele>201.36277770996</ele>
        <time>2020-07-10T05:21:24.750Z</time>
      </trkpt>
      <trkpt lat="40.07424116135" lon="-8.47681045532">
        <ele>192.47047424316</ele>
        <time>2020-07-10T05:21:41.174Z</time>
      </trkpt>
      <trkpt lat="40.07463812828" lon="-8.47683191299">
        <ele>180.96536254883</ele>
        <time>2020-07-10T05:21:57.606Z</time>
      </trkpt>
      <trkpt lat="40.07504582405" lon="-8.47701430321">
        <ele>177.5927734375</ele>
        <time>2020-07-10T05:22:14.047Z</time>
      </trkpt>
      <trkpt lat="40.07563591003" lon="-8.47702503204">
        <ele>164.23634338379</ele>
        <time>2020-07-10T05:22:30.500Z</time>
      </trkpt>
      <trkpt lat="40.07609724998" lon="-8.47717523575">
        <ele>161.85563659668</ele>
        <time>2020-07-10T05:22:46.962Z</time>
      </trkpt>
      <trkpt lat="40.07637619972" lon="-8.47718596458">
        <ele>157.46252441406</ele>
        <time>2020-07-10T05:23:03.430Z</time>
      </trkpt>
      <trkpt lat="40.07795333862" lon="-8.4777545929">
        <ele>140.76696777344</ele>
        <time>2020-07-10T05:23:19.931Z</time>
      </trkpt>
      <trkpt lat="40.07840403356" lon="-8.47818374634">
        <ele>145.22039794922</ele>
        <time>2020-07-10T05:23:36.443Z</time>
      </trkpt>
      <trkpt lat="40.07835030556" lon="-8.47789406776">
        <ele>141.70666503906</ele>
        <time>2020-07-10T05:23:52.959Z</time>
      </trkpt>
      <trkpt lat="40.07841467857" lon="-8.47779750824">
        <ele>139.42823791504</ele>
        <time>2020-07-10T05:24:09.477Z</time>
      </trkpt>
      <trkpt lat="40.07870435715" lon="-8.47771167755">
        <ele>136.28735351562</ele>
        <time>2020-07-10T05:24:26.001Z</time>
      </trkpt>
      <trkpt lat="40.07865071297" lon="-8.47727179527">
        <ele>136.00958251953</ele>
        <time>2020-07-10T05:24:42.532Z</time>
      </trkpt>
      <trkpt lat="40.07860779762" lon="-8.47707867622">
        <ele>136.44725036621</ele>
        <time>2020-07-10T05:24:59.066Z</time>
      </trkpt>
      <trkpt lat="40.07857561111" lon="-8.47664952278">
        <ele>137.73254394531</ele>
        <time>2020-07-10T05:25:15.607Z</time>
      </trkpt>
      <trkpt lat="40.07894039154" lon="-8.47585558891">
        <ele>150.8611907959</ele>
        <time>2020-07-10T05:25:32.162Z</time>
      </trkpt>
      <trkpt lat="40.07890820503" lon="-8.4752869606">
        <ele>156.21018981934</ele>
        <time>2020-07-10T05:25:48.726Z</time>
      </trkpt>
      <trkpt lat="40.0789833907" lon="-8.47493290901">
        <ele>161.57835388184</ele>
        <time>2020-07-10T05:26:05.295Z</time>
      </trkpt>
      <trkpt lat="40.07932662964" lon="-8.4737098217">
        <ele>175.48445129395</ele>
        <time>2020-07-10T05:26:21.884Z</time>
      </trkpt>
      <trkpt lat="40.07938035764" lon="-8.47315192223">
        <ele>174.51029968262</ele>
        <time>2020-07-10T05:26:38.482Z</time>
      </trkpt>
      <trkpt lat="40.08013129234" lon="-8.47212195396">
        <ele>184.65560913086</ele>
        <time>2020-07-10T05:26:55.102Z</time>
      </trkpt>
      <trkpt lat="40.08148312569" lon="-8.46938610077">
        <ele>193.06944274902</ele>
        <time>2020-07-10T05:27:11.772Z</time>
      </trkpt>
      <trkpt lat="40.08184798993" lon="-8.46877455711">
        <ele>187.46560668945</ele>
        <time>2020-07-10T05:27:28.454Z</time>
      </trkpt>
      <trkpt lat="40.08184790611" lon="-8.46877455711">
        <ele>187.46530151367</ele>
        <time>2020-07-10T05:27:45.136Z</time>
      </trkpt>
      <trkpt lat="40.0819337368" lon="-8.46863508224">
        <ele>186.26455688477</ele>
        <time>2020-07-10T05:28:01.820Z</time>
      </trkpt>
      <trkpt lat="40.08275985718" lon="-8.46794843674">
        <ele>177.42152404785</ele>
        <time>2020-07-10T05:28:18.524Z</time>
      </trkpt>
      <trkpt lat="40.08307099342" lon="-8.46779823303">
        <ele>174.13101196289</ele>
        <time>2020-07-10T05:28:35.235Z</time>
      </trkpt>
      <trkpt lat="40.08358597755" lon="-8.46787333488">
        <ele>170.90286254883</ele>
        <time>2020-07-10T05:28:51.956Z</time>
      </trkpt>
      <trkpt lat="40.08461602964" lon="-8.46835613251">
        <ele>164.08348083496</ele>
        <time>2020-07-10T05:29:08.699Z</time>
      </trkpt>
      <trkpt lat="40.08498072624" lon="-8.46849560738">
        <ele>162.72009277344</ele>
        <time>2020-07-10T05:29:25.449Z</time>
      </trkpt>
      <trkpt lat="40.08599996567" lon="-8.46853852272">
        <ele>157.85447692871</ele>
        <time>2020-07-10T05:29:42.220Z</time>
      </trkpt>
      <trkpt lat="40.08774876595" lon="-8.4677875042">
        <ele>147.70498657227</ele>
        <time>2020-07-10T05:29:59.028Z</time>
      </trkpt>
      <trkpt lat="40.0879740715" lon="-8.46715450287">
        <ele>144.53036499023</ele>
        <time>2020-07-10T05:30:15.846Z</time>
      </trkpt>
      <trkpt lat="40.08800625801" lon="-8.46637129784">
        <ele>143.7313079834</ele>
        <time>2020-07-10T05:30:32.676Z</time>
      </trkpt>
      <trkpt lat="40.08790969849" lon="-8.46619963646">
        <ele>144.1314239502</ele>
        <time>2020-07-10T05:30:49.510Z</time>
      </trkpt>
      <trkpt lat="40.08759856224" lon="-8.46606016159">
        <ele>145.67791748047</ele>
        <time>2020-07-10T05:31:06.350Z</time>
      </trkpt>
      <trkpt lat="40.08760929108" lon="-8.46583485603">
        <ele>145.35610961914</ele>
        <time>2020-07-10T05:31:23.194Z</time>
      </trkpt>
      <trkpt lat="40.08792042732" lon="-8.46553444862">
        <ele>143.50247192383</ele>
        <time>2020-07-10T05:31:40.045Z</time>
      </trkpt>
      <trkpt lat="40.08805990219" lon="-8.46548080444">
        <ele>142.92266845703</ele>
        <time>2020-07-10T05:31:56.899Z</time>
      </trkpt>
      <trkpt lat="40.08829593658" lon="-8.46549153328">
        <ele>142.08595275879</ele>
        <time>2020-07-10T05:32:13.758Z</time>
      </trkpt>
      <trkpt lat="40.08855342865" lon="-8.46565246582">
        <ele>141.35223388672</ele>
        <time>2020-07-10T05:32:30.623Z</time>
      </trkpt>
      <trkpt lat="40.0900554657" lon="-8.46509456635">
        <ele>138.37283325195</ele>
        <time>2020-07-10T05:32:47.519Z</time>
      </trkpt>
      <trkpt lat="40.09010910988" lon="-8.46482634544">
        <ele>137.98666381836</ele>
        <time>2020-07-10T05:33:04.419Z</time>
      </trkpt>
      <trkpt lat="40.09008765221" lon="-8.46438646317">
        <ele>137.48463439941</ele>
        <time>2020-07-10T05:33:21.326Z</time>
      </trkpt>
      <trkpt lat="40.09020575322" lon="-8.46419334412">
        <ele>136.63050842285</ele>
        <time>2020-07-10T05:33:38.237Z</time>
      </trkpt>
      <trkpt lat="40.09061336517" lon="-8.46392512321">
        <ele>134.63664245605</ele>
        <time>2020-07-10T05:33:55.157Z</time>
      </trkpt>
      <trkpt lat="40.09093523026" lon="-8.46400022507">
        <ele>133.16571044922</ele>
        <time>2020-07-10T05:34:12.083Z</time>
      </trkpt>
      <trkpt lat="40.0916326046" lon="-8.4649014473">
        <ele>129.98928833008</ele>
        <time>2020-07-10T05:34:29.029Z</time>
      </trkpt>
      <trkpt lat="40.0919008255" lon="-8.4654378891">
        <ele>128.61796569824</ele>
        <time>2020-07-10T05:34:45.985Z</time>
      </trkpt>
      <trkpt lat="40.09253382683" lon="-8.46534132957">
        <ele>127.78289031982</ele>
        <time>2020-07-10T05:35:02.954Z</time>
      </trkpt>
      <trkpt lat="40.09344577789" lon="-8.46557736397">
        <ele>127.38287353516</ele>
        <time>2020-07-10T05:35:19.941Z</time>
      </trkpt>
      <trkpt lat="40.09392857552" lon="-8.46529841423">
        <ele>128.33750915527</ele>
        <time>2020-07-10T05:35:36.939Z</time>
      </trkpt>
      <trkpt lat="40.09398604916" lon="-8.46522411966">
        <ele>128.6940612793</ele>
        <time>2020-07-10T05:35:53.938Z</time>
      </trkpt>
      <trkpt lat="40.09436845779" lon="-8.46472978592">
        <ele>130.03323364258</ele>
        <time>2020-07-10T05:36:10.948Z</time>
      </trkpt>
      <trkpt lat="40.09452939034" lon="-8.46476197243">
        <ele>129.95600891113</ele>
        <time>2020-07-10T05:36:27.961Z</time>
      </trkpt>
      <trkpt lat="40.09460449219" lon="-8.46492290497">
        <ele>129.53918457031</ele>
        <time>2020-07-10T05:36:44.977Z</time>
      </trkpt>
      <trkpt lat="40.0946591422" lon="-8.46495031379">
        <ele>129.14556884766</ele>
        <time>2020-07-10T05:37:01.994Z</time>
      </trkpt>
      <trkpt lat="40.09465905838" lon="-8.46495031379">
        <ele>129.1460723877</ele>
        <time>2020-07-10T05:37:19.011Z</time>
      </trkpt>
      <trkpt lat="40.0946591422" lon="-8.46495031379">
        <ele>129.14556884766</ele>
        <time>2020-07-10T05:37:36.028Z</time>
      </trkpt>
      <trkpt lat="40.09473332204" lon="-8.46498727798">
        <ele>128.61186218262</ele>
        <time>2020-07-10T05:37:53.047Z</time>
      </trkpt>
      <trkpt lat="40.09473086121" lon="-8.4647576813">
        <ele>129.17756652832</ele>
        <time>2020-07-10T05:38:10.070Z</time>
      </trkpt>
      <trkpt lat="40.09473084128" lon="-8.46475582186">
        <ele>129.18215942383</ele>
        <time>2020-07-10T05:38:27.093Z</time>
      </trkpt>
      <trkpt lat="40.09472250938" lon="-8.4639787674">
        <ele>131.51445007324</ele>
        <time>2020-07-10T05:38:44.128Z</time>
      </trkpt>
      <trkpt lat="40.09504445828" lon="-8.46433281898">
        <ele>128.31579589844</ele>
        <time>2020-07-10T05:39:01.171Z</time>
      </trkpt>
      <trkpt lat="40.09537696838" lon="-8.46471905708">
        <ele>124.99080657959</ele>
        <time>2020-07-10T05:39:18.223Z</time>
      </trkpt>
      <trkpt lat="40.09554862976" lon="-8.4649014473">
        <ele>124.62650299072</ele>
        <time>2020-07-10T05:39:35.279Z</time>
      </trkpt>
      <trkpt lat="40.09562381543" lon="-8.46514821053">
        <ele>122.68770599365</ele>
        <time>2020-07-10T05:39:52.339Z</time>
      </trkpt>
      <trkpt lat="40.09587049484" lon="-8.46506237984">
        <ele>123.12557220459</ele>
        <time>2020-07-10T05:40:09.404Z</time>
      </trkpt>
      <trkpt lat="40.09623527527" lon="-8.46469759941">
        <ele>126.62687683105</ele>
        <time>2020-07-10T05:40:26.479Z</time>
      </trkpt>
      <trkpt lat="40.09673953056" lon="-8.46449375153">
        <ele>126.15939331055</ele>
        <time>2020-07-10T05:40:43.564Z</time>
      </trkpt>
      <trkpt lat="40.09705066681" lon="-8.4642469883">
        <ele>127.8288269043</ele>
        <time>2020-07-10T05:41:00.656Z</time>
      </trkpt>
      <trkpt lat="40.09774804115" lon="-8.46383929253">
        <ele>134.76863098145</ele>
        <time>2020-07-10T05:41:17.764Z</time>
      </trkpt>
      <trkpt lat="40.09857416153" lon="-8.46446156502">
        <ele>131.10633850098</ele>
        <time>2020-07-10T05:41:34.891Z</time>
      </trkpt>
      <trkpt lat="40.09914278984" lon="-8.46470832825">
        <ele>127.07010650635</ele>
        <time>2020-07-10T05:41:52.030Z</time>
      </trkpt>
      <trkpt lat="40.09989389218" lon="-8.46526622772">
        <ele>123.57769775391</ele>
        <time>2020-07-10T05:42:09.186Z</time>
      </trkpt>
      <trkpt lat="40.10037660599" lon="-8.46511602402">
        <ele>125.28870391846</ele>
        <time>2020-07-10T05:42:26.352Z</time>
      </trkpt>
      <trkpt lat="40.10111689568" lon="-8.46523404121">
        <ele>123.00703430176</ele>
        <time>2020-07-10T05:42:43.533Z</time>
      </trkpt>
      <trkpt lat="40.10182508267" lon="-8.46499800682">
        <ele>125.70243835449</ele>
        <time>2020-07-10T05:43:00.729Z</time>
      </trkpt>
      <trkpt lat="40.10214686394" lon="-8.46497654915">
        <ele>126.5993347168</ele>
        <time>2020-07-10T05:43:17.931Z</time>
      </trkpt>
      <trkpt lat="40.10291934013" lon="-8.46529841423">
        <ele>123.84065246582</ele>
        <time>2020-07-10T05:43:35.149Z</time>
      </trkpt>
      <trkpt lat="40.10339149274" lon="-8.46537351608">
        <ele>121.56358337402</ele>
        <time>2020-07-10T05:43:52.377Z</time>
      </trkpt>
      <trkpt lat="40.10401368141" lon="-8.46508383751">
        <ele>122.18365478516</ele>
        <time>2020-07-10T05:44:09.618Z</time>
      </trkpt>
      <trkpt lat="40.10470032692" lon="-8.46486926079">
        <ele>122.22210693359</ele>
        <time>2020-07-10T05:44:26.873Z</time>
      </trkpt>
      <trkpt lat="40.10492563248" lon="-8.46430063248">
        <ele>122.53681945801</ele>
        <time>2020-07-10T05:44:44.138Z</time>
      </trkpt>
      <trkpt lat="40.10514437745" lon="-8.46335273818">
        <ele>125.22595977783</ele>
        <time>2020-07-10T05:45:01.418Z</time>
      </trkpt>
      <trkpt lat="40.10515093803" lon="-8.4633243084">
        <ele>125.44110870361</ele>
        <time>2020-07-10T05:45:18.698Z</time>
      </trkpt>
      <trkpt lat="40.10560154915" lon="-8.46336722374">
        <ele>123.90852355957</ele>
        <time>2020-07-10T05:45:35.988Z</time>
      </trkpt>
      <trkpt lat="40.10602475144" lon="-8.46327560954">
        <ele>124.56803894043</ele>
        <time>2020-07-10T05:45:53.286Z</time>
      </trkpt>
      <trkpt lat="40.10602491908" lon="-8.46327560954">
        <ele>124.56803894043</ele>
        <time>2020-07-10T05:46:10.584Z</time>
      </trkpt>
      <trkpt lat="40.10602475144" lon="-8.46327560954">
        <ele>124.56803894043</ele>
        <time>2020-07-10T05:46:27.882Z</time>
      </trkpt>
      <trkpt lat="40.10624527931" lon="-8.46322774887">
        <ele>124.91257476807</ele>
        <time>2020-07-10T05:46:45.185Z</time>
      </trkpt>
      <trkpt lat="40.10627668941" lon="-8.46322705099">
        <ele>124.86544799805</ele>
        <time>2020-07-10T05:47:02.488Z</time>
      </trkpt>
      <trkpt lat="40.10627811176" lon="-8.46322701939">
        <ele>124.8571395874</ele>
        <time>2020-07-10T05:47:19.791Z</time>
      </trkpt>
      <trkpt lat="40.10672816075" lon="-8.46321702003">
        <ele>122.89069366455</ele>
        <time>2020-07-10T05:47:37.103Z</time>
      </trkpt>
      <trkpt lat="40.10694273748" lon="-8.46350669861">
        <ele>121.30128479004</ele>
        <time>2020-07-10T05:47:54.421Z</time>
      </trkpt>
      <trkpt lat="40.10737622611" lon="-8.463380244">
        <ele>120.94194030762</ele>
        <time>2020-07-10T05:48:11.748Z</time>
      </trkpt>
      <trkpt lat="40.10745763779" lon="-8.4633564949">
        <ele>120.90125274658</ele>
        <time>2020-07-10T05:48:29.077Z</time>
      </trkpt>
      <trkpt lat="40.10810136795" lon="-8.46298098564">
        <ele>121.42933654785</ele>
        <time>2020-07-10T05:48:46.420Z</time>
      </trkpt>
      <trkpt lat="40.1082147751" lon="-8.46294268034">
        <ele>121.65732574463</ele>
        <time>2020-07-10T05:49:03.765Z</time>
      </trkpt>
      <trkpt lat="40.10846136012" lon="-8.46285912496">
        <ele>122.15367126465</ele>
        <time>2020-07-10T05:49:21.115Z</time>
      </trkpt>
      <trkpt lat="40.10846273718" lon="-8.46285865834">
        <ele>122.15644836426</ele>
        <time>2020-07-10T05:49:38.465Z</time>
      </trkpt>
      <trkpt lat="40.10876663961" lon="-8.46275568008">
        <ele>122.54273223877</ele>
        <time>2020-07-10T05:49:55.822Z</time>
      </trkpt>
      <trkpt lat="40.10931372643" lon="-8.46265912056">
        <ele>122.3497467041</ele>
        <time>2020-07-10T05:50:13.190Z</time>
      </trkpt>
      <trkpt lat="40.11037596501" lon="-8.46211194992">
        <ele>123.19998168945</ele>
        <time>2020-07-10T05:50:30.581Z</time>
      </trkpt>
      <trkpt lat="40.11074066162" lon="-8.46203684807">
        <ele>124.35131072998</ele>
        <time>2020-07-10T05:50:47.979Z</time>
      </trkpt>
      <trkpt lat="40.11135220528" lon="-8.46153259277">
        <ele>126.45264434814</ele>
        <time>2020-07-10T05:51:05.391Z</time>
      </trkpt>
      <trkpt lat="40.11195310391" lon="-8.46128582954">
        <ele>128.50355529785</ele>
        <time>2020-07-10T05:51:22.816Z</time>
      </trkpt>
      <trkpt lat="40.11289715767" lon="-8.4609746933">
        <ele>132.72438049316</ele>
        <time>2020-07-10T05:51:40.261Z</time>
      </trkpt>
      <trkpt lat="40.11385202408" lon="-8.46083521843">
        <ele>140.83862304688</ele>
        <time>2020-07-10T05:51:57.725Z</time>
      </trkpt>
      <trkpt lat="40.11491417885" lon="-8.46026659012">
        <ele>144.89170837402</ele>
        <time>2020-07-10T05:52:15.212Z</time>
      </trkpt>
      <trkpt lat="40.1153755188" lon="-8.45990180969">
        <ele>145.16317749023</ele>
        <time>2020-07-10T05:52:32.709Z</time>
      </trkpt>
      <trkpt lat="40.1159119606" lon="-8.45991253853">
        <ele>145.15469360352</ele>
        <time>2020-07-10T05:52:50.217Z</time>
      </trkpt>
      <trkpt lat="40.11688828468" lon="-8.46028804779">
        <ele>146.40954589844</ele>
        <time>2020-07-10T05:53:07.746Z</time>
      </trkpt>
      <trkpt lat="40.11746764183" lon="-8.46023440361">
        <ele>147.14413452148</ele>
        <time>2020-07-10T05:53:25.286Z</time>
      </trkpt>
      <trkpt lat="40.11746772565" lon="-8.46023440361">
        <ele>147.14433288574</ele>
        <time>2020-07-10T05:53:42.826Z</time>
      </trkpt>
      <trkpt lat="40.11757501401" lon="-8.46022367477">
        <ele>147.36317443848</ele>
        <time>2020-07-10T05:54:00.368Z</time>
      </trkpt>
      <trkpt lat="40.11816501617" lon="-8.46027731895">
        <ele>146.08168029785</ele>
        <time>2020-07-10T05:54:17.922Z</time>
      </trkpt>
      <trkpt lat="40.11855125427" lon="-8.46021294594">
        <ele>142.83781433105</ele>
        <time>2020-07-10T05:54:35.484Z</time>
      </trkpt>
      <trkpt lat="40.11868000031" lon="-8.46010565758">
        <ele>142.07977294922</ele>
        <time>2020-07-10T05:54:53.049Z</time>
      </trkpt>
      <trkpt lat="40.11937737465" lon="-8.45910787582">
        <ele>141.57147216797</ele>
        <time>2020-07-10T05:55:10.635Z</time>
      </trkpt>
      <trkpt lat="40.12011766434" lon="-8.45873236656">
        <ele>135.16203308105</ele>
        <time>2020-07-10T05:55:28.237Z</time>
      </trkpt>
      <trkpt lat="40.1231110096" lon="-8.45861434937">
        <ele>118.93782806396</ele>
        <time>2020-07-10T05:55:45.898Z</time>
      </trkpt>
      <trkpt lat="40.12373328209" lon="-8.45887184143">
        <ele>116.04094696045</ele>
        <time>2020-07-10T05:56:03.572Z</time>
      </trkpt>
      <trkpt lat="40.12432336807" lon="-8.45897912979">
        <ele>116.57662963867</ele>
        <time>2020-07-10T05:56:21.258Z</time>
      </trkpt>
      <trkpt lat="40.12553572655" lon="-8.45953702927">
        <ele>117.36390686035</ele>
        <time>2020-07-10T05:56:38.970Z</time>
      </trkpt>
      <trkpt lat="40.12758493423" lon="-8.45982670784">
        <ele>118.12418365479</ele>
        <time>2020-07-10T05:56:56.723Z</time>
      </trkpt>
      <trkpt lat="40.12758501805" lon="-8.45982670784">
        <ele>118.12448120117</ele>
        <time>2020-07-10T05:57:14.476Z</time>
      </trkpt>
      <trkpt lat="40.12835749425" lon="-8.46015930176">
        <ele>118.51036834717</ele>
        <time>2020-07-10T05:57:32.246Z</time>
      </trkpt>
      <trkpt lat="40.12870073318" lon="-8.46024513245">
        <ele>119.48653411865</ele>
        <time>2020-07-10T05:57:50.023Z</time>
      </trkpt>
      <trkpt lat="40.12970924377" lon="-8.46003055573">
        <ele>121.52415466309</ele>
        <time>2020-07-10T05:58:07.820Z</time>
      </trkpt>
      <trkpt lat="40.13027787209" lon="-8.46009492874">
        <ele>120.50302886963</ele>
        <time>2020-07-10T05:58:25.628Z</time>
      </trkpt>
      <trkpt lat="40.13040661812" lon="-8.4600520134">
        <ele>120.55451965332</ele>
        <time>2020-07-10T05:58:43.439Z</time>
      </trkpt>
      <trkpt lat="40.1308786869" lon="-8.46018075943">
        <ele>120.45153045654</ele>
        <time>2020-07-10T05:59:01.260Z</time>
      </trkpt>
      <trkpt lat="40.13170480728" lon="-8.46019148827">
        <ele>121.92317962646</ele>
        <time>2020-07-10T05:59:19.097Z</time>
      </trkpt>
      <trkpt lat="40.13202570801" lon="-8.46013647707">
        <ele>122.9465637207</ele>
        <time>2020-07-10T05:59:36.941Z</time>
      </trkpt>
      <trkpt lat="40.13245582581" lon="-8.46006274223">
        <ele>124.58153533936</ele>
        <time>2020-07-10T05:59:54.793Z</time>
      </trkpt>
      <trkpt lat="40.13291724958" lon="-8.46019148827">
        <ele>123.70545196533</ele>
        <time>2020-07-10T06:00:12.655Z</time>
      </trkpt>
      <trkpt lat="40.13291716576" lon="-8.46019148827">
        <ele>123.7053527832</ele>
        <time>2020-07-10T06:00:30.517Z</time>
      </trkpt>
      <trkpt lat="40.13291724958" lon="-8.46019148827">
        <ele>123.70545196533</ele>
        <time>2020-07-10T06:00:48.379Z</time>
      </trkpt>
      <trkpt lat="40.13291716576" lon="-8.46019148827">
        <ele>123.7053527832</ele>
        <time>2020-07-10T06:01:06.241Z</time>
      </trkpt>
      <trkpt lat="40.13317162806" lon="-8.46018223514">
        <ele>122.97245788574</ele>
        <time>2020-07-10T06:01:24.108Z</time>
      </trkpt>
      <trkpt lat="40.13317305012" lon="-8.46018218343">
        <ele>122.9677734375</ele>
        <time>2020-07-10T06:01:41.975Z</time>
      </trkpt>
      <trkpt lat="40.13350725174" lon="-8.46017003059">
        <ele>121.8669128418</ele>
        <time>2020-07-10T06:01:59.849Z</time>
      </trkpt>
      <trkpt lat="40.13450503349" lon="-8.4597837925">
        <ele>120.5034866333</ele>
        <time>2020-07-10T06:02:17.743Z</time>
      </trkpt>
      <trkpt lat="40.13571747579" lon="-8.45830321312">
        <ele>116.22721862793</ele>
        <time>2020-07-10T06:02:35.671Z</time>
      </trkpt>
      <trkpt lat="40.13577111997" lon="-8.45821738243">
        <ele>116.33020019531</ele>
        <time>2020-07-10T06:02:53.600Z</time>
      </trkpt>
      <trkpt lat="40.13669371605" lon="-8.45672607422">
        <ele>117.10990905762</ele>
        <time>2020-07-10T06:03:11.559Z</time>
      </trkpt>
      <trkpt lat="40.13705858029" lon="-8.45579266548">
        <ele>118.12986755371</ele>
        <time>2020-07-10T06:03:29.534Z</time>
      </trkpt>
      <trkpt lat="40.13705849648" lon="-8.45579266548">
        <ele>118.13017272949</ele>
        <time>2020-07-10T06:03:47.509Z</time>
      </trkpt>
      <trkpt lat="40.13772376813" lon="-8.45556735992">
        <ele>119.77942657471</ele>
        <time>2020-07-10T06:04:05.497Z</time>
      </trkpt>
      <trkpt lat="40.13790607452" lon="-8.45529913902">
        <ele>121.28540802002</ele>
        <time>2020-07-10T06:04:23.491Z</time>
      </trkpt>
      <trkpt lat="40.13824939728" lon="-8.45499873161">
        <ele>120.88613891602</ele>
        <time>2020-07-10T06:04:41.493Z</time>
      </trkpt>
      <trkpt lat="40.13903260231" lon="-8.45448374748">
        <ele>119.31097412109</ele>
        <time>2020-07-10T06:04:59.513Z</time>
      </trkpt>
      <trkpt lat="40.13986945152" lon="-8.45436573029">
        <ele>121.62372589111</ele>
        <time>2020-07-10T06:05:17.550Z</time>
      </trkpt>
      <trkpt lat="40.14049172401" lon="-8.45431208611">
        <ele>125.21643829346</ele>
        <time>2020-07-10T06:05:35.599Z</time>
      </trkpt>
      <trkpt lat="40.14073848724" lon="-8.4536254406">
        <ele>128.71614074707</ele>
        <time>2020-07-10T06:05:53.660Z</time>
      </trkpt>
      <trkpt lat="40.14112480916" lon="-8.4533572197">
        <ele>130.951171875</ele>
        <time>2020-07-10T06:06:11.729Z</time>
      </trkpt>
      <trkpt lat="40.14176845551" lon="-8.45302462578">
        <ele>135.14317321777</ele>
        <time>2020-07-10T06:06:29.812Z</time>
      </trkpt>
      <trkpt lat="40.14275550842" lon="-8.45248818398">
        <ele>142.51905822754</ele>
        <time>2020-07-10T06:06:47.917Z</time>
      </trkpt>
      <trkpt lat="40.14322757721" lon="-8.45194101334">
        <ele>145.40939331055</ele>
        <time>2020-07-10T06:07:06.034Z</time>
      </trkpt>
      <trkpt lat="40.1435816288" lon="-8.45164060593">
        <ele>147.20085144043</ele>
        <time>2020-07-10T06:07:24.160Z</time>
      </trkpt>
      <trkpt lat="40.14439702034" lon="-8.4515440464">
        <ele>150.17875671387</ele>
        <time>2020-07-10T06:07:42.302Z</time>
      </trkpt>
      <trkpt lat="40.14468669891" lon="-8.45171570778">
        <ele>149.84407043457</ele>
        <time>2020-07-10T06:08:00.450Z</time>
      </trkpt>
      <trkpt lat="40.14544844627" lon="-8.45156550407">
        <ele>151.88415527344</ele>
        <time>2020-07-10T06:08:18.614Z</time>
      </trkpt>
      <trkpt lat="40.14592051506" lon="-8.45131874084">
        <ele>154.79333496094</ele>
        <time>2020-07-10T06:08:36.788Z</time>
      </trkpt>
      <trkpt lat="40.14656424522" lon="-8.45129728317">
        <ele>157.92150878906</ele>
        <time>2020-07-10T06:08:54.975Z</time>
      </trkpt>
      <trkpt lat="40.14722943306" lon="-8.45109343529">
        <ele>162.55183410645</ele>
        <time>2020-07-10T06:09:13.175Z</time>
      </trkpt>
      <trkpt lat="40.14791607857" lon="-8.44968795776">
        <ele>170.02783203125</ele>
        <time>2020-07-10T06:09:31.401Z</time>
      </trkpt>
      <trkpt lat="40.14849543571" lon="-8.44922661781">
        <ele>170.50117492676</ele>
        <time>2020-07-10T06:09:49.641Z</time>
      </trkpt>
      <trkpt lat="40.14901041985" lon="-8.44899058342">
        <ele>170.76112365723</ele>
        <time>2020-07-10T06:10:07.892Z</time>
      </trkpt>
      <trkpt lat="40.15126347542" lon="-8.44828248024">
        <ele>174.20721435547</ele>
        <time>2020-07-10T06:10:26.189Z</time>
      </trkpt>
      <trkpt lat="40.15140295029" lon="-8.44825029373">
        <ele>175.51400756836</ele>
        <time>2020-07-10T06:10:44.489Z</time>
      </trkpt>
      <trkpt lat="40.15143237854" lon="-8.44822046139">
        <ele>175.94012451172</ele>
        <time>2020-07-10T06:11:02.789Z</time>
      </trkpt>
      <trkpt lat="40.15214692801" lon="-8.44749609008">
        <ele>184.81782531738</ele>
        <time>2020-07-10T06:11:21.108Z</time>
      </trkpt>
      <trkpt lat="40.15214709565" lon="-8.44749600627">
        <ele>184.81701660156</ele>
        <time>2020-07-10T06:11:39.427Z</time>
      </trkpt>
      <trkpt lat="40.15214692801" lon="-8.44749609008">
        <ele>184.81782531738</ele>
        <time>2020-07-10T06:11:57.746Z</time>
      </trkpt>
      <trkpt lat="40.15217542648" lon="-8.4474670887">
        <ele>184.68104553223</ele>
        <time>2020-07-10T06:12:16.065Z</time>
      </trkpt>
      <trkpt lat="40.15227198601" lon="-8.44766020775">
        <ele>183.80996704102</ele>
        <time>2020-07-10T06:12:34.388Z</time>
      </trkpt>
      <trkpt lat="40.15231346727" lon="-8.44765478339">
        <ele>183.53427124023</ele>
        <time>2020-07-10T06:12:52.712Z</time>
      </trkpt>
      <trkpt lat="40.15231488281" lon="-8.44765459828">
        <ele>183.52452087402</ele>
        <time>2020-07-10T06:13:11.036Z</time>
      </trkpt>
      <trkpt lat="40.1536667347" lon="-8.44747781754">
        <ele>174.22389221191</ele>
        <time>2020-07-10T06:13:29.387Z</time>
      </trkpt>
      <trkpt lat="40.15473970212" lon="-8.44774603844">
        <ele>174.9499206543</ele>
        <time>2020-07-10T06:13:47.760Z</time>
      </trkpt>
      <trkpt lat="40.15567231195" lon="-8.44762412994">
        <ele>172.66348266602</ele>
        <time>2020-07-10T06:14:06.151Z</time>
      </trkpt>
      <trkpt lat="40.15638121404" lon="-8.44753146172">
        <ele>168.89949035645</ele>
        <time>2020-07-10T06:14:24.557Z</time>
      </trkpt>
      <trkpt lat="40.15656352043" lon="-8.44754219055">
        <ele>167.2115020752</ele>
        <time>2020-07-10T06:14:42.966Z</time>
      </trkpt>
      <trkpt lat="40.15657232143" lon="-8.44755308703">
        <ele>167.03550720215</ele>
        <time>2020-07-10T06:15:01.376Z</time>
      </trkpt>
      <trkpt lat="40.15657240525" lon="-8.44755325466">
        <ele>167.03329467773</ele>
        <time>2020-07-10T06:15:19.786Z</time>
      </trkpt>
      <trkpt lat="40.15657232143" lon="-8.44755308703">
        <ele>167.03550720215</ele>
        <time>2020-07-10T06:15:38.196Z</time>
      </trkpt>
      <trkpt lat="40.15675650874" lon="-8.44778221869">
        <ele>163.9419708252</ele>
        <time>2020-07-10T06:15:56.611Z</time>
      </trkpt>
      <trkpt lat="40.15675753972" lon="-8.44778350125">
        <ele>163.9274597168</ele>
        <time>2020-07-10T06:16:15.026Z</time>
      </trkpt>
      <trkpt lat="40.15700340271" lon="-8.44808936119">
        <ele>162.02882385254</ele>
        <time>2020-07-10T06:16:33.447Z</time>
      </trkpt>
      <trkpt lat="40.15843033791" lon="-8.44831466675">
        <ele>154.12815856934</ele>
        <time>2020-07-10T06:16:51.897Z</time>
      </trkpt>
      <trkpt lat="40.15870928764" lon="-8.44831466675">
        <ele>152.12005615234</ele>
        <time>2020-07-10T06:17:10.353Z</time>
      </trkpt>
      <trkpt lat="40.15912771225" lon="-8.44816446304">
        <ele>148.41467285156</ele>
        <time>2020-07-10T06:17:28.817Z</time>
      </trkpt>
      <trkpt lat="40.15974998474" lon="-8.44794988632">
        <ele>142.7890625</ele>
        <time>2020-07-10T06:17:47.294Z</time>
      </trkpt>
      <trkpt lat="40.16032934189" lon="-8.44763875008">
        <ele>137.10009765625</ele>
        <time>2020-07-10T06:18:05.784Z</time>
      </trkpt>
      <trkpt lat="40.16032942571" lon="-8.44763875008">
        <ele>137.09918212891</ele>
        <time>2020-07-10T06:18:24.274Z</time>
      </trkpt>
      <trkpt lat="40.16125059814" lon="-8.44702079906">
        <ele>126.31871795654</ele>
        <time>2020-07-10T06:18:42.784Z</time>
      </trkpt>
      <trkpt lat="40.16205668449" lon="-8.44648003578">
        <ele>126.60547637939</ele>
        <time>2020-07-10T06:19:01.313Z</time>
      </trkpt>
      <trkpt lat="40.16198158264" lon="-8.4463083744">
        <ele>128.02145385742</ele>
        <time>2020-07-10T06:19:19.845Z</time>
      </trkpt>
      <trkpt lat="40.16207616955" lon="-8.44625516933">
        <ele>128.17749023438</ele>
        <time>2020-07-10T06:19:38.379Z</time>
      </trkpt>
      <trkpt lat="40.16207747691" lon="-8.44625443394">
        <ele>128.17964172363</ele>
        <time>2020-07-10T06:19:56.913Z</time>
      </trkpt>
      <trkpt lat="40.16215324402" lon="-8.44621181488">
        <ele>128.71362304688</ele>
        <time>2020-07-10T06:20:15.448Z</time>
      </trkpt>
      <trkpt lat="40.16271114349" lon="-8.44628691673">
        <ele>132.56976318359</ele>
        <time>2020-07-10T06:20:33.995Z</time>
      </trkpt>
      <trkpt lat="40.16283121227" lon="-8.44626508608">
        <ele>134.18060302734</ele>
        <time>2020-07-10T06:20:52.544Z</time>
      </trkpt>
      <trkpt lat="40.16294717789" lon="-8.44624400139">
        <ele>135.72164916992</ele>
        <time>2020-07-10T06:21:11.095Z</time>
      </trkpt>
      <trkpt lat="40.16311883926" lon="-8.44606161118">
        <ele>137.38220214844</ele>
        <time>2020-07-10T06:21:29.651Z</time>
      </trkpt>
      <trkpt lat="40.16333341599" lon="-8.44597578049">
        <ele>139.39337158203</ele>
        <time>2020-07-10T06:21:48.211Z</time>
      </trkpt>
      <trkpt lat="40.16367598437" lon="-8.44599665143">
        <ele>142.1393737793</ele>
        <time>2020-07-10T06:22:06.778Z</time>
      </trkpt>
      <trkpt lat="40.16367590055" lon="-8.44599665143">
        <ele>142.138671875</ele>
        <time>2020-07-10T06:22:25.345Z</time>
      </trkpt>
      <trkpt lat="40.16367598437" lon="-8.44599665143">
        <ele>142.1393737793</ele>
        <time>2020-07-10T06:22:43.912Z</time>
      </trkpt>
      <trkpt lat="40.16368746758" lon="-8.44599723816">
        <ele>142.23512268066</ele>
        <time>2020-07-10T06:23:02.479Z</time>
      </trkpt>
      <trkpt lat="40.16387759376" lon="-8.44619440567">
        <ele>144.32461547852</ele>
        <time>2020-07-10T06:23:21.051Z</time>
      </trkpt>
      <trkpt lat="40.16387870903" lon="-8.44619556225">
        <ele>144.33804321289</ele>
        <time>2020-07-10T06:23:39.623Z</time>
      </trkpt>
      <trkpt lat="40.16397714615" lon="-8.44629764557">
        <ele>145.52346801758</ele>
        <time>2020-07-10T06:23:58.198Z</time>
      </trkpt>
      <trkpt lat="40.16413807869" lon="-8.44683408737">
        <ele>149.20245361328</ele>
        <time>2020-07-10T06:24:16.782Z</time>
      </trkpt>
      <trkpt lat="40.16435273923" lon="-8.44727396965">
        <ele>153.05078125</ele>
        <time>2020-07-10T06:24:35.374Z</time>
      </trkpt>
      <trkpt lat="40.16469597816" lon="-8.44864726067">
        <ele>153.87733459473</ele>
        <time>2020-07-10T06:24:53.988Z</time>
      </trkpt>
      <trkpt lat="40.16496419907" lon="-8.44925880432">
        <ele>150.36814880371</ele>
        <time>2020-07-10T06:25:12.613Z</time>
      </trkpt>
      <trkpt lat="40.16471743584" lon="-8.45078229904">
        <ele>143.23294067383</ele>
        <time>2020-07-10T06:25:31.261Z</time>
      </trkpt>
      <trkpt lat="40.16453504562" lon="-8.45106124878">
        <ele>142.48945617676</ele>
        <time>2020-07-10T06:25:49.915Z</time>
      </trkpt>
      <trkpt lat="40.16450285912" lon="-8.45126509666">
        <ele>141.02932739258</ele>
        <time>2020-07-10T06:26:08.572Z</time>
      </trkpt>
      <trkpt lat="40.16493201256" lon="-8.45125436783">
        <ele>138.79602050781</ele>
        <time>2020-07-10T06:26:27.238Z</time>
      </trkpt>
      <trkpt lat="40.16543626785" lon="-8.45123291016">
        <ele>138.95947265625</ele>
        <time>2020-07-10T06:26:45.914Z</time>
      </trkpt>
      <trkpt lat="40.16594052315" lon="-8.45077157021">
        <ele>139.77954101562</ele>
        <time>2020-07-10T06:27:04.602Z</time>
      </trkpt>
      <trkpt lat="40.16629457474" lon="-8.45078229904">
        <ele>142.40669250488</ele>
        <time>2020-07-10T06:27:23.297Z</time>
      </trkpt>
      <trkpt lat="40.16656279564" lon="-8.45081448555">
        <ele>145.09703063965</ele>
        <time>2020-07-10T06:27:41.998Z</time>
      </trkpt>
      <trkpt lat="40.16730308533" lon="-8.45111489296">
        <ele>154.7964630127</ele>
        <time>2020-07-10T06:28:00.714Z</time>
      </trkpt>
      <trkpt lat="40.16772150993" lon="-8.45096468925">
        <ele>159.68719482422</ele>
        <time>2020-07-10T06:28:19.439Z</time>
      </trkpt>
      <trkpt lat="40.1680970192" lon="-8.45066428185">
        <ele>164.37727355957</ele>
        <time>2020-07-10T06:28:38.173Z</time>
      </trkpt>
      <trkpt lat="40.16862273216" lon="-8.4505033493">
        <ele>172.62850952148</ele>
        <time>2020-07-10T06:28:56.917Z</time>
      </trkpt>
      <trkpt lat="40.16888022423" lon="-8.45037460327">
        <ele>175.51301574707</ele>
        <time>2020-07-10T06:29:15.667Z</time>
      </trkpt>
      <trkpt lat="40.16914844513" lon="-8.45007419586">
        <ele>176.76419067383</ele>
        <time>2020-07-10T06:29:34.424Z</time>
      </trkpt>
      <trkpt lat="40.17023214139" lon="-8.45013856888">
        <ele>180.16212463379</ele>
        <time>2020-07-10T06:29:53.203Z</time>
      </trkpt>
      <trkpt lat="40.17057538033" lon="-8.44993472099">
        <ele>181.71817016602</ele>
        <time>2020-07-10T06:30:11.989Z</time>
      </trkpt>
      <trkpt lat="40.17145514488" lon="-8.44976305962">
        <ele>181.68637084961</ele>
        <time>2020-07-10T06:30:30.793Z</time>
      </trkpt>
      <trkpt lat="40.171905756" lon="-8.44949483871">
        <ele>185.66395568848</ele>
        <time>2020-07-10T06:30:49.607Z</time>
      </trkpt>
      <trkpt lat="40.17195940018" lon="-8.44935536385">
        <ele>187.29875183105</ele>
        <time>2020-07-10T06:31:08.423Z</time>
      </trkpt>
      <trkpt lat="40.17317175865" lon="-8.44923734665">
        <ele>193.44009399414</ele>
        <time>2020-07-10T06:31:27.264Z</time>
      </trkpt>
      <trkpt lat="40.17338641919" lon="-8.44914078712">
        <ele>194.90786743164</ele>
        <time>2020-07-10T06:31:46.109Z</time>
      </trkpt>
      <trkpt lat="40.17395496368" lon="-8.44989180565">
        <ele>188.24057006836</ele>
        <time>2020-07-10T06:32:04.970Z</time>
      </trkpt>
      <trkpt lat="40.17409452237" lon="-8.44999909401">
        <ele>185.6408996582</ele>
        <time>2020-07-10T06:32:23.835Z</time>
      </trkpt>
      <trkpt lat="40.17426609993" lon="-8.44999909401">
        <ele>183.99401855469</ele>
        <time>2020-07-10T06:32:42.703Z</time>
      </trkpt>
      <trkpt lat="40.17456239481" lon="-8.44976410158">
        <ele>185.09729003906</ele>
        <time>2020-07-10T06:33:01.578Z</time>
      </trkpt>
      <trkpt lat="40.17457723618" lon="-8.44975233078">
        <ele>185.15254211426</ele>
        <time>2020-07-10T06:33:20.453Z</time>
      </trkpt>
      <trkpt lat="40.17477035522" lon="-8.44970941544">
        <ele>184.96543884277</ele>
        <time>2020-07-10T06:33:39.332Z</time>
      </trkpt>
      <trkpt lat="40.1753282547" lon="-8.44974160194">
        <ele>183.13481140137</ele>
        <time>2020-07-10T06:33:58.222Z</time>
      </trkpt>
      <trkpt lat="40.17546161078" lon="-8.44976305962">
        <ele>182.53636169434</ele>
        <time>2020-07-10T06:34:17.115Z</time>
      </trkpt>
      <trkpt lat="40.1755964756" lon="-8.44978451729">
        <ele>180.93293762207</ele>
        <time>2020-07-10T06:34:36.011Z</time>
      </trkpt>
      <trkpt lat="40.17570047872" lon="-8.44985880518">
        <ele>178.8650970459</ele>
        <time>2020-07-10T06:34:54.909Z</time>
      </trkpt>
      <trkpt lat="40.17570172796" lon="-8.44985969749">
        <ele>178.8402557373</ele>
        <time>2020-07-10T06:35:13.807Z</time>
      </trkpt>
      <trkpt lat="40.17574667931" lon="-8.44989180565">
        <ele>178.19432067871</ele>
        <time>2020-07-10T06:35:32.706Z</time>
      </trkpt>
      <trkpt lat="40.17602571286" lon="-8.44989180565">
        <ele>177.52474975586</ele>
        <time>2020-07-10T06:35:51.611Z</time>
      </trkpt>
      <trkpt lat="40.17631530762" lon="-8.44989180565">
        <ele>176.27386474609</ele>
        <time>2020-07-10T06:36:10.522Z</time>
      </trkpt>
      <trkpt lat="40.17581105232" lon="-8.45053553581">
        <ele>171.14016723633</ele>
        <time>2020-07-10T06:36:29.447Z</time>
      </trkpt>
      <trkpt lat="40.17581105232" lon="-8.45054626465">
        <ele>170.99856567383</ele>
        <time>2020-07-10T06:36:48.372Z</time>
      </trkpt>
      <trkpt lat="40.1759827137" lon="-8.45085740089">
        <ele>172.2765045166</ele>
        <time>2020-07-10T06:37:07.303Z</time>
      </trkpt>
      <trkpt lat="40.17599344254" lon="-8.4508895874">
        <ele>172.44384765625</ele>
        <time>2020-07-10T06:37:26.234Z</time>
      </trkpt>
      <trkpt lat="40.17685174942" lon="-8.4502351284">
        <ele>171.66073608398</ele>
        <time>2020-07-10T06:37:45.185Z</time>
      </trkpt>
      <trkpt lat="40.1770234108" lon="-8.45069646835">
        <ele>174.95434570312</ele>
        <time>2020-07-10T06:38:04.144Z</time>
      </trkpt>
      <trkpt lat="40.17710924149" lon="-8.45080375671">
        <ele>176.19010925293</ele>
        <time>2020-07-10T06:38:23.105Z</time>
      </trkpt>
      <trkpt lat="40.1771093253" lon="-8.45080375671">
        <ele>176.19030761719</ele>
        <time>2020-07-10T06:38:42.066Z</time>
      </trkpt>
      <trkpt lat="40.17747402191" lon="-8.45120072365">
        <ele>177.8182220459</ele>
        <time>2020-07-10T06:39:01.037Z</time>
      </trkpt>
      <trkpt lat="40.17762422562" lon="-8.45124363899">
        <ele>177.68949890137</ele>
        <time>2020-07-10T06:39:20.011Z</time>
      </trkpt>
      <trkpt lat="40.17759203911" lon="-8.45131874084">
        <ele>177.8182220459</ele>
        <time>2020-07-10T06:39:38.986Z</time>
      </trkpt>
      <trkpt lat="40.1777100563" lon="-8.4517800808">
        <ele>187.5052947998</ele>
        <time>2020-07-10T06:39:57.969Z</time>
      </trkpt>
      <trkpt lat="40.17799973488" lon="-8.45205903053">
        <ele>191.44964599609</ele>
        <time>2020-07-10T06:40:16.959Z</time>
      </trkpt>
      <trkpt lat="40.17818212509" lon="-8.45212340355">
        <ele>193.11019897461</ele>
        <time>2020-07-10T06:40:35.953Z</time>
      </trkpt>
      <trkpt lat="40.17895574541" lon="-8.45204473087">
        <ele>201.52612304688</ele>
        <time>2020-07-10T06:40:54.962Z</time>
      </trkpt>
      <trkpt lat="40.17944812775" lon="-8.45199465752">
        <ele>204.56828308105</ele>
        <time>2020-07-10T06:41:13.981Z</time>
      </trkpt>
      <trkpt lat="40.17984509468" lon="-8.45184445381">
        <ele>205.25592041016</ele>
        <time>2020-07-10T06:41:33.008Z</time>
      </trkpt>
      <trkpt lat="40.1798451785" lon="-8.45184445381">
        <ele>205.25570678711</ele>
        <time>2020-07-10T06:41:52.035Z</time>
      </trkpt>
      <trkpt lat="40.18000602722" lon="-8.45189809799">
        <ele>204.35484313965</ele>
        <time>2020-07-10T06:42:11.066Z</time>
      </trkpt>
      <trkpt lat="40.18007613596" lon="-8.45196820641">
        <ele>203.51368713379</ele>
        <time>2020-07-10T06:42:30.098Z</time>
      </trkpt>
      <trkpt lat="40.18007726687" lon="-8.45196933731">
        <ele>203.50010681152</ele>
        <time>2020-07-10T06:42:49.130Z</time>
      </trkpt>
      <trkpt lat="40.18031716347" lon="-8.45220923424">
        <ele>200.92724609375</ele>
        <time>2020-07-10T06:43:08.168Z</time>
      </trkpt>
      <trkpt lat="40.18089652061" lon="-8.45182299614">
        <ele>201.29035949707</ele>
        <time>2020-07-10T06:43:27.219Z</time>
      </trkpt>
      <trkpt lat="40.18117547035" lon="-8.45184445381">
        <ele>199.46513366699</ele>
        <time>2020-07-10T06:43:46.276Z</time>
      </trkpt>
      <trkpt lat="40.18128275871" lon="-8.4520483017">
        <ele>198.98913574219</ele>
        <time>2020-07-10T06:44:05.337Z</time>
      </trkpt>
      <trkpt lat="40.18126130104" lon="-8.45249891281">
        <ele>198.95393371582</ele>
        <time>2020-07-10T06:44:24.405Z</time>
      </trkpt>
      <trkpt lat="40.18137931824" lon="-8.45287442207">
        <ele>196.54759216309</ele>
        <time>2020-07-10T06:44:43.479Z</time>
      </trkpt>
      <trkpt lat="40.18216252327" lon="-8.45430135727">
        <ele>191.68586730957</ele>
        <time>2020-07-10T06:45:02.580Z</time>
      </trkpt>
      <trkpt lat="40.18228054047" lon="-8.4546661377">
        <ele>184.12266540527</ele>
        <time>2020-07-10T06:45:21.687Z</time>
      </trkpt>
      <trkpt lat="40.18262386322" lon="-8.45513820648">
        <ele>173.59986877441</ele>
        <time>2020-07-10T06:45:40.804Z</time>
      </trkpt>
      <trkpt lat="40.18358945847" lon="-8.45617890358">
        <ele>161.98617553711</ele>
        <time>2020-07-10T06:45:59.946Z</time>
      </trkpt>
      <trkpt lat="40.18396625283" lon="-8.45636231371">
        <ele>159.66122436523</ele>
        <time>2020-07-10T06:46:19.096Z</time>
      </trkpt>
      <trkpt lat="40.18481547944" lon="-8.45677569509">
        <ele>157.53190612793</ele>
        <time>2020-07-10T06:46:38.264Z</time>
      </trkpt>
      <trkpt lat="40.18481539562" lon="-8.45677552745">
        <ele>157.52998352051</ele>
        <time>2020-07-10T06:46:57.432Z</time>
      </trkpt>
      <trkpt lat="40.18481547944" lon="-8.45677569509">
        <ele>157.53190612793</ele>
        <time>2020-07-10T06:47:16.600Z</time>
      </trkpt>
      <trkpt lat="40.18505328132" lon="-8.45689136355">
        <ele>156.70808410645</ele>
        <time>2020-07-10T06:47:35.773Z</time>
      </trkpt>
      <trkpt lat="40.1850546155" lon="-8.45689201251">
        <ele>156.70077514648</ele>
        <time>2020-07-10T06:47:54.946Z</time>
      </trkpt>
      <trkpt lat="40.18559575081" lon="-8.45715522766">
        <ele>154.90602111816</ele>
        <time>2020-07-10T06:48:14.131Z</time>
      </trkpt>
      <trkpt lat="40.18663644791" lon="-8.45789551735">
        <ele>147.1787109375</ele>
        <time>2020-07-10T06:48:33.339Z</time>
      </trkpt>
      <trkpt lat="40.1874089241" lon="-8.45859289169">
        <ele>136.39320373535</ele>
        <time>2020-07-10T06:48:52.566Z</time>
      </trkpt>
      <trkpt lat="40.1876449585" lon="-8.45871090889">
        <ele>133.9860534668</ele>
        <time>2020-07-10T06:49:11.798Z</time>
      </trkpt>
      <trkpt lat="40.18802046776" lon="-8.45865726471">
        <ele>132.72505187988</ele>
        <time>2020-07-10T06:49:31.038Z</time>
      </trkpt>
      <trkpt lat="40.18869638443" lon="-8.4582388401">
        <ele>118.13217163086</ele>
        <time>2020-07-10T06:49:50.293Z</time>
      </trkpt>
      <trkpt lat="40.18917918205" lon="-8.45795989037">
        <ele>113.33750152588</ele>
        <time>2020-07-10T06:50:09.558Z</time>
      </trkpt>
      <trkpt lat="40.19064903259" lon="-8.4575843811">
        <ele>107.7919921875</ele>
        <time>2020-07-10T06:50:28.853Z</time>
      </trkpt>
      <trkpt lat="40.19107826985" lon="-8.45719814301">
        <ele>105.9899520874</ele>
        <time>2020-07-10T06:50:48.159Z</time>
      </trkpt>
      <trkpt lat="40.19109964371" lon="-8.45702648163">
        <ele>104.98579406738</ele>
        <time>2020-07-10T06:51:07.467Z</time>
      </trkpt>
      <trkpt lat="40.1911854744" lon="-8.45698356628">
        <ele>104.8313293457</ele>
        <time>2020-07-10T06:51:26.777Z</time>
      </trkpt>
      <trkpt lat="40.19126057625" lon="-8.45702648163">
        <ele>105.17888641357</ele>
        <time>2020-07-10T06:51:46.089Z</time>
      </trkpt>
      <trkpt lat="40.19268751144" lon="-8.45574975014">
        <ele>88.55560302734</ele>
        <time>2020-07-10T06:52:05.435Z</time>
      </trkpt>
      <trkpt lat="40.19302010536" lon="-8.45553517342">
        <ele>84.23840332031</ele>
        <time>2020-07-10T06:52:24.789Z</time>
      </trkpt>
      <trkpt lat="40.19325613976" lon="-8.45548152924">
        <ele>83.05413818359</ele>
        <time>2020-07-10T06:52:44.148Z</time>
      </trkpt>
      <trkpt lat="40.19370675087" lon="-8.4555888176">
        <ele>79.63988494873</ele>
        <time>2020-07-10T06:53:03.516Z</time>
      </trkpt>
      <trkpt lat="40.19421100616" lon="-8.45601797104">
        <ele>78.06767272949</ele>
        <time>2020-07-10T06:53:22.896Z</time>
      </trkpt>
      <trkpt lat="40.19459732808" lon="-8.45646858215">
        <ele>71.78671264648</ele>
        <time>2020-07-10T06:53:42.286Z</time>
      </trkpt>
      <trkpt lat="40.19479036331" lon="-8.45632910728">
        <ele>73.81172180176</ele>
        <time>2020-07-10T06:54:01.681Z</time>
      </trkpt>
      <trkpt lat="40.19524097443" lon="-8.45631837845">
        <ele>75.91213226318</ele>
        <time>2020-07-10T06:54:21.085Z</time>
      </trkpt>
      <trkpt lat="40.19555211067" lon="-8.45660805702">
        <ele>71.02465057373</ele>
        <time>2020-07-10T06:54:40.496Z</time>
      </trkpt>
      <trkpt lat="40.1965070609" lon="-8.45654368401">
        <ele>64.99336242676</ele>
        <time>2020-07-10T06:54:59.926Z</time>
      </trkpt>
      <trkpt lat="40.19704341888" lon="-8.45709085464">
        <ele>60.22734069824</ele>
        <time>2020-07-10T06:55:19.370Z</time>
      </trkpt>
      <trkpt lat="40.19736528397" lon="-8.45728397369">
        <ele>62.14779663086</ele>
        <time>2020-07-10T06:55:38.821Z</time>
      </trkpt>
      <trkpt lat="40.19750484265" lon="-8.45719814301">
        <ele>61.59438323975</ele>
        <time>2020-07-10T06:55:58.275Z</time>
      </trkpt>
      <trkpt lat="40.19813776016" lon="-8.45682263374">
        <ele>59.4217300415</ele>
        <time>2020-07-10T06:56:17.743Z</time>
      </trkpt>
      <trkpt lat="40.19856699742" lon="-8.45646858215">
        <ele>57.05340194702</ele>
        <time>2020-07-10T06:56:37.221Z</time>
      </trkpt>
      <trkpt lat="40.19893169403" lon="-8.45617890358">
        <ele>54.97016906738</ele>
        <time>2020-07-10T06:56:56.708Z</time>
      </trkpt>
      <trkpt lat="40.199457407" lon="-8.45592141151">
        <ele>53.38412475586</ele>
        <time>2020-07-10T06:57:16.206Z</time>
      </trkpt>
      <trkpt lat="40.19963988103" lon="-8.45601797104">
        <ele>54.21326446533</ele>
        <time>2020-07-10T06:57:35.708Z</time>
      </trkpt>
      <trkpt lat="40.19963979721" lon="-8.45601797104">
        <ele>54.2131652832</ele>
        <time>2020-07-10T06:57:55.210Z</time>
      </trkpt>
      <trkpt lat="40.19971489906" lon="-8.45577120781">
        <ele>52.55679702759</ele>
        <time>2020-07-10T06:58:14.716Z</time>
      </trkpt>
      <trkpt lat="40.20025134087" lon="-8.45571756363">
        <ele>52.45483779907</ele>
        <time>2020-07-10T06:58:34.233Z</time>
      </trkpt>
      <trkpt lat="40.20219326019" lon="-8.45523476601">
        <ele>45.55075073242</ele>
        <time>2020-07-10T06:58:53.789Z</time>
      </trkpt>
      <trkpt lat="40.20254731178" lon="-8.45510601997">
        <ele>46.07392501831</ele>
        <time>2020-07-10T06:59:13.353Z</time>
      </trkpt>
      <trkpt lat="40.20373821259" lon="-8.45438718796">
        <ele>42.55852508545</ele>
        <time>2020-07-10T06:59:32.943Z</time>
      </trkpt>
      <trkpt lat="40.20467162132" lon="-8.45437645912">
        <ele>42.61459350586</ele>
        <time>2020-07-10T06:59:52.551Z</time>
      </trkpt>
      <trkpt lat="40.20560503006" lon="-8.45423698425">
        <ele>41.44340133667</ele>
        <time>2020-07-10T07:00:12.178Z</time>
      </trkpt>
      <trkpt lat="40.20709633827" lon="-8.45440864563">
        <ele>45.42646026611</ele>
        <time>2020-07-10T07:00:31.835Z</time>
      </trkpt>
      <trkpt lat="40.2082657814" lon="-8.45410823822">
        <ele>48.59721755981</ele>
        <time>2020-07-10T07:00:51.516Z</time>
      </trkpt>
      <trkpt lat="40.20883449353" lon="-8.45441937447">
        <ele>54.45742416382</ele>
        <time>2020-07-10T07:01:11.209Z</time>
      </trkpt>
      <trkpt lat="40.20909190178" lon="-8.45440864563">
        <ele>55.03648376465</ele>
        <time>2020-07-10T07:01:30.907Z</time>
      </trkpt>
      <trkpt lat="40.20907052793" lon="-8.45422625542">
        <ele>53.49741363525</ele>
        <time>2020-07-10T07:01:50.608Z</time>
      </trkpt>
      <trkpt lat="40.20897388458" lon="-8.45327138901">
        <ele>47.05368423462</ele>
        <time>2020-07-10T07:02:10.324Z</time>
      </trkpt>
      <trkpt lat="40.20904898643" lon="-8.45308899879">
        <ele>44.51781082153</ele>
        <time>2020-07-10T07:02:30.043Z</time>
      </trkpt>
      <trkpt lat="40.20916700363" lon="-8.45301389694">
        <ele>43.5781211853</ele>
        <time>2020-07-10T07:02:49.765Z</time>
      </trkpt>
      <trkpt lat="40.2093064785" lon="-8.45255255699">
        <ele>37.86442565918</ele>
        <time>2020-07-10T07:03:09.494Z</time>
      </trkpt>
      <trkpt lat="40.20913481712" lon="-8.45186591148">
        <ele>33.24652099609</ele>
        <time>2020-07-10T07:03:29.234Z</time>
      </trkpt>
      <trkpt lat="40.20991802216" lon="-8.4516620636">
        <ele>31.50029945374</ele>
        <time>2020-07-10T07:03:48.990Z</time>
      </trkpt>
      <trkpt lat="40.21077632904" lon="-8.45172643661">
        <ele>30.13874816895</ele>
        <time>2020-07-10T07:04:08.764Z</time>
      </trkpt>
      <trkpt lat="40.21123766899" lon="-8.4518122673">
        <ele>29.99715042114</ele>
        <time>2020-07-10T07:04:28.547Z</time>
      </trkpt>
      <trkpt lat="40.21138795651" lon="-8.45205903053">
        <ele>33.56532287598</ele>
        <time>2020-07-10T07:04:48.335Z</time>
      </trkpt>
      <trkpt lat="40.21155953407" lon="-8.45206975937">
        <ele>33.12796020508</ele>
        <time>2020-07-10T07:05:08.126Z</time>
      </trkpt>
      <trkpt lat="40.21217107773" lon="-8.45199465752">
        <ele>28.77144241333</ele>
        <time>2020-07-10T07:05:27.929Z</time>
      </trkpt>
      <trkpt lat="40.21250367165" lon="-8.45194101334">
        <ele>27.79313659668</ele>
        <time>2020-07-10T07:05:47.739Z</time>
      </trkpt>
      <trkpt lat="40.21344331085" lon="-8.45152136973">
        <ele>24.54369163513</ele>
        <time>2020-07-10T07:06:07.569Z</time>
      </trkpt>
      <trkpt lat="40.21360874176" lon="-8.45144748688">
        <ele>24.18911361694</ele>
        <time>2020-07-10T07:06:27.403Z</time>
      </trkpt>
      <trkpt lat="40.21408081055" lon="-8.4510076046">
        <ele>21.01657485962</ele>
        <time>2020-07-10T07:06:47.248Z</time>
      </trkpt>
      <trkpt lat="40.21423109807" lon="-8.45097541809">
        <ele>20.3975982666</ele>
        <time>2020-07-10T07:07:07.096Z</time>
      </trkpt>
      <trkpt lat="40.21423101425" lon="-8.45097541809">
        <ele>20.39789962769</ele>
        <time>2020-07-10T07:07:26.944Z</time>
      </trkpt>
      <trkpt lat="40.21423109807" lon="-8.45097541809">
        <ele>20.3975982666</ele>
        <time>2020-07-10T07:07:46.792Z</time>
      </trkpt>
      <trkpt lat="40.21423660506" lon="-8.45064316718">
        <ele>20.37777709961</ele>
        <time>2020-07-10T07:08:06.645Z</time>
      </trkpt>
      <trkpt lat="40.21423663595" lon="-8.45064130345">
        <ele>20.37766456604</ele>
        <time>2020-07-10T07:08:26.498Z</time>
      </trkpt>
      <trkpt lat="40.2142739296" lon="-8.4483897686">
        <ele>19.48617553711</ele>
        <time>2020-07-10T07:08:46.386Z</time>
      </trkpt>
      <trkpt lat="40.21446704865" lon="-8.44722032547">
        <ele>21.25555992126</ele>
        <time>2020-07-10T07:09:06.292Z</time>
      </trkpt>
      <trkpt lat="40.21439194679" lon="-8.44690918922">
        <ele>21.81863975525</ele>
        <time>2020-07-10T07:09:26.203Z</time>
      </trkpt>
      <trkpt lat="40.21426328458" lon="-8.44685554504">
        <ele>22.28174591064</ele>
        <time>2020-07-10T07:09:46.117Z</time>
      </trkpt>
      <trkpt lat="40.21414526738" lon="-8.44698429108">
        <ele>22.7065372467</ele>
        <time>2020-07-10T07:10:06.034Z</time>
      </trkpt>
      <trkpt lat="40.21417737007" lon="-8.44726324081">
        <ele>22.59098625183</ele>
        <time>2020-07-10T07:10:25.955Z</time>
      </trkpt>
      <trkpt lat="40.21427401341" lon="-8.44740271568">
        <ele>21.96314430237</ele>
        <time>2020-07-10T07:10:45.879Z</time>
      </trkpt>
      <trkpt lat="40.21469243802" lon="-8.44759583473">
        <ele>19.72333526611</ele>
        <time>2020-07-10T07:11:05.812Z</time>
      </trkpt>
      <trkpt lat="40.21477818489" lon="-8.4476172924">
        <ele>19.28607368469</ele>
        <time>2020-07-10T07:11:25.747Z</time>
      </trkpt>
      <trkpt lat="40.21500349045" lon="-8.44774603844">
        <ele>17.94403839111</ele>
        <time>2020-07-10T07:11:45.687Z</time>
      </trkpt>
      <trkpt lat="40.21508932114" lon="-8.44787478447">
        <ele>17.22318077087</ele>
        <time>2020-07-10T07:12:05.629Z</time>
      </trkpt>
      <trkpt lat="40.21508932114" lon="-8.4481215477">
        <ele>16.99298667908</ele>
        <time>2020-07-10T07:12:25.575Z</time>
      </trkpt>
      <trkpt lat="40.21489620209" lon="-8.44893693924">
        <ele>18.20299720764</ele>
        <time>2020-07-10T07:12:45.534Z</time>
      </trkpt>
      <trkpt lat="40.21485328674" lon="-8.44944119453">
        <ele>18.43872833252</ele>
        <time>2020-07-10T07:13:05.501Z</time>
      </trkpt>
      <trkpt lat="40.21484255791" lon="-8.45091104507">
        <ele>18.90365600586</ele>
        <time>2020-07-10T07:13:25.490Z</time>
      </trkpt>
      <trkpt lat="40.21489620209" lon="-8.4511256218">
        <ele>19.32221031189</ele>
        <time>2020-07-10T07:13:45.483Z</time>
      </trkpt>
      <trkpt lat="40.21503567696" lon="-8.45123291016">
        <ele>19.5796585083</ele>
        <time>2020-07-10T07:14:05.479Z</time>
      </trkpt>
      <trkpt lat="40.21523952484" lon="-8.45121145248">
        <ele>19.53629684448</ele>
        <time>2020-07-10T07:14:25.479Z</time>
      </trkpt>
      <trkpt lat="40.21631240845" lon="-8.45081448555">
        <ele>19.39470100403</ele>
        <time>2020-07-10T07:14:45.501Z</time>
      </trkpt>
      <trkpt lat="40.216537714" lon="-8.45091104507">
        <ele>19.60204315186</ele>
        <time>2020-07-10T07:15:05.528Z</time>
      </trkpt>
      <trkpt lat="40.21658062935" lon="-8.45126509666">
        <ele>19.97534561157</ele>
        <time>2020-07-10T07:15:25.561Z</time>
      </trkpt>
      <trkpt lat="40.21668791771" lon="-8.45120072365">
        <ele>19.7693862915</ele>
        <time>2020-07-10T07:15:45.596Z</time>
      </trkpt>
      <trkpt lat="40.21680593491" lon="-8.45098614693">
        <ele>19.37034034729</ele>
        <time>2020-07-10T07:16:05.635Z</time>
      </trkpt>
      <trkpt lat="40.21682739258" lon="-8.45087885857">
        <ele>19.21586990356</ele>
        <time>2020-07-10T07:16:25.676Z</time>
      </trkpt>
      <trkpt lat="40.21669864655" lon="-8.45067501068">
        <ele>19.12576293945</ele>
        <time>2020-07-10T07:16:45.721Z</time>
      </trkpt>
      <trkpt lat="40.21674156189" lon="-8.45043897629">
        <ele>18.55799102783</ele>
        <time>2020-07-10T07:17:05.770Z</time>
      </trkpt>
      <trkpt lat="40.21698832512" lon="-8.45013856888">
        <ele>17.77276992798</ele>
        <time>2020-07-10T07:17:25.825Z</time>
      </trkpt>
      <trkpt lat="40.21829724312" lon="-8.44799280167">
        <ele>16.17461013794</ele>
        <time>2020-07-10T07:17:45.922Z</time>
      </trkpt>
      <trkpt lat="40.21850117482" lon="-8.44781041145">
        <ele>15.68525600433</ele>
        <time>2020-07-10T07:18:06.024Z</time>
      </trkpt>
      <trkpt lat="40.21807193756" lon="-8.44541788101">
        <ele>17.42712020874</ele>
        <time>2020-07-10T07:18:26.164Z</time>
      </trkpt>
      <trkpt lat="40.21780371666" lon="-8.44457030296">
        <ele>15.77150440216</ele>
        <time>2020-07-10T07:18:46.318Z</time>
      </trkpt>
      <trkpt lat="40.21746039391" lon="-8.44371199608">
        <ele>13.98142242432</ele>
        <time>2020-07-10T07:19:06.487Z</time>
      </trkpt>
      <trkpt lat="40.21722435951" lon="-8.44330430031">
        <ele>13.91698741913</ele>
        <time>2020-07-10T07:19:26.664Z</time>
      </trkpt>
      <trkpt lat="40.21659135818" lon="-8.44258546829">
        <ele>15.19397735596</ele>
        <time>2020-07-10T07:19:46.857Z</time>
      </trkpt>
      <trkpt lat="40.21576523781" lon="-8.44183444977">
        <ele>15.02875423431</ele>
        <time>2020-07-10T07:20:07.071Z</time>
      </trkpt>
      <trkpt lat="40.21479964256" lon="-8.44127655029">
        <ele>18.48608589172</ele>
        <time>2020-07-10T07:20:27.306Z</time>
      </trkpt>
      <trkpt lat="40.21473535337" lon="-8.44125509262">
        <ele>19.02602386475</ele>
        <time>2020-07-10T07:20:47.542Z</time>
      </trkpt>
      <trkpt lat="40.21478891373" lon="-8.44122290611">
        <ele>18.57619285583</ele>
        <time>2020-07-10T07:21:07.779Z</time>
      </trkpt>
      <trkpt lat="40.21501421928" lon="-8.44087958336">
        <ele>17.34440422058</ele>
        <time>2020-07-10T07:21:28.023Z</time>
      </trkpt>
      <trkpt lat="40.21594762802" lon="-8.43930244446">
        <ele>16.09737586975</ele>
        <time>2020-07-10T07:21:48.298Z</time>
      </trkpt>
      <trkpt lat="40.21601208486" lon="-8.43916296959">
        <ele>16.7667427063</ele>
        <time>2020-07-10T07:22:08.575Z</time>
      </trkpt>
      <trkpt lat="40.2161192894" lon="-8.43902349472">
        <ele>17.4361114502</ele>
        <time>2020-07-10T07:22:28.855Z</time>
      </trkpt>
      <trkpt lat="40.21631240845" lon="-8.43910932541">
        <ele>17.02419281006</ele>
        <time>2020-07-10T07:22:49.139Z</time>
      </trkpt>
      <trkpt lat="40.21708488464" lon="-8.439463377">
        <ele>17.38172149658</ele>
        <time>2020-07-10T07:23:09.440Z</time>
      </trkpt>
      <trkpt lat="40.2170419693" lon="-8.43964576721">
        <ele>17.89661979675</ele>
        <time>2020-07-10T07:23:29.744Z</time>
      </trkpt>
      <trkpt lat="40.21702051163" lon="-8.43991398811">
        <ele>19.00365066528</ele>
        <time>2020-07-10T07:23:50.052Z</time>
      </trkpt>
      <trkpt lat="40.21750330925" lon="-8.43992471695">
        <ele>20.9046497345</ele>
        <time>2020-07-10T07:24:10.369Z</time>
      </trkpt>
      <trkpt lat="40.21770715714" lon="-8.4399998188">
        <ele>21.32944107056</ele>
        <time>2020-07-10T07:24:30.691Z</time>
      </trkpt>
      <trkpt lat="40.21993875504" lon="-8.44168424606">
        <ele>17.35343170166</ele>
        <time>2020-07-10T07:24:51.064Z</time>
      </trkpt>
      <trkpt lat="40.22029280663" lon="-8.44190955162">
        <ele>15.99373817444</ele>
        <time>2020-07-10T07:25:11.445Z</time>
      </trkpt>
      <trkpt lat="40.22109746933" lon="-8.44220995903">
        <ele>15.55129718781</ele>
        <time>2020-07-10T07:25:31.843Z</time>
      </trkpt>
      <trkpt lat="40.22109755315" lon="-8.44220995903">
        <ele>15.55089473724</ele>
        <time>2020-07-10T07:25:52.241Z</time>
      </trkpt>
      <trkpt lat="40.22195577621" lon="-8.4424996376">
        <ele>16.4144859314</ele>
        <time>2020-07-10T07:26:12.656Z</time>
      </trkpt>
      <trkpt lat="40.2222776413" lon="-8.44285368919">
        <ele>17.41863822937</ele>
        <time>2020-07-10T07:26:33.080Z</time>
      </trkpt>
      <trkpt lat="40.22258877754" lon="-8.44346523285">
        <ele>19.16177940369</ele>
        <time>2020-07-10T07:26:53.515Z</time>
      </trkpt>
      <trkpt lat="40.22264250554" lon="-8.44363689423">
        <ele>18.51703834534</ele>
        <time>2020-07-10T07:27:13.953Z</time>
      </trkpt>
      <trkpt lat="40.22276052274" lon="-8.44422698021">
        <ele>17.69678688049</ele>
        <time>2020-07-10T07:27:34.400Z</time>
      </trkpt>
      <trkpt lat="40.22289991379" lon="-8.44490289688">
        <ele>17.8251209259</ele>
        <time>2020-07-10T07:27:54.858Z</time>
      </trkpt>
      <trkpt lat="40.22295355797" lon="-8.44564318657">
        <ele>17.42001342773</ele>
        <time>2020-07-10T07:28:15.327Z</time>
      </trkpt>
      <trkpt lat="40.22322186269" lon="-8.44568610191">
        <ele>19.61400604248</ele>
        <time>2020-07-10T07:28:35.802Z</time>
      </trkpt>
      <trkpt lat="40.2232540492" lon="-8.44561100006">
        <ele>19.97443580627</ele>
        <time>2020-07-10T07:28:56.278Z</time>
      </trkpt>
      <trkpt lat="40.22367238998" lon="-8.4444630146">
        <ele>18.20373153687</ele>
        <time>2020-07-10T07:29:16.774Z</time>
      </trkpt>
      <trkpt lat="40.22386559285" lon="-8.44373345375">
        <ele>15.87594413757</ele>
        <time>2020-07-10T07:29:37.281Z</time>
      </trkpt>
      <trkpt lat="40.22386550903" lon="-8.44373345375">
        <ele>15.87594413757</ele>
        <time>2020-07-10T07:29:57.788Z</time>
      </trkpt>
      <trkpt lat="40.22394061089" lon="-8.4431540966">
        <ele>15.62265491486</ele>
        <time>2020-07-10T07:30:18.304Z</time>
      </trkpt>
      <trkpt lat="40.22386559285" lon="-8.44257473946">
        <ele>17.0</ele>
        <time>2020-07-10T07:30:38.829Z</time>
      </trkpt>
      <trkpt lat="40.22386550903" lon="-8.44257473946">
        <ele>17.0</ele>
        <time>2020-07-10T07:30:59.354Z</time>
      </trkpt>
      <trkpt lat="40.22381194867" lon="-8.44247817993">
        <ele>17.0</ele>
        <time>2020-07-10T07:31:19.881Z</time>
      </trkpt>
      <trkpt lat="40.22385486402" lon="-8.44215631485">
        <ele>17.0</ele>
        <time>2020-07-10T07:31:40.413Z</time>
      </trkpt>
      <trkpt lat="40.2238547802" lon="-8.44215631485">
        <ele>17.0</ele>
        <time>2020-07-10T07:32:00.945Z</time>
      </trkpt>
      <trkpt lat="40.22391915321" lon="-8.44209194183">
        <ele>17.0</ele>
        <time>2020-07-10T07:32:21.479Z</time>
      </trkpt>
      <trkpt lat="40.22416591644" lon="-8.44214558601">
        <ele>17.0</ele>
        <time>2020-07-10T07:32:42.018Z</time>
      </trkpt>
      <trkpt lat="40.22421956062" lon="-8.4422314167">
        <ele>16.99187088013</ele>
        <time>2020-07-10T07:33:02.559Z</time>
      </trkpt>
      <trkpt lat="40.22442349233" lon="-8.44241380692">
        <ele>16.52836227417</ele>
        <time>2020-07-10T07:33:23.104Z</time>
      </trkpt>
      <trkpt lat="40.22447705269" lon="-8.44245672226">
        <ele>16.41261100769</ele>
        <time>2020-07-10T07:33:43.651Z</time>
      </trkpt>
      <trkpt lat="40.22461661138" lon="-8.44240307808">
        <ele>16.30953025818</ele>
        <time>2020-07-10T07:34:04.201Z</time>
      </trkpt>
      <trkpt lat="40.22461652756" lon="-8.44240307808">
        <ele>16.30963134766</ele>
        <time>2020-07-10T07:34:24.751Z</time>
      </trkpt>
      <trkpt lat="40.22470244206" lon="-8.44220995903">
        <ele>16.82886505127</ele>
        <time>2020-07-10T07:34:45.304Z</time>
      </trkpt>
      <trkpt lat="40.22473462857" lon="-8.44203829765">
        <ele>17.15067672729</ele>
        <time>2020-07-10T07:35:05.860Z</time>
      </trkpt>
      <trkpt lat="40.22477754392" lon="-8.44186663628">
        <ele>17.51110649109</ele>
        <time>2020-07-10T07:35:26.419Z</time>
      </trkpt>
      <trkpt lat="40.2248311881" lon="-8.44161987305">
        <ele>18.00025939941</ele>
        <time>2020-07-10T07:35:46.981Z</time>
      </trkpt>
      <trkpt lat="40.22491693497" lon="-8.44155550003">
        <ele>18.38613128662</ele>
        <time>2020-07-10T07:36:07.545Z</time>
      </trkpt>
      <trkpt lat="40.2258181572" lon="-8.44160914421">
        <ele>20.23172950745</ele>
        <time>2020-07-10T07:36:28.127Z</time>
      </trkpt>
      <trkpt lat="40.22585494367" lon="-8.44164067545">
        <ele>19.87233352661</ele>
        <time>2020-07-10T07:36:48.710Z</time>
      </trkpt>
    </trkseg>
  </trk>
</gpx>
